<?xml version="1.0" encoding="UTF-8" standalone="no" ?>
<gpx xmlns="http://www.topografix.com/GPX/1/1" xmlns:xsi="http://www.w3.org/2001/XMLSchema-instance" xsi:schemaLocation="http://www.topografix.com/GPX/1/1 http://www.topografix.com/GPX/1/1/gpx.xsd" version="1.1" creator="VisuGPX - https://www.visugpx.com">
  <metadata>
    <name>FLUY </name>
  </metadata>
  <trk>
    <name><![CDATA[FLUY _1]]></name>
    <trkseg>
      <trkpt lat="49.8595" lon="2.09878">
        <ele>127.4</ele>
        <time>2023-01-11T13:02:10Z</time>
      </trkpt>
      <trkpt lat="49.8595" lon="2.09878">
        <ele>127.4</ele>
        <time>2023-01-11T13:02:11Z</time>
      </trkpt>
      <trkpt lat="49.8595" lon="2.09878">
        <ele>127.4</ele>
        <time>2023-01-11T13:02:12Z</time>
      </trkpt>
      <trkpt lat="49.8595" lon="2.09878">
        <ele>127.4</ele>
        <time>2023-01-11T13:02:13Z</time>
      </trkpt>
      <trkpt lat="49.8595" lon="2.09878">
        <ele>127.4</ele>
        <time>2023-01-11T13:02:14Z</time>
      </trkpt>
      <trkpt lat="49.8595" lon="2.09878">
        <ele>127.4</ele>
        <time>2023-01-11T13:02:15Z</time>
      </trkpt>
      <trkpt lat="49.8595" lon="2.09878">
        <ele>127.4</ele>
        <time>2023-01-11T13:02:17Z</time>
      </trkpt>
      <trkpt lat="49.8595" lon="2.09878">
        <ele>127.4</ele>
        <time>2023-01-11T13:02:18Z</time>
      </trkpt>
      <trkpt lat="49.8595" lon="2.09878">
        <ele>127.4</ele>
        <time>2023-01-11T13:02:19Z</time>
      </trkpt>
      <trkpt lat="49.8595" lon="2.09878">
        <ele>127.4</ele>
        <time>2023-01-11T13:02:20Z</time>
      </trkpt>
      <trkpt lat="49.8595" lon="2.09878">
        <ele>127.4</ele>
        <time>2023-01-11T13:02:21Z</time>
      </trkpt>
      <trkpt lat="49.8595" lon="2.09878">
        <ele>127.4</ele>
        <time>2023-01-11T13:02:22Z</time>
      </trkpt>
      <trkpt lat="49.8595" lon="2.09878">
        <ele>127.4</ele>
        <time>2023-01-11T13:02:23Z</time>
      </trkpt>
      <trkpt lat="49.8595" lon="2.09878">
        <ele>127.4</ele>
        <time>2023-01-11T13:02:24Z</time>
      </trkpt>
      <trkpt lat="49.8595" lon="2.09878">
        <ele>127.4</ele>
        <time>2023-01-11T13:02:25Z</time>
      </trkpt>
      <trkpt lat="49.8595" lon="2.09878">
        <ele>127.4</ele>
        <time>2023-01-11T13:02:26Z</time>
      </trkpt>
      <trkpt lat="49.8595" lon="2.09878">
        <ele>127.4</ele>
        <time>2023-01-11T13:02:27Z</time>
      </trkpt>
      <trkpt lat="49.8595" lon="2.09878">
        <ele>127.4</ele>
        <time>2023-01-11T13:02:28Z</time>
      </trkpt>
      <trkpt lat="49.8595" lon="2.09878">
        <ele>127.4</ele>
        <time>2023-01-11T13:02:29Z</time>
      </trkpt>
      <trkpt lat="49.8595" lon="2.09878">
        <ele>127.4</ele>
        <time>2023-01-11T13:02:30Z</time>
      </trkpt>
      <trkpt lat="49.8595" lon="2.09878">
        <ele>127.4</ele>
        <time>2023-01-11T13:02:31Z</time>
      </trkpt>
      <trkpt lat="49.8595" lon="2.09878">
        <ele>127.4</ele>
        <time>2023-01-11T13:02:32Z</time>
      </trkpt>
      <trkpt lat="49.8595" lon="2.09878">
        <ele>127.4</ele>
        <time>2023-01-11T13:02:33Z</time>
      </trkpt>
      <trkpt lat="49.8595" lon="2.09878">
        <ele>127.4</ele>
        <time>2023-01-11T13:02:34Z</time>
      </trkpt>
      <trkpt lat="49.8595" lon="2.09878">
        <ele>127.4</ele>
        <time>2023-01-11T13:02:35Z</time>
      </trkpt>
      <trkpt lat="49.8595" lon="2.09878">
        <ele>127.4</ele>
        <time>2023-01-11T13:02:36Z</time>
      </trkpt>
      <trkpt lat="49.8595" lon="2.09878">
        <ele>127.4</ele>
        <time>2023-01-11T13:02:37Z</time>
      </trkpt>
      <trkpt lat="49.8595" lon="2.09878">
        <ele>127.4</ele>
        <time>2023-01-11T13:02:38Z</time>
      </trkpt>
      <trkpt lat="49.8595" lon="2.09878">
        <ele>127.4</ele>
        <time>2023-01-11T13:02:39Z</time>
      </trkpt>
      <trkpt lat="49.8595" lon="2.09878">
        <ele>127.4</ele>
        <time>2023-01-11T13:02:40Z</time>
      </trkpt>
      <trkpt lat="49.8595" lon="2.09878">
        <ele>127.4</ele>
        <time>2023-01-11T13:02:41Z</time>
      </trkpt>
      <trkpt lat="49.8595" lon="2.09878">
        <ele>127.4</ele>
        <time>2023-01-11T13:02:42Z</time>
      </trkpt>
      <trkpt lat="49.8595" lon="2.09878">
        <ele>127.4</ele>
        <time>2023-01-11T13:02:43Z</time>
      </trkpt>
      <trkpt lat="49.8595" lon="2.09878">
        <ele>127.4</ele>
        <time>2023-01-11T13:02:44Z</time>
      </trkpt>
      <trkpt lat="49.8595" lon="2.09878">
        <ele>127.4</ele>
        <time>2023-01-11T13:02:45Z</time>
      </trkpt>
      <trkpt lat="49.8595" lon="2.09878">
        <ele>127.4</ele>
        <time>2023-01-11T13:02:46Z</time>
      </trkpt>
      <trkpt lat="49.8595" lon="2.09878">
        <ele>127.4</ele>
        <time>2023-01-11T13:02:47Z</time>
      </trkpt>
      <trkpt lat="49.8595" lon="2.09878">
        <ele>127.4</ele>
        <time>2023-01-11T13:02:48Z</time>
      </trkpt>
      <trkpt lat="49.8595" lon="2.09878">
        <ele>127.4</ele>
        <time>2023-01-11T13:02:49Z</time>
      </trkpt>
      <trkpt lat="49.8595" lon="2.09878">
        <ele>127.4</ele>
        <time>2023-01-11T13:02:50Z</time>
      </trkpt>
      <trkpt lat="49.8595" lon="2.09878">
        <ele>127.4</ele>
        <time>2023-01-11T13:02:51Z</time>
      </trkpt>
      <trkpt lat="49.8595" lon="2.09878">
        <ele>127.4</ele>
        <time>2023-01-11T13:02:52Z</time>
      </trkpt>
      <trkpt lat="49.8595" lon="2.09878">
        <ele>127.4</ele>
        <time>2023-01-11T13:02:53Z</time>
      </trkpt>
      <trkpt lat="49.8595" lon="2.09878">
        <ele>127.4</ele>
        <time>2023-01-11T13:02:54Z</time>
      </trkpt>
      <trkpt lat="49.8595" lon="2.09878">
        <ele>127.4</ele>
        <time>2023-01-11T13:02:55Z</time>
      </trkpt>
      <trkpt lat="49.8595" lon="2.09878">
        <ele>127.4</ele>
        <time>2023-01-11T13:02:56Z</time>
      </trkpt>
      <trkpt lat="49.8595" lon="2.09878">
        <ele>127.4</ele>
        <time>2023-01-11T13:02:57Z</time>
      </trkpt>
      <trkpt lat="49.8595" lon="2.09878">
        <ele>127.4</ele>
        <time>2023-01-11T13:02:58Z</time>
      </trkpt>
      <trkpt lat="49.8595" lon="2.09878">
        <ele>127.4</ele>
        <time>2023-01-11T13:02:59Z</time>
      </trkpt>
      <trkpt lat="49.8595" lon="2.09878">
        <ele>127.4</ele>
        <time>2023-01-11T13:03:00Z</time>
      </trkpt>
      <trkpt lat="49.8595" lon="2.09878">
        <ele>127.4</ele>
        <time>2023-01-11T13:03:01Z</time>
      </trkpt>
      <trkpt lat="49.8595" lon="2.09878">
        <ele>127.4</ele>
        <time>2023-01-11T13:03:02Z</time>
      </trkpt>
      <trkpt lat="49.8595" lon="2.09878">
        <ele>127.4</ele>
        <time>2023-01-11T13:03:03Z</time>
      </trkpt>
      <trkpt lat="49.8595" lon="2.09878">
        <ele>127.4</ele>
        <time>2023-01-11T13:03:04Z</time>
      </trkpt>
      <trkpt lat="49.8595" lon="2.09878">
        <ele>127.4</ele>
        <time>2023-01-11T13:03:05Z</time>
      </trkpt>
      <trkpt lat="49.8595" lon="2.09878">
        <ele>127.4</ele>
        <time>2023-01-11T13:03:06Z</time>
      </trkpt>
      <trkpt lat="49.8595" lon="2.09878">
        <ele>127.4</ele>
        <time>2023-01-11T13:03:07Z</time>
      </trkpt>
      <trkpt lat="49.8595" lon="2.09878">
        <ele>127.4</ele>
        <time>2023-01-11T13:03:08Z</time>
      </trkpt>
      <trkpt lat="49.8595" lon="2.09878">
        <ele>127.4</ele>
        <time>2023-01-11T13:03:09Z</time>
      </trkpt>
      <trkpt lat="49.8595" lon="2.09878">
        <ele>127.4</ele>
        <time>2023-01-11T13:03:10Z</time>
      </trkpt>
      <trkpt lat="49.8595" lon="2.09878">
        <ele>127.4</ele>
        <time>2023-01-11T13:03:11Z</time>
      </trkpt>
      <trkpt lat="49.8595" lon="2.09878">
        <ele>127.4</ele>
        <time>2023-01-11T13:03:12Z</time>
      </trkpt>
      <trkpt lat="49.8595" lon="2.09878">
        <ele>127.4</ele>
        <time>2023-01-11T13:03:13Z</time>
      </trkpt>
      <trkpt lat="49.8595" lon="2.09878">
        <ele>127.4</ele>
        <time>2023-01-11T13:03:14Z</time>
      </trkpt>
      <trkpt lat="49.8595" lon="2.09878">
        <ele>127.4</ele>
        <time>2023-01-11T13:03:15Z</time>
      </trkpt>
      <trkpt lat="49.8595" lon="2.09878">
        <ele>127.4</ele>
        <time>2023-01-11T13:03:16Z</time>
      </trkpt>
      <trkpt lat="49.8595" lon="2.09878">
        <ele>127.4</ele>
        <time>2023-01-11T13:03:17Z</time>
      </trkpt>
      <trkpt lat="49.8595" lon="2.09878">
        <ele>127.4</ele>
        <time>2023-01-11T13:03:18Z</time>
      </trkpt>
      <trkpt lat="49.8595" lon="2.09878">
        <ele>127.4</ele>
        <time>2023-01-11T13:03:19Z</time>
      </trkpt>
      <trkpt lat="49.8595" lon="2.09878">
        <ele>127.4</ele>
        <time>2023-01-11T13:03:20Z</time>
      </trkpt>
      <trkpt lat="49.8595" lon="2.09878">
        <ele>127.4</ele>
        <time>2023-01-11T13:03:21Z</time>
      </trkpt>
      <trkpt lat="49.8595" lon="2.09878">
        <ele>127.4</ele>
        <time>2023-01-11T13:03:22Z</time>
      </trkpt>
      <trkpt lat="49.8595" lon="2.09878">
        <ele>127.4</ele>
        <time>2023-01-11T13:03:23Z</time>
      </trkpt>
      <trkpt lat="49.8595" lon="2.09878">
        <ele>127.4</ele>
        <time>2023-01-11T13:03:24Z</time>
      </trkpt>
      <trkpt lat="49.8595" lon="2.09878">
        <ele>127.4</ele>
        <time>2023-01-11T13:03:25Z</time>
      </trkpt>
      <trkpt lat="49.8595" lon="2.09878">
        <ele>127.4</ele>
        <time>2023-01-11T13:03:26Z</time>
      </trkpt>
      <trkpt lat="49.8595" lon="2.09878">
        <ele>127.4</ele>
        <time>2023-01-11T13:03:27Z</time>
      </trkpt>
      <trkpt lat="49.8595" lon="2.09878">
        <ele>127.4</ele>
        <time>2023-01-11T13:03:28Z</time>
      </trkpt>
      <trkpt lat="49.85949" lon="2.09877">
        <ele>127.4</ele>
        <time>2023-01-11T13:03:29Z</time>
      </trkpt>
      <trkpt lat="49.85949" lon="2.09876">
        <ele>127.4</ele>
        <time>2023-01-11T13:03:30Z</time>
      </trkpt>
      <trkpt lat="49.85948" lon="2.09876">
        <ele>127.4</ele>
        <time>2023-01-11T13:03:31Z</time>
      </trkpt>
      <trkpt lat="49.85947" lon="2.09875">
        <ele>127.4</ele>
        <time>2023-01-11T13:03:32Z</time>
      </trkpt>
      <trkpt lat="49.85946" lon="2.09875">
        <ele>127.4</ele>
        <time>2023-01-11T13:03:33Z</time>
      </trkpt>
      <trkpt lat="49.85946" lon="2.09875">
        <ele>127.4</ele>
        <time>2023-01-11T13:03:34Z</time>
      </trkpt>
      <trkpt lat="49.85945" lon="2.09874">
        <ele>127.4</ele>
        <time>2023-01-11T13:03:35Z</time>
      </trkpt>
      <trkpt lat="49.85944" lon="2.09874">
        <ele>127.4</ele>
        <time>2023-01-11T13:03:36Z</time>
      </trkpt>
      <trkpt lat="49.85943" lon="2.09873">
        <ele>127.5</ele>
        <time>2023-01-11T13:03:37Z</time>
      </trkpt>
      <trkpt lat="49.85943" lon="2.09872">
        <ele>127.5</ele>
        <time>2023-01-11T13:03:38Z</time>
      </trkpt>
      <trkpt lat="49.85942" lon="2.09872">
        <ele>127.5</ele>
        <time>2023-01-11T13:03:39Z</time>
      </trkpt>
      <trkpt lat="49.8594" lon="2.09871">
        <ele>127.5</ele>
        <time>2023-01-11T13:03:40Z</time>
      </trkpt>
      <trkpt lat="49.85939" lon="2.09871">
        <ele>127.5</ele>
        <time>2023-01-11T13:03:41Z</time>
      </trkpt>
      <trkpt lat="49.85936" lon="2.09871">
        <ele>127.5</ele>
        <time>2023-01-11T13:03:42Z</time>
      </trkpt>
      <trkpt lat="49.85934" lon="2.09872">
        <ele>127.6</ele>
        <time>2023-01-11T13:03:43Z</time>
      </trkpt>
      <trkpt lat="49.85933" lon="2.09871">
        <ele>127.6</ele>
        <time>2023-01-11T13:03:44Z</time>
      </trkpt>
      <trkpt lat="49.85931" lon="2.0987">
        <ele>127.6</ele>
        <time>2023-01-11T13:03:45Z</time>
      </trkpt>
      <trkpt lat="49.85929" lon="2.09869">
        <ele>127.6</ele>
        <time>2023-01-11T13:03:47Z</time>
      </trkpt>
      <trkpt lat="49.85928" lon="2.09868">
        <ele>127.6</ele>
        <time>2023-01-11T13:03:48Z</time>
      </trkpt>
      <trkpt lat="49.85927" lon="2.09867">
        <ele>127.6</ele>
        <time>2023-01-11T13:03:49Z</time>
      </trkpt>
      <trkpt lat="49.85927" lon="2.09866">
        <ele>127.6</ele>
        <time>2023-01-11T13:03:50Z</time>
      </trkpt>
      <trkpt lat="49.85926" lon="2.09865">
        <ele>127.6</ele>
        <time>2023-01-11T13:03:51Z</time>
      </trkpt>
      <trkpt lat="49.85926" lon="2.09863">
        <ele>127.6</ele>
        <time>2023-01-11T13:03:52Z</time>
      </trkpt>
      <trkpt lat="49.85925" lon="2.09861">
        <ele>127.6</ele>
        <time>2023-01-11T13:03:54Z</time>
      </trkpt>
      <trkpt lat="49.85925" lon="2.0986">
        <ele>127.6</ele>
        <time>2023-01-11T13:03:55Z</time>
      </trkpt>
      <trkpt lat="49.85924" lon="2.09858">
        <ele>127.6</ele>
        <time>2023-01-11T13:03:56Z</time>
      </trkpt>
      <trkpt lat="49.85924" lon="2.09857">
        <ele>127.6</ele>
        <time>2023-01-11T13:03:57Z</time>
      </trkpt>
      <trkpt lat="49.85924" lon="2.09856">
        <ele>127.6</ele>
        <time>2023-01-11T13:03:58Z</time>
      </trkpt>
      <trkpt lat="49.85923" lon="2.09854">
        <ele>127.6</ele>
        <time>2023-01-11T13:03:59Z</time>
      </trkpt>
      <trkpt lat="49.85922" lon="2.09852">
        <ele>127.6</ele>
        <time>2023-01-11T13:04:00Z</time>
      </trkpt>
      <trkpt lat="49.85922" lon="2.09851">
        <ele>127.6</ele>
        <time>2023-01-11T13:04:02Z</time>
      </trkpt>
      <trkpt lat="49.85922" lon="2.09849">
        <ele>127.7</ele>
        <time>2023-01-11T13:04:03Z</time>
      </trkpt>
      <trkpt lat="49.85921" lon="2.09847">
        <ele>127.7</ele>
        <time>2023-01-11T13:04:04Z</time>
      </trkpt>
      <trkpt lat="49.8592" lon="2.09845">
        <ele>127.7</ele>
        <time>2023-01-11T13:04:05Z</time>
      </trkpt>
      <trkpt lat="49.8592" lon="2.09842">
        <ele>127.7</ele>
        <time>2023-01-11T13:04:06Z</time>
      </trkpt>
      <trkpt lat="49.85919" lon="2.0984">
        <ele>127.7</ele>
        <time>2023-01-11T13:04:07Z</time>
      </trkpt>
      <trkpt lat="49.85918" lon="2.09837">
        <ele>127.7</ele>
        <time>2023-01-11T13:04:08Z</time>
      </trkpt>
      <trkpt lat="49.85918" lon="2.09835">
        <ele>127.7</ele>
        <time>2023-01-11T13:04:10Z</time>
      </trkpt>
      <trkpt lat="49.85917" lon="2.09834">
        <ele>127.7</ele>
        <time>2023-01-11T13:04:11Z</time>
      </trkpt>
      <trkpt lat="49.85917" lon="2.09832">
        <ele>127.7</ele>
        <time>2023-01-11T13:04:12Z</time>
      </trkpt>
      <trkpt lat="49.85917" lon="2.09831">
        <ele>127.7</ele>
        <time>2023-01-11T13:04:13Z</time>
      </trkpt>
      <trkpt lat="49.85916" lon="2.09829">
        <ele>127.7</ele>
        <time>2023-01-11T13:04:14Z</time>
      </trkpt>
      <trkpt lat="49.85916" lon="2.09828">
        <ele>127.7</ele>
        <time>2023-01-11T13:04:15Z</time>
      </trkpt>
      <trkpt lat="49.85916" lon="2.09826">
        <ele>127.7</ele>
        <time>2023-01-11T13:04:16Z</time>
      </trkpt>
      <trkpt lat="49.85915" lon="2.09825">
        <ele>127.7</ele>
        <time>2023-01-11T13:04:17Z</time>
      </trkpt>
      <trkpt lat="49.85915" lon="2.09823">
        <ele>127.7</ele>
        <time>2023-01-11T13:04:18Z</time>
      </trkpt>
      <trkpt lat="49.85915" lon="2.09821">
        <ele>127.7</ele>
        <time>2023-01-11T13:04:19Z</time>
      </trkpt>
      <trkpt lat="49.85915" lon="2.0982">
        <ele>127.7</ele>
        <time>2023-01-11T13:04:21Z</time>
      </trkpt>
      <trkpt lat="49.85915" lon="2.0982">
        <ele>127.7</ele>
        <time>2023-01-11T13:04:22Z</time>
      </trkpt>
      <trkpt lat="49.85915" lon="2.09818">
        <ele>127.7</ele>
        <time>2023-01-11T13:04:23Z</time>
      </trkpt>
      <trkpt lat="49.85914" lon="2.09817">
        <ele>127.7</ele>
        <time>2023-01-11T13:04:24Z</time>
      </trkpt>
      <trkpt lat="49.85914" lon="2.09816">
        <ele>127.7</ele>
        <time>2023-01-11T13:04:25Z</time>
      </trkpt>
      <trkpt lat="49.85913" lon="2.09812">
        <ele>127.7</ele>
        <time>2023-01-11T13:04:26Z</time>
      </trkpt>
      <trkpt lat="49.85913" lon="2.0981">
        <ele>127.7</ele>
        <time>2023-01-11T13:04:27Z</time>
      </trkpt>
      <trkpt lat="49.85912" lon="2.09807">
        <ele>127.7</ele>
        <time>2023-01-11T13:04:28Z</time>
      </trkpt>
      <trkpt lat="49.85912" lon="2.09805">
        <ele>127.6</ele>
        <time>2023-01-11T13:04:30Z</time>
      </trkpt>
      <trkpt lat="49.85911" lon="2.09802">
        <ele>127.6</ele>
        <time>2023-01-11T13:04:31Z</time>
      </trkpt>
      <trkpt lat="49.85911" lon="2.098">
        <ele>127.6</ele>
        <time>2023-01-11T13:04:32Z</time>
      </trkpt>
      <trkpt lat="49.8591" lon="2.09797">
        <ele>127.6</ele>
        <time>2023-01-11T13:04:33Z</time>
      </trkpt>
      <trkpt lat="49.85909" lon="2.09795">
        <ele>127.6</ele>
        <time>2023-01-11T13:04:34Z</time>
      </trkpt>
      <trkpt lat="49.85909" lon="2.09792">
        <ele>127.6</ele>
        <time>2023-01-11T13:04:35Z</time>
      </trkpt>
      <trkpt lat="49.85908" lon="2.0979">
        <ele>127.6</ele>
        <time>2023-01-11T13:04:36Z</time>
      </trkpt>
      <trkpt lat="49.85907" lon="2.09788">
        <ele>127.6</ele>
        <time>2023-01-11T13:04:37Z</time>
      </trkpt>
      <trkpt lat="49.85906" lon="2.09785">
        <ele>127.6</ele>
        <time>2023-01-11T13:04:38Z</time>
      </trkpt>
      <trkpt lat="49.85905" lon="2.09782">
        <ele>127.6</ele>
        <time>2023-01-11T13:04:40Z</time>
      </trkpt>
      <trkpt lat="49.85904" lon="2.09779">
        <ele>127.6</ele>
        <time>2023-01-11T13:04:42Z</time>
      </trkpt>
      <trkpt lat="49.85903" lon="2.09777">
        <ele>127.6</ele>
        <time>2023-01-11T13:04:43Z</time>
      </trkpt>
      <trkpt lat="49.85902" lon="2.09775">
        <ele>127.6</ele>
        <time>2023-01-11T13:04:44Z</time>
      </trkpt>
      <trkpt lat="49.85902" lon="2.09773">
        <ele>127.6</ele>
        <time>2023-01-11T13:04:45Z</time>
      </trkpt>
      <trkpt lat="49.85901" lon="2.09771">
        <ele>127.6</ele>
        <time>2023-01-11T13:04:46Z</time>
      </trkpt>
      <trkpt lat="49.859" lon="2.09769">
        <ele>127.6</ele>
        <time>2023-01-11T13:04:47Z</time>
      </trkpt>
      <trkpt lat="49.859" lon="2.09767">
        <ele>127.6</ele>
        <time>2023-01-11T13:04:48Z</time>
      </trkpt>
      <trkpt lat="49.859" lon="2.09764">
        <ele>127.6</ele>
        <time>2023-01-11T13:04:49Z</time>
      </trkpt>
      <trkpt lat="49.85899" lon="2.09762">
        <ele>127.6</ele>
        <time>2023-01-11T13:04:50Z</time>
      </trkpt>
      <trkpt lat="49.85899" lon="2.09759">
        <ele>127.6</ele>
        <time>2023-01-11T13:04:51Z</time>
      </trkpt>
      <trkpt lat="49.85899" lon="2.09755">
        <ele>127.6</ele>
        <time>2023-01-11T13:04:53Z</time>
      </trkpt>
      <trkpt lat="49.85899" lon="2.09753">
        <ele>127.6</ele>
        <time>2023-01-11T13:04:54Z</time>
      </trkpt>
      <trkpt lat="49.85898" lon="2.09751">
        <ele>127.6</ele>
        <time>2023-01-11T13:04:55Z</time>
      </trkpt>
      <trkpt lat="49.85898" lon="2.09749">
        <ele>127.6</ele>
        <time>2023-01-11T13:04:56Z</time>
      </trkpt>
      <trkpt lat="49.85898" lon="2.09746">
        <ele>127.6</ele>
        <time>2023-01-11T13:04:57Z</time>
      </trkpt>
      <trkpt lat="49.85899" lon="2.09743">
        <ele>127.6</ele>
        <time>2023-01-11T13:04:58Z</time>
      </trkpt>
      <trkpt lat="49.85899" lon="2.09742">
        <ele>127.6</ele>
        <time>2023-01-11T13:04:59Z</time>
      </trkpt>
      <trkpt lat="49.85899" lon="2.0974">
        <ele>127.6</ele>
        <time>2023-01-11T13:05:00Z</time>
      </trkpt>
      <trkpt lat="49.85898" lon="2.09738">
        <ele>127.6</ele>
        <time>2023-01-11T13:05:01Z</time>
      </trkpt>
      <trkpt lat="49.85897" lon="2.09733">
        <ele>127.6</ele>
        <time>2023-01-11T13:05:03Z</time>
      </trkpt>
      <trkpt lat="49.85897" lon="2.09731">
        <ele>127.6</ele>
        <time>2023-01-11T13:05:04Z</time>
      </trkpt>
      <trkpt lat="49.85896" lon="2.0973">
        <ele>127.6</ele>
        <time>2023-01-11T13:05:05Z</time>
      </trkpt>
      <trkpt lat="49.85896" lon="2.09728">
        <ele>127.6</ele>
        <time>2023-01-11T13:05:06Z</time>
      </trkpt>
      <trkpt lat="49.85895" lon="2.09726">
        <ele>127.6</ele>
        <time>2023-01-11T13:05:07Z</time>
      </trkpt>
      <trkpt lat="49.85895" lon="2.09723">
        <ele>127.6</ele>
        <time>2023-01-11T13:05:08Z</time>
      </trkpt>
      <trkpt lat="49.85894" lon="2.09722">
        <ele>127.6</ele>
        <time>2023-01-11T13:05:09Z</time>
      </trkpt>
      <trkpt lat="49.85894" lon="2.09721">
        <ele>127.6</ele>
        <time>2023-01-11T13:05:10Z</time>
      </trkpt>
      <trkpt lat="49.85894" lon="2.09719">
        <ele>127.6</ele>
        <time>2023-01-11T13:05:11Z</time>
      </trkpt>
      <trkpt lat="49.85893" lon="2.09717">
        <ele>127.6</ele>
        <time>2023-01-11T13:05:13Z</time>
      </trkpt>
      <trkpt lat="49.85893" lon="2.09715">
        <ele>127.6</ele>
        <time>2023-01-11T13:05:14Z</time>
      </trkpt>
      <trkpt lat="49.85893" lon="2.09714">
        <ele>127.6</ele>
        <time>2023-01-11T13:05:15Z</time>
      </trkpt>
      <trkpt lat="49.85893" lon="2.09712">
        <ele>127.6</ele>
        <time>2023-01-11T13:05:16Z</time>
      </trkpt>
      <trkpt lat="49.85893" lon="2.0971">
        <ele>127.6</ele>
        <time>2023-01-11T13:05:17Z</time>
      </trkpt>
      <trkpt lat="49.85893" lon="2.09706">
        <ele>127.6</ele>
        <time>2023-01-11T13:05:18Z</time>
      </trkpt>
      <trkpt lat="49.85893" lon="2.09704">
        <ele>127.6</ele>
        <time>2023-01-11T13:05:20Z</time>
      </trkpt>
      <trkpt lat="49.85893" lon="2.09702">
        <ele>127.6</ele>
        <time>2023-01-11T13:05:21Z</time>
      </trkpt>
      <trkpt lat="49.85892" lon="2.097">
        <ele>127.6</ele>
        <time>2023-01-11T13:05:22Z</time>
      </trkpt>
      <trkpt lat="49.85892" lon="2.09699">
        <ele>127.6</ele>
        <time>2023-01-11T13:05:23Z</time>
      </trkpt>
      <trkpt lat="49.85894" lon="2.09696">
        <ele>127.6</ele>
        <time>2023-01-11T13:05:24Z</time>
      </trkpt>
      <trkpt lat="49.85894" lon="2.09694">
        <ele>127.6</ele>
        <time>2023-01-11T13:05:25Z</time>
      </trkpt>
      <trkpt lat="49.85894" lon="2.09692">
        <ele>127.6</ele>
        <time>2023-01-11T13:05:26Z</time>
      </trkpt>
      <trkpt lat="49.85895" lon="2.0969">
        <ele>127.6</ele>
        <time>2023-01-11T13:05:27Z</time>
      </trkpt>
      <trkpt lat="49.85895" lon="2.09687">
        <ele>127.6</ele>
        <time>2023-01-11T13:05:29Z</time>
      </trkpt>
      <trkpt lat="49.85895" lon="2.09686">
        <ele>127.6</ele>
        <time>2023-01-11T13:05:30Z</time>
      </trkpt>
      <trkpt lat="49.85895" lon="2.09684">
        <ele>127.6</ele>
        <time>2023-01-11T13:05:31Z</time>
      </trkpt>
      <trkpt lat="49.85894" lon="2.09682">
        <ele>127.6</ele>
        <time>2023-01-11T13:05:32Z</time>
      </trkpt>
      <trkpt lat="49.85894" lon="2.0968">
        <ele>127.6</ele>
        <time>2023-01-11T13:05:33Z</time>
      </trkpt>
      <trkpt lat="49.85893" lon="2.09678">
        <ele>127.6</ele>
        <time>2023-01-11T13:05:34Z</time>
      </trkpt>
      <trkpt lat="49.85893" lon="2.09675">
        <ele>127.6</ele>
        <time>2023-01-11T13:05:36Z</time>
      </trkpt>
      <trkpt lat="49.85893" lon="2.09672">
        <ele>127.6</ele>
        <time>2023-01-11T13:05:37Z</time>
      </trkpt>
      <trkpt lat="49.85893" lon="2.09671">
        <ele>127.6</ele>
        <time>2023-01-11T13:05:38Z</time>
      </trkpt>
      <trkpt lat="49.85893" lon="2.09669">
        <ele>127.6</ele>
        <time>2023-01-11T13:05:39Z</time>
      </trkpt>
      <trkpt lat="49.85892" lon="2.09667">
        <ele>127.6</ele>
        <time>2023-01-11T13:05:40Z</time>
      </trkpt>
      <trkpt lat="49.85892" lon="2.09663">
        <ele>127.6</ele>
        <time>2023-01-11T13:05:42Z</time>
      </trkpt>
      <trkpt lat="49.85892" lon="2.09661">
        <ele>127.6</ele>
        <time>2023-01-11T13:05:43Z</time>
      </trkpt>
      <trkpt lat="49.85892" lon="2.09659">
        <ele>127.6</ele>
        <time>2023-01-11T13:05:44Z</time>
      </trkpt>
      <trkpt lat="49.85892" lon="2.09656">
        <ele>127.6</ele>
        <time>2023-01-11T13:05:45Z</time>
      </trkpt>
      <trkpt lat="49.85892" lon="2.09654">
        <ele>127.6</ele>
        <time>2023-01-11T13:05:46Z</time>
      </trkpt>
      <trkpt lat="49.85892" lon="2.09652">
        <ele>127.6</ele>
        <time>2023-01-11T13:05:47Z</time>
      </trkpt>
      <trkpt lat="49.85891" lon="2.09649">
        <ele>127.6</ele>
        <time>2023-01-11T13:05:48Z</time>
      </trkpt>
      <trkpt lat="49.85891" lon="2.09646">
        <ele>127.6</ele>
        <time>2023-01-11T13:05:50Z</time>
      </trkpt>
      <trkpt lat="49.85891" lon="2.09644">
        <ele>127.6</ele>
        <time>2023-01-11T13:05:51Z</time>
      </trkpt>
      <trkpt lat="49.85891" lon="2.09643">
        <ele>127.6</ele>
        <time>2023-01-11T13:05:52Z</time>
      </trkpt>
      <trkpt lat="49.85892" lon="2.09638">
        <ele>127.6</ele>
        <time>2023-01-11T13:05:53Z</time>
      </trkpt>
      <trkpt lat="49.85892" lon="2.09638">
        <ele>127.6</ele>
        <time>2023-01-11T13:05:54Z</time>
      </trkpt>
      <trkpt lat="49.85892" lon="2.09636">
        <ele>127.6</ele>
        <time>2023-01-11T13:05:55Z</time>
      </trkpt>
      <trkpt lat="49.85893" lon="2.09633">
        <ele>127.6</ele>
        <time>2023-01-11T13:05:56Z</time>
      </trkpt>
      <trkpt lat="49.85894" lon="2.09632">
        <ele>127.5</ele>
        <time>2023-01-11T13:05:57Z</time>
      </trkpt>
      <trkpt lat="49.85896" lon="2.09629">
        <ele>127.5</ele>
        <time>2023-01-11T13:05:59Z</time>
      </trkpt>
      <trkpt lat="49.85896" lon="2.09628">
        <ele>127.5</ele>
        <time>2023-01-11T13:06:00Z</time>
      </trkpt>
      <trkpt lat="49.85897" lon="2.09626">
        <ele>127.5</ele>
        <time>2023-01-11T13:06:01Z</time>
      </trkpt>
      <trkpt lat="49.85897" lon="2.0962">
        <ele>127.5</ele>
        <time>2023-01-11T13:06:02Z</time>
      </trkpt>
      <trkpt lat="49.85897" lon="2.09617">
        <ele>127.5</ele>
        <time>2023-01-11T13:06:03Z</time>
      </trkpt>
      <trkpt lat="49.85898" lon="2.09614">
        <ele>127.5</ele>
        <time>2023-01-11T13:06:04Z</time>
      </trkpt>
      <trkpt lat="49.85898" lon="2.09613">
        <ele>127.5</ele>
        <time>2023-01-11T13:06:05Z</time>
      </trkpt>
      <trkpt lat="49.85898" lon="2.09611">
        <ele>127.5</ele>
        <time>2023-01-11T13:06:06Z</time>
      </trkpt>
      <trkpt lat="49.85897" lon="2.09604">
        <ele>127.4</ele>
        <time>2023-01-11T13:06:08Z</time>
      </trkpt>
      <trkpt lat="49.85897" lon="2.09601">
        <ele>127.4</ele>
        <time>2023-01-11T13:06:09Z</time>
      </trkpt>
      <trkpt lat="49.85897" lon="2.096">
        <ele>127.4</ele>
        <time>2023-01-11T13:06:10Z</time>
      </trkpt>
      <trkpt lat="49.85897" lon="2.09598">
        <ele>127.4</ele>
        <time>2023-01-11T13:06:11Z</time>
      </trkpt>
      <trkpt lat="49.85897" lon="2.09593">
        <ele>127.4</ele>
        <time>2023-01-11T13:06:12Z</time>
      </trkpt>
      <trkpt lat="49.85896" lon="2.09589">
        <ele>127.4</ele>
        <time>2023-01-11T13:06:13Z</time>
      </trkpt>
      <trkpt lat="49.85896" lon="2.09588">
        <ele>127.4</ele>
        <time>2023-01-11T13:06:14Z</time>
      </trkpt>
      <trkpt lat="49.85897" lon="2.09586">
        <ele>127.4</ele>
        <time>2023-01-11T13:06:15Z</time>
      </trkpt>
      <trkpt lat="49.85897" lon="2.09584">
        <ele>127.4</ele>
        <time>2023-01-11T13:06:17Z</time>
      </trkpt>
      <trkpt lat="49.85898" lon="2.09581">
        <ele>127.4</ele>
        <time>2023-01-11T13:06:18Z</time>
      </trkpt>
      <trkpt lat="49.85898" lon="2.09579">
        <ele>127.4</ele>
        <time>2023-01-11T13:06:19Z</time>
      </trkpt>
      <trkpt lat="49.85898" lon="2.09577">
        <ele>127.3</ele>
        <time>2023-01-11T13:06:20Z</time>
      </trkpt>
      <trkpt lat="49.859" lon="2.09574">
        <ele>127.3</ele>
        <time>2023-01-11T13:06:22Z</time>
      </trkpt>
      <trkpt lat="49.85899" lon="2.0957">
        <ele>127.3</ele>
        <time>2023-01-11T13:06:24Z</time>
      </trkpt>
      <trkpt lat="49.859" lon="2.09569">
        <ele>127.3</ele>
        <time>2023-01-11T13:06:25Z</time>
      </trkpt>
      <trkpt lat="49.85901" lon="2.09567">
        <ele>127.3</ele>
        <time>2023-01-11T13:06:26Z</time>
      </trkpt>
      <trkpt lat="49.85902" lon="2.09566">
        <ele>127.3</ele>
        <time>2023-01-11T13:06:27Z</time>
      </trkpt>
      <trkpt lat="49.85903" lon="2.09564">
        <ele>127.3</ele>
        <time>2023-01-11T13:06:28Z</time>
      </trkpt>
      <trkpt lat="49.85905" lon="2.09561">
        <ele>127.3</ele>
        <time>2023-01-11T13:06:29Z</time>
      </trkpt>
      <trkpt lat="49.85907" lon="2.0956">
        <ele>127.3</ele>
        <time>2023-01-11T13:06:31Z</time>
      </trkpt>
      <trkpt lat="49.85908" lon="2.09558">
        <ele>127.3</ele>
        <time>2023-01-11T13:06:32Z</time>
      </trkpt>
      <trkpt lat="49.8591" lon="2.09557">
        <ele>127.3</ele>
        <time>2023-01-11T13:06:33Z</time>
      </trkpt>
      <trkpt lat="49.85912" lon="2.09557">
        <ele>127.3</ele>
        <time>2023-01-11T13:06:34Z</time>
      </trkpt>
      <trkpt lat="49.85913" lon="2.09557">
        <ele>127.3</ele>
        <time>2023-01-11T13:06:35Z</time>
      </trkpt>
      <trkpt lat="49.85914" lon="2.09558">
        <ele>127.3</ele>
        <time>2023-01-11T13:06:36Z</time>
      </trkpt>
      <trkpt lat="49.85915" lon="2.09557">
        <ele>127.3</ele>
        <time>2023-01-11T13:06:37Z</time>
      </trkpt>
      <trkpt lat="49.85916" lon="2.09555">
        <ele>127.3</ele>
        <time>2023-01-11T13:06:38Z</time>
      </trkpt>
      <trkpt lat="49.85917" lon="2.09554">
        <ele>127.3</ele>
        <time>2023-01-11T13:06:39Z</time>
      </trkpt>
      <trkpt lat="49.85917" lon="2.09552">
        <ele>127.3</ele>
        <time>2023-01-11T13:06:40Z</time>
      </trkpt>
      <trkpt lat="49.85918" lon="2.0955">
        <ele>127.3</ele>
        <time>2023-01-11T13:06:41Z</time>
      </trkpt>
      <trkpt lat="49.85918" lon="2.09548">
        <ele>127.3</ele>
        <time>2023-01-11T13:06:43Z</time>
      </trkpt>
      <trkpt lat="49.85919" lon="2.09545">
        <ele>127.3</ele>
        <time>2023-01-11T13:06:44Z</time>
      </trkpt>
      <trkpt lat="49.85919" lon="2.09544">
        <ele>127.3</ele>
        <time>2023-01-11T13:06:45Z</time>
      </trkpt>
      <trkpt lat="49.8592" lon="2.09542">
        <ele>127.3</ele>
        <time>2023-01-11T13:06:46Z</time>
      </trkpt>
      <trkpt lat="49.8592" lon="2.0954">
        <ele>127.3</ele>
        <time>2023-01-11T13:06:47Z</time>
      </trkpt>
      <trkpt lat="49.85921" lon="2.09537">
        <ele>127.3</ele>
        <time>2023-01-11T13:06:49Z</time>
      </trkpt>
      <trkpt lat="49.85922" lon="2.09534">
        <ele>127.4</ele>
        <time>2023-01-11T13:06:50Z</time>
      </trkpt>
      <trkpt lat="49.85922" lon="2.09532">
        <ele>127.4</ele>
        <time>2023-01-11T13:06:51Z</time>
      </trkpt>
      <trkpt lat="49.85923" lon="2.09528">
        <ele>127.4</ele>
        <time>2023-01-11T13:06:52Z</time>
      </trkpt>
      <trkpt lat="49.85923" lon="2.09526">
        <ele>127.4</ele>
        <time>2023-01-11T13:06:53Z</time>
      </trkpt>
      <trkpt lat="49.85924" lon="2.09523">
        <ele>127.4</ele>
        <time>2023-01-11T13:06:54Z</time>
      </trkpt>
      <trkpt lat="49.85924" lon="2.09521">
        <ele>127.4</ele>
        <time>2023-01-11T13:06:55Z</time>
      </trkpt>
      <trkpt lat="49.85925" lon="2.09519">
        <ele>127.4</ele>
        <time>2023-01-11T13:06:56Z</time>
      </trkpt>
      <trkpt lat="49.85925" lon="2.09516">
        <ele>127.4</ele>
        <time>2023-01-11T13:06:57Z</time>
      </trkpt>
      <trkpt lat="49.85925" lon="2.09514">
        <ele>127.4</ele>
        <time>2023-01-11T13:06:59Z</time>
      </trkpt>
      <trkpt lat="49.85926" lon="2.09512">
        <ele>127.5</ele>
        <time>2023-01-11T13:07:00Z</time>
      </trkpt>
      <trkpt lat="49.85926" lon="2.0951">
        <ele>127.5</ele>
        <time>2023-01-11T13:07:01Z</time>
      </trkpt>
      <trkpt lat="49.85927" lon="2.09507">
        <ele>127.5</ele>
        <time>2023-01-11T13:07:02Z</time>
      </trkpt>
      <trkpt lat="49.85926" lon="2.09503">
        <ele>127.5</ele>
        <time>2023-01-11T13:07:04Z</time>
      </trkpt>
      <trkpt lat="49.85926" lon="2.09501">
        <ele>127.5</ele>
        <time>2023-01-11T13:07:05Z</time>
      </trkpt>
      <trkpt lat="49.85927" lon="2.09499">
        <ele>127.5</ele>
        <time>2023-01-11T13:07:06Z</time>
      </trkpt>
      <trkpt lat="49.85927" lon="2.09497">
        <ele>127.5</ele>
        <time>2023-01-11T13:07:07Z</time>
      </trkpt>
      <trkpt lat="49.85927" lon="2.09495">
        <ele>127.5</ele>
        <time>2023-01-11T13:07:08Z</time>
      </trkpt>
      <trkpt lat="49.85928" lon="2.09491">
        <ele>127.5</ele>
        <time>2023-01-11T13:07:09Z</time>
      </trkpt>
      <trkpt lat="49.85928" lon="2.0949">
        <ele>127.5</ele>
        <time>2023-01-11T13:07:10Z</time>
      </trkpt>
      <trkpt lat="49.85928" lon="2.09488">
        <ele>127.5</ele>
        <time>2023-01-11T13:07:11Z</time>
      </trkpt>
      <trkpt lat="49.85927" lon="2.09486">
        <ele>127.5</ele>
        <time>2023-01-11T13:07:13Z</time>
      </trkpt>
      <trkpt lat="49.85927" lon="2.09486">
        <ele>127.5</ele>
        <time>2023-01-11T13:07:14Z</time>
      </trkpt>
      <trkpt lat="49.85927" lon="2.09484">
        <ele>127.5</ele>
        <time>2023-01-11T13:07:15Z</time>
      </trkpt>
      <trkpt lat="49.85928" lon="2.09482">
        <ele>127.5</ele>
        <time>2023-01-11T13:07:16Z</time>
      </trkpt>
      <trkpt lat="49.85928" lon="2.0948">
        <ele>127.5</ele>
        <time>2023-01-11T13:07:17Z</time>
      </trkpt>
      <trkpt lat="49.85929" lon="2.0948">
        <ele>127.5</ele>
        <time>2023-01-11T13:07:18Z</time>
      </trkpt>
      <trkpt lat="49.85931" lon="2.09479">
        <ele>127.5</ele>
        <time>2023-01-11T13:07:20Z</time>
      </trkpt>
      <trkpt lat="49.85932" lon="2.09477">
        <ele>127.5</ele>
        <time>2023-01-11T13:07:21Z</time>
      </trkpt>
      <trkpt lat="49.85932" lon="2.09475">
        <ele>127.5</ele>
        <time>2023-01-11T13:07:22Z</time>
      </trkpt>
      <trkpt lat="49.85933" lon="2.09473">
        <ele>127.5</ele>
        <time>2023-01-11T13:07:23Z</time>
      </trkpt>
      <trkpt lat="49.85933" lon="2.09471">
        <ele>127.5</ele>
        <time>2023-01-11T13:07:24Z</time>
      </trkpt>
      <trkpt lat="49.85933" lon="2.09468">
        <ele>127.5</ele>
        <time>2023-01-11T13:07:25Z</time>
      </trkpt>
      <trkpt lat="49.85933" lon="2.09466">
        <ele>127.5</ele>
        <time>2023-01-11T13:07:26Z</time>
      </trkpt>
      <trkpt lat="49.85933" lon="2.09463">
        <ele>127.5</ele>
        <time>2023-01-11T13:07:27Z</time>
      </trkpt>
      <trkpt lat="49.85933" lon="2.09458">
        <ele>127.5</ele>
        <time>2023-01-11T13:07:29Z</time>
      </trkpt>
      <trkpt lat="49.85933" lon="2.09456">
        <ele>127.5</ele>
        <time>2023-01-11T13:07:30Z</time>
      </trkpt>
      <trkpt lat="49.85933" lon="2.09452">
        <ele>127.5</ele>
        <time>2023-01-11T13:07:31Z</time>
      </trkpt>
      <trkpt lat="49.85933" lon="2.09451">
        <ele>127.5</ele>
        <time>2023-01-11T13:07:32Z</time>
      </trkpt>
      <trkpt lat="49.85933" lon="2.09449">
        <ele>127.5</ele>
        <time>2023-01-11T13:07:33Z</time>
      </trkpt>
      <trkpt lat="49.85934" lon="2.09443">
        <ele>127.4</ele>
        <time>2023-01-11T13:07:35Z</time>
      </trkpt>
      <trkpt lat="49.85934" lon="2.09441">
        <ele>127.4</ele>
        <time>2023-01-11T13:07:36Z</time>
      </trkpt>
      <trkpt lat="49.85935" lon="2.0944">
        <ele>127.4</ele>
        <time>2023-01-11T13:07:37Z</time>
      </trkpt>
      <trkpt lat="49.85935" lon="2.09439">
        <ele>127.4</ele>
        <time>2023-01-11T13:07:38Z</time>
      </trkpt>
      <trkpt lat="49.85935" lon="2.09438">
        <ele>127.4</ele>
        <time>2023-01-11T13:07:39Z</time>
      </trkpt>
      <trkpt lat="49.85935" lon="2.09436">
        <ele>127.4</ele>
        <time>2023-01-11T13:07:40Z</time>
      </trkpt>
      <trkpt lat="49.85936" lon="2.09434">
        <ele>127.4</ele>
        <time>2023-01-11T13:07:41Z</time>
      </trkpt>
      <trkpt lat="49.85936" lon="2.09432">
        <ele>127.5</ele>
        <time>2023-01-11T13:07:42Z</time>
      </trkpt>
      <trkpt lat="49.85936" lon="2.09429">
        <ele>127.5</ele>
        <time>2023-01-11T13:07:43Z</time>
      </trkpt>
      <trkpt lat="49.85936" lon="2.09427">
        <ele>127.5</ele>
        <time>2023-01-11T13:07:45Z</time>
      </trkpt>
      <trkpt lat="49.85937" lon="2.09425">
        <ele>127.5</ele>
        <time>2023-01-11T13:07:46Z</time>
      </trkpt>
      <trkpt lat="49.85937" lon="2.09423">
        <ele>127.5</ele>
        <time>2023-01-11T13:07:47Z</time>
      </trkpt>
      <trkpt lat="49.85937" lon="2.09421">
        <ele>127.5</ele>
        <time>2023-01-11T13:07:48Z</time>
      </trkpt>
      <trkpt lat="49.85937" lon="2.0942">
        <ele>127.5</ele>
        <time>2023-01-11T13:07:49Z</time>
      </trkpt>
      <trkpt lat="49.85937" lon="2.09417">
        <ele>127.5</ele>
        <time>2023-01-11T13:07:50Z</time>
      </trkpt>
      <trkpt lat="49.85938" lon="2.09415">
        <ele>127.5</ele>
        <time>2023-01-11T13:07:51Z</time>
      </trkpt>
      <trkpt lat="49.85938" lon="2.09414">
        <ele>127.5</ele>
        <time>2023-01-11T13:07:52Z</time>
      </trkpt>
      <trkpt lat="49.85938" lon="2.09412">
        <ele>127.5</ele>
        <time>2023-01-11T13:07:53Z</time>
      </trkpt>
      <trkpt lat="49.85939" lon="2.09409">
        <ele>127.5</ele>
        <time>2023-01-11T13:07:55Z</time>
      </trkpt>
      <trkpt lat="49.85939" lon="2.09407">
        <ele>127.5</ele>
        <time>2023-01-11T13:07:56Z</time>
      </trkpt>
      <trkpt lat="49.85939" lon="2.09404">
        <ele>127.5</ele>
        <time>2023-01-11T13:07:57Z</time>
      </trkpt>
      <trkpt lat="49.8594" lon="2.09402">
        <ele>127.5</ele>
        <time>2023-01-11T13:07:58Z</time>
      </trkpt>
      <trkpt lat="49.8594" lon="2.094">
        <ele>127.5</ele>
        <time>2023-01-11T13:07:59Z</time>
      </trkpt>
      <trkpt lat="49.8594" lon="2.09396">
        <ele>127.6</ele>
        <time>2023-01-11T13:08:00Z</time>
      </trkpt>
      <trkpt lat="49.8594" lon="2.09395">
        <ele>127.5</ele>
        <time>2023-01-11T13:08:01Z</time>
      </trkpt>
      <trkpt lat="49.8594" lon="2.09394">
        <ele>127.5</ele>
        <time>2023-01-11T13:08:02Z</time>
      </trkpt>
      <trkpt lat="49.8594" lon="2.09392">
        <ele>127.4</ele>
        <time>2023-01-11T13:08:03Z</time>
      </trkpt>
      <trkpt lat="49.85939" lon="2.09391">
        <ele>127.4</ele>
        <time>2023-01-11T13:08:04Z</time>
      </trkpt>
      <trkpt lat="49.85938" lon="2.0939">
        <ele>127.4</ele>
        <time>2023-01-11T13:08:05Z</time>
      </trkpt>
      <trkpt lat="49.85937" lon="2.09388">
        <ele>127.4</ele>
        <time>2023-01-11T13:08:07Z</time>
      </trkpt>
      <trkpt lat="49.85936" lon="2.09388">
        <ele>127.3</ele>
        <time>2023-01-11T13:08:08Z</time>
      </trkpt>
      <trkpt lat="49.85935" lon="2.09388">
        <ele>127.3</ele>
        <time>2023-01-11T13:08:09Z</time>
      </trkpt>
      <trkpt lat="49.85933" lon="2.09387">
        <ele>127.3</ele>
        <time>2023-01-11T13:08:10Z</time>
      </trkpt>
      <trkpt lat="49.85931" lon="2.09386">
        <ele>127.2</ele>
        <time>2023-01-11T13:08:11Z</time>
      </trkpt>
      <trkpt lat="49.85929" lon="2.09385">
        <ele>127.2</ele>
        <time>2023-01-11T13:08:13Z</time>
      </trkpt>
      <trkpt lat="49.85926" lon="2.09385">
        <ele>127.1</ele>
        <time>2023-01-11T13:08:14Z</time>
      </trkpt>
      <trkpt lat="49.85924" lon="2.09385">
        <ele>127.1</ele>
        <time>2023-01-11T13:08:15Z</time>
      </trkpt>
      <trkpt lat="49.85922" lon="2.09384">
        <ele>127.1</ele>
        <time>2023-01-11T13:08:16Z</time>
      </trkpt>
      <trkpt lat="49.85921" lon="2.09384">
        <ele>127.1</ele>
        <time>2023-01-11T13:08:17Z</time>
      </trkpt>
      <trkpt lat="49.8592" lon="2.09383">
        <ele>127.1</ele>
        <time>2023-01-11T13:08:18Z</time>
      </trkpt>
      <trkpt lat="49.85918" lon="2.09383">
        <ele>127.1</ele>
        <time>2023-01-11T13:08:19Z</time>
      </trkpt>
      <trkpt lat="49.85917" lon="2.09383">
        <ele>127.1</ele>
        <time>2023-01-11T13:08:20Z</time>
      </trkpt>
      <trkpt lat="49.85915" lon="2.09384">
        <ele>127.1</ele>
        <time>2023-01-11T13:08:21Z</time>
      </trkpt>
      <trkpt lat="49.85914" lon="2.09384">
        <ele>127.1</ele>
        <time>2023-01-11T13:08:22Z</time>
      </trkpt>
      <trkpt lat="49.85912" lon="2.09385">
        <ele>127</ele>
        <time>2023-01-11T13:08:24Z</time>
      </trkpt>
      <trkpt lat="49.85911" lon="2.09385">
        <ele>127</ele>
        <time>2023-01-11T13:08:25Z</time>
      </trkpt>
      <trkpt lat="49.8591" lon="2.09386">
        <ele>127</ele>
        <time>2023-01-11T13:08:26Z</time>
      </trkpt>
      <trkpt lat="49.85909" lon="2.09387">
        <ele>127</ele>
        <time>2023-01-11T13:08:27Z</time>
      </trkpt>
      <trkpt lat="49.85908" lon="2.09387">
        <ele>127</ele>
        <time>2023-01-11T13:08:28Z</time>
      </trkpt>
      <trkpt lat="49.85907" lon="2.09387">
        <ele>127</ele>
        <time>2023-01-11T13:08:29Z</time>
      </trkpt>
      <trkpt lat="49.85905" lon="2.09387">
        <ele>127</ele>
        <time>2023-01-11T13:08:30Z</time>
      </trkpt>
      <trkpt lat="49.85904" lon="2.09387">
        <ele>127</ele>
        <time>2023-01-11T13:08:31Z</time>
      </trkpt>
      <trkpt lat="49.85903" lon="2.09387">
        <ele>127</ele>
        <time>2023-01-11T13:08:32Z</time>
      </trkpt>
      <trkpt lat="49.85901" lon="2.09387">
        <ele>127</ele>
        <time>2023-01-11T13:08:34Z</time>
      </trkpt>
      <trkpt lat="49.859" lon="2.09387">
        <ele>127.1</ele>
        <time>2023-01-11T13:08:35Z</time>
      </trkpt>
      <trkpt lat="49.859" lon="2.09386">
        <ele>127.1</ele>
        <time>2023-01-11T13:08:36Z</time>
      </trkpt>
      <trkpt lat="49.85899" lon="2.09386">
        <ele>127.1</ele>
        <time>2023-01-11T13:08:37Z</time>
      </trkpt>
      <trkpt lat="49.85898" lon="2.09386">
        <ele>127.1</ele>
        <time>2023-01-11T13:08:38Z</time>
      </trkpt>
      <trkpt lat="49.85896" lon="2.09386">
        <ele>127.1</ele>
        <time>2023-01-11T13:08:39Z</time>
      </trkpt>
      <trkpt lat="49.85895" lon="2.09386">
        <ele>127.1</ele>
        <time>2023-01-11T13:08:40Z</time>
      </trkpt>
      <trkpt lat="49.85894" lon="2.09386">
        <ele>127.1</ele>
        <time>2023-01-11T13:08:41Z</time>
      </trkpt>
      <trkpt lat="49.85892" lon="2.09386">
        <ele>127.1</ele>
        <time>2023-01-11T13:08:43Z</time>
      </trkpt>
      <trkpt lat="49.85891" lon="2.09386">
        <ele>127.1</ele>
        <time>2023-01-11T13:08:44Z</time>
      </trkpt>
      <trkpt lat="49.85889" lon="2.09386">
        <ele>127.1</ele>
        <time>2023-01-11T13:08:45Z</time>
      </trkpt>
      <trkpt lat="49.85888" lon="2.09386">
        <ele>127.1</ele>
        <time>2023-01-11T13:08:46Z</time>
      </trkpt>
      <trkpt lat="49.85887" lon="2.09386">
        <ele>127.1</ele>
        <time>2023-01-11T13:08:47Z</time>
      </trkpt>
      <trkpt lat="49.85886" lon="2.09386">
        <ele>127.1</ele>
        <time>2023-01-11T13:08:49Z</time>
      </trkpt>
      <trkpt lat="49.85885" lon="2.09385">
        <ele>127.1</ele>
        <time>2023-01-11T13:08:50Z</time>
      </trkpt>
      <trkpt lat="49.85884" lon="2.09385">
        <ele>127.1</ele>
        <time>2023-01-11T13:08:51Z</time>
      </trkpt>
      <trkpt lat="49.85883" lon="2.09384">
        <ele>127.1</ele>
        <time>2023-01-11T13:08:52Z</time>
      </trkpt>
      <trkpt lat="49.8588" lon="2.09383">
        <ele>127.1</ele>
        <time>2023-01-11T13:08:53Z</time>
      </trkpt>
      <trkpt lat="49.85879" lon="2.09383">
        <ele>127</ele>
        <time>2023-01-11T13:08:54Z</time>
      </trkpt>
      <trkpt lat="49.85878" lon="2.09383">
        <ele>127</ele>
        <time>2023-01-11T13:08:55Z</time>
      </trkpt>
      <trkpt lat="49.85877" lon="2.09383">
        <ele>127</ele>
        <time>2023-01-11T13:08:57Z</time>
      </trkpt>
      <trkpt lat="49.85876" lon="2.09382">
        <ele>127</ele>
        <time>2023-01-11T13:08:58Z</time>
      </trkpt>
      <trkpt lat="49.85875" lon="2.09382">
        <ele>127</ele>
        <time>2023-01-11T13:08:59Z</time>
      </trkpt>
      <trkpt lat="49.85872" lon="2.0938">
        <ele>127</ele>
        <time>2023-01-11T13:09:00Z</time>
      </trkpt>
      <trkpt lat="49.85871" lon="2.0938">
        <ele>127</ele>
        <time>2023-01-11T13:09:02Z</time>
      </trkpt>
      <trkpt lat="49.8587" lon="2.09379">
        <ele>127</ele>
        <time>2023-01-11T13:09:03Z</time>
      </trkpt>
      <trkpt lat="49.85869" lon="2.09379">
        <ele>126.9</ele>
        <time>2023-01-11T13:09:04Z</time>
      </trkpt>
      <trkpt lat="49.85868" lon="2.09378">
        <ele>126.9</ele>
        <time>2023-01-11T13:09:05Z</time>
      </trkpt>
      <trkpt lat="49.85867" lon="2.09378">
        <ele>126.9</ele>
        <time>2023-01-11T13:09:06Z</time>
      </trkpt>
      <trkpt lat="49.85866" lon="2.09377">
        <ele>126.9</ele>
        <time>2023-01-11T13:09:07Z</time>
      </trkpt>
      <trkpt lat="49.85865" lon="2.09377">
        <ele>126.9</ele>
        <time>2023-01-11T13:09:08Z</time>
      </trkpt>
      <trkpt lat="49.85863" lon="2.09376">
        <ele>126.9</ele>
        <time>2023-01-11T13:09:09Z</time>
      </trkpt>
      <trkpt lat="49.85862" lon="2.09376">
        <ele>126.8</ele>
        <time>2023-01-11T13:09:10Z</time>
      </trkpt>
      <trkpt lat="49.85861" lon="2.09376">
        <ele>126.8</ele>
        <time>2023-01-11T13:09:12Z</time>
      </trkpt>
      <trkpt lat="49.8586" lon="2.09376">
        <ele>126.8</ele>
        <time>2023-01-11T13:09:13Z</time>
      </trkpt>
      <trkpt lat="49.85859" lon="2.09375">
        <ele>126.8</ele>
        <time>2023-01-11T13:09:14Z</time>
      </trkpt>
      <trkpt lat="49.85858" lon="2.09375">
        <ele>126.8</ele>
        <time>2023-01-11T13:09:15Z</time>
      </trkpt>
      <trkpt lat="49.85856" lon="2.09375">
        <ele>126.8</ele>
        <time>2023-01-11T13:09:16Z</time>
      </trkpt>
      <trkpt lat="49.85855" lon="2.09375">
        <ele>126.8</ele>
        <time>2023-01-11T13:09:17Z</time>
      </trkpt>
      <trkpt lat="49.85853" lon="2.09374">
        <ele>126.7</ele>
        <time>2023-01-11T13:09:19Z</time>
      </trkpt>
      <trkpt lat="49.85852" lon="2.09374">
        <ele>126.7</ele>
        <time>2023-01-11T13:09:20Z</time>
      </trkpt>
      <trkpt lat="49.8585" lon="2.09374">
        <ele>126.7</ele>
        <time>2023-01-11T13:09:21Z</time>
      </trkpt>
      <trkpt lat="49.85849" lon="2.09374">
        <ele>126.7</ele>
        <time>2023-01-11T13:09:22Z</time>
      </trkpt>
      <trkpt lat="49.85846" lon="2.09373">
        <ele>126.7</ele>
        <time>2023-01-11T13:09:23Z</time>
      </trkpt>
      <trkpt lat="49.85845" lon="2.09374">
        <ele>126.7</ele>
        <time>2023-01-11T13:09:24Z</time>
      </trkpt>
      <trkpt lat="49.85844" lon="2.09374">
        <ele>126.6</ele>
        <time>2023-01-11T13:09:25Z</time>
      </trkpt>
      <trkpt lat="49.85843" lon="2.09374">
        <ele>126.6</ele>
        <time>2023-01-11T13:09:26Z</time>
      </trkpt>
      <trkpt lat="49.85842" lon="2.09374">
        <ele>126.6</ele>
        <time>2023-01-11T13:09:27Z</time>
      </trkpt>
      <trkpt lat="49.85841" lon="2.09374">
        <ele>126.6</ele>
        <time>2023-01-11T13:09:28Z</time>
      </trkpt>
      <trkpt lat="49.85838" lon="2.09374">
        <ele>126.6</ele>
        <time>2023-01-11T13:09:30Z</time>
      </trkpt>
      <trkpt lat="49.85837" lon="2.09374">
        <ele>126.6</ele>
        <time>2023-01-11T13:09:31Z</time>
      </trkpt>
      <trkpt lat="49.85836" lon="2.09374">
        <ele>126.6</ele>
        <time>2023-01-11T13:09:32Z</time>
      </trkpt>
      <trkpt lat="49.85835" lon="2.09374">
        <ele>126.5</ele>
        <time>2023-01-11T13:09:33Z</time>
      </trkpt>
      <trkpt lat="49.85833" lon="2.09374">
        <ele>126.5</ele>
        <time>2023-01-11T13:09:34Z</time>
      </trkpt>
      <trkpt lat="49.8583" lon="2.09374">
        <ele>126.5</ele>
        <time>2023-01-11T13:09:35Z</time>
      </trkpt>
      <trkpt lat="49.85829" lon="2.09374">
        <ele>126.5</ele>
        <time>2023-01-11T13:09:37Z</time>
      </trkpt>
      <trkpt lat="49.85827" lon="2.09374">
        <ele>126.5</ele>
        <time>2023-01-11T13:09:38Z</time>
      </trkpt>
      <trkpt lat="49.85826" lon="2.09374">
        <ele>126.5</ele>
        <time>2023-01-11T13:09:39Z</time>
      </trkpt>
      <trkpt lat="49.85824" lon="2.09373">
        <ele>126.4</ele>
        <time>2023-01-11T13:09:41Z</time>
      </trkpt>
      <trkpt lat="49.85823" lon="2.09373">
        <ele>126.4</ele>
        <time>2023-01-11T13:09:42Z</time>
      </trkpt>
      <trkpt lat="49.85821" lon="2.09373">
        <ele>126.4</ele>
        <time>2023-01-11T13:09:43Z</time>
      </trkpt>
      <trkpt lat="49.8582" lon="2.09373">
        <ele>126.4</ele>
        <time>2023-01-11T13:09:44Z</time>
      </trkpt>
      <trkpt lat="49.85819" lon="2.09373">
        <ele>126.4</ele>
        <time>2023-01-11T13:09:45Z</time>
      </trkpt>
      <trkpt lat="49.85818" lon="2.09373">
        <ele>126.4</ele>
        <time>2023-01-11T13:09:46Z</time>
      </trkpt>
      <trkpt lat="49.85817" lon="2.09373">
        <ele>126.4</ele>
        <time>2023-01-11T13:09:48Z</time>
      </trkpt>
      <trkpt lat="49.85816" lon="2.09372">
        <ele>126.4</ele>
        <time>2023-01-11T13:09:49Z</time>
      </trkpt>
      <trkpt lat="49.85816" lon="2.09372">
        <ele>126.3</ele>
        <time>2023-01-11T13:09:50Z</time>
      </trkpt>
      <trkpt lat="49.85814" lon="2.09372">
        <ele>126.3</ele>
        <time>2023-01-11T13:09:51Z</time>
      </trkpt>
      <trkpt lat="49.85813" lon="2.09371">
        <ele>126.3</ele>
        <time>2023-01-11T13:09:52Z</time>
      </trkpt>
      <trkpt lat="49.85812" lon="2.09371">
        <ele>126.3</ele>
        <time>2023-01-11T13:09:54Z</time>
      </trkpt>
      <trkpt lat="49.8581" lon="2.09371">
        <ele>126.3</ele>
        <time>2023-01-11T13:09:55Z</time>
      </trkpt>
      <trkpt lat="49.85809" lon="2.09371">
        <ele>126.3</ele>
        <time>2023-01-11T13:09:56Z</time>
      </trkpt>
      <trkpt lat="49.85808" lon="2.09371">
        <ele>126.3</ele>
        <time>2023-01-11T13:09:57Z</time>
      </trkpt>
      <trkpt lat="49.85806" lon="2.09371">
        <ele>126.3</ele>
        <time>2023-01-11T13:09:58Z</time>
      </trkpt>
      <trkpt lat="49.85805" lon="2.09371">
        <ele>126.2</ele>
        <time>2023-01-11T13:09:59Z</time>
      </trkpt>
      <trkpt lat="49.85804" lon="2.09371">
        <ele>126.2</ele>
        <time>2023-01-11T13:10:00Z</time>
      </trkpt>
      <trkpt lat="49.85801" lon="2.0937">
        <ele>126.2</ele>
        <time>2023-01-11T13:10:02Z</time>
      </trkpt>
      <trkpt lat="49.858" lon="2.0937">
        <ele>126.2</ele>
        <time>2023-01-11T13:10:03Z</time>
      </trkpt>
      <trkpt lat="49.85799" lon="2.0937">
        <ele>126.2</ele>
        <time>2023-01-11T13:10:04Z</time>
      </trkpt>
      <trkpt lat="49.85797" lon="2.0937">
        <ele>126.2</ele>
        <time>2023-01-11T13:10:06Z</time>
      </trkpt>
      <trkpt lat="49.85796" lon="2.09369">
        <ele>126.2</ele>
        <time>2023-01-11T13:10:07Z</time>
      </trkpt>
      <trkpt lat="49.85794" lon="2.09368">
        <ele>126.2</ele>
        <time>2023-01-11T13:10:08Z</time>
      </trkpt>
      <trkpt lat="49.85793" lon="2.09367">
        <ele>126.2</ele>
        <time>2023-01-11T13:10:09Z</time>
      </trkpt>
      <trkpt lat="49.85792" lon="2.09367">
        <ele>126.2</ele>
        <time>2023-01-11T13:10:10Z</time>
      </trkpt>
      <trkpt lat="49.85791" lon="2.09366">
        <ele>126.2</ele>
        <time>2023-01-11T13:10:11Z</time>
      </trkpt>
      <trkpt lat="49.8579" lon="2.09365">
        <ele>126.2</ele>
        <time>2023-01-11T13:10:13Z</time>
      </trkpt>
      <trkpt lat="49.85789" lon="2.09365">
        <ele>126.2</ele>
        <time>2023-01-11T13:10:14Z</time>
      </trkpt>
      <trkpt lat="49.85788" lon="2.09364">
        <ele>126.2</ele>
        <time>2023-01-11T13:10:15Z</time>
      </trkpt>
      <trkpt lat="49.85786" lon="2.09363">
        <ele>126.2</ele>
        <time>2023-01-11T13:10:16Z</time>
      </trkpt>
      <trkpt lat="49.85785" lon="2.09362">
        <ele>126.1</ele>
        <time>2023-01-11T13:10:17Z</time>
      </trkpt>
      <trkpt lat="49.85784" lon="2.09361">
        <ele>126.1</ele>
        <time>2023-01-11T13:10:18Z</time>
      </trkpt>
      <trkpt lat="49.85783" lon="2.0936">
        <ele>126.1</ele>
        <time>2023-01-11T13:10:19Z</time>
      </trkpt>
      <trkpt lat="49.85781" lon="2.09357">
        <ele>126.1</ele>
        <time>2023-01-11T13:10:21Z</time>
      </trkpt>
      <trkpt lat="49.8578" lon="2.09357">
        <ele>126.1</ele>
        <time>2023-01-11T13:10:22Z</time>
      </trkpt>
      <trkpt lat="49.85779" lon="2.09355">
        <ele>126.1</ele>
        <time>2023-01-11T13:10:23Z</time>
      </trkpt>
      <trkpt lat="49.85778" lon="2.09354">
        <ele>126.1</ele>
        <time>2023-01-11T13:10:25Z</time>
      </trkpt>
      <trkpt lat="49.85776" lon="2.09352">
        <ele>126.1</ele>
        <time>2023-01-11T13:10:26Z</time>
      </trkpt>
      <trkpt lat="49.85776" lon="2.09351">
        <ele>126.1</ele>
        <time>2023-01-11T13:10:27Z</time>
      </trkpt>
      <trkpt lat="49.85774" lon="2.0935">
        <ele>126.1</ele>
        <time>2023-01-11T13:10:28Z</time>
      </trkpt>
      <trkpt lat="49.85773" lon="2.09349">
        <ele>126.1</ele>
        <time>2023-01-11T13:10:29Z</time>
      </trkpt>
      <trkpt lat="49.85771" lon="2.09346">
        <ele>126.1</ele>
        <time>2023-01-11T13:10:30Z</time>
      </trkpt>
      <trkpt lat="49.8577" lon="2.09345">
        <ele>126.1</ele>
        <time>2023-01-11T13:10:32Z</time>
      </trkpt>
      <trkpt lat="49.85769" lon="2.09344">
        <ele>126.1</ele>
        <time>2023-01-11T13:10:33Z</time>
      </trkpt>
      <trkpt lat="49.85769" lon="2.09343">
        <ele>126.1</ele>
        <time>2023-01-11T13:10:34Z</time>
      </trkpt>
      <trkpt lat="49.85768" lon="2.09342">
        <ele>126.1</ele>
        <time>2023-01-11T13:10:35Z</time>
      </trkpt>
      <trkpt lat="49.85766" lon="2.0934">
        <ele>126.1</ele>
        <time>2023-01-11T13:10:36Z</time>
      </trkpt>
      <trkpt lat="49.85765" lon="2.09339">
        <ele>126.1</ele>
        <time>2023-01-11T13:10:37Z</time>
      </trkpt>
      <trkpt lat="49.85764" lon="2.09338">
        <ele>126.1</ele>
        <time>2023-01-11T13:10:38Z</time>
      </trkpt>
      <trkpt lat="49.85763" lon="2.09337">
        <ele>126.1</ele>
        <time>2023-01-11T13:10:39Z</time>
      </trkpt>
      <trkpt lat="49.85761" lon="2.09335">
        <ele>126</ele>
        <time>2023-01-11T13:10:41Z</time>
      </trkpt>
      <trkpt lat="49.8576" lon="2.09335">
        <ele>126</ele>
        <time>2023-01-11T13:10:42Z</time>
      </trkpt>
      <trkpt lat="49.8576" lon="2.09334">
        <ele>126</ele>
        <time>2023-01-11T13:10:43Z</time>
      </trkpt>
      <trkpt lat="49.85759" lon="2.09333">
        <ele>126</ele>
        <time>2023-01-11T13:10:44Z</time>
      </trkpt>
      <trkpt lat="49.85758" lon="2.09331">
        <ele>126</ele>
        <time>2023-01-11T13:10:45Z</time>
      </trkpt>
      <trkpt lat="49.85756" lon="2.09329">
        <ele>126</ele>
        <time>2023-01-11T13:10:46Z</time>
      </trkpt>
      <trkpt lat="49.85755" lon="2.09328">
        <ele>125.9</ele>
        <time>2023-01-11T13:10:48Z</time>
      </trkpt>
      <trkpt lat="49.85754" lon="2.09327">
        <ele>125.9</ele>
        <time>2023-01-11T13:10:49Z</time>
      </trkpt>
      <trkpt lat="49.85753" lon="2.09326">
        <ele>125.9</ele>
        <time>2023-01-11T13:10:50Z</time>
      </trkpt>
      <trkpt lat="49.85752" lon="2.09324">
        <ele>125.9</ele>
        <time>2023-01-11T13:10:51Z</time>
      </trkpt>
      <trkpt lat="49.85751" lon="2.09323">
        <ele>125.9</ele>
        <time>2023-01-11T13:10:52Z</time>
      </trkpt>
      <trkpt lat="49.8575" lon="2.09322">
        <ele>125.9</ele>
        <time>2023-01-11T13:10:53Z</time>
      </trkpt>
      <trkpt lat="49.85748" lon="2.09321">
        <ele>125.8</ele>
        <time>2023-01-11T13:10:55Z</time>
      </trkpt>
      <trkpt lat="49.85747" lon="2.09319">
        <ele>125.8</ele>
        <time>2023-01-11T13:10:56Z</time>
      </trkpt>
      <trkpt lat="49.85746" lon="2.09319">
        <ele>125.8</ele>
        <time>2023-01-11T13:10:57Z</time>
      </trkpt>
      <trkpt lat="49.85744" lon="2.09318">
        <ele>125.8</ele>
        <time>2023-01-11T13:10:58Z</time>
      </trkpt>
      <trkpt lat="49.85743" lon="2.09317">
        <ele>125.8</ele>
        <time>2023-01-11T13:10:59Z</time>
      </trkpt>
      <trkpt lat="49.85742" lon="2.09317">
        <ele>125.8</ele>
        <time>2023-01-11T13:11:00Z</time>
      </trkpt>
      <trkpt lat="49.85741" lon="2.09316">
        <ele>125.8</ele>
        <time>2023-01-11T13:11:02Z</time>
      </trkpt>
      <trkpt lat="49.8574" lon="2.09316">
        <ele>125.8</ele>
        <time>2023-01-11T13:11:03Z</time>
      </trkpt>
      <trkpt lat="49.85739" lon="2.09315">
        <ele>125.8</ele>
        <time>2023-01-11T13:11:04Z</time>
      </trkpt>
      <trkpt lat="49.85736" lon="2.09313">
        <ele>125.7</ele>
        <time>2023-01-11T13:11:05Z</time>
      </trkpt>
      <trkpt lat="49.85735" lon="2.09313">
        <ele>125.7</ele>
        <time>2023-01-11T13:11:06Z</time>
      </trkpt>
      <trkpt lat="49.85735" lon="2.09313">
        <ele>125.7</ele>
        <time>2023-01-11T13:11:07Z</time>
      </trkpt>
      <trkpt lat="49.85734" lon="2.09312">
        <ele>125.7</ele>
        <time>2023-01-11T13:11:08Z</time>
      </trkpt>
      <trkpt lat="49.85733" lon="2.09312">
        <ele>125.7</ele>
        <time>2023-01-11T13:11:09Z</time>
      </trkpt>
      <trkpt lat="49.85731" lon="2.09311">
        <ele>125.7</ele>
        <time>2023-01-11T13:11:11Z</time>
      </trkpt>
      <trkpt lat="49.8573" lon="2.09311">
        <ele>125.7</ele>
        <time>2023-01-11T13:11:12Z</time>
      </trkpt>
      <trkpt lat="49.85729" lon="2.09311">
        <ele>125.7</ele>
        <time>2023-01-11T13:11:13Z</time>
      </trkpt>
      <trkpt lat="49.85728" lon="2.09311">
        <ele>125.7</ele>
        <time>2023-01-11T13:11:14Z</time>
      </trkpt>
      <trkpt lat="49.85726" lon="2.0931">
        <ele>125.8</ele>
        <time>2023-01-11T13:11:15Z</time>
      </trkpt>
      <trkpt lat="49.85725" lon="2.0931">
        <ele>125.8</ele>
        <time>2023-01-11T13:11:16Z</time>
      </trkpt>
      <trkpt lat="49.85724" lon="2.0931">
        <ele>125.8</ele>
        <time>2023-01-11T13:11:18Z</time>
      </trkpt>
      <trkpt lat="49.85723" lon="2.0931">
        <ele>125.8</ele>
        <time>2023-01-11T13:11:19Z</time>
      </trkpt>
      <trkpt lat="49.85721" lon="2.09309">
        <ele>125.8</ele>
        <time>2023-01-11T13:11:20Z</time>
      </trkpt>
      <trkpt lat="49.85718" lon="2.09308">
        <ele>125.8</ele>
        <time>2023-01-11T13:11:21Z</time>
      </trkpt>
      <trkpt lat="49.85717" lon="2.09308">
        <ele>125.8</ele>
        <time>2023-01-11T13:11:23Z</time>
      </trkpt>
      <trkpt lat="49.85716" lon="2.09307">
        <ele>125.8</ele>
        <time>2023-01-11T13:11:24Z</time>
      </trkpt>
      <trkpt lat="49.85715" lon="2.09307">
        <ele>125.8</ele>
        <time>2023-01-11T13:11:25Z</time>
      </trkpt>
      <trkpt lat="49.85714" lon="2.09307">
        <ele>125.8</ele>
        <time>2023-01-11T13:11:26Z</time>
      </trkpt>
      <trkpt lat="49.85712" lon="2.09306">
        <ele>125.8</ele>
        <time>2023-01-11T13:11:27Z</time>
      </trkpt>
      <trkpt lat="49.85711" lon="2.09306">
        <ele>125.8</ele>
        <time>2023-01-11T13:11:28Z</time>
      </trkpt>
      <trkpt lat="49.85711" lon="2.09305">
        <ele>125.8</ele>
        <time>2023-01-11T13:11:29Z</time>
      </trkpt>
      <trkpt lat="49.85707" lon="2.09304">
        <ele>125.8</ele>
        <time>2023-01-11T13:11:31Z</time>
      </trkpt>
      <trkpt lat="49.85706" lon="2.09303">
        <ele>125.8</ele>
        <time>2023-01-11T13:11:33Z</time>
      </trkpt>
      <trkpt lat="49.85705" lon="2.09303">
        <ele>125.8</ele>
        <time>2023-01-11T13:11:34Z</time>
      </trkpt>
      <trkpt lat="49.85703" lon="2.09302">
        <ele>125.8</ele>
        <time>2023-01-11T13:11:35Z</time>
      </trkpt>
      <trkpt lat="49.85702" lon="2.09301">
        <ele>125.8</ele>
        <time>2023-01-11T13:11:36Z</time>
      </trkpt>
      <trkpt lat="49.85701" lon="2.09301">
        <ele>125.8</ele>
        <time>2023-01-11T13:11:37Z</time>
      </trkpt>
      <trkpt lat="49.857" lon="2.093">
        <ele>125.8</ele>
        <time>2023-01-11T13:11:38Z</time>
      </trkpt>
      <trkpt lat="49.85698" lon="2.093">
        <ele>125.8</ele>
        <time>2023-01-11T13:11:40Z</time>
      </trkpt>
      <trkpt lat="49.85695" lon="2.09299">
        <ele>125.8</ele>
        <time>2023-01-11T13:11:41Z</time>
      </trkpt>
      <trkpt lat="49.85694" lon="2.09298">
        <ele>125.8</ele>
        <time>2023-01-11T13:11:42Z</time>
      </trkpt>
      <trkpt lat="49.85692" lon="2.09297">
        <ele>125.8</ele>
        <time>2023-01-11T13:11:43Z</time>
      </trkpt>
      <trkpt lat="49.85692" lon="2.09297">
        <ele>125.8</ele>
        <time>2023-01-11T13:11:45Z</time>
      </trkpt>
      <trkpt lat="49.85691" lon="2.09297">
        <ele>125.8</ele>
        <time>2023-01-11T13:11:46Z</time>
      </trkpt>
      <trkpt lat="49.85689" lon="2.09295">
        <ele>125.8</ele>
        <time>2023-01-11T13:11:47Z</time>
      </trkpt>
      <trkpt lat="49.85688" lon="2.09295">
        <ele>125.8</ele>
        <time>2023-01-11T13:11:48Z</time>
      </trkpt>
      <trkpt lat="49.85687" lon="2.09294">
        <ele>125.8</ele>
        <time>2023-01-11T13:11:49Z</time>
      </trkpt>
      <trkpt lat="49.85686" lon="2.09292">
        <ele>125.8</ele>
        <time>2023-01-11T13:11:51Z</time>
      </trkpt>
      <trkpt lat="49.85685" lon="2.0929">
        <ele>125.8</ele>
        <time>2023-01-11T13:11:52Z</time>
      </trkpt>
      <trkpt lat="49.85684" lon="2.09289">
        <ele>125.8</ele>
        <time>2023-01-11T13:11:53Z</time>
      </trkpt>
      <trkpt lat="49.85682" lon="2.09288">
        <ele>125.9</ele>
        <time>2023-01-11T13:11:54Z</time>
      </trkpt>
      <trkpt lat="49.85681" lon="2.09288">
        <ele>125.9</ele>
        <time>2023-01-11T13:11:55Z</time>
      </trkpt>
      <trkpt lat="49.8568" lon="2.09287">
        <ele>125.9</ele>
        <time>2023-01-11T13:11:56Z</time>
      </trkpt>
      <trkpt lat="49.85678" lon="2.09286">
        <ele>125.9</ele>
        <time>2023-01-11T13:11:57Z</time>
      </trkpt>
      <trkpt lat="49.85677" lon="2.09285">
        <ele>125.9</ele>
        <time>2023-01-11T13:11:59Z</time>
      </trkpt>
      <trkpt lat="49.85676" lon="2.09285">
        <ele>125.9</ele>
        <time>2023-01-11T13:12:00Z</time>
      </trkpt>
      <trkpt lat="49.85675" lon="2.09284">
        <ele>125.9</ele>
        <time>2023-01-11T13:12:01Z</time>
      </trkpt>
      <trkpt lat="49.85674" lon="2.09284">
        <ele>125.9</ele>
        <time>2023-01-11T13:12:02Z</time>
      </trkpt>
      <trkpt lat="49.85673" lon="2.09283">
        <ele>125.9</ele>
        <time>2023-01-11T13:12:03Z</time>
      </trkpt>
      <trkpt lat="49.85672" lon="2.09283">
        <ele>125.9</ele>
        <time>2023-01-11T13:12:04Z</time>
      </trkpt>
      <trkpt lat="49.85671" lon="2.09282">
        <ele>125.9</ele>
        <time>2023-01-11T13:12:05Z</time>
      </trkpt>
      <trkpt lat="49.8567" lon="2.09281">
        <ele>125.9</ele>
        <time>2023-01-11T13:12:06Z</time>
      </trkpt>
      <trkpt lat="49.85669" lon="2.0928">
        <ele>125.9</ele>
        <time>2023-01-11T13:12:08Z</time>
      </trkpt>
      <trkpt lat="49.85668" lon="2.09279">
        <ele>125.9</ele>
        <time>2023-01-11T13:12:09Z</time>
      </trkpt>
      <trkpt lat="49.85667" lon="2.09278">
        <ele>126</ele>
        <time>2023-01-11T13:12:10Z</time>
      </trkpt>
      <trkpt lat="49.85666" lon="2.09277">
        <ele>126</ele>
        <time>2023-01-11T13:12:11Z</time>
      </trkpt>
      <trkpt lat="49.85665" lon="2.09277">
        <ele>126</ele>
        <time>2023-01-11T13:12:12Z</time>
      </trkpt>
      <trkpt lat="49.85663" lon="2.09276">
        <ele>126</ele>
        <time>2023-01-11T13:12:14Z</time>
      </trkpt>
      <trkpt lat="49.85662" lon="2.09275">
        <ele>126</ele>
        <time>2023-01-11T13:12:15Z</time>
      </trkpt>
      <trkpt lat="49.85662" lon="2.09275">
        <ele>126</ele>
        <time>2023-01-11T13:12:16Z</time>
      </trkpt>
      <trkpt lat="49.8566" lon="2.09275">
        <ele>126.1</ele>
        <time>2023-01-11T13:12:17Z</time>
      </trkpt>
      <trkpt lat="49.85659" lon="2.09275">
        <ele>126.1</ele>
        <time>2023-01-11T13:12:18Z</time>
      </trkpt>
      <trkpt lat="49.85658" lon="2.09274">
        <ele>126.1</ele>
        <time>2023-01-11T13:12:19Z</time>
      </trkpt>
      <trkpt lat="49.85657" lon="2.09274">
        <ele>126.1</ele>
        <time>2023-01-11T13:12:20Z</time>
      </trkpt>
      <trkpt lat="49.85655" lon="2.09273">
        <ele>126.1</ele>
        <time>2023-01-11T13:12:21Z</time>
      </trkpt>
      <trkpt lat="49.85654" lon="2.09273">
        <ele>126.1</ele>
        <time>2023-01-11T13:12:23Z</time>
      </trkpt>
      <trkpt lat="49.85653" lon="2.09273">
        <ele>126.2</ele>
        <time>2023-01-11T13:12:24Z</time>
      </trkpt>
      <trkpt lat="49.85652" lon="2.09272">
        <ele>126.2</ele>
        <time>2023-01-11T13:12:25Z</time>
      </trkpt>
      <trkpt lat="49.85651" lon="2.09271">
        <ele>126.2</ele>
        <time>2023-01-11T13:12:26Z</time>
      </trkpt>
      <trkpt lat="49.8565" lon="2.09271">
        <ele>126.2</ele>
        <time>2023-01-11T13:12:27Z</time>
      </trkpt>
      <trkpt lat="49.85649" lon="2.0927">
        <ele>126.2</ele>
        <time>2023-01-11T13:12:28Z</time>
      </trkpt>
      <trkpt lat="49.85648" lon="2.09269">
        <ele>126.2</ele>
        <time>2023-01-11T13:12:29Z</time>
      </trkpt>
      <trkpt lat="49.85647" lon="2.09268">
        <ele>126.2</ele>
        <time>2023-01-11T13:12:30Z</time>
      </trkpt>
      <trkpt lat="49.85646" lon="2.09268">
        <ele>126.2</ele>
        <time>2023-01-11T13:12:31Z</time>
      </trkpt>
      <trkpt lat="49.85644" lon="2.09267">
        <ele>126.3</ele>
        <time>2023-01-11T13:12:33Z</time>
      </trkpt>
      <trkpt lat="49.85643" lon="2.09266">
        <ele>126.3</ele>
        <time>2023-01-11T13:12:34Z</time>
      </trkpt>
      <trkpt lat="49.85642" lon="2.09265">
        <ele>126.3</ele>
        <time>2023-01-11T13:12:35Z</time>
      </trkpt>
      <trkpt lat="49.85641" lon="2.09264">
        <ele>126.3</ele>
        <time>2023-01-11T13:12:36Z</time>
      </trkpt>
      <trkpt lat="49.8564" lon="2.09264">
        <ele>126.3</ele>
        <time>2023-01-11T13:12:37Z</time>
      </trkpt>
      <trkpt lat="49.85638" lon="2.09263">
        <ele>126.3</ele>
        <time>2023-01-11T13:12:38Z</time>
      </trkpt>
      <trkpt lat="49.85637" lon="2.09262">
        <ele>126.3</ele>
        <time>2023-01-11T13:12:40Z</time>
      </trkpt>
      <trkpt lat="49.85636" lon="2.09261">
        <ele>126.3</ele>
        <time>2023-01-11T13:12:41Z</time>
      </trkpt>
      <trkpt lat="49.85635" lon="2.09261">
        <ele>126.4</ele>
        <time>2023-01-11T13:12:42Z</time>
      </trkpt>
      <trkpt lat="49.85634" lon="2.0926">
        <ele>126.4</ele>
        <time>2023-01-11T13:12:43Z</time>
      </trkpt>
      <trkpt lat="49.85632" lon="2.09259">
        <ele>126.4</ele>
        <time>2023-01-11T13:12:44Z</time>
      </trkpt>
      <trkpt lat="49.85631" lon="2.09258">
        <ele>126.4</ele>
        <time>2023-01-11T13:12:45Z</time>
      </trkpt>
      <trkpt lat="49.8563" lon="2.09258">
        <ele>126.4</ele>
        <time>2023-01-11T13:12:46Z</time>
      </trkpt>
      <trkpt lat="49.85629" lon="2.09257">
        <ele>126.4</ele>
        <time>2023-01-11T13:12:47Z</time>
      </trkpt>
      <trkpt lat="49.85628" lon="2.09256">
        <ele>126.4</ele>
        <time>2023-01-11T13:12:48Z</time>
      </trkpt>
      <trkpt lat="49.85627" lon="2.09255">
        <ele>126.4</ele>
        <time>2023-01-11T13:12:50Z</time>
      </trkpt>
      <trkpt lat="49.85626" lon="2.09254">
        <ele>126.5</ele>
        <time>2023-01-11T13:12:51Z</time>
      </trkpt>
      <trkpt lat="49.85625" lon="2.09253">
        <ele>126.5</ele>
        <time>2023-01-11T13:12:52Z</time>
      </trkpt>
      <trkpt lat="49.85624" lon="2.09253">
        <ele>126.5</ele>
        <time>2023-01-11T13:12:53Z</time>
      </trkpt>
      <trkpt lat="49.85623" lon="2.09252">
        <ele>126.5</ele>
        <time>2023-01-11T13:12:54Z</time>
      </trkpt>
      <trkpt lat="49.85622" lon="2.09252">
        <ele>126.5</ele>
        <time>2023-01-11T13:12:55Z</time>
      </trkpt>
      <trkpt lat="49.85621" lon="2.09251">
        <ele>126.5</ele>
        <time>2023-01-11T13:12:56Z</time>
      </trkpt>
      <trkpt lat="49.8562" lon="2.09251">
        <ele>126.5</ele>
        <time>2023-01-11T13:12:57Z</time>
      </trkpt>
      <trkpt lat="49.85619" lon="2.0925">
        <ele>126.5</ele>
        <time>2023-01-11T13:12:59Z</time>
      </trkpt>
      <trkpt lat="49.85618" lon="2.09249">
        <ele>126.5</ele>
        <time>2023-01-11T13:13:00Z</time>
      </trkpt>
      <trkpt lat="49.85617" lon="2.09248">
        <ele>126.5</ele>
        <time>2023-01-11T13:13:01Z</time>
      </trkpt>
      <trkpt lat="49.85616" lon="2.09246">
        <ele>126.5</ele>
        <time>2023-01-11T13:13:02Z</time>
      </trkpt>
      <trkpt lat="49.85616" lon="2.09245">
        <ele>126.5</ele>
        <time>2023-01-11T13:13:03Z</time>
      </trkpt>
      <trkpt lat="49.85615" lon="2.09244">
        <ele>126.5</ele>
        <time>2023-01-11T13:13:04Z</time>
      </trkpt>
      <trkpt lat="49.85615" lon="2.09242">
        <ele>126.4</ele>
        <time>2023-01-11T13:13:05Z</time>
      </trkpt>
      <trkpt lat="49.85614" lon="2.09239">
        <ele>126.4</ele>
        <time>2023-01-11T13:13:07Z</time>
      </trkpt>
      <trkpt lat="49.85614" lon="2.09238">
        <ele>126.4</ele>
        <time>2023-01-11T13:13:08Z</time>
      </trkpt>
      <trkpt lat="49.85613" lon="2.09236">
        <ele>126.4</ele>
        <time>2023-01-11T13:13:09Z</time>
      </trkpt>
      <trkpt lat="49.85613" lon="2.09234">
        <ele>126.4</ele>
        <time>2023-01-11T13:13:10Z</time>
      </trkpt>
      <trkpt lat="49.85612" lon="2.09232">
        <ele>126.4</ele>
        <time>2023-01-11T13:13:11Z</time>
      </trkpt>
      <trkpt lat="49.85612" lon="2.0923">
        <ele>126.4</ele>
        <time>2023-01-11T13:13:12Z</time>
      </trkpt>
      <trkpt lat="49.85611" lon="2.09228">
        <ele>126.4</ele>
        <time>2023-01-11T13:13:14Z</time>
      </trkpt>
      <trkpt lat="49.85611" lon="2.09226">
        <ele>126.4</ele>
        <time>2023-01-11T13:13:15Z</time>
      </trkpt>
      <trkpt lat="49.8561" lon="2.09224">
        <ele>126.4</ele>
        <time>2023-01-11T13:13:16Z</time>
      </trkpt>
      <trkpt lat="49.85609" lon="2.09221">
        <ele>126.4</ele>
        <time>2023-01-11T13:13:17Z</time>
      </trkpt>
      <trkpt lat="49.85609" lon="2.09218">
        <ele>126.4</ele>
        <time>2023-01-11T13:13:18Z</time>
      </trkpt>
      <trkpt lat="49.85609" lon="2.09217">
        <ele>126.4</ele>
        <time>2023-01-11T13:13:19Z</time>
      </trkpt>
      <trkpt lat="49.85608" lon="2.09215">
        <ele>126.4</ele>
        <time>2023-01-11T13:13:20Z</time>
      </trkpt>
      <trkpt lat="49.85608" lon="2.09213">
        <ele>126.4</ele>
        <time>2023-01-11T13:13:21Z</time>
      </trkpt>
      <trkpt lat="49.85608" lon="2.09211">
        <ele>126.4</ele>
        <time>2023-01-11T13:13:22Z</time>
      </trkpt>
      <trkpt lat="49.85607" lon="2.09208">
        <ele>126.4</ele>
        <time>2023-01-11T13:13:23Z</time>
      </trkpt>
      <trkpt lat="49.85607" lon="2.09207">
        <ele>126.3</ele>
        <time>2023-01-11T13:13:24Z</time>
      </trkpt>
      <trkpt lat="49.85607" lon="2.09205">
        <ele>126.3</ele>
        <time>2023-01-11T13:13:25Z</time>
      </trkpt>
      <trkpt lat="49.85606" lon="2.09203">
        <ele>126.3</ele>
        <time>2023-01-11T13:13:26Z</time>
      </trkpt>
      <trkpt lat="49.85606" lon="2.092">
        <ele>126.3</ele>
        <time>2023-01-11T13:13:27Z</time>
      </trkpt>
      <trkpt lat="49.85606" lon="2.09199">
        <ele>126.3</ele>
        <time>2023-01-11T13:13:29Z</time>
      </trkpt>
      <trkpt lat="49.85606" lon="2.09197">
        <ele>126.3</ele>
        <time>2023-01-11T13:13:30Z</time>
      </trkpt>
      <trkpt lat="49.85605" lon="2.09196">
        <ele>126.3</ele>
        <time>2023-01-11T13:13:31Z</time>
      </trkpt>
      <trkpt lat="49.85605" lon="2.09193">
        <ele>126.3</ele>
        <time>2023-01-11T13:13:32Z</time>
      </trkpt>
      <trkpt lat="49.85605" lon="2.09192">
        <ele>126.3</ele>
        <time>2023-01-11T13:13:33Z</time>
      </trkpt>
      <trkpt lat="49.85604" lon="2.09191">
        <ele>126.3</ele>
        <time>2023-01-11T13:13:34Z</time>
      </trkpt>
      <trkpt lat="49.85604" lon="2.09189">
        <ele>126.3</ele>
        <time>2023-01-11T13:13:35Z</time>
      </trkpt>
      <trkpt lat="49.85604" lon="2.09188">
        <ele>126.4</ele>
        <time>2023-01-11T13:13:36Z</time>
      </trkpt>
      <trkpt lat="49.85603" lon="2.09185">
        <ele>126.4</ele>
        <time>2023-01-11T13:13:38Z</time>
      </trkpt>
      <trkpt lat="49.85602" lon="2.09184">
        <ele>126.4</ele>
        <time>2023-01-11T13:13:39Z</time>
      </trkpt>
      <trkpt lat="49.85602" lon="2.09183">
        <ele>126.4</ele>
        <time>2023-01-11T13:13:40Z</time>
      </trkpt>
      <trkpt lat="49.85601" lon="2.09181">
        <ele>126.4</ele>
        <time>2023-01-11T13:13:41Z</time>
      </trkpt>
      <trkpt lat="49.856" lon="2.09179">
        <ele>126.4</ele>
        <time>2023-01-11T13:13:42Z</time>
      </trkpt>
      <trkpt lat="49.856" lon="2.09177">
        <ele>126.4</ele>
        <time>2023-01-11T13:13:43Z</time>
      </trkpt>
      <trkpt lat="49.85599" lon="2.09176">
        <ele>126.4</ele>
        <time>2023-01-11T13:13:44Z</time>
      </trkpt>
      <trkpt lat="49.85598" lon="2.09173">
        <ele>126.4</ele>
        <time>2023-01-11T13:13:46Z</time>
      </trkpt>
      <trkpt lat="49.85597" lon="2.0917">
        <ele>126.4</ele>
        <time>2023-01-11T13:13:48Z</time>
      </trkpt>
      <trkpt lat="49.85596" lon="2.09168">
        <ele>126.4</ele>
        <time>2023-01-11T13:13:49Z</time>
      </trkpt>
      <trkpt lat="49.85595" lon="2.09165">
        <ele>126.4</ele>
        <time>2023-01-11T13:13:50Z</time>
      </trkpt>
      <trkpt lat="49.85595" lon="2.09164">
        <ele>126.4</ele>
        <time>2023-01-11T13:13:51Z</time>
      </trkpt>
      <trkpt lat="49.85595" lon="2.09163">
        <ele>126.4</ele>
        <time>2023-01-11T13:13:52Z</time>
      </trkpt>
      <trkpt lat="49.85595" lon="2.09161">
        <ele>126.4</ele>
        <time>2023-01-11T13:13:53Z</time>
      </trkpt>
      <trkpt lat="49.85595" lon="2.09159">
        <ele>126.4</ele>
        <time>2023-01-11T13:13:54Z</time>
      </trkpt>
      <trkpt lat="49.85594" lon="2.09156">
        <ele>126.4</ele>
        <time>2023-01-11T13:13:56Z</time>
      </trkpt>
      <trkpt lat="49.85594" lon="2.09152">
        <ele>126.5</ele>
        <time>2023-01-11T13:13:57Z</time>
      </trkpt>
      <trkpt lat="49.85594" lon="2.09151">
        <ele>126.5</ele>
        <time>2023-01-11T13:13:58Z</time>
      </trkpt>
      <trkpt lat="49.85594" lon="2.0915">
        <ele>126.5</ele>
        <time>2023-01-11T13:13:59Z</time>
      </trkpt>
      <trkpt lat="49.85594" lon="2.09148">
        <ele>126.5</ele>
        <time>2023-01-11T13:14:00Z</time>
      </trkpt>
      <trkpt lat="49.85593" lon="2.09146">
        <ele>126.5</ele>
        <time>2023-01-11T13:14:01Z</time>
      </trkpt>
      <trkpt lat="49.85593" lon="2.09142">
        <ele>126.5</ele>
        <time>2023-01-11T13:14:02Z</time>
      </trkpt>
      <trkpt lat="49.85592" lon="2.09141">
        <ele>126.5</ele>
        <time>2023-01-11T13:14:04Z</time>
      </trkpt>
      <trkpt lat="49.85592" lon="2.09139">
        <ele>126.5</ele>
        <time>2023-01-11T13:14:05Z</time>
      </trkpt>
      <trkpt lat="49.85592" lon="2.09137">
        <ele>126.5</ele>
        <time>2023-01-11T13:14:06Z</time>
      </trkpt>
      <trkpt lat="49.85592" lon="2.09136">
        <ele>126.5</ele>
        <time>2023-01-11T13:14:07Z</time>
      </trkpt>
      <trkpt lat="49.85591" lon="2.09134">
        <ele>126.5</ele>
        <time>2023-01-11T13:14:08Z</time>
      </trkpt>
      <trkpt lat="49.85591" lon="2.09133">
        <ele>126.5</ele>
        <time>2023-01-11T13:14:09Z</time>
      </trkpt>
      <trkpt lat="49.85591" lon="2.09131">
        <ele>126.5</ele>
        <time>2023-01-11T13:14:10Z</time>
      </trkpt>
      <trkpt lat="49.8559" lon="2.09129">
        <ele>126.5</ele>
        <time>2023-01-11T13:14:11Z</time>
      </trkpt>
      <trkpt lat="49.85589" lon="2.09127">
        <ele>126.5</ele>
        <time>2023-01-11T13:14:12Z</time>
      </trkpt>
      <trkpt lat="49.85589" lon="2.09126">
        <ele>126.5</ele>
        <time>2023-01-11T13:14:13Z</time>
      </trkpt>
      <trkpt lat="49.85589" lon="2.09124">
        <ele>126.5</ele>
        <time>2023-01-11T13:14:14Z</time>
      </trkpt>
      <trkpt lat="49.85588" lon="2.09122">
        <ele>126.5</ele>
        <time>2023-01-11T13:14:16Z</time>
      </trkpt>
      <trkpt lat="49.85588" lon="2.09122">
        <ele>126.5</ele>
        <time>2023-01-11T13:14:17Z</time>
      </trkpt>
      <trkpt lat="49.85587" lon="2.09119">
        <ele>126.5</ele>
        <time>2023-01-11T13:14:18Z</time>
      </trkpt>
      <trkpt lat="49.85586" lon="2.09117">
        <ele>126.5</ele>
        <time>2023-01-11T13:14:19Z</time>
      </trkpt>
      <trkpt lat="49.85586" lon="2.09115">
        <ele>126.5</ele>
        <time>2023-01-11T13:14:20Z</time>
      </trkpt>
      <trkpt lat="49.85585" lon="2.09114">
        <ele>126.5</ele>
        <time>2023-01-11T13:14:21Z</time>
      </trkpt>
      <trkpt lat="49.85584" lon="2.0911">
        <ele>126.5</ele>
        <time>2023-01-11T13:14:22Z</time>
      </trkpt>
      <trkpt lat="49.85583" lon="2.09108">
        <ele>126.4</ele>
        <time>2023-01-11T13:14:24Z</time>
      </trkpt>
      <trkpt lat="49.85583" lon="2.09107">
        <ele>126.4</ele>
        <time>2023-01-11T13:14:25Z</time>
      </trkpt>
      <trkpt lat="49.85582" lon="2.09105">
        <ele>126.4</ele>
        <time>2023-01-11T13:14:26Z</time>
      </trkpt>
      <trkpt lat="49.85582" lon="2.09104">
        <ele>126.4</ele>
        <time>2023-01-11T13:14:27Z</time>
      </trkpt>
      <trkpt lat="49.85581" lon="2.09102">
        <ele>126.4</ele>
        <time>2023-01-11T13:14:28Z</time>
      </trkpt>
      <trkpt lat="49.85581" lon="2.09101">
        <ele>126.4</ele>
        <time>2023-01-11T13:14:29Z</time>
      </trkpt>
      <trkpt lat="49.8558" lon="2.09099">
        <ele>126.4</ele>
        <time>2023-01-11T13:14:31Z</time>
      </trkpt>
      <trkpt lat="49.8558" lon="2.09098">
        <ele>126.4</ele>
        <time>2023-01-11T13:14:32Z</time>
      </trkpt>
      <trkpt lat="49.85579" lon="2.09095">
        <ele>126.4</ele>
        <time>2023-01-11T13:14:33Z</time>
      </trkpt>
      <trkpt lat="49.85578" lon="2.09094">
        <ele>126.4</ele>
        <time>2023-01-11T13:14:34Z</time>
      </trkpt>
      <trkpt lat="49.85577" lon="2.09092">
        <ele>126.4</ele>
        <time>2023-01-11T13:14:35Z</time>
      </trkpt>
      <trkpt lat="49.85577" lon="2.09091">
        <ele>126.4</ele>
        <time>2023-01-11T13:14:36Z</time>
      </trkpt>
      <trkpt lat="49.85576" lon="2.09088">
        <ele>126.4</ele>
        <time>2023-01-11T13:14:38Z</time>
      </trkpt>
      <trkpt lat="49.85576" lon="2.09086">
        <ele>126.4</ele>
        <time>2023-01-11T13:14:39Z</time>
      </trkpt>
      <trkpt lat="49.85575" lon="2.09083">
        <ele>126.4</ele>
        <time>2023-01-11T13:14:40Z</time>
      </trkpt>
      <trkpt lat="49.85574" lon="2.09081">
        <ele>126.4</ele>
        <time>2023-01-11T13:14:41Z</time>
      </trkpt>
      <trkpt lat="49.85574" lon="2.0908">
        <ele>126.4</ele>
        <time>2023-01-11T13:14:42Z</time>
      </trkpt>
      <trkpt lat="49.85574" lon="2.09079">
        <ele>126.4</ele>
        <time>2023-01-11T13:14:43Z</time>
      </trkpt>
      <trkpt lat="49.85573" lon="2.09077">
        <ele>126.4</ele>
        <time>2023-01-11T13:14:44Z</time>
      </trkpt>
      <trkpt lat="49.85573" lon="2.09076">
        <ele>126.4</ele>
        <time>2023-01-11T13:14:45Z</time>
      </trkpt>
      <trkpt lat="49.85572" lon="2.09072">
        <ele>126.4</ele>
        <time>2023-01-11T13:14:46Z</time>
      </trkpt>
      <trkpt lat="49.85571" lon="2.09071">
        <ele>126.4</ele>
        <time>2023-01-11T13:14:48Z</time>
      </trkpt>
      <trkpt lat="49.85571" lon="2.09069">
        <ele>126.4</ele>
        <time>2023-01-11T13:14:49Z</time>
      </trkpt>
      <trkpt lat="49.85571" lon="2.09068">
        <ele>126.4</ele>
        <time>2023-01-11T13:14:50Z</time>
      </trkpt>
      <trkpt lat="49.8557" lon="2.09066">
        <ele>126.4</ele>
        <time>2023-01-11T13:14:51Z</time>
      </trkpt>
      <trkpt lat="49.8557" lon="2.09064">
        <ele>126.4</ele>
        <time>2023-01-11T13:14:52Z</time>
      </trkpt>
      <trkpt lat="49.85569" lon="2.09061">
        <ele>126.4</ele>
        <time>2023-01-11T13:14:54Z</time>
      </trkpt>
      <trkpt lat="49.85569" lon="2.09059">
        <ele>126.4</ele>
        <time>2023-01-11T13:14:55Z</time>
      </trkpt>
      <trkpt lat="49.85568" lon="2.09058">
        <ele>126.4</ele>
        <time>2023-01-11T13:14:56Z</time>
      </trkpt>
      <trkpt lat="49.85568" lon="2.09056">
        <ele>126.4</ele>
        <time>2023-01-11T13:14:57Z</time>
      </trkpt>
      <trkpt lat="49.85567" lon="2.09053">
        <ele>126.4</ele>
        <time>2023-01-11T13:14:58Z</time>
      </trkpt>
      <trkpt lat="49.85566" lon="2.09052">
        <ele>126.4</ele>
        <time>2023-01-11T13:14:59Z</time>
      </trkpt>
      <trkpt lat="49.85566" lon="2.09051">
        <ele>126.4</ele>
        <time>2023-01-11T13:15:00Z</time>
      </trkpt>
      <trkpt lat="49.85564" lon="2.09049">
        <ele>126.4</ele>
        <time>2023-01-11T13:15:01Z</time>
      </trkpt>
      <trkpt lat="49.85564" lon="2.09047">
        <ele>126.4</ele>
        <time>2023-01-11T13:15:03Z</time>
      </trkpt>
      <trkpt lat="49.85563" lon="2.09046">
        <ele>126.4</ele>
        <time>2023-01-11T13:15:04Z</time>
      </trkpt>
      <trkpt lat="49.85563" lon="2.09045">
        <ele>126.4</ele>
        <time>2023-01-11T13:15:05Z</time>
      </trkpt>
      <trkpt lat="49.85562" lon="2.09044">
        <ele>126.4</ele>
        <time>2023-01-11T13:15:06Z</time>
      </trkpt>
      <trkpt lat="49.85561" lon="2.09042">
        <ele>126.4</ele>
        <time>2023-01-11T13:15:07Z</time>
      </trkpt>
      <trkpt lat="49.85561" lon="2.09042">
        <ele>126.4</ele>
        <time>2023-01-11T13:15:09Z</time>
      </trkpt>
      <trkpt lat="49.8556" lon="2.0904">
        <ele>126.4</ele>
        <time>2023-01-11T13:15:10Z</time>
      </trkpt>
      <trkpt lat="49.85559" lon="2.09039">
        <ele>126.4</ele>
        <time>2023-01-11T13:15:11Z</time>
      </trkpt>
      <trkpt lat="49.85559" lon="2.09038">
        <ele>126.4</ele>
        <time>2023-01-11T13:15:12Z</time>
      </trkpt>
      <trkpt lat="49.85558" lon="2.09036">
        <ele>126.4</ele>
        <time>2023-01-11T13:15:13Z</time>
      </trkpt>
      <trkpt lat="49.85557" lon="2.09035">
        <ele>126.4</ele>
        <time>2023-01-11T13:15:14Z</time>
      </trkpt>
      <trkpt lat="49.85556" lon="2.09034">
        <ele>126.5</ele>
        <time>2023-01-11T13:15:15Z</time>
      </trkpt>
      <trkpt lat="49.85556" lon="2.09032">
        <ele>126.5</ele>
        <time>2023-01-11T13:15:16Z</time>
      </trkpt>
      <trkpt lat="49.85554" lon="2.0903">
        <ele>126.5</ele>
        <time>2023-01-11T13:15:18Z</time>
      </trkpt>
      <trkpt lat="49.85554" lon="2.0903">
        <ele>126.5</ele>
        <time>2023-01-11T13:15:19Z</time>
      </trkpt>
      <trkpt lat="49.85553" lon="2.09028">
        <ele>126.5</ele>
        <time>2023-01-11T13:15:20Z</time>
      </trkpt>
      <trkpt lat="49.85553" lon="2.09027">
        <ele>126.5</ele>
        <time>2023-01-11T13:15:21Z</time>
      </trkpt>
      <trkpt lat="49.85552" lon="2.09025">
        <ele>126.5</ele>
        <time>2023-01-11T13:15:22Z</time>
      </trkpt>
      <trkpt lat="49.85551" lon="2.09024">
        <ele>126.5</ele>
        <time>2023-01-11T13:15:23Z</time>
      </trkpt>
      <trkpt lat="49.8555" lon="2.09023">
        <ele>126.5</ele>
        <time>2023-01-11T13:15:24Z</time>
      </trkpt>
      <trkpt lat="49.85549" lon="2.0902">
        <ele>126.5</ele>
        <time>2023-01-11T13:15:25Z</time>
      </trkpt>
      <trkpt lat="49.85548" lon="2.09019">
        <ele>126.5</ele>
        <time>2023-01-11T13:15:27Z</time>
      </trkpt>
      <trkpt lat="49.85547" lon="2.09018">
        <ele>126.5</ele>
        <time>2023-01-11T13:15:28Z</time>
      </trkpt>
      <trkpt lat="49.85547" lon="2.09017">
        <ele>126.5</ele>
        <time>2023-01-11T13:15:29Z</time>
      </trkpt>
      <trkpt lat="49.85546" lon="2.09016">
        <ele>126.5</ele>
        <time>2023-01-11T13:15:30Z</time>
      </trkpt>
      <trkpt lat="49.85546" lon="2.09014">
        <ele>126.5</ele>
        <time>2023-01-11T13:15:31Z</time>
      </trkpt>
      <trkpt lat="49.85545" lon="2.09012">
        <ele>126.5</ele>
        <time>2023-01-11T13:15:33Z</time>
      </trkpt>
      <trkpt lat="49.85545" lon="2.09011">
        <ele>126.5</ele>
        <time>2023-01-11T13:15:34Z</time>
      </trkpt>
      <trkpt lat="49.85544" lon="2.09009">
        <ele>126.5</ele>
        <time>2023-01-11T13:15:35Z</time>
      </trkpt>
      <trkpt lat="49.85544" lon="2.09008">
        <ele>126.5</ele>
        <time>2023-01-11T13:15:36Z</time>
      </trkpt>
      <trkpt lat="49.85543" lon="2.09007">
        <ele>126.5</ele>
        <time>2023-01-11T13:15:37Z</time>
      </trkpt>
      <trkpt lat="49.85542" lon="2.09005">
        <ele>126.5</ele>
        <time>2023-01-11T13:15:38Z</time>
      </trkpt>
      <trkpt lat="49.85542" lon="2.09005">
        <ele>126.5</ele>
        <time>2023-01-11T13:15:39Z</time>
      </trkpt>
      <trkpt lat="49.85541" lon="2.09003">
        <ele>126.5</ele>
        <time>2023-01-11T13:15:41Z</time>
      </trkpt>
      <trkpt lat="49.85541" lon="2.09002">
        <ele>126.5</ele>
        <time>2023-01-11T13:15:42Z</time>
      </trkpt>
      <trkpt lat="49.85539" lon="2.09001">
        <ele>126.5</ele>
        <time>2023-01-11T13:15:43Z</time>
      </trkpt>
      <trkpt lat="49.85539" lon="2.09">
        <ele>126.5</ele>
        <time>2023-01-11T13:15:44Z</time>
      </trkpt>
      <trkpt lat="49.85539" lon="2.09">
        <ele>126.5</ele>
        <time>2023-01-11T13:15:45Z</time>
      </trkpt>
      <trkpt lat="49.85538" lon="2.08999">
        <ele>126.5</ele>
        <time>2023-01-11T13:15:46Z</time>
      </trkpt>
      <trkpt lat="49.85537" lon="2.08997">
        <ele>126.5</ele>
        <time>2023-01-11T13:15:48Z</time>
      </trkpt>
      <trkpt lat="49.85536" lon="2.08996">
        <ele>126.5</ele>
        <time>2023-01-11T13:15:50Z</time>
      </trkpt>
      <trkpt lat="49.85536" lon="2.08995">
        <ele>126.5</ele>
        <time>2023-01-11T13:15:51Z</time>
      </trkpt>
      <trkpt lat="49.85535" lon="2.08995">
        <ele>126.5</ele>
        <time>2023-01-11T13:15:52Z</time>
      </trkpt>
      <trkpt lat="49.85534" lon="2.08993">
        <ele>126.5</ele>
        <time>2023-01-11T13:15:53Z</time>
      </trkpt>
      <trkpt lat="49.85533" lon="2.08992">
        <ele>126.5</ele>
        <time>2023-01-11T13:15:55Z</time>
      </trkpt>
      <trkpt lat="49.85532" lon="2.08991">
        <ele>126.5</ele>
        <time>2023-01-11T13:15:56Z</time>
      </trkpt>
      <trkpt lat="49.85532" lon="2.0899">
        <ele>126.5</ele>
        <time>2023-01-11T13:15:57Z</time>
      </trkpt>
      <trkpt lat="49.85531" lon="2.08988">
        <ele>126.4</ele>
        <time>2023-01-11T13:15:58Z</time>
      </trkpt>
      <trkpt lat="49.8553" lon="2.08987">
        <ele>126.4</ele>
        <time>2023-01-11T13:15:59Z</time>
      </trkpt>
      <trkpt lat="49.8553" lon="2.08986">
        <ele>126.4</ele>
        <time>2023-01-11T13:16:00Z</time>
      </trkpt>
      <trkpt lat="49.85529" lon="2.08985">
        <ele>126.4</ele>
        <time>2023-01-11T13:16:01Z</time>
      </trkpt>
      <trkpt lat="49.85528" lon="2.08983">
        <ele>126.4</ele>
        <time>2023-01-11T13:16:03Z</time>
      </trkpt>
      <trkpt lat="49.85528" lon="2.08982">
        <ele>126.4</ele>
        <time>2023-01-11T13:16:04Z</time>
      </trkpt>
      <trkpt lat="49.85527" lon="2.08982">
        <ele>126.4</ele>
        <time>2023-01-11T13:16:05Z</time>
      </trkpt>
      <trkpt lat="49.85526" lon="2.08981">
        <ele>126.4</ele>
        <time>2023-01-11T13:16:06Z</time>
      </trkpt>
      <trkpt lat="49.85526" lon="2.0898">
        <ele>126.4</ele>
        <time>2023-01-11T13:16:07Z</time>
      </trkpt>
      <trkpt lat="49.85525" lon="2.08979">
        <ele>126.4</ele>
        <time>2023-01-11T13:16:09Z</time>
      </trkpt>
      <trkpt lat="49.85524" lon="2.08978">
        <ele>126.4</ele>
        <time>2023-01-11T13:16:10Z</time>
      </trkpt>
      <trkpt lat="49.85524" lon="2.08977">
        <ele>126.4</ele>
        <time>2023-01-11T13:16:11Z</time>
      </trkpt>
      <trkpt lat="49.85523" lon="2.08977">
        <ele>126.4</ele>
        <time>2023-01-11T13:16:12Z</time>
      </trkpt>
      <trkpt lat="49.85522" lon="2.08976">
        <ele>126.4</ele>
        <time>2023-01-11T13:16:14Z</time>
      </trkpt>
      <trkpt lat="49.85521" lon="2.08976">
        <ele>126.4</ele>
        <time>2023-01-11T13:16:15Z</time>
      </trkpt>
      <trkpt lat="49.85521" lon="2.08976">
        <ele>126.4</ele>
        <time>2023-01-11T13:16:16Z</time>
      </trkpt>
      <trkpt lat="49.8552" lon="2.08976">
        <ele>126.4</ele>
        <time>2023-01-11T13:16:17Z</time>
      </trkpt>
      <trkpt lat="49.85519" lon="2.08974">
        <ele>126.3</ele>
        <time>2023-01-11T13:16:19Z</time>
      </trkpt>
      <trkpt lat="49.85519" lon="2.08974">
        <ele>126.3</ele>
        <time>2023-01-11T13:16:20Z</time>
      </trkpt>
      <trkpt lat="49.85518" lon="2.08973">
        <ele>126.3</ele>
        <time>2023-01-11T13:16:21Z</time>
      </trkpt>
      <trkpt lat="49.85518" lon="2.08972">
        <ele>126.3</ele>
        <time>2023-01-11T13:16:22Z</time>
      </trkpt>
      <trkpt lat="49.85517" lon="2.08971">
        <ele>126.3</ele>
        <time>2023-01-11T13:16:24Z</time>
      </trkpt>
      <trkpt lat="49.85516" lon="2.0897">
        <ele>126.3</ele>
        <time>2023-01-11T13:16:25Z</time>
      </trkpt>
      <trkpt lat="49.85515" lon="2.08969">
        <ele>126.3</ele>
        <time>2023-01-11T13:16:27Z</time>
      </trkpt>
      <trkpt lat="49.85514" lon="2.08969">
        <ele>126.3</ele>
        <time>2023-01-11T13:16:28Z</time>
      </trkpt>
      <trkpt lat="49.85513" lon="2.08968">
        <ele>126.3</ele>
        <time>2023-01-11T13:16:30Z</time>
      </trkpt>
      <trkpt lat="49.85512" lon="2.08967">
        <ele>126.3</ele>
        <time>2023-01-11T13:16:31Z</time>
      </trkpt>
      <trkpt lat="49.85511" lon="2.08967">
        <ele>126.3</ele>
        <time>2023-01-11T13:16:32Z</time>
      </trkpt>
      <trkpt lat="49.85511" lon="2.08966">
        <ele>126.2</ele>
        <time>2023-01-11T13:16:33Z</time>
      </trkpt>
      <trkpt lat="49.8551" lon="2.08965">
        <ele>126.2</ele>
        <time>2023-01-11T13:16:35Z</time>
      </trkpt>
      <trkpt lat="49.85509" lon="2.08964">
        <ele>126.2</ele>
        <time>2023-01-11T13:16:36Z</time>
      </trkpt>
      <trkpt lat="49.85508" lon="2.08963">
        <ele>126.2</ele>
        <time>2023-01-11T13:16:37Z</time>
      </trkpt>
      <trkpt lat="49.85508" lon="2.08963">
        <ele>126.2</ele>
        <time>2023-01-11T13:16:38Z</time>
      </trkpt>
      <trkpt lat="49.85508" lon="2.08962">
        <ele>126.2</ele>
        <time>2023-01-11T13:16:39Z</time>
      </trkpt>
      <trkpt lat="49.85507" lon="2.08961">
        <ele>126.2</ele>
        <time>2023-01-11T13:16:40Z</time>
      </trkpt>
      <trkpt lat="49.85506" lon="2.0896">
        <ele>126.2</ele>
        <time>2023-01-11T13:16:41Z</time>
      </trkpt>
      <trkpt lat="49.85506" lon="2.08958">
        <ele>126.2</ele>
        <time>2023-01-11T13:16:43Z</time>
      </trkpt>
      <trkpt lat="49.85505" lon="2.08956">
        <ele>126.2</ele>
        <time>2023-01-11T13:16:44Z</time>
      </trkpt>
      <trkpt lat="49.85504" lon="2.08955">
        <ele>126.2</ele>
        <time>2023-01-11T13:16:45Z</time>
      </trkpt>
      <trkpt lat="49.85504" lon="2.08954">
        <ele>126.1</ele>
        <time>2023-01-11T13:16:46Z</time>
      </trkpt>
      <trkpt lat="49.85502" lon="2.08951">
        <ele>126.1</ele>
        <time>2023-01-11T13:16:47Z</time>
      </trkpt>
      <trkpt lat="49.85502" lon="2.0895">
        <ele>126.1</ele>
        <time>2023-01-11T13:16:48Z</time>
      </trkpt>
      <trkpt lat="49.85501" lon="2.08949">
        <ele>126.1</ele>
        <time>2023-01-11T13:16:50Z</time>
      </trkpt>
      <trkpt lat="49.855" lon="2.08948">
        <ele>126.1</ele>
        <time>2023-01-11T13:16:51Z</time>
      </trkpt>
      <trkpt lat="49.855" lon="2.08946">
        <ele>126.1</ele>
        <time>2023-01-11T13:16:52Z</time>
      </trkpt>
      <trkpt lat="49.85499" lon="2.08945">
        <ele>126.1</ele>
        <time>2023-01-11T13:16:53Z</time>
      </trkpt>
      <trkpt lat="49.85498" lon="2.08945">
        <ele>126.1</ele>
        <time>2023-01-11T13:16:54Z</time>
      </trkpt>
      <trkpt lat="49.85498" lon="2.08943">
        <ele>126.1</ele>
        <time>2023-01-11T13:16:55Z</time>
      </trkpt>
      <trkpt lat="49.85497" lon="2.08942">
        <ele>126</ele>
        <time>2023-01-11T13:16:56Z</time>
      </trkpt>
      <trkpt lat="49.85496" lon="2.08941">
        <ele>126</ele>
        <time>2023-01-11T13:16:57Z</time>
      </trkpt>
      <trkpt lat="49.85495" lon="2.08939">
        <ele>126</ele>
        <time>2023-01-11T13:16:59Z</time>
      </trkpt>
      <trkpt lat="49.85494" lon="2.08937">
        <ele>126</ele>
        <time>2023-01-11T13:17:00Z</time>
      </trkpt>
      <trkpt lat="49.85493" lon="2.08936">
        <ele>126</ele>
        <time>2023-01-11T13:17:01Z</time>
      </trkpt>
      <trkpt lat="49.85493" lon="2.08934">
        <ele>126</ele>
        <time>2023-01-11T13:17:02Z</time>
      </trkpt>
      <trkpt lat="49.85492" lon="2.08932">
        <ele>126</ele>
        <time>2023-01-11T13:17:03Z</time>
      </trkpt>
      <trkpt lat="49.85491" lon="2.08931">
        <ele>126</ele>
        <time>2023-01-11T13:17:05Z</time>
      </trkpt>
      <trkpt lat="49.85491" lon="2.0893">
        <ele>126</ele>
        <time>2023-01-11T13:17:06Z</time>
      </trkpt>
      <trkpt lat="49.8549" lon="2.08929">
        <ele>126</ele>
        <time>2023-01-11T13:17:07Z</time>
      </trkpt>
      <trkpt lat="49.85489" lon="2.08927">
        <ele>126</ele>
        <time>2023-01-11T13:17:08Z</time>
      </trkpt>
      <trkpt lat="49.85488" lon="2.08925">
        <ele>126</ele>
        <time>2023-01-11T13:17:09Z</time>
      </trkpt>
      <trkpt lat="49.85488" lon="2.08924">
        <ele>126</ele>
        <time>2023-01-11T13:17:10Z</time>
      </trkpt>
      <trkpt lat="49.85487" lon="2.08923">
        <ele>126</ele>
        <time>2023-01-11T13:17:11Z</time>
      </trkpt>
      <trkpt lat="49.85486" lon="2.08922">
        <ele>126</ele>
        <time>2023-01-11T13:17:12Z</time>
      </trkpt>
      <trkpt lat="49.85485" lon="2.0892">
        <ele>126</ele>
        <time>2023-01-11T13:17:13Z</time>
      </trkpt>
      <trkpt lat="49.85484" lon="2.08918">
        <ele>126</ele>
        <time>2023-01-11T13:17:15Z</time>
      </trkpt>
      <trkpt lat="49.85484" lon="2.08917">
        <ele>126</ele>
        <time>2023-01-11T13:17:16Z</time>
      </trkpt>
      <trkpt lat="49.85484" lon="2.08916">
        <ele>126</ele>
        <time>2023-01-11T13:17:17Z</time>
      </trkpt>
      <trkpt lat="49.85483" lon="2.08915">
        <ele>126</ele>
        <time>2023-01-11T13:17:18Z</time>
      </trkpt>
      <trkpt lat="49.85482" lon="2.08913">
        <ele>126</ele>
        <time>2023-01-11T13:17:19Z</time>
      </trkpt>
      <trkpt lat="49.85481" lon="2.08912">
        <ele>126</ele>
        <time>2023-01-11T13:17:20Z</time>
      </trkpt>
      <trkpt lat="49.85481" lon="2.08911">
        <ele>126</ele>
        <time>2023-01-11T13:17:21Z</time>
      </trkpt>
      <trkpt lat="49.85481" lon="2.08909">
        <ele>126</ele>
        <time>2023-01-11T13:17:22Z</time>
      </trkpt>
      <trkpt lat="49.8548" lon="2.08908">
        <ele>126</ele>
        <time>2023-01-11T13:17:23Z</time>
      </trkpt>
      <trkpt lat="49.85479" lon="2.08907">
        <ele>126</ele>
        <time>2023-01-11T13:17:25Z</time>
      </trkpt>
      <trkpt lat="49.85478" lon="2.08906">
        <ele>126</ele>
        <time>2023-01-11T13:17:26Z</time>
      </trkpt>
      <trkpt lat="49.85477" lon="2.08904">
        <ele>126</ele>
        <time>2023-01-11T13:17:27Z</time>
      </trkpt>
      <trkpt lat="49.85476" lon="2.08903">
        <ele>126</ele>
        <time>2023-01-11T13:17:28Z</time>
      </trkpt>
      <trkpt lat="49.85476" lon="2.08902">
        <ele>126</ele>
        <time>2023-01-11T13:17:29Z</time>
      </trkpt>
      <trkpt lat="49.85475" lon="2.08901">
        <ele>126</ele>
        <time>2023-01-11T13:17:30Z</time>
      </trkpt>
      <trkpt lat="49.85474" lon="2.089">
        <ele>126</ele>
        <time>2023-01-11T13:17:31Z</time>
      </trkpt>
      <trkpt lat="49.85473" lon="2.08899">
        <ele>126</ele>
        <time>2023-01-11T13:17:32Z</time>
      </trkpt>
      <trkpt lat="49.85472" lon="2.08897">
        <ele>126</ele>
        <time>2023-01-11T13:17:34Z</time>
      </trkpt>
      <trkpt lat="49.85471" lon="2.08897">
        <ele>126</ele>
        <time>2023-01-11T13:17:35Z</time>
      </trkpt>
      <trkpt lat="49.85471" lon="2.08895">
        <ele>126</ele>
        <time>2023-01-11T13:17:36Z</time>
      </trkpt>
      <trkpt lat="49.8547" lon="2.08894">
        <ele>126</ele>
        <time>2023-01-11T13:17:37Z</time>
      </trkpt>
      <trkpt lat="49.85469" lon="2.08893">
        <ele>126</ele>
        <time>2023-01-11T13:17:38Z</time>
      </trkpt>
      <trkpt lat="49.85468" lon="2.08891">
        <ele>126</ele>
        <time>2023-01-11T13:17:39Z</time>
      </trkpt>
      <trkpt lat="49.85468" lon="2.0889">
        <ele>126</ele>
        <time>2023-01-11T13:17:40Z</time>
      </trkpt>
      <trkpt lat="49.85467" lon="2.08889">
        <ele>126</ele>
        <time>2023-01-11T13:17:41Z</time>
      </trkpt>
      <trkpt lat="49.85466" lon="2.08888">
        <ele>126</ele>
        <time>2023-01-11T13:17:42Z</time>
      </trkpt>
      <trkpt lat="49.85465" lon="2.08885">
        <ele>126</ele>
        <time>2023-01-11T13:17:44Z</time>
      </trkpt>
      <trkpt lat="49.85464" lon="2.08884">
        <ele>126</ele>
        <time>2023-01-11T13:17:45Z</time>
      </trkpt>
      <trkpt lat="49.85463" lon="2.08883">
        <ele>126</ele>
        <time>2023-01-11T13:17:46Z</time>
      </trkpt>
      <trkpt lat="49.85463" lon="2.08882">
        <ele>126</ele>
        <time>2023-01-11T13:17:47Z</time>
      </trkpt>
      <trkpt lat="49.85462" lon="2.08881">
        <ele>125.9</ele>
        <time>2023-01-11T13:17:48Z</time>
      </trkpt>
      <trkpt lat="49.85461" lon="2.08879">
        <ele>125.9</ele>
        <time>2023-01-11T13:17:49Z</time>
      </trkpt>
      <trkpt lat="49.8546" lon="2.08878">
        <ele>125.9</ele>
        <time>2023-01-11T13:17:50Z</time>
      </trkpt>
      <trkpt lat="49.8546" lon="2.08877">
        <ele>125.9</ele>
        <time>2023-01-11T13:17:51Z</time>
      </trkpt>
      <trkpt lat="49.85459" lon="2.08875">
        <ele>125.9</ele>
        <time>2023-01-11T13:17:52Z</time>
      </trkpt>
      <trkpt lat="49.85457" lon="2.08873">
        <ele>125.9</ele>
        <time>2023-01-11T13:17:53Z</time>
      </trkpt>
      <trkpt lat="49.85456" lon="2.08872">
        <ele>125.9</ele>
        <time>2023-01-11T13:17:54Z</time>
      </trkpt>
      <trkpt lat="49.85455" lon="2.0887">
        <ele>125.9</ele>
        <time>2023-01-11T13:17:56Z</time>
      </trkpt>
      <trkpt lat="49.85454" lon="2.08869">
        <ele>125.9</ele>
        <time>2023-01-11T13:17:57Z</time>
      </trkpt>
      <trkpt lat="49.85454" lon="2.08868">
        <ele>125.9</ele>
        <time>2023-01-11T13:17:58Z</time>
      </trkpt>
      <trkpt lat="49.85452" lon="2.08865">
        <ele>125.8</ele>
        <time>2023-01-11T13:17:59Z</time>
      </trkpt>
      <trkpt lat="49.85452" lon="2.08865">
        <ele>125.8</ele>
        <time>2023-01-11T13:18:00Z</time>
      </trkpt>
      <trkpt lat="49.85451" lon="2.08864">
        <ele>125.8</ele>
        <time>2023-01-11T13:18:01Z</time>
      </trkpt>
      <trkpt lat="49.85451" lon="2.08862">
        <ele>125.8</ele>
        <time>2023-01-11T13:18:02Z</time>
      </trkpt>
      <trkpt lat="49.85449" lon="2.0886">
        <ele>125.8</ele>
        <time>2023-01-11T13:18:04Z</time>
      </trkpt>
      <trkpt lat="49.85449" lon="2.08859">
        <ele>125.8</ele>
        <time>2023-01-11T13:18:05Z</time>
      </trkpt>
      <trkpt lat="49.85448" lon="2.08857">
        <ele>125.8</ele>
        <time>2023-01-11T13:18:06Z</time>
      </trkpt>
      <trkpt lat="49.85447" lon="2.08856">
        <ele>125.8</ele>
        <time>2023-01-11T13:18:07Z</time>
      </trkpt>
      <trkpt lat="49.85446" lon="2.08854">
        <ele>125.8</ele>
        <time>2023-01-11T13:18:08Z</time>
      </trkpt>
      <trkpt lat="49.85445" lon="2.08852">
        <ele>125.8</ele>
        <time>2023-01-11T13:18:09Z</time>
      </trkpt>
      <trkpt lat="49.85444" lon="2.08852">
        <ele>125.8</ele>
        <time>2023-01-11T13:18:10Z</time>
      </trkpt>
      <trkpt lat="49.85443" lon="2.0885">
        <ele>125.7</ele>
        <time>2023-01-11T13:18:11Z</time>
      </trkpt>
      <trkpt lat="49.85442" lon="2.08849">
        <ele>125.7</ele>
        <time>2023-01-11T13:18:12Z</time>
      </trkpt>
      <trkpt lat="49.8544" lon="2.08848">
        <ele>125.7</ele>
        <time>2023-01-11T13:18:13Z</time>
      </trkpt>
      <trkpt lat="49.8544" lon="2.08847">
        <ele>125.7</ele>
        <time>2023-01-11T13:18:14Z</time>
      </trkpt>
      <trkpt lat="49.85439" lon="2.08846">
        <ele>125.7</ele>
        <time>2023-01-11T13:18:16Z</time>
      </trkpt>
      <trkpt lat="49.85438" lon="2.08845">
        <ele>125.7</ele>
        <time>2023-01-11T13:18:17Z</time>
      </trkpt>
      <trkpt lat="49.85437" lon="2.08844">
        <ele>125.7</ele>
        <time>2023-01-11T13:18:18Z</time>
      </trkpt>
      <trkpt lat="49.85435" lon="2.08842">
        <ele>125.7</ele>
        <time>2023-01-11T13:18:19Z</time>
      </trkpt>
      <trkpt lat="49.85434" lon="2.08841">
        <ele>125.7</ele>
        <time>2023-01-11T13:18:20Z</time>
      </trkpt>
      <trkpt lat="49.85434" lon="2.08841">
        <ele>125.7</ele>
        <time>2023-01-11T13:18:21Z</time>
      </trkpt>
      <trkpt lat="49.85433" lon="2.0884">
        <ele>125.7</ele>
        <time>2023-01-11T13:18:22Z</time>
      </trkpt>
      <trkpt lat="49.85431" lon="2.08839">
        <ele>125.7</ele>
        <time>2023-01-11T13:18:24Z</time>
      </trkpt>
      <trkpt lat="49.85431" lon="2.08838">
        <ele>125.7</ele>
        <time>2023-01-11T13:18:25Z</time>
      </trkpt>
      <trkpt lat="49.8543" lon="2.08837">
        <ele>125.7</ele>
        <time>2023-01-11T13:18:26Z</time>
      </trkpt>
      <trkpt lat="49.85429" lon="2.08836">
        <ele>125.7</ele>
        <time>2023-01-11T13:18:27Z</time>
      </trkpt>
      <trkpt lat="49.85428" lon="2.08836">
        <ele>125.7</ele>
        <time>2023-01-11T13:18:28Z</time>
      </trkpt>
      <trkpt lat="49.85426" lon="2.08835">
        <ele>125.7</ele>
        <time>2023-01-11T13:18:29Z</time>
      </trkpt>
      <trkpt lat="49.85426" lon="2.08834">
        <ele>125.7</ele>
        <time>2023-01-11T13:18:30Z</time>
      </trkpt>
      <trkpt lat="49.85424" lon="2.08832">
        <ele>125.7</ele>
        <time>2023-01-11T13:18:32Z</time>
      </trkpt>
      <trkpt lat="49.85423" lon="2.08831">
        <ele>125.7</ele>
        <time>2023-01-11T13:18:33Z</time>
      </trkpt>
      <trkpt lat="49.85422" lon="2.0883">
        <ele>125.7</ele>
        <time>2023-01-11T13:18:34Z</time>
      </trkpt>
      <trkpt lat="49.85422" lon="2.0883">
        <ele>125.7</ele>
        <time>2023-01-11T13:18:35Z</time>
      </trkpt>
      <trkpt lat="49.85421" lon="2.08829">
        <ele>125.7</ele>
        <time>2023-01-11T13:18:36Z</time>
      </trkpt>
      <trkpt lat="49.8542" lon="2.08828">
        <ele>125.7</ele>
        <time>2023-01-11T13:18:37Z</time>
      </trkpt>
      <trkpt lat="49.85419" lon="2.08827">
        <ele>125.7</ele>
        <time>2023-01-11T13:18:38Z</time>
      </trkpt>
      <trkpt lat="49.85417" lon="2.08825">
        <ele>125.7</ele>
        <time>2023-01-11T13:18:40Z</time>
      </trkpt>
      <trkpt lat="49.85417" lon="2.08825">
        <ele>125.7</ele>
        <time>2023-01-11T13:18:41Z</time>
      </trkpt>
      <trkpt lat="49.85416" lon="2.08824">
        <ele>125.7</ele>
        <time>2023-01-11T13:18:42Z</time>
      </trkpt>
      <trkpt lat="49.85415" lon="2.08823">
        <ele>125.7</ele>
        <time>2023-01-11T13:18:43Z</time>
      </trkpt>
      <trkpt lat="49.85413" lon="2.08821">
        <ele>125.8</ele>
        <time>2023-01-11T13:18:44Z</time>
      </trkpt>
      <trkpt lat="49.85412" lon="2.0882">
        <ele>125.8</ele>
        <time>2023-01-11T13:18:45Z</time>
      </trkpt>
      <trkpt lat="49.85411" lon="2.0882">
        <ele>125.8</ele>
        <time>2023-01-11T13:18:46Z</time>
      </trkpt>
      <trkpt lat="49.8541" lon="2.08819">
        <ele>125.8</ele>
        <time>2023-01-11T13:18:47Z</time>
      </trkpt>
      <trkpt lat="49.85409" lon="2.08817">
        <ele>125.8</ele>
        <time>2023-01-11T13:18:49Z</time>
      </trkpt>
      <trkpt lat="49.85408" lon="2.08816">
        <ele>125.8</ele>
        <time>2023-01-11T13:18:50Z</time>
      </trkpt>
      <trkpt lat="49.85407" lon="2.08815">
        <ele>125.8</ele>
        <time>2023-01-11T13:18:51Z</time>
      </trkpt>
      <trkpt lat="49.85406" lon="2.08814">
        <ele>125.8</ele>
        <time>2023-01-11T13:18:52Z</time>
      </trkpt>
      <trkpt lat="49.85404" lon="2.08812">
        <ele>125.8</ele>
        <time>2023-01-11T13:18:53Z</time>
      </trkpt>
      <trkpt lat="49.85404" lon="2.08811">
        <ele>125.8</ele>
        <time>2023-01-11T13:18:54Z</time>
      </trkpt>
      <trkpt lat="49.85403" lon="2.08811">
        <ele>125.8</ele>
        <time>2023-01-11T13:18:55Z</time>
      </trkpt>
      <trkpt lat="49.85402" lon="2.0881">
        <ele>125.8</ele>
        <time>2023-01-11T13:18:56Z</time>
      </trkpt>
      <trkpt lat="49.85401" lon="2.08809">
        <ele>125.8</ele>
        <time>2023-01-11T13:18:57Z</time>
      </trkpt>
      <trkpt lat="49.85399" lon="2.08807">
        <ele>125.8</ele>
        <time>2023-01-11T13:18:59Z</time>
      </trkpt>
      <trkpt lat="49.85399" lon="2.08806">
        <ele>125.8</ele>
        <time>2023-01-11T13:19:00Z</time>
      </trkpt>
      <trkpt lat="49.85398" lon="2.08805">
        <ele>125.8</ele>
        <time>2023-01-11T13:19:01Z</time>
      </trkpt>
      <trkpt lat="49.85397" lon="2.08804">
        <ele>125.8</ele>
        <time>2023-01-11T13:19:02Z</time>
      </trkpt>
      <trkpt lat="49.85396" lon="2.08803">
        <ele>125.8</ele>
        <time>2023-01-11T13:19:03Z</time>
      </trkpt>
      <trkpt lat="49.85395" lon="2.08802">
        <ele>125.8</ele>
        <time>2023-01-11T13:19:04Z</time>
      </trkpt>
      <trkpt lat="49.85394" lon="2.08801">
        <ele>125.8</ele>
        <time>2023-01-11T13:19:05Z</time>
      </trkpt>
      <trkpt lat="49.85392" lon="2.08799">
        <ele>125.7</ele>
        <time>2023-01-11T13:19:06Z</time>
      </trkpt>
      <trkpt lat="49.85391" lon="2.08798">
        <ele>125.7</ele>
        <time>2023-01-11T13:19:08Z</time>
      </trkpt>
      <trkpt lat="49.8539" lon="2.08797">
        <ele>125.7</ele>
        <time>2023-01-11T13:19:09Z</time>
      </trkpt>
      <trkpt lat="49.8539" lon="2.08797">
        <ele>125.7</ele>
        <time>2023-01-11T13:19:10Z</time>
      </trkpt>
      <trkpt lat="49.85389" lon="2.08796">
        <ele>125.7</ele>
        <time>2023-01-11T13:19:11Z</time>
      </trkpt>
      <trkpt lat="49.85388" lon="2.08795">
        <ele>125.7</ele>
        <time>2023-01-11T13:19:12Z</time>
      </trkpt>
      <trkpt lat="49.85386" lon="2.08793">
        <ele>125.7</ele>
        <time>2023-01-11T13:19:13Z</time>
      </trkpt>
      <trkpt lat="49.85386" lon="2.08792">
        <ele>125.7</ele>
        <time>2023-01-11T13:19:14Z</time>
      </trkpt>
      <trkpt lat="49.85385" lon="2.08791">
        <ele>125.7</ele>
        <time>2023-01-11T13:19:15Z</time>
      </trkpt>
      <trkpt lat="49.85384" lon="2.08789">
        <ele>125.7</ele>
        <time>2023-01-11T13:19:17Z</time>
      </trkpt>
      <trkpt lat="49.85383" lon="2.08788">
        <ele>125.7</ele>
        <time>2023-01-11T13:19:18Z</time>
      </trkpt>
      <trkpt lat="49.85381" lon="2.08786">
        <ele>125.6</ele>
        <time>2023-01-11T13:19:19Z</time>
      </trkpt>
      <trkpt lat="49.8538" lon="2.08785">
        <ele>125.6</ele>
        <time>2023-01-11T13:19:20Z</time>
      </trkpt>
      <trkpt lat="49.8538" lon="2.08784">
        <ele>125.6</ele>
        <time>2023-01-11T13:19:21Z</time>
      </trkpt>
      <trkpt lat="49.85379" lon="2.08783">
        <ele>125.6</ele>
        <time>2023-01-11T13:19:22Z</time>
      </trkpt>
      <trkpt lat="49.85378" lon="2.08782">
        <ele>125.6</ele>
        <time>2023-01-11T13:19:24Z</time>
      </trkpt>
      <trkpt lat="49.85377" lon="2.08781">
        <ele>125.6</ele>
        <time>2023-01-11T13:19:25Z</time>
      </trkpt>
      <trkpt lat="49.85377" lon="2.0878">
        <ele>125.6</ele>
        <time>2023-01-11T13:19:26Z</time>
      </trkpt>
      <trkpt lat="49.85376" lon="2.08779">
        <ele>125.6</ele>
        <time>2023-01-11T13:19:27Z</time>
      </trkpt>
      <trkpt lat="49.85375" lon="2.08778">
        <ele>125.6</ele>
        <time>2023-01-11T13:19:28Z</time>
      </trkpt>
      <trkpt lat="49.85373" lon="2.08776">
        <ele>125.6</ele>
        <time>2023-01-11T13:19:29Z</time>
      </trkpt>
      <trkpt lat="49.85373" lon="2.08776">
        <ele>125.5</ele>
        <time>2023-01-11T13:19:30Z</time>
      </trkpt>
      <trkpt lat="49.85372" lon="2.08775">
        <ele>125.5</ele>
        <time>2023-01-11T13:19:31Z</time>
      </trkpt>
      <trkpt lat="49.8537" lon="2.08774">
        <ele>125.5</ele>
        <time>2023-01-11T13:19:32Z</time>
      </trkpt>
      <trkpt lat="49.85369" lon="2.08773">
        <ele>125.5</ele>
        <time>2023-01-11T13:19:33Z</time>
      </trkpt>
      <trkpt lat="49.85368" lon="2.08772">
        <ele>125.5</ele>
        <time>2023-01-11T13:19:34Z</time>
      </trkpt>
      <trkpt lat="49.85367" lon="2.08772">
        <ele>125.5</ele>
        <time>2023-01-11T13:19:35Z</time>
      </trkpt>
      <trkpt lat="49.85367" lon="2.08771">
        <ele>125.5</ele>
        <time>2023-01-11T13:19:37Z</time>
      </trkpt>
      <trkpt lat="49.85366" lon="2.0877">
        <ele>125.5</ele>
        <time>2023-01-11T13:19:38Z</time>
      </trkpt>
      <trkpt lat="49.85365" lon="2.0877">
        <ele>125.5</ele>
        <time>2023-01-11T13:19:39Z</time>
      </trkpt>
      <trkpt lat="49.85364" lon="2.08768">
        <ele>125.5</ele>
        <time>2023-01-11T13:19:40Z</time>
      </trkpt>
      <trkpt lat="49.85363" lon="2.08768">
        <ele>125.5</ele>
        <time>2023-01-11T13:19:41Z</time>
      </trkpt>
      <trkpt lat="49.85362" lon="2.08767">
        <ele>125.5</ele>
        <time>2023-01-11T13:19:42Z</time>
      </trkpt>
      <trkpt lat="49.85361" lon="2.08766">
        <ele>125.5</ele>
        <time>2023-01-11T13:19:43Z</time>
      </trkpt>
      <trkpt lat="49.8536" lon="2.08764">
        <ele>125.5</ele>
        <time>2023-01-11T13:19:44Z</time>
      </trkpt>
      <trkpt lat="49.8536" lon="2.08764">
        <ele>125.5</ele>
        <time>2023-01-11T13:19:45Z</time>
      </trkpt>
      <trkpt lat="49.85359" lon="2.08763">
        <ele>125.5</ele>
        <time>2023-01-11T13:19:47Z</time>
      </trkpt>
      <trkpt lat="49.85358" lon="2.08762">
        <ele>125.5</ele>
        <time>2023-01-11T13:19:48Z</time>
      </trkpt>
      <trkpt lat="49.85357" lon="2.08761">
        <ele>125.5</ele>
        <time>2023-01-11T13:19:49Z</time>
      </trkpt>
      <trkpt lat="49.85356" lon="2.0876">
        <ele>125.5</ele>
        <time>2023-01-11T13:19:50Z</time>
      </trkpt>
      <trkpt lat="49.85355" lon="2.08759">
        <ele>125.5</ele>
        <time>2023-01-11T13:19:51Z</time>
      </trkpt>
      <trkpt lat="49.85354" lon="2.08758">
        <ele>125.5</ele>
        <time>2023-01-11T13:19:52Z</time>
      </trkpt>
      <trkpt lat="49.85353" lon="2.08756">
        <ele>125.4</ele>
        <time>2023-01-11T13:19:53Z</time>
      </trkpt>
      <trkpt lat="49.85351" lon="2.08755">
        <ele>125.4</ele>
        <time>2023-01-11T13:19:55Z</time>
      </trkpt>
      <trkpt lat="49.8535" lon="2.08754">
        <ele>125.4</ele>
        <time>2023-01-11T13:19:56Z</time>
      </trkpt>
      <trkpt lat="49.85349" lon="2.08753">
        <ele>125.4</ele>
        <time>2023-01-11T13:19:57Z</time>
      </trkpt>
      <trkpt lat="49.85348" lon="2.08751">
        <ele>125.4</ele>
        <time>2023-01-11T13:19:58Z</time>
      </trkpt>
      <trkpt lat="49.85346" lon="2.0875">
        <ele>125.4</ele>
        <time>2023-01-11T13:19:59Z</time>
      </trkpt>
      <trkpt lat="49.85345" lon="2.08749">
        <ele>125.4</ele>
        <time>2023-01-11T13:20:00Z</time>
      </trkpt>
      <trkpt lat="49.85344" lon="2.08746">
        <ele>125.4</ele>
        <time>2023-01-11T13:20:01Z</time>
      </trkpt>
      <trkpt lat="49.85343" lon="2.08745">
        <ele>125.4</ele>
        <time>2023-01-11T13:20:02Z</time>
      </trkpt>
      <trkpt lat="49.85342" lon="2.08744">
        <ele>125.4</ele>
        <time>2023-01-11T13:20:03Z</time>
      </trkpt>
      <trkpt lat="49.85341" lon="2.08742">
        <ele>125.4</ele>
        <time>2023-01-11T13:20:04Z</time>
      </trkpt>
      <trkpt lat="49.8534" lon="2.08741">
        <ele>125.4</ele>
        <time>2023-01-11T13:20:05Z</time>
      </trkpt>
      <trkpt lat="49.8534" lon="2.08739">
        <ele>125.4</ele>
        <time>2023-01-11T13:20:07Z</time>
      </trkpt>
      <trkpt lat="49.8534" lon="2.08738">
        <ele>125.4</ele>
        <time>2023-01-11T13:20:08Z</time>
      </trkpt>
      <trkpt lat="49.85341" lon="2.08736">
        <ele>125.4</ele>
        <time>2023-01-11T13:20:09Z</time>
      </trkpt>
      <trkpt lat="49.85341" lon="2.08735">
        <ele>125.3</ele>
        <time>2023-01-11T13:20:10Z</time>
      </trkpt>
      <trkpt lat="49.8534" lon="2.08734">
        <ele>125.3</ele>
        <time>2023-01-11T13:20:12Z</time>
      </trkpt>
      <trkpt lat="49.85339" lon="2.08733">
        <ele>125.3</ele>
        <time>2023-01-11T13:20:13Z</time>
      </trkpt>
      <trkpt lat="49.85338" lon="2.08731">
        <ele>125.3</ele>
        <time>2023-01-11T13:20:14Z</time>
      </trkpt>
      <trkpt lat="49.85337" lon="2.0873">
        <ele>125.3</ele>
        <time>2023-01-11T13:20:15Z</time>
      </trkpt>
      <trkpt lat="49.85337" lon="2.08729">
        <ele>125.3</ele>
        <time>2023-01-11T13:20:16Z</time>
      </trkpt>
      <trkpt lat="49.85336" lon="2.08728">
        <ele>125.3</ele>
        <time>2023-01-11T13:20:17Z</time>
      </trkpt>
      <trkpt lat="49.85334" lon="2.08726">
        <ele>125.3</ele>
        <time>2023-01-11T13:20:19Z</time>
      </trkpt>
      <trkpt lat="49.85333" lon="2.08725">
        <ele>125.3</ele>
        <time>2023-01-11T13:20:20Z</time>
      </trkpt>
      <trkpt lat="49.85332" lon="2.08724">
        <ele>125.3</ele>
        <time>2023-01-11T13:20:21Z</time>
      </trkpt>
      <trkpt lat="49.8533" lon="2.08722">
        <ele>125.3</ele>
        <time>2023-01-11T13:20:22Z</time>
      </trkpt>
      <trkpt lat="49.8533" lon="2.08721">
        <ele>125.3</ele>
        <time>2023-01-11T13:20:23Z</time>
      </trkpt>
      <trkpt lat="49.85329" lon="2.0872">
        <ele>125.3</ele>
        <time>2023-01-11T13:20:24Z</time>
      </trkpt>
      <trkpt lat="49.85329" lon="2.08719">
        <ele>125.3</ele>
        <time>2023-01-11T13:20:25Z</time>
      </trkpt>
      <trkpt lat="49.85328" lon="2.08718">
        <ele>125.3</ele>
        <time>2023-01-11T13:20:26Z</time>
      </trkpt>
      <trkpt lat="49.85327" lon="2.08716">
        <ele>125.2</ele>
        <time>2023-01-11T13:20:28Z</time>
      </trkpt>
      <trkpt lat="49.85327" lon="2.08716">
        <ele>125.2</ele>
        <time>2023-01-11T13:20:29Z</time>
      </trkpt>
      <trkpt lat="49.85326" lon="2.08715">
        <ele>125.2</ele>
        <time>2023-01-11T13:20:30Z</time>
      </trkpt>
      <trkpt lat="49.85325" lon="2.08714">
        <ele>125.2</ele>
        <time>2023-01-11T13:20:31Z</time>
      </trkpt>
      <trkpt lat="49.85324" lon="2.08713">
        <ele>125.2</ele>
        <time>2023-01-11T13:20:32Z</time>
      </trkpt>
      <trkpt lat="49.85323" lon="2.08712">
        <ele>125.2</ele>
        <time>2023-01-11T13:20:33Z</time>
      </trkpt>
      <trkpt lat="49.85322" lon="2.0871">
        <ele>125.2</ele>
        <time>2023-01-11T13:20:34Z</time>
      </trkpt>
      <trkpt lat="49.85321" lon="2.08709">
        <ele>125.2</ele>
        <time>2023-01-11T13:20:36Z</time>
      </trkpt>
      <trkpt lat="49.85321" lon="2.08708">
        <ele>125.2</ele>
        <time>2023-01-11T13:20:37Z</time>
      </trkpt>
      <trkpt lat="49.8532" lon="2.08707">
        <ele>125.2</ele>
        <time>2023-01-11T13:20:38Z</time>
      </trkpt>
      <trkpt lat="49.85319" lon="2.08705">
        <ele>125.2</ele>
        <time>2023-01-11T13:20:39Z</time>
      </trkpt>
      <trkpt lat="49.85318" lon="2.08703">
        <ele>125.1</ele>
        <time>2023-01-11T13:20:40Z</time>
      </trkpt>
      <trkpt lat="49.85318" lon="2.08702">
        <ele>125.1</ele>
        <time>2023-01-11T13:20:41Z</time>
      </trkpt>
      <trkpt lat="49.85317" lon="2.08701">
        <ele>125.1</ele>
        <time>2023-01-11T13:20:42Z</time>
      </trkpt>
      <trkpt lat="49.85316" lon="2.087">
        <ele>125.1</ele>
        <time>2023-01-11T13:20:43Z</time>
      </trkpt>
      <trkpt lat="49.85315" lon="2.08698">
        <ele>125.1</ele>
        <time>2023-01-11T13:20:44Z</time>
      </trkpt>
      <trkpt lat="49.85314" lon="2.08697">
        <ele>125.1</ele>
        <time>2023-01-11T13:20:45Z</time>
      </trkpt>
      <trkpt lat="49.85313" lon="2.08696">
        <ele>125.1</ele>
        <time>2023-01-11T13:20:46Z</time>
      </trkpt>
      <trkpt lat="49.85312" lon="2.08694">
        <ele>125.1</ele>
        <time>2023-01-11T13:20:48Z</time>
      </trkpt>
      <trkpt lat="49.85312" lon="2.08694">
        <ele>125.1</ele>
        <time>2023-01-11T13:20:49Z</time>
      </trkpt>
      <trkpt lat="49.8531" lon="2.08692">
        <ele>125</ele>
        <time>2023-01-11T13:20:50Z</time>
      </trkpt>
      <trkpt lat="49.8531" lon="2.08691">
        <ele>125</ele>
        <time>2023-01-11T13:20:51Z</time>
      </trkpt>
      <trkpt lat="49.85309" lon="2.0869">
        <ele>125</ele>
        <time>2023-01-11T13:20:53Z</time>
      </trkpt>
      <trkpt lat="49.85308" lon="2.08689">
        <ele>125</ele>
        <time>2023-01-11T13:20:54Z</time>
      </trkpt>
      <trkpt lat="49.85307" lon="2.08687">
        <ele>125</ele>
        <time>2023-01-11T13:20:55Z</time>
      </trkpt>
      <trkpt lat="49.85306" lon="2.08686">
        <ele>125</ele>
        <time>2023-01-11T13:20:56Z</time>
      </trkpt>
      <trkpt lat="49.85304" lon="2.08685">
        <ele>125</ele>
        <time>2023-01-11T13:20:58Z</time>
      </trkpt>
      <trkpt lat="49.85303" lon="2.08684">
        <ele>124.9</ele>
        <time>2023-01-11T13:20:59Z</time>
      </trkpt>
      <trkpt lat="49.85302" lon="2.08683">
        <ele>124.9</ele>
        <time>2023-01-11T13:21:00Z</time>
      </trkpt>
      <trkpt lat="49.85301" lon="2.08683">
        <ele>124.9</ele>
        <time>2023-01-11T13:21:01Z</time>
      </trkpt>
      <trkpt lat="49.85301" lon="2.08682">
        <ele>124.9</ele>
        <time>2023-01-11T13:21:02Z</time>
      </trkpt>
      <trkpt lat="49.853" lon="2.0868">
        <ele>124.9</ele>
        <time>2023-01-11T13:21:03Z</time>
      </trkpt>
      <trkpt lat="49.85299" lon="2.08679">
        <ele>124.9</ele>
        <time>2023-01-11T13:21:05Z</time>
      </trkpt>
      <trkpt lat="49.85297" lon="2.08678">
        <ele>124.9</ele>
        <time>2023-01-11T13:21:06Z</time>
      </trkpt>
      <trkpt lat="49.85296" lon="2.08678">
        <ele>124.9</ele>
        <time>2023-01-11T13:21:07Z</time>
      </trkpt>
      <trkpt lat="49.85296" lon="2.08677">
        <ele>124.9</ele>
        <time>2023-01-11T13:21:08Z</time>
      </trkpt>
      <trkpt lat="49.85295" lon="2.08677">
        <ele>124.9</ele>
        <time>2023-01-11T13:21:09Z</time>
      </trkpt>
      <trkpt lat="49.85294" lon="2.08676">
        <ele>124.9</ele>
        <time>2023-01-11T13:21:10Z</time>
      </trkpt>
      <trkpt lat="49.85294" lon="2.08674">
        <ele>124.9</ele>
        <time>2023-01-11T13:21:12Z</time>
      </trkpt>
      <trkpt lat="49.85293" lon="2.08673">
        <ele>124.9</ele>
        <time>2023-01-11T13:21:13Z</time>
      </trkpt>
      <trkpt lat="49.85293" lon="2.08671">
        <ele>124.8</ele>
        <time>2023-01-11T13:21:14Z</time>
      </trkpt>
      <trkpt lat="49.85293" lon="2.08668">
        <ele>124.8</ele>
        <time>2023-01-11T13:21:15Z</time>
      </trkpt>
      <trkpt lat="49.85292" lon="2.08665">
        <ele>124.8</ele>
        <time>2023-01-11T13:21:17Z</time>
      </trkpt>
      <trkpt lat="49.85291" lon="2.08664">
        <ele>124.8</ele>
        <time>2023-01-11T13:21:18Z</time>
      </trkpt>
      <trkpt lat="49.85291" lon="2.08663">
        <ele>124.8</ele>
        <time>2023-01-11T13:21:19Z</time>
      </trkpt>
      <trkpt lat="49.8529" lon="2.08661">
        <ele>124.8</ele>
        <time>2023-01-11T13:21:20Z</time>
      </trkpt>
      <trkpt lat="49.8529" lon="2.0866">
        <ele>124.8</ele>
        <time>2023-01-11T13:21:21Z</time>
      </trkpt>
      <trkpt lat="49.85289" lon="2.08658">
        <ele>124.8</ele>
        <time>2023-01-11T13:21:22Z</time>
      </trkpt>
      <trkpt lat="49.85289" lon="2.08657">
        <ele>124.8</ele>
        <time>2023-01-11T13:21:23Z</time>
      </trkpt>
      <trkpt lat="49.85288" lon="2.08656">
        <ele>124.8</ele>
        <time>2023-01-11T13:21:24Z</time>
      </trkpt>
      <trkpt lat="49.85288" lon="2.08653">
        <ele>124.8</ele>
        <time>2023-01-11T13:21:26Z</time>
      </trkpt>
      <trkpt lat="49.85287" lon="2.08652">
        <ele>124.7</ele>
        <time>2023-01-11T13:21:27Z</time>
      </trkpt>
      <trkpt lat="49.85286" lon="2.08651">
        <ele>124.7</ele>
        <time>2023-01-11T13:21:28Z</time>
      </trkpt>
      <trkpt lat="49.85286" lon="2.08649">
        <ele>124.7</ele>
        <time>2023-01-11T13:21:29Z</time>
      </trkpt>
      <trkpt lat="49.85285" lon="2.08647">
        <ele>124.7</ele>
        <time>2023-01-11T13:21:30Z</time>
      </trkpt>
      <trkpt lat="49.85284" lon="2.08646">
        <ele>124.7</ele>
        <time>2023-01-11T13:21:31Z</time>
      </trkpt>
      <trkpt lat="49.85284" lon="2.08645">
        <ele>124.7</ele>
        <time>2023-01-11T13:21:32Z</time>
      </trkpt>
      <trkpt lat="49.85282" lon="2.08642">
        <ele>124.7</ele>
        <time>2023-01-11T13:21:33Z</time>
      </trkpt>
      <trkpt lat="49.85282" lon="2.0864">
        <ele>124.7</ele>
        <time>2023-01-11T13:21:35Z</time>
      </trkpt>
      <trkpt lat="49.85281" lon="2.08639">
        <ele>124.6</ele>
        <time>2023-01-11T13:21:36Z</time>
      </trkpt>
      <trkpt lat="49.8528" lon="2.08637">
        <ele>124.6</ele>
        <time>2023-01-11T13:21:37Z</time>
      </trkpt>
      <trkpt lat="49.8528" lon="2.08636">
        <ele>124.6</ele>
        <time>2023-01-11T13:21:38Z</time>
      </trkpt>
      <trkpt lat="49.85279" lon="2.08634">
        <ele>124.6</ele>
        <time>2023-01-11T13:21:39Z</time>
      </trkpt>
      <trkpt lat="49.85277" lon="2.08631">
        <ele>124.6</ele>
        <time>2023-01-11T13:21:41Z</time>
      </trkpt>
      <trkpt lat="49.85276" lon="2.0863">
        <ele>124.6</ele>
        <time>2023-01-11T13:21:43Z</time>
      </trkpt>
      <trkpt lat="49.85275" lon="2.0863">
        <ele>124.5</ele>
        <time>2023-01-11T13:21:44Z</time>
      </trkpt>
      <trkpt lat="49.85273" lon="2.0863">
        <ele>124.5</ele>
        <time>2023-01-11T13:21:45Z</time>
      </trkpt>
      <trkpt lat="49.85272" lon="2.0863">
        <ele>124.5</ele>
        <time>2023-01-11T13:21:46Z</time>
      </trkpt>
      <trkpt lat="49.85271" lon="2.08629">
        <ele>124.5</ele>
        <time>2023-01-11T13:21:47Z</time>
      </trkpt>
      <trkpt lat="49.8527" lon="2.08627">
        <ele>124.5</ele>
        <time>2023-01-11T13:21:48Z</time>
      </trkpt>
      <trkpt lat="49.85269" lon="2.08626">
        <ele>124.5</ele>
        <time>2023-01-11T13:21:49Z</time>
      </trkpt>
      <trkpt lat="49.85269" lon="2.08625">
        <ele>124.5</ele>
        <time>2023-01-11T13:21:51Z</time>
      </trkpt>
      <trkpt lat="49.85268" lon="2.08624">
        <ele>124.5</ele>
        <time>2023-01-11T13:21:52Z</time>
      </trkpt>
      <trkpt lat="49.85268" lon="2.08622">
        <ele>124.5</ele>
        <time>2023-01-11T13:21:53Z</time>
      </trkpt>
      <trkpt lat="49.85267" lon="2.08621">
        <ele>124.5</ele>
        <time>2023-01-11T13:21:54Z</time>
      </trkpt>
      <trkpt lat="49.85267" lon="2.0862">
        <ele>124.5</ele>
        <time>2023-01-11T13:21:55Z</time>
      </trkpt>
      <trkpt lat="49.85267" lon="2.08619">
        <ele>124.5</ele>
        <time>2023-01-11T13:21:56Z</time>
      </trkpt>
      <trkpt lat="49.85267" lon="2.08617">
        <ele>124.5</ele>
        <time>2023-01-11T13:21:58Z</time>
      </trkpt>
      <trkpt lat="49.85267" lon="2.08616">
        <ele>124.5</ele>
        <time>2023-01-11T13:21:59Z</time>
      </trkpt>
      <trkpt lat="49.85267" lon="2.08615">
        <ele>124.5</ele>
        <time>2023-01-11T13:22:00Z</time>
      </trkpt>
      <trkpt lat="49.85266" lon="2.08612">
        <ele>124.5</ele>
        <time>2023-01-11T13:22:01Z</time>
      </trkpt>
      <trkpt lat="49.85266" lon="2.08611">
        <ele>124.4</ele>
        <time>2023-01-11T13:22:02Z</time>
      </trkpt>
      <trkpt lat="49.85266" lon="2.0861">
        <ele>124.4</ele>
        <time>2023-01-11T13:22:03Z</time>
      </trkpt>
      <trkpt lat="49.85265" lon="2.08608">
        <ele>124.4</ele>
        <time>2023-01-11T13:22:04Z</time>
      </trkpt>
      <trkpt lat="49.85264" lon="2.08606">
        <ele>124.4</ele>
        <time>2023-01-11T13:22:06Z</time>
      </trkpt>
      <trkpt lat="49.85264" lon="2.08605">
        <ele>124.4</ele>
        <time>2023-01-11T13:22:07Z</time>
      </trkpt>
      <trkpt lat="49.85265" lon="2.08604">
        <ele>124.4</ele>
        <time>2023-01-11T13:22:08Z</time>
      </trkpt>
      <trkpt lat="49.85265" lon="2.08603">
        <ele>124.4</ele>
        <time>2023-01-11T13:22:09Z</time>
      </trkpt>
      <trkpt lat="49.85264" lon="2.08602">
        <ele>124.4</ele>
        <time>2023-01-11T13:22:10Z</time>
      </trkpt>
      <trkpt lat="49.85264" lon="2.08601">
        <ele>124.4</ele>
        <time>2023-01-11T13:22:11Z</time>
      </trkpt>
      <trkpt lat="49.85263" lon="2.08599">
        <ele>124.4</ele>
        <time>2023-01-11T13:22:13Z</time>
      </trkpt>
      <trkpt lat="49.85263" lon="2.08598">
        <ele>124.4</ele>
        <time>2023-01-11T13:22:14Z</time>
      </trkpt>
      <trkpt lat="49.85262" lon="2.08596">
        <ele>124.4</ele>
        <time>2023-01-11T13:22:15Z</time>
      </trkpt>
      <trkpt lat="49.85261" lon="2.08595">
        <ele>124.4</ele>
        <time>2023-01-11T13:22:16Z</time>
      </trkpt>
      <trkpt lat="49.8526" lon="2.08594">
        <ele>124.4</ele>
        <time>2023-01-11T13:22:17Z</time>
      </trkpt>
      <trkpt lat="49.85259" lon="2.08591">
        <ele>124.4</ele>
        <time>2023-01-11T13:22:18Z</time>
      </trkpt>
      <trkpt lat="49.85259" lon="2.0859">
        <ele>124.3</ele>
        <time>2023-01-11T13:22:19Z</time>
      </trkpt>
      <trkpt lat="49.85258" lon="2.08589">
        <ele>124.3</ele>
        <time>2023-01-11T13:22:20Z</time>
      </trkpt>
      <trkpt lat="49.85257" lon="2.08587">
        <ele>124.3</ele>
        <time>2023-01-11T13:22:21Z</time>
      </trkpt>
      <trkpt lat="49.85256" lon="2.08586">
        <ele>124.3</ele>
        <time>2023-01-11T13:22:22Z</time>
      </trkpt>
      <trkpt lat="49.85255" lon="2.08585">
        <ele>124.3</ele>
        <time>2023-01-11T13:22:24Z</time>
      </trkpt>
      <trkpt lat="49.85254" lon="2.08584">
        <ele>124.3</ele>
        <time>2023-01-11T13:22:25Z</time>
      </trkpt>
      <trkpt lat="49.85253" lon="2.08583">
        <ele>124.3</ele>
        <time>2023-01-11T13:22:26Z</time>
      </trkpt>
      <trkpt lat="49.85252" lon="2.08582">
        <ele>124.3</ele>
        <time>2023-01-11T13:22:27Z</time>
      </trkpt>
      <trkpt lat="49.85251" lon="2.08579">
        <ele>124.3</ele>
        <time>2023-01-11T13:22:28Z</time>
      </trkpt>
      <trkpt lat="49.8525" lon="2.08578">
        <ele>124.3</ele>
        <time>2023-01-11T13:22:30Z</time>
      </trkpt>
      <trkpt lat="49.85249" lon="2.08577">
        <ele>124.2</ele>
        <time>2023-01-11T13:22:31Z</time>
      </trkpt>
      <trkpt lat="49.85248" lon="2.08575">
        <ele>124.2</ele>
        <time>2023-01-11T13:22:32Z</time>
      </trkpt>
      <trkpt lat="49.85247" lon="2.08574">
        <ele>124.2</ele>
        <time>2023-01-11T13:22:33Z</time>
      </trkpt>
      <trkpt lat="49.85246" lon="2.08573">
        <ele>124.2</ele>
        <time>2023-01-11T13:22:34Z</time>
      </trkpt>
      <trkpt lat="49.85245" lon="2.08571">
        <ele>124.2</ele>
        <time>2023-01-11T13:22:35Z</time>
      </trkpt>
      <trkpt lat="49.85244" lon="2.0857">
        <ele>124.2</ele>
        <time>2023-01-11T13:22:37Z</time>
      </trkpt>
      <trkpt lat="49.85244" lon="2.08569">
        <ele>124.2</ele>
        <time>2023-01-11T13:22:38Z</time>
      </trkpt>
      <trkpt lat="49.85243" lon="2.08567">
        <ele>124.2</ele>
        <time>2023-01-11T13:22:39Z</time>
      </trkpt>
      <trkpt lat="49.85242" lon="2.08566">
        <ele>124.2</ele>
        <time>2023-01-11T13:22:40Z</time>
      </trkpt>
      <trkpt lat="49.85241" lon="2.08564">
        <ele>124.2</ele>
        <time>2023-01-11T13:22:41Z</time>
      </trkpt>
      <trkpt lat="49.8524" lon="2.08563">
        <ele>124.2</ele>
        <time>2023-01-11T13:22:42Z</time>
      </trkpt>
      <trkpt lat="49.85239" lon="2.08561">
        <ele>124.2</ele>
        <time>2023-01-11T13:22:43Z</time>
      </trkpt>
      <trkpt lat="49.85238" lon="2.08559">
        <ele>124.1</ele>
        <time>2023-01-11T13:22:45Z</time>
      </trkpt>
      <trkpt lat="49.85237" lon="2.08557">
        <ele>124.1</ele>
        <time>2023-01-11T13:22:46Z</time>
      </trkpt>
      <trkpt lat="49.85237" lon="2.08555">
        <ele>124.1</ele>
        <time>2023-01-11T13:22:47Z</time>
      </trkpt>
      <trkpt lat="49.85236" lon="2.08553">
        <ele>124.1</ele>
        <time>2023-01-11T13:22:48Z</time>
      </trkpt>
      <trkpt lat="49.85235" lon="2.08552">
        <ele>124.1</ele>
        <time>2023-01-11T13:22:49Z</time>
      </trkpt>
      <trkpt lat="49.85234" lon="2.08549">
        <ele>124.1</ele>
        <time>2023-01-11T13:22:50Z</time>
      </trkpt>
      <trkpt lat="49.85233" lon="2.08548">
        <ele>124.1</ele>
        <time>2023-01-11T13:22:52Z</time>
      </trkpt>
      <trkpt lat="49.85233" lon="2.08546">
        <ele>124.1</ele>
        <time>2023-01-11T13:22:53Z</time>
      </trkpt>
      <trkpt lat="49.85232" lon="2.08544">
        <ele>124.1</ele>
        <time>2023-01-11T13:22:54Z</time>
      </trkpt>
      <trkpt lat="49.85231" lon="2.08543">
        <ele>124.1</ele>
        <time>2023-01-11T13:22:55Z</time>
      </trkpt>
      <trkpt lat="49.8523" lon="2.08541">
        <ele>124.1</ele>
        <time>2023-01-11T13:22:56Z</time>
      </trkpt>
      <trkpt lat="49.85228" lon="2.08539">
        <ele>124</ele>
        <time>2023-01-11T13:22:57Z</time>
      </trkpt>
      <trkpt lat="49.85228" lon="2.08538">
        <ele>124</ele>
        <time>2023-01-11T13:22:58Z</time>
      </trkpt>
      <trkpt lat="49.85227" lon="2.08537">
        <ele>124</ele>
        <time>2023-01-11T13:22:59Z</time>
      </trkpt>
      <trkpt lat="49.85226" lon="2.08534">
        <ele>124</ele>
        <time>2023-01-11T13:23:00Z</time>
      </trkpt>
      <trkpt lat="49.85226" lon="2.08533">
        <ele>124</ele>
        <time>2023-01-11T13:23:01Z</time>
      </trkpt>
      <trkpt lat="49.85224" lon="2.0853">
        <ele>124</ele>
        <time>2023-01-11T13:23:03Z</time>
      </trkpt>
      <trkpt lat="49.85224" lon="2.08529">
        <ele>124</ele>
        <time>2023-01-11T13:23:04Z</time>
      </trkpt>
      <trkpt lat="49.85223" lon="2.08528">
        <ele>124</ele>
        <time>2023-01-11T13:23:05Z</time>
      </trkpt>
      <trkpt lat="49.85223" lon="2.08527">
        <ele>124</ele>
        <time>2023-01-11T13:23:06Z</time>
      </trkpt>
      <trkpt lat="49.85222" lon="2.08525">
        <ele>124</ele>
        <time>2023-01-11T13:23:07Z</time>
      </trkpt>
      <trkpt lat="49.85222" lon="2.08524">
        <ele>124</ele>
        <time>2023-01-11T13:23:08Z</time>
      </trkpt>
      <trkpt lat="49.85221" lon="2.08523">
        <ele>124</ele>
        <time>2023-01-11T13:23:09Z</time>
      </trkpt>
      <trkpt lat="49.8522" lon="2.0852">
        <ele>124</ele>
        <time>2023-01-11T13:23:10Z</time>
      </trkpt>
      <trkpt lat="49.85219" lon="2.08519">
        <ele>124</ele>
        <time>2023-01-11T13:23:12Z</time>
      </trkpt>
      <trkpt lat="49.85218" lon="2.08518">
        <ele>124</ele>
        <time>2023-01-11T13:23:13Z</time>
      </trkpt>
      <trkpt lat="49.85218" lon="2.08517">
        <ele>124</ele>
        <time>2023-01-11T13:23:14Z</time>
      </trkpt>
      <trkpt lat="49.85217" lon="2.08514">
        <ele>124</ele>
        <time>2023-01-11T13:23:15Z</time>
      </trkpt>
      <trkpt lat="49.85217" lon="2.08513">
        <ele>124</ele>
        <time>2023-01-11T13:23:16Z</time>
      </trkpt>
      <trkpt lat="49.85216" lon="2.08512">
        <ele>124</ele>
        <time>2023-01-11T13:23:17Z</time>
      </trkpt>
      <trkpt lat="49.85215" lon="2.08509">
        <ele>124</ele>
        <time>2023-01-11T13:23:18Z</time>
      </trkpt>
      <trkpt lat="49.85214" lon="2.08508">
        <ele>124</ele>
        <time>2023-01-11T13:23:20Z</time>
      </trkpt>
      <trkpt lat="49.85214" lon="2.08507">
        <ele>124</ele>
        <time>2023-01-11T13:23:21Z</time>
      </trkpt>
      <trkpt lat="49.85213" lon="2.08506">
        <ele>124</ele>
        <time>2023-01-11T13:23:22Z</time>
      </trkpt>
      <trkpt lat="49.85213" lon="2.08505">
        <ele>124</ele>
        <time>2023-01-11T13:23:23Z</time>
      </trkpt>
      <trkpt lat="49.85212" lon="2.08504">
        <ele>124</ele>
        <time>2023-01-11T13:23:24Z</time>
      </trkpt>
      <trkpt lat="49.85211" lon="2.08503">
        <ele>124</ele>
        <time>2023-01-11T13:23:25Z</time>
      </trkpt>
      <trkpt lat="49.8521" lon="2.08501">
        <ele>124</ele>
        <time>2023-01-11T13:23:26Z</time>
      </trkpt>
      <trkpt lat="49.85209" lon="2.085">
        <ele>124</ele>
        <time>2023-01-11T13:23:27Z</time>
      </trkpt>
      <trkpt lat="49.85208" lon="2.08499">
        <ele>124</ele>
        <time>2023-01-11T13:23:29Z</time>
      </trkpt>
      <trkpt lat="49.85207" lon="2.08498">
        <ele>124</ele>
        <time>2023-01-11T13:23:30Z</time>
      </trkpt>
      <trkpt lat="49.85206" lon="2.08496">
        <ele>124</ele>
        <time>2023-01-11T13:23:31Z</time>
      </trkpt>
      <trkpt lat="49.85206" lon="2.08495">
        <ele>124</ele>
        <time>2023-01-11T13:23:32Z</time>
      </trkpt>
      <trkpt lat="49.85205" lon="2.08494">
        <ele>124</ele>
        <time>2023-01-11T13:23:33Z</time>
      </trkpt>
      <trkpt lat="49.85204" lon="2.08493">
        <ele>124</ele>
        <time>2023-01-11T13:23:34Z</time>
      </trkpt>
      <trkpt lat="49.85203" lon="2.0849">
        <ele>124</ele>
        <time>2023-01-11T13:23:35Z</time>
      </trkpt>
      <trkpt lat="49.85202" lon="2.08489">
        <ele>124</ele>
        <time>2023-01-11T13:23:37Z</time>
      </trkpt>
      <trkpt lat="49.85201" lon="2.08488">
        <ele>124</ele>
        <time>2023-01-11T13:23:38Z</time>
      </trkpt>
      <trkpt lat="49.852" lon="2.08487">
        <ele>124</ele>
        <time>2023-01-11T13:23:39Z</time>
      </trkpt>
      <trkpt lat="49.85199" lon="2.08485">
        <ele>124</ele>
        <time>2023-01-11T13:23:40Z</time>
      </trkpt>
      <trkpt lat="49.85198" lon="2.08483">
        <ele>124</ele>
        <time>2023-01-11T13:23:41Z</time>
      </trkpt>
      <trkpt lat="49.85197" lon="2.08481">
        <ele>124</ele>
        <time>2023-01-11T13:23:42Z</time>
      </trkpt>
      <trkpt lat="49.85197" lon="2.0848">
        <ele>123.9</ele>
        <time>2023-01-11T13:23:43Z</time>
      </trkpt>
      <trkpt lat="49.85196" lon="2.08479">
        <ele>123.9</ele>
        <time>2023-01-11T13:23:44Z</time>
      </trkpt>
      <trkpt lat="49.85195" lon="2.08477">
        <ele>123.9</ele>
        <time>2023-01-11T13:23:45Z</time>
      </trkpt>
      <trkpt lat="49.85194" lon="2.08475">
        <ele>123.9</ele>
        <time>2023-01-11T13:23:46Z</time>
      </trkpt>
      <trkpt lat="49.85193" lon="2.08474">
        <ele>123.9</ele>
        <time>2023-01-11T13:23:47Z</time>
      </trkpt>
      <trkpt lat="49.85193" lon="2.08472">
        <ele>123.9</ele>
        <time>2023-01-11T13:23:48Z</time>
      </trkpt>
      <trkpt lat="49.85192" lon="2.08471">
        <ele>123.9</ele>
        <time>2023-01-11T13:23:49Z</time>
      </trkpt>
      <trkpt lat="49.85191" lon="2.08468">
        <ele>123.9</ele>
        <time>2023-01-11T13:23:51Z</time>
      </trkpt>
      <trkpt lat="49.8519" lon="2.08467">
        <ele>123.9</ele>
        <time>2023-01-11T13:23:52Z</time>
      </trkpt>
      <trkpt lat="49.8519" lon="2.08466">
        <ele>123.9</ele>
        <time>2023-01-11T13:23:53Z</time>
      </trkpt>
      <trkpt lat="49.85189" lon="2.08464">
        <ele>123.9</ele>
        <time>2023-01-11T13:23:54Z</time>
      </trkpt>
      <trkpt lat="49.85187" lon="2.08461">
        <ele>123.9</ele>
        <time>2023-01-11T13:23:56Z</time>
      </trkpt>
      <trkpt lat="49.85187" lon="2.0846">
        <ele>123.9</ele>
        <time>2023-01-11T13:23:57Z</time>
      </trkpt>
      <trkpt lat="49.85187" lon="2.08459">
        <ele>123.9</ele>
        <time>2023-01-11T13:23:58Z</time>
      </trkpt>
      <trkpt lat="49.85186" lon="2.08458">
        <ele>123.9</ele>
        <time>2023-01-11T13:23:59Z</time>
      </trkpt>
      <trkpt lat="49.85185" lon="2.08456">
        <ele>123.9</ele>
        <time>2023-01-11T13:24:00Z</time>
      </trkpt>
      <trkpt lat="49.85184" lon="2.08454">
        <ele>123.9</ele>
        <time>2023-01-11T13:24:01Z</time>
      </trkpt>
      <trkpt lat="49.85184" lon="2.08453">
        <ele>123.9</ele>
        <time>2023-01-11T13:24:02Z</time>
      </trkpt>
      <trkpt lat="49.85183" lon="2.08452">
        <ele>123.9</ele>
        <time>2023-01-11T13:24:03Z</time>
      </trkpt>
      <trkpt lat="49.85182" lon="2.0845">
        <ele>123.9</ele>
        <time>2023-01-11T13:24:04Z</time>
      </trkpt>
      <trkpt lat="49.85181" lon="2.08448">
        <ele>123.9</ele>
        <time>2023-01-11T13:24:05Z</time>
      </trkpt>
      <trkpt lat="49.8518" lon="2.08447">
        <ele>123.9</ele>
        <time>2023-01-11T13:24:07Z</time>
      </trkpt>
      <trkpt lat="49.8518" lon="2.08446">
        <ele>123.9</ele>
        <time>2023-01-11T13:24:08Z</time>
      </trkpt>
      <trkpt lat="49.85179" lon="2.08445">
        <ele>123.9</ele>
        <time>2023-01-11T13:24:09Z</time>
      </trkpt>
      <trkpt lat="49.85178" lon="2.08443">
        <ele>123.8</ele>
        <time>2023-01-11T13:24:10Z</time>
      </trkpt>
      <trkpt lat="49.85177" lon="2.08442">
        <ele>123.8</ele>
        <time>2023-01-11T13:24:11Z</time>
      </trkpt>
      <trkpt lat="49.85177" lon="2.0844">
        <ele>123.8</ele>
        <time>2023-01-11T13:24:12Z</time>
      </trkpt>
      <trkpt lat="49.85176" lon="2.08439">
        <ele>123.8</ele>
        <time>2023-01-11T13:24:14Z</time>
      </trkpt>
      <trkpt lat="49.85175" lon="2.08437">
        <ele>123.8</ele>
        <time>2023-01-11T13:24:15Z</time>
      </trkpt>
      <trkpt lat="49.85174" lon="2.08435">
        <ele>123.8</ele>
        <time>2023-01-11T13:24:16Z</time>
      </trkpt>
      <trkpt lat="49.85173" lon="2.08434">
        <ele>123.8</ele>
        <time>2023-01-11T13:24:17Z</time>
      </trkpt>
      <trkpt lat="49.85173" lon="2.08432">
        <ele>123.8</ele>
        <time>2023-01-11T13:24:18Z</time>
      </trkpt>
      <trkpt lat="49.85172" lon="2.08431">
        <ele>123.8</ele>
        <time>2023-01-11T13:24:19Z</time>
      </trkpt>
      <trkpt lat="49.85171" lon="2.08429">
        <ele>123.8</ele>
        <time>2023-01-11T13:24:20Z</time>
      </trkpt>
      <trkpt lat="49.8517" lon="2.08428">
        <ele>123.8</ele>
        <time>2023-01-11T13:24:21Z</time>
      </trkpt>
      <trkpt lat="49.8517" lon="2.08427">
        <ele>123.8</ele>
        <time>2023-01-11T13:24:22Z</time>
      </trkpt>
      <trkpt lat="49.85169" lon="2.08425">
        <ele>123.8</ele>
        <time>2023-01-11T13:24:23Z</time>
      </trkpt>
      <trkpt lat="49.85168" lon="2.08424">
        <ele>123.8</ele>
        <time>2023-01-11T13:24:24Z</time>
      </trkpt>
      <trkpt lat="49.85167" lon="2.08421">
        <ele>123.8</ele>
        <time>2023-01-11T13:24:26Z</time>
      </trkpt>
      <trkpt lat="49.85167" lon="2.0842">
        <ele>123.8</ele>
        <time>2023-01-11T13:24:27Z</time>
      </trkpt>
      <trkpt lat="49.85166" lon="2.08419">
        <ele>123.8</ele>
        <time>2023-01-11T13:24:28Z</time>
      </trkpt>
      <trkpt lat="49.85165" lon="2.08418">
        <ele>123.7</ele>
        <time>2023-01-11T13:24:29Z</time>
      </trkpt>
      <trkpt lat="49.85164" lon="2.08416">
        <ele>123.7</ele>
        <time>2023-01-11T13:24:30Z</time>
      </trkpt>
      <trkpt lat="49.85163" lon="2.08414">
        <ele>123.7</ele>
        <time>2023-01-11T13:24:31Z</time>
      </trkpt>
      <trkpt lat="49.85163" lon="2.08413">
        <ele>123.7</ele>
        <time>2023-01-11T13:24:32Z</time>
      </trkpt>
      <trkpt lat="49.85162" lon="2.08411">
        <ele>123.7</ele>
        <time>2023-01-11T13:24:33Z</time>
      </trkpt>
      <trkpt lat="49.85161" lon="2.0841">
        <ele>123.7</ele>
        <time>2023-01-11T13:24:34Z</time>
      </trkpt>
      <trkpt lat="49.8516" lon="2.08409">
        <ele>123.7</ele>
        <time>2023-01-11T13:24:35Z</time>
      </trkpt>
      <trkpt lat="49.85159" lon="2.08407">
        <ele>123.7</ele>
        <time>2023-01-11T13:24:36Z</time>
      </trkpt>
      <trkpt lat="49.85158" lon="2.08406">
        <ele>123.7</ele>
        <time>2023-01-11T13:24:38Z</time>
      </trkpt>
      <trkpt lat="49.85157" lon="2.08405">
        <ele>123.7</ele>
        <time>2023-01-11T13:24:39Z</time>
      </trkpt>
      <trkpt lat="49.85157" lon="2.08404">
        <ele>123.7</ele>
        <time>2023-01-11T13:24:40Z</time>
      </trkpt>
      <trkpt lat="49.85156" lon="2.08402">
        <ele>123.7</ele>
        <time>2023-01-11T13:24:41Z</time>
      </trkpt>
      <trkpt lat="49.85155" lon="2.084">
        <ele>123.7</ele>
        <time>2023-01-11T13:24:42Z</time>
      </trkpt>
      <trkpt lat="49.85154" lon="2.08399">
        <ele>123.8</ele>
        <time>2023-01-11T13:24:43Z</time>
      </trkpt>
      <trkpt lat="49.85154" lon="2.08398">
        <ele>123.8</ele>
        <time>2023-01-11T13:24:44Z</time>
      </trkpt>
      <trkpt lat="49.85153" lon="2.08397">
        <ele>123.8</ele>
        <time>2023-01-11T13:24:46Z</time>
      </trkpt>
      <trkpt lat="49.85152" lon="2.08394">
        <ele>123.8</ele>
        <time>2023-01-11T13:24:47Z</time>
      </trkpt>
      <trkpt lat="49.85151" lon="2.08393">
        <ele>123.8</ele>
        <time>2023-01-11T13:24:48Z</time>
      </trkpt>
      <trkpt lat="49.8515" lon="2.0839">
        <ele>123.8</ele>
        <time>2023-01-11T13:24:49Z</time>
      </trkpt>
      <trkpt lat="49.8515" lon="2.08389">
        <ele>123.8</ele>
        <time>2023-01-11T13:24:50Z</time>
      </trkpt>
      <trkpt lat="49.85149" lon="2.08388">
        <ele>123.8</ele>
        <time>2023-01-11T13:24:51Z</time>
      </trkpt>
      <trkpt lat="49.85149" lon="2.08387">
        <ele>123.8</ele>
        <time>2023-01-11T13:24:52Z</time>
      </trkpt>
      <trkpt lat="49.85148" lon="2.08385">
        <ele>123.8</ele>
        <time>2023-01-11T13:24:53Z</time>
      </trkpt>
      <trkpt lat="49.85147" lon="2.08383">
        <ele>123.8</ele>
        <time>2023-01-11T13:24:54Z</time>
      </trkpt>
      <trkpt lat="49.85147" lon="2.08381">
        <ele>123.8</ele>
        <time>2023-01-11T13:24:56Z</time>
      </trkpt>
      <trkpt lat="49.85146" lon="2.08379">
        <ele>123.8</ele>
        <time>2023-01-11T13:24:57Z</time>
      </trkpt>
      <trkpt lat="49.85145" lon="2.08376">
        <ele>123.8</ele>
        <time>2023-01-11T13:24:58Z</time>
      </trkpt>
      <trkpt lat="49.85144" lon="2.08375">
        <ele>123.8</ele>
        <time>2023-01-11T13:24:59Z</time>
      </trkpt>
      <trkpt lat="49.85143" lon="2.08374">
        <ele>123.8</ele>
        <time>2023-01-11T13:25:00Z</time>
      </trkpt>
      <trkpt lat="49.85141" lon="2.08371">
        <ele>123.8</ele>
        <time>2023-01-11T13:25:01Z</time>
      </trkpt>
      <trkpt lat="49.85141" lon="2.0837">
        <ele>123.8</ele>
        <time>2023-01-11T13:25:03Z</time>
      </trkpt>
      <trkpt lat="49.8514" lon="2.08368">
        <ele>123.8</ele>
        <time>2023-01-11T13:25:04Z</time>
      </trkpt>
      <trkpt lat="49.85139" lon="2.08367">
        <ele>123.8</ele>
        <time>2023-01-11T13:25:05Z</time>
      </trkpt>
      <trkpt lat="49.85138" lon="2.08366">
        <ele>123.8</ele>
        <time>2023-01-11T13:25:06Z</time>
      </trkpt>
      <trkpt lat="49.85138" lon="2.08365">
        <ele>123.8</ele>
        <time>2023-01-11T13:25:07Z</time>
      </trkpt>
      <trkpt lat="49.85137" lon="2.08363">
        <ele>123.8</ele>
        <time>2023-01-11T13:25:08Z</time>
      </trkpt>
      <trkpt lat="49.85136" lon="2.08362">
        <ele>123.8</ele>
        <time>2023-01-11T13:25:09Z</time>
      </trkpt>
      <trkpt lat="49.85135" lon="2.08361">
        <ele>123.8</ele>
        <time>2023-01-11T13:25:10Z</time>
      </trkpt>
      <trkpt lat="49.85134" lon="2.0836">
        <ele>123.7</ele>
        <time>2023-01-11T13:25:11Z</time>
      </trkpt>
      <trkpt lat="49.85134" lon="2.08359">
        <ele>123.7</ele>
        <time>2023-01-11T13:25:12Z</time>
      </trkpt>
      <trkpt lat="49.85133" lon="2.08357">
        <ele>123.7</ele>
        <time>2023-01-11T13:25:13Z</time>
      </trkpt>
      <trkpt lat="49.85132" lon="2.08355">
        <ele>123.7</ele>
        <time>2023-01-11T13:25:14Z</time>
      </trkpt>
      <trkpt lat="49.85131" lon="2.08354">
        <ele>123.7</ele>
        <time>2023-01-11T13:25:16Z</time>
      </trkpt>
      <trkpt lat="49.8513" lon="2.08351">
        <ele>123.7</ele>
        <time>2023-01-11T13:25:17Z</time>
      </trkpt>
      <trkpt lat="49.85129" lon="2.0835">
        <ele>123.7</ele>
        <time>2023-01-11T13:25:18Z</time>
      </trkpt>
      <trkpt lat="49.85129" lon="2.08349">
        <ele>123.7</ele>
        <time>2023-01-11T13:25:19Z</time>
      </trkpt>
      <trkpt lat="49.85128" lon="2.08348">
        <ele>123.7</ele>
        <time>2023-01-11T13:25:20Z</time>
      </trkpt>
      <trkpt lat="49.85127" lon="2.08346">
        <ele>123.7</ele>
        <time>2023-01-11T13:25:21Z</time>
      </trkpt>
      <trkpt lat="49.85126" lon="2.08345">
        <ele>123.7</ele>
        <time>2023-01-11T13:25:22Z</time>
      </trkpt>
      <trkpt lat="49.85125" lon="2.08343">
        <ele>123.7</ele>
        <time>2023-01-11T13:25:24Z</time>
      </trkpt>
      <trkpt lat="49.85124" lon="2.08342">
        <ele>123.7</ele>
        <time>2023-01-11T13:25:25Z</time>
      </trkpt>
      <trkpt lat="49.85123" lon="2.0834">
        <ele>123.7</ele>
        <time>2023-01-11T13:25:26Z</time>
      </trkpt>
      <trkpt lat="49.85122" lon="2.08339">
        <ele>123.7</ele>
        <time>2023-01-11T13:25:27Z</time>
      </trkpt>
      <trkpt lat="49.85121" lon="2.08337">
        <ele>123.7</ele>
        <time>2023-01-11T13:25:28Z</time>
      </trkpt>
      <trkpt lat="49.85121" lon="2.08336">
        <ele>123.7</ele>
        <time>2023-01-11T13:25:29Z</time>
      </trkpt>
      <trkpt lat="49.8512" lon="2.08334">
        <ele>123.7</ele>
        <time>2023-01-11T13:25:31Z</time>
      </trkpt>
      <trkpt lat="49.85119" lon="2.08332">
        <ele>123.7</ele>
        <time>2023-01-11T13:25:32Z</time>
      </trkpt>
      <trkpt lat="49.85118" lon="2.0833">
        <ele>123.7</ele>
        <time>2023-01-11T13:25:33Z</time>
      </trkpt>
      <trkpt lat="49.85117" lon="2.08329">
        <ele>123.7</ele>
        <time>2023-01-11T13:25:34Z</time>
      </trkpt>
      <trkpt lat="49.85117" lon="2.08327">
        <ele>123.7</ele>
        <time>2023-01-11T13:25:35Z</time>
      </trkpt>
      <trkpt lat="49.85116" lon="2.08325">
        <ele>123.7</ele>
        <time>2023-01-11T13:25:37Z</time>
      </trkpt>
      <trkpt lat="49.85115" lon="2.08324">
        <ele>123.7</ele>
        <time>2023-01-11T13:25:38Z</time>
      </trkpt>
      <trkpt lat="49.85115" lon="2.08323">
        <ele>123.7</ele>
        <time>2023-01-11T13:25:39Z</time>
      </trkpt>
      <trkpt lat="49.85114" lon="2.08321">
        <ele>123.7</ele>
        <time>2023-01-11T13:25:40Z</time>
      </trkpt>
      <trkpt lat="49.85113" lon="2.08319">
        <ele>123.7</ele>
        <time>2023-01-11T13:25:41Z</time>
      </trkpt>
      <trkpt lat="49.85112" lon="2.08317">
        <ele>123.7</ele>
        <time>2023-01-11T13:25:42Z</time>
      </trkpt>
      <trkpt lat="49.85112" lon="2.08316">
        <ele>123.7</ele>
        <time>2023-01-11T13:25:43Z</time>
      </trkpt>
      <trkpt lat="49.85111" lon="2.08315">
        <ele>123.7</ele>
        <time>2023-01-11T13:25:44Z</time>
      </trkpt>
      <trkpt lat="49.8511" lon="2.08313">
        <ele>123.7</ele>
        <time>2023-01-11T13:25:45Z</time>
      </trkpt>
      <trkpt lat="49.85109" lon="2.08311">
        <ele>123.7</ele>
        <time>2023-01-11T13:25:47Z</time>
      </trkpt>
      <trkpt lat="49.85108" lon="2.0831">
        <ele>123.7</ele>
        <time>2023-01-11T13:25:48Z</time>
      </trkpt>
      <trkpt lat="49.85106" lon="2.08307">
        <ele>123.7</ele>
        <time>2023-01-11T13:25:49Z</time>
      </trkpt>
      <trkpt lat="49.85106" lon="2.08306">
        <ele>123.7</ele>
        <time>2023-01-11T13:25:50Z</time>
      </trkpt>
      <trkpt lat="49.85105" lon="2.08305">
        <ele>123.7</ele>
        <time>2023-01-11T13:25:51Z</time>
      </trkpt>
      <trkpt lat="49.85104" lon="2.08304">
        <ele>123.7</ele>
        <time>2023-01-11T13:25:52Z</time>
      </trkpt>
      <trkpt lat="49.85104" lon="2.08302">
        <ele>123.7</ele>
        <time>2023-01-11T13:25:53Z</time>
      </trkpt>
      <trkpt lat="49.85103" lon="2.08301">
        <ele>123.7</ele>
        <time>2023-01-11T13:25:55Z</time>
      </trkpt>
      <trkpt lat="49.85102" lon="2.083">
        <ele>123.7</ele>
        <time>2023-01-11T13:25:56Z</time>
      </trkpt>
      <trkpt lat="49.85101" lon="2.08298">
        <ele>123.8</ele>
        <time>2023-01-11T13:25:57Z</time>
      </trkpt>
      <trkpt lat="49.851" lon="2.08297">
        <ele>123.8</ele>
        <time>2023-01-11T13:25:58Z</time>
      </trkpt>
      <trkpt lat="49.85099" lon="2.08296">
        <ele>123.8</ele>
        <time>2023-01-11T13:25:59Z</time>
      </trkpt>
      <trkpt lat="49.85098" lon="2.08294">
        <ele>123.8</ele>
        <time>2023-01-11T13:26:00Z</time>
      </trkpt>
      <trkpt lat="49.85096" lon="2.08292">
        <ele>123.8</ele>
        <time>2023-01-11T13:26:02Z</time>
      </trkpt>
      <trkpt lat="49.85096" lon="2.08292">
        <ele>123.8</ele>
        <time>2023-01-11T13:26:03Z</time>
      </trkpt>
      <trkpt lat="49.85095" lon="2.08291">
        <ele>123.8</ele>
        <time>2023-01-11T13:26:04Z</time>
      </trkpt>
      <trkpt lat="49.85093" lon="2.0829">
        <ele>123.8</ele>
        <time>2023-01-11T13:26:05Z</time>
      </trkpt>
      <trkpt lat="49.85092" lon="2.08289">
        <ele>123.8</ele>
        <time>2023-01-11T13:26:06Z</time>
      </trkpt>
      <trkpt lat="49.85092" lon="2.08288">
        <ele>123.8</ele>
        <time>2023-01-11T13:26:07Z</time>
      </trkpt>
      <trkpt lat="49.85091" lon="2.08287">
        <ele>123.8</ele>
        <time>2023-01-11T13:26:08Z</time>
      </trkpt>
      <trkpt lat="49.8509" lon="2.08286">
        <ele>123.8</ele>
        <time>2023-01-11T13:26:09Z</time>
      </trkpt>
      <trkpt lat="49.85089" lon="2.08285">
        <ele>123.8</ele>
        <time>2023-01-11T13:26:11Z</time>
      </trkpt>
      <trkpt lat="49.85087" lon="2.08283">
        <ele>123.8</ele>
        <time>2023-01-11T13:26:12Z</time>
      </trkpt>
      <trkpt lat="49.85086" lon="2.08283">
        <ele>123.8</ele>
        <time>2023-01-11T13:26:13Z</time>
      </trkpt>
      <trkpt lat="49.85085" lon="2.08282">
        <ele>123.9</ele>
        <time>2023-01-11T13:26:14Z</time>
      </trkpt>
      <trkpt lat="49.85084" lon="2.08281">
        <ele>123.9</ele>
        <time>2023-01-11T13:26:16Z</time>
      </trkpt>
      <trkpt lat="49.85082" lon="2.08279">
        <ele>123.9</ele>
        <time>2023-01-11T13:26:17Z</time>
      </trkpt>
      <trkpt lat="49.85081" lon="2.08279">
        <ele>123.9</ele>
        <time>2023-01-11T13:26:18Z</time>
      </trkpt>
      <trkpt lat="49.8508" lon="2.08278">
        <ele>123.9</ele>
        <time>2023-01-11T13:26:19Z</time>
      </trkpt>
      <trkpt lat="49.85079" lon="2.08277">
        <ele>123.9</ele>
        <time>2023-01-11T13:26:20Z</time>
      </trkpt>
      <trkpt lat="49.85079" lon="2.08275">
        <ele>123.9</ele>
        <time>2023-01-11T13:26:21Z</time>
      </trkpt>
      <trkpt lat="49.85078" lon="2.08274">
        <ele>123.9</ele>
        <time>2023-01-11T13:26:22Z</time>
      </trkpt>
      <trkpt lat="49.85077" lon="2.08272">
        <ele>123.9</ele>
        <time>2023-01-11T13:26:23Z</time>
      </trkpt>
      <trkpt lat="49.85076" lon="2.08271">
        <ele>123.9</ele>
        <time>2023-01-11T13:26:24Z</time>
      </trkpt>
      <trkpt lat="49.85075" lon="2.0827">
        <ele>123.9</ele>
        <time>2023-01-11T13:26:26Z</time>
      </trkpt>
      <trkpt lat="49.85074" lon="2.08269">
        <ele>123.9</ele>
        <time>2023-01-11T13:26:27Z</time>
      </trkpt>
      <trkpt lat="49.85073" lon="2.08268">
        <ele>123.8</ele>
        <time>2023-01-11T13:26:28Z</time>
      </trkpt>
      <trkpt lat="49.85073" lon="2.08268">
        <ele>123.8</ele>
        <time>2023-01-11T13:26:29Z</time>
      </trkpt>
      <trkpt lat="49.85072" lon="2.08267">
        <ele>123.8</ele>
        <time>2023-01-11T13:26:30Z</time>
      </trkpt>
      <trkpt lat="49.85071" lon="2.08267">
        <ele>123.8</ele>
        <time>2023-01-11T13:26:31Z</time>
      </trkpt>
      <trkpt lat="49.8507" lon="2.08267">
        <ele>123.8</ele>
        <time>2023-01-11T13:26:32Z</time>
      </trkpt>
      <trkpt lat="49.85069" lon="2.08266">
        <ele>123.8</ele>
        <time>2023-01-11T13:26:33Z</time>
      </trkpt>
      <trkpt lat="49.85068" lon="2.08265">
        <ele>123.8</ele>
        <time>2023-01-11T13:26:35Z</time>
      </trkpt>
      <trkpt lat="49.85067" lon="2.08265">
        <ele>123.8</ele>
        <time>2023-01-11T13:26:36Z</time>
      </trkpt>
      <trkpt lat="49.85066" lon="2.08264">
        <ele>123.8</ele>
        <time>2023-01-11T13:26:37Z</time>
      </trkpt>
      <trkpt lat="49.85065" lon="2.08263">
        <ele>123.8</ele>
        <time>2023-01-11T13:26:38Z</time>
      </trkpt>
      <trkpt lat="49.85065" lon="2.08263">
        <ele>123.8</ele>
        <time>2023-01-11T13:26:39Z</time>
      </trkpt>
      <trkpt lat="49.85064" lon="2.08262">
        <ele>123.8</ele>
        <time>2023-01-11T13:26:40Z</time>
      </trkpt>
      <trkpt lat="49.85062" lon="2.08261">
        <ele>123.8</ele>
        <time>2023-01-11T13:26:41Z</time>
      </trkpt>
      <trkpt lat="49.85062" lon="2.0826">
        <ele>123.8</ele>
        <time>2023-01-11T13:26:43Z</time>
      </trkpt>
      <trkpt lat="49.8506" lon="2.0826">
        <ele>123.8</ele>
        <time>2023-01-11T13:26:44Z</time>
      </trkpt>
      <trkpt lat="49.85059" lon="2.0826">
        <ele>123.8</ele>
        <time>2023-01-11T13:26:45Z</time>
      </trkpt>
      <trkpt lat="49.85058" lon="2.08259">
        <ele>123.7</ele>
        <time>2023-01-11T13:26:46Z</time>
      </trkpt>
      <trkpt lat="49.85057" lon="2.08259">
        <ele>123.7</ele>
        <time>2023-01-11T13:26:47Z</time>
      </trkpt>
      <trkpt lat="49.85055" lon="2.08258">
        <ele>123.7</ele>
        <time>2023-01-11T13:26:48Z</time>
      </trkpt>
      <trkpt lat="49.85054" lon="2.08258">
        <ele>123.7</ele>
        <time>2023-01-11T13:26:49Z</time>
      </trkpt>
      <trkpt lat="49.85053" lon="2.08257">
        <ele>123.7</ele>
        <time>2023-01-11T13:26:51Z</time>
      </trkpt>
      <trkpt lat="49.85051" lon="2.08255">
        <ele>123.7</ele>
        <time>2023-01-11T13:26:52Z</time>
      </trkpt>
      <trkpt lat="49.85051" lon="2.08254">
        <ele>123.7</ele>
        <time>2023-01-11T13:26:53Z</time>
      </trkpt>
      <trkpt lat="49.85049" lon="2.08252">
        <ele>123.7</ele>
        <time>2023-01-11T13:26:54Z</time>
      </trkpt>
      <trkpt lat="49.85048" lon="2.08252">
        <ele>123.7</ele>
        <time>2023-01-11T13:26:55Z</time>
      </trkpt>
      <trkpt lat="49.85047" lon="2.08251">
        <ele>123.7</ele>
        <time>2023-01-11T13:26:56Z</time>
      </trkpt>
      <trkpt lat="49.85046" lon="2.08249">
        <ele>123.7</ele>
        <time>2023-01-11T13:26:57Z</time>
      </trkpt>
      <trkpt lat="49.85045" lon="2.08248">
        <ele>123.7</ele>
        <time>2023-01-11T13:26:58Z</time>
      </trkpt>
      <trkpt lat="49.85043" lon="2.08246">
        <ele>123.7</ele>
        <time>2023-01-11T13:27:00Z</time>
      </trkpt>
      <trkpt lat="49.85043" lon="2.08245">
        <ele>123.7</ele>
        <time>2023-01-11T13:27:01Z</time>
      </trkpt>
      <trkpt lat="49.85042" lon="2.08244">
        <ele>123.7</ele>
        <time>2023-01-11T13:27:02Z</time>
      </trkpt>
      <trkpt lat="49.85041" lon="2.08243">
        <ele>123.7</ele>
        <time>2023-01-11T13:27:03Z</time>
      </trkpt>
      <trkpt lat="49.85041" lon="2.08242">
        <ele>123.7</ele>
        <time>2023-01-11T13:27:04Z</time>
      </trkpt>
      <trkpt lat="49.8504" lon="2.08241">
        <ele>123.7</ele>
        <time>2023-01-11T13:27:05Z</time>
      </trkpt>
      <trkpt lat="49.85039" lon="2.0824">
        <ele>123.7</ele>
        <time>2023-01-11T13:27:06Z</time>
      </trkpt>
      <trkpt lat="49.85037" lon="2.08238">
        <ele>123.7</ele>
        <time>2023-01-11T13:27:08Z</time>
      </trkpt>
      <trkpt lat="49.85037" lon="2.08237">
        <ele>123.7</ele>
        <time>2023-01-11T13:27:09Z</time>
      </trkpt>
      <trkpt lat="49.85036" lon="2.08236">
        <ele>123.7</ele>
        <time>2023-01-11T13:27:10Z</time>
      </trkpt>
      <trkpt lat="49.85035" lon="2.08234">
        <ele>123.7</ele>
        <time>2023-01-11T13:27:11Z</time>
      </trkpt>
      <trkpt lat="49.85033" lon="2.08232">
        <ele>123.6</ele>
        <time>2023-01-11T13:27:12Z</time>
      </trkpt>
      <trkpt lat="49.85033" lon="2.08232">
        <ele>123.6</ele>
        <time>2023-01-11T13:27:13Z</time>
      </trkpt>
      <trkpt lat="49.85032" lon="2.0823">
        <ele>123.6</ele>
        <time>2023-01-11T13:27:15Z</time>
      </trkpt>
      <trkpt lat="49.85032" lon="2.08229">
        <ele>123.6</ele>
        <time>2023-01-11T13:27:16Z</time>
      </trkpt>
      <trkpt lat="49.8503" lon="2.08227">
        <ele>123.6</ele>
        <time>2023-01-11T13:27:17Z</time>
      </trkpt>
      <trkpt lat="49.8503" lon="2.08226">
        <ele>123.6</ele>
        <time>2023-01-11T13:27:18Z</time>
      </trkpt>
      <trkpt lat="49.85029" lon="2.08225">
        <ele>123.6</ele>
        <time>2023-01-11T13:27:19Z</time>
      </trkpt>
      <trkpt lat="49.85028" lon="2.08224">
        <ele>123.6</ele>
        <time>2023-01-11T13:27:20Z</time>
      </trkpt>
      <trkpt lat="49.85027" lon="2.08222">
        <ele>123.6</ele>
        <time>2023-01-11T13:27:22Z</time>
      </trkpt>
      <trkpt lat="49.85026" lon="2.0822">
        <ele>123.6</ele>
        <time>2023-01-11T13:27:23Z</time>
      </trkpt>
      <trkpt lat="49.85025" lon="2.08219">
        <ele>123.6</ele>
        <time>2023-01-11T13:27:24Z</time>
      </trkpt>
      <trkpt lat="49.85024" lon="2.08218">
        <ele>123.6</ele>
        <time>2023-01-11T13:27:25Z</time>
      </trkpt>
      <trkpt lat="49.85024" lon="2.08217">
        <ele>123.6</ele>
        <time>2023-01-11T13:27:26Z</time>
      </trkpt>
      <trkpt lat="49.85023" lon="2.08215">
        <ele>123.6</ele>
        <time>2023-01-11T13:27:27Z</time>
      </trkpt>
      <trkpt lat="49.85022" lon="2.08214">
        <ele>123.6</ele>
        <time>2023-01-11T13:27:28Z</time>
      </trkpt>
      <trkpt lat="49.85021" lon="2.08213">
        <ele>123.6</ele>
        <time>2023-01-11T13:27:30Z</time>
      </trkpt>
      <trkpt lat="49.8502" lon="2.08212">
        <ele>123.6</ele>
        <time>2023-01-11T13:27:31Z</time>
      </trkpt>
      <trkpt lat="49.85019" lon="2.08211">
        <ele>123.6</ele>
        <time>2023-01-11T13:27:32Z</time>
      </trkpt>
      <trkpt lat="49.85018" lon="2.0821">
        <ele>123.6</ele>
        <time>2023-01-11T13:27:33Z</time>
      </trkpt>
      <trkpt lat="49.85017" lon="2.08209">
        <ele>123.5</ele>
        <time>2023-01-11T13:27:35Z</time>
      </trkpt>
      <trkpt lat="49.85016" lon="2.08208">
        <ele>123.5</ele>
        <time>2023-01-11T13:27:36Z</time>
      </trkpt>
      <trkpt lat="49.85015" lon="2.08207">
        <ele>123.5</ele>
        <time>2023-01-11T13:27:37Z</time>
      </trkpt>
      <trkpt lat="49.85014" lon="2.08206">
        <ele>123.5</ele>
        <time>2023-01-11T13:27:38Z</time>
      </trkpt>
      <trkpt lat="49.85013" lon="2.08205">
        <ele>123.5</ele>
        <time>2023-01-11T13:27:39Z</time>
      </trkpt>
      <trkpt lat="49.85012" lon="2.08203">
        <ele>123.5</ele>
        <time>2023-01-11T13:27:41Z</time>
      </trkpt>
      <trkpt lat="49.8501" lon="2.08202">
        <ele>123.5</ele>
        <time>2023-01-11T13:27:42Z</time>
      </trkpt>
      <trkpt lat="49.8501" lon="2.08201">
        <ele>123.5</ele>
        <time>2023-01-11T13:27:43Z</time>
      </trkpt>
      <trkpt lat="49.85009" lon="2.08201">
        <ele>123.5</ele>
        <time>2023-01-11T13:27:45Z</time>
      </trkpt>
      <trkpt lat="49.85008" lon="2.082">
        <ele>123.5</ele>
        <time>2023-01-11T13:27:46Z</time>
      </trkpt>
      <trkpt lat="49.85007" lon="2.08199">
        <ele>123.5</ele>
        <time>2023-01-11T13:27:47Z</time>
      </trkpt>
      <trkpt lat="49.85006" lon="2.08198">
        <ele>123.5</ele>
        <time>2023-01-11T13:27:49Z</time>
      </trkpt>
      <trkpt lat="49.85005" lon="2.08197">
        <ele>123.5</ele>
        <time>2023-01-11T13:27:50Z</time>
      </trkpt>
      <trkpt lat="49.85004" lon="2.08196">
        <ele>123.5</ele>
        <time>2023-01-11T13:27:51Z</time>
      </trkpt>
      <trkpt lat="49.85003" lon="2.08196">
        <ele>123.5</ele>
        <time>2023-01-11T13:27:53Z</time>
      </trkpt>
      <trkpt lat="49.85002" lon="2.08196">
        <ele>123.5</ele>
        <time>2023-01-11T13:27:54Z</time>
      </trkpt>
      <trkpt lat="49.85001" lon="2.08197">
        <ele>123.5</ele>
        <time>2023-01-11T13:27:56Z</time>
      </trkpt>
      <trkpt lat="49.85001" lon="2.08197">
        <ele>123.5</ele>
        <time>2023-01-11T13:27:57Z</time>
      </trkpt>
      <trkpt lat="49.85001" lon="2.08197">
        <ele>123.5</ele>
        <time>2023-01-11T13:27:59Z</time>
      </trkpt>
      <trkpt lat="49.85001" lon="2.08198">
        <ele>123.5</ele>
        <time>2023-01-11T13:28:00Z</time>
      </trkpt>
      <trkpt lat="49.85001" lon="2.08198">
        <ele>123.5</ele>
        <time>2023-01-11T13:28:01Z</time>
      </trkpt>
      <trkpt lat="49.85001" lon="2.08198">
        <ele>123.5</ele>
        <time>2023-01-11T13:28:03Z</time>
      </trkpt>
      <trkpt lat="49.85001" lon="2.08198">
        <ele>123.5</ele>
        <time>2023-01-11T13:28:04Z</time>
      </trkpt>
      <trkpt lat="49.85001" lon="2.08198">
        <ele>123.5</ele>
        <time>2023-01-11T13:28:06Z</time>
      </trkpt>
      <trkpt lat="49.85001" lon="2.08198">
        <ele>123.5</ele>
        <time>2023-01-11T13:28:07Z</time>
      </trkpt>
      <trkpt lat="49.85002" lon="2.08198">
        <ele>123.5</ele>
        <time>2023-01-11T13:28:09Z</time>
      </trkpt>
      <trkpt lat="49.85002" lon="2.08198">
        <ele>123.5</ele>
        <time>2023-01-11T13:28:10Z</time>
      </trkpt>
      <trkpt lat="49.85002" lon="2.08198">
        <ele>123.5</ele>
        <time>2023-01-11T13:28:11Z</time>
      </trkpt>
      <trkpt lat="49.85002" lon="2.08198">
        <ele>123.5</ele>
        <time>2023-01-11T13:28:12Z</time>
      </trkpt>
      <trkpt lat="49.85002" lon="2.08198">
        <ele>123.5</ele>
        <time>2023-01-11T13:28:13Z</time>
      </trkpt>
      <trkpt lat="49.85002" lon="2.08198">
        <ele>123.5</ele>
        <time>2023-01-11T13:28:14Z</time>
      </trkpt>
      <trkpt lat="49.85002" lon="2.08198">
        <ele>123.5</ele>
        <time>2023-01-11T13:28:15Z</time>
      </trkpt>
      <trkpt lat="49.85002" lon="2.08198">
        <ele>123.5</ele>
        <time>2023-01-11T13:28:16Z</time>
      </trkpt>
      <trkpt lat="49.85002" lon="2.08198">
        <ele>123.5</ele>
        <time>2023-01-11T13:28:17Z</time>
      </trkpt>
      <trkpt lat="49.85002" lon="2.08198">
        <ele>123.5</ele>
        <time>2023-01-11T13:28:18Z</time>
      </trkpt>
      <trkpt lat="49.85002" lon="2.08198">
        <ele>123.5</ele>
        <time>2023-01-11T13:28:19Z</time>
      </trkpt>
      <trkpt lat="49.85002" lon="2.08198">
        <ele>123.5</ele>
        <time>2023-01-11T13:28:20Z</time>
      </trkpt>
      <trkpt lat="49.85002" lon="2.08198">
        <ele>123.5</ele>
        <time>2023-01-11T13:28:21Z</time>
      </trkpt>
      <trkpt lat="49.85002" lon="2.08198">
        <ele>123.5</ele>
        <time>2023-01-11T13:28:22Z</time>
      </trkpt>
      <trkpt lat="49.85002" lon="2.08198">
        <ele>123.5</ele>
        <time>2023-01-11T13:28:23Z</time>
      </trkpt>
      <trkpt lat="49.85002" lon="2.08198">
        <ele>123.5</ele>
        <time>2023-01-11T13:28:24Z</time>
      </trkpt>
      <trkpt lat="49.85002" lon="2.08198">
        <ele>123.5</ele>
        <time>2023-01-11T13:28:25Z</time>
      </trkpt>
      <trkpt lat="49.85003" lon="2.08198">
        <ele>123.5</ele>
        <time>2023-01-11T13:28:26Z</time>
      </trkpt>
      <trkpt lat="49.85003" lon="2.08198">
        <ele>123.5</ele>
        <time>2023-01-11T13:28:27Z</time>
      </trkpt>
      <trkpt lat="49.85003" lon="2.08199">
        <ele>123.5</ele>
        <time>2023-01-11T13:28:28Z</time>
      </trkpt>
      <trkpt lat="49.85003" lon="2.08199">
        <ele>123.5</ele>
        <time>2023-01-11T13:28:29Z</time>
      </trkpt>
      <trkpt lat="49.85003" lon="2.08199">
        <ele>123.5</ele>
        <time>2023-01-11T13:28:30Z</time>
      </trkpt>
      <trkpt lat="49.85003" lon="2.08199">
        <ele>123.5</ele>
        <time>2023-01-11T13:28:31Z</time>
      </trkpt>
      <trkpt lat="49.85003" lon="2.08199">
        <ele>123.5</ele>
        <time>2023-01-11T13:28:32Z</time>
      </trkpt>
      <trkpt lat="49.85003" lon="2.08199">
        <ele>123.5</ele>
        <time>2023-01-11T13:28:33Z</time>
      </trkpt>
      <trkpt lat="49.85003" lon="2.08199">
        <ele>123.5</ele>
        <time>2023-01-11T13:28:34Z</time>
      </trkpt>
      <trkpt lat="49.85003" lon="2.08199">
        <ele>123.5</ele>
        <time>2023-01-11T13:28:35Z</time>
      </trkpt>
      <trkpt lat="49.85003" lon="2.08199">
        <ele>123.5</ele>
        <time>2023-01-11T13:28:36Z</time>
      </trkpt>
      <trkpt lat="49.85003" lon="2.08199">
        <ele>123.5</ele>
        <time>2023-01-11T13:28:37Z</time>
      </trkpt>
      <trkpt lat="49.85003" lon="2.08199">
        <ele>123.5</ele>
        <time>2023-01-11T13:28:38Z</time>
      </trkpt>
      <trkpt lat="49.85003" lon="2.08199">
        <ele>123.5</ele>
        <time>2023-01-11T13:28:39Z</time>
      </trkpt>
      <trkpt lat="49.85003" lon="2.08199">
        <ele>123.5</ele>
        <time>2023-01-11T13:28:40Z</time>
      </trkpt>
      <trkpt lat="49.85003" lon="2.08199">
        <ele>123.5</ele>
        <time>2023-01-11T13:28:41Z</time>
      </trkpt>
      <trkpt lat="49.85003" lon="2.08199">
        <ele>123.5</ele>
        <time>2023-01-11T13:28:42Z</time>
      </trkpt>
      <trkpt lat="49.85004" lon="2.08199">
        <ele>123.5</ele>
        <time>2023-01-11T13:28:43Z</time>
      </trkpt>
      <trkpt lat="49.85004" lon="2.08199">
        <ele>123.5</ele>
        <time>2023-01-11T13:28:44Z</time>
      </trkpt>
      <trkpt lat="49.85004" lon="2.08199">
        <ele>123.5</ele>
        <time>2023-01-11T13:28:45Z</time>
      </trkpt>
      <trkpt lat="49.85004" lon="2.08199">
        <ele>123.4</ele>
        <time>2023-01-11T13:28:46Z</time>
      </trkpt>
      <trkpt lat="49.85004" lon="2.08199">
        <ele>123.4</ele>
        <time>2023-01-11T13:28:47Z</time>
      </trkpt>
      <trkpt lat="49.85004" lon="2.08199">
        <ele>123.4</ele>
        <time>2023-01-11T13:28:48Z</time>
      </trkpt>
      <trkpt lat="49.85004" lon="2.08199">
        <ele>123.4</ele>
        <time>2023-01-11T13:28:49Z</time>
      </trkpt>
      <trkpt lat="49.85004" lon="2.08199">
        <ele>123.4</ele>
        <time>2023-01-11T13:28:50Z</time>
      </trkpt>
      <trkpt lat="49.85004" lon="2.08199">
        <ele>123.4</ele>
        <time>2023-01-11T13:28:51Z</time>
      </trkpt>
      <trkpt lat="49.85004" lon="2.08199">
        <ele>123.4</ele>
        <time>2023-01-11T13:28:52Z</time>
      </trkpt>
      <trkpt lat="49.85004" lon="2.082">
        <ele>123.4</ele>
        <time>2023-01-11T13:28:53Z</time>
      </trkpt>
      <trkpt lat="49.85004" lon="2.082">
        <ele>123.4</ele>
        <time>2023-01-11T13:28:54Z</time>
      </trkpt>
      <trkpt lat="49.85004" lon="2.082">
        <ele>123.4</ele>
        <time>2023-01-11T13:28:55Z</time>
      </trkpt>
      <trkpt lat="49.85004" lon="2.082">
        <ele>123.4</ele>
        <time>2023-01-11T13:28:56Z</time>
      </trkpt>
      <trkpt lat="49.85004" lon="2.082">
        <ele>123.4</ele>
        <time>2023-01-11T13:28:57Z</time>
      </trkpt>
      <trkpt lat="49.85004" lon="2.082">
        <ele>123.4</ele>
        <time>2023-01-11T13:28:58Z</time>
      </trkpt>
      <trkpt lat="49.85005" lon="2.082">
        <ele>123.4</ele>
        <time>2023-01-11T13:28:59Z</time>
      </trkpt>
      <trkpt lat="49.85005" lon="2.082">
        <ele>123.4</ele>
        <time>2023-01-11T13:29:00Z</time>
      </trkpt>
      <trkpt lat="49.85005" lon="2.082">
        <ele>123.4</ele>
        <time>2023-01-11T13:29:01Z</time>
      </trkpt>
      <trkpt lat="49.85005" lon="2.082">
        <ele>123.4</ele>
        <time>2023-01-11T13:29:02Z</time>
      </trkpt>
      <trkpt lat="49.85005" lon="2.082">
        <ele>123.4</ele>
        <time>2023-01-11T13:29:03Z</time>
      </trkpt>
      <trkpt lat="49.85005" lon="2.082">
        <ele>123.4</ele>
        <time>2023-01-11T13:29:04Z</time>
      </trkpt>
      <trkpt lat="49.85005" lon="2.082">
        <ele>123.4</ele>
        <time>2023-01-11T13:29:05Z</time>
      </trkpt>
      <trkpt lat="49.85005" lon="2.082">
        <ele>123.4</ele>
        <time>2023-01-11T13:29:06Z</time>
      </trkpt>
      <trkpt lat="49.85005" lon="2.082">
        <ele>123.4</ele>
        <time>2023-01-11T13:29:07Z</time>
      </trkpt>
      <trkpt lat="49.85005" lon="2.082">
        <ele>123.4</ele>
        <time>2023-01-11T13:29:08Z</time>
      </trkpt>
      <trkpt lat="49.85005" lon="2.082">
        <ele>123.4</ele>
        <time>2023-01-11T13:29:09Z</time>
      </trkpt>
      <trkpt lat="49.85005" lon="2.082">
        <ele>123.4</ele>
        <time>2023-01-11T13:29:10Z</time>
      </trkpt>
      <trkpt lat="49.85005" lon="2.082">
        <ele>123.4</ele>
        <time>2023-01-11T13:29:11Z</time>
      </trkpt>
      <trkpt lat="49.85005" lon="2.082">
        <ele>123.4</ele>
        <time>2023-01-11T13:29:12Z</time>
      </trkpt>
      <trkpt lat="49.85005" lon="2.082">
        <ele>123.4</ele>
        <time>2023-01-11T13:29:13Z</time>
      </trkpt>
      <trkpt lat="49.85005" lon="2.082">
        <ele>123.4</ele>
        <time>2023-01-11T13:29:14Z</time>
      </trkpt>
      <trkpt lat="49.85005" lon="2.082">
        <ele>123.4</ele>
        <time>2023-01-11T13:29:15Z</time>
      </trkpt>
      <trkpt lat="49.85006" lon="2.082">
        <ele>123.4</ele>
        <time>2023-01-11T13:29:16Z</time>
      </trkpt>
      <trkpt lat="49.85006" lon="2.082">
        <ele>123.4</ele>
        <time>2023-01-11T13:29:17Z</time>
      </trkpt>
      <trkpt lat="49.85006" lon="2.08201">
        <ele>123.4</ele>
        <time>2023-01-11T13:29:18Z</time>
      </trkpt>
      <trkpt lat="49.85006" lon="2.08201">
        <ele>123.4</ele>
        <time>2023-01-11T13:29:19Z</time>
      </trkpt>
      <trkpt lat="49.85006" lon="2.08201">
        <ele>123.4</ele>
        <time>2023-01-11T13:29:20Z</time>
      </trkpt>
      <trkpt lat="49.85006" lon="2.08201">
        <ele>123.4</ele>
        <time>2023-01-11T13:29:21Z</time>
      </trkpt>
      <trkpt lat="49.85006" lon="2.08201">
        <ele>123.4</ele>
        <time>2023-01-11T13:29:22Z</time>
      </trkpt>
      <trkpt lat="49.85006" lon="2.08201">
        <ele>123.4</ele>
        <time>2023-01-11T13:29:23Z</time>
      </trkpt>
      <trkpt lat="49.85006" lon="2.08201">
        <ele>123.4</ele>
        <time>2023-01-11T13:29:24Z</time>
      </trkpt>
      <trkpt lat="49.85006" lon="2.08201">
        <ele>123.4</ele>
        <time>2023-01-11T13:29:25Z</time>
      </trkpt>
      <trkpt lat="49.85006" lon="2.08201">
        <ele>123.4</ele>
        <time>2023-01-11T13:29:26Z</time>
      </trkpt>
      <trkpt lat="49.85006" lon="2.08201">
        <ele>123.4</ele>
        <time>2023-01-11T13:29:27Z</time>
      </trkpt>
      <trkpt lat="49.85006" lon="2.08201">
        <ele>123.4</ele>
        <time>2023-01-11T13:29:28Z</time>
      </trkpt>
      <trkpt lat="49.85006" lon="2.08201">
        <ele>123.4</ele>
        <time>2023-01-11T13:29:29Z</time>
      </trkpt>
      <trkpt lat="49.85006" lon="2.08201">
        <ele>123.4</ele>
        <time>2023-01-11T13:29:30Z</time>
      </trkpt>
      <trkpt lat="49.85006" lon="2.08201">
        <ele>123.4</ele>
        <time>2023-01-11T13:29:31Z</time>
      </trkpt>
      <trkpt lat="49.85006" lon="2.08201">
        <ele>123.4</ele>
        <time>2023-01-11T13:29:32Z</time>
      </trkpt>
      <trkpt lat="49.85009" lon="2.08203">
        <ele>123.4</ele>
        <time>2023-01-11T13:29:33Z</time>
      </trkpt>
      <trkpt lat="49.8501" lon="2.08204">
        <ele>123.4</ele>
        <time>2023-01-11T13:29:34Z</time>
      </trkpt>
      <trkpt lat="49.8501" lon="2.08204">
        <ele>123.4</ele>
        <time>2023-01-11T13:29:35Z</time>
      </trkpt>
      <trkpt lat="49.8501" lon="2.08205">
        <ele>123.4</ele>
        <time>2023-01-11T13:29:36Z</time>
      </trkpt>
      <trkpt lat="49.8501" lon="2.08205">
        <ele>123.4</ele>
        <time>2023-01-11T13:29:37Z</time>
      </trkpt>
      <trkpt lat="49.8501" lon="2.08205">
        <ele>123.4</ele>
        <time>2023-01-11T13:29:38Z</time>
      </trkpt>
      <trkpt lat="49.8501" lon="2.08205">
        <ele>123.4</ele>
        <time>2023-01-11T13:29:39Z</time>
      </trkpt>
      <trkpt lat="49.8501" lon="2.08205">
        <ele>123.4</ele>
        <time>2023-01-11T13:29:40Z</time>
      </trkpt>
      <trkpt lat="49.85011" lon="2.08205">
        <ele>123.4</ele>
        <time>2023-01-11T13:29:41Z</time>
      </trkpt>
      <trkpt lat="49.85011" lon="2.08205">
        <ele>123.4</ele>
        <time>2023-01-11T13:29:42Z</time>
      </trkpt>
      <trkpt lat="49.85011" lon="2.08205">
        <ele>123.4</ele>
        <time>2023-01-11T13:29:43Z</time>
      </trkpt>
      <trkpt lat="49.85011" lon="2.08205">
        <ele>123.4</ele>
        <time>2023-01-11T13:29:44Z</time>
      </trkpt>
      <trkpt lat="49.85011" lon="2.08205">
        <ele>123.4</ele>
        <time>2023-01-11T13:29:45Z</time>
      </trkpt>
      <trkpt lat="49.85011" lon="2.08205">
        <ele>123.4</ele>
        <time>2023-01-11T13:29:46Z</time>
      </trkpt>
      <trkpt lat="49.85011" lon="2.08205">
        <ele>123.4</ele>
        <time>2023-01-11T13:29:47Z</time>
      </trkpt>
      <trkpt lat="49.85011" lon="2.08205">
        <ele>123.4</ele>
        <time>2023-01-11T13:29:48Z</time>
      </trkpt>
      <trkpt lat="49.85011" lon="2.08205">
        <ele>123.4</ele>
        <time>2023-01-11T13:29:49Z</time>
      </trkpt>
      <trkpt lat="49.85011" lon="2.08205">
        <ele>123.4</ele>
        <time>2023-01-11T13:29:50Z</time>
      </trkpt>
      <trkpt lat="49.85011" lon="2.08205">
        <ele>123.4</ele>
        <time>2023-01-11T13:29:51Z</time>
      </trkpt>
      <trkpt lat="49.85011" lon="2.08205">
        <ele>123.4</ele>
        <time>2023-01-11T13:29:52Z</time>
      </trkpt>
      <trkpt lat="49.85011" lon="2.08205">
        <ele>123.4</ele>
        <time>2023-01-11T13:29:53Z</time>
      </trkpt>
      <trkpt lat="49.85011" lon="2.08205">
        <ele>123.4</ele>
        <time>2023-01-11T13:29:54Z</time>
      </trkpt>
      <trkpt lat="49.85011" lon="2.08205">
        <ele>123.4</ele>
        <time>2023-01-11T13:29:55Z</time>
      </trkpt>
      <trkpt lat="49.85011" lon="2.08205">
        <ele>123.4</ele>
        <time>2023-01-11T13:29:56Z</time>
      </trkpt>
      <trkpt lat="49.85011" lon="2.08205">
        <ele>123.4</ele>
        <time>2023-01-11T13:29:57Z</time>
      </trkpt>
      <trkpt lat="49.85011" lon="2.08205">
        <ele>123.4</ele>
        <time>2023-01-11T13:29:58Z</time>
      </trkpt>
      <trkpt lat="49.85011" lon="2.08205">
        <ele>123.4</ele>
        <time>2023-01-11T13:29:59Z</time>
      </trkpt>
      <trkpt lat="49.85011" lon="2.08205">
        <ele>123.4</ele>
        <time>2023-01-11T13:30:00Z</time>
      </trkpt>
      <trkpt lat="49.85011" lon="2.08205">
        <ele>123.4</ele>
        <time>2023-01-11T13:30:01Z</time>
      </trkpt>
      <trkpt lat="49.85011" lon="2.08205">
        <ele>123.4</ele>
        <time>2023-01-11T13:30:02Z</time>
      </trkpt>
      <trkpt lat="49.85011" lon="2.08205">
        <ele>123.4</ele>
        <time>2023-01-11T13:30:03Z</time>
      </trkpt>
      <trkpt lat="49.85011" lon="2.08205">
        <ele>123.4</ele>
        <time>2023-01-11T13:30:04Z</time>
      </trkpt>
      <trkpt lat="49.85011" lon="2.08205">
        <ele>123.4</ele>
        <time>2023-01-11T13:30:05Z</time>
      </trkpt>
      <trkpt lat="49.85011" lon="2.08205">
        <ele>123.4</ele>
        <time>2023-01-11T13:30:06Z</time>
      </trkpt>
      <trkpt lat="49.85011" lon="2.08205">
        <ele>123.4</ele>
        <time>2023-01-11T13:30:07Z</time>
      </trkpt>
      <trkpt lat="49.85011" lon="2.08205">
        <ele>123.4</ele>
        <time>2023-01-11T13:30:08Z</time>
      </trkpt>
      <trkpt lat="49.85011" lon="2.08205">
        <ele>123.4</ele>
        <time>2023-01-11T13:30:09Z</time>
      </trkpt>
      <trkpt lat="49.85011" lon="2.08205">
        <ele>123.4</ele>
        <time>2023-01-11T13:30:10Z</time>
      </trkpt>
      <trkpt lat="49.85011" lon="2.08205">
        <ele>123.4</ele>
        <time>2023-01-11T13:30:11Z</time>
      </trkpt>
      <trkpt lat="49.85011" lon="2.08205">
        <ele>123.4</ele>
        <time>2023-01-11T13:30:12Z</time>
      </trkpt>
      <trkpt lat="49.85011" lon="2.08205">
        <ele>123.4</ele>
        <time>2023-01-11T13:30:13Z</time>
      </trkpt>
      <trkpt lat="49.85011" lon="2.08205">
        <ele>123.4</ele>
        <time>2023-01-11T13:30:14Z</time>
      </trkpt>
      <trkpt lat="49.85011" lon="2.08205">
        <ele>123.4</ele>
        <time>2023-01-11T13:30:16Z</time>
      </trkpt>
      <trkpt lat="49.85011" lon="2.08205">
        <ele>123.4</ele>
        <time>2023-01-11T13:30:17Z</time>
      </trkpt>
      <trkpt lat="49.8501" lon="2.08204">
        <ele>123.4</ele>
        <time>2023-01-11T13:30:19Z</time>
      </trkpt>
      <trkpt lat="49.8501" lon="2.08204">
        <ele>123.4</ele>
        <time>2023-01-11T13:30:20Z</time>
      </trkpt>
      <trkpt lat="49.8501" lon="2.08203">
        <ele>123.4</ele>
        <time>2023-01-11T13:30:22Z</time>
      </trkpt>
      <trkpt lat="49.8501" lon="2.08203">
        <ele>123.4</ele>
        <time>2023-01-11T13:30:23Z</time>
      </trkpt>
      <trkpt lat="49.85009" lon="2.08203">
        <ele>123.4</ele>
        <time>2023-01-11T13:30:24Z</time>
      </trkpt>
      <trkpt lat="49.85009" lon="2.08203">
        <ele>123.4</ele>
        <time>2023-01-11T13:30:25Z</time>
      </trkpt>
      <trkpt lat="49.85009" lon="2.08203">
        <ele>123.4</ele>
        <time>2023-01-11T13:30:26Z</time>
      </trkpt>
      <trkpt lat="49.85009" lon="2.08203">
        <ele>123.4</ele>
        <time>2023-01-11T13:30:27Z</time>
      </trkpt>
      <trkpt lat="49.85009" lon="2.08203">
        <ele>123.4</ele>
        <time>2023-01-11T13:30:28Z</time>
      </trkpt>
      <trkpt lat="49.85009" lon="2.08203">
        <ele>123.4</ele>
        <time>2023-01-11T13:30:29Z</time>
      </trkpt>
      <trkpt lat="49.85009" lon="2.08203">
        <ele>123.4</ele>
        <time>2023-01-11T13:30:30Z</time>
      </trkpt>
      <trkpt lat="49.85009" lon="2.08203">
        <ele>123.4</ele>
        <time>2023-01-11T13:30:31Z</time>
      </trkpt>
      <trkpt lat="49.85009" lon="2.08203">
        <ele>123.4</ele>
        <time>2023-01-11T13:30:32Z</time>
      </trkpt>
      <trkpt lat="49.85009" lon="2.08203">
        <ele>123.4</ele>
        <time>2023-01-11T13:30:33Z</time>
      </trkpt>
      <trkpt lat="49.85009" lon="2.08203">
        <ele>123.4</ele>
        <time>2023-01-11T13:30:34Z</time>
      </trkpt>
      <trkpt lat="49.85009" lon="2.08203">
        <ele>123.4</ele>
        <time>2023-01-11T13:30:35Z</time>
      </trkpt>
      <trkpt lat="49.85009" lon="2.08203">
        <ele>123.4</ele>
        <time>2023-01-11T13:30:36Z</time>
      </trkpt>
      <trkpt lat="49.85009" lon="2.08203">
        <ele>123.4</ele>
        <time>2023-01-11T13:30:37Z</time>
      </trkpt>
      <trkpt lat="49.85009" lon="2.08203">
        <ele>123.4</ele>
        <time>2023-01-11T13:30:38Z</time>
      </trkpt>
      <trkpt lat="49.85009" lon="2.08203">
        <ele>123.4</ele>
        <time>2023-01-11T13:30:39Z</time>
      </trkpt>
      <trkpt lat="49.85009" lon="2.08203">
        <ele>123.4</ele>
        <time>2023-01-11T13:30:40Z</time>
      </trkpt>
      <trkpt lat="49.85009" lon="2.08203">
        <ele>123.4</ele>
        <time>2023-01-11T13:30:41Z</time>
      </trkpt>
      <trkpt lat="49.85009" lon="2.08203">
        <ele>123.4</ele>
        <time>2023-01-11T13:30:42Z</time>
      </trkpt>
      <trkpt lat="49.85009" lon="2.08203">
        <ele>123.4</ele>
        <time>2023-01-11T13:30:43Z</time>
      </trkpt>
      <trkpt lat="49.85009" lon="2.08203">
        <ele>123.4</ele>
        <time>2023-01-11T13:30:44Z</time>
      </trkpt>
      <trkpt lat="49.85009" lon="2.08203">
        <ele>123.4</ele>
        <time>2023-01-11T13:30:45Z</time>
      </trkpt>
      <trkpt lat="49.85009" lon="2.08203">
        <ele>123.4</ele>
        <time>2023-01-11T13:30:46Z</time>
      </trkpt>
      <trkpt lat="49.85009" lon="2.08203">
        <ele>123.4</ele>
        <time>2023-01-11T13:30:47Z</time>
      </trkpt>
      <trkpt lat="49.85009" lon="2.08203">
        <ele>123.4</ele>
        <time>2023-01-11T13:30:48Z</time>
      </trkpt>
      <trkpt lat="49.85009" lon="2.08203">
        <ele>123.4</ele>
        <time>2023-01-11T13:30:49Z</time>
      </trkpt>
      <trkpt lat="49.85009" lon="2.08203">
        <ele>123.4</ele>
        <time>2023-01-11T13:30:50Z</time>
      </trkpt>
      <trkpt lat="49.85009" lon="2.08203">
        <ele>123.4</ele>
        <time>2023-01-11T13:30:51Z</time>
      </trkpt>
      <trkpt lat="49.85009" lon="2.08203">
        <ele>123.4</ele>
        <time>2023-01-11T13:30:52Z</time>
      </trkpt>
      <trkpt lat="49.85009" lon="2.08203">
        <ele>123.4</ele>
        <time>2023-01-11T13:30:53Z</time>
      </trkpt>
      <trkpt lat="49.85009" lon="2.08203">
        <ele>123.4</ele>
        <time>2023-01-11T13:30:54Z</time>
      </trkpt>
      <trkpt lat="49.85009" lon="2.08203">
        <ele>123.4</ele>
        <time>2023-01-11T13:30:55Z</time>
      </trkpt>
      <trkpt lat="49.85009" lon="2.08203">
        <ele>123.4</ele>
        <time>2023-01-11T13:30:56Z</time>
      </trkpt>
      <trkpt lat="49.85009" lon="2.08203">
        <ele>123.4</ele>
        <time>2023-01-11T13:30:57Z</time>
      </trkpt>
      <trkpt lat="49.85009" lon="2.08203">
        <ele>123.4</ele>
        <time>2023-01-11T13:30:58Z</time>
      </trkpt>
      <trkpt lat="49.85009" lon="2.08203">
        <ele>123.4</ele>
        <time>2023-01-11T13:30:59Z</time>
      </trkpt>
      <trkpt lat="49.85009" lon="2.08203">
        <ele>123.4</ele>
        <time>2023-01-11T13:31:00Z</time>
      </trkpt>
      <trkpt lat="49.85009" lon="2.08203">
        <ele>123.4</ele>
        <time>2023-01-11T13:31:01Z</time>
      </trkpt>
      <trkpt lat="49.85009" lon="2.08203">
        <ele>123.4</ele>
        <time>2023-01-11T13:31:02Z</time>
      </trkpt>
      <trkpt lat="49.85009" lon="2.08203">
        <ele>123.4</ele>
        <time>2023-01-11T13:31:03Z</time>
      </trkpt>
      <trkpt lat="49.85009" lon="2.08203">
        <ele>123.4</ele>
        <time>2023-01-11T13:31:04Z</time>
      </trkpt>
      <trkpt lat="49.85009" lon="2.08203">
        <ele>123.4</ele>
        <time>2023-01-11T13:31:05Z</time>
      </trkpt>
      <trkpt lat="49.85009" lon="2.08203">
        <ele>123.4</ele>
        <time>2023-01-11T13:31:06Z</time>
      </trkpt>
      <trkpt lat="49.85009" lon="2.08203">
        <ele>123.4</ele>
        <time>2023-01-11T13:31:07Z</time>
      </trkpt>
      <trkpt lat="49.85009" lon="2.08203">
        <ele>123.4</ele>
        <time>2023-01-11T13:31:08Z</time>
      </trkpt>
      <trkpt lat="49.85009" lon="2.08203">
        <ele>123.4</ele>
        <time>2023-01-11T13:31:09Z</time>
      </trkpt>
      <trkpt lat="49.85009" lon="2.08203">
        <ele>123.4</ele>
        <time>2023-01-11T13:31:10Z</time>
      </trkpt>
      <trkpt lat="49.85009" lon="2.08203">
        <ele>123.4</ele>
        <time>2023-01-11T13:31:11Z</time>
      </trkpt>
      <trkpt lat="49.85009" lon="2.08203">
        <ele>123.4</ele>
        <time>2023-01-11T13:31:12Z</time>
      </trkpt>
      <trkpt lat="49.85009" lon="2.08203">
        <ele>123.4</ele>
        <time>2023-01-11T13:31:13Z</time>
      </trkpt>
      <trkpt lat="49.85009" lon="2.08203">
        <ele>123.4</ele>
        <time>2023-01-11T13:31:14Z</time>
      </trkpt>
      <trkpt lat="49.85009" lon="2.08203">
        <ele>123.4</ele>
        <time>2023-01-11T13:31:15Z</time>
      </trkpt>
      <trkpt lat="49.85009" lon="2.08203">
        <ele>123.4</ele>
        <time>2023-01-11T13:31:16Z</time>
      </trkpt>
      <trkpt lat="49.85009" lon="2.08203">
        <ele>123.4</ele>
        <time>2023-01-11T13:31:17Z</time>
      </trkpt>
      <trkpt lat="49.85009" lon="2.08203">
        <ele>123.4</ele>
        <time>2023-01-11T13:31:18Z</time>
      </trkpt>
      <trkpt lat="49.85009" lon="2.08203">
        <ele>123.4</ele>
        <time>2023-01-11T13:31:19Z</time>
      </trkpt>
      <trkpt lat="49.85009" lon="2.08203">
        <ele>123.4</ele>
        <time>2023-01-11T13:31:20Z</time>
      </trkpt>
      <trkpt lat="49.85009" lon="2.08203">
        <ele>123.4</ele>
        <time>2023-01-11T13:31:21Z</time>
      </trkpt>
      <trkpt lat="49.85009" lon="2.08203">
        <ele>123.4</ele>
        <time>2023-01-11T13:31:22Z</time>
      </trkpt>
      <trkpt lat="49.85009" lon="2.08203">
        <ele>123.4</ele>
        <time>2023-01-11T13:31:23Z</time>
      </trkpt>
      <trkpt lat="49.85009" lon="2.08203">
        <ele>123.4</ele>
        <time>2023-01-11T13:31:24Z</time>
      </trkpt>
      <trkpt lat="49.85009" lon="2.08203">
        <ele>123.4</ele>
        <time>2023-01-11T13:31:25Z</time>
      </trkpt>
      <trkpt lat="49.85009" lon="2.08203">
        <ele>123.4</ele>
        <time>2023-01-11T13:31:26Z</time>
      </trkpt>
      <trkpt lat="49.85009" lon="2.08203">
        <ele>123.4</ele>
        <time>2023-01-11T13:31:27Z</time>
      </trkpt>
      <trkpt lat="49.85009" lon="2.08203">
        <ele>123.4</ele>
        <time>2023-01-11T13:31:28Z</time>
      </trkpt>
      <trkpt lat="49.85009" lon="2.08203">
        <ele>123.4</ele>
        <time>2023-01-11T13:31:29Z</time>
      </trkpt>
      <trkpt lat="49.85009" lon="2.08203">
        <ele>123.4</ele>
        <time>2023-01-11T13:31:30Z</time>
      </trkpt>
      <trkpt lat="49.85009" lon="2.08203">
        <ele>123.4</ele>
        <time>2023-01-11T13:31:31Z</time>
      </trkpt>
      <trkpt lat="49.85009" lon="2.08203">
        <ele>123.4</ele>
        <time>2023-01-11T13:31:32Z</time>
      </trkpt>
      <trkpt lat="49.85009" lon="2.08203">
        <ele>123.4</ele>
        <time>2023-01-11T13:31:33Z</time>
      </trkpt>
      <trkpt lat="49.85009" lon="2.08203">
        <ele>123.4</ele>
        <time>2023-01-11T13:31:34Z</time>
      </trkpt>
      <trkpt lat="49.85009" lon="2.08203">
        <ele>123.4</ele>
        <time>2023-01-11T13:31:35Z</time>
      </trkpt>
      <trkpt lat="49.85009" lon="2.08203">
        <ele>123.4</ele>
        <time>2023-01-11T13:31:36Z</time>
      </trkpt>
      <trkpt lat="49.85009" lon="2.08203">
        <ele>123.4</ele>
        <time>2023-01-11T13:31:37Z</time>
      </trkpt>
      <trkpt lat="49.85009" lon="2.08203">
        <ele>123.4</ele>
        <time>2023-01-11T13:31:38Z</time>
      </trkpt>
      <trkpt lat="49.85009" lon="2.08203">
        <ele>123.4</ele>
        <time>2023-01-11T13:31:39Z</time>
      </trkpt>
      <trkpt lat="49.85009" lon="2.08203">
        <ele>123.4</ele>
        <time>2023-01-11T13:31:40Z</time>
      </trkpt>
      <trkpt lat="49.85009" lon="2.08203">
        <ele>123.4</ele>
        <time>2023-01-11T13:31:41Z</time>
      </trkpt>
      <trkpt lat="49.85009" lon="2.08203">
        <ele>123.4</ele>
        <time>2023-01-11T13:31:42Z</time>
      </trkpt>
      <trkpt lat="49.85009" lon="2.08203">
        <ele>123.4</ele>
        <time>2023-01-11T13:31:43Z</time>
      </trkpt>
      <trkpt lat="49.85009" lon="2.08203">
        <ele>123.4</ele>
        <time>2023-01-11T13:31:44Z</time>
      </trkpt>
      <trkpt lat="49.85009" lon="2.08203">
        <ele>123.4</ele>
        <time>2023-01-11T13:31:45Z</time>
      </trkpt>
      <trkpt lat="49.85009" lon="2.08203">
        <ele>123.4</ele>
        <time>2023-01-11T13:31:46Z</time>
      </trkpt>
      <trkpt lat="49.85009" lon="2.08203">
        <ele>123.4</ele>
        <time>2023-01-11T13:31:47Z</time>
      </trkpt>
      <trkpt lat="49.85009" lon="2.08203">
        <ele>123.4</ele>
        <time>2023-01-11T13:31:48Z</time>
      </trkpt>
      <trkpt lat="49.85009" lon="2.08203">
        <ele>123.4</ele>
        <time>2023-01-11T13:31:49Z</time>
      </trkpt>
      <trkpt lat="49.85009" lon="2.08203">
        <ele>123.4</ele>
        <time>2023-01-11T13:31:50Z</time>
      </trkpt>
      <trkpt lat="49.85009" lon="2.08203">
        <ele>123.4</ele>
        <time>2023-01-11T13:31:51Z</time>
      </trkpt>
      <trkpt lat="49.85009" lon="2.08203">
        <ele>123.4</ele>
        <time>2023-01-11T13:31:52Z</time>
      </trkpt>
      <trkpt lat="49.85009" lon="2.08203">
        <ele>123.4</ele>
        <time>2023-01-11T13:31:53Z</time>
      </trkpt>
      <trkpt lat="49.85009" lon="2.08204">
        <ele>123.4</ele>
        <time>2023-01-11T13:31:54Z</time>
      </trkpt>
      <trkpt lat="49.85008" lon="2.08204">
        <ele>123.4</ele>
        <time>2023-01-11T13:31:55Z</time>
      </trkpt>
      <trkpt lat="49.85008" lon="2.08204">
        <ele>123.4</ele>
        <time>2023-01-11T13:31:56Z</time>
      </trkpt>
      <trkpt lat="49.85007" lon="2.08204">
        <ele>123.4</ele>
        <time>2023-01-11T13:31:57Z</time>
      </trkpt>
      <trkpt lat="49.85007" lon="2.08203">
        <ele>123.4</ele>
        <time>2023-01-11T13:31:58Z</time>
      </trkpt>
      <trkpt lat="49.85006" lon="2.08202">
        <ele>123.4</ele>
        <time>2023-01-11T13:31:59Z</time>
      </trkpt>
      <trkpt lat="49.85004" lon="2.08201">
        <ele>123.4</ele>
        <time>2023-01-11T13:32:00Z</time>
      </trkpt>
      <trkpt lat="49.85004" lon="2.082">
        <ele>123.3</ele>
        <time>2023-01-11T13:32:01Z</time>
      </trkpt>
      <trkpt lat="49.85003" lon="2.082">
        <ele>123.3</ele>
        <time>2023-01-11T13:32:02Z</time>
      </trkpt>
      <trkpt lat="49.85003" lon="2.08199">
        <ele>123.3</ele>
        <time>2023-01-11T13:32:03Z</time>
      </trkpt>
      <trkpt lat="49.85002" lon="2.08198">
        <ele>123.3</ele>
        <time>2023-01-11T13:32:04Z</time>
      </trkpt>
      <trkpt lat="49.85" lon="2.08196">
        <ele>123.3</ele>
        <time>2023-01-11T13:32:05Z</time>
      </trkpt>
      <trkpt lat="49.84999" lon="2.08195">
        <ele>123.3</ele>
        <time>2023-01-11T13:32:06Z</time>
      </trkpt>
      <trkpt lat="49.84998" lon="2.08194">
        <ele>123.3</ele>
        <time>2023-01-11T13:32:07Z</time>
      </trkpt>
      <trkpt lat="49.84997" lon="2.08192">
        <ele>123.3</ele>
        <time>2023-01-11T13:32:09Z</time>
      </trkpt>
      <trkpt lat="49.84995" lon="2.08191">
        <ele>123.3</ele>
        <time>2023-01-11T13:32:10Z</time>
      </trkpt>
      <trkpt lat="49.84995" lon="2.0819">
        <ele>123.3</ele>
        <time>2023-01-11T13:32:11Z</time>
      </trkpt>
      <trkpt lat="49.84994" lon="2.08189">
        <ele>123.3</ele>
        <time>2023-01-11T13:32:12Z</time>
      </trkpt>
      <trkpt lat="49.84993" lon="2.08188">
        <ele>123.3</ele>
        <time>2023-01-11T13:32:13Z</time>
      </trkpt>
      <trkpt lat="49.84991" lon="2.08187">
        <ele>123.3</ele>
        <time>2023-01-11T13:32:15Z</time>
      </trkpt>
      <trkpt lat="49.84988" lon="2.08187">
        <ele>123.3</ele>
        <time>2023-01-11T13:32:16Z</time>
      </trkpt>
      <trkpt lat="49.84988" lon="2.08187">
        <ele>123.3</ele>
        <time>2023-01-11T13:32:17Z</time>
      </trkpt>
      <trkpt lat="49.84987" lon="2.08187">
        <ele>123.3</ele>
        <time>2023-01-11T13:32:18Z</time>
      </trkpt>
      <trkpt lat="49.84986" lon="2.08187">
        <ele>123.3</ele>
        <time>2023-01-11T13:32:20Z</time>
      </trkpt>
      <trkpt lat="49.84985" lon="2.08185">
        <ele>123.3</ele>
        <time>2023-01-11T13:32:21Z</time>
      </trkpt>
      <trkpt lat="49.84984" lon="2.08184">
        <ele>123.3</ele>
        <time>2023-01-11T13:32:22Z</time>
      </trkpt>
      <trkpt lat="49.84983" lon="2.08181">
        <ele>123.2</ele>
        <time>2023-01-11T13:32:23Z</time>
      </trkpt>
      <trkpt lat="49.84983" lon="2.0818">
        <ele>123.2</ele>
        <time>2023-01-11T13:32:24Z</time>
      </trkpt>
      <trkpt lat="49.84983" lon="2.08178">
        <ele>123.2</ele>
        <time>2023-01-11T13:32:25Z</time>
      </trkpt>
      <trkpt lat="49.84982" lon="2.08177">
        <ele>123.2</ele>
        <time>2023-01-11T13:32:26Z</time>
      </trkpt>
      <trkpt lat="49.84981" lon="2.08175">
        <ele>123.2</ele>
        <time>2023-01-11T13:32:28Z</time>
      </trkpt>
      <trkpt lat="49.84981" lon="2.08174">
        <ele>123.2</ele>
        <time>2023-01-11T13:32:29Z</time>
      </trkpt>
      <trkpt lat="49.8498" lon="2.08172">
        <ele>123.2</ele>
        <time>2023-01-11T13:32:30Z</time>
      </trkpt>
      <trkpt lat="49.84979" lon="2.08171">
        <ele>123.2</ele>
        <time>2023-01-11T13:32:31Z</time>
      </trkpt>
      <trkpt lat="49.84979" lon="2.0817">
        <ele>123.2</ele>
        <time>2023-01-11T13:32:32Z</time>
      </trkpt>
      <trkpt lat="49.84977" lon="2.08168">
        <ele>123.2</ele>
        <time>2023-01-11T13:32:33Z</time>
      </trkpt>
      <trkpt lat="49.84977" lon="2.08167">
        <ele>123.2</ele>
        <time>2023-01-11T13:32:35Z</time>
      </trkpt>
      <trkpt lat="49.84976" lon="2.08166">
        <ele>123.2</ele>
        <time>2023-01-11T13:32:36Z</time>
      </trkpt>
      <trkpt lat="49.84976" lon="2.08165">
        <ele>123.2</ele>
        <time>2023-01-11T13:32:37Z</time>
      </trkpt>
      <trkpt lat="49.84975" lon="2.08163">
        <ele>123.1</ele>
        <time>2023-01-11T13:32:38Z</time>
      </trkpt>
      <trkpt lat="49.84974" lon="2.08163">
        <ele>123.1</ele>
        <time>2023-01-11T13:32:39Z</time>
      </trkpt>
      <trkpt lat="49.84973" lon="2.08162">
        <ele>123.1</ele>
        <time>2023-01-11T13:32:40Z</time>
      </trkpt>
      <trkpt lat="49.84972" lon="2.08161">
        <ele>123.1</ele>
        <time>2023-01-11T13:32:41Z</time>
      </trkpt>
      <trkpt lat="49.84971" lon="2.08161">
        <ele>123.1</ele>
        <time>2023-01-11T13:32:43Z</time>
      </trkpt>
      <trkpt lat="49.8497" lon="2.08161">
        <ele>123.1</ele>
        <time>2023-01-11T13:32:44Z</time>
      </trkpt>
      <trkpt lat="49.84969" lon="2.0816">
        <ele>123.1</ele>
        <time>2023-01-11T13:32:45Z</time>
      </trkpt>
      <trkpt lat="49.84968" lon="2.08159">
        <ele>123.1</ele>
        <time>2023-01-11T13:32:46Z</time>
      </trkpt>
      <trkpt lat="49.84967" lon="2.08158">
        <ele>123.1</ele>
        <time>2023-01-11T13:32:47Z</time>
      </trkpt>
      <trkpt lat="49.84966" lon="2.08158">
        <ele>123</ele>
        <time>2023-01-11T13:32:48Z</time>
      </trkpt>
      <trkpt lat="49.84965" lon="2.08157">
        <ele>123</ele>
        <time>2023-01-11T13:32:49Z</time>
      </trkpt>
      <trkpt lat="49.84963" lon="2.08155">
        <ele>123</ele>
        <time>2023-01-11T13:32:51Z</time>
      </trkpt>
      <trkpt lat="49.84963" lon="2.08154">
        <ele>123</ele>
        <time>2023-01-11T13:32:52Z</time>
      </trkpt>
      <trkpt lat="49.84962" lon="2.08153">
        <ele>123</ele>
        <time>2023-01-11T13:32:53Z</time>
      </trkpt>
      <trkpt lat="49.84961" lon="2.08151">
        <ele>123</ele>
        <time>2023-01-11T13:32:54Z</time>
      </trkpt>
      <trkpt lat="49.8496" lon="2.0815">
        <ele>123</ele>
        <time>2023-01-11T13:32:55Z</time>
      </trkpt>
      <trkpt lat="49.84959" lon="2.08149">
        <ele>123</ele>
        <time>2023-01-11T13:32:56Z</time>
      </trkpt>
      <trkpt lat="49.84958" lon="2.08148">
        <ele>122.9</ele>
        <time>2023-01-11T13:32:58Z</time>
      </trkpt>
      <trkpt lat="49.84958" lon="2.08147">
        <ele>122.9</ele>
        <time>2023-01-11T13:32:59Z</time>
      </trkpt>
      <trkpt lat="49.84957" lon="2.08146">
        <ele>122.9</ele>
        <time>2023-01-11T13:33:00Z</time>
      </trkpt>
      <trkpt lat="49.84955" lon="2.08145">
        <ele>122.9</ele>
        <time>2023-01-11T13:33:01Z</time>
      </trkpt>
      <trkpt lat="49.84955" lon="2.08144">
        <ele>122.9</ele>
        <time>2023-01-11T13:33:02Z</time>
      </trkpt>
      <trkpt lat="49.84954" lon="2.08143">
        <ele>122.9</ele>
        <time>2023-01-11T13:33:03Z</time>
      </trkpt>
      <trkpt lat="49.84953" lon="2.08143">
        <ele>122.9</ele>
        <time>2023-01-11T13:33:04Z</time>
      </trkpt>
      <trkpt lat="49.84951" lon="2.08142">
        <ele>122.8</ele>
        <time>2023-01-11T13:33:06Z</time>
      </trkpt>
      <trkpt lat="49.8495" lon="2.08141">
        <ele>122.8</ele>
        <time>2023-01-11T13:33:07Z</time>
      </trkpt>
      <trkpt lat="49.8495" lon="2.0814">
        <ele>122.8</ele>
        <time>2023-01-11T13:33:08Z</time>
      </trkpt>
      <trkpt lat="49.84949" lon="2.08139">
        <ele>122.8</ele>
        <time>2023-01-11T13:33:09Z</time>
      </trkpt>
      <trkpt lat="49.84948" lon="2.08139">
        <ele>122.8</ele>
        <time>2023-01-11T13:33:10Z</time>
      </trkpt>
      <trkpt lat="49.84947" lon="2.08138">
        <ele>122.8</ele>
        <time>2023-01-11T13:33:11Z</time>
      </trkpt>
      <trkpt lat="49.84946" lon="2.08137">
        <ele>122.8</ele>
        <time>2023-01-11T13:33:13Z</time>
      </trkpt>
      <trkpt lat="49.84946" lon="2.08137">
        <ele>122.8</ele>
        <time>2023-01-11T13:33:14Z</time>
      </trkpt>
      <trkpt lat="49.84945" lon="2.08136">
        <ele>122.7</ele>
        <time>2023-01-11T13:33:15Z</time>
      </trkpt>
      <trkpt lat="49.84944" lon="2.08135">
        <ele>122.7</ele>
        <time>2023-01-11T13:33:16Z</time>
      </trkpt>
      <trkpt lat="49.84943" lon="2.08134">
        <ele>122.7</ele>
        <time>2023-01-11T13:33:17Z</time>
      </trkpt>
      <trkpt lat="49.84942" lon="2.08134">
        <ele>122.7</ele>
        <time>2023-01-11T13:33:18Z</time>
      </trkpt>
      <trkpt lat="49.84941" lon="2.08133">
        <ele>122.7</ele>
        <time>2023-01-11T13:33:19Z</time>
      </trkpt>
      <trkpt lat="49.8494" lon="2.08132">
        <ele>122.7</ele>
        <time>2023-01-11T13:33:20Z</time>
      </trkpt>
      <trkpt lat="49.84939" lon="2.08131">
        <ele>122.6</ele>
        <time>2023-01-11T13:33:22Z</time>
      </trkpt>
      <trkpt lat="49.84938" lon="2.0813">
        <ele>122.6</ele>
        <time>2023-01-11T13:33:23Z</time>
      </trkpt>
      <trkpt lat="49.84937" lon="2.08129">
        <ele>122.6</ele>
        <time>2023-01-11T13:33:24Z</time>
      </trkpt>
      <trkpt lat="49.84936" lon="2.08128">
        <ele>122.6</ele>
        <time>2023-01-11T13:33:25Z</time>
      </trkpt>
      <trkpt lat="49.84935" lon="2.08126">
        <ele>122.6</ele>
        <time>2023-01-11T13:33:26Z</time>
      </trkpt>
      <trkpt lat="49.84935" lon="2.08126">
        <ele>122.5</ele>
        <time>2023-01-11T13:33:27Z</time>
      </trkpt>
      <trkpt lat="49.84934" lon="2.08125">
        <ele>122.5</ele>
        <time>2023-01-11T13:33:28Z</time>
      </trkpt>
      <trkpt lat="49.84932" lon="2.08124">
        <ele>122.5</ele>
        <time>2023-01-11T13:33:30Z</time>
      </trkpt>
      <trkpt lat="49.8493" lon="2.08122">
        <ele>122.4</ele>
        <time>2023-01-11T13:33:31Z</time>
      </trkpt>
      <trkpt lat="49.8493" lon="2.08122">
        <ele>122.4</ele>
        <time>2023-01-11T13:33:32Z</time>
      </trkpt>
      <trkpt lat="49.84929" lon="2.08122">
        <ele>122.4</ele>
        <time>2023-01-11T13:33:33Z</time>
      </trkpt>
      <trkpt lat="49.84927" lon="2.08121">
        <ele>122.3</ele>
        <time>2023-01-11T13:33:34Z</time>
      </trkpt>
      <trkpt lat="49.84926" lon="2.08121">
        <ele>122.3</ele>
        <time>2023-01-11T13:33:35Z</time>
      </trkpt>
      <trkpt lat="49.84925" lon="2.08121">
        <ele>122.3</ele>
        <time>2023-01-11T13:33:36Z</time>
      </trkpt>
      <trkpt lat="49.84923" lon="2.08119">
        <ele>122.2</ele>
        <time>2023-01-11T13:33:38Z</time>
      </trkpt>
      <trkpt lat="49.84922" lon="2.08119">
        <ele>122.2</ele>
        <time>2023-01-11T13:33:39Z</time>
      </trkpt>
      <trkpt lat="49.84921" lon="2.08119">
        <ele>122.2</ele>
        <time>2023-01-11T13:33:40Z</time>
      </trkpt>
      <trkpt lat="49.84919" lon="2.08117">
        <ele>122.1</ele>
        <time>2023-01-11T13:33:41Z</time>
      </trkpt>
      <trkpt lat="49.84919" lon="2.08117">
        <ele>122.1</ele>
        <time>2023-01-11T13:33:42Z</time>
      </trkpt>
      <trkpt lat="49.84918" lon="2.08116">
        <ele>122.1</ele>
        <time>2023-01-11T13:33:43Z</time>
      </trkpt>
      <trkpt lat="49.84917" lon="2.08115">
        <ele>122.1</ele>
        <time>2023-01-11T13:33:44Z</time>
      </trkpt>
      <trkpt lat="49.84915" lon="2.08114">
        <ele>122</ele>
        <time>2023-01-11T13:33:45Z</time>
      </trkpt>
      <trkpt lat="49.84915" lon="2.08114">
        <ele>122</ele>
        <time>2023-01-11T13:33:47Z</time>
      </trkpt>
      <trkpt lat="49.84914" lon="2.08113">
        <ele>122</ele>
        <time>2023-01-11T13:33:48Z</time>
      </trkpt>
      <trkpt lat="49.84913" lon="2.08112">
        <ele>121.9</ele>
        <time>2023-01-11T13:33:49Z</time>
      </trkpt>
      <trkpt lat="49.84911" lon="2.08111">
        <ele>121.9</ele>
        <time>2023-01-11T13:33:50Z</time>
      </trkpt>
      <trkpt lat="49.8491" lon="2.08111">
        <ele>121.8</ele>
        <time>2023-01-11T13:33:51Z</time>
      </trkpt>
      <trkpt lat="49.84909" lon="2.08111">
        <ele>121.8</ele>
        <time>2023-01-11T13:33:52Z</time>
      </trkpt>
      <trkpt lat="49.84908" lon="2.0811">
        <ele>121.7</ele>
        <time>2023-01-11T13:33:54Z</time>
      </trkpt>
      <trkpt lat="49.84907" lon="2.08109">
        <ele>121.7</ele>
        <time>2023-01-11T13:33:55Z</time>
      </trkpt>
      <trkpt lat="49.84906" lon="2.08109">
        <ele>121.7</ele>
        <time>2023-01-11T13:33:56Z</time>
      </trkpt>
      <trkpt lat="49.84905" lon="2.08109">
        <ele>121.6</ele>
        <time>2023-01-11T13:33:57Z</time>
      </trkpt>
      <trkpt lat="49.84904" lon="2.08108">
        <ele>121.6</ele>
        <time>2023-01-11T13:33:58Z</time>
      </trkpt>
      <trkpt lat="49.84902" lon="2.08107">
        <ele>121.5</ele>
        <time>2023-01-11T13:34:00Z</time>
      </trkpt>
      <trkpt lat="49.849" lon="2.08106">
        <ele>121.5</ele>
        <time>2023-01-11T13:34:01Z</time>
      </trkpt>
      <trkpt lat="49.849" lon="2.08105">
        <ele>121.4</ele>
        <time>2023-01-11T13:34:02Z</time>
      </trkpt>
      <trkpt lat="49.84899" lon="2.08105">
        <ele>121.4</ele>
        <time>2023-01-11T13:34:03Z</time>
      </trkpt>
      <trkpt lat="49.84897" lon="2.08104">
        <ele>121.3</ele>
        <time>2023-01-11T13:34:04Z</time>
      </trkpt>
      <trkpt lat="49.84896" lon="2.08103">
        <ele>121.3</ele>
        <time>2023-01-11T13:34:05Z</time>
      </trkpt>
      <trkpt lat="49.84895" lon="2.08103">
        <ele>121.3</ele>
        <time>2023-01-11T13:34:06Z</time>
      </trkpt>
      <trkpt lat="49.84894" lon="2.08102">
        <ele>121.2</ele>
        <time>2023-01-11T13:34:08Z</time>
      </trkpt>
      <trkpt lat="49.84893" lon="2.08102">
        <ele>121.2</ele>
        <time>2023-01-11T13:34:09Z</time>
      </trkpt>
      <trkpt lat="49.84892" lon="2.08102">
        <ele>121.1</ele>
        <time>2023-01-11T13:34:10Z</time>
      </trkpt>
      <trkpt lat="49.84891" lon="2.08101">
        <ele>121.1</ele>
        <time>2023-01-11T13:34:11Z</time>
      </trkpt>
      <trkpt lat="49.8489" lon="2.08101">
        <ele>121</ele>
        <time>2023-01-11T13:34:12Z</time>
      </trkpt>
      <trkpt lat="49.84889" lon="2.081">
        <ele>121</ele>
        <time>2023-01-11T13:34:13Z</time>
      </trkpt>
      <trkpt lat="49.84889" lon="2.08099">
        <ele>120.9</ele>
        <time>2023-01-11T13:34:15Z</time>
      </trkpt>
      <trkpt lat="49.84887" lon="2.08098">
        <ele>120.8</ele>
        <time>2023-01-11T13:34:16Z</time>
      </trkpt>
      <trkpt lat="49.84887" lon="2.08097">
        <ele>120.8</ele>
        <time>2023-01-11T13:34:17Z</time>
      </trkpt>
      <trkpt lat="49.84886" lon="2.08097">
        <ele>120.7</ele>
        <time>2023-01-11T13:34:18Z</time>
      </trkpt>
      <trkpt lat="49.84885" lon="2.08096">
        <ele>120.7</ele>
        <time>2023-01-11T13:34:19Z</time>
      </trkpt>
      <trkpt lat="49.84884" lon="2.08096">
        <ele>120.6</ele>
        <time>2023-01-11T13:34:20Z</time>
      </trkpt>
      <trkpt lat="49.84883" lon="2.08095">
        <ele>120.5</ele>
        <time>2023-01-11T13:34:21Z</time>
      </trkpt>
      <trkpt lat="49.84882" lon="2.08095">
        <ele>120.5</ele>
        <time>2023-01-11T13:34:23Z</time>
      </trkpt>
      <trkpt lat="49.84881" lon="2.08094">
        <ele>120.4</ele>
        <time>2023-01-11T13:34:24Z</time>
      </trkpt>
      <trkpt lat="49.8488" lon="2.08094">
        <ele>120.3</ele>
        <time>2023-01-11T13:34:25Z</time>
      </trkpt>
      <trkpt lat="49.84879" lon="2.08092">
        <ele>120.3</ele>
        <time>2023-01-11T13:34:26Z</time>
      </trkpt>
      <trkpt lat="49.84878" lon="2.08092">
        <ele>120.2</ele>
        <time>2023-01-11T13:34:27Z</time>
      </trkpt>
      <trkpt lat="49.84877" lon="2.0809">
        <ele>120</ele>
        <time>2023-01-11T13:34:28Z</time>
      </trkpt>
      <trkpt lat="49.84876" lon="2.0809">
        <ele>120</ele>
        <time>2023-01-11T13:34:30Z</time>
      </trkpt>
      <trkpt lat="49.84875" lon="2.08089">
        <ele>119.9</ele>
        <time>2023-01-11T13:34:31Z</time>
      </trkpt>
      <trkpt lat="49.84874" lon="2.08088">
        <ele>119.8</ele>
        <time>2023-01-11T13:34:32Z</time>
      </trkpt>
      <trkpt lat="49.84873" lon="2.08087">
        <ele>119.7</ele>
        <time>2023-01-11T13:34:33Z</time>
      </trkpt>
      <trkpt lat="49.84873" lon="2.08086">
        <ele>119.6</ele>
        <time>2023-01-11T13:34:34Z</time>
      </trkpt>
      <trkpt lat="49.84871" lon="2.08085">
        <ele>119.4</ele>
        <time>2023-01-11T13:34:35Z</time>
      </trkpt>
      <trkpt lat="49.8487" lon="2.08084">
        <ele>119.3</ele>
        <time>2023-01-11T13:34:37Z</time>
      </trkpt>
      <trkpt lat="49.84868" lon="2.08083">
        <ele>119.2</ele>
        <time>2023-01-11T13:34:38Z</time>
      </trkpt>
      <trkpt lat="49.84867" lon="2.08083">
        <ele>119.1</ele>
        <time>2023-01-11T13:34:39Z</time>
      </trkpt>
      <trkpt lat="49.84866" lon="2.08082">
        <ele>119</ele>
        <time>2023-01-11T13:34:40Z</time>
      </trkpt>
      <trkpt lat="49.84865" lon="2.08081">
        <ele>118.9</ele>
        <time>2023-01-11T13:34:41Z</time>
      </trkpt>
      <trkpt lat="49.84864" lon="2.08081">
        <ele>118.8</ele>
        <time>2023-01-11T13:34:42Z</time>
      </trkpt>
      <trkpt lat="49.84862" lon="2.08079">
        <ele>118.6</ele>
        <time>2023-01-11T13:34:43Z</time>
      </trkpt>
      <trkpt lat="49.84861" lon="2.08079">
        <ele>118.5</ele>
        <time>2023-01-11T13:34:44Z</time>
      </trkpt>
      <trkpt lat="49.8486" lon="2.08078">
        <ele>118.4</ele>
        <time>2023-01-11T13:34:45Z</time>
      </trkpt>
      <trkpt lat="49.84859" lon="2.08077">
        <ele>118.3</ele>
        <time>2023-01-11T13:34:47Z</time>
      </trkpt>
      <trkpt lat="49.84858" lon="2.08076">
        <ele>118.2</ele>
        <time>2023-01-11T13:34:48Z</time>
      </trkpt>
      <trkpt lat="49.84857" lon="2.08075">
        <ele>118.1</ele>
        <time>2023-01-11T13:34:49Z</time>
      </trkpt>
      <trkpt lat="49.84856" lon="2.08075">
        <ele>118</ele>
        <time>2023-01-11T13:34:50Z</time>
      </trkpt>
      <trkpt lat="49.84855" lon="2.08074">
        <ele>117.9</ele>
        <time>2023-01-11T13:34:51Z</time>
      </trkpt>
      <trkpt lat="49.84854" lon="2.08073">
        <ele>117.8</ele>
        <time>2023-01-11T13:34:53Z</time>
      </trkpt>
      <trkpt lat="49.84853" lon="2.08072">
        <ele>117.7</ele>
        <time>2023-01-11T13:34:54Z</time>
      </trkpt>
      <trkpt lat="49.84852" lon="2.08071">
        <ele>117.6</ele>
        <time>2023-01-11T13:34:55Z</time>
      </trkpt>
      <trkpt lat="49.84851" lon="2.0807">
        <ele>117.5</ele>
        <time>2023-01-11T13:34:56Z</time>
      </trkpt>
      <trkpt lat="49.8485" lon="2.08069">
        <ele>117.4</ele>
        <time>2023-01-11T13:34:58Z</time>
      </trkpt>
      <trkpt lat="49.84849" lon="2.08069">
        <ele>117.3</ele>
        <time>2023-01-11T13:34:59Z</time>
      </trkpt>
      <trkpt lat="49.84848" lon="2.08068">
        <ele>117.2</ele>
        <time>2023-01-11T13:35:00Z</time>
      </trkpt>
      <trkpt lat="49.84847" lon="2.08068">
        <ele>117.1</ele>
        <time>2023-01-11T13:35:01Z</time>
      </trkpt>
      <trkpt lat="49.84846" lon="2.08068">
        <ele>117</ele>
        <time>2023-01-11T13:35:03Z</time>
      </trkpt>
      <trkpt lat="49.84845" lon="2.08067">
        <ele>116.9</ele>
        <time>2023-01-11T13:35:04Z</time>
      </trkpt>
      <trkpt lat="49.84844" lon="2.08067">
        <ele>116.8</ele>
        <time>2023-01-11T13:35:05Z</time>
      </trkpt>
      <trkpt lat="49.84843" lon="2.08067">
        <ele>116.7</ele>
        <time>2023-01-11T13:35:06Z</time>
      </trkpt>
      <trkpt lat="49.84842" lon="2.08067">
        <ele>116.7</ele>
        <time>2023-01-11T13:35:07Z</time>
      </trkpt>
      <trkpt lat="49.84842" lon="2.08067">
        <ele>116.6</ele>
        <time>2023-01-11T13:35:08Z</time>
      </trkpt>
      <trkpt lat="49.84841" lon="2.08067">
        <ele>116.6</ele>
        <time>2023-01-11T13:35:09Z</time>
      </trkpt>
      <trkpt lat="49.84841" lon="2.08066">
        <ele>116.5</ele>
        <time>2023-01-11T13:35:11Z</time>
      </trkpt>
      <trkpt lat="49.8484" lon="2.08065">
        <ele>116.4</ele>
        <time>2023-01-11T13:35:12Z</time>
      </trkpt>
      <trkpt lat="49.8484" lon="2.08065">
        <ele>116.4</ele>
        <time>2023-01-11T13:35:13Z</time>
      </trkpt>
      <trkpt lat="49.8484" lon="2.08065">
        <ele>116.4</ele>
        <time>2023-01-11T13:35:14Z</time>
      </trkpt>
      <trkpt lat="49.8484" lon="2.08065">
        <ele>116.3</ele>
        <time>2023-01-11T13:35:15Z</time>
      </trkpt>
      <trkpt lat="49.8484" lon="2.08066">
        <ele>116.2</ele>
        <time>2023-01-11T13:35:16Z</time>
      </trkpt>
      <trkpt lat="49.84839" lon="2.08066">
        <ele>116.2</ele>
        <time>2023-01-11T13:35:18Z</time>
      </trkpt>
      <trkpt lat="49.84838" lon="2.08065">
        <ele>116.1</ele>
        <time>2023-01-11T13:35:19Z</time>
      </trkpt>
      <trkpt lat="49.84837" lon="2.08064">
        <ele>116</ele>
        <time>2023-01-11T13:35:20Z</time>
      </trkpt>
      <trkpt lat="49.84836" lon="2.08064">
        <ele>115.9</ele>
        <time>2023-01-11T13:35:21Z</time>
      </trkpt>
      <trkpt lat="49.84835" lon="2.08063">
        <ele>115.8</ele>
        <time>2023-01-11T13:35:23Z</time>
      </trkpt>
      <trkpt lat="49.84835" lon="2.08063">
        <ele>115.7</ele>
        <time>2023-01-11T13:35:24Z</time>
      </trkpt>
      <trkpt lat="49.84834" lon="2.08062">
        <ele>115.6</ele>
        <time>2023-01-11T13:35:25Z</time>
      </trkpt>
      <trkpt lat="49.84833" lon="2.08061">
        <ele>115.6</ele>
        <time>2023-01-11T13:35:26Z</time>
      </trkpt>
      <trkpt lat="49.84833" lon="2.0806">
        <ele>115.5</ele>
        <time>2023-01-11T13:35:27Z</time>
      </trkpt>
      <trkpt lat="49.84832" lon="2.08059">
        <ele>115.4</ele>
        <time>2023-01-11T13:35:28Z</time>
      </trkpt>
      <trkpt lat="49.84832" lon="2.08059">
        <ele>115.4</ele>
        <time>2023-01-11T13:35:29Z</time>
      </trkpt>
      <trkpt lat="49.84831" lon="2.08059">
        <ele>115.3</ele>
        <time>2023-01-11T13:35:30Z</time>
      </trkpt>
      <trkpt lat="49.8483" lon="2.08058">
        <ele>115.3</ele>
        <time>2023-01-11T13:35:32Z</time>
      </trkpt>
      <trkpt lat="49.8483" lon="2.08059">
        <ele>115.2</ele>
        <time>2023-01-11T13:35:33Z</time>
      </trkpt>
      <trkpt lat="49.84829" lon="2.08058">
        <ele>115.1</ele>
        <time>2023-01-11T13:35:34Z</time>
      </trkpt>
      <trkpt lat="49.84828" lon="2.08058">
        <ele>115.1</ele>
        <time>2023-01-11T13:35:35Z</time>
      </trkpt>
      <trkpt lat="49.84828" lon="2.08057">
        <ele>115</ele>
        <time>2023-01-11T13:35:36Z</time>
      </trkpt>
      <trkpt lat="49.84827" lon="2.08057">
        <ele>114.9</ele>
        <time>2023-01-11T13:35:37Z</time>
      </trkpt>
      <trkpt lat="49.84826" lon="2.08056">
        <ele>114.8</ele>
        <time>2023-01-11T13:35:38Z</time>
      </trkpt>
      <trkpt lat="49.84825" lon="2.08056">
        <ele>114.7</ele>
        <time>2023-01-11T13:35:39Z</time>
      </trkpt>
      <trkpt lat="49.84824" lon="2.08055">
        <ele>114.6</ele>
        <time>2023-01-11T13:35:40Z</time>
      </trkpt>
      <trkpt lat="49.84822" lon="2.08054">
        <ele>114.4</ele>
        <time>2023-01-11T13:35:42Z</time>
      </trkpt>
      <trkpt lat="49.84821" lon="2.08054">
        <ele>114.4</ele>
        <time>2023-01-11T13:35:43Z</time>
      </trkpt>
      <trkpt lat="49.84821" lon="2.08054">
        <ele>114.3</ele>
        <time>2023-01-11T13:35:44Z</time>
      </trkpt>
      <trkpt lat="49.84819" lon="2.08053">
        <ele>114.1</ele>
        <time>2023-01-11T13:35:45Z</time>
      </trkpt>
      <trkpt lat="49.84818" lon="2.08053">
        <ele>114</ele>
        <time>2023-01-11T13:35:46Z</time>
      </trkpt>
      <trkpt lat="49.84817" lon="2.08053">
        <ele>113.9</ele>
        <time>2023-01-11T13:35:47Z</time>
      </trkpt>
      <trkpt lat="49.84816" lon="2.08053">
        <ele>113.8</ele>
        <time>2023-01-11T13:35:48Z</time>
      </trkpt>
      <trkpt lat="49.84815" lon="2.08053">
        <ele>113.8</ele>
        <time>2023-01-11T13:35:49Z</time>
      </trkpt>
      <trkpt lat="49.84814" lon="2.08052">
        <ele>113.7</ele>
        <time>2023-01-11T13:35:50Z</time>
      </trkpt>
      <trkpt lat="49.84812" lon="2.08051">
        <ele>113.5</ele>
        <time>2023-01-11T13:35:51Z</time>
      </trkpt>
      <trkpt lat="49.84811" lon="2.08051">
        <ele>113.4</ele>
        <time>2023-01-11T13:35:52Z</time>
      </trkpt>
      <trkpt lat="49.8481" lon="2.0805">
        <ele>113.3</ele>
        <time>2023-01-11T13:35:54Z</time>
      </trkpt>
      <trkpt lat="49.84809" lon="2.0805">
        <ele>113.2</ele>
        <time>2023-01-11T13:35:55Z</time>
      </trkpt>
      <trkpt lat="49.84808" lon="2.08049">
        <ele>113.1</ele>
        <time>2023-01-11T13:35:56Z</time>
      </trkpt>
      <trkpt lat="49.84807" lon="2.08049">
        <ele>113</ele>
        <time>2023-01-11T13:35:57Z</time>
      </trkpt>
      <trkpt lat="49.84806" lon="2.08048">
        <ele>112.9</ele>
        <time>2023-01-11T13:35:58Z</time>
      </trkpt>
      <trkpt lat="49.84805" lon="2.08047">
        <ele>112.8</ele>
        <time>2023-01-11T13:35:59Z</time>
      </trkpt>
      <trkpt lat="49.84804" lon="2.08046">
        <ele>112.7</ele>
        <time>2023-01-11T13:36:01Z</time>
      </trkpt>
      <trkpt lat="49.84803" lon="2.08045">
        <ele>112.5</ele>
        <time>2023-01-11T13:36:02Z</time>
      </trkpt>
      <trkpt lat="49.84802" lon="2.08044">
        <ele>112.5</ele>
        <time>2023-01-11T13:36:03Z</time>
      </trkpt>
      <trkpt lat="49.84802" lon="2.08043">
        <ele>112.4</ele>
        <time>2023-01-11T13:36:04Z</time>
      </trkpt>
      <trkpt lat="49.848" lon="2.08041">
        <ele>112.2</ele>
        <time>2023-01-11T13:36:05Z</time>
      </trkpt>
      <trkpt lat="49.84799" lon="2.0804">
        <ele>112.1</ele>
        <time>2023-01-11T13:36:06Z</time>
      </trkpt>
      <trkpt lat="49.84798" lon="2.08039">
        <ele>112</ele>
        <time>2023-01-11T13:36:07Z</time>
      </trkpt>
      <trkpt lat="49.84797" lon="2.08039">
        <ele>111.9</ele>
        <time>2023-01-11T13:36:09Z</time>
      </trkpt>
      <trkpt lat="49.84796" lon="2.08038">
        <ele>111.8</ele>
        <time>2023-01-11T13:36:10Z</time>
      </trkpt>
      <trkpt lat="49.84795" lon="2.08037">
        <ele>111.7</ele>
        <time>2023-01-11T13:36:11Z</time>
      </trkpt>
      <trkpt lat="49.84794" lon="2.08036">
        <ele>111.5</ele>
        <time>2023-01-11T13:36:12Z</time>
      </trkpt>
      <trkpt lat="49.84793" lon="2.08036">
        <ele>111.5</ele>
        <time>2023-01-11T13:36:13Z</time>
      </trkpt>
      <trkpt lat="49.84792" lon="2.08035">
        <ele>111.4</ele>
        <time>2023-01-11T13:36:14Z</time>
      </trkpt>
      <trkpt lat="49.84791" lon="2.08034">
        <ele>111.3</ele>
        <time>2023-01-11T13:36:15Z</time>
      </trkpt>
      <trkpt lat="49.8479" lon="2.08033">
        <ele>111.2</ele>
        <time>2023-01-11T13:36:16Z</time>
      </trkpt>
      <trkpt lat="49.84789" lon="2.08032">
        <ele>111</ele>
        <time>2023-01-11T13:36:17Z</time>
      </trkpt>
      <trkpt lat="49.84788" lon="2.08031">
        <ele>110.9</ele>
        <time>2023-01-11T13:36:18Z</time>
      </trkpt>
      <trkpt lat="49.84787" lon="2.08031">
        <ele>110.8</ele>
        <time>2023-01-11T13:36:20Z</time>
      </trkpt>
      <trkpt lat="49.84787" lon="2.0803">
        <ele>110.7</ele>
        <time>2023-01-11T13:36:21Z</time>
      </trkpt>
      <trkpt lat="49.84785" lon="2.08029">
        <ele>110.6</ele>
        <time>2023-01-11T13:36:22Z</time>
      </trkpt>
      <trkpt lat="49.84785" lon="2.08028">
        <ele>110.5</ele>
        <time>2023-01-11T13:36:23Z</time>
      </trkpt>
      <trkpt lat="49.84784" lon="2.08027">
        <ele>110.5</ele>
        <time>2023-01-11T13:36:24Z</time>
      </trkpt>
      <trkpt lat="49.84783" lon="2.08026">
        <ele>110.4</ele>
        <time>2023-01-11T13:36:25Z</time>
      </trkpt>
      <trkpt lat="49.84782" lon="2.08026">
        <ele>110.3</ele>
        <time>2023-01-11T13:36:26Z</time>
      </trkpt>
      <trkpt lat="49.84781" lon="2.08024">
        <ele>110.1</ele>
        <time>2023-01-11T13:36:27Z</time>
      </trkpt>
      <trkpt lat="49.84779" lon="2.08023">
        <ele>110</ele>
        <time>2023-01-11T13:36:28Z</time>
      </trkpt>
      <trkpt lat="49.84778" lon="2.08023">
        <ele>109.9</ele>
        <time>2023-01-11T13:36:30Z</time>
      </trkpt>
      <trkpt lat="49.84778" lon="2.08022">
        <ele>109.8</ele>
        <time>2023-01-11T13:36:31Z</time>
      </trkpt>
      <trkpt lat="49.84777" lon="2.08022">
        <ele>109.7</ele>
        <time>2023-01-11T13:36:32Z</time>
      </trkpt>
      <trkpt lat="49.84776" lon="2.08022">
        <ele>109.7</ele>
        <time>2023-01-11T13:36:33Z</time>
      </trkpt>
      <trkpt lat="49.84775" lon="2.08021">
        <ele>109.6</ele>
        <time>2023-01-11T13:36:35Z</time>
      </trkpt>
      <trkpt lat="49.84774" lon="2.0802">
        <ele>109.5</ele>
        <time>2023-01-11T13:36:36Z</time>
      </trkpt>
      <trkpt lat="49.84773" lon="2.0802">
        <ele>109.4</ele>
        <time>2023-01-11T13:36:37Z</time>
      </trkpt>
      <trkpt lat="49.84772" lon="2.08019">
        <ele>109.2</ele>
        <time>2023-01-11T13:36:38Z</time>
      </trkpt>
      <trkpt lat="49.84771" lon="2.08019">
        <ele>109.1</ele>
        <time>2023-01-11T13:36:39Z</time>
      </trkpt>
      <trkpt lat="49.8477" lon="2.08018">
        <ele>109.1</ele>
        <time>2023-01-11T13:36:40Z</time>
      </trkpt>
      <trkpt lat="49.84769" lon="2.08017">
        <ele>109</ele>
        <time>2023-01-11T13:36:41Z</time>
      </trkpt>
      <trkpt lat="49.84768" lon="2.08017">
        <ele>108.8</ele>
        <time>2023-01-11T13:36:42Z</time>
      </trkpt>
      <trkpt lat="49.84767" lon="2.08016">
        <ele>108.7</ele>
        <time>2023-01-11T13:36:44Z</time>
      </trkpt>
      <trkpt lat="49.84766" lon="2.08015">
        <ele>108.6</ele>
        <time>2023-01-11T13:36:45Z</time>
      </trkpt>
      <trkpt lat="49.84765" lon="2.08015">
        <ele>108.6</ele>
        <time>2023-01-11T13:36:46Z</time>
      </trkpt>
      <trkpt lat="49.84765" lon="2.08015">
        <ele>108.5</ele>
        <time>2023-01-11T13:36:47Z</time>
      </trkpt>
      <trkpt lat="49.84764" lon="2.08014">
        <ele>108.4</ele>
        <time>2023-01-11T13:36:48Z</time>
      </trkpt>
      <trkpt lat="49.84763" lon="2.08014">
        <ele>108.3</ele>
        <time>2023-01-11T13:36:50Z</time>
      </trkpt>
      <trkpt lat="49.84762" lon="2.08013">
        <ele>108.2</ele>
        <time>2023-01-11T13:36:51Z</time>
      </trkpt>
      <trkpt lat="49.84761" lon="2.08012">
        <ele>108.1</ele>
        <time>2023-01-11T13:36:52Z</time>
      </trkpt>
      <trkpt lat="49.84759" lon="2.08011">
        <ele>107.9</ele>
        <time>2023-01-11T13:36:53Z</time>
      </trkpt>
      <trkpt lat="49.84758" lon="2.08011">
        <ele>107.9</ele>
        <time>2023-01-11T13:36:54Z</time>
      </trkpt>
      <trkpt lat="49.84757" lon="2.0801">
        <ele>107.8</ele>
        <time>2023-01-11T13:36:55Z</time>
      </trkpt>
      <trkpt lat="49.84756" lon="2.0801">
        <ele>107.6</ele>
        <time>2023-01-11T13:36:57Z</time>
      </trkpt>
      <trkpt lat="49.84755" lon="2.08009">
        <ele>107.5</ele>
        <time>2023-01-11T13:36:58Z</time>
      </trkpt>
      <trkpt lat="49.84754" lon="2.08008">
        <ele>107.4</ele>
        <time>2023-01-11T13:36:59Z</time>
      </trkpt>
      <trkpt lat="49.84753" lon="2.08008">
        <ele>107.3</ele>
        <time>2023-01-11T13:37:00Z</time>
      </trkpt>
      <trkpt lat="49.84751" lon="2.08006">
        <ele>107.1</ele>
        <time>2023-01-11T13:37:01Z</time>
      </trkpt>
      <trkpt lat="49.84751" lon="2.08006">
        <ele>107</ele>
        <time>2023-01-11T13:37:02Z</time>
      </trkpt>
      <trkpt lat="49.8475" lon="2.08005">
        <ele>106.9</ele>
        <time>2023-01-11T13:37:03Z</time>
      </trkpt>
      <trkpt lat="49.84749" lon="2.08005">
        <ele>106.9</ele>
        <time>2023-01-11T13:37:04Z</time>
      </trkpt>
      <trkpt lat="49.84748" lon="2.08004">
        <ele>106.8</ele>
        <time>2023-01-11T13:37:05Z</time>
      </trkpt>
      <trkpt lat="49.84747" lon="2.08003">
        <ele>106.7</ele>
        <time>2023-01-11T13:37:06Z</time>
      </trkpt>
      <trkpt lat="49.84746" lon="2.08003">
        <ele>106.5</ele>
        <time>2023-01-11T13:37:07Z</time>
      </trkpt>
      <trkpt lat="49.84745" lon="2.08002">
        <ele>106.4</ele>
        <time>2023-01-11T13:37:09Z</time>
      </trkpt>
      <trkpt lat="49.84744" lon="2.08001">
        <ele>106.3</ele>
        <time>2023-01-11T13:37:10Z</time>
      </trkpt>
      <trkpt lat="49.84743" lon="2.08001">
        <ele>106.2</ele>
        <time>2023-01-11T13:37:11Z</time>
      </trkpt>
      <trkpt lat="49.84741" lon="2.07999">
        <ele>106</ele>
        <time>2023-01-11T13:37:12Z</time>
      </trkpt>
      <trkpt lat="49.84741" lon="2.07999">
        <ele>106</ele>
        <time>2023-01-11T13:37:13Z</time>
      </trkpt>
      <trkpt lat="49.8474" lon="2.07998">
        <ele>105.8</ele>
        <time>2023-01-11T13:37:14Z</time>
      </trkpt>
      <trkpt lat="49.84738" lon="2.07998">
        <ele>105.7</ele>
        <time>2023-01-11T13:37:15Z</time>
      </trkpt>
      <trkpt lat="49.84737" lon="2.07997">
        <ele>105.6</ele>
        <time>2023-01-11T13:37:17Z</time>
      </trkpt>
      <trkpt lat="49.84736" lon="2.07996">
        <ele>105.5</ele>
        <time>2023-01-11T13:37:18Z</time>
      </trkpt>
      <trkpt lat="49.84735" lon="2.07995">
        <ele>105.4</ele>
        <time>2023-01-11T13:37:19Z</time>
      </trkpt>
      <trkpt lat="49.84734" lon="2.07995">
        <ele>105.3</ele>
        <time>2023-01-11T13:37:20Z</time>
      </trkpt>
      <trkpt lat="49.84733" lon="2.07994">
        <ele>105.2</ele>
        <time>2023-01-11T13:37:21Z</time>
      </trkpt>
      <trkpt lat="49.84732" lon="2.07993">
        <ele>105.1</ele>
        <time>2023-01-11T13:37:22Z</time>
      </trkpt>
      <trkpt lat="49.84731" lon="2.07992">
        <ele>105</ele>
        <time>2023-01-11T13:37:23Z</time>
      </trkpt>
      <trkpt lat="49.8473" lon="2.07991">
        <ele>105</ele>
        <time>2023-01-11T13:37:24Z</time>
      </trkpt>
      <trkpt lat="49.8473" lon="2.0799">
        <ele>104.9</ele>
        <time>2023-01-11T13:37:25Z</time>
      </trkpt>
      <trkpt lat="49.84729" lon="2.07989">
        <ele>104.8</ele>
        <time>2023-01-11T13:37:27Z</time>
      </trkpt>
      <trkpt lat="49.84728" lon="2.07988">
        <ele>104.7</ele>
        <time>2023-01-11T13:37:28Z</time>
      </trkpt>
      <trkpt lat="49.84726" lon="2.07986">
        <ele>104.6</ele>
        <time>2023-01-11T13:37:29Z</time>
      </trkpt>
      <trkpt lat="49.84726" lon="2.07986">
        <ele>104.5</ele>
        <time>2023-01-11T13:37:30Z</time>
      </trkpt>
      <trkpt lat="49.84725" lon="2.07985">
        <ele>104.5</ele>
        <time>2023-01-11T13:37:31Z</time>
      </trkpt>
      <trkpt lat="49.84725" lon="2.07984">
        <ele>104.4</ele>
        <time>2023-01-11T13:37:32Z</time>
      </trkpt>
      <trkpt lat="49.84724" lon="2.07983">
        <ele>104.4</ele>
        <time>2023-01-11T13:37:33Z</time>
      </trkpt>
      <trkpt lat="49.84723" lon="2.07982">
        <ele>104.3</ele>
        <time>2023-01-11T13:37:34Z</time>
      </trkpt>
      <trkpt lat="49.84722" lon="2.07981">
        <ele>104.2</ele>
        <time>2023-01-11T13:37:36Z</time>
      </trkpt>
      <trkpt lat="49.84721" lon="2.0798">
        <ele>104.2</ele>
        <time>2023-01-11T13:37:37Z</time>
      </trkpt>
      <trkpt lat="49.8472" lon="2.07979">
        <ele>104.1</ele>
        <time>2023-01-11T13:37:38Z</time>
      </trkpt>
      <trkpt lat="49.84719" lon="2.07978">
        <ele>104</ele>
        <time>2023-01-11T13:37:39Z</time>
      </trkpt>
      <trkpt lat="49.84719" lon="2.07977">
        <ele>104</ele>
        <time>2023-01-11T13:37:40Z</time>
      </trkpt>
      <trkpt lat="49.84718" lon="2.07976">
        <ele>103.9</ele>
        <time>2023-01-11T13:37:41Z</time>
      </trkpt>
      <trkpt lat="49.84717" lon="2.07975">
        <ele>103.8</ele>
        <time>2023-01-11T13:37:43Z</time>
      </trkpt>
      <trkpt lat="49.84716" lon="2.07974">
        <ele>103.8</ele>
        <time>2023-01-11T13:37:44Z</time>
      </trkpt>
      <trkpt lat="49.84715" lon="2.07974">
        <ele>103.7</ele>
        <time>2023-01-11T13:37:45Z</time>
      </trkpt>
      <trkpt lat="49.84715" lon="2.07973">
        <ele>103.7</ele>
        <time>2023-01-11T13:37:46Z</time>
      </trkpt>
      <trkpt lat="49.84714" lon="2.07971">
        <ele>103.6</ele>
        <time>2023-01-11T13:37:47Z</time>
      </trkpt>
      <trkpt lat="49.84713" lon="2.0797">
        <ele>103.5</ele>
        <time>2023-01-11T13:37:48Z</time>
      </trkpt>
      <trkpt lat="49.84712" lon="2.07969">
        <ele>103.4</ele>
        <time>2023-01-11T13:37:49Z</time>
      </trkpt>
      <trkpt lat="49.84711" lon="2.07968">
        <ele>103.4</ele>
        <time>2023-01-11T13:37:50Z</time>
      </trkpt>
      <trkpt lat="49.8471" lon="2.07967">
        <ele>103.3</ele>
        <time>2023-01-11T13:37:51Z</time>
      </trkpt>
      <trkpt lat="49.84709" lon="2.07964">
        <ele>103.2</ele>
        <time>2023-01-11T13:37:52Z</time>
      </trkpt>
      <trkpt lat="49.84708" lon="2.07964">
        <ele>103.1</ele>
        <time>2023-01-11T13:37:54Z</time>
      </trkpt>
      <trkpt lat="49.84708" lon="2.07963">
        <ele>103.1</ele>
        <time>2023-01-11T13:37:55Z</time>
      </trkpt>
      <trkpt lat="49.84707" lon="2.07961">
        <ele>103</ele>
        <time>2023-01-11T13:37:56Z</time>
      </trkpt>
      <trkpt lat="49.84706" lon="2.0796">
        <ele>103</ele>
        <time>2023-01-11T13:37:57Z</time>
      </trkpt>
      <trkpt lat="49.84705" lon="2.07959">
        <ele>102.9</ele>
        <time>2023-01-11T13:37:58Z</time>
      </trkpt>
      <trkpt lat="49.84704" lon="2.07958">
        <ele>102.8</ele>
        <time>2023-01-11T13:37:59Z</time>
      </trkpt>
      <trkpt lat="49.84703" lon="2.07957">
        <ele>102.8</ele>
        <time>2023-01-11T13:38:00Z</time>
      </trkpt>
      <trkpt lat="49.84703" lon="2.07956">
        <ele>102.7</ele>
        <time>2023-01-11T13:38:01Z</time>
      </trkpt>
      <trkpt lat="49.84701" lon="2.07954">
        <ele>102.6</ele>
        <time>2023-01-11T13:38:03Z</time>
      </trkpt>
      <trkpt lat="49.84701" lon="2.07954">
        <ele>102.6</ele>
        <time>2023-01-11T13:38:04Z</time>
      </trkpt>
      <trkpt lat="49.847" lon="2.07953">
        <ele>102.5</ele>
        <time>2023-01-11T13:38:05Z</time>
      </trkpt>
      <trkpt lat="49.84699" lon="2.07952">
        <ele>102.5</ele>
        <time>2023-01-11T13:38:06Z</time>
      </trkpt>
      <trkpt lat="49.84699" lon="2.07951">
        <ele>102.4</ele>
        <time>2023-01-11T13:38:07Z</time>
      </trkpt>
      <trkpt lat="49.84697" lon="2.07949">
        <ele>102.3</ele>
        <time>2023-01-11T13:38:08Z</time>
      </trkpt>
      <trkpt lat="49.84697" lon="2.07948">
        <ele>102.3</ele>
        <time>2023-01-11T13:38:09Z</time>
      </trkpt>
      <trkpt lat="49.84696" lon="2.07947">
        <ele>102.2</ele>
        <time>2023-01-11T13:38:11Z</time>
      </trkpt>
      <trkpt lat="49.84695" lon="2.07945">
        <ele>102.1</ele>
        <time>2023-01-11T13:38:12Z</time>
      </trkpt>
      <trkpt lat="49.84694" lon="2.07944">
        <ele>102.1</ele>
        <time>2023-01-11T13:38:13Z</time>
      </trkpt>
      <trkpt lat="49.84694" lon="2.07943">
        <ele>102</ele>
        <time>2023-01-11T13:38:15Z</time>
      </trkpt>
      <trkpt lat="49.84693" lon="2.07941">
        <ele>101.9</ele>
        <time>2023-01-11T13:38:16Z</time>
      </trkpt>
      <trkpt lat="49.84693" lon="2.0794">
        <ele>101.9</ele>
        <time>2023-01-11T13:38:17Z</time>
      </trkpt>
      <trkpt lat="49.84692" lon="2.07938">
        <ele>101.8</ele>
        <time>2023-01-11T13:38:18Z</time>
      </trkpt>
      <trkpt lat="49.84692" lon="2.07937">
        <ele>101.8</ele>
        <time>2023-01-11T13:38:19Z</time>
      </trkpt>
      <trkpt lat="49.84691" lon="2.07936">
        <ele>101.7</ele>
        <time>2023-01-11T13:38:20Z</time>
      </trkpt>
      <trkpt lat="49.84691" lon="2.07935">
        <ele>101.6</ele>
        <time>2023-01-11T13:38:21Z</time>
      </trkpt>
      <trkpt lat="49.8469" lon="2.07933">
        <ele>101.6</ele>
        <time>2023-01-11T13:38:22Z</time>
      </trkpt>
      <trkpt lat="49.84689" lon="2.07932">
        <ele>101.5</ele>
        <time>2023-01-11T13:38:23Z</time>
      </trkpt>
      <trkpt lat="49.84689" lon="2.07931">
        <ele>101.5</ele>
        <time>2023-01-11T13:38:24Z</time>
      </trkpt>
      <trkpt lat="49.84688" lon="2.0793">
        <ele>101.4</ele>
        <time>2023-01-11T13:38:25Z</time>
      </trkpt>
      <trkpt lat="49.84688" lon="2.07929">
        <ele>101.4</ele>
        <time>2023-01-11T13:38:27Z</time>
      </trkpt>
      <trkpt lat="49.84687" lon="2.07927">
        <ele>101.3</ele>
        <time>2023-01-11T13:38:28Z</time>
      </trkpt>
      <trkpt lat="49.84687" lon="2.07926">
        <ele>101.2</ele>
        <time>2023-01-11T13:38:29Z</time>
      </trkpt>
      <trkpt lat="49.84687" lon="2.07925">
        <ele>101.2</ele>
        <time>2023-01-11T13:38:30Z</time>
      </trkpt>
      <trkpt lat="49.84687" lon="2.07924">
        <ele>101.1</ele>
        <time>2023-01-11T13:38:31Z</time>
      </trkpt>
      <trkpt lat="49.84686" lon="2.07922">
        <ele>101.1</ele>
        <time>2023-01-11T13:38:32Z</time>
      </trkpt>
      <trkpt lat="49.84685" lon="2.07919">
        <ele>101</ele>
        <time>2023-01-11T13:38:34Z</time>
      </trkpt>
      <trkpt lat="49.84685" lon="2.07918">
        <ele>100.9</ele>
        <time>2023-01-11T13:38:35Z</time>
      </trkpt>
      <trkpt lat="49.84685" lon="2.07917">
        <ele>100.9</ele>
        <time>2023-01-11T13:38:36Z</time>
      </trkpt>
      <trkpt lat="49.84684" lon="2.07915">
        <ele>100.8</ele>
        <time>2023-01-11T13:38:37Z</time>
      </trkpt>
      <trkpt lat="49.84683" lon="2.07912">
        <ele>100.7</ele>
        <time>2023-01-11T13:38:38Z</time>
      </trkpt>
      <trkpt lat="49.84683" lon="2.07911">
        <ele>100.7</ele>
        <time>2023-01-11T13:38:39Z</time>
      </trkpt>
      <trkpt lat="49.84683" lon="2.07911">
        <ele>100.7</ele>
        <time>2023-01-11T13:38:40Z</time>
      </trkpt>
      <trkpt lat="49.84682" lon="2.0791">
        <ele>100.7</ele>
        <time>2023-01-11T13:38:41Z</time>
      </trkpt>
      <trkpt lat="49.84682" lon="2.07909">
        <ele>100.6</ele>
        <time>2023-01-11T13:38:42Z</time>
      </trkpt>
      <trkpt lat="49.84682" lon="2.07908">
        <ele>100.6</ele>
        <time>2023-01-11T13:38:44Z</time>
      </trkpt>
      <trkpt lat="49.84681" lon="2.07907">
        <ele>100.6</ele>
        <time>2023-01-11T13:38:45Z</time>
      </trkpt>
      <trkpt lat="49.84681" lon="2.07906">
        <ele>100.6</ele>
        <time>2023-01-11T13:38:47Z</time>
      </trkpt>
      <trkpt lat="49.84681" lon="2.07906">
        <ele>100.5</ele>
        <time>2023-01-11T13:38:48Z</time>
      </trkpt>
      <trkpt lat="49.8468" lon="2.07904">
        <ele>100.5</ele>
        <time>2023-01-11T13:38:49Z</time>
      </trkpt>
      <trkpt lat="49.8468" lon="2.07903">
        <ele>100.5</ele>
        <time>2023-01-11T13:38:50Z</time>
      </trkpt>
      <trkpt lat="49.84679" lon="2.07901">
        <ele>100.4</ele>
        <time>2023-01-11T13:38:51Z</time>
      </trkpt>
      <trkpt lat="49.84678" lon="2.079">
        <ele>100.4</ele>
        <time>2023-01-11T13:38:52Z</time>
      </trkpt>
      <trkpt lat="49.84677" lon="2.07898">
        <ele>100.3</ele>
        <time>2023-01-11T13:38:53Z</time>
      </trkpt>
      <trkpt lat="49.84676" lon="2.07895">
        <ele>100.3</ele>
        <time>2023-01-11T13:38:55Z</time>
      </trkpt>
      <trkpt lat="49.84675" lon="2.07894">
        <ele>100.2</ele>
        <time>2023-01-11T13:38:56Z</time>
      </trkpt>
      <trkpt lat="49.84675" lon="2.07893">
        <ele>100.2</ele>
        <time>2023-01-11T13:38:57Z</time>
      </trkpt>
      <trkpt lat="49.84673" lon="2.07889">
        <ele>100.1</ele>
        <time>2023-01-11T13:38:58Z</time>
      </trkpt>
      <trkpt lat="49.84673" lon="2.07887">
        <ele>100.1</ele>
        <time>2023-01-11T13:39:00Z</time>
      </trkpt>
      <trkpt lat="49.84673" lon="2.07886">
        <ele>100.1</ele>
        <time>2023-01-11T13:39:01Z</time>
      </trkpt>
      <trkpt lat="49.84672" lon="2.07884">
        <ele>100</ele>
        <time>2023-01-11T13:39:02Z</time>
      </trkpt>
      <trkpt lat="49.84672" lon="2.07882">
        <ele>100</ele>
        <time>2023-01-11T13:39:03Z</time>
      </trkpt>
      <trkpt lat="49.84672" lon="2.07881">
        <ele>100</ele>
        <time>2023-01-11T13:39:04Z</time>
      </trkpt>
      <trkpt lat="49.84671" lon="2.07879">
        <ele>99.9</ele>
        <time>2023-01-11T13:39:05Z</time>
      </trkpt>
      <trkpt lat="49.84671" lon="2.07878">
        <ele>99.9</ele>
        <time>2023-01-11T13:39:06Z</time>
      </trkpt>
      <trkpt lat="49.84671" lon="2.07876">
        <ele>99.9</ele>
        <time>2023-01-11T13:39:07Z</time>
      </trkpt>
      <trkpt lat="49.8467" lon="2.07874">
        <ele>99.8</ele>
        <time>2023-01-11T13:39:08Z</time>
      </trkpt>
      <trkpt lat="49.8467" lon="2.07872">
        <ele>99.8</ele>
        <time>2023-01-11T13:39:09Z</time>
      </trkpt>
      <trkpt lat="49.8467" lon="2.0787">
        <ele>99.8</ele>
        <time>2023-01-11T13:39:11Z</time>
      </trkpt>
      <trkpt lat="49.8467" lon="2.07868">
        <ele>99.7</ele>
        <time>2023-01-11T13:39:12Z</time>
      </trkpt>
      <trkpt lat="49.84669" lon="2.07865">
        <ele>99.7</ele>
        <time>2023-01-11T13:39:13Z</time>
      </trkpt>
      <trkpt lat="49.84669" lon="2.07864">
        <ele>99.6</ele>
        <time>2023-01-11T13:39:14Z</time>
      </trkpt>
      <trkpt lat="49.84669" lon="2.07862">
        <ele>99.6</ele>
        <time>2023-01-11T13:39:15Z</time>
      </trkpt>
      <trkpt lat="49.84669" lon="2.07861">
        <ele>99.6</ele>
        <time>2023-01-11T13:39:16Z</time>
      </trkpt>
      <trkpt lat="49.84668" lon="2.07859">
        <ele>99.5</ele>
        <time>2023-01-11T13:39:17Z</time>
      </trkpt>
      <trkpt lat="49.84667" lon="2.07856">
        <ele>99.5</ele>
        <time>2023-01-11T13:39:19Z</time>
      </trkpt>
      <trkpt lat="49.84667" lon="2.07855">
        <ele>99.5</ele>
        <time>2023-01-11T13:39:20Z</time>
      </trkpt>
      <trkpt lat="49.84666" lon="2.07854">
        <ele>99.4</ele>
        <time>2023-01-11T13:39:21Z</time>
      </trkpt>
      <trkpt lat="49.84665" lon="2.07852">
        <ele>99.4</ele>
        <time>2023-01-11T13:39:22Z</time>
      </trkpt>
      <trkpt lat="49.84665" lon="2.0785">
        <ele>99.3</ele>
        <time>2023-01-11T13:39:24Z</time>
      </trkpt>
      <trkpt lat="49.84664" lon="2.07848">
        <ele>99.3</ele>
        <time>2023-01-11T13:39:25Z</time>
      </trkpt>
      <trkpt lat="49.84663" lon="2.07845">
        <ele>99.2</ele>
        <time>2023-01-11T13:39:26Z</time>
      </trkpt>
      <trkpt lat="49.84663" lon="2.07843">
        <ele>99.2</ele>
        <time>2023-01-11T13:39:27Z</time>
      </trkpt>
      <trkpt lat="49.84663" lon="2.07842">
        <ele>99.2</ele>
        <time>2023-01-11T13:39:28Z</time>
      </trkpt>
      <trkpt lat="49.84662" lon="2.07841">
        <ele>99.2</ele>
        <time>2023-01-11T13:39:29Z</time>
      </trkpt>
      <trkpt lat="49.84662" lon="2.07841">
        <ele>99.1</ele>
        <time>2023-01-11T13:39:30Z</time>
      </trkpt>
      <trkpt lat="49.84662" lon="2.07839">
        <ele>99.1</ele>
        <time>2023-01-11T13:39:31Z</time>
      </trkpt>
      <trkpt lat="49.84661" lon="2.07838">
        <ele>99.1</ele>
        <time>2023-01-11T13:39:32Z</time>
      </trkpt>
      <trkpt lat="49.84661" lon="2.07837">
        <ele>99.1</ele>
        <time>2023-01-11T13:39:34Z</time>
      </trkpt>
      <trkpt lat="49.8466" lon="2.07836">
        <ele>99</ele>
        <time>2023-01-11T13:39:35Z</time>
      </trkpt>
      <trkpt lat="49.8466" lon="2.07835">
        <ele>99</ele>
        <time>2023-01-11T13:39:36Z</time>
      </trkpt>
      <trkpt lat="49.84659" lon="2.07833">
        <ele>99</ele>
        <time>2023-01-11T13:39:37Z</time>
      </trkpt>
      <trkpt lat="49.84659" lon="2.07829">
        <ele>98.9</ele>
        <time>2023-01-11T13:39:38Z</time>
      </trkpt>
      <trkpt lat="49.84658" lon="2.07828">
        <ele>98.9</ele>
        <time>2023-01-11T13:39:39Z</time>
      </trkpt>
      <trkpt lat="49.84658" lon="2.07826">
        <ele>98.8</ele>
        <time>2023-01-11T13:39:41Z</time>
      </trkpt>
      <trkpt lat="49.84658" lon="2.07825">
        <ele>98.8</ele>
        <time>2023-01-11T13:39:42Z</time>
      </trkpt>
      <trkpt lat="49.84658" lon="2.07823">
        <ele>98.8</ele>
        <time>2023-01-11T13:39:43Z</time>
      </trkpt>
      <trkpt lat="49.84658" lon="2.07822">
        <ele>98.7</ele>
        <time>2023-01-11T13:39:44Z</time>
      </trkpt>
      <trkpt lat="49.84657" lon="2.07819">
        <ele>98.7</ele>
        <time>2023-01-11T13:39:45Z</time>
      </trkpt>
      <trkpt lat="49.84657" lon="2.07818">
        <ele>98.6</ele>
        <time>2023-01-11T13:39:46Z</time>
      </trkpt>
      <trkpt lat="49.84657" lon="2.07816">
        <ele>98.6</ele>
        <time>2023-01-11T13:39:47Z</time>
      </trkpt>
      <trkpt lat="49.84657" lon="2.07814">
        <ele>98.5</ele>
        <time>2023-01-11T13:39:48Z</time>
      </trkpt>
      <trkpt lat="49.84657" lon="2.07812">
        <ele>98.5</ele>
        <time>2023-01-11T13:39:49Z</time>
      </trkpt>
      <trkpt lat="49.84657" lon="2.0781">
        <ele>98.5</ele>
        <time>2023-01-11T13:39:51Z</time>
      </trkpt>
      <trkpt lat="49.84657" lon="2.07809">
        <ele>98.4</ele>
        <time>2023-01-11T13:39:52Z</time>
      </trkpt>
      <trkpt lat="49.84657" lon="2.07807">
        <ele>98.4</ele>
        <time>2023-01-11T13:39:53Z</time>
      </trkpt>
      <trkpt lat="49.84657" lon="2.07805">
        <ele>98.3</ele>
        <time>2023-01-11T13:39:54Z</time>
      </trkpt>
      <trkpt lat="49.84657" lon="2.07803">
        <ele>98.3</ele>
        <time>2023-01-11T13:39:55Z</time>
      </trkpt>
      <trkpt lat="49.84657" lon="2.07801">
        <ele>98.2</ele>
        <time>2023-01-11T13:39:56Z</time>
      </trkpt>
      <trkpt lat="49.84657" lon="2.07799">
        <ele>98.2</ele>
        <time>2023-01-11T13:39:57Z</time>
      </trkpt>
      <trkpt lat="49.84657" lon="2.07797">
        <ele>98.1</ele>
        <time>2023-01-11T13:39:58Z</time>
      </trkpt>
      <trkpt lat="49.84657" lon="2.07796">
        <ele>98.1</ele>
        <time>2023-01-11T13:39:59Z</time>
      </trkpt>
      <trkpt lat="49.84657" lon="2.07795">
        <ele>98.1</ele>
        <time>2023-01-11T13:40:00Z</time>
      </trkpt>
      <trkpt lat="49.84657" lon="2.07793">
        <ele>98</ele>
        <time>2023-01-11T13:40:01Z</time>
      </trkpt>
      <trkpt lat="49.84657" lon="2.07791">
        <ele>97.9</ele>
        <time>2023-01-11T13:40:02Z</time>
      </trkpt>
      <trkpt lat="49.84656" lon="2.07788">
        <ele>97.9</ele>
        <time>2023-01-11T13:40:04Z</time>
      </trkpt>
      <trkpt lat="49.84656" lon="2.07787">
        <ele>97.8</ele>
        <time>2023-01-11T13:40:05Z</time>
      </trkpt>
      <trkpt lat="49.84656" lon="2.07785">
        <ele>97.8</ele>
        <time>2023-01-11T13:40:06Z</time>
      </trkpt>
      <trkpt lat="49.84656" lon="2.07783">
        <ele>97.7</ele>
        <time>2023-01-11T13:40:07Z</time>
      </trkpt>
      <trkpt lat="49.84656" lon="2.07781">
        <ele>97.7</ele>
        <time>2023-01-11T13:40:08Z</time>
      </trkpt>
      <trkpt lat="49.84655" lon="2.07778">
        <ele>97.6</ele>
        <time>2023-01-11T13:40:09Z</time>
      </trkpt>
      <trkpt lat="49.84655" lon="2.07777">
        <ele>97.5</ele>
        <time>2023-01-11T13:40:10Z</time>
      </trkpt>
      <trkpt lat="49.84655" lon="2.07775">
        <ele>97.5</ele>
        <time>2023-01-11T13:40:11Z</time>
      </trkpt>
      <trkpt lat="49.84655" lon="2.07773">
        <ele>97.4</ele>
        <time>2023-01-11T13:40:12Z</time>
      </trkpt>
      <trkpt lat="49.84655" lon="2.0777">
        <ele>97.4</ele>
        <time>2023-01-11T13:40:13Z</time>
      </trkpt>
      <trkpt lat="49.84655" lon="2.07769">
        <ele>97.3</ele>
        <time>2023-01-11T13:40:14Z</time>
      </trkpt>
      <trkpt lat="49.84654" lon="2.07766">
        <ele>97.2</ele>
        <time>2023-01-11T13:40:15Z</time>
      </trkpt>
      <trkpt lat="49.84654" lon="2.07764">
        <ele>97.2</ele>
        <time>2023-01-11T13:40:17Z</time>
      </trkpt>
      <trkpt lat="49.84654" lon="2.07763">
        <ele>97.1</ele>
        <time>2023-01-11T13:40:18Z</time>
      </trkpt>
      <trkpt lat="49.84653" lon="2.0776">
        <ele>97</ele>
        <time>2023-01-11T13:40:19Z</time>
      </trkpt>
      <trkpt lat="49.84653" lon="2.07758">
        <ele>97</ele>
        <time>2023-01-11T13:40:20Z</time>
      </trkpt>
      <trkpt lat="49.84653" lon="2.07757">
        <ele>96.9</ele>
        <time>2023-01-11T13:40:21Z</time>
      </trkpt>
      <trkpt lat="49.84652" lon="2.07755">
        <ele>96.9</ele>
        <time>2023-01-11T13:40:22Z</time>
      </trkpt>
      <trkpt lat="49.84652" lon="2.07753">
        <ele>96.8</ele>
        <time>2023-01-11T13:40:23Z</time>
      </trkpt>
      <trkpt lat="49.84651" lon="2.07751">
        <ele>96.7</ele>
        <time>2023-01-11T13:40:24Z</time>
      </trkpt>
      <trkpt lat="49.84651" lon="2.0775">
        <ele>96.6</ele>
        <time>2023-01-11T13:40:25Z</time>
      </trkpt>
      <trkpt lat="49.8465" lon="2.07748">
        <ele>96.6</ele>
        <time>2023-01-11T13:40:26Z</time>
      </trkpt>
      <trkpt lat="49.8465" lon="2.07746">
        <ele>96.5</ele>
        <time>2023-01-11T13:40:27Z</time>
      </trkpt>
      <trkpt lat="49.84649" lon="2.07744">
        <ele>96.4</ele>
        <time>2023-01-11T13:40:28Z</time>
      </trkpt>
      <trkpt lat="49.84649" lon="2.07742">
        <ele>96.3</ele>
        <time>2023-01-11T13:40:29Z</time>
      </trkpt>
      <trkpt lat="49.84648" lon="2.0774">
        <ele>96.2</ele>
        <time>2023-01-11T13:40:30Z</time>
      </trkpt>
      <trkpt lat="49.84648" lon="2.07738">
        <ele>96.1</ele>
        <time>2023-01-11T13:40:32Z</time>
      </trkpt>
      <trkpt lat="49.84648" lon="2.07737">
        <ele>96</ele>
        <time>2023-01-11T13:40:33Z</time>
      </trkpt>
      <trkpt lat="49.84647" lon="2.07734">
        <ele>95.9</ele>
        <time>2023-01-11T13:40:34Z</time>
      </trkpt>
      <trkpt lat="49.84647" lon="2.07733">
        <ele>95.9</ele>
        <time>2023-01-11T13:40:35Z</time>
      </trkpt>
      <trkpt lat="49.84646" lon="2.0773">
        <ele>95.7</ele>
        <time>2023-01-11T13:40:36Z</time>
      </trkpt>
      <trkpt lat="49.84646" lon="2.07728">
        <ele>95.6</ele>
        <time>2023-01-11T13:40:37Z</time>
      </trkpt>
      <trkpt lat="49.84646" lon="2.07726">
        <ele>95.5</ele>
        <time>2023-01-11T13:40:38Z</time>
      </trkpt>
      <trkpt lat="49.84646" lon="2.07725">
        <ele>95.5</ele>
        <time>2023-01-11T13:40:39Z</time>
      </trkpt>
      <trkpt lat="49.84646" lon="2.07724">
        <ele>95.4</ele>
        <time>2023-01-11T13:40:41Z</time>
      </trkpt>
      <trkpt lat="49.84646" lon="2.07723">
        <ele>95.3</ele>
        <time>2023-01-11T13:40:42Z</time>
      </trkpt>
      <trkpt lat="49.84645" lon="2.07721">
        <ele>95.2</ele>
        <time>2023-01-11T13:40:43Z</time>
      </trkpt>
      <trkpt lat="49.84645" lon="2.07719">
        <ele>95.1</ele>
        <time>2023-01-11T13:40:44Z</time>
      </trkpt>
      <trkpt lat="49.84645" lon="2.07717">
        <ele>94.9</ele>
        <time>2023-01-11T13:40:45Z</time>
      </trkpt>
      <trkpt lat="49.84644" lon="2.07715">
        <ele>94.8</ele>
        <time>2023-01-11T13:40:46Z</time>
      </trkpt>
      <trkpt lat="49.84643" lon="2.07713">
        <ele>94.7</ele>
        <time>2023-01-11T13:40:47Z</time>
      </trkpt>
      <trkpt lat="49.84643" lon="2.07712">
        <ele>94.7</ele>
        <time>2023-01-11T13:40:48Z</time>
      </trkpt>
      <trkpt lat="49.84642" lon="2.07711">
        <ele>94.6</ele>
        <time>2023-01-11T13:40:49Z</time>
      </trkpt>
      <trkpt lat="49.84642" lon="2.07711">
        <ele>94.6</ele>
        <time>2023-01-11T13:40:50Z</time>
      </trkpt>
      <trkpt lat="49.84641" lon="2.07709">
        <ele>94.5</ele>
        <time>2023-01-11T13:40:52Z</time>
      </trkpt>
      <trkpt lat="49.84641" lon="2.07708">
        <ele>94.4</ele>
        <time>2023-01-11T13:40:53Z</time>
      </trkpt>
      <trkpt lat="49.8464" lon="2.07706">
        <ele>94.3</ele>
        <time>2023-01-11T13:40:54Z</time>
      </trkpt>
      <trkpt lat="49.8464" lon="2.07705">
        <ele>94.3</ele>
        <time>2023-01-11T13:40:55Z</time>
      </trkpt>
      <trkpt lat="49.84639" lon="2.07703">
        <ele>94.2</ele>
        <time>2023-01-11T13:40:56Z</time>
      </trkpt>
      <trkpt lat="49.84638" lon="2.077">
        <ele>94.1</ele>
        <time>2023-01-11T13:40:57Z</time>
      </trkpt>
      <trkpt lat="49.84638" lon="2.07699">
        <ele>94</ele>
        <time>2023-01-11T13:40:58Z</time>
      </trkpt>
      <trkpt lat="49.84637" lon="2.07697">
        <ele>93.9</ele>
        <time>2023-01-11T13:40:59Z</time>
      </trkpt>
      <trkpt lat="49.84636" lon="2.07696">
        <ele>93.9</ele>
        <time>2023-01-11T13:41:00Z</time>
      </trkpt>
      <trkpt lat="49.84636" lon="2.07695">
        <ele>93.8</ele>
        <time>2023-01-11T13:41:01Z</time>
      </trkpt>
      <trkpt lat="49.84635" lon="2.07693">
        <ele>93.7</ele>
        <time>2023-01-11T13:41:02Z</time>
      </trkpt>
      <trkpt lat="49.84634" lon="2.07691">
        <ele>93.6</ele>
        <time>2023-01-11T13:41:04Z</time>
      </trkpt>
      <trkpt lat="49.84633" lon="2.0769">
        <ele>93.6</ele>
        <time>2023-01-11T13:41:05Z</time>
      </trkpt>
      <trkpt lat="49.84631" lon="2.07687">
        <ele>93.5</ele>
        <time>2023-01-11T13:41:06Z</time>
      </trkpt>
      <trkpt lat="49.84631" lon="2.07686">
        <ele>93.4</ele>
        <time>2023-01-11T13:41:07Z</time>
      </trkpt>
      <trkpt lat="49.8463" lon="2.07685">
        <ele>93.3</ele>
        <time>2023-01-11T13:41:08Z</time>
      </trkpt>
      <trkpt lat="49.84628" lon="2.07683">
        <ele>93.2</ele>
        <time>2023-01-11T13:41:10Z</time>
      </trkpt>
      <trkpt lat="49.84628" lon="2.07682">
        <ele>93.2</ele>
        <time>2023-01-11T13:41:11Z</time>
      </trkpt>
      <trkpt lat="49.84627" lon="2.07681">
        <ele>93.1</ele>
        <time>2023-01-11T13:41:12Z</time>
      </trkpt>
      <trkpt lat="49.84626" lon="2.07679">
        <ele>93.1</ele>
        <time>2023-01-11T13:41:13Z</time>
      </trkpt>
      <trkpt lat="49.84625" lon="2.07677">
        <ele>93</ele>
        <time>2023-01-11T13:41:14Z</time>
      </trkpt>
      <trkpt lat="49.84624" lon="2.07674">
        <ele>92.8</ele>
        <time>2023-01-11T13:41:16Z</time>
      </trkpt>
      <trkpt lat="49.84623" lon="2.07673">
        <ele>92.8</ele>
        <time>2023-01-11T13:41:17Z</time>
      </trkpt>
      <trkpt lat="49.84623" lon="2.07672">
        <ele>92.8</ele>
        <time>2023-01-11T13:41:18Z</time>
      </trkpt>
      <trkpt lat="49.84622" lon="2.07669">
        <ele>92.6</ele>
        <time>2023-01-11T13:41:19Z</time>
      </trkpt>
      <trkpt lat="49.84622" lon="2.07667">
        <ele>92.6</ele>
        <time>2023-01-11T13:41:20Z</time>
      </trkpt>
      <trkpt lat="49.84621" lon="2.07665">
        <ele>92.5</ele>
        <time>2023-01-11T13:41:21Z</time>
      </trkpt>
      <trkpt lat="49.8462" lon="2.07663">
        <ele>92.4</ele>
        <time>2023-01-11T13:41:23Z</time>
      </trkpt>
      <trkpt lat="49.84619" lon="2.0766">
        <ele>92.3</ele>
        <time>2023-01-11T13:41:24Z</time>
      </trkpt>
      <trkpt lat="49.84619" lon="2.07658">
        <ele>92.2</ele>
        <time>2023-01-11T13:41:25Z</time>
      </trkpt>
      <trkpt lat="49.84618" lon="2.07657">
        <ele>92.2</ele>
        <time>2023-01-11T13:41:26Z</time>
      </trkpt>
      <trkpt lat="49.84618" lon="2.07655">
        <ele>92.1</ele>
        <time>2023-01-11T13:41:27Z</time>
      </trkpt>
      <trkpt lat="49.84618" lon="2.07654">
        <ele>92</ele>
        <time>2023-01-11T13:41:28Z</time>
      </trkpt>
      <trkpt lat="49.84617" lon="2.07652">
        <ele>92</ele>
        <time>2023-01-11T13:41:29Z</time>
      </trkpt>
      <trkpt lat="49.84617" lon="2.0765">
        <ele>91.9</ele>
        <time>2023-01-11T13:41:30Z</time>
      </trkpt>
      <trkpt lat="49.84616" lon="2.07649">
        <ele>91.9</ele>
        <time>2023-01-11T13:41:31Z</time>
      </trkpt>
      <trkpt lat="49.84616" lon="2.07648">
        <ele>91.8</ele>
        <time>2023-01-11T13:41:32Z</time>
      </trkpt>
      <trkpt lat="49.84615" lon="2.07646">
        <ele>91.7</ele>
        <time>2023-01-11T13:41:33Z</time>
      </trkpt>
      <trkpt lat="49.84614" lon="2.07645">
        <ele>91.7</ele>
        <time>2023-01-11T13:41:34Z</time>
      </trkpt>
      <trkpt lat="49.84614" lon="2.07643">
        <ele>91.7</ele>
        <time>2023-01-11T13:41:36Z</time>
      </trkpt>
      <trkpt lat="49.84613" lon="2.07642">
        <ele>91.6</ele>
        <time>2023-01-11T13:41:37Z</time>
      </trkpt>
      <trkpt lat="49.84613" lon="2.0764">
        <ele>91.6</ele>
        <time>2023-01-11T13:41:38Z</time>
      </trkpt>
      <trkpt lat="49.84612" lon="2.07637">
        <ele>91.5</ele>
        <time>2023-01-11T13:41:39Z</time>
      </trkpt>
      <trkpt lat="49.84611" lon="2.07636">
        <ele>91.4</ele>
        <time>2023-01-11T13:41:40Z</time>
      </trkpt>
      <trkpt lat="49.84611" lon="2.07635">
        <ele>91.4</ele>
        <time>2023-01-11T13:41:41Z</time>
      </trkpt>
      <trkpt lat="49.8461" lon="2.07633">
        <ele>91.3</ele>
        <time>2023-01-11T13:41:42Z</time>
      </trkpt>
      <trkpt lat="49.8461" lon="2.07631">
        <ele>91.3</ele>
        <time>2023-01-11T13:41:43Z</time>
      </trkpt>
      <trkpt lat="49.8461" lon="2.07629">
        <ele>91.2</ele>
        <time>2023-01-11T13:41:44Z</time>
      </trkpt>
      <trkpt lat="49.8461" lon="2.07628">
        <ele>91.2</ele>
        <time>2023-01-11T13:41:46Z</time>
      </trkpt>
      <trkpt lat="49.8461" lon="2.07627">
        <ele>91.2</ele>
        <time>2023-01-11T13:41:47Z</time>
      </trkpt>
      <trkpt lat="49.8461" lon="2.07626">
        <ele>91.1</ele>
        <time>2023-01-11T13:41:48Z</time>
      </trkpt>
      <trkpt lat="49.8461" lon="2.07624">
        <ele>91.1</ele>
        <time>2023-01-11T13:41:49Z</time>
      </trkpt>
      <trkpt lat="49.8461" lon="2.07624">
        <ele>91.1</ele>
        <time>2023-01-11T13:41:50Z</time>
      </trkpt>
      <trkpt lat="49.8461" lon="2.07622">
        <ele>91</ele>
        <time>2023-01-11T13:41:51Z</time>
      </trkpt>
      <trkpt lat="49.8461" lon="2.07621">
        <ele>91</ele>
        <time>2023-01-11T13:41:52Z</time>
      </trkpt>
      <trkpt lat="49.8461" lon="2.07619">
        <ele>91</ele>
        <time>2023-01-11T13:41:53Z</time>
      </trkpt>
      <trkpt lat="49.84609" lon="2.07617">
        <ele>90.9</ele>
        <time>2023-01-11T13:41:54Z</time>
      </trkpt>
      <trkpt lat="49.84609" lon="2.07616">
        <ele>90.9</ele>
        <time>2023-01-11T13:41:55Z</time>
      </trkpt>
      <trkpt lat="49.84609" lon="2.07614">
        <ele>90.8</ele>
        <time>2023-01-11T13:41:57Z</time>
      </trkpt>
      <trkpt lat="49.84609" lon="2.07613">
        <ele>90.8</ele>
        <time>2023-01-11T13:41:58Z</time>
      </trkpt>
      <trkpt lat="49.8461" lon="2.07611">
        <ele>90.7</ele>
        <time>2023-01-11T13:41:59Z</time>
      </trkpt>
      <trkpt lat="49.8461" lon="2.07608">
        <ele>90.7</ele>
        <time>2023-01-11T13:42:00Z</time>
      </trkpt>
      <trkpt lat="49.8461" lon="2.07607">
        <ele>90.7</ele>
        <time>2023-01-11T13:42:01Z</time>
      </trkpt>
      <trkpt lat="49.8461" lon="2.07605">
        <ele>90.6</ele>
        <time>2023-01-11T13:42:03Z</time>
      </trkpt>
      <trkpt lat="49.8461" lon="2.07604">
        <ele>90.6</ele>
        <time>2023-01-11T13:42:04Z</time>
      </trkpt>
      <trkpt lat="49.8461" lon="2.07602">
        <ele>90.5</ele>
        <time>2023-01-11T13:42:05Z</time>
      </trkpt>
      <trkpt lat="49.8461" lon="2.07601">
        <ele>90.5</ele>
        <time>2023-01-11T13:42:06Z</time>
      </trkpt>
      <trkpt lat="49.8461" lon="2.07598">
        <ele>90.4</ele>
        <time>2023-01-11T13:42:07Z</time>
      </trkpt>
      <trkpt lat="49.84609" lon="2.07596">
        <ele>90.4</ele>
        <time>2023-01-11T13:42:08Z</time>
      </trkpt>
      <trkpt lat="49.84609" lon="2.07595">
        <ele>90.4</ele>
        <time>2023-01-11T13:42:09Z</time>
      </trkpt>
      <trkpt lat="49.84609" lon="2.07594">
        <ele>90.3</ele>
        <time>2023-01-11T13:42:10Z</time>
      </trkpt>
      <trkpt lat="49.84609" lon="2.07593">
        <ele>90.3</ele>
        <time>2023-01-11T13:42:11Z</time>
      </trkpt>
      <trkpt lat="49.84609" lon="2.07591">
        <ele>90.3</ele>
        <time>2023-01-11T13:42:13Z</time>
      </trkpt>
      <trkpt lat="49.84609" lon="2.07589">
        <ele>90.2</ele>
        <time>2023-01-11T13:42:14Z</time>
      </trkpt>
      <trkpt lat="49.84609" lon="2.07587">
        <ele>90.2</ele>
        <time>2023-01-11T13:42:15Z</time>
      </trkpt>
      <trkpt lat="49.84609" lon="2.07586">
        <ele>90.2</ele>
        <time>2023-01-11T13:42:16Z</time>
      </trkpt>
      <trkpt lat="49.84609" lon="2.07582">
        <ele>90.1</ele>
        <time>2023-01-11T13:42:17Z</time>
      </trkpt>
      <trkpt lat="49.84609" lon="2.07581">
        <ele>90.1</ele>
        <time>2023-01-11T13:42:18Z</time>
      </trkpt>
      <trkpt lat="49.84609" lon="2.0758">
        <ele>90.1</ele>
        <time>2023-01-11T13:42:19Z</time>
      </trkpt>
      <trkpt lat="49.84609" lon="2.07577">
        <ele>90</ele>
        <time>2023-01-11T13:42:20Z</time>
      </trkpt>
      <trkpt lat="49.84609" lon="2.07575">
        <ele>90</ele>
        <time>2023-01-11T13:42:22Z</time>
      </trkpt>
      <trkpt lat="49.8461" lon="2.07574">
        <ele>90</ele>
        <time>2023-01-11T13:42:23Z</time>
      </trkpt>
      <trkpt lat="49.8461" lon="2.07571">
        <ele>89.9</ele>
        <time>2023-01-11T13:42:24Z</time>
      </trkpt>
      <trkpt lat="49.8461" lon="2.0757">
        <ele>89.9</ele>
        <time>2023-01-11T13:42:25Z</time>
      </trkpt>
      <trkpt lat="49.8461" lon="2.07568">
        <ele>89.9</ele>
        <time>2023-01-11T13:42:27Z</time>
      </trkpt>
      <trkpt lat="49.8461" lon="2.07566">
        <ele>89.8</ele>
        <time>2023-01-11T13:42:28Z</time>
      </trkpt>
      <trkpt lat="49.84611" lon="2.07563">
        <ele>89.8</ele>
        <time>2023-01-11T13:42:29Z</time>
      </trkpt>
      <trkpt lat="49.84611" lon="2.07561">
        <ele>89.8</ele>
        <time>2023-01-11T13:42:30Z</time>
      </trkpt>
      <trkpt lat="49.84611" lon="2.07559">
        <ele>89.7</ele>
        <time>2023-01-11T13:42:31Z</time>
      </trkpt>
      <trkpt lat="49.84611" lon="2.07557">
        <ele>89.7</ele>
        <time>2023-01-11T13:42:32Z</time>
      </trkpt>
      <trkpt lat="49.84611" lon="2.07555">
        <ele>89.7</ele>
        <time>2023-01-11T13:42:33Z</time>
      </trkpt>
      <trkpt lat="49.84611" lon="2.07552">
        <ele>89.6</ele>
        <time>2023-01-11T13:42:34Z</time>
      </trkpt>
      <trkpt lat="49.84611" lon="2.0755">
        <ele>89.5</ele>
        <time>2023-01-11T13:42:36Z</time>
      </trkpt>
      <trkpt lat="49.84611" lon="2.07548">
        <ele>89.5</ele>
        <time>2023-01-11T13:42:37Z</time>
      </trkpt>
      <trkpt lat="49.84611" lon="2.07546">
        <ele>89.5</ele>
        <time>2023-01-11T13:42:38Z</time>
      </trkpt>
      <trkpt lat="49.84611" lon="2.07542">
        <ele>89.4</ele>
        <time>2023-01-11T13:42:39Z</time>
      </trkpt>
      <trkpt lat="49.84611" lon="2.0754">
        <ele>89.3</ele>
        <time>2023-01-11T13:42:40Z</time>
      </trkpt>
      <trkpt lat="49.84611" lon="2.07538">
        <ele>89.3</ele>
        <time>2023-01-11T13:42:42Z</time>
      </trkpt>
      <trkpt lat="49.84611" lon="2.07535">
        <ele>89.2</ele>
        <time>2023-01-11T13:42:43Z</time>
      </trkpt>
      <trkpt lat="49.84611" lon="2.07533">
        <ele>89.2</ele>
        <time>2023-01-11T13:42:44Z</time>
      </trkpt>
      <trkpt lat="49.84611" lon="2.0753">
        <ele>89.1</ele>
        <time>2023-01-11T13:42:45Z</time>
      </trkpt>
      <trkpt lat="49.84611" lon="2.07528">
        <ele>89.1</ele>
        <time>2023-01-11T13:42:46Z</time>
      </trkpt>
      <trkpt lat="49.84611" lon="2.07526">
        <ele>89</ele>
        <time>2023-01-11T13:42:47Z</time>
      </trkpt>
      <trkpt lat="49.84611" lon="2.07523">
        <ele>89</ele>
        <time>2023-01-11T13:42:49Z</time>
      </trkpt>
      <trkpt lat="49.84611" lon="2.0752">
        <ele>88.9</ele>
        <time>2023-01-11T13:42:50Z</time>
      </trkpt>
      <trkpt lat="49.84611" lon="2.07519">
        <ele>88.9</ele>
        <time>2023-01-11T13:42:51Z</time>
      </trkpt>
      <trkpt lat="49.84612" lon="2.07515">
        <ele>88.8</ele>
        <time>2023-01-11T13:42:52Z</time>
      </trkpt>
      <trkpt lat="49.84612" lon="2.07514">
        <ele>88.8</ele>
        <time>2023-01-11T13:42:53Z</time>
      </trkpt>
      <trkpt lat="49.84612" lon="2.07512">
        <ele>88.8</ele>
        <time>2023-01-11T13:42:54Z</time>
      </trkpt>
      <trkpt lat="49.84613" lon="2.07509">
        <ele>88.7</ele>
        <time>2023-01-11T13:42:55Z</time>
      </trkpt>
      <trkpt lat="49.84613" lon="2.07508">
        <ele>88.7</ele>
        <time>2023-01-11T13:42:57Z</time>
      </trkpt>
      <trkpt lat="49.84613" lon="2.07506">
        <ele>88.6</ele>
        <time>2023-01-11T13:42:58Z</time>
      </trkpt>
      <trkpt lat="49.84613" lon="2.07505">
        <ele>88.6</ele>
        <time>2023-01-11T13:42:59Z</time>
      </trkpt>
      <trkpt lat="49.84614" lon="2.07502">
        <ele>88.5</ele>
        <time>2023-01-11T13:43:00Z</time>
      </trkpt>
      <trkpt lat="49.84614" lon="2.075">
        <ele>88.5</ele>
        <time>2023-01-11T13:43:01Z</time>
      </trkpt>
      <trkpt lat="49.84614" lon="2.07497">
        <ele>88.4</ele>
        <time>2023-01-11T13:43:03Z</time>
      </trkpt>
      <trkpt lat="49.84614" lon="2.07495">
        <ele>88.4</ele>
        <time>2023-01-11T13:43:04Z</time>
      </trkpt>
      <trkpt lat="49.84615" lon="2.07492">
        <ele>88.3</ele>
        <time>2023-01-11T13:43:05Z</time>
      </trkpt>
      <trkpt lat="49.84615" lon="2.07491">
        <ele>88.3</ele>
        <time>2023-01-11T13:43:06Z</time>
      </trkpt>
      <trkpt lat="49.84615" lon="2.07489">
        <ele>88.3</ele>
        <time>2023-01-11T13:43:07Z</time>
      </trkpt>
      <trkpt lat="49.84615" lon="2.07487">
        <ele>88.2</ele>
        <time>2023-01-11T13:43:08Z</time>
      </trkpt>
      <trkpt lat="49.84615" lon="2.07485">
        <ele>88.2</ele>
        <time>2023-01-11T13:43:09Z</time>
      </trkpt>
      <trkpt lat="49.84615" lon="2.07483">
        <ele>88.1</ele>
        <time>2023-01-11T13:43:10Z</time>
      </trkpt>
      <trkpt lat="49.84615" lon="2.07481">
        <ele>88.1</ele>
        <time>2023-01-11T13:43:11Z</time>
      </trkpt>
      <trkpt lat="49.84615" lon="2.07479">
        <ele>88.1</ele>
        <time>2023-01-11T13:43:12Z</time>
      </trkpt>
      <trkpt lat="49.84615" lon="2.07477">
        <ele>88</ele>
        <time>2023-01-11T13:43:14Z</time>
      </trkpt>
      <trkpt lat="49.84616" lon="2.07474">
        <ele>87.9</ele>
        <time>2023-01-11T13:43:15Z</time>
      </trkpt>
      <trkpt lat="49.84616" lon="2.07473">
        <ele>87.9</ele>
        <time>2023-01-11T13:43:16Z</time>
      </trkpt>
      <trkpt lat="49.84616" lon="2.0747">
        <ele>87.8</ele>
        <time>2023-01-11T13:43:17Z</time>
      </trkpt>
      <trkpt lat="49.84616" lon="2.07468">
        <ele>87.8</ele>
        <time>2023-01-11T13:43:18Z</time>
      </trkpt>
      <trkpt lat="49.84616" lon="2.07467">
        <ele>87.8</ele>
        <time>2023-01-11T13:43:19Z</time>
      </trkpt>
      <trkpt lat="49.84616" lon="2.07465">
        <ele>87.7</ele>
        <time>2023-01-11T13:43:20Z</time>
      </trkpt>
      <trkpt lat="49.84617" lon="2.07464">
        <ele>87.7</ele>
        <time>2023-01-11T13:43:21Z</time>
      </trkpt>
      <trkpt lat="49.84617" lon="2.07462">
        <ele>87.6</ele>
        <time>2023-01-11T13:43:23Z</time>
      </trkpt>
      <trkpt lat="49.84617" lon="2.0746">
        <ele>87.6</ele>
        <time>2023-01-11T13:43:24Z</time>
      </trkpt>
      <trkpt lat="49.84617" lon="2.07457">
        <ele>87.5</ele>
        <time>2023-01-11T13:43:25Z</time>
      </trkpt>
      <trkpt lat="49.84618" lon="2.07455">
        <ele>87.5</ele>
        <time>2023-01-11T13:43:26Z</time>
      </trkpt>
      <trkpt lat="49.84618" lon="2.07453">
        <ele>87.4</ele>
        <time>2023-01-11T13:43:27Z</time>
      </trkpt>
      <trkpt lat="49.84618" lon="2.07451">
        <ele>87.4</ele>
        <time>2023-01-11T13:43:29Z</time>
      </trkpt>
      <trkpt lat="49.84619" lon="2.07448">
        <ele>87.3</ele>
        <time>2023-01-11T13:43:30Z</time>
      </trkpt>
      <trkpt lat="49.84619" lon="2.07446">
        <ele>87.3</ele>
        <time>2023-01-11T13:43:31Z</time>
      </trkpt>
      <trkpt lat="49.84619" lon="2.07445">
        <ele>87.2</ele>
        <time>2023-01-11T13:43:32Z</time>
      </trkpt>
      <trkpt lat="49.8462" lon="2.07443">
        <ele>87.2</ele>
        <time>2023-01-11T13:43:33Z</time>
      </trkpt>
      <trkpt lat="49.8462" lon="2.07442">
        <ele>87.2</ele>
        <time>2023-01-11T13:43:34Z</time>
      </trkpt>
      <trkpt lat="49.8462" lon="2.07439">
        <ele>87.1</ele>
        <time>2023-01-11T13:43:35Z</time>
      </trkpt>
      <trkpt lat="49.84621" lon="2.07437">
        <ele>87.1</ele>
        <time>2023-01-11T13:43:36Z</time>
      </trkpt>
      <trkpt lat="49.84621" lon="2.07436">
        <ele>87</ele>
        <time>2023-01-11T13:43:37Z</time>
      </trkpt>
      <trkpt lat="49.84622" lon="2.07434">
        <ele>87</ele>
        <time>2023-01-11T13:43:38Z</time>
      </trkpt>
      <trkpt lat="49.84623" lon="2.07431">
        <ele>86.9</ele>
        <time>2023-01-11T13:43:40Z</time>
      </trkpt>
      <trkpt lat="49.84623" lon="2.07428">
        <ele>86.8</ele>
        <time>2023-01-11T13:43:41Z</time>
      </trkpt>
      <trkpt lat="49.84624" lon="2.07427">
        <ele>86.8</ele>
        <time>2023-01-11T13:43:42Z</time>
      </trkpt>
      <trkpt lat="49.84624" lon="2.07426">
        <ele>86.8</ele>
        <time>2023-01-11T13:43:43Z</time>
      </trkpt>
      <trkpt lat="49.84625" lon="2.07422">
        <ele>86.7</ele>
        <time>2023-01-11T13:43:45Z</time>
      </trkpt>
      <trkpt lat="49.84626" lon="2.07421">
        <ele>86.7</ele>
        <time>2023-01-11T13:43:46Z</time>
      </trkpt>
      <trkpt lat="49.84626" lon="2.07419">
        <ele>86.6</ele>
        <time>2023-01-11T13:43:47Z</time>
      </trkpt>
      <trkpt lat="49.84627" lon="2.07418">
        <ele>86.6</ele>
        <time>2023-01-11T13:43:48Z</time>
      </trkpt>
      <trkpt lat="49.84627" lon="2.07416">
        <ele>86.6</ele>
        <time>2023-01-11T13:43:49Z</time>
      </trkpt>
      <trkpt lat="49.84628" lon="2.07414">
        <ele>86.5</ele>
        <time>2023-01-11T13:43:50Z</time>
      </trkpt>
      <trkpt lat="49.84628" lon="2.07412">
        <ele>86.5</ele>
        <time>2023-01-11T13:43:51Z</time>
      </trkpt>
      <trkpt lat="49.84629" lon="2.0741">
        <ele>86.5</ele>
        <time>2023-01-11T13:43:52Z</time>
      </trkpt>
      <trkpt lat="49.84629" lon="2.07409">
        <ele>86.4</ele>
        <time>2023-01-11T13:43:53Z</time>
      </trkpt>
      <trkpt lat="49.8463" lon="2.07405">
        <ele>86.4</ele>
        <time>2023-01-11T13:43:55Z</time>
      </trkpt>
      <trkpt lat="49.84631" lon="2.07403">
        <ele>86.4</ele>
        <time>2023-01-11T13:43:57Z</time>
      </trkpt>
      <trkpt lat="49.84631" lon="2.07402">
        <ele>86.3</ele>
        <time>2023-01-11T13:43:58Z</time>
      </trkpt>
      <trkpt lat="49.84631" lon="2.074">
        <ele>86.3</ele>
        <time>2023-01-11T13:43:59Z</time>
      </trkpt>
      <trkpt lat="49.84632" lon="2.07397">
        <ele>86.3</ele>
        <time>2023-01-11T13:44:00Z</time>
      </trkpt>
      <trkpt lat="49.84632" lon="2.07396">
        <ele>86.3</ele>
        <time>2023-01-11T13:44:01Z</time>
      </trkpt>
      <trkpt lat="49.84632" lon="2.07395">
        <ele>86.2</ele>
        <time>2023-01-11T13:44:02Z</time>
      </trkpt>
      <trkpt lat="49.84632" lon="2.07393">
        <ele>86.2</ele>
        <time>2023-01-11T13:44:03Z</time>
      </trkpt>
      <trkpt lat="49.84633" lon="2.07391">
        <ele>86.2</ele>
        <time>2023-01-11T13:44:05Z</time>
      </trkpt>
      <trkpt lat="49.84633" lon="2.0739">
        <ele>86.2</ele>
        <time>2023-01-11T13:44:06Z</time>
      </trkpt>
      <trkpt lat="49.84633" lon="2.07388">
        <ele>86.2</ele>
        <time>2023-01-11T13:44:07Z</time>
      </trkpt>
      <trkpt lat="49.84634" lon="2.07386">
        <ele>86.1</ele>
        <time>2023-01-11T13:44:08Z</time>
      </trkpt>
      <trkpt lat="49.84634" lon="2.07384">
        <ele>86.1</ele>
        <time>2023-01-11T13:44:09Z</time>
      </trkpt>
      <trkpt lat="49.84635" lon="2.07381">
        <ele>86.1</ele>
        <time>2023-01-11T13:44:10Z</time>
      </trkpt>
      <trkpt lat="49.84635" lon="2.07378">
        <ele>86</ele>
        <time>2023-01-11T13:44:11Z</time>
      </trkpt>
      <trkpt lat="49.84636" lon="2.07377">
        <ele>86</ele>
        <time>2023-01-11T13:44:12Z</time>
      </trkpt>
      <trkpt lat="49.84636" lon="2.07376">
        <ele>86</ele>
        <time>2023-01-11T13:44:13Z</time>
      </trkpt>
      <trkpt lat="49.84636" lon="2.07374">
        <ele>86</ele>
        <time>2023-01-11T13:44:14Z</time>
      </trkpt>
      <trkpt lat="49.84637" lon="2.07371">
        <ele>85.9</ele>
        <time>2023-01-11T13:44:15Z</time>
      </trkpt>
      <trkpt lat="49.84637" lon="2.0737">
        <ele>85.9</ele>
        <time>2023-01-11T13:44:17Z</time>
      </trkpt>
      <trkpt lat="49.84638" lon="2.07368">
        <ele>85.9</ele>
        <time>2023-01-11T13:44:18Z</time>
      </trkpt>
      <trkpt lat="49.84638" lon="2.07367">
        <ele>85.9</ele>
        <time>2023-01-11T13:44:19Z</time>
      </trkpt>
      <trkpt lat="49.84639" lon="2.07364">
        <ele>85.8</ele>
        <time>2023-01-11T13:44:20Z</time>
      </trkpt>
      <trkpt lat="49.8464" lon="2.07362">
        <ele>85.8</ele>
        <time>2023-01-11T13:44:21Z</time>
      </trkpt>
      <trkpt lat="49.8464" lon="2.07361">
        <ele>85.8</ele>
        <time>2023-01-11T13:44:22Z</time>
      </trkpt>
      <trkpt lat="49.84641" lon="2.07359">
        <ele>85.8</ele>
        <time>2023-01-11T13:44:23Z</time>
      </trkpt>
      <trkpt lat="49.84641" lon="2.07358">
        <ele>85.8</ele>
        <time>2023-01-11T13:44:24Z</time>
      </trkpt>
      <trkpt lat="49.84642" lon="2.07354">
        <ele>85.7</ele>
        <time>2023-01-11T13:44:25Z</time>
      </trkpt>
      <trkpt lat="49.84643" lon="2.07352">
        <ele>85.7</ele>
        <time>2023-01-11T13:44:27Z</time>
      </trkpt>
      <trkpt lat="49.84644" lon="2.07351">
        <ele>85.7</ele>
        <time>2023-01-11T13:44:28Z</time>
      </trkpt>
      <trkpt lat="49.84644" lon="2.07349">
        <ele>85.6</ele>
        <time>2023-01-11T13:44:29Z</time>
      </trkpt>
      <trkpt lat="49.84645" lon="2.07348">
        <ele>85.6</ele>
        <time>2023-01-11T13:44:30Z</time>
      </trkpt>
      <trkpt lat="49.84645" lon="2.07346">
        <ele>85.6</ele>
        <time>2023-01-11T13:44:31Z</time>
      </trkpt>
      <trkpt lat="49.84646" lon="2.07345">
        <ele>85.6</ele>
        <time>2023-01-11T13:44:32Z</time>
      </trkpt>
      <trkpt lat="49.84646" lon="2.07343">
        <ele>85.6</ele>
        <time>2023-01-11T13:44:33Z</time>
      </trkpt>
      <trkpt lat="49.84647" lon="2.0734">
        <ele>85.5</ele>
        <time>2023-01-11T13:44:35Z</time>
      </trkpt>
      <trkpt lat="49.84647" lon="2.07339">
        <ele>85.5</ele>
        <time>2023-01-11T13:44:36Z</time>
      </trkpt>
      <trkpt lat="49.84648" lon="2.07338">
        <ele>85.5</ele>
        <time>2023-01-11T13:44:37Z</time>
      </trkpt>
      <trkpt lat="49.84648" lon="2.07334">
        <ele>85.5</ele>
        <time>2023-01-11T13:44:38Z</time>
      </trkpt>
      <trkpt lat="49.84649" lon="2.07333">
        <ele>85.4</ele>
        <time>2023-01-11T13:44:39Z</time>
      </trkpt>
      <trkpt lat="49.84649" lon="2.07332">
        <ele>85.4</ele>
        <time>2023-01-11T13:44:40Z</time>
      </trkpt>
      <trkpt lat="49.84649" lon="2.0733">
        <ele>85.4</ele>
        <time>2023-01-11T13:44:41Z</time>
      </trkpt>
      <trkpt lat="49.8465" lon="2.07329">
        <ele>85.4</ele>
        <time>2023-01-11T13:44:42Z</time>
      </trkpt>
      <trkpt lat="49.8465" lon="2.07327">
        <ele>85.4</ele>
        <time>2023-01-11T13:44:43Z</time>
      </trkpt>
      <trkpt lat="49.84651" lon="2.07325">
        <ele>85.4</ele>
        <time>2023-01-11T13:44:44Z</time>
      </trkpt>
      <trkpt lat="49.84652" lon="2.07323">
        <ele>85.3</ele>
        <time>2023-01-11T13:44:46Z</time>
      </trkpt>
      <trkpt lat="49.84652" lon="2.07322">
        <ele>85.3</ele>
        <time>2023-01-11T13:44:47Z</time>
      </trkpt>
      <trkpt lat="49.84653" lon="2.0732">
        <ele>85.3</ele>
        <time>2023-01-11T13:44:48Z</time>
      </trkpt>
      <trkpt lat="49.84653" lon="2.07318">
        <ele>85.3</ele>
        <time>2023-01-11T13:44:49Z</time>
      </trkpt>
      <trkpt lat="49.84654" lon="2.07316">
        <ele>85.2</ele>
        <time>2023-01-11T13:44:50Z</time>
      </trkpt>
      <trkpt lat="49.84654" lon="2.07315">
        <ele>85.2</ele>
        <time>2023-01-11T13:44:51Z</time>
      </trkpt>
      <trkpt lat="49.84655" lon="2.07312">
        <ele>85.2</ele>
        <time>2023-01-11T13:44:52Z</time>
      </trkpt>
      <trkpt lat="49.84656" lon="2.07311">
        <ele>85.2</ele>
        <time>2023-01-11T13:44:53Z</time>
      </trkpt>
      <trkpt lat="49.84656" lon="2.07309">
        <ele>85.2</ele>
        <time>2023-01-11T13:44:54Z</time>
      </trkpt>
      <trkpt lat="49.84658" lon="2.07305">
        <ele>85.1</ele>
        <time>2023-01-11T13:44:55Z</time>
      </trkpt>
      <trkpt lat="49.84658" lon="2.07304">
        <ele>85.1</ele>
        <time>2023-01-11T13:44:57Z</time>
      </trkpt>
      <trkpt lat="49.84659" lon="2.07302">
        <ele>85.1</ele>
        <time>2023-01-11T13:44:58Z</time>
      </trkpt>
      <trkpt lat="49.8466" lon="2.07301">
        <ele>85.1</ele>
        <time>2023-01-11T13:44:59Z</time>
      </trkpt>
      <trkpt lat="49.8466" lon="2.07299">
        <ele>85.1</ele>
        <time>2023-01-11T13:45:00Z</time>
      </trkpt>
      <trkpt lat="49.84661" lon="2.07298">
        <ele>85</ele>
        <time>2023-01-11T13:45:01Z</time>
      </trkpt>
      <trkpt lat="49.84661" lon="2.07297">
        <ele>85</ele>
        <time>2023-01-11T13:45:03Z</time>
      </trkpt>
      <trkpt lat="49.84662" lon="2.07295">
        <ele>85</ele>
        <time>2023-01-11T13:45:04Z</time>
      </trkpt>
      <trkpt lat="49.84663" lon="2.07293">
        <ele>85</ele>
        <time>2023-01-11T13:45:05Z</time>
      </trkpt>
      <trkpt lat="49.84664" lon="2.07292">
        <ele>85</ele>
        <time>2023-01-11T13:45:06Z</time>
      </trkpt>
      <trkpt lat="49.84664" lon="2.07291">
        <ele>85</ele>
        <time>2023-01-11T13:45:07Z</time>
      </trkpt>
      <trkpt lat="49.84665" lon="2.07289">
        <ele>84.9</ele>
        <time>2023-01-11T13:45:08Z</time>
      </trkpt>
      <trkpt lat="49.84666" lon="2.07288">
        <ele>84.9</ele>
        <time>2023-01-11T13:45:09Z</time>
      </trkpt>
      <trkpt lat="49.84667" lon="2.07285">
        <ele>84.9</ele>
        <time>2023-01-11T13:45:11Z</time>
      </trkpt>
      <trkpt lat="49.84667" lon="2.07284">
        <ele>84.9</ele>
        <time>2023-01-11T13:45:12Z</time>
      </trkpt>
      <trkpt lat="49.84668" lon="2.07282">
        <ele>84.9</ele>
        <time>2023-01-11T13:45:13Z</time>
      </trkpt>
      <trkpt lat="49.84668" lon="2.07281">
        <ele>84.8</ele>
        <time>2023-01-11T13:45:14Z</time>
      </trkpt>
      <trkpt lat="49.84669" lon="2.07278">
        <ele>84.8</ele>
        <time>2023-01-11T13:45:15Z</time>
      </trkpt>
      <trkpt lat="49.8467" lon="2.07277">
        <ele>84.8</ele>
        <time>2023-01-11T13:45:16Z</time>
      </trkpt>
      <trkpt lat="49.8467" lon="2.07276">
        <ele>84.8</ele>
        <time>2023-01-11T13:45:17Z</time>
      </trkpt>
      <trkpt lat="49.84671" lon="2.07274">
        <ele>84.8</ele>
        <time>2023-01-11T13:45:19Z</time>
      </trkpt>
      <trkpt lat="49.84671" lon="2.07272">
        <ele>84.8</ele>
        <time>2023-01-11T13:45:20Z</time>
      </trkpt>
      <trkpt lat="49.84672" lon="2.0727">
        <ele>84.7</ele>
        <time>2023-01-11T13:45:21Z</time>
      </trkpt>
      <trkpt lat="49.84673" lon="2.07268">
        <ele>84.7</ele>
        <time>2023-01-11T13:45:22Z</time>
      </trkpt>
      <trkpt lat="49.84673" lon="2.07267">
        <ele>84.7</ele>
        <time>2023-01-11T13:45:23Z</time>
      </trkpt>
      <trkpt lat="49.84674" lon="2.07265">
        <ele>84.7</ele>
        <time>2023-01-11T13:45:25Z</time>
      </trkpt>
      <trkpt lat="49.84675" lon="2.07262">
        <ele>84.6</ele>
        <time>2023-01-11T13:45:26Z</time>
      </trkpt>
      <trkpt lat="49.84676" lon="2.07261">
        <ele>84.6</ele>
        <time>2023-01-11T13:45:27Z</time>
      </trkpt>
      <trkpt lat="49.84677" lon="2.0726">
        <ele>84.6</ele>
        <time>2023-01-11T13:45:28Z</time>
      </trkpt>
      <trkpt lat="49.84677" lon="2.07258">
        <ele>84.6</ele>
        <time>2023-01-11T13:45:29Z</time>
      </trkpt>
      <trkpt lat="49.84678" lon="2.07255">
        <ele>84.6</ele>
        <time>2023-01-11T13:45:31Z</time>
      </trkpt>
      <trkpt lat="49.84679" lon="2.07254">
        <ele>84.6</ele>
        <time>2023-01-11T13:45:32Z</time>
      </trkpt>
      <trkpt lat="49.8468" lon="2.07252">
        <ele>84.5</ele>
        <time>2023-01-11T13:45:33Z</time>
      </trkpt>
      <trkpt lat="49.8468" lon="2.0725">
        <ele>84.5</ele>
        <time>2023-01-11T13:45:34Z</time>
      </trkpt>
      <trkpt lat="49.84681" lon="2.07248">
        <ele>84.5</ele>
        <time>2023-01-11T13:45:35Z</time>
      </trkpt>
      <trkpt lat="49.84682" lon="2.07246">
        <ele>84.5</ele>
        <time>2023-01-11T13:45:36Z</time>
      </trkpt>
      <trkpt lat="49.84682" lon="2.07245">
        <ele>84.5</ele>
        <time>2023-01-11T13:45:37Z</time>
      </trkpt>
      <trkpt lat="49.84683" lon="2.07244">
        <ele>84.5</ele>
        <time>2023-01-11T13:45:38Z</time>
      </trkpt>
      <trkpt lat="49.84684" lon="2.07242">
        <ele>84.5</ele>
        <time>2023-01-11T13:45:40Z</time>
      </trkpt>
      <trkpt lat="49.84685" lon="2.0724">
        <ele>84.4</ele>
        <time>2023-01-11T13:45:41Z</time>
      </trkpt>
      <trkpt lat="49.84685" lon="2.07238">
        <ele>84.4</ele>
        <time>2023-01-11T13:45:42Z</time>
      </trkpt>
      <trkpt lat="49.84686" lon="2.07235">
        <ele>84.4</ele>
        <time>2023-01-11T13:45:43Z</time>
      </trkpt>
      <trkpt lat="49.84687" lon="2.07234">
        <ele>84.4</ele>
        <time>2023-01-11T13:45:44Z</time>
      </trkpt>
      <trkpt lat="49.84687" lon="2.07232">
        <ele>84.4</ele>
        <time>2023-01-11T13:45:45Z</time>
      </trkpt>
      <trkpt lat="49.84688" lon="2.07231">
        <ele>84.4</ele>
        <time>2023-01-11T13:45:46Z</time>
      </trkpt>
      <trkpt lat="49.84688" lon="2.07229">
        <ele>84.4</ele>
        <time>2023-01-11T13:45:47Z</time>
      </trkpt>
      <trkpt lat="49.84689" lon="2.07228">
        <ele>84.3</ele>
        <time>2023-01-11T13:45:49Z</time>
      </trkpt>
      <trkpt lat="49.84689" lon="2.07226">
        <ele>84.3</ele>
        <time>2023-01-11T13:45:50Z</time>
      </trkpt>
      <trkpt lat="49.8469" lon="2.07224">
        <ele>84.3</ele>
        <time>2023-01-11T13:45:51Z</time>
      </trkpt>
      <trkpt lat="49.84691" lon="2.07222">
        <ele>84.3</ele>
        <time>2023-01-11T13:45:52Z</time>
      </trkpt>
      <trkpt lat="49.84691" lon="2.07221">
        <ele>84.3</ele>
        <time>2023-01-11T13:45:53Z</time>
      </trkpt>
      <trkpt lat="49.84692" lon="2.07219">
        <ele>84.3</ele>
        <time>2023-01-11T13:45:54Z</time>
      </trkpt>
      <trkpt lat="49.84693" lon="2.07217">
        <ele>84.2</ele>
        <time>2023-01-11T13:45:55Z</time>
      </trkpt>
      <trkpt lat="49.84694" lon="2.07216">
        <ele>84.2</ele>
        <time>2023-01-11T13:45:56Z</time>
      </trkpt>
      <trkpt lat="49.84694" lon="2.07214">
        <ele>84.2</ele>
        <time>2023-01-11T13:45:58Z</time>
      </trkpt>
      <trkpt lat="49.84695" lon="2.07213">
        <ele>84.2</ele>
        <time>2023-01-11T13:45:59Z</time>
      </trkpt>
      <trkpt lat="49.84696" lon="2.07212">
        <ele>84.2</ele>
        <time>2023-01-11T13:46:00Z</time>
      </trkpt>
      <trkpt lat="49.84697" lon="2.0721">
        <ele>84.1</ele>
        <time>2023-01-11T13:46:01Z</time>
      </trkpt>
      <trkpt lat="49.84697" lon="2.07208">
        <ele>84.1</ele>
        <time>2023-01-11T13:46:02Z</time>
      </trkpt>
      <trkpt lat="49.84699" lon="2.07206">
        <ele>84.1</ele>
        <time>2023-01-11T13:46:03Z</time>
      </trkpt>
      <trkpt lat="49.847" lon="2.07204">
        <ele>84</ele>
        <time>2023-01-11T13:46:04Z</time>
      </trkpt>
      <trkpt lat="49.847" lon="2.07203">
        <ele>84</ele>
        <time>2023-01-11T13:46:05Z</time>
      </trkpt>
      <trkpt lat="49.84701" lon="2.07202">
        <ele>84</ele>
        <time>2023-01-11T13:46:06Z</time>
      </trkpt>
      <trkpt lat="49.84702" lon="2.07201">
        <ele>84</ele>
        <time>2023-01-11T13:46:07Z</time>
      </trkpt>
      <trkpt lat="49.84702" lon="2.07199">
        <ele>83.9</ele>
        <time>2023-01-11T13:46:09Z</time>
      </trkpt>
      <trkpt lat="49.84703" lon="2.07198">
        <ele>83.9</ele>
        <time>2023-01-11T13:46:10Z</time>
      </trkpt>
      <trkpt lat="49.84704" lon="2.07196">
        <ele>83.9</ele>
        <time>2023-01-11T13:46:11Z</time>
      </trkpt>
      <trkpt lat="49.84705" lon="2.07193">
        <ele>83.8</ele>
        <time>2023-01-11T13:46:12Z</time>
      </trkpt>
      <trkpt lat="49.84706" lon="2.07192">
        <ele>83.8</ele>
        <time>2023-01-11T13:46:13Z</time>
      </trkpt>
      <trkpt lat="49.84706" lon="2.07191">
        <ele>83.8</ele>
        <time>2023-01-11T13:46:14Z</time>
      </trkpt>
      <trkpt lat="49.84707" lon="2.07188">
        <ele>83.7</ele>
        <time>2023-01-11T13:46:16Z</time>
      </trkpt>
      <trkpt lat="49.84708" lon="2.07187">
        <ele>83.7</ele>
        <time>2023-01-11T13:46:17Z</time>
      </trkpt>
      <trkpt lat="49.84708" lon="2.07186">
        <ele>83.7</ele>
        <time>2023-01-11T13:46:18Z</time>
      </trkpt>
      <trkpt lat="49.84709" lon="2.07185">
        <ele>83.7</ele>
        <time>2023-01-11T13:46:19Z</time>
      </trkpt>
      <trkpt lat="49.8471" lon="2.07183">
        <ele>83.6</ele>
        <time>2023-01-11T13:46:20Z</time>
      </trkpt>
      <trkpt lat="49.84711" lon="2.07181">
        <ele>83.6</ele>
        <time>2023-01-11T13:46:21Z</time>
      </trkpt>
      <trkpt lat="49.84712" lon="2.0718">
        <ele>83.6</ele>
        <time>2023-01-11T13:46:22Z</time>
      </trkpt>
      <trkpt lat="49.84712" lon="2.07179">
        <ele>83.6</ele>
        <time>2023-01-11T13:46:23Z</time>
      </trkpt>
      <trkpt lat="49.84713" lon="2.07178">
        <ele>83.5</ele>
        <time>2023-01-11T13:46:25Z</time>
      </trkpt>
      <trkpt lat="49.84714" lon="2.07176">
        <ele>83.5</ele>
        <time>2023-01-11T13:46:26Z</time>
      </trkpt>
      <trkpt lat="49.84714" lon="2.07175">
        <ele>83.5</ele>
        <time>2023-01-11T13:46:27Z</time>
      </trkpt>
      <trkpt lat="49.84715" lon="2.07174">
        <ele>83.4</ele>
        <time>2023-01-11T13:46:28Z</time>
      </trkpt>
      <trkpt lat="49.84716" lon="2.07174">
        <ele>83.4</ele>
        <time>2023-01-11T13:46:29Z</time>
      </trkpt>
      <trkpt lat="49.84716" lon="2.07174">
        <ele>83.4</ele>
        <time>2023-01-11T13:46:30Z</time>
      </trkpt>
      <trkpt lat="49.84716" lon="2.07175">
        <ele>83.4</ele>
        <time>2023-01-11T13:46:31Z</time>
      </trkpt>
      <trkpt lat="49.84717" lon="2.07175">
        <ele>83.4</ele>
        <time>2023-01-11T13:46:32Z</time>
      </trkpt>
      <trkpt lat="49.84718" lon="2.07172">
        <ele>83.3</ele>
        <time>2023-01-11T13:46:34Z</time>
      </trkpt>
      <trkpt lat="49.84719" lon="2.07171">
        <ele>83.3</ele>
        <time>2023-01-11T13:46:35Z</time>
      </trkpt>
      <trkpt lat="49.8472" lon="2.0717">
        <ele>83.3</ele>
        <time>2023-01-11T13:46:36Z</time>
      </trkpt>
      <trkpt lat="49.84721" lon="2.07169">
        <ele>83.3</ele>
        <time>2023-01-11T13:46:37Z</time>
      </trkpt>
      <trkpt lat="49.84721" lon="2.07168">
        <ele>83.2</ele>
        <time>2023-01-11T13:46:38Z</time>
      </trkpt>
      <trkpt lat="49.84722" lon="2.07166">
        <ele>83.2</ele>
        <time>2023-01-11T13:46:39Z</time>
      </trkpt>
      <trkpt lat="49.84723" lon="2.07165">
        <ele>83.2</ele>
        <time>2023-01-11T13:46:40Z</time>
      </trkpt>
      <trkpt lat="49.84724" lon="2.07163">
        <ele>83.2</ele>
        <time>2023-01-11T13:46:41Z</time>
      </trkpt>
      <trkpt lat="49.84725" lon="2.07161">
        <ele>83.2</ele>
        <time>2023-01-11T13:46:43Z</time>
      </trkpt>
      <trkpt lat="49.84726" lon="2.0716">
        <ele>83.1</ele>
        <time>2023-01-11T13:46:44Z</time>
      </trkpt>
      <trkpt lat="49.84726" lon="2.0716">
        <ele>83.1</ele>
        <time>2023-01-11T13:46:45Z</time>
      </trkpt>
      <trkpt lat="49.84726" lon="2.07159">
        <ele>83.1</ele>
        <time>2023-01-11T13:46:46Z</time>
      </trkpt>
      <trkpt lat="49.84727" lon="2.07158">
        <ele>83.1</ele>
        <time>2023-01-11T13:46:47Z</time>
      </trkpt>
      <trkpt lat="49.84727" lon="2.07157">
        <ele>83.1</ele>
        <time>2023-01-11T13:46:48Z</time>
      </trkpt>
      <trkpt lat="49.84728" lon="2.07155">
        <ele>83.1</ele>
        <time>2023-01-11T13:46:50Z</time>
      </trkpt>
      <trkpt lat="49.84729" lon="2.07153">
        <ele>83.1</ele>
        <time>2023-01-11T13:46:51Z</time>
      </trkpt>
      <trkpt lat="49.84729" lon="2.07152">
        <ele>83.1</ele>
        <time>2023-01-11T13:46:52Z</time>
      </trkpt>
      <trkpt lat="49.8473" lon="2.0715">
        <ele>83.1</ele>
        <time>2023-01-11T13:46:54Z</time>
      </trkpt>
      <trkpt lat="49.8473" lon="2.0715">
        <ele>83.1</ele>
        <time>2023-01-11T13:46:55Z</time>
      </trkpt>
      <trkpt lat="49.84731" lon="2.0715">
        <ele>83.1</ele>
        <time>2023-01-11T13:46:57Z</time>
      </trkpt>
      <trkpt lat="49.84731" lon="2.0715">
        <ele>83.1</ele>
        <time>2023-01-11T13:46:58Z</time>
      </trkpt>
      <trkpt lat="49.84731" lon="2.07151">
        <ele>83</ele>
        <time>2023-01-11T13:46:59Z</time>
      </trkpt>
      <trkpt lat="49.84731" lon="2.07152">
        <ele>83</ele>
        <time>2023-01-11T13:47:00Z</time>
      </trkpt>
      <trkpt lat="49.84731" lon="2.07152">
        <ele>83</ele>
        <time>2023-01-11T13:47:02Z</time>
      </trkpt>
      <trkpt lat="49.84731" lon="2.07152">
        <ele>83</ele>
        <time>2023-01-11T13:47:04Z</time>
      </trkpt>
      <trkpt lat="49.84731" lon="2.07152">
        <ele>83</ele>
        <time>2023-01-11T13:47:05Z</time>
      </trkpt>
      <trkpt lat="49.84731" lon="2.07153">
        <ele>83</ele>
        <time>2023-01-11T13:47:07Z</time>
      </trkpt>
      <trkpt lat="49.84731" lon="2.07153">
        <ele>83</ele>
        <time>2023-01-11T13:47:08Z</time>
      </trkpt>
      <trkpt lat="49.84731" lon="2.07153">
        <ele>83</ele>
        <time>2023-01-11T13:47:09Z</time>
      </trkpt>
      <trkpt lat="49.84731" lon="2.07153">
        <ele>83</ele>
        <time>2023-01-11T13:47:10Z</time>
      </trkpt>
      <trkpt lat="49.84731" lon="2.07153">
        <ele>83</ele>
        <time>2023-01-11T13:47:12Z</time>
      </trkpt>
      <trkpt lat="49.8473" lon="2.07153">
        <ele>83</ele>
        <time>2023-01-11T13:47:13Z</time>
      </trkpt>
      <trkpt lat="49.8473" lon="2.07153">
        <ele>83</ele>
        <time>2023-01-11T13:47:14Z</time>
      </trkpt>
      <trkpt lat="49.8473" lon="2.07154">
        <ele>83</ele>
        <time>2023-01-11T13:47:15Z</time>
      </trkpt>
      <trkpt lat="49.8473" lon="2.07155">
        <ele>83</ele>
        <time>2023-01-11T13:47:16Z</time>
      </trkpt>
      <trkpt lat="49.8473" lon="2.07155">
        <ele>83</ele>
        <time>2023-01-11T13:47:17Z</time>
      </trkpt>
      <trkpt lat="49.8473" lon="2.07155">
        <ele>83</ele>
        <time>2023-01-11T13:47:18Z</time>
      </trkpt>
      <trkpt lat="49.8473" lon="2.07155">
        <ele>83</ele>
        <time>2023-01-11T13:47:19Z</time>
      </trkpt>
      <trkpt lat="49.8473" lon="2.07155">
        <ele>83</ele>
        <time>2023-01-11T13:47:20Z</time>
      </trkpt>
      <trkpt lat="49.8473" lon="2.07155">
        <ele>83</ele>
        <time>2023-01-11T13:47:21Z</time>
      </trkpt>
      <trkpt lat="49.8473" lon="2.07155">
        <ele>83</ele>
        <time>2023-01-11T13:47:22Z</time>
      </trkpt>
      <trkpt lat="49.8473" lon="2.07155">
        <ele>83</ele>
        <time>2023-01-11T13:47:23Z</time>
      </trkpt>
      <trkpt lat="49.8473" lon="2.07155">
        <ele>83</ele>
        <time>2023-01-11T13:47:24Z</time>
      </trkpt>
      <trkpt lat="49.8473" lon="2.07155">
        <ele>83</ele>
        <time>2023-01-11T13:47:25Z</time>
      </trkpt>
      <trkpt lat="49.8473" lon="2.07155">
        <ele>83</ele>
        <time>2023-01-11T13:47:26Z</time>
      </trkpt>
      <trkpt lat="49.8473" lon="2.07155">
        <ele>83</ele>
        <time>2023-01-11T13:47:27Z</time>
      </trkpt>
      <trkpt lat="49.8473" lon="2.07155">
        <ele>83</ele>
        <time>2023-01-11T13:47:28Z</time>
      </trkpt>
      <trkpt lat="49.8473" lon="2.07155">
        <ele>83</ele>
        <time>2023-01-11T13:47:29Z</time>
      </trkpt>
      <trkpt lat="49.8473" lon="2.07155">
        <ele>83</ele>
        <time>2023-01-11T13:47:30Z</time>
      </trkpt>
      <trkpt lat="49.8473" lon="2.07155">
        <ele>83</ele>
        <time>2023-01-11T13:47:31Z</time>
      </trkpt>
      <trkpt lat="49.8473" lon="2.07155">
        <ele>83</ele>
        <time>2023-01-11T13:47:32Z</time>
      </trkpt>
      <trkpt lat="49.8473" lon="2.07155">
        <ele>83</ele>
        <time>2023-01-11T13:47:33Z</time>
      </trkpt>
      <trkpt lat="49.8473" lon="2.07155">
        <ele>83</ele>
        <time>2023-01-11T13:47:34Z</time>
      </trkpt>
      <trkpt lat="49.8473" lon="2.07155">
        <ele>83</ele>
        <time>2023-01-11T13:47:35Z</time>
      </trkpt>
      <trkpt lat="49.8473" lon="2.07155">
        <ele>83</ele>
        <time>2023-01-11T13:47:36Z</time>
      </trkpt>
      <trkpt lat="49.8473" lon="2.07155">
        <ele>83</ele>
        <time>2023-01-11T13:47:37Z</time>
      </trkpt>
      <trkpt lat="49.8473" lon="2.07155">
        <ele>83</ele>
        <time>2023-01-11T13:47:38Z</time>
      </trkpt>
      <trkpt lat="49.8473" lon="2.07155">
        <ele>83</ele>
        <time>2023-01-11T13:47:39Z</time>
      </trkpt>
      <trkpt lat="49.8473" lon="2.07155">
        <ele>83</ele>
        <time>2023-01-11T13:47:40Z</time>
      </trkpt>
      <trkpt lat="49.8473" lon="2.07155">
        <ele>83</ele>
        <time>2023-01-11T13:47:41Z</time>
      </trkpt>
      <trkpt lat="49.8473" lon="2.07155">
        <ele>83</ele>
        <time>2023-01-11T13:47:42Z</time>
      </trkpt>
      <trkpt lat="49.8473" lon="2.07155">
        <ele>83</ele>
        <time>2023-01-11T13:47:43Z</time>
      </trkpt>
      <trkpt lat="49.8473" lon="2.07155">
        <ele>83</ele>
        <time>2023-01-11T13:47:44Z</time>
      </trkpt>
      <trkpt lat="49.8473" lon="2.07155">
        <ele>83</ele>
        <time>2023-01-11T13:47:45Z</time>
      </trkpt>
      <trkpt lat="49.8473" lon="2.07155">
        <ele>83</ele>
        <time>2023-01-11T13:47:46Z</time>
      </trkpt>
      <trkpt lat="49.8473" lon="2.07155">
        <ele>83</ele>
        <time>2023-01-11T13:47:47Z</time>
      </trkpt>
      <trkpt lat="49.8473" lon="2.07155">
        <ele>83</ele>
        <time>2023-01-11T13:47:48Z</time>
      </trkpt>
      <trkpt lat="49.8473" lon="2.07155">
        <ele>83</ele>
        <time>2023-01-11T13:47:49Z</time>
      </trkpt>
      <trkpt lat="49.8473" lon="2.07155">
        <ele>83</ele>
        <time>2023-01-11T13:47:50Z</time>
      </trkpt>
      <trkpt lat="49.8473" lon="2.07155">
        <ele>83</ele>
        <time>2023-01-11T13:47:51Z</time>
      </trkpt>
      <trkpt lat="49.8473" lon="2.07155">
        <ele>83</ele>
        <time>2023-01-11T13:47:52Z</time>
      </trkpt>
      <trkpt lat="49.8473" lon="2.07155">
        <ele>83</ele>
        <time>2023-01-11T13:47:53Z</time>
      </trkpt>
      <trkpt lat="49.8473" lon="2.07155">
        <ele>83</ele>
        <time>2023-01-11T13:47:54Z</time>
      </trkpt>
      <trkpt lat="49.8473" lon="2.07155">
        <ele>83</ele>
        <time>2023-01-11T13:47:55Z</time>
      </trkpt>
      <trkpt lat="49.8473" lon="2.07155">
        <ele>83</ele>
        <time>2023-01-11T13:47:56Z</time>
      </trkpt>
      <trkpt lat="49.8473" lon="2.07155">
        <ele>83</ele>
        <time>2023-01-11T13:47:57Z</time>
      </trkpt>
      <trkpt lat="49.8473" lon="2.07155">
        <ele>83</ele>
        <time>2023-01-11T13:47:58Z</time>
      </trkpt>
      <trkpt lat="49.8473" lon="2.07155">
        <ele>83</ele>
        <time>2023-01-11T13:47:59Z</time>
      </trkpt>
      <trkpt lat="49.8473" lon="2.07155">
        <ele>83</ele>
        <time>2023-01-11T13:48:00Z</time>
      </trkpt>
      <trkpt lat="49.8473" lon="2.07155">
        <ele>83</ele>
        <time>2023-01-11T13:48:01Z</time>
      </trkpt>
      <trkpt lat="49.8473" lon="2.07155">
        <ele>83</ele>
        <time>2023-01-11T13:48:02Z</time>
      </trkpt>
      <trkpt lat="49.8473" lon="2.07155">
        <ele>83</ele>
        <time>2023-01-11T13:48:03Z</time>
      </trkpt>
      <trkpt lat="49.8473" lon="2.07155">
        <ele>83</ele>
        <time>2023-01-11T13:48:04Z</time>
      </trkpt>
      <trkpt lat="49.8473" lon="2.07155">
        <ele>83</ele>
        <time>2023-01-11T13:48:05Z</time>
      </trkpt>
      <trkpt lat="49.8473" lon="2.07155">
        <ele>83</ele>
        <time>2023-01-11T13:48:06Z</time>
      </trkpt>
      <trkpt lat="49.8473" lon="2.07155">
        <ele>83</ele>
        <time>2023-01-11T13:48:07Z</time>
      </trkpt>
      <trkpt lat="49.8473" lon="2.07155">
        <ele>83</ele>
        <time>2023-01-11T13:48:08Z</time>
      </trkpt>
      <trkpt lat="49.8473" lon="2.07155">
        <ele>83</ele>
        <time>2023-01-11T13:48:09Z</time>
      </trkpt>
      <trkpt lat="49.8473" lon="2.07155">
        <ele>83</ele>
        <time>2023-01-11T13:48:10Z</time>
      </trkpt>
      <trkpt lat="49.8473" lon="2.07155">
        <ele>83</ele>
        <time>2023-01-11T13:48:11Z</time>
      </trkpt>
      <trkpt lat="49.8473" lon="2.07155">
        <ele>83</ele>
        <time>2023-01-11T13:48:12Z</time>
      </trkpt>
      <trkpt lat="49.8473" lon="2.07155">
        <ele>83</ele>
        <time>2023-01-11T13:48:13Z</time>
      </trkpt>
      <trkpt lat="49.8473" lon="2.07155">
        <ele>83</ele>
        <time>2023-01-11T13:48:14Z</time>
      </trkpt>
      <trkpt lat="49.8473" lon="2.07155">
        <ele>83</ele>
        <time>2023-01-11T13:48:15Z</time>
      </trkpt>
      <trkpt lat="49.8473" lon="2.07155">
        <ele>83</ele>
        <time>2023-01-11T13:48:16Z</time>
      </trkpt>
      <trkpt lat="49.8473" lon="2.07155">
        <ele>83</ele>
        <time>2023-01-11T13:48:17Z</time>
      </trkpt>
      <trkpt lat="49.8473" lon="2.07155">
        <ele>83</ele>
        <time>2023-01-11T13:48:18Z</time>
      </trkpt>
      <trkpt lat="49.8473" lon="2.07155">
        <ele>83</ele>
        <time>2023-01-11T13:48:19Z</time>
      </trkpt>
      <trkpt lat="49.8473" lon="2.07155">
        <ele>83</ele>
        <time>2023-01-11T13:48:20Z</time>
      </trkpt>
      <trkpt lat="49.8473" lon="2.07155">
        <ele>83</ele>
        <time>2023-01-11T13:48:21Z</time>
      </trkpt>
      <trkpt lat="49.8473" lon="2.07155">
        <ele>83</ele>
        <time>2023-01-11T13:48:22Z</time>
      </trkpt>
      <trkpt lat="49.8473" lon="2.07155">
        <ele>83</ele>
        <time>2023-01-11T13:48:23Z</time>
      </trkpt>
      <trkpt lat="49.8473" lon="2.07155">
        <ele>83</ele>
        <time>2023-01-11T13:48:24Z</time>
      </trkpt>
      <trkpt lat="49.8473" lon="2.07155">
        <ele>83</ele>
        <time>2023-01-11T13:48:25Z</time>
      </trkpt>
      <trkpt lat="49.8473" lon="2.07155">
        <ele>83</ele>
        <time>2023-01-11T13:48:26Z</time>
      </trkpt>
      <trkpt lat="49.8473" lon="2.07155">
        <ele>83</ele>
        <time>2023-01-11T13:48:27Z</time>
      </trkpt>
      <trkpt lat="49.8473" lon="2.07155">
        <ele>83</ele>
        <time>2023-01-11T13:48:28Z</time>
      </trkpt>
      <trkpt lat="49.8473" lon="2.07155">
        <ele>83</ele>
        <time>2023-01-11T13:48:29Z</time>
      </trkpt>
      <trkpt lat="49.8473" lon="2.07155">
        <ele>83</ele>
        <time>2023-01-11T13:48:30Z</time>
      </trkpt>
      <trkpt lat="49.8473" lon="2.07155">
        <ele>83</ele>
        <time>2023-01-11T13:48:31Z</time>
      </trkpt>
      <trkpt lat="49.8473" lon="2.07155">
        <ele>83</ele>
        <time>2023-01-11T13:48:32Z</time>
      </trkpt>
      <trkpt lat="49.8473" lon="2.07155">
        <ele>83</ele>
        <time>2023-01-11T13:48:33Z</time>
      </trkpt>
      <trkpt lat="49.8473" lon="2.07155">
        <ele>83</ele>
        <time>2023-01-11T13:48:34Z</time>
      </trkpt>
      <trkpt lat="49.8473" lon="2.07155">
        <ele>83</ele>
        <time>2023-01-11T13:48:35Z</time>
      </trkpt>
      <trkpt lat="49.8473" lon="2.07155">
        <ele>83</ele>
        <time>2023-01-11T13:48:36Z</time>
      </trkpt>
      <trkpt lat="49.8473" lon="2.07155">
        <ele>83</ele>
        <time>2023-01-11T13:48:37Z</time>
      </trkpt>
      <trkpt lat="49.8473" lon="2.07155">
        <ele>83</ele>
        <time>2023-01-11T13:48:38Z</time>
      </trkpt>
      <trkpt lat="49.8473" lon="2.07155">
        <ele>83</ele>
        <time>2023-01-11T13:48:39Z</time>
      </trkpt>
      <trkpt lat="49.8473" lon="2.07155">
        <ele>83</ele>
        <time>2023-01-11T13:48:40Z</time>
      </trkpt>
      <trkpt lat="49.8473" lon="2.07155">
        <ele>83</ele>
        <time>2023-01-11T13:48:41Z</time>
      </trkpt>
      <trkpt lat="49.8473" lon="2.07155">
        <ele>83</ele>
        <time>2023-01-11T13:48:42Z</time>
      </trkpt>
      <trkpt lat="49.8473" lon="2.07155">
        <ele>83</ele>
        <time>2023-01-11T13:48:43Z</time>
      </trkpt>
      <trkpt lat="49.8473" lon="2.07155">
        <ele>83</ele>
        <time>2023-01-11T13:48:44Z</time>
      </trkpt>
      <trkpt lat="49.8473" lon="2.07155">
        <ele>83</ele>
        <time>2023-01-11T13:48:45Z</time>
      </trkpt>
      <trkpt lat="49.8473" lon="2.07155">
        <ele>83</ele>
        <time>2023-01-11T13:48:46Z</time>
      </trkpt>
      <trkpt lat="49.8473" lon="2.07155">
        <ele>83</ele>
        <time>2023-01-11T13:48:47Z</time>
      </trkpt>
      <trkpt lat="49.8473" lon="2.07155">
        <ele>83</ele>
        <time>2023-01-11T13:48:48Z</time>
      </trkpt>
      <trkpt lat="49.8473" lon="2.07155">
        <ele>83</ele>
        <time>2023-01-11T13:48:49Z</time>
      </trkpt>
      <trkpt lat="49.8473" lon="2.07155">
        <ele>83</ele>
        <time>2023-01-11T13:48:50Z</time>
      </trkpt>
      <trkpt lat="49.8473" lon="2.07155">
        <ele>83</ele>
        <time>2023-01-11T13:48:51Z</time>
      </trkpt>
      <trkpt lat="49.8473" lon="2.07155">
        <ele>83</ele>
        <time>2023-01-11T13:48:52Z</time>
      </trkpt>
      <trkpt lat="49.8473" lon="2.07155">
        <ele>83</ele>
        <time>2023-01-11T13:48:53Z</time>
      </trkpt>
      <trkpt lat="49.8473" lon="2.07155">
        <ele>83</ele>
        <time>2023-01-11T13:48:54Z</time>
      </trkpt>
      <trkpt lat="49.8473" lon="2.07155">
        <ele>83</ele>
        <time>2023-01-11T13:48:55Z</time>
      </trkpt>
      <trkpt lat="49.8473" lon="2.07155">
        <ele>83</ele>
        <time>2023-01-11T13:48:56Z</time>
      </trkpt>
      <trkpt lat="49.8473" lon="2.07155">
        <ele>83</ele>
        <time>2023-01-11T13:48:57Z</time>
      </trkpt>
      <trkpt lat="49.8473" lon="2.07155">
        <ele>83</ele>
        <time>2023-01-11T13:48:58Z</time>
      </trkpt>
      <trkpt lat="49.8473" lon="2.07155">
        <ele>83</ele>
        <time>2023-01-11T13:48:59Z</time>
      </trkpt>
      <trkpt lat="49.8473" lon="2.07155">
        <ele>83</ele>
        <time>2023-01-11T13:49:00Z</time>
      </trkpt>
      <trkpt lat="49.8473" lon="2.07155">
        <ele>83</ele>
        <time>2023-01-11T13:49:01Z</time>
      </trkpt>
      <trkpt lat="49.8473" lon="2.07155">
        <ele>83</ele>
        <time>2023-01-11T13:49:02Z</time>
      </trkpt>
      <trkpt lat="49.8473" lon="2.07155">
        <ele>83</ele>
        <time>2023-01-11T13:49:03Z</time>
      </trkpt>
      <trkpt lat="49.8473" lon="2.07155">
        <ele>83</ele>
        <time>2023-01-11T13:49:04Z</time>
      </trkpt>
      <trkpt lat="49.8473" lon="2.07155">
        <ele>83</ele>
        <time>2023-01-11T13:49:05Z</time>
      </trkpt>
      <trkpt lat="49.8473" lon="2.07155">
        <ele>83</ele>
        <time>2023-01-11T13:49:06Z</time>
      </trkpt>
      <trkpt lat="49.8473" lon="2.07155">
        <ele>83</ele>
        <time>2023-01-11T13:49:07Z</time>
      </trkpt>
      <trkpt lat="49.8473" lon="2.07155">
        <ele>83</ele>
        <time>2023-01-11T13:49:08Z</time>
      </trkpt>
      <trkpt lat="49.8473" lon="2.07155">
        <ele>83</ele>
        <time>2023-01-11T13:49:09Z</time>
      </trkpt>
      <trkpt lat="49.8473" lon="2.07155">
        <ele>83</ele>
        <time>2023-01-11T13:49:10Z</time>
      </trkpt>
      <trkpt lat="49.8473" lon="2.07155">
        <ele>83</ele>
        <time>2023-01-11T13:49:11Z</time>
      </trkpt>
      <trkpt lat="49.8473" lon="2.07155">
        <ele>83</ele>
        <time>2023-01-11T13:49:12Z</time>
      </trkpt>
      <trkpt lat="49.8473" lon="2.07155">
        <ele>83</ele>
        <time>2023-01-11T13:49:13Z</time>
      </trkpt>
      <trkpt lat="49.8473" lon="2.07155">
        <ele>83</ele>
        <time>2023-01-11T13:49:14Z</time>
      </trkpt>
      <trkpt lat="49.8473" lon="2.07155">
        <ele>83</ele>
        <time>2023-01-11T13:49:15Z</time>
      </trkpt>
      <trkpt lat="49.8473" lon="2.07155">
        <ele>83</ele>
        <time>2023-01-11T13:49:16Z</time>
      </trkpt>
      <trkpt lat="49.8473" lon="2.07155">
        <ele>83</ele>
        <time>2023-01-11T13:49:17Z</time>
      </trkpt>
      <trkpt lat="49.8473" lon="2.07155">
        <ele>83</ele>
        <time>2023-01-11T13:49:18Z</time>
      </trkpt>
      <trkpt lat="49.8473" lon="2.07155">
        <ele>83</ele>
        <time>2023-01-11T13:49:19Z</time>
      </trkpt>
      <trkpt lat="49.8473" lon="2.07155">
        <ele>83</ele>
        <time>2023-01-11T13:49:20Z</time>
      </trkpt>
      <trkpt lat="49.8473" lon="2.07155">
        <ele>83</ele>
        <time>2023-01-11T13:49:21Z</time>
      </trkpt>
      <trkpt lat="49.8473" lon="2.07155">
        <ele>83</ele>
        <time>2023-01-11T13:49:22Z</time>
      </trkpt>
      <trkpt lat="49.8473" lon="2.07155">
        <ele>83</ele>
        <time>2023-01-11T13:49:23Z</time>
      </trkpt>
      <trkpt lat="49.8473" lon="2.07155">
        <ele>83</ele>
        <time>2023-01-11T13:49:24Z</time>
      </trkpt>
      <trkpt lat="49.8473" lon="2.07155">
        <ele>83</ele>
        <time>2023-01-11T13:49:25Z</time>
      </trkpt>
      <trkpt lat="49.8473" lon="2.07155">
        <ele>83</ele>
        <time>2023-01-11T13:49:26Z</time>
      </trkpt>
      <trkpt lat="49.84729" lon="2.07156">
        <ele>83</ele>
        <time>2023-01-11T13:49:27Z</time>
      </trkpt>
      <trkpt lat="49.84729" lon="2.07155">
        <ele>83</ele>
        <time>2023-01-11T13:49:28Z</time>
      </trkpt>
      <trkpt lat="49.84729" lon="2.07155">
        <ele>83</ele>
        <time>2023-01-11T13:49:29Z</time>
      </trkpt>
      <trkpt lat="49.84729" lon="2.07155">
        <ele>83</ele>
        <time>2023-01-11T13:49:30Z</time>
      </trkpt>
      <trkpt lat="49.8473" lon="2.07155">
        <ele>83</ele>
        <time>2023-01-11T13:49:31Z</time>
      </trkpt>
      <trkpt lat="49.8473" lon="2.07155">
        <ele>83</ele>
        <time>2023-01-11T13:49:32Z</time>
      </trkpt>
      <trkpt lat="49.8473" lon="2.07155">
        <ele>83</ele>
        <time>2023-01-11T13:49:33Z</time>
      </trkpt>
      <trkpt lat="49.8473" lon="2.07155">
        <ele>83</ele>
        <time>2023-01-11T13:49:34Z</time>
      </trkpt>
      <trkpt lat="49.8473" lon="2.07155">
        <ele>83</ele>
        <time>2023-01-11T13:49:35Z</time>
      </trkpt>
      <trkpt lat="49.8473" lon="2.07156">
        <ele>83</ele>
        <time>2023-01-11T13:49:37Z</time>
      </trkpt>
      <trkpt lat="49.8473" lon="2.07156">
        <ele>83</ele>
        <time>2023-01-11T13:49:38Z</time>
      </trkpt>
      <trkpt lat="49.8473" lon="2.07155">
        <ele>83</ele>
        <time>2023-01-11T13:49:40Z</time>
      </trkpt>
      <trkpt lat="49.8473" lon="2.07155">
        <ele>83</ele>
        <time>2023-01-11T13:49:41Z</time>
      </trkpt>
      <trkpt lat="49.84731" lon="2.07155">
        <ele>83</ele>
        <time>2023-01-11T13:49:42Z</time>
      </trkpt>
      <trkpt lat="49.84731" lon="2.07155">
        <ele>83</ele>
        <time>2023-01-11T13:49:44Z</time>
      </trkpt>
      <trkpt lat="49.84731" lon="2.07155">
        <ele>83</ele>
        <time>2023-01-11T13:49:45Z</time>
      </trkpt>
      <trkpt lat="49.84731" lon="2.07156">
        <ele>83</ele>
        <time>2023-01-11T13:49:47Z</time>
      </trkpt>
      <trkpt lat="49.84731" lon="2.07156">
        <ele>83</ele>
        <time>2023-01-11T13:49:48Z</time>
      </trkpt>
      <trkpt lat="49.84731" lon="2.07156">
        <ele>83</ele>
        <time>2023-01-11T13:49:49Z</time>
      </trkpt>
      <trkpt lat="49.84731" lon="2.07156">
        <ele>83</ele>
        <time>2023-01-11T13:49:50Z</time>
      </trkpt>
      <trkpt lat="49.84731" lon="2.07156">
        <ele>83</ele>
        <time>2023-01-11T13:49:51Z</time>
      </trkpt>
      <trkpt lat="49.84731" lon="2.07156">
        <ele>83</ele>
        <time>2023-01-11T13:49:52Z</time>
      </trkpt>
      <trkpt lat="49.84731" lon="2.07156">
        <ele>83</ele>
        <time>2023-01-11T13:49:53Z</time>
      </trkpt>
      <trkpt lat="49.84731" lon="2.07156">
        <ele>83</ele>
        <time>2023-01-11T13:49:54Z</time>
      </trkpt>
      <trkpt lat="49.84731" lon="2.07156">
        <ele>83</ele>
        <time>2023-01-11T13:49:55Z</time>
      </trkpt>
      <trkpt lat="49.84731" lon="2.07156">
        <ele>83</ele>
        <time>2023-01-11T13:49:56Z</time>
      </trkpt>
      <trkpt lat="49.84731" lon="2.07156">
        <ele>83</ele>
        <time>2023-01-11T13:49:57Z</time>
      </trkpt>
      <trkpt lat="49.84731" lon="2.07156">
        <ele>83</ele>
        <time>2023-01-11T13:49:58Z</time>
      </trkpt>
      <trkpt lat="49.84731" lon="2.07156">
        <ele>83</ele>
        <time>2023-01-11T13:49:59Z</time>
      </trkpt>
      <trkpt lat="49.84731" lon="2.07156">
        <ele>83</ele>
        <time>2023-01-11T13:50:00Z</time>
      </trkpt>
      <trkpt lat="49.84731" lon="2.07156">
        <ele>83</ele>
        <time>2023-01-11T13:50:01Z</time>
      </trkpt>
      <trkpt lat="49.84731" lon="2.07156">
        <ele>83</ele>
        <time>2023-01-11T13:50:02Z</time>
      </trkpt>
      <trkpt lat="49.84731" lon="2.07156">
        <ele>83</ele>
        <time>2023-01-11T13:50:03Z</time>
      </trkpt>
      <trkpt lat="49.84731" lon="2.07156">
        <ele>83</ele>
        <time>2023-01-11T13:50:04Z</time>
      </trkpt>
      <trkpt lat="49.84731" lon="2.07156">
        <ele>83</ele>
        <time>2023-01-11T13:50:05Z</time>
      </trkpt>
      <trkpt lat="49.84731" lon="2.07156">
        <ele>83</ele>
        <time>2023-01-11T13:50:06Z</time>
      </trkpt>
      <trkpt lat="49.84731" lon="2.07156">
        <ele>83</ele>
        <time>2023-01-11T13:50:07Z</time>
      </trkpt>
      <trkpt lat="49.84731" lon="2.07156">
        <ele>83</ele>
        <time>2023-01-11T13:50:08Z</time>
      </trkpt>
      <trkpt lat="49.84731" lon="2.07156">
        <ele>83</ele>
        <time>2023-01-11T13:50:09Z</time>
      </trkpt>
      <trkpt lat="49.84731" lon="2.07156">
        <ele>83</ele>
        <time>2023-01-11T13:50:10Z</time>
      </trkpt>
      <trkpt lat="49.84731" lon="2.07156">
        <ele>83</ele>
        <time>2023-01-11T13:50:11Z</time>
      </trkpt>
      <trkpt lat="49.84731" lon="2.07156">
        <ele>83</ele>
        <time>2023-01-11T13:50:12Z</time>
      </trkpt>
      <trkpt lat="49.84731" lon="2.07156">
        <ele>83</ele>
        <time>2023-01-11T13:50:13Z</time>
      </trkpt>
      <trkpt lat="49.84731" lon="2.07156">
        <ele>83</ele>
        <time>2023-01-11T13:50:14Z</time>
      </trkpt>
      <trkpt lat="49.84731" lon="2.07156">
        <ele>83</ele>
        <time>2023-01-11T13:50:15Z</time>
      </trkpt>
      <trkpt lat="49.84731" lon="2.07156">
        <ele>83</ele>
        <time>2023-01-11T13:50:16Z</time>
      </trkpt>
      <trkpt lat="49.84731" lon="2.07156">
        <ele>83</ele>
        <time>2023-01-11T13:50:17Z</time>
      </trkpt>
      <trkpt lat="49.84731" lon="2.07156">
        <ele>83</ele>
        <time>2023-01-11T13:50:18Z</time>
      </trkpt>
      <trkpt lat="49.84731" lon="2.07156">
        <ele>83</ele>
        <time>2023-01-11T13:50:19Z</time>
      </trkpt>
      <trkpt lat="49.84731" lon="2.07156">
        <ele>83</ele>
        <time>2023-01-11T13:50:20Z</time>
      </trkpt>
      <trkpt lat="49.84731" lon="2.07156">
        <ele>83</ele>
        <time>2023-01-11T13:50:21Z</time>
      </trkpt>
      <trkpt lat="49.84731" lon="2.07156">
        <ele>83</ele>
        <time>2023-01-11T13:50:22Z</time>
      </trkpt>
      <trkpt lat="49.84731" lon="2.07156">
        <ele>83</ele>
        <time>2023-01-11T13:50:23Z</time>
      </trkpt>
      <trkpt lat="49.84731" lon="2.07156">
        <ele>83</ele>
        <time>2023-01-11T13:50:24Z</time>
      </trkpt>
      <trkpt lat="49.84731" lon="2.07156">
        <ele>83</ele>
        <time>2023-01-11T13:50:25Z</time>
      </trkpt>
      <trkpt lat="49.84731" lon="2.07156">
        <ele>83</ele>
        <time>2023-01-11T13:50:26Z</time>
      </trkpt>
      <trkpt lat="49.84731" lon="2.07156">
        <ele>83</ele>
        <time>2023-01-11T13:50:27Z</time>
      </trkpt>
      <trkpt lat="49.84731" lon="2.07156">
        <ele>83</ele>
        <time>2023-01-11T13:50:28Z</time>
      </trkpt>
      <trkpt lat="49.8473" lon="2.07154">
        <ele>83</ele>
        <time>2023-01-11T13:50:29Z</time>
      </trkpt>
      <trkpt lat="49.8473" lon="2.07153">
        <ele>83</ele>
        <time>2023-01-11T13:50:30Z</time>
      </trkpt>
      <trkpt lat="49.84729" lon="2.07152">
        <ele>83</ele>
        <time>2023-01-11T13:50:31Z</time>
      </trkpt>
      <trkpt lat="49.84729" lon="2.07151">
        <ele>83</ele>
        <time>2023-01-11T13:50:32Z</time>
      </trkpt>
      <trkpt lat="49.84729" lon="2.07151">
        <ele>83</ele>
        <time>2023-01-11T13:50:33Z</time>
      </trkpt>
      <trkpt lat="49.84729" lon="2.07151">
        <ele>83</ele>
        <time>2023-01-11T13:50:34Z</time>
      </trkpt>
      <trkpt lat="49.8473" lon="2.07151">
        <ele>83</ele>
        <time>2023-01-11T13:50:36Z</time>
      </trkpt>
      <trkpt lat="49.8473" lon="2.0715">
        <ele>83</ele>
        <time>2023-01-11T13:50:37Z</time>
      </trkpt>
      <trkpt lat="49.8473" lon="2.07149">
        <ele>83</ele>
        <time>2023-01-11T13:50:38Z</time>
      </trkpt>
      <trkpt lat="49.84731" lon="2.07149">
        <ele>83</ele>
        <time>2023-01-11T13:50:39Z</time>
      </trkpt>
      <trkpt lat="49.84732" lon="2.07149">
        <ele>83</ele>
        <time>2023-01-11T13:50:40Z</time>
      </trkpt>
      <trkpt lat="49.84733" lon="2.07149">
        <ele>83</ele>
        <time>2023-01-11T13:50:41Z</time>
      </trkpt>
      <trkpt lat="49.84733" lon="2.07149">
        <ele>82.9</ele>
        <time>2023-01-11T13:50:42Z</time>
      </trkpt>
      <trkpt lat="49.84734" lon="2.07148">
        <ele>82.9</ele>
        <time>2023-01-11T13:50:43Z</time>
      </trkpt>
      <trkpt lat="49.84735" lon="2.07147">
        <ele>82.9</ele>
        <time>2023-01-11T13:50:45Z</time>
      </trkpt>
      <trkpt lat="49.84736" lon="2.07147">
        <ele>82.9</ele>
        <time>2023-01-11T13:50:46Z</time>
      </trkpt>
      <trkpt lat="49.84737" lon="2.07145">
        <ele>82.9</ele>
        <time>2023-01-11T13:50:47Z</time>
      </trkpt>
      <trkpt lat="49.84738" lon="2.07144">
        <ele>82.9</ele>
        <time>2023-01-11T13:50:48Z</time>
      </trkpt>
      <trkpt lat="49.84739" lon="2.07143">
        <ele>82.9</ele>
        <time>2023-01-11T13:50:49Z</time>
      </trkpt>
      <trkpt lat="49.8474" lon="2.07141">
        <ele>82.9</ele>
        <time>2023-01-11T13:50:50Z</time>
      </trkpt>
      <trkpt lat="49.84741" lon="2.07139">
        <ele>82.9</ele>
        <time>2023-01-11T13:50:52Z</time>
      </trkpt>
      <trkpt lat="49.84741" lon="2.07138">
        <ele>82.9</ele>
        <time>2023-01-11T13:50:53Z</time>
      </trkpt>
      <trkpt lat="49.84742" lon="2.07137">
        <ele>82.8</ele>
        <time>2023-01-11T13:50:54Z</time>
      </trkpt>
      <trkpt lat="49.84743" lon="2.07136">
        <ele>82.8</ele>
        <time>2023-01-11T13:50:55Z</time>
      </trkpt>
      <trkpt lat="49.84744" lon="2.07134">
        <ele>82.8</ele>
        <time>2023-01-11T13:50:57Z</time>
      </trkpt>
      <trkpt lat="49.84744" lon="2.07133">
        <ele>82.8</ele>
        <time>2023-01-11T13:50:58Z</time>
      </trkpt>
      <trkpt lat="49.84745" lon="2.07132">
        <ele>82.8</ele>
        <time>2023-01-11T13:50:59Z</time>
      </trkpt>
      <trkpt lat="49.84746" lon="2.07131">
        <ele>82.8</ele>
        <time>2023-01-11T13:51:00Z</time>
      </trkpt>
      <trkpt lat="49.84748" lon="2.07128">
        <ele>82.7</ele>
        <time>2023-01-11T13:51:01Z</time>
      </trkpt>
      <trkpt lat="49.84748" lon="2.07126">
        <ele>82.7</ele>
        <time>2023-01-11T13:51:02Z</time>
      </trkpt>
      <trkpt lat="49.8475" lon="2.07124">
        <ele>82.7</ele>
        <time>2023-01-11T13:51:03Z</time>
      </trkpt>
      <trkpt lat="49.84751" lon="2.07122">
        <ele>82.7</ele>
        <time>2023-01-11T13:51:04Z</time>
      </trkpt>
      <trkpt lat="49.84751" lon="2.07121">
        <ele>82.7</ele>
        <time>2023-01-11T13:51:06Z</time>
      </trkpt>
      <trkpt lat="49.84752" lon="2.0712">
        <ele>82.6</ele>
        <time>2023-01-11T13:51:07Z</time>
      </trkpt>
      <trkpt lat="49.84753" lon="2.07119">
        <ele>82.6</ele>
        <time>2023-01-11T13:51:08Z</time>
      </trkpt>
      <trkpt lat="49.84754" lon="2.07117">
        <ele>82.6</ele>
        <time>2023-01-11T13:51:09Z</time>
      </trkpt>
      <trkpt lat="49.84755" lon="2.07114">
        <ele>82.6</ele>
        <time>2023-01-11T13:51:11Z</time>
      </trkpt>
      <trkpt lat="49.84757" lon="2.0711">
        <ele>82.5</ele>
        <time>2023-01-11T13:51:12Z</time>
      </trkpt>
      <trkpt lat="49.84758" lon="2.07109">
        <ele>82.5</ele>
        <time>2023-01-11T13:51:13Z</time>
      </trkpt>
      <trkpt lat="49.84759" lon="2.07107">
        <ele>82.4</ele>
        <time>2023-01-11T13:51:14Z</time>
      </trkpt>
      <trkpt lat="49.84761" lon="2.07105">
        <ele>82.4</ele>
        <time>2023-01-11T13:51:15Z</time>
      </trkpt>
      <trkpt lat="49.84762" lon="2.07104">
        <ele>82.4</ele>
        <time>2023-01-11T13:51:16Z</time>
      </trkpt>
      <trkpt lat="49.84763" lon="2.07102">
        <ele>82.3</ele>
        <time>2023-01-11T13:51:17Z</time>
      </trkpt>
      <trkpt lat="49.84764" lon="2.071">
        <ele>82.3</ele>
        <time>2023-01-11T13:51:18Z</time>
      </trkpt>
      <trkpt lat="49.84765" lon="2.07098">
        <ele>82.3</ele>
        <time>2023-01-11T13:51:19Z</time>
      </trkpt>
      <trkpt lat="49.84766" lon="2.07096">
        <ele>82.3</ele>
        <time>2023-01-11T13:51:20Z</time>
      </trkpt>
      <trkpt lat="49.84767" lon="2.07095">
        <ele>82.2</ele>
        <time>2023-01-11T13:51:21Z</time>
      </trkpt>
      <trkpt lat="49.84769" lon="2.07093">
        <ele>82.2</ele>
        <time>2023-01-11T13:51:23Z</time>
      </trkpt>
      <trkpt lat="49.84769" lon="2.07092">
        <ele>82.2</ele>
        <time>2023-01-11T13:51:24Z</time>
      </trkpt>
      <trkpt lat="49.8477" lon="2.07091">
        <ele>82.1</ele>
        <time>2023-01-11T13:51:25Z</time>
      </trkpt>
      <trkpt lat="49.84771" lon="2.07089">
        <ele>82.1</ele>
        <time>2023-01-11T13:51:26Z</time>
      </trkpt>
      <trkpt lat="49.84772" lon="2.07088">
        <ele>82.1</ele>
        <time>2023-01-11T13:51:27Z</time>
      </trkpt>
      <trkpt lat="49.84773" lon="2.07086">
        <ele>82.1</ele>
        <time>2023-01-11T13:51:28Z</time>
      </trkpt>
      <trkpt lat="49.84774" lon="2.07085">
        <ele>82</ele>
        <time>2023-01-11T13:51:29Z</time>
      </trkpt>
      <trkpt lat="49.84775" lon="2.07083">
        <ele>82</ele>
        <time>2023-01-11T13:51:30Z</time>
      </trkpt>
      <trkpt lat="49.84776" lon="2.07081">
        <ele>82</ele>
        <time>2023-01-11T13:51:31Z</time>
      </trkpt>
      <trkpt lat="49.84778" lon="2.07079">
        <ele>82</ele>
        <time>2023-01-11T13:51:32Z</time>
      </trkpt>
      <trkpt lat="49.84779" lon="2.07077">
        <ele>81.9</ele>
        <time>2023-01-11T13:51:33Z</time>
      </trkpt>
      <trkpt lat="49.8478" lon="2.07076">
        <ele>81.9</ele>
        <time>2023-01-11T13:51:34Z</time>
      </trkpt>
      <trkpt lat="49.84781" lon="2.07075">
        <ele>81.9</ele>
        <time>2023-01-11T13:51:36Z</time>
      </trkpt>
      <trkpt lat="49.84782" lon="2.07074">
        <ele>81.9</ele>
        <time>2023-01-11T13:51:37Z</time>
      </trkpt>
      <trkpt lat="49.84783" lon="2.07073">
        <ele>81.9</ele>
        <time>2023-01-11T13:51:38Z</time>
      </trkpt>
      <trkpt lat="49.84784" lon="2.07071">
        <ele>81.8</ele>
        <time>2023-01-11T13:51:39Z</time>
      </trkpt>
      <trkpt lat="49.84785" lon="2.07069">
        <ele>81.8</ele>
        <time>2023-01-11T13:51:40Z</time>
      </trkpt>
      <trkpt lat="49.84786" lon="2.07068">
        <ele>81.8</ele>
        <time>2023-01-11T13:51:41Z</time>
      </trkpt>
      <trkpt lat="49.84787" lon="2.07066">
        <ele>81.8</ele>
        <time>2023-01-11T13:51:43Z</time>
      </trkpt>
      <trkpt lat="49.84789" lon="2.07065">
        <ele>81.7</ele>
        <time>2023-01-11T13:51:44Z</time>
      </trkpt>
      <trkpt lat="49.8479" lon="2.07064">
        <ele>81.7</ele>
        <time>2023-01-11T13:51:45Z</time>
      </trkpt>
      <trkpt lat="49.84791" lon="2.07062">
        <ele>81.7</ele>
        <time>2023-01-11T13:51:46Z</time>
      </trkpt>
      <trkpt lat="49.84793" lon="2.07061">
        <ele>81.7</ele>
        <time>2023-01-11T13:51:48Z</time>
      </trkpt>
      <trkpt lat="49.84794" lon="2.0706">
        <ele>81.6</ele>
        <time>2023-01-11T13:51:49Z</time>
      </trkpt>
      <trkpt lat="49.84795" lon="2.07059">
        <ele>81.6</ele>
        <time>2023-01-11T13:51:50Z</time>
      </trkpt>
      <trkpt lat="49.84796" lon="2.07058">
        <ele>81.6</ele>
        <time>2023-01-11T13:51:51Z</time>
      </trkpt>
      <trkpt lat="49.84797" lon="2.07057">
        <ele>81.6</ele>
        <time>2023-01-11T13:51:52Z</time>
      </trkpt>
      <trkpt lat="49.84799" lon="2.07056">
        <ele>81.6</ele>
        <time>2023-01-11T13:51:53Z</time>
      </trkpt>
      <trkpt lat="49.84801" lon="2.07054">
        <ele>81.5</ele>
        <time>2023-01-11T13:51:55Z</time>
      </trkpt>
      <trkpt lat="49.84801" lon="2.07053">
        <ele>81.5</ele>
        <time>2023-01-11T13:51:56Z</time>
      </trkpt>
      <trkpt lat="49.84802" lon="2.07053">
        <ele>81.5</ele>
        <time>2023-01-11T13:51:57Z</time>
      </trkpt>
      <trkpt lat="49.84803" lon="2.07051">
        <ele>81.5</ele>
        <time>2023-01-11T13:51:58Z</time>
      </trkpt>
      <trkpt lat="49.84804" lon="2.0705">
        <ele>81.5</ele>
        <time>2023-01-11T13:51:59Z</time>
      </trkpt>
      <trkpt lat="49.84806" lon="2.07048">
        <ele>81.4</ele>
        <time>2023-01-11T13:52:00Z</time>
      </trkpt>
      <trkpt lat="49.84807" lon="2.07047">
        <ele>81.4</ele>
        <time>2023-01-11T13:52:01Z</time>
      </trkpt>
      <trkpt lat="49.84808" lon="2.07046">
        <ele>81.4</ele>
        <time>2023-01-11T13:52:03Z</time>
      </trkpt>
      <trkpt lat="49.84809" lon="2.07045">
        <ele>81.4</ele>
        <time>2023-01-11T13:52:04Z</time>
      </trkpt>
      <trkpt lat="49.84809" lon="2.07044">
        <ele>81.4</ele>
        <time>2023-01-11T13:52:05Z</time>
      </trkpt>
      <trkpt lat="49.84811" lon="2.07042">
        <ele>81.4</ele>
        <time>2023-01-11T13:52:06Z</time>
      </trkpt>
      <trkpt lat="49.84811" lon="2.07041">
        <ele>81.4</ele>
        <time>2023-01-11T13:52:07Z</time>
      </trkpt>
      <trkpt lat="49.84812" lon="2.0704">
        <ele>81.3</ele>
        <time>2023-01-11T13:52:08Z</time>
      </trkpt>
      <trkpt lat="49.84813" lon="2.07039">
        <ele>81.3</ele>
        <time>2023-01-11T13:52:09Z</time>
      </trkpt>
      <trkpt lat="49.84813" lon="2.07038">
        <ele>81.3</ele>
        <time>2023-01-11T13:52:10Z</time>
      </trkpt>
      <trkpt lat="49.84814" lon="2.07036">
        <ele>81.3</ele>
        <time>2023-01-11T13:52:11Z</time>
      </trkpt>
      <trkpt lat="49.84815" lon="2.07035">
        <ele>81.3</ele>
        <time>2023-01-11T13:52:12Z</time>
      </trkpt>
      <trkpt lat="49.84816" lon="2.07033">
        <ele>81.3</ele>
        <time>2023-01-11T13:52:13Z</time>
      </trkpt>
      <trkpt lat="49.84817" lon="2.07032">
        <ele>81.2</ele>
        <time>2023-01-11T13:52:15Z</time>
      </trkpt>
      <trkpt lat="49.84819" lon="2.0703">
        <ele>81.2</ele>
        <time>2023-01-11T13:52:16Z</time>
      </trkpt>
      <trkpt lat="49.8482" lon="2.07029">
        <ele>81.2</ele>
        <time>2023-01-11T13:52:17Z</time>
      </trkpt>
      <trkpt lat="49.8482" lon="2.07028">
        <ele>81.2</ele>
        <time>2023-01-11T13:52:18Z</time>
      </trkpt>
      <trkpt lat="49.84821" lon="2.07026">
        <ele>81.2</ele>
        <time>2023-01-11T13:52:19Z</time>
      </trkpt>
      <trkpt lat="49.84822" lon="2.07025">
        <ele>81.1</ele>
        <time>2023-01-11T13:52:20Z</time>
      </trkpt>
      <trkpt lat="49.84824" lon="2.07023">
        <ele>81.1</ele>
        <time>2023-01-11T13:52:22Z</time>
      </trkpt>
      <trkpt lat="49.84825" lon="2.07021">
        <ele>81.1</ele>
        <time>2023-01-11T13:52:23Z</time>
      </trkpt>
      <trkpt lat="49.84826" lon="2.07019">
        <ele>81</ele>
        <time>2023-01-11T13:52:24Z</time>
      </trkpt>
      <trkpt lat="49.84827" lon="2.07017">
        <ele>81</ele>
        <time>2023-01-11T13:52:25Z</time>
      </trkpt>
      <trkpt lat="49.84828" lon="2.07016">
        <ele>81</ele>
        <time>2023-01-11T13:52:26Z</time>
      </trkpt>
      <trkpt lat="49.84829" lon="2.07015">
        <ele>81</ele>
        <time>2023-01-11T13:52:27Z</time>
      </trkpt>
      <trkpt lat="49.8483" lon="2.07013">
        <ele>80.9</ele>
        <time>2023-01-11T13:52:28Z</time>
      </trkpt>
      <trkpt lat="49.84831" lon="2.07012">
        <ele>80.9</ele>
        <time>2023-01-11T13:52:30Z</time>
      </trkpt>
      <trkpt lat="49.84832" lon="2.07011">
        <ele>80.9</ele>
        <time>2023-01-11T13:52:31Z</time>
      </trkpt>
      <trkpt lat="49.84833" lon="2.0701">
        <ele>80.9</ele>
        <time>2023-01-11T13:52:32Z</time>
      </trkpt>
      <trkpt lat="49.84834" lon="2.07009">
        <ele>80.8</ele>
        <time>2023-01-11T13:52:33Z</time>
      </trkpt>
      <trkpt lat="49.84836" lon="2.07007">
        <ele>80.8</ele>
        <time>2023-01-11T13:52:34Z</time>
      </trkpt>
      <trkpt lat="49.84837" lon="2.07006">
        <ele>80.8</ele>
        <time>2023-01-11T13:52:35Z</time>
      </trkpt>
      <trkpt lat="49.84838" lon="2.07005">
        <ele>80.7</ele>
        <time>2023-01-11T13:52:36Z</time>
      </trkpt>
      <trkpt lat="49.84839" lon="2.07004">
        <ele>80.7</ele>
        <time>2023-01-11T13:52:37Z</time>
      </trkpt>
      <trkpt lat="49.8484" lon="2.07003">
        <ele>80.7</ele>
        <time>2023-01-11T13:52:39Z</time>
      </trkpt>
      <trkpt lat="49.84842" lon="2.07001">
        <ele>80.7</ele>
        <time>2023-01-11T13:52:40Z</time>
      </trkpt>
      <trkpt lat="49.84843" lon="2.07">
        <ele>80.6</ele>
        <time>2023-01-11T13:52:41Z</time>
      </trkpt>
      <trkpt lat="49.84843" lon="2.06999">
        <ele>80.6</ele>
        <time>2023-01-11T13:52:42Z</time>
      </trkpt>
      <trkpt lat="49.84845" lon="2.06997">
        <ele>80.6</ele>
        <time>2023-01-11T13:52:43Z</time>
      </trkpt>
      <trkpt lat="49.84846" lon="2.06996">
        <ele>80.6</ele>
        <time>2023-01-11T13:52:44Z</time>
      </trkpt>
      <trkpt lat="49.84846" lon="2.06996">
        <ele>80.6</ele>
        <time>2023-01-11T13:52:45Z</time>
      </trkpt>
      <trkpt lat="49.84847" lon="2.06994">
        <ele>80.5</ele>
        <time>2023-01-11T13:52:46Z</time>
      </trkpt>
      <trkpt lat="49.84848" lon="2.06993">
        <ele>80.5</ele>
        <time>2023-01-11T13:52:48Z</time>
      </trkpt>
      <trkpt lat="49.84849" lon="2.06992">
        <ele>80.5</ele>
        <time>2023-01-11T13:52:49Z</time>
      </trkpt>
      <trkpt lat="49.84851" lon="2.0699">
        <ele>80.5</ele>
        <time>2023-01-11T13:52:50Z</time>
      </trkpt>
      <trkpt lat="49.84851" lon="2.06989">
        <ele>80.4</ele>
        <time>2023-01-11T13:52:51Z</time>
      </trkpt>
      <trkpt lat="49.84852" lon="2.06989">
        <ele>80.4</ele>
        <time>2023-01-11T13:52:52Z</time>
      </trkpt>
      <trkpt lat="49.84853" lon="2.06987">
        <ele>80.4</ele>
        <time>2023-01-11T13:52:53Z</time>
      </trkpt>
      <trkpt lat="49.84854" lon="2.06985">
        <ele>80.4</ele>
        <time>2023-01-11T13:52:54Z</time>
      </trkpt>
      <trkpt lat="49.84855" lon="2.06983">
        <ele>80.3</ele>
        <time>2023-01-11T13:52:55Z</time>
      </trkpt>
      <trkpt lat="49.84856" lon="2.06982">
        <ele>80.3</ele>
        <time>2023-01-11T13:52:56Z</time>
      </trkpt>
      <trkpt lat="49.84857" lon="2.06981">
        <ele>80.3</ele>
        <time>2023-01-11T13:52:57Z</time>
      </trkpt>
      <trkpt lat="49.84858" lon="2.06979">
        <ele>80.3</ele>
        <time>2023-01-11T13:52:59Z</time>
      </trkpt>
      <trkpt lat="49.84859" lon="2.06977">
        <ele>80.2</ele>
        <time>2023-01-11T13:53:00Z</time>
      </trkpt>
      <trkpt lat="49.8486" lon="2.06975">
        <ele>80.2</ele>
        <time>2023-01-11T13:53:01Z</time>
      </trkpt>
      <trkpt lat="49.8486" lon="2.06973">
        <ele>80.2</ele>
        <time>2023-01-11T13:53:02Z</time>
      </trkpt>
      <trkpt lat="49.84861" lon="2.06972">
        <ele>80.2</ele>
        <time>2023-01-11T13:53:03Z</time>
      </trkpt>
      <trkpt lat="49.84862" lon="2.0697">
        <ele>80.1</ele>
        <time>2023-01-11T13:53:04Z</time>
      </trkpt>
      <trkpt lat="49.84864" lon="2.06967">
        <ele>80.1</ele>
        <time>2023-01-11T13:53:05Z</time>
      </trkpt>
      <trkpt lat="49.84864" lon="2.06966">
        <ele>80.1</ele>
        <time>2023-01-11T13:53:07Z</time>
      </trkpt>
      <trkpt lat="49.84865" lon="2.06965">
        <ele>80</ele>
        <time>2023-01-11T13:53:08Z</time>
      </trkpt>
      <trkpt lat="49.84866" lon="2.06964">
        <ele>80</ele>
        <time>2023-01-11T13:53:09Z</time>
      </trkpt>
      <trkpt lat="49.84867" lon="2.06962">
        <ele>80</ele>
        <time>2023-01-11T13:53:10Z</time>
      </trkpt>
      <trkpt lat="49.84868" lon="2.06961">
        <ele>80</ele>
        <time>2023-01-11T13:53:11Z</time>
      </trkpt>
      <trkpt lat="49.84869" lon="2.06959">
        <ele>79.9</ele>
        <time>2023-01-11T13:53:12Z</time>
      </trkpt>
      <trkpt lat="49.84871" lon="2.06957">
        <ele>79.9</ele>
        <time>2023-01-11T13:53:14Z</time>
      </trkpt>
      <trkpt lat="49.84872" lon="2.06957">
        <ele>79.9</ele>
        <time>2023-01-11T13:53:15Z</time>
      </trkpt>
      <trkpt lat="49.84872" lon="2.06956">
        <ele>79.8</ele>
        <time>2023-01-11T13:53:16Z</time>
      </trkpt>
      <trkpt lat="49.84874" lon="2.06954">
        <ele>79.8</ele>
        <time>2023-01-11T13:53:17Z</time>
      </trkpt>
      <trkpt lat="49.84875" lon="2.06954">
        <ele>79.8</ele>
        <time>2023-01-11T13:53:18Z</time>
      </trkpt>
      <trkpt lat="49.84876" lon="2.06953">
        <ele>79.8</ele>
        <time>2023-01-11T13:53:19Z</time>
      </trkpt>
      <trkpt lat="49.84877" lon="2.06952">
        <ele>79.7</ele>
        <time>2023-01-11T13:53:21Z</time>
      </trkpt>
      <trkpt lat="49.84878" lon="2.0695">
        <ele>79.7</ele>
        <time>2023-01-11T13:53:22Z</time>
      </trkpt>
      <trkpt lat="49.84879" lon="2.06948">
        <ele>79.7</ele>
        <time>2023-01-11T13:53:23Z</time>
      </trkpt>
      <trkpt lat="49.8488" lon="2.06947">
        <ele>79.6</ele>
        <time>2023-01-11T13:53:24Z</time>
      </trkpt>
      <trkpt lat="49.8488" lon="2.06946">
        <ele>79.6</ele>
        <time>2023-01-11T13:53:25Z</time>
      </trkpt>
      <trkpt lat="49.84882" lon="2.06943">
        <ele>79.6</ele>
        <time>2023-01-11T13:53:26Z</time>
      </trkpt>
      <trkpt lat="49.84883" lon="2.06942">
        <ele>79.6</ele>
        <time>2023-01-11T13:53:27Z</time>
      </trkpt>
      <trkpt lat="49.84883" lon="2.06941">
        <ele>79.6</ele>
        <time>2023-01-11T13:53:28Z</time>
      </trkpt>
      <trkpt lat="49.84884" lon="2.0694">
        <ele>79.5</ele>
        <time>2023-01-11T13:53:30Z</time>
      </trkpt>
      <trkpt lat="49.84885" lon="2.06938">
        <ele>79.5</ele>
        <time>2023-01-11T13:53:31Z</time>
      </trkpt>
      <trkpt lat="49.84887" lon="2.06936">
        <ele>79.5</ele>
        <time>2023-01-11T13:53:32Z</time>
      </trkpt>
      <trkpt lat="49.84887" lon="2.06935">
        <ele>79.4</ele>
        <time>2023-01-11T13:53:33Z</time>
      </trkpt>
      <trkpt lat="49.84888" lon="2.06933">
        <ele>79.4</ele>
        <time>2023-01-11T13:53:34Z</time>
      </trkpt>
      <trkpt lat="49.84889" lon="2.0693">
        <ele>79.4</ele>
        <time>2023-01-11T13:53:36Z</time>
      </trkpt>
      <trkpt lat="49.84889" lon="2.06929">
        <ele>79.4</ele>
        <time>2023-01-11T13:53:37Z</time>
      </trkpt>
      <trkpt lat="49.8489" lon="2.06928">
        <ele>79.4</ele>
        <time>2023-01-11T13:53:38Z</time>
      </trkpt>
      <trkpt lat="49.84891" lon="2.06926">
        <ele>79.3</ele>
        <time>2023-01-11T13:53:39Z</time>
      </trkpt>
      <trkpt lat="49.84892" lon="2.06924">
        <ele>79.3</ele>
        <time>2023-01-11T13:53:40Z</time>
      </trkpt>
      <trkpt lat="49.84892" lon="2.06922">
        <ele>79.3</ele>
        <time>2023-01-11T13:53:41Z</time>
      </trkpt>
      <trkpt lat="49.84893" lon="2.06921">
        <ele>79.2</ele>
        <time>2023-01-11T13:53:42Z</time>
      </trkpt>
      <trkpt lat="49.84894" lon="2.0692">
        <ele>79.2</ele>
        <time>2023-01-11T13:53:43Z</time>
      </trkpt>
      <trkpt lat="49.84895" lon="2.06918">
        <ele>79.2</ele>
        <time>2023-01-11T13:53:45Z</time>
      </trkpt>
      <trkpt lat="49.84896" lon="2.06917">
        <ele>79.1</ele>
        <time>2023-01-11T13:53:46Z</time>
      </trkpt>
      <trkpt lat="49.84897" lon="2.06916">
        <ele>79.1</ele>
        <time>2023-01-11T13:53:47Z</time>
      </trkpt>
      <trkpt lat="49.84898" lon="2.06915">
        <ele>79.1</ele>
        <time>2023-01-11T13:53:48Z</time>
      </trkpt>
      <trkpt lat="49.84899" lon="2.06914">
        <ele>79.1</ele>
        <time>2023-01-11T13:53:49Z</time>
      </trkpt>
      <trkpt lat="49.84901" lon="2.06912">
        <ele>79</ele>
        <time>2023-01-11T13:53:51Z</time>
      </trkpt>
      <trkpt lat="49.84902" lon="2.06911">
        <ele>79</ele>
        <time>2023-01-11T13:53:52Z</time>
      </trkpt>
      <trkpt lat="49.84904" lon="2.06909">
        <ele>78.9</ele>
        <time>2023-01-11T13:53:53Z</time>
      </trkpt>
      <trkpt lat="49.84905" lon="2.06907">
        <ele>78.9</ele>
        <time>2023-01-11T13:53:54Z</time>
      </trkpt>
      <trkpt lat="49.84906" lon="2.06906">
        <ele>78.9</ele>
        <time>2023-01-11T13:53:55Z</time>
      </trkpt>
      <trkpt lat="49.84907" lon="2.06906">
        <ele>78.9</ele>
        <time>2023-01-11T13:53:56Z</time>
      </trkpt>
      <trkpt lat="49.84908" lon="2.06904">
        <ele>78.8</ele>
        <time>2023-01-11T13:53:57Z</time>
      </trkpt>
      <trkpt lat="49.84909" lon="2.06903">
        <ele>78.8</ele>
        <time>2023-01-11T13:53:58Z</time>
      </trkpt>
      <trkpt lat="49.84911" lon="2.06902">
        <ele>78.8</ele>
        <time>2023-01-11T13:53:59Z</time>
      </trkpt>
      <trkpt lat="49.84912" lon="2.06901">
        <ele>78.7</ele>
        <time>2023-01-11T13:54:00Z</time>
      </trkpt>
      <trkpt lat="49.84914" lon="2.06899">
        <ele>78.7</ele>
        <time>2023-01-11T13:54:02Z</time>
      </trkpt>
      <trkpt lat="49.84914" lon="2.06898">
        <ele>78.7</ele>
        <time>2023-01-11T13:54:03Z</time>
      </trkpt>
      <trkpt lat="49.84915" lon="2.06897">
        <ele>78.7</ele>
        <time>2023-01-11T13:54:04Z</time>
      </trkpt>
      <trkpt lat="49.84917" lon="2.06895">
        <ele>78.6</ele>
        <time>2023-01-11T13:54:05Z</time>
      </trkpt>
      <trkpt lat="49.84918" lon="2.06895">
        <ele>78.6</ele>
        <time>2023-01-11T13:54:06Z</time>
      </trkpt>
      <trkpt lat="49.84918" lon="2.06894">
        <ele>78.6</ele>
        <time>2023-01-11T13:54:07Z</time>
      </trkpt>
      <trkpt lat="49.8492" lon="2.06892">
        <ele>78.5</ele>
        <time>2023-01-11T13:54:09Z</time>
      </trkpt>
      <trkpt lat="49.84921" lon="2.06891">
        <ele>78.5</ele>
        <time>2023-01-11T13:54:10Z</time>
      </trkpt>
      <trkpt lat="49.84922" lon="2.06889">
        <ele>78.5</ele>
        <time>2023-01-11T13:54:11Z</time>
      </trkpt>
      <trkpt lat="49.84923" lon="2.06888">
        <ele>78.4</ele>
        <time>2023-01-11T13:54:12Z</time>
      </trkpt>
      <trkpt lat="49.84925" lon="2.06885">
        <ele>78.4</ele>
        <time>2023-01-11T13:54:13Z</time>
      </trkpt>
      <trkpt lat="49.84926" lon="2.06884">
        <ele>78.4</ele>
        <time>2023-01-11T13:54:15Z</time>
      </trkpt>
      <trkpt lat="49.84927" lon="2.06883">
        <ele>78.4</ele>
        <time>2023-01-11T13:54:16Z</time>
      </trkpt>
      <trkpt lat="49.84928" lon="2.06882">
        <ele>78.3</ele>
        <time>2023-01-11T13:54:17Z</time>
      </trkpt>
      <trkpt lat="49.84928" lon="2.06881">
        <ele>78.3</ele>
        <time>2023-01-11T13:54:18Z</time>
      </trkpt>
      <trkpt lat="49.84929" lon="2.0688">
        <ele>78.3</ele>
        <time>2023-01-11T13:54:19Z</time>
      </trkpt>
      <trkpt lat="49.8493" lon="2.06879">
        <ele>78.3</ele>
        <time>2023-01-11T13:54:20Z</time>
      </trkpt>
      <trkpt lat="49.84931" lon="2.06878">
        <ele>78.2</ele>
        <time>2023-01-11T13:54:21Z</time>
      </trkpt>
      <trkpt lat="49.84933" lon="2.06876">
        <ele>78.2</ele>
        <time>2023-01-11T13:54:23Z</time>
      </trkpt>
      <trkpt lat="49.84934" lon="2.06875">
        <ele>78.2</ele>
        <time>2023-01-11T13:54:24Z</time>
      </trkpt>
      <trkpt lat="49.84935" lon="2.06874">
        <ele>78.2</ele>
        <time>2023-01-11T13:54:25Z</time>
      </trkpt>
      <trkpt lat="49.84936" lon="2.06873">
        <ele>78.1</ele>
        <time>2023-01-11T13:54:26Z</time>
      </trkpt>
      <trkpt lat="49.84936" lon="2.06872">
        <ele>78.1</ele>
        <time>2023-01-11T13:54:27Z</time>
      </trkpt>
      <trkpt lat="49.84938" lon="2.0687">
        <ele>78.1</ele>
        <time>2023-01-11T13:54:28Z</time>
      </trkpt>
      <trkpt lat="49.84939" lon="2.06869">
        <ele>78.1</ele>
        <time>2023-01-11T13:54:29Z</time>
      </trkpt>
      <trkpt lat="49.84939" lon="2.06869">
        <ele>78</ele>
        <time>2023-01-11T13:54:30Z</time>
      </trkpt>
      <trkpt lat="49.8494" lon="2.06867">
        <ele>78</ele>
        <time>2023-01-11T13:54:31Z</time>
      </trkpt>
      <trkpt lat="49.84941" lon="2.06866">
        <ele>78</ele>
        <time>2023-01-11T13:54:32Z</time>
      </trkpt>
      <trkpt lat="49.84943" lon="2.06864">
        <ele>78</ele>
        <time>2023-01-11T13:54:34Z</time>
      </trkpt>
      <trkpt lat="49.84944" lon="2.06862">
        <ele>77.9</ele>
        <time>2023-01-11T13:54:35Z</time>
      </trkpt>
      <trkpt lat="49.84945" lon="2.06861">
        <ele>77.9</ele>
        <time>2023-01-11T13:54:36Z</time>
      </trkpt>
      <trkpt lat="49.84945" lon="2.0686">
        <ele>77.9</ele>
        <time>2023-01-11T13:54:37Z</time>
      </trkpt>
      <trkpt lat="49.84947" lon="2.06857">
        <ele>77.8</ele>
        <time>2023-01-11T13:54:38Z</time>
      </trkpt>
      <trkpt lat="49.84947" lon="2.06856">
        <ele>77.8</ele>
        <time>2023-01-11T13:54:39Z</time>
      </trkpt>
      <trkpt lat="49.84948" lon="2.06855">
        <ele>77.8</ele>
        <time>2023-01-11T13:54:40Z</time>
      </trkpt>
      <trkpt lat="49.84949" lon="2.06852">
        <ele>77.8</ele>
        <time>2023-01-11T13:54:41Z</time>
      </trkpt>
      <trkpt lat="49.84949" lon="2.06851">
        <ele>77.8</ele>
        <time>2023-01-11T13:54:43Z</time>
      </trkpt>
      <trkpt lat="49.8495" lon="2.0685">
        <ele>77.7</ele>
        <time>2023-01-11T13:54:44Z</time>
      </trkpt>
      <trkpt lat="49.8495" lon="2.06849">
        <ele>77.7</ele>
        <time>2023-01-11T13:54:45Z</time>
      </trkpt>
      <trkpt lat="49.84951" lon="2.06847">
        <ele>77.7</ele>
        <time>2023-01-11T13:54:46Z</time>
      </trkpt>
      <trkpt lat="49.84952" lon="2.06845">
        <ele>77.7</ele>
        <time>2023-01-11T13:54:47Z</time>
      </trkpt>
      <trkpt lat="49.84952" lon="2.06843">
        <ele>77.6</ele>
        <time>2023-01-11T13:54:49Z</time>
      </trkpt>
      <trkpt lat="49.84954" lon="2.06841">
        <ele>77.6</ele>
        <time>2023-01-11T13:54:50Z</time>
      </trkpt>
      <trkpt lat="49.84954" lon="2.0684">
        <ele>77.6</ele>
        <time>2023-01-11T13:54:51Z</time>
      </trkpt>
      <trkpt lat="49.84955" lon="2.06839">
        <ele>77.6</ele>
        <time>2023-01-11T13:54:52Z</time>
      </trkpt>
      <trkpt lat="49.84955" lon="2.06837">
        <ele>77.5</ele>
        <time>2023-01-11T13:54:53Z</time>
      </trkpt>
      <trkpt lat="49.84956" lon="2.06836">
        <ele>77.5</ele>
        <time>2023-01-11T13:54:54Z</time>
      </trkpt>
      <trkpt lat="49.84957" lon="2.06835">
        <ele>77.5</ele>
        <time>2023-01-11T13:54:55Z</time>
      </trkpt>
      <trkpt lat="49.84958" lon="2.06832">
        <ele>77.5</ele>
        <time>2023-01-11T13:54:57Z</time>
      </trkpt>
      <trkpt lat="49.8496" lon="2.0683">
        <ele>77.4</ele>
        <time>2023-01-11T13:54:58Z</time>
      </trkpt>
      <trkpt lat="49.8496" lon="2.06829">
        <ele>77.4</ele>
        <time>2023-01-11T13:54:59Z</time>
      </trkpt>
      <trkpt lat="49.84961" lon="2.06828">
        <ele>77.4</ele>
        <time>2023-01-11T13:55:00Z</time>
      </trkpt>
      <trkpt lat="49.84962" lon="2.06826">
        <ele>77.3</ele>
        <time>2023-01-11T13:55:01Z</time>
      </trkpt>
      <trkpt lat="49.84962" lon="2.06825">
        <ele>77.3</ele>
        <time>2023-01-11T13:55:02Z</time>
      </trkpt>
      <trkpt lat="49.84963" lon="2.06823">
        <ele>77.3</ele>
        <time>2023-01-11T13:55:04Z</time>
      </trkpt>
      <trkpt lat="49.84964" lon="2.06822">
        <ele>77.2</ele>
        <time>2023-01-11T13:55:05Z</time>
      </trkpt>
      <trkpt lat="49.84964" lon="2.06821">
        <ele>77.2</ele>
        <time>2023-01-11T13:55:06Z</time>
      </trkpt>
      <trkpt lat="49.84965" lon="2.06819">
        <ele>77.2</ele>
        <time>2023-01-11T13:55:07Z</time>
      </trkpt>
      <trkpt lat="49.84966" lon="2.06818">
        <ele>77.2</ele>
        <time>2023-01-11T13:55:08Z</time>
      </trkpt>
      <trkpt lat="49.84966" lon="2.06816">
        <ele>77.1</ele>
        <time>2023-01-11T13:55:09Z</time>
      </trkpt>
      <trkpt lat="49.84967" lon="2.06815">
        <ele>77.1</ele>
        <time>2023-01-11T13:55:10Z</time>
      </trkpt>
      <trkpt lat="49.84968" lon="2.06814">
        <ele>77.1</ele>
        <time>2023-01-11T13:55:11Z</time>
      </trkpt>
      <trkpt lat="49.84969" lon="2.06813">
        <ele>77.1</ele>
        <time>2023-01-11T13:55:12Z</time>
      </trkpt>
      <trkpt lat="49.8497" lon="2.06811">
        <ele>77</ele>
        <time>2023-01-11T13:55:14Z</time>
      </trkpt>
      <trkpt lat="49.84971" lon="2.0681">
        <ele>77</ele>
        <time>2023-01-11T13:55:15Z</time>
      </trkpt>
      <trkpt lat="49.84972" lon="2.06809">
        <ele>77</ele>
        <time>2023-01-11T13:55:16Z</time>
      </trkpt>
      <trkpt lat="49.84973" lon="2.06808">
        <ele>77</ele>
        <time>2023-01-11T13:55:17Z</time>
      </trkpt>
      <trkpt lat="49.84974" lon="2.06806">
        <ele>77</ele>
        <time>2023-01-11T13:55:18Z</time>
      </trkpt>
      <trkpt lat="49.84975" lon="2.06805">
        <ele>76.9</ele>
        <time>2023-01-11T13:55:19Z</time>
      </trkpt>
      <trkpt lat="49.84975" lon="2.06804">
        <ele>76.9</ele>
        <time>2023-01-11T13:55:20Z</time>
      </trkpt>
      <trkpt lat="49.84976" lon="2.06803">
        <ele>76.9</ele>
        <time>2023-01-11T13:55:21Z</time>
      </trkpt>
      <trkpt lat="49.84977" lon="2.06801">
        <ele>76.9</ele>
        <time>2023-01-11T13:55:22Z</time>
      </trkpt>
      <trkpt lat="49.84978" lon="2.068">
        <ele>76.9</ele>
        <time>2023-01-11T13:55:23Z</time>
      </trkpt>
      <trkpt lat="49.84979" lon="2.06798">
        <ele>76.8</ele>
        <time>2023-01-11T13:55:25Z</time>
      </trkpt>
      <trkpt lat="49.8498" lon="2.06797">
        <ele>76.8</ele>
        <time>2023-01-11T13:55:26Z</time>
      </trkpt>
      <trkpt lat="49.84981" lon="2.06795">
        <ele>76.8</ele>
        <time>2023-01-11T13:55:27Z</time>
      </trkpt>
      <trkpt lat="49.84982" lon="2.06794">
        <ele>76.8</ele>
        <time>2023-01-11T13:55:28Z</time>
      </trkpt>
      <trkpt lat="49.84982" lon="2.06793">
        <ele>76.7</ele>
        <time>2023-01-11T13:55:29Z</time>
      </trkpt>
      <trkpt lat="49.84983" lon="2.06792">
        <ele>76.7</ele>
        <time>2023-01-11T13:55:30Z</time>
      </trkpt>
      <trkpt lat="49.84984" lon="2.0679">
        <ele>76.7</ele>
        <time>2023-01-11T13:55:31Z</time>
      </trkpt>
      <trkpt lat="49.84985" lon="2.06789">
        <ele>76.7</ele>
        <time>2023-01-11T13:55:32Z</time>
      </trkpt>
      <trkpt lat="49.84987" lon="2.06786">
        <ele>76.6</ele>
        <time>2023-01-11T13:55:34Z</time>
      </trkpt>
      <trkpt lat="49.84988" lon="2.06785">
        <ele>76.6</ele>
        <time>2023-01-11T13:55:35Z</time>
      </trkpt>
      <trkpt lat="49.84989" lon="2.06783">
        <ele>76.5</ele>
        <time>2023-01-11T13:55:36Z</time>
      </trkpt>
      <trkpt lat="49.8499" lon="2.06782">
        <ele>76.5</ele>
        <time>2023-01-11T13:55:37Z</time>
      </trkpt>
      <trkpt lat="49.84991" lon="2.0678">
        <ele>76.4</ele>
        <time>2023-01-11T13:55:38Z</time>
      </trkpt>
      <trkpt lat="49.84992" lon="2.06779">
        <ele>76.4</ele>
        <time>2023-01-11T13:55:39Z</time>
      </trkpt>
      <trkpt lat="49.84992" lon="2.06778">
        <ele>76.4</ele>
        <time>2023-01-11T13:55:40Z</time>
      </trkpt>
      <trkpt lat="49.84994" lon="2.06775">
        <ele>76.4</ele>
        <time>2023-01-11T13:55:42Z</time>
      </trkpt>
      <trkpt lat="49.84994" lon="2.06775">
        <ele>76.3</ele>
        <time>2023-01-11T13:55:43Z</time>
      </trkpt>
      <trkpt lat="49.84995" lon="2.06774">
        <ele>76.3</ele>
        <time>2023-01-11T13:55:44Z</time>
      </trkpt>
      <trkpt lat="49.84997" lon="2.06771">
        <ele>76.3</ele>
        <time>2023-01-11T13:55:45Z</time>
      </trkpt>
      <trkpt lat="49.84997" lon="2.0677">
        <ele>76.2</ele>
        <time>2023-01-11T13:55:46Z</time>
      </trkpt>
      <trkpt lat="49.84998" lon="2.06769">
        <ele>76.2</ele>
        <time>2023-01-11T13:55:47Z</time>
      </trkpt>
      <trkpt lat="49.84999" lon="2.06767">
        <ele>76.2</ele>
        <time>2023-01-11T13:55:49Z</time>
      </trkpt>
      <trkpt lat="49.85" lon="2.06766">
        <ele>76.1</ele>
        <time>2023-01-11T13:55:50Z</time>
      </trkpt>
      <trkpt lat="49.85" lon="2.06765">
        <ele>76.1</ele>
        <time>2023-01-11T13:55:51Z</time>
      </trkpt>
      <trkpt lat="49.85001" lon="2.06763">
        <ele>76.1</ele>
        <time>2023-01-11T13:55:52Z</time>
      </trkpt>
      <trkpt lat="49.85003" lon="2.06761">
        <ele>76</ele>
        <time>2023-01-11T13:55:53Z</time>
      </trkpt>
      <trkpt lat="49.85003" lon="2.06759">
        <ele>76</ele>
        <time>2023-01-11T13:55:54Z</time>
      </trkpt>
      <trkpt lat="49.85004" lon="2.06758">
        <ele>76</ele>
        <time>2023-01-11T13:55:55Z</time>
      </trkpt>
      <trkpt lat="49.85005" lon="2.06756">
        <ele>75.9</ele>
        <time>2023-01-11T13:55:57Z</time>
      </trkpt>
      <trkpt lat="49.85006" lon="2.06755">
        <ele>75.9</ele>
        <time>2023-01-11T13:55:58Z</time>
      </trkpt>
      <trkpt lat="49.85006" lon="2.06754">
        <ele>75.9</ele>
        <time>2023-01-11T13:55:59Z</time>
      </trkpt>
      <trkpt lat="49.85008" lon="2.06751">
        <ele>75.8</ele>
        <time>2023-01-11T13:56:00Z</time>
      </trkpt>
      <trkpt lat="49.85008" lon="2.0675">
        <ele>75.8</ele>
        <time>2023-01-11T13:56:01Z</time>
      </trkpt>
      <trkpt lat="49.85009" lon="2.06749">
        <ele>75.8</ele>
        <time>2023-01-11T13:56:02Z</time>
      </trkpt>
      <trkpt lat="49.8501" lon="2.06747">
        <ele>75.8</ele>
        <time>2023-01-11T13:56:03Z</time>
      </trkpt>
      <trkpt lat="49.85011" lon="2.06746">
        <ele>75.7</ele>
        <time>2023-01-11T13:56:04Z</time>
      </trkpt>
      <trkpt lat="49.85013" lon="2.06743">
        <ele>75.7</ele>
        <time>2023-01-11T13:56:05Z</time>
      </trkpt>
      <trkpt lat="49.85013" lon="2.06742">
        <ele>75.7</ele>
        <time>2023-01-11T13:56:07Z</time>
      </trkpt>
      <trkpt lat="49.85014" lon="2.0674">
        <ele>75.6</ele>
        <time>2023-01-11T13:56:08Z</time>
      </trkpt>
      <trkpt lat="49.85015" lon="2.06739">
        <ele>75.6</ele>
        <time>2023-01-11T13:56:09Z</time>
      </trkpt>
      <trkpt lat="49.85016" lon="2.06738">
        <ele>75.6</ele>
        <time>2023-01-11T13:56:10Z</time>
      </trkpt>
      <trkpt lat="49.85017" lon="2.06736">
        <ele>75.6</ele>
        <time>2023-01-11T13:56:11Z</time>
      </trkpt>
      <trkpt lat="49.85017" lon="2.06735">
        <ele>75.5</ele>
        <time>2023-01-11T13:56:12Z</time>
      </trkpt>
      <trkpt lat="49.85018" lon="2.06733">
        <ele>75.5</ele>
        <time>2023-01-11T13:56:14Z</time>
      </trkpt>
      <trkpt lat="49.8502" lon="2.06731">
        <ele>75.5</ele>
        <time>2023-01-11T13:56:15Z</time>
      </trkpt>
      <trkpt lat="49.8502" lon="2.0673">
        <ele>75.5</ele>
        <time>2023-01-11T13:56:16Z</time>
      </trkpt>
      <trkpt lat="49.85021" lon="2.06729">
        <ele>75.5</ele>
        <time>2023-01-11T13:56:17Z</time>
      </trkpt>
      <trkpt lat="49.85022" lon="2.06728">
        <ele>75.4</ele>
        <time>2023-01-11T13:56:18Z</time>
      </trkpt>
      <trkpt lat="49.85023" lon="2.06726">
        <ele>75.4</ele>
        <time>2023-01-11T13:56:19Z</time>
      </trkpt>
      <trkpt lat="49.85024" lon="2.06724">
        <ele>75.4</ele>
        <time>2023-01-11T13:56:20Z</time>
      </trkpt>
      <trkpt lat="49.85025" lon="2.06722">
        <ele>75.3</ele>
        <time>2023-01-11T13:56:22Z</time>
      </trkpt>
      <trkpt lat="49.85026" lon="2.06721">
        <ele>75.3</ele>
        <time>2023-01-11T13:56:23Z</time>
      </trkpt>
      <trkpt lat="49.85027" lon="2.0672">
        <ele>75.3</ele>
        <time>2023-01-11T13:56:24Z</time>
      </trkpt>
      <trkpt lat="49.85027" lon="2.06719">
        <ele>75.3</ele>
        <time>2023-01-11T13:56:25Z</time>
      </trkpt>
      <trkpt lat="49.85029" lon="2.06717">
        <ele>75.2</ele>
        <time>2023-01-11T13:56:26Z</time>
      </trkpt>
      <trkpt lat="49.8503" lon="2.06716">
        <ele>75.2</ele>
        <time>2023-01-11T13:56:27Z</time>
      </trkpt>
      <trkpt lat="49.85031" lon="2.06715">
        <ele>75.2</ele>
        <time>2023-01-11T13:56:28Z</time>
      </trkpt>
      <trkpt lat="49.85032" lon="2.06714">
        <ele>75.2</ele>
        <time>2023-01-11T13:56:30Z</time>
      </trkpt>
      <trkpt lat="49.85033" lon="2.06713">
        <ele>75.2</ele>
        <time>2023-01-11T13:56:31Z</time>
      </trkpt>
      <trkpt lat="49.85033" lon="2.06712">
        <ele>75.1</ele>
        <time>2023-01-11T13:56:32Z</time>
      </trkpt>
      <trkpt lat="49.85034" lon="2.0671">
        <ele>75.1</ele>
        <time>2023-01-11T13:56:33Z</time>
      </trkpt>
      <trkpt lat="49.85034" lon="2.06709">
        <ele>75.1</ele>
        <time>2023-01-11T13:56:34Z</time>
      </trkpt>
      <trkpt lat="49.85034" lon="2.06708">
        <ele>75.1</ele>
        <time>2023-01-11T13:56:35Z</time>
      </trkpt>
      <trkpt lat="49.85035" lon="2.06706">
        <ele>75.1</ele>
        <time>2023-01-11T13:56:36Z</time>
      </trkpt>
      <trkpt lat="49.85036" lon="2.06705">
        <ele>75</ele>
        <time>2023-01-11T13:56:38Z</time>
      </trkpt>
      <trkpt lat="49.85037" lon="2.06703">
        <ele>75</ele>
        <time>2023-01-11T13:56:39Z</time>
      </trkpt>
      <trkpt lat="49.85038" lon="2.06701">
        <ele>75</ele>
        <time>2023-01-11T13:56:40Z</time>
      </trkpt>
      <trkpt lat="49.85039" lon="2.067">
        <ele>75</ele>
        <time>2023-01-11T13:56:41Z</time>
      </trkpt>
      <trkpt lat="49.85039" lon="2.06699">
        <ele>74.9</ele>
        <time>2023-01-11T13:56:42Z</time>
      </trkpt>
      <trkpt lat="49.85041" lon="2.06697">
        <ele>74.9</ele>
        <time>2023-01-11T13:56:43Z</time>
      </trkpt>
      <trkpt lat="49.85041" lon="2.06696">
        <ele>74.9</ele>
        <time>2023-01-11T13:56:44Z</time>
      </trkpt>
      <trkpt lat="49.85042" lon="2.06695">
        <ele>74.9</ele>
        <time>2023-01-11T13:56:45Z</time>
      </trkpt>
      <trkpt lat="49.85043" lon="2.06693">
        <ele>74.8</ele>
        <time>2023-01-11T13:56:47Z</time>
      </trkpt>
      <trkpt lat="49.85044" lon="2.06692">
        <ele>74.8</ele>
        <time>2023-01-11T13:56:48Z</time>
      </trkpt>
      <trkpt lat="49.85045" lon="2.06691">
        <ele>74.8</ele>
        <time>2023-01-11T13:56:49Z</time>
      </trkpt>
      <trkpt lat="49.85046" lon="2.0669">
        <ele>74.8</ele>
        <time>2023-01-11T13:56:50Z</time>
      </trkpt>
      <trkpt lat="49.85047" lon="2.06688">
        <ele>74.7</ele>
        <time>2023-01-11T13:56:52Z</time>
      </trkpt>
      <trkpt lat="49.85048" lon="2.06687">
        <ele>74.7</ele>
        <time>2023-01-11T13:56:53Z</time>
      </trkpt>
      <trkpt lat="49.85049" lon="2.06685">
        <ele>74.7</ele>
        <time>2023-01-11T13:56:54Z</time>
      </trkpt>
      <trkpt lat="49.8505" lon="2.06684">
        <ele>74.7</ele>
        <time>2023-01-11T13:56:55Z</time>
      </trkpt>
      <trkpt lat="49.8505" lon="2.06683">
        <ele>74.7</ele>
        <time>2023-01-11T13:56:56Z</time>
      </trkpt>
      <trkpt lat="49.85051" lon="2.06681">
        <ele>74.6</ele>
        <time>2023-01-11T13:56:57Z</time>
      </trkpt>
      <trkpt lat="49.85052" lon="2.0668">
        <ele>74.6</ele>
        <time>2023-01-11T13:56:58Z</time>
      </trkpt>
      <trkpt lat="49.85052" lon="2.06679">
        <ele>74.6</ele>
        <time>2023-01-11T13:56:59Z</time>
      </trkpt>
      <trkpt lat="49.85053" lon="2.06677">
        <ele>74.6</ele>
        <time>2023-01-11T13:57:00Z</time>
      </trkpt>
      <trkpt lat="49.85054" lon="2.06675">
        <ele>74.6</ele>
        <time>2023-01-11T13:57:02Z</time>
      </trkpt>
      <trkpt lat="49.85055" lon="2.06674">
        <ele>74.6</ele>
        <time>2023-01-11T13:57:03Z</time>
      </trkpt>
      <trkpt lat="49.85055" lon="2.06673">
        <ele>74.6</ele>
        <time>2023-01-11T13:57:04Z</time>
      </trkpt>
      <trkpt lat="49.85056" lon="2.06672">
        <ele>74.5</ele>
        <time>2023-01-11T13:57:05Z</time>
      </trkpt>
      <trkpt lat="49.85057" lon="2.0667">
        <ele>74.5</ele>
        <time>2023-01-11T13:57:06Z</time>
      </trkpt>
      <trkpt lat="49.85057" lon="2.06668">
        <ele>74.5</ele>
        <time>2023-01-11T13:57:07Z</time>
      </trkpt>
      <trkpt lat="49.85058" lon="2.06667">
        <ele>74.5</ele>
        <time>2023-01-11T13:57:08Z</time>
      </trkpt>
      <trkpt lat="49.85058" lon="2.06666">
        <ele>74.5</ele>
        <time>2023-01-11T13:57:09Z</time>
      </trkpt>
      <trkpt lat="49.85059" lon="2.06664">
        <ele>74.5</ele>
        <time>2023-01-11T13:57:10Z</time>
      </trkpt>
      <trkpt lat="49.85059" lon="2.06662">
        <ele>74.5</ele>
        <time>2023-01-11T13:57:12Z</time>
      </trkpt>
      <trkpt lat="49.85059" lon="2.0666">
        <ele>74.5</ele>
        <time>2023-01-11T13:57:13Z</time>
      </trkpt>
      <trkpt lat="49.8506" lon="2.06659">
        <ele>74.5</ele>
        <time>2023-01-11T13:57:14Z</time>
      </trkpt>
      <trkpt lat="49.8506" lon="2.06657">
        <ele>74.5</ele>
        <time>2023-01-11T13:57:15Z</time>
      </trkpt>
      <trkpt lat="49.8506" lon="2.06655">
        <ele>74.5</ele>
        <time>2023-01-11T13:57:16Z</time>
      </trkpt>
      <trkpt lat="49.8506" lon="2.06653">
        <ele>74.5</ele>
        <time>2023-01-11T13:57:17Z</time>
      </trkpt>
      <trkpt lat="49.8506" lon="2.06651">
        <ele>74.5</ele>
        <time>2023-01-11T13:57:19Z</time>
      </trkpt>
      <trkpt lat="49.8506" lon="2.0665">
        <ele>74.5</ele>
        <time>2023-01-11T13:57:20Z</time>
      </trkpt>
      <trkpt lat="49.8506" lon="2.06649">
        <ele>74.5</ele>
        <time>2023-01-11T13:57:21Z</time>
      </trkpt>
      <trkpt lat="49.85059" lon="2.06648">
        <ele>74.5</ele>
        <time>2023-01-11T13:57:22Z</time>
      </trkpt>
      <trkpt lat="49.85058" lon="2.06647">
        <ele>74.5</ele>
        <time>2023-01-11T13:57:23Z</time>
      </trkpt>
      <trkpt lat="49.85057" lon="2.06646">
        <ele>74.5</ele>
        <time>2023-01-11T13:57:25Z</time>
      </trkpt>
      <trkpt lat="49.85057" lon="2.06645">
        <ele>74.5</ele>
        <time>2023-01-11T13:57:26Z</time>
      </trkpt>
      <trkpt lat="49.85056" lon="2.06645">
        <ele>74.5</ele>
        <time>2023-01-11T13:57:28Z</time>
      </trkpt>
      <trkpt lat="49.85056" lon="2.06645">
        <ele>74.5</ele>
        <time>2023-01-11T13:57:29Z</time>
      </trkpt>
      <trkpt lat="49.85056" lon="2.06645">
        <ele>74.5</ele>
        <time>2023-01-11T13:57:30Z</time>
      </trkpt>
      <trkpt lat="49.85056" lon="2.06645">
        <ele>74.5</ele>
        <time>2023-01-11T13:57:32Z</time>
      </trkpt>
      <trkpt lat="49.85056" lon="2.06645">
        <ele>74.5</ele>
        <time>2023-01-11T13:57:33Z</time>
      </trkpt>
      <trkpt lat="49.85056" lon="2.06645">
        <ele>74.5</ele>
        <time>2023-01-11T13:57:35Z</time>
      </trkpt>
      <trkpt lat="49.85056" lon="2.06645">
        <ele>74.5</ele>
        <time>2023-01-11T13:57:36Z</time>
      </trkpt>
      <trkpt lat="49.85056" lon="2.06645">
        <ele>74.5</ele>
        <time>2023-01-11T13:57:38Z</time>
      </trkpt>
      <trkpt lat="49.85056" lon="2.06645">
        <ele>74.5</ele>
        <time>2023-01-11T13:57:39Z</time>
      </trkpt>
      <trkpt lat="49.85056" lon="2.06645">
        <ele>74.5</ele>
        <time>2023-01-11T13:57:40Z</time>
      </trkpt>
      <trkpt lat="49.85056" lon="2.06646">
        <ele>74.5</ele>
        <time>2023-01-11T13:57:42Z</time>
      </trkpt>
      <trkpt lat="49.85056" lon="2.06646">
        <ele>74.5</ele>
        <time>2023-01-11T13:57:43Z</time>
      </trkpt>
      <trkpt lat="49.85056" lon="2.06647">
        <ele>74.5</ele>
        <time>2023-01-11T13:57:44Z</time>
      </trkpt>
      <trkpt lat="49.85056" lon="2.06647">
        <ele>74.5</ele>
        <time>2023-01-11T13:57:45Z</time>
      </trkpt>
      <trkpt lat="49.85056" lon="2.06647">
        <ele>74.5</ele>
        <time>2023-01-11T13:57:46Z</time>
      </trkpt>
      <trkpt lat="49.85057" lon="2.06647">
        <ele>74.5</ele>
        <time>2023-01-11T13:57:47Z</time>
      </trkpt>
      <trkpt lat="49.85057" lon="2.06647">
        <ele>74.5</ele>
        <time>2023-01-11T13:57:48Z</time>
      </trkpt>
      <trkpt lat="49.85057" lon="2.06647">
        <ele>74.5</ele>
        <time>2023-01-11T13:57:49Z</time>
      </trkpt>
      <trkpt lat="49.85057" lon="2.06647">
        <ele>74.5</ele>
        <time>2023-01-11T13:57:50Z</time>
      </trkpt>
      <trkpt lat="49.85057" lon="2.06647">
        <ele>74.5</ele>
        <time>2023-01-11T13:57:51Z</time>
      </trkpt>
      <trkpt lat="49.85057" lon="2.06647">
        <ele>74.5</ele>
        <time>2023-01-11T13:57:52Z</time>
      </trkpt>
      <trkpt lat="49.85057" lon="2.06647">
        <ele>74.5</ele>
        <time>2023-01-11T13:57:53Z</time>
      </trkpt>
      <trkpt lat="49.85057" lon="2.06647">
        <ele>74.5</ele>
        <time>2023-01-11T13:57:54Z</time>
      </trkpt>
      <trkpt lat="49.85057" lon="2.06647">
        <ele>74.5</ele>
        <time>2023-01-11T13:57:55Z</time>
      </trkpt>
      <trkpt lat="49.85057" lon="2.06647">
        <ele>74.5</ele>
        <time>2023-01-11T13:57:56Z</time>
      </trkpt>
      <trkpt lat="49.85057" lon="2.06647">
        <ele>74.5</ele>
        <time>2023-01-11T13:57:57Z</time>
      </trkpt>
      <trkpt lat="49.85057" lon="2.06647">
        <ele>74.5</ele>
        <time>2023-01-11T13:57:58Z</time>
      </trkpt>
      <trkpt lat="49.85057" lon="2.06647">
        <ele>74.5</ele>
        <time>2023-01-11T13:57:59Z</time>
      </trkpt>
      <trkpt lat="49.85057" lon="2.06647">
        <ele>74.5</ele>
        <time>2023-01-11T13:58:00Z</time>
      </trkpt>
      <trkpt lat="49.85057" lon="2.06647">
        <ele>74.5</ele>
        <time>2023-01-11T13:58:01Z</time>
      </trkpt>
      <trkpt lat="49.85057" lon="2.06647">
        <ele>74.5</ele>
        <time>2023-01-11T13:58:02Z</time>
      </trkpt>
      <trkpt lat="49.85057" lon="2.06647">
        <ele>74.5</ele>
        <time>2023-01-11T13:58:03Z</time>
      </trkpt>
      <trkpt lat="49.85057" lon="2.06647">
        <ele>74.5</ele>
        <time>2023-01-11T13:58:04Z</time>
      </trkpt>
      <trkpt lat="49.85057" lon="2.06647">
        <ele>74.5</ele>
        <time>2023-01-11T13:58:05Z</time>
      </trkpt>
      <trkpt lat="49.85057" lon="2.06647">
        <ele>74.5</ele>
        <time>2023-01-11T13:58:06Z</time>
      </trkpt>
      <trkpt lat="49.85057" lon="2.06647">
        <ele>74.5</ele>
        <time>2023-01-11T13:58:07Z</time>
      </trkpt>
      <trkpt lat="49.85057" lon="2.06647">
        <ele>74.5</ele>
        <time>2023-01-11T13:58:08Z</time>
      </trkpt>
      <trkpt lat="49.85057" lon="2.06647">
        <ele>74.5</ele>
        <time>2023-01-11T13:58:09Z</time>
      </trkpt>
      <trkpt lat="49.85057" lon="2.06647">
        <ele>74.5</ele>
        <time>2023-01-11T13:58:10Z</time>
      </trkpt>
      <trkpt lat="49.85057" lon="2.06647">
        <ele>74.5</ele>
        <time>2023-01-11T13:58:11Z</time>
      </trkpt>
      <trkpt lat="49.85057" lon="2.06647">
        <ele>74.5</ele>
        <time>2023-01-11T13:58:12Z</time>
      </trkpt>
      <trkpt lat="49.85057" lon="2.06647">
        <ele>74.5</ele>
        <time>2023-01-11T13:58:13Z</time>
      </trkpt>
      <trkpt lat="49.85057" lon="2.06647">
        <ele>74.5</ele>
        <time>2023-01-11T13:58:14Z</time>
      </trkpt>
      <trkpt lat="49.85057" lon="2.06648">
        <ele>74.5</ele>
        <time>2023-01-11T13:58:15Z</time>
      </trkpt>
      <trkpt lat="49.85058" lon="2.06649">
        <ele>74.5</ele>
        <time>2023-01-11T13:58:16Z</time>
      </trkpt>
      <trkpt lat="49.85058" lon="2.06649">
        <ele>74.5</ele>
        <time>2023-01-11T13:58:17Z</time>
      </trkpt>
      <trkpt lat="49.85058" lon="2.06648">
        <ele>74.5</ele>
        <time>2023-01-11T13:58:18Z</time>
      </trkpt>
      <trkpt lat="49.85059" lon="2.06647">
        <ele>74.5</ele>
        <time>2023-01-11T13:58:19Z</time>
      </trkpt>
      <trkpt lat="49.85059" lon="2.06645">
        <ele>74.5</ele>
        <time>2023-01-11T13:58:20Z</time>
      </trkpt>
      <trkpt lat="49.8506" lon="2.06643">
        <ele>74.5</ele>
        <time>2023-01-11T13:58:21Z</time>
      </trkpt>
      <trkpt lat="49.85061" lon="2.06641">
        <ele>74.5</ele>
        <time>2023-01-11T13:58:22Z</time>
      </trkpt>
      <trkpt lat="49.85061" lon="2.0664">
        <ele>74.5</ele>
        <time>2023-01-11T13:58:23Z</time>
      </trkpt>
      <trkpt lat="49.85062" lon="2.06639">
        <ele>74.5</ele>
        <time>2023-01-11T13:58:25Z</time>
      </trkpt>
      <trkpt lat="49.85064" lon="2.06637">
        <ele>74.5</ele>
        <time>2023-01-11T13:58:26Z</time>
      </trkpt>
      <trkpt lat="49.85065" lon="2.06636">
        <ele>74.5</ele>
        <time>2023-01-11T13:58:27Z</time>
      </trkpt>
      <trkpt lat="49.85066" lon="2.06635">
        <ele>74.4</ele>
        <time>2023-01-11T13:58:28Z</time>
      </trkpt>
      <trkpt lat="49.85068" lon="2.06634">
        <ele>74.4</ele>
        <time>2023-01-11T13:58:29Z</time>
      </trkpt>
      <trkpt lat="49.85069" lon="2.06634">
        <ele>74.4</ele>
        <time>2023-01-11T13:58:30Z</time>
      </trkpt>
      <trkpt lat="49.85071" lon="2.06633">
        <ele>74.4</ele>
        <time>2023-01-11T13:58:31Z</time>
      </trkpt>
      <trkpt lat="49.85073" lon="2.06631">
        <ele>74.4</ele>
        <time>2023-01-11T13:58:32Z</time>
      </trkpt>
      <trkpt lat="49.85073" lon="2.06631">
        <ele>74.4</ele>
        <time>2023-01-11T13:58:33Z</time>
      </trkpt>
      <trkpt lat="49.85074" lon="2.06631">
        <ele>74.4</ele>
        <time>2023-01-11T13:58:34Z</time>
      </trkpt>
      <trkpt lat="49.85076" lon="2.0663">
        <ele>74.4</ele>
        <time>2023-01-11T13:58:36Z</time>
      </trkpt>
      <trkpt lat="49.85077" lon="2.06629">
        <ele>74.3</ele>
        <time>2023-01-11T13:58:37Z</time>
      </trkpt>
      <trkpt lat="49.85078" lon="2.06629">
        <ele>74.3</ele>
        <time>2023-01-11T13:58:38Z</time>
      </trkpt>
      <trkpt lat="49.8508" lon="2.06628">
        <ele>74.3</ele>
        <time>2023-01-11T13:58:39Z</time>
      </trkpt>
      <trkpt lat="49.85081" lon="2.06628">
        <ele>74.3</ele>
        <time>2023-01-11T13:58:40Z</time>
      </trkpt>
      <trkpt lat="49.85082" lon="2.06627">
        <ele>74.3</ele>
        <time>2023-01-11T13:58:41Z</time>
      </trkpt>
      <trkpt lat="49.85084" lon="2.06626">
        <ele>74.3</ele>
        <time>2023-01-11T13:58:42Z</time>
      </trkpt>
      <trkpt lat="49.85084" lon="2.06626">
        <ele>74.3</ele>
        <time>2023-01-11T13:58:43Z</time>
      </trkpt>
      <trkpt lat="49.85085" lon="2.06626">
        <ele>74.3</ele>
        <time>2023-01-11T13:58:44Z</time>
      </trkpt>
      <trkpt lat="49.85087" lon="2.06625">
        <ele>74.3</ele>
        <time>2023-01-11T13:58:45Z</time>
      </trkpt>
      <trkpt lat="49.85088" lon="2.06625">
        <ele>74.3</ele>
        <time>2023-01-11T13:58:47Z</time>
      </trkpt>
      <trkpt lat="49.85089" lon="2.06625">
        <ele>74.2</ele>
        <time>2023-01-11T13:58:48Z</time>
      </trkpt>
      <trkpt lat="49.85091" lon="2.06624">
        <ele>74.2</ele>
        <time>2023-01-11T13:58:49Z</time>
      </trkpt>
      <trkpt lat="49.85092" lon="2.06624">
        <ele>74.2</ele>
        <time>2023-01-11T13:58:50Z</time>
      </trkpt>
      <trkpt lat="49.85092" lon="2.06624">
        <ele>74.2</ele>
        <time>2023-01-11T13:58:51Z</time>
      </trkpt>
      <trkpt lat="49.85095" lon="2.06623">
        <ele>74.2</ele>
        <time>2023-01-11T13:58:52Z</time>
      </trkpt>
      <trkpt lat="49.85096" lon="2.06623">
        <ele>74.2</ele>
        <time>2023-01-11T13:58:54Z</time>
      </trkpt>
      <trkpt lat="49.85097" lon="2.06623">
        <ele>74.2</ele>
        <time>2023-01-11T13:58:55Z</time>
      </trkpt>
      <trkpt lat="49.85098" lon="2.06623">
        <ele>74.2</ele>
        <time>2023-01-11T13:58:56Z</time>
      </trkpt>
      <trkpt lat="49.85099" lon="2.06623">
        <ele>74.2</ele>
        <time>2023-01-11T13:58:57Z</time>
      </trkpt>
      <trkpt lat="49.85101" lon="2.06622">
        <ele>74.1</ele>
        <time>2023-01-11T13:58:58Z</time>
      </trkpt>
      <trkpt lat="49.85102" lon="2.06622">
        <ele>74.1</ele>
        <time>2023-01-11T13:58:59Z</time>
      </trkpt>
      <trkpt lat="49.85103" lon="2.06622">
        <ele>74.1</ele>
        <time>2023-01-11T13:59:00Z</time>
      </trkpt>
      <trkpt lat="49.85104" lon="2.06622">
        <ele>74.1</ele>
        <time>2023-01-11T13:59:01Z</time>
      </trkpt>
      <trkpt lat="49.85106" lon="2.06622">
        <ele>74.1</ele>
        <time>2023-01-11T13:59:03Z</time>
      </trkpt>
      <trkpt lat="49.85107" lon="2.06622">
        <ele>74.1</ele>
        <time>2023-01-11T13:59:04Z</time>
      </trkpt>
      <trkpt lat="49.85109" lon="2.06622">
        <ele>74.1</ele>
        <time>2023-01-11T13:59:05Z</time>
      </trkpt>
      <trkpt lat="49.8511" lon="2.06622">
        <ele>74</ele>
        <time>2023-01-11T13:59:06Z</time>
      </trkpt>
      <trkpt lat="49.85112" lon="2.06622">
        <ele>74</ele>
        <time>2023-01-11T13:59:08Z</time>
      </trkpt>
      <trkpt lat="49.85113" lon="2.06622">
        <ele>74</ele>
        <time>2023-01-11T13:59:09Z</time>
      </trkpt>
      <trkpt lat="49.85114" lon="2.06622">
        <ele>74</ele>
        <time>2023-01-11T13:59:10Z</time>
      </trkpt>
      <trkpt lat="49.85116" lon="2.06622">
        <ele>74</ele>
        <time>2023-01-11T13:59:11Z</time>
      </trkpt>
      <trkpt lat="49.85117" lon="2.06622">
        <ele>74</ele>
        <time>2023-01-11T13:59:12Z</time>
      </trkpt>
      <trkpt lat="49.8512" lon="2.06621">
        <ele>74</ele>
        <time>2023-01-11T13:59:13Z</time>
      </trkpt>
      <trkpt lat="49.85121" lon="2.06621">
        <ele>73.9</ele>
        <time>2023-01-11T13:59:15Z</time>
      </trkpt>
      <trkpt lat="49.85122" lon="2.06621">
        <ele>73.9</ele>
        <time>2023-01-11T13:59:16Z</time>
      </trkpt>
      <trkpt lat="49.85123" lon="2.0662">
        <ele>73.9</ele>
        <time>2023-01-11T13:59:17Z</time>
      </trkpt>
      <trkpt lat="49.85124" lon="2.0662">
        <ele>73.9</ele>
        <time>2023-01-11T13:59:18Z</time>
      </trkpt>
      <trkpt lat="49.85126" lon="2.0662">
        <ele>73.9</ele>
        <time>2023-01-11T13:59:19Z</time>
      </trkpt>
      <trkpt lat="49.85127" lon="2.0662">
        <ele>73.9</ele>
        <time>2023-01-11T13:59:20Z</time>
      </trkpt>
      <trkpt lat="49.85128" lon="2.0662">
        <ele>73.9</ele>
        <time>2023-01-11T13:59:21Z</time>
      </trkpt>
      <trkpt lat="49.85129" lon="2.06619">
        <ele>73.9</ele>
        <time>2023-01-11T13:59:23Z</time>
      </trkpt>
      <trkpt lat="49.8513" lon="2.06619">
        <ele>73.9</ele>
        <time>2023-01-11T13:59:24Z</time>
      </trkpt>
      <trkpt lat="49.85131" lon="2.06619">
        <ele>73.8</ele>
        <time>2023-01-11T13:59:25Z</time>
      </trkpt>
      <trkpt lat="49.85132" lon="2.06619">
        <ele>73.8</ele>
        <time>2023-01-11T13:59:26Z</time>
      </trkpt>
      <trkpt lat="49.85133" lon="2.06619">
        <ele>73.8</ele>
        <time>2023-01-11T13:59:27Z</time>
      </trkpt>
      <trkpt lat="49.85134" lon="2.06618">
        <ele>73.8</ele>
        <time>2023-01-11T13:59:28Z</time>
      </trkpt>
      <trkpt lat="49.85135" lon="2.06617">
        <ele>73.8</ele>
        <time>2023-01-11T13:59:29Z</time>
      </trkpt>
      <trkpt lat="49.85136" lon="2.06616">
        <ele>73.8</ele>
        <time>2023-01-11T13:59:30Z</time>
      </trkpt>
      <trkpt lat="49.85137" lon="2.06615">
        <ele>73.8</ele>
        <time>2023-01-11T13:59:32Z</time>
      </trkpt>
      <trkpt lat="49.85139" lon="2.06614">
        <ele>73.8</ele>
        <time>2023-01-11T13:59:33Z</time>
      </trkpt>
      <trkpt lat="49.85141" lon="2.06613">
        <ele>73.7</ele>
        <time>2023-01-11T13:59:34Z</time>
      </trkpt>
      <trkpt lat="49.85141" lon="2.06612">
        <ele>73.7</ele>
        <time>2023-01-11T13:59:35Z</time>
      </trkpt>
      <trkpt lat="49.85143" lon="2.06612">
        <ele>73.7</ele>
        <time>2023-01-11T13:59:36Z</time>
      </trkpt>
      <trkpt lat="49.85144" lon="2.06611">
        <ele>73.7</ele>
        <time>2023-01-11T13:59:37Z</time>
      </trkpt>
      <trkpt lat="49.85145" lon="2.0661">
        <ele>73.7</ele>
        <time>2023-01-11T13:59:38Z</time>
      </trkpt>
      <trkpt lat="49.85147" lon="2.06609">
        <ele>73.7</ele>
        <time>2023-01-11T13:59:39Z</time>
      </trkpt>
      <trkpt lat="49.85148" lon="2.06608">
        <ele>73.7</ele>
        <time>2023-01-11T13:59:40Z</time>
      </trkpt>
      <trkpt lat="49.85149" lon="2.06607">
        <ele>73.7</ele>
        <time>2023-01-11T13:59:41Z</time>
      </trkpt>
      <trkpt lat="49.85151" lon="2.06607">
        <ele>73.6</ele>
        <time>2023-01-11T13:59:43Z</time>
      </trkpt>
      <trkpt lat="49.85151" lon="2.06606">
        <ele>73.6</ele>
        <time>2023-01-11T13:59:44Z</time>
      </trkpt>
      <trkpt lat="49.85152" lon="2.06606">
        <ele>73.6</ele>
        <time>2023-01-11T13:59:45Z</time>
      </trkpt>
      <trkpt lat="49.85154" lon="2.06606">
        <ele>73.6</ele>
        <time>2023-01-11T13:59:46Z</time>
      </trkpt>
      <trkpt lat="49.85155" lon="2.06605">
        <ele>73.6</ele>
        <time>2023-01-11T13:59:47Z</time>
      </trkpt>
      <trkpt lat="49.85156" lon="2.06605">
        <ele>73.6</ele>
        <time>2023-01-11T13:59:48Z</time>
      </trkpt>
      <trkpt lat="49.85157" lon="2.06605">
        <ele>73.6</ele>
        <time>2023-01-11T13:59:50Z</time>
      </trkpt>
      <trkpt lat="49.85159" lon="2.06604">
        <ele>73.6</ele>
        <time>2023-01-11T13:59:51Z</time>
      </trkpt>
      <trkpt lat="49.8516" lon="2.06603">
        <ele>73.6</ele>
        <time>2023-01-11T13:59:52Z</time>
      </trkpt>
      <trkpt lat="49.85161" lon="2.06603">
        <ele>73.6</ele>
        <time>2023-01-11T13:59:53Z</time>
      </trkpt>
      <trkpt lat="49.85162" lon="2.06602">
        <ele>73.5</ele>
        <time>2023-01-11T13:59:54Z</time>
      </trkpt>
      <trkpt lat="49.85163" lon="2.06601">
        <ele>73.5</ele>
        <time>2023-01-11T13:59:55Z</time>
      </trkpt>
      <trkpt lat="49.85164" lon="2.066">
        <ele>73.5</ele>
        <time>2023-01-11T13:59:56Z</time>
      </trkpt>
      <trkpt lat="49.85165" lon="2.066">
        <ele>73.5</ele>
        <time>2023-01-11T13:59:57Z</time>
      </trkpt>
      <trkpt lat="49.85167" lon="2.06599">
        <ele>73.5</ele>
        <time>2023-01-11T13:59:59Z</time>
      </trkpt>
      <trkpt lat="49.85168" lon="2.06598">
        <ele>73.5</ele>
        <time>2023-01-11T14:00:00Z</time>
      </trkpt>
      <trkpt lat="49.8517" lon="2.06597">
        <ele>73.5</ele>
        <time>2023-01-11T14:00:01Z</time>
      </trkpt>
      <trkpt lat="49.85172" lon="2.06596">
        <ele>73.5</ele>
        <time>2023-01-11T14:00:02Z</time>
      </trkpt>
      <trkpt lat="49.85172" lon="2.06596">
        <ele>73.5</ele>
        <time>2023-01-11T14:00:03Z</time>
      </trkpt>
      <trkpt lat="49.85173" lon="2.06595">
        <ele>73.4</ele>
        <time>2023-01-11T14:00:04Z</time>
      </trkpt>
      <trkpt lat="49.85175" lon="2.06594">
        <ele>73.4</ele>
        <time>2023-01-11T14:00:05Z</time>
      </trkpt>
      <trkpt lat="49.85176" lon="2.06594">
        <ele>73.4</ele>
        <time>2023-01-11T14:00:06Z</time>
      </trkpt>
      <trkpt lat="49.85177" lon="2.06594">
        <ele>73.4</ele>
        <time>2023-01-11T14:00:07Z</time>
      </trkpt>
      <trkpt lat="49.85179" lon="2.06593">
        <ele>73.4</ele>
        <time>2023-01-11T14:00:08Z</time>
      </trkpt>
      <trkpt lat="49.8518" lon="2.06593">
        <ele>73.4</ele>
        <time>2023-01-11T14:00:10Z</time>
      </trkpt>
      <trkpt lat="49.8518" lon="2.06593">
        <ele>73.4</ele>
        <time>2023-01-11T14:00:11Z</time>
      </trkpt>
      <trkpt lat="49.85181" lon="2.06592">
        <ele>73.4</ele>
        <time>2023-01-11T14:00:12Z</time>
      </trkpt>
      <trkpt lat="49.85183" lon="2.06592">
        <ele>73.4</ele>
        <time>2023-01-11T14:00:13Z</time>
      </trkpt>
      <trkpt lat="49.85184" lon="2.06591">
        <ele>73.4</ele>
        <time>2023-01-11T14:00:14Z</time>
      </trkpt>
      <trkpt lat="49.85185" lon="2.0659">
        <ele>73.3</ele>
        <time>2023-01-11T14:00:16Z</time>
      </trkpt>
      <trkpt lat="49.85186" lon="2.0659">
        <ele>73.3</ele>
        <time>2023-01-11T14:00:17Z</time>
      </trkpt>
      <trkpt lat="49.85187" lon="2.06589">
        <ele>73.3</ele>
        <time>2023-01-11T14:00:18Z</time>
      </trkpt>
      <trkpt lat="49.85188" lon="2.06589">
        <ele>73.3</ele>
        <time>2023-01-11T14:00:19Z</time>
      </trkpt>
      <trkpt lat="49.85189" lon="2.06588">
        <ele>73.3</ele>
        <time>2023-01-11T14:00:20Z</time>
      </trkpt>
      <trkpt lat="49.8519" lon="2.06588">
        <ele>73.3</ele>
        <time>2023-01-11T14:00:21Z</time>
      </trkpt>
      <trkpt lat="49.85191" lon="2.06587">
        <ele>73.3</ele>
        <time>2023-01-11T14:00:22Z</time>
      </trkpt>
      <trkpt lat="49.85193" lon="2.06587">
        <ele>73.3</ele>
        <time>2023-01-11T14:00:24Z</time>
      </trkpt>
      <trkpt lat="49.85194" lon="2.06586">
        <ele>73.3</ele>
        <time>2023-01-11T14:00:25Z</time>
      </trkpt>
      <trkpt lat="49.85196" lon="2.06586">
        <ele>73.3</ele>
        <time>2023-01-11T14:00:26Z</time>
      </trkpt>
      <trkpt lat="49.85197" lon="2.06586">
        <ele>73.2</ele>
        <time>2023-01-11T14:00:27Z</time>
      </trkpt>
      <trkpt lat="49.85198" lon="2.06585">
        <ele>73.2</ele>
        <time>2023-01-11T14:00:28Z</time>
      </trkpt>
      <trkpt lat="49.852" lon="2.06585">
        <ele>73.2</ele>
        <time>2023-01-11T14:00:29Z</time>
      </trkpt>
      <trkpt lat="49.85201" lon="2.06584">
        <ele>73.2</ele>
        <time>2023-01-11T14:00:30Z</time>
      </trkpt>
      <trkpt lat="49.85203" lon="2.06583">
        <ele>73.2</ele>
        <time>2023-01-11T14:00:31Z</time>
      </trkpt>
      <trkpt lat="49.85204" lon="2.06583">
        <ele>73.2</ele>
        <time>2023-01-11T14:00:32Z</time>
      </trkpt>
      <trkpt lat="49.85205" lon="2.06582">
        <ele>73.2</ele>
        <time>2023-01-11T14:00:33Z</time>
      </trkpt>
      <trkpt lat="49.85207" lon="2.06581">
        <ele>73.2</ele>
        <time>2023-01-11T14:00:35Z</time>
      </trkpt>
      <trkpt lat="49.85208" lon="2.06581">
        <ele>73.2</ele>
        <time>2023-01-11T14:00:36Z</time>
      </trkpt>
      <trkpt lat="49.85209" lon="2.0658">
        <ele>73.2</ele>
        <time>2023-01-11T14:00:37Z</time>
      </trkpt>
      <trkpt lat="49.85211" lon="2.06579">
        <ele>73.2</ele>
        <time>2023-01-11T14:00:38Z</time>
      </trkpt>
      <trkpt lat="49.85212" lon="2.06578">
        <ele>73.2</ele>
        <time>2023-01-11T14:00:39Z</time>
      </trkpt>
      <trkpt lat="49.85213" lon="2.06578">
        <ele>73.2</ele>
        <time>2023-01-11T14:00:41Z</time>
      </trkpt>
      <trkpt lat="49.85215" lon="2.06577">
        <ele>73.2</ele>
        <time>2023-01-11T14:00:42Z</time>
      </trkpt>
      <trkpt lat="49.85217" lon="2.06575">
        <ele>73.2</ele>
        <time>2023-01-11T14:00:43Z</time>
      </trkpt>
      <trkpt lat="49.85218" lon="2.06575">
        <ele>73.2</ele>
        <time>2023-01-11T14:00:44Z</time>
      </trkpt>
      <trkpt lat="49.85218" lon="2.06574">
        <ele>73.2</ele>
        <time>2023-01-11T14:00:45Z</time>
      </trkpt>
      <trkpt lat="49.85219" lon="2.06574">
        <ele>73.2</ele>
        <time>2023-01-11T14:00:47Z</time>
      </trkpt>
      <trkpt lat="49.8522" lon="2.06573">
        <ele>73.2</ele>
        <time>2023-01-11T14:00:48Z</time>
      </trkpt>
      <trkpt lat="49.85221" lon="2.06573">
        <ele>73.2</ele>
        <time>2023-01-11T14:00:49Z</time>
      </trkpt>
      <trkpt lat="49.85222" lon="2.06573">
        <ele>73.1</ele>
        <time>2023-01-11T14:00:50Z</time>
      </trkpt>
      <trkpt lat="49.85223" lon="2.06572">
        <ele>73.1</ele>
        <time>2023-01-11T14:00:51Z</time>
      </trkpt>
      <trkpt lat="49.85224" lon="2.06571">
        <ele>73.1</ele>
        <time>2023-01-11T14:00:52Z</time>
      </trkpt>
      <trkpt lat="49.85225" lon="2.06571">
        <ele>73.1</ele>
        <time>2023-01-11T14:00:53Z</time>
      </trkpt>
      <trkpt lat="49.85227" lon="2.0657">
        <ele>73.1</ele>
        <time>2023-01-11T14:00:54Z</time>
      </trkpt>
      <trkpt lat="49.85228" lon="2.0657">
        <ele>73.1</ele>
        <time>2023-01-11T14:00:55Z</time>
      </trkpt>
      <trkpt lat="49.85229" lon="2.0657">
        <ele>73.1</ele>
        <time>2023-01-11T14:00:56Z</time>
      </trkpt>
      <trkpt lat="49.85231" lon="2.0657">
        <ele>73.1</ele>
        <time>2023-01-11T14:00:58Z</time>
      </trkpt>
      <trkpt lat="49.85231" lon="2.06569">
        <ele>73.1</ele>
        <time>2023-01-11T14:00:59Z</time>
      </trkpt>
      <trkpt lat="49.85233" lon="2.06569">
        <ele>73</ele>
        <time>2023-01-11T14:01:00Z</time>
      </trkpt>
      <trkpt lat="49.85234" lon="2.06569">
        <ele>73</ele>
        <time>2023-01-11T14:01:01Z</time>
      </trkpt>
      <trkpt lat="49.85235" lon="2.06569">
        <ele>73</ele>
        <time>2023-01-11T14:01:02Z</time>
      </trkpt>
      <trkpt lat="49.85237" lon="2.06569">
        <ele>73</ele>
        <time>2023-01-11T14:01:04Z</time>
      </trkpt>
      <trkpt lat="49.85239" lon="2.06568">
        <ele>73</ele>
        <time>2023-01-11T14:01:05Z</time>
      </trkpt>
      <trkpt lat="49.8524" lon="2.06568">
        <ele>73</ele>
        <time>2023-01-11T14:01:06Z</time>
      </trkpt>
      <trkpt lat="49.8524" lon="2.06568">
        <ele>73</ele>
        <time>2023-01-11T14:01:07Z</time>
      </trkpt>
      <trkpt lat="49.85242" lon="2.06567">
        <ele>73</ele>
        <time>2023-01-11T14:01:08Z</time>
      </trkpt>
      <trkpt lat="49.85243" lon="2.06567">
        <ele>73</ele>
        <time>2023-01-11T14:01:09Z</time>
      </trkpt>
      <trkpt lat="49.85244" lon="2.06566">
        <ele>73</ele>
        <time>2023-01-11T14:01:10Z</time>
      </trkpt>
      <trkpt lat="49.85245" lon="2.06566">
        <ele>72.9</ele>
        <time>2023-01-11T14:01:12Z</time>
      </trkpt>
      <trkpt lat="49.85246" lon="2.06565">
        <ele>72.9</ele>
        <time>2023-01-11T14:01:13Z</time>
      </trkpt>
      <trkpt lat="49.85247" lon="2.06564">
        <ele>72.9</ele>
        <time>2023-01-11T14:01:14Z</time>
      </trkpt>
      <trkpt lat="49.85249" lon="2.06563">
        <ele>72.9</ele>
        <time>2023-01-11T14:01:15Z</time>
      </trkpt>
      <trkpt lat="49.8525" lon="2.06563">
        <ele>72.9</ele>
        <time>2023-01-11T14:01:16Z</time>
      </trkpt>
      <trkpt lat="49.85251" lon="2.06562">
        <ele>72.9</ele>
        <time>2023-01-11T14:01:17Z</time>
      </trkpt>
      <trkpt lat="49.85252" lon="2.06561">
        <ele>72.9</ele>
        <time>2023-01-11T14:01:18Z</time>
      </trkpt>
      <trkpt lat="49.85253" lon="2.06561">
        <ele>72.9</ele>
        <time>2023-01-11T14:01:19Z</time>
      </trkpt>
      <trkpt lat="49.85256" lon="2.0656">
        <ele>72.9</ele>
        <time>2023-01-11T14:01:20Z</time>
      </trkpt>
      <trkpt lat="49.85257" lon="2.06559">
        <ele>72.9</ele>
        <time>2023-01-11T14:01:22Z</time>
      </trkpt>
      <trkpt lat="49.85258" lon="2.06559">
        <ele>72.9</ele>
        <time>2023-01-11T14:01:23Z</time>
      </trkpt>
      <trkpt lat="49.85259" lon="2.06559">
        <ele>72.9</ele>
        <time>2023-01-11T14:01:24Z</time>
      </trkpt>
      <trkpt lat="49.8526" lon="2.06558">
        <ele>72.8</ele>
        <time>2023-01-11T14:01:25Z</time>
      </trkpt>
      <trkpt lat="49.85261" lon="2.06558">
        <ele>72.8</ele>
        <time>2023-01-11T14:01:26Z</time>
      </trkpt>
      <trkpt lat="49.85262" lon="2.06558">
        <ele>72.8</ele>
        <time>2023-01-11T14:01:27Z</time>
      </trkpt>
      <trkpt lat="49.85263" lon="2.06557">
        <ele>72.8</ele>
        <time>2023-01-11T14:01:29Z</time>
      </trkpt>
      <trkpt lat="49.85265" lon="2.06556">
        <ele>72.8</ele>
        <time>2023-01-11T14:01:30Z</time>
      </trkpt>
      <trkpt lat="49.85266" lon="2.06556">
        <ele>72.8</ele>
        <time>2023-01-11T14:01:31Z</time>
      </trkpt>
      <trkpt lat="49.85268" lon="2.06555">
        <ele>72.8</ele>
        <time>2023-01-11T14:01:32Z</time>
      </trkpt>
      <trkpt lat="49.85269" lon="2.06555">
        <ele>72.8</ele>
        <time>2023-01-11T14:01:33Z</time>
      </trkpt>
      <trkpt lat="49.8527" lon="2.06555">
        <ele>72.8</ele>
        <time>2023-01-11T14:01:34Z</time>
      </trkpt>
      <trkpt lat="49.85271" lon="2.06555">
        <ele>72.8</ele>
        <time>2023-01-11T14:01:35Z</time>
      </trkpt>
      <trkpt lat="49.85272" lon="2.06554">
        <ele>72.8</ele>
        <time>2023-01-11T14:01:36Z</time>
      </trkpt>
      <trkpt lat="49.85274" lon="2.06554">
        <ele>72.7</ele>
        <time>2023-01-11T14:01:38Z</time>
      </trkpt>
      <trkpt lat="49.85277" lon="2.06554">
        <ele>72.7</ele>
        <time>2023-01-11T14:01:39Z</time>
      </trkpt>
      <trkpt lat="49.85277" lon="2.06553">
        <ele>72.7</ele>
        <time>2023-01-11T14:01:40Z</time>
      </trkpt>
      <trkpt lat="49.85278" lon="2.06553">
        <ele>72.7</ele>
        <time>2023-01-11T14:01:41Z</time>
      </trkpt>
      <trkpt lat="49.8528" lon="2.06553">
        <ele>72.7</ele>
        <time>2023-01-11T14:01:43Z</time>
      </trkpt>
      <trkpt lat="49.85281" lon="2.06552">
        <ele>72.7</ele>
        <time>2023-01-11T14:01:44Z</time>
      </trkpt>
      <trkpt lat="49.85282" lon="2.06552">
        <ele>72.7</ele>
        <time>2023-01-11T14:01:45Z</time>
      </trkpt>
      <trkpt lat="49.85283" lon="2.06552">
        <ele>72.7</ele>
        <time>2023-01-11T14:01:46Z</time>
      </trkpt>
      <trkpt lat="49.85284" lon="2.06551">
        <ele>72.7</ele>
        <time>2023-01-11T14:01:47Z</time>
      </trkpt>
      <trkpt lat="49.85285" lon="2.06551">
        <ele>72.6</ele>
        <time>2023-01-11T14:01:48Z</time>
      </trkpt>
      <trkpt lat="49.85287" lon="2.0655">
        <ele>72.6</ele>
        <time>2023-01-11T14:01:49Z</time>
      </trkpt>
      <trkpt lat="49.85288" lon="2.0655">
        <ele>72.6</ele>
        <time>2023-01-11T14:01:50Z</time>
      </trkpt>
      <trkpt lat="49.8529" lon="2.06549">
        <ele>72.6</ele>
        <time>2023-01-11T14:01:52Z</time>
      </trkpt>
      <trkpt lat="49.85292" lon="2.06549">
        <ele>72.6</ele>
        <time>2023-01-11T14:01:53Z</time>
      </trkpt>
      <trkpt lat="49.85293" lon="2.06549">
        <ele>72.6</ele>
        <time>2023-01-11T14:01:54Z</time>
      </trkpt>
      <trkpt lat="49.85294" lon="2.06548">
        <ele>72.6</ele>
        <time>2023-01-11T14:01:55Z</time>
      </trkpt>
      <trkpt lat="49.85295" lon="2.06547">
        <ele>72.6</ele>
        <time>2023-01-11T14:01:56Z</time>
      </trkpt>
      <trkpt lat="49.85296" lon="2.06546">
        <ele>72.6</ele>
        <time>2023-01-11T14:01:57Z</time>
      </trkpt>
      <trkpt lat="49.85297" lon="2.06545">
        <ele>72.6</ele>
        <time>2023-01-11T14:01:58Z</time>
      </trkpt>
      <trkpt lat="49.85299" lon="2.06545">
        <ele>72.6</ele>
        <time>2023-01-11T14:01:59Z</time>
      </trkpt>
      <trkpt lat="49.853" lon="2.06544">
        <ele>72.6</ele>
        <time>2023-01-11T14:02:01Z</time>
      </trkpt>
      <trkpt lat="49.85301" lon="2.06544">
        <ele>72.6</ele>
        <time>2023-01-11T14:02:02Z</time>
      </trkpt>
      <trkpt lat="49.85302" lon="2.06543">
        <ele>72.6</ele>
        <time>2023-01-11T14:02:03Z</time>
      </trkpt>
      <trkpt lat="49.85304" lon="2.06543">
        <ele>72.6</ele>
        <time>2023-01-11T14:02:04Z</time>
      </trkpt>
      <trkpt lat="49.85305" lon="2.06542">
        <ele>72.6</ele>
        <time>2023-01-11T14:02:05Z</time>
      </trkpt>
      <trkpt lat="49.85306" lon="2.06542">
        <ele>72.6</ele>
        <time>2023-01-11T14:02:06Z</time>
      </trkpt>
      <trkpt lat="49.85308" lon="2.06542">
        <ele>72.6</ele>
        <time>2023-01-11T14:02:07Z</time>
      </trkpt>
      <trkpt lat="49.85309" lon="2.06542">
        <ele>72.6</ele>
        <time>2023-01-11T14:02:08Z</time>
      </trkpt>
      <trkpt lat="49.85311" lon="2.06543">
        <ele>72.6</ele>
        <time>2023-01-11T14:02:10Z</time>
      </trkpt>
      <trkpt lat="49.85311" lon="2.06544">
        <ele>72.6</ele>
        <time>2023-01-11T14:02:11Z</time>
      </trkpt>
      <trkpt lat="49.85314" lon="2.06545">
        <ele>72.6</ele>
        <time>2023-01-11T14:02:12Z</time>
      </trkpt>
      <trkpt lat="49.85315" lon="2.06546">
        <ele>72.6</ele>
        <time>2023-01-11T14:02:13Z</time>
      </trkpt>
      <trkpt lat="49.85316" lon="2.06547">
        <ele>72.6</ele>
        <time>2023-01-11T14:02:14Z</time>
      </trkpt>
      <trkpt lat="49.85317" lon="2.06547">
        <ele>72.6</ele>
        <time>2023-01-11T14:02:15Z</time>
      </trkpt>
      <trkpt lat="49.85318" lon="2.06549">
        <ele>72.6</ele>
        <time>2023-01-11T14:02:17Z</time>
      </trkpt>
      <trkpt lat="49.85319" lon="2.0655">
        <ele>72.6</ele>
        <time>2023-01-11T14:02:18Z</time>
      </trkpt>
      <trkpt lat="49.85321" lon="2.06551">
        <ele>72.6</ele>
        <time>2023-01-11T14:02:19Z</time>
      </trkpt>
      <trkpt lat="49.85323" lon="2.06553">
        <ele>72.6</ele>
        <time>2023-01-11T14:02:20Z</time>
      </trkpt>
      <trkpt lat="49.85323" lon="2.06554">
        <ele>72.6</ele>
        <time>2023-01-11T14:02:22Z</time>
      </trkpt>
      <trkpt lat="49.85324" lon="2.06555">
        <ele>72.6</ele>
        <time>2023-01-11T14:02:23Z</time>
      </trkpt>
      <trkpt lat="49.85324" lon="2.06556">
        <ele>72.6</ele>
        <time>2023-01-11T14:02:24Z</time>
      </trkpt>
      <trkpt lat="49.85326" lon="2.06557">
        <ele>72.6</ele>
        <time>2023-01-11T14:02:25Z</time>
      </trkpt>
      <trkpt lat="49.85326" lon="2.06558">
        <ele>72.6</ele>
        <time>2023-01-11T14:02:26Z</time>
      </trkpt>
      <trkpt lat="49.85326" lon="2.0656">
        <ele>72.6</ele>
        <time>2023-01-11T14:02:27Z</time>
      </trkpt>
      <trkpt lat="49.85326" lon="2.06561">
        <ele>72.6</ele>
        <time>2023-01-11T14:02:29Z</time>
      </trkpt>
      <trkpt lat="49.85327" lon="2.06563">
        <ele>72.6</ele>
        <time>2023-01-11T14:02:30Z</time>
      </trkpt>
      <trkpt lat="49.85327" lon="2.06564">
        <ele>72.6</ele>
        <time>2023-01-11T14:02:31Z</time>
      </trkpt>
      <trkpt lat="49.85328" lon="2.06564">
        <ele>72.6</ele>
        <time>2023-01-11T14:02:32Z</time>
      </trkpt>
      <trkpt lat="49.85328" lon="2.06565">
        <ele>72.6</ele>
        <time>2023-01-11T14:02:33Z</time>
      </trkpt>
      <trkpt lat="49.85329" lon="2.06565">
        <ele>72.6</ele>
        <time>2023-01-11T14:02:34Z</time>
      </trkpt>
      <trkpt lat="49.85329" lon="2.06567">
        <ele>72.6</ele>
        <time>2023-01-11T14:02:36Z</time>
      </trkpt>
      <trkpt lat="49.85329" lon="2.06567">
        <ele>72.6</ele>
        <time>2023-01-11T14:02:37Z</time>
      </trkpt>
      <trkpt lat="49.85328" lon="2.06568">
        <ele>72.6</ele>
        <time>2023-01-11T14:02:39Z</time>
      </trkpt>
      <trkpt lat="49.85327" lon="2.06568">
        <ele>72.6</ele>
        <time>2023-01-11T14:02:40Z</time>
      </trkpt>
      <trkpt lat="49.85327" lon="2.06568">
        <ele>72.6</ele>
        <time>2023-01-11T14:02:42Z</time>
      </trkpt>
      <trkpt lat="49.85326" lon="2.06568">
        <ele>72.6</ele>
        <time>2023-01-11T14:02:43Z</time>
      </trkpt>
      <trkpt lat="49.85326" lon="2.06568">
        <ele>72.6</ele>
        <time>2023-01-11T14:02:45Z</time>
      </trkpt>
      <trkpt lat="49.85326" lon="2.06568">
        <ele>72.6</ele>
        <time>2023-01-11T14:02:46Z</time>
      </trkpt>
      <trkpt lat="49.85326" lon="2.06569">
        <ele>72.6</ele>
        <time>2023-01-11T14:02:48Z</time>
      </trkpt>
      <trkpt lat="49.85325" lon="2.06569">
        <ele>72.6</ele>
        <time>2023-01-11T14:02:49Z</time>
      </trkpt>
      <trkpt lat="49.85325" lon="2.06569">
        <ele>72.6</ele>
        <time>2023-01-11T14:02:50Z</time>
      </trkpt>
      <trkpt lat="49.85325" lon="2.06569">
        <ele>72.6</ele>
        <time>2023-01-11T14:02:52Z</time>
      </trkpt>
      <trkpt lat="49.85325" lon="2.06569">
        <ele>72.6</ele>
        <time>2023-01-11T14:02:53Z</time>
      </trkpt>
      <trkpt lat="49.85326" lon="2.06569">
        <ele>72.6</ele>
        <time>2023-01-11T14:02:54Z</time>
      </trkpt>
      <trkpt lat="49.85326" lon="2.06569">
        <ele>72.6</ele>
        <time>2023-01-11T14:02:55Z</time>
      </trkpt>
      <trkpt lat="49.85326" lon="2.06569">
        <ele>72.6</ele>
        <time>2023-01-11T14:02:56Z</time>
      </trkpt>
      <trkpt lat="49.85326" lon="2.06569">
        <ele>72.6</ele>
        <time>2023-01-11T14:02:57Z</time>
      </trkpt>
      <trkpt lat="49.85326" lon="2.06569">
        <ele>72.6</ele>
        <time>2023-01-11T14:02:58Z</time>
      </trkpt>
      <trkpt lat="49.85326" lon="2.06569">
        <ele>72.6</ele>
        <time>2023-01-11T14:02:59Z</time>
      </trkpt>
      <trkpt lat="49.85326" lon="2.06569">
        <ele>72.6</ele>
        <time>2023-01-11T14:03:00Z</time>
      </trkpt>
      <trkpt lat="49.85326" lon="2.06569">
        <ele>72.6</ele>
        <time>2023-01-11T14:03:01Z</time>
      </trkpt>
      <trkpt lat="49.85326" lon="2.06569">
        <ele>72.6</ele>
        <time>2023-01-11T14:03:02Z</time>
      </trkpt>
      <trkpt lat="49.85326" lon="2.06569">
        <ele>72.6</ele>
        <time>2023-01-11T14:03:03Z</time>
      </trkpt>
      <trkpt lat="49.85326" lon="2.06569">
        <ele>72.6</ele>
        <time>2023-01-11T14:03:04Z</time>
      </trkpt>
      <trkpt lat="49.85326" lon="2.06569">
        <ele>72.6</ele>
        <time>2023-01-11T14:03:05Z</time>
      </trkpt>
      <trkpt lat="49.85326" lon="2.06569">
        <ele>72.6</ele>
        <time>2023-01-11T14:03:06Z</time>
      </trkpt>
      <trkpt lat="49.85326" lon="2.06569">
        <ele>72.6</ele>
        <time>2023-01-11T14:03:07Z</time>
      </trkpt>
      <trkpt lat="49.85326" lon="2.06569">
        <ele>72.6</ele>
        <time>2023-01-11T14:03:08Z</time>
      </trkpt>
      <trkpt lat="49.85326" lon="2.06569">
        <ele>72.6</ele>
        <time>2023-01-11T14:03:09Z</time>
      </trkpt>
      <trkpt lat="49.85326" lon="2.06569">
        <ele>72.6</ele>
        <time>2023-01-11T14:03:10Z</time>
      </trkpt>
      <trkpt lat="49.85326" lon="2.06569">
        <ele>72.6</ele>
        <time>2023-01-11T14:03:11Z</time>
      </trkpt>
      <trkpt lat="49.85326" lon="2.06569">
        <ele>72.6</ele>
        <time>2023-01-11T14:03:12Z</time>
      </trkpt>
      <trkpt lat="49.85326" lon="2.06569">
        <ele>72.6</ele>
        <time>2023-01-11T14:03:13Z</time>
      </trkpt>
      <trkpt lat="49.85326" lon="2.06569">
        <ele>72.6</ele>
        <time>2023-01-11T14:03:14Z</time>
      </trkpt>
      <trkpt lat="49.85326" lon="2.06569">
        <ele>72.6</ele>
        <time>2023-01-11T14:03:15Z</time>
      </trkpt>
      <trkpt lat="49.85326" lon="2.06569">
        <ele>72.6</ele>
        <time>2023-01-11T14:03:16Z</time>
      </trkpt>
      <trkpt lat="49.85326" lon="2.06569">
        <ele>72.6</ele>
        <time>2023-01-11T14:03:17Z</time>
      </trkpt>
      <trkpt lat="49.85326" lon="2.06569">
        <ele>72.6</ele>
        <time>2023-01-11T14:03:18Z</time>
      </trkpt>
      <trkpt lat="49.85326" lon="2.06569">
        <ele>72.6</ele>
        <time>2023-01-11T14:03:19Z</time>
      </trkpt>
      <trkpt lat="49.85326" lon="2.06569">
        <ele>72.6</ele>
        <time>2023-01-11T14:03:20Z</time>
      </trkpt>
      <trkpt lat="49.85325" lon="2.06568">
        <ele>72.6</ele>
        <time>2023-01-11T14:03:21Z</time>
      </trkpt>
      <trkpt lat="49.85324" lon="2.06567">
        <ele>72.6</ele>
        <time>2023-01-11T14:03:22Z</time>
      </trkpt>
      <trkpt lat="49.85324" lon="2.06567">
        <ele>72.6</ele>
        <time>2023-01-11T14:03:23Z</time>
      </trkpt>
      <trkpt lat="49.85324" lon="2.06567">
        <ele>72.6</ele>
        <time>2023-01-11T14:03:24Z</time>
      </trkpt>
      <trkpt lat="49.85324" lon="2.06567">
        <ele>72.6</ele>
        <time>2023-01-11T14:03:25Z</time>
      </trkpt>
      <trkpt lat="49.85324" lon="2.06567">
        <ele>72.6</ele>
        <time>2023-01-11T14:03:26Z</time>
      </trkpt>
      <trkpt lat="49.85324" lon="2.06568">
        <ele>72.6</ele>
        <time>2023-01-11T14:03:27Z</time>
      </trkpt>
      <trkpt lat="49.85324" lon="2.06567">
        <ele>72.6</ele>
        <time>2023-01-11T14:03:28Z</time>
      </trkpt>
      <trkpt lat="49.85326" lon="2.06567">
        <ele>72.6</ele>
        <time>2023-01-11T14:03:30Z</time>
      </trkpt>
      <trkpt lat="49.85327" lon="2.06567">
        <ele>72.6</ele>
        <time>2023-01-11T14:03:32Z</time>
      </trkpt>
      <trkpt lat="49.85327" lon="2.06567">
        <ele>72.6</ele>
        <time>2023-01-11T14:03:33Z</time>
      </trkpt>
      <trkpt lat="49.85328" lon="2.06568">
        <ele>72.6</ele>
        <time>2023-01-11T14:03:34Z</time>
      </trkpt>
      <trkpt lat="49.85329" lon="2.06568">
        <ele>72.6</ele>
        <time>2023-01-11T14:03:35Z</time>
      </trkpt>
      <trkpt lat="49.8533" lon="2.06569">
        <ele>72.6</ele>
        <time>2023-01-11T14:03:36Z</time>
      </trkpt>
      <trkpt lat="49.85331" lon="2.06569">
        <ele>72.6</ele>
        <time>2023-01-11T14:03:38Z</time>
      </trkpt>
      <trkpt lat="49.85331" lon="2.06569">
        <ele>72.6</ele>
        <time>2023-01-11T14:03:39Z</time>
      </trkpt>
      <trkpt lat="49.85332" lon="2.06569">
        <ele>72.6</ele>
        <time>2023-01-11T14:03:40Z</time>
      </trkpt>
      <trkpt lat="49.85332" lon="2.06569">
        <ele>72.6</ele>
        <time>2023-01-11T14:03:41Z</time>
      </trkpt>
      <trkpt lat="49.85331" lon="2.06569">
        <ele>72.6</ele>
        <time>2023-01-11T14:03:42Z</time>
      </trkpt>
      <trkpt lat="49.85331" lon="2.0657">
        <ele>72.6</ele>
        <time>2023-01-11T14:03:44Z</time>
      </trkpt>
      <trkpt lat="49.85331" lon="2.0657">
        <ele>72.6</ele>
        <time>2023-01-11T14:03:45Z</time>
      </trkpt>
      <trkpt lat="49.8533" lon="2.0657">
        <ele>72.6</ele>
        <time>2023-01-11T14:03:47Z</time>
      </trkpt>
      <trkpt lat="49.8533" lon="2.0657">
        <ele>72.6</ele>
        <time>2023-01-11T14:03:48Z</time>
      </trkpt>
      <trkpt lat="49.8533" lon="2.06569">
        <ele>72.6</ele>
        <time>2023-01-11T14:03:49Z</time>
      </trkpt>
      <trkpt lat="49.85329" lon="2.06568">
        <ele>72.6</ele>
        <time>2023-01-11T14:03:51Z</time>
      </trkpt>
      <trkpt lat="49.85329" lon="2.06568">
        <ele>72.6</ele>
        <time>2023-01-11T14:03:53Z</time>
      </trkpt>
      <trkpt lat="49.85329" lon="2.06567">
        <ele>72.6</ele>
        <time>2023-01-11T14:03:54Z</time>
      </trkpt>
      <trkpt lat="49.85329" lon="2.06567">
        <ele>72.6</ele>
        <time>2023-01-11T14:03:55Z</time>
      </trkpt>
      <trkpt lat="49.85328" lon="2.06567">
        <ele>72.6</ele>
        <time>2023-01-11T14:03:57Z</time>
      </trkpt>
      <trkpt lat="49.85328" lon="2.06567">
        <ele>72.6</ele>
        <time>2023-01-11T14:03:58Z</time>
      </trkpt>
      <trkpt lat="49.85328" lon="2.06567">
        <ele>72.6</ele>
        <time>2023-01-11T14:03:59Z</time>
      </trkpt>
      <trkpt lat="49.85328" lon="2.06566">
        <ele>72.6</ele>
        <time>2023-01-11T14:04:00Z</time>
      </trkpt>
      <trkpt lat="49.85328" lon="2.06566">
        <ele>72.6</ele>
        <time>2023-01-11T14:04:01Z</time>
      </trkpt>
      <trkpt lat="49.85328" lon="2.06566">
        <ele>72.6</ele>
        <time>2023-01-11T14:04:02Z</time>
      </trkpt>
      <trkpt lat="49.85328" lon="2.06566">
        <ele>72.6</ele>
        <time>2023-01-11T14:04:03Z</time>
      </trkpt>
      <trkpt lat="49.85328" lon="2.06566">
        <ele>72.6</ele>
        <time>2023-01-11T14:04:04Z</time>
      </trkpt>
      <trkpt lat="49.85328" lon="2.06566">
        <ele>72.6</ele>
        <time>2023-01-11T14:04:05Z</time>
      </trkpt>
      <trkpt lat="49.85328" lon="2.06566">
        <ele>72.6</ele>
        <time>2023-01-11T14:04:06Z</time>
      </trkpt>
      <trkpt lat="49.85328" lon="2.06566">
        <ele>72.6</ele>
        <time>2023-01-11T14:04:07Z</time>
      </trkpt>
      <trkpt lat="49.85328" lon="2.06566">
        <ele>72.6</ele>
        <time>2023-01-11T14:04:08Z</time>
      </trkpt>
      <trkpt lat="49.85328" lon="2.06566">
        <ele>72.6</ele>
        <time>2023-01-11T14:04:09Z</time>
      </trkpt>
      <trkpt lat="49.85328" lon="2.06566">
        <ele>72.6</ele>
        <time>2023-01-11T14:04:10Z</time>
      </trkpt>
      <trkpt lat="49.85328" lon="2.06566">
        <ele>72.6</ele>
        <time>2023-01-11T14:04:11Z</time>
      </trkpt>
      <trkpt lat="49.85328" lon="2.06566">
        <ele>72.6</ele>
        <time>2023-01-11T14:04:12Z</time>
      </trkpt>
      <trkpt lat="49.85328" lon="2.06566">
        <ele>72.6</ele>
        <time>2023-01-11T14:04:13Z</time>
      </trkpt>
      <trkpt lat="49.85328" lon="2.06566">
        <ele>72.6</ele>
        <time>2023-01-11T14:04:14Z</time>
      </trkpt>
      <trkpt lat="49.85328" lon="2.06566">
        <ele>72.6</ele>
        <time>2023-01-11T14:04:15Z</time>
      </trkpt>
      <trkpt lat="49.85328" lon="2.06566">
        <ele>72.6</ele>
        <time>2023-01-11T14:04:16Z</time>
      </trkpt>
      <trkpt lat="49.85328" lon="2.06566">
        <ele>72.6</ele>
        <time>2023-01-11T14:04:17Z</time>
      </trkpt>
      <trkpt lat="49.85328" lon="2.06566">
        <ele>72.6</ele>
        <time>2023-01-11T14:04:18Z</time>
      </trkpt>
      <trkpt lat="49.85328" lon="2.06566">
        <ele>72.6</ele>
        <time>2023-01-11T14:04:19Z</time>
      </trkpt>
      <trkpt lat="49.85328" lon="2.06566">
        <ele>72.6</ele>
        <time>2023-01-11T14:04:20Z</time>
      </trkpt>
      <trkpt lat="49.85328" lon="2.06566">
        <ele>72.6</ele>
        <time>2023-01-11T14:04:21Z</time>
      </trkpt>
      <trkpt lat="49.85328" lon="2.06566">
        <ele>72.6</ele>
        <time>2023-01-11T14:04:22Z</time>
      </trkpt>
      <trkpt lat="49.8533" lon="2.06568">
        <ele>72.6</ele>
        <time>2023-01-11T14:04:23Z</time>
      </trkpt>
      <trkpt lat="49.85331" lon="2.06569">
        <ele>72.6</ele>
        <time>2023-01-11T14:04:24Z</time>
      </trkpt>
      <trkpt lat="49.85332" lon="2.06569">
        <ele>72.6</ele>
        <time>2023-01-11T14:04:25Z</time>
      </trkpt>
      <trkpt lat="49.85333" lon="2.06569">
        <ele>72.6</ele>
        <time>2023-01-11T14:04:26Z</time>
      </trkpt>
      <trkpt lat="49.85333" lon="2.0657">
        <ele>72.6</ele>
        <time>2023-01-11T14:04:27Z</time>
      </trkpt>
      <trkpt lat="49.85333" lon="2.0657">
        <ele>72.6</ele>
        <time>2023-01-11T14:04:28Z</time>
      </trkpt>
      <trkpt lat="49.85334" lon="2.0657">
        <ele>72.6</ele>
        <time>2023-01-11T14:04:29Z</time>
      </trkpt>
      <trkpt lat="49.85334" lon="2.06571">
        <ele>72.6</ele>
        <time>2023-01-11T14:04:30Z</time>
      </trkpt>
      <trkpt lat="49.85335" lon="2.06569">
        <ele>72.6</ele>
        <time>2023-01-11T14:04:32Z</time>
      </trkpt>
      <trkpt lat="49.85337" lon="2.0657">
        <ele>72.6</ele>
        <time>2023-01-11T14:04:33Z</time>
      </trkpt>
      <trkpt lat="49.85338" lon="2.06572">
        <ele>72.6</ele>
        <time>2023-01-11T14:04:34Z</time>
      </trkpt>
      <trkpt lat="49.8534" lon="2.06574">
        <ele>72.6</ele>
        <time>2023-01-11T14:04:35Z</time>
      </trkpt>
      <trkpt lat="49.85341" lon="2.06574">
        <ele>72.6</ele>
        <time>2023-01-11T14:04:36Z</time>
      </trkpt>
      <trkpt lat="49.85344" lon="2.06575">
        <ele>72.6</ele>
        <time>2023-01-11T14:04:37Z</time>
      </trkpt>
      <trkpt lat="49.85345" lon="2.06575">
        <ele>72.6</ele>
        <time>2023-01-11T14:04:38Z</time>
      </trkpt>
      <trkpt lat="49.85347" lon="2.06576">
        <ele>72.6</ele>
        <time>2023-01-11T14:04:39Z</time>
      </trkpt>
      <trkpt lat="49.85348" lon="2.06577">
        <ele>72.6</ele>
        <time>2023-01-11T14:04:41Z</time>
      </trkpt>
      <trkpt lat="49.8535" lon="2.06578">
        <ele>72.6</ele>
        <time>2023-01-11T14:04:42Z</time>
      </trkpt>
      <trkpt lat="49.85351" lon="2.06578">
        <ele>72.6</ele>
        <time>2023-01-11T14:04:43Z</time>
      </trkpt>
      <trkpt lat="49.85352" lon="2.06579">
        <ele>72.6</ele>
        <time>2023-01-11T14:04:44Z</time>
      </trkpt>
      <trkpt lat="49.85354" lon="2.06579">
        <ele>72.6</ele>
        <time>2023-01-11T14:04:45Z</time>
      </trkpt>
      <trkpt lat="49.85356" lon="2.0658">
        <ele>72.6</ele>
        <time>2023-01-11T14:04:46Z</time>
      </trkpt>
      <trkpt lat="49.85357" lon="2.0658">
        <ele>72.6</ele>
        <time>2023-01-11T14:04:48Z</time>
      </trkpt>
      <trkpt lat="49.85358" lon="2.06579">
        <ele>72.6</ele>
        <time>2023-01-11T14:04:49Z</time>
      </trkpt>
      <trkpt lat="49.85359" lon="2.06579">
        <ele>72.6</ele>
        <time>2023-01-11T14:04:50Z</time>
      </trkpt>
      <trkpt lat="49.85359" lon="2.06579">
        <ele>72.6</ele>
        <time>2023-01-11T14:04:51Z</time>
      </trkpt>
      <trkpt lat="49.8536" lon="2.06579">
        <ele>72.6</ele>
        <time>2023-01-11T14:04:52Z</time>
      </trkpt>
      <trkpt lat="49.85362" lon="2.06578">
        <ele>72.5</ele>
        <time>2023-01-11T14:04:53Z</time>
      </trkpt>
      <trkpt lat="49.85363" lon="2.06578">
        <ele>72.5</ele>
        <time>2023-01-11T14:04:55Z</time>
      </trkpt>
      <trkpt lat="49.85364" lon="2.06578">
        <ele>72.5</ele>
        <time>2023-01-11T14:04:56Z</time>
      </trkpt>
      <trkpt lat="49.85366" lon="2.06578">
        <ele>72.5</ele>
        <time>2023-01-11T14:04:57Z</time>
      </trkpt>
      <trkpt lat="49.85367" lon="2.06578">
        <ele>72.5</ele>
        <time>2023-01-11T14:04:58Z</time>
      </trkpt>
      <trkpt lat="49.85368" lon="2.06578">
        <ele>72.5</ele>
        <time>2023-01-11T14:04:59Z</time>
      </trkpt>
      <trkpt lat="49.85369" lon="2.06579">
        <ele>72.5</ele>
        <time>2023-01-11T14:05:00Z</time>
      </trkpt>
      <trkpt lat="49.8537" lon="2.06579">
        <ele>72.5</ele>
        <time>2023-01-11T14:05:01Z</time>
      </trkpt>
      <trkpt lat="49.85371" lon="2.06579">
        <ele>72.5</ele>
        <time>2023-01-11T14:05:02Z</time>
      </trkpt>
      <trkpt lat="49.85372" lon="2.0658">
        <ele>72.5</ele>
        <time>2023-01-11T14:05:03Z</time>
      </trkpt>
      <trkpt lat="49.85373" lon="2.0658">
        <ele>72.5</ele>
        <time>2023-01-11T14:05:04Z</time>
      </trkpt>
      <trkpt lat="49.85375" lon="2.0658">
        <ele>72.5</ele>
        <time>2023-01-11T14:05:05Z</time>
      </trkpt>
      <trkpt lat="49.85376" lon="2.0658">
        <ele>72.5</ele>
        <time>2023-01-11T14:05:06Z</time>
      </trkpt>
      <trkpt lat="49.85378" lon="2.0658">
        <ele>72.5</ele>
        <time>2023-01-11T14:05:07Z</time>
      </trkpt>
      <trkpt lat="49.8538" lon="2.06579">
        <ele>72.5</ele>
        <time>2023-01-11T14:05:08Z</time>
      </trkpt>
      <trkpt lat="49.85382" lon="2.06579">
        <ele>72.5</ele>
        <time>2023-01-11T14:05:10Z</time>
      </trkpt>
      <trkpt lat="49.85384" lon="2.0658">
        <ele>72.5</ele>
        <time>2023-01-11T14:05:11Z</time>
      </trkpt>
      <trkpt lat="49.85385" lon="2.0658">
        <ele>72.4</ele>
        <time>2023-01-11T14:05:12Z</time>
      </trkpt>
      <trkpt lat="49.85387" lon="2.0658">
        <ele>72.4</ele>
        <time>2023-01-11T14:05:13Z</time>
      </trkpt>
      <trkpt lat="49.85389" lon="2.0658">
        <ele>72.4</ele>
        <time>2023-01-11T14:05:14Z</time>
      </trkpt>
      <trkpt lat="49.8539" lon="2.0658">
        <ele>72.4</ele>
        <time>2023-01-11T14:05:15Z</time>
      </trkpt>
      <trkpt lat="49.85392" lon="2.0658">
        <ele>72.4</ele>
        <time>2023-01-11T14:05:16Z</time>
      </trkpt>
      <trkpt lat="49.85394" lon="2.0658">
        <ele>72.4</ele>
        <time>2023-01-11T14:05:17Z</time>
      </trkpt>
      <trkpt lat="49.85395" lon="2.06581">
        <ele>72.4</ele>
        <time>2023-01-11T14:05:19Z</time>
      </trkpt>
      <trkpt lat="49.85396" lon="2.06581">
        <ele>72.4</ele>
        <time>2023-01-11T14:05:20Z</time>
      </trkpt>
      <trkpt lat="49.85398" lon="2.06582">
        <ele>72.4</ele>
        <time>2023-01-11T14:05:21Z</time>
      </trkpt>
      <trkpt lat="49.85399" lon="2.06582">
        <ele>72.4</ele>
        <time>2023-01-11T14:05:22Z</time>
      </trkpt>
      <trkpt lat="49.854" lon="2.06582">
        <ele>72.4</ele>
        <time>2023-01-11T14:05:23Z</time>
      </trkpt>
      <trkpt lat="49.85402" lon="2.06583">
        <ele>72.4</ele>
        <time>2023-01-11T14:05:25Z</time>
      </trkpt>
      <trkpt lat="49.85404" lon="2.06583">
        <ele>72.3</ele>
        <time>2023-01-11T14:05:26Z</time>
      </trkpt>
      <trkpt lat="49.85405" lon="2.06583">
        <ele>72.3</ele>
        <time>2023-01-11T14:05:27Z</time>
      </trkpt>
      <trkpt lat="49.85406" lon="2.06583">
        <ele>72.3</ele>
        <time>2023-01-11T14:05:28Z</time>
      </trkpt>
      <trkpt lat="49.85407" lon="2.06584">
        <ele>72.3</ele>
        <time>2023-01-11T14:05:29Z</time>
      </trkpt>
      <trkpt lat="49.85408" lon="2.06584">
        <ele>72.3</ele>
        <time>2023-01-11T14:05:30Z</time>
      </trkpt>
      <trkpt lat="49.8541" lon="2.06584">
        <ele>72.3</ele>
        <time>2023-01-11T14:05:31Z</time>
      </trkpt>
      <trkpt lat="49.85412" lon="2.06584">
        <ele>72.3</ele>
        <time>2023-01-11T14:05:32Z</time>
      </trkpt>
      <trkpt lat="49.85414" lon="2.06584">
        <ele>72.3</ele>
        <time>2023-01-11T14:05:34Z</time>
      </trkpt>
      <trkpt lat="49.85415" lon="2.06584">
        <ele>72.3</ele>
        <time>2023-01-11T14:05:35Z</time>
      </trkpt>
      <trkpt lat="49.85416" lon="2.06584">
        <ele>72.3</ele>
        <time>2023-01-11T14:05:36Z</time>
      </trkpt>
      <trkpt lat="49.85417" lon="2.06584">
        <ele>72.3</ele>
        <time>2023-01-11T14:05:37Z</time>
      </trkpt>
      <trkpt lat="49.85418" lon="2.06584">
        <ele>72.3</ele>
        <time>2023-01-11T14:05:38Z</time>
      </trkpt>
      <trkpt lat="49.85419" lon="2.06584">
        <ele>72.3</ele>
        <time>2023-01-11T14:05:39Z</time>
      </trkpt>
      <trkpt lat="49.8542" lon="2.06584">
        <ele>72.2</ele>
        <time>2023-01-11T14:05:40Z</time>
      </trkpt>
      <trkpt lat="49.85422" lon="2.06584">
        <ele>72.2</ele>
        <time>2023-01-11T14:05:42Z</time>
      </trkpt>
      <trkpt lat="49.85423" lon="2.06584">
        <ele>72.2</ele>
        <time>2023-01-11T14:05:43Z</time>
      </trkpt>
      <trkpt lat="49.85425" lon="2.06584">
        <ele>72.2</ele>
        <time>2023-01-11T14:05:44Z</time>
      </trkpt>
      <trkpt lat="49.85426" lon="2.06585">
        <ele>72.2</ele>
        <time>2023-01-11T14:05:45Z</time>
      </trkpt>
      <trkpt lat="49.85428" lon="2.06585">
        <ele>72.2</ele>
        <time>2023-01-11T14:05:46Z</time>
      </trkpt>
      <trkpt lat="49.85429" lon="2.06585">
        <ele>72.2</ele>
        <time>2023-01-11T14:05:47Z</time>
      </trkpt>
      <trkpt lat="49.8543" lon="2.06585">
        <ele>72.2</ele>
        <time>2023-01-11T14:05:49Z</time>
      </trkpt>
      <trkpt lat="49.85431" lon="2.06585">
        <ele>72.2</ele>
        <time>2023-01-11T14:05:50Z</time>
      </trkpt>
      <trkpt lat="49.85433" lon="2.06586">
        <ele>72.3</ele>
        <time>2023-01-11T14:05:51Z</time>
      </trkpt>
      <trkpt lat="49.85434" lon="2.06586">
        <ele>72.3</ele>
        <time>2023-01-11T14:05:52Z</time>
      </trkpt>
      <trkpt lat="49.85436" lon="2.06586">
        <ele>72.3</ele>
        <time>2023-01-11T14:05:53Z</time>
      </trkpt>
      <trkpt lat="49.85437" lon="2.06587">
        <ele>72.3</ele>
        <time>2023-01-11T14:05:54Z</time>
      </trkpt>
      <trkpt lat="49.85439" lon="2.06587">
        <ele>72.3</ele>
        <time>2023-01-11T14:05:56Z</time>
      </trkpt>
      <trkpt lat="49.8544" lon="2.06588">
        <ele>72.3</ele>
        <time>2023-01-11T14:05:57Z</time>
      </trkpt>
      <trkpt lat="49.85441" lon="2.06588">
        <ele>72.3</ele>
        <time>2023-01-11T14:05:58Z</time>
      </trkpt>
      <trkpt lat="49.85443" lon="2.06589">
        <ele>72.3</ele>
        <time>2023-01-11T14:05:59Z</time>
      </trkpt>
      <trkpt lat="49.85445" lon="2.0659">
        <ele>72.3</ele>
        <time>2023-01-11T14:06:00Z</time>
      </trkpt>
      <trkpt lat="49.85446" lon="2.0659">
        <ele>72.3</ele>
        <time>2023-01-11T14:06:01Z</time>
      </trkpt>
      <trkpt lat="49.85446" lon="2.0659">
        <ele>72.3</ele>
        <time>2023-01-11T14:06:02Z</time>
      </trkpt>
      <trkpt lat="49.85448" lon="2.06591">
        <ele>72.3</ele>
        <time>2023-01-11T14:06:03Z</time>
      </trkpt>
      <trkpt lat="49.85449" lon="2.06592">
        <ele>72.3</ele>
        <time>2023-01-11T14:06:04Z</time>
      </trkpt>
      <trkpt lat="49.8545" lon="2.06592">
        <ele>72.3</ele>
        <time>2023-01-11T14:06:05Z</time>
      </trkpt>
      <trkpt lat="49.85452" lon="2.06592">
        <ele>72.3</ele>
        <time>2023-01-11T14:06:07Z</time>
      </trkpt>
      <trkpt lat="49.85453" lon="2.06593">
        <ele>72.3</ele>
        <time>2023-01-11T14:06:08Z</time>
      </trkpt>
      <trkpt lat="49.85454" lon="2.06593">
        <ele>72.3</ele>
        <time>2023-01-11T14:06:09Z</time>
      </trkpt>
      <trkpt lat="49.85456" lon="2.06594">
        <ele>72.3</ele>
        <time>2023-01-11T14:06:10Z</time>
      </trkpt>
      <trkpt lat="49.85457" lon="2.06594">
        <ele>72.4</ele>
        <time>2023-01-11T14:06:11Z</time>
      </trkpt>
      <trkpt lat="49.85458" lon="2.06595">
        <ele>72.4</ele>
        <time>2023-01-11T14:06:12Z</time>
      </trkpt>
      <trkpt lat="49.8546" lon="2.06595">
        <ele>72.4</ele>
        <time>2023-01-11T14:06:13Z</time>
      </trkpt>
      <trkpt lat="49.85461" lon="2.06595">
        <ele>72.4</ele>
        <time>2023-01-11T14:06:14Z</time>
      </trkpt>
      <trkpt lat="49.85463" lon="2.06597">
        <ele>72.4</ele>
        <time>2023-01-11T14:06:15Z</time>
      </trkpt>
      <trkpt lat="49.85464" lon="2.06597">
        <ele>72.4</ele>
        <time>2023-01-11T14:06:17Z</time>
      </trkpt>
      <trkpt lat="49.85465" lon="2.06598">
        <ele>72.4</ele>
        <time>2023-01-11T14:06:18Z</time>
      </trkpt>
      <trkpt lat="49.85466" lon="2.06598">
        <ele>72.4</ele>
        <time>2023-01-11T14:06:19Z</time>
      </trkpt>
      <trkpt lat="49.85467" lon="2.06599">
        <ele>72.4</ele>
        <time>2023-01-11T14:06:20Z</time>
      </trkpt>
      <trkpt lat="49.85468" lon="2.06599">
        <ele>72.4</ele>
        <time>2023-01-11T14:06:21Z</time>
      </trkpt>
      <trkpt lat="49.8547" lon="2.066">
        <ele>72.4</ele>
        <time>2023-01-11T14:06:22Z</time>
      </trkpt>
      <trkpt lat="49.85472" lon="2.06601">
        <ele>72.5</ele>
        <time>2023-01-11T14:06:24Z</time>
      </trkpt>
      <trkpt lat="49.85472" lon="2.06601">
        <ele>72.5</ele>
        <time>2023-01-11T14:06:25Z</time>
      </trkpt>
      <trkpt lat="49.85473" lon="2.06601">
        <ele>72.5</ele>
        <time>2023-01-11T14:06:26Z</time>
      </trkpt>
      <trkpt lat="49.85475" lon="2.06602">
        <ele>72.5</ele>
        <time>2023-01-11T14:06:27Z</time>
      </trkpt>
      <trkpt lat="49.85476" lon="2.06602">
        <ele>72.5</ele>
        <time>2023-01-11T14:06:28Z</time>
      </trkpt>
      <trkpt lat="49.85477" lon="2.06603">
        <ele>72.5</ele>
        <time>2023-01-11T14:06:29Z</time>
      </trkpt>
      <trkpt lat="49.85478" lon="2.06603">
        <ele>72.5</ele>
        <time>2023-01-11T14:06:31Z</time>
      </trkpt>
      <trkpt lat="49.85479" lon="2.06603">
        <ele>72.5</ele>
        <time>2023-01-11T14:06:32Z</time>
      </trkpt>
      <trkpt lat="49.8548" lon="2.06604">
        <ele>72.5</ele>
        <time>2023-01-11T14:06:33Z</time>
      </trkpt>
      <trkpt lat="49.85482" lon="2.06604">
        <ele>72.5</ele>
        <time>2023-01-11T14:06:34Z</time>
      </trkpt>
      <trkpt lat="49.85483" lon="2.06605">
        <ele>72.5</ele>
        <time>2023-01-11T14:06:35Z</time>
      </trkpt>
      <trkpt lat="49.85484" lon="2.06605">
        <ele>72.5</ele>
        <time>2023-01-11T14:06:36Z</time>
      </trkpt>
      <trkpt lat="49.85485" lon="2.06605">
        <ele>72.6</ele>
        <time>2023-01-11T14:06:37Z</time>
      </trkpt>
      <trkpt lat="49.85486" lon="2.06605">
        <ele>72.6</ele>
        <time>2023-01-11T14:06:38Z</time>
      </trkpt>
      <trkpt lat="49.85487" lon="2.06606">
        <ele>72.6</ele>
        <time>2023-01-11T14:06:39Z</time>
      </trkpt>
      <trkpt lat="49.85488" lon="2.06606">
        <ele>72.6</ele>
        <time>2023-01-11T14:06:40Z</time>
      </trkpt>
      <trkpt lat="49.8549" lon="2.06607">
        <ele>72.6</ele>
        <time>2023-01-11T14:06:41Z</time>
      </trkpt>
      <trkpt lat="49.85491" lon="2.06607">
        <ele>72.6</ele>
        <time>2023-01-11T14:06:43Z</time>
      </trkpt>
      <trkpt lat="49.85493" lon="2.06608">
        <ele>72.6</ele>
        <time>2023-01-11T14:06:44Z</time>
      </trkpt>
      <trkpt lat="49.85494" lon="2.06608">
        <ele>72.6</ele>
        <time>2023-01-11T14:06:45Z</time>
      </trkpt>
      <trkpt lat="49.85495" lon="2.06609">
        <ele>72.6</ele>
        <time>2023-01-11T14:06:46Z</time>
      </trkpt>
      <trkpt lat="49.85495" lon="2.06609">
        <ele>72.6</ele>
        <time>2023-01-11T14:06:47Z</time>
      </trkpt>
      <trkpt lat="49.85496" lon="2.0661">
        <ele>72.6</ele>
        <time>2023-01-11T14:06:48Z</time>
      </trkpt>
      <trkpt lat="49.85498" lon="2.0661">
        <ele>72.6</ele>
        <time>2023-01-11T14:06:49Z</time>
      </trkpt>
      <trkpt lat="49.855" lon="2.06611">
        <ele>72.6</ele>
        <time>2023-01-11T14:06:50Z</time>
      </trkpt>
      <trkpt lat="49.85501" lon="2.06611">
        <ele>72.6</ele>
        <time>2023-01-11T14:06:52Z</time>
      </trkpt>
      <trkpt lat="49.85502" lon="2.06611">
        <ele>72.6</ele>
        <time>2023-01-11T14:06:53Z</time>
      </trkpt>
      <trkpt lat="49.85503" lon="2.06611">
        <ele>72.6</ele>
        <time>2023-01-11T14:06:54Z</time>
      </trkpt>
      <trkpt lat="49.85504" lon="2.06612">
        <ele>72.6</ele>
        <time>2023-01-11T14:06:55Z</time>
      </trkpt>
      <trkpt lat="49.85506" lon="2.06612">
        <ele>72.6</ele>
        <time>2023-01-11T14:06:56Z</time>
      </trkpt>
      <trkpt lat="49.85507" lon="2.06613">
        <ele>72.6</ele>
        <time>2023-01-11T14:06:58Z</time>
      </trkpt>
      <trkpt lat="49.85508" lon="2.06613">
        <ele>72.6</ele>
        <time>2023-01-11T14:06:59Z</time>
      </trkpt>
      <trkpt lat="49.85509" lon="2.06613">
        <ele>72.6</ele>
        <time>2023-01-11T14:07:00Z</time>
      </trkpt>
      <trkpt lat="49.8551" lon="2.06614">
        <ele>72.6</ele>
        <time>2023-01-11T14:07:01Z</time>
      </trkpt>
      <trkpt lat="49.85511" lon="2.06614">
        <ele>72.6</ele>
        <time>2023-01-11T14:07:02Z</time>
      </trkpt>
      <trkpt lat="49.85513" lon="2.06615">
        <ele>72.6</ele>
        <time>2023-01-11T14:07:03Z</time>
      </trkpt>
      <trkpt lat="49.85514" lon="2.06615">
        <ele>72.6</ele>
        <time>2023-01-11T14:07:05Z</time>
      </trkpt>
      <trkpt lat="49.85515" lon="2.06615">
        <ele>72.6</ele>
        <time>2023-01-11T14:07:06Z</time>
      </trkpt>
      <trkpt lat="49.85517" lon="2.06616">
        <ele>72.6</ele>
        <time>2023-01-11T14:07:07Z</time>
      </trkpt>
      <trkpt lat="49.85517" lon="2.06616">
        <ele>72.6</ele>
        <time>2023-01-11T14:07:08Z</time>
      </trkpt>
      <trkpt lat="49.85518" lon="2.06616">
        <ele>72.6</ele>
        <time>2023-01-11T14:07:09Z</time>
      </trkpt>
      <trkpt lat="49.85519" lon="2.06616">
        <ele>72.6</ele>
        <time>2023-01-11T14:07:10Z</time>
      </trkpt>
      <trkpt lat="49.85521" lon="2.06616">
        <ele>72.6</ele>
        <time>2023-01-11T14:07:11Z</time>
      </trkpt>
      <trkpt lat="49.85521" lon="2.06616">
        <ele>72.6</ele>
        <time>2023-01-11T14:07:12Z</time>
      </trkpt>
      <trkpt lat="49.85523" lon="2.06616">
        <ele>72.7</ele>
        <time>2023-01-11T14:07:14Z</time>
      </trkpt>
      <trkpt lat="49.85524" lon="2.06616">
        <ele>72.7</ele>
        <time>2023-01-11T14:07:15Z</time>
      </trkpt>
      <trkpt lat="49.85524" lon="2.06616">
        <ele>72.7</ele>
        <time>2023-01-11T14:07:16Z</time>
      </trkpt>
      <trkpt lat="49.85525" lon="2.06616">
        <ele>72.7</ele>
        <time>2023-01-11T14:07:17Z</time>
      </trkpt>
      <trkpt lat="49.85526" lon="2.06617">
        <ele>72.7</ele>
        <time>2023-01-11T14:07:18Z</time>
      </trkpt>
      <trkpt lat="49.85527" lon="2.06617">
        <ele>72.7</ele>
        <time>2023-01-11T14:07:19Z</time>
      </trkpt>
      <trkpt lat="49.85528" lon="2.06617">
        <ele>72.7</ele>
        <time>2023-01-11T14:07:20Z</time>
      </trkpt>
      <trkpt lat="49.85529" lon="2.06617">
        <ele>72.7</ele>
        <time>2023-01-11T14:07:21Z</time>
      </trkpt>
      <trkpt lat="49.85529" lon="2.06617">
        <ele>72.7</ele>
        <time>2023-01-11T14:07:23Z</time>
      </trkpt>
      <trkpt lat="49.8553" lon="2.06617">
        <ele>72.7</ele>
        <time>2023-01-11T14:07:24Z</time>
      </trkpt>
      <trkpt lat="49.85531" lon="2.06617">
        <ele>72.7</ele>
        <time>2023-01-11T14:07:25Z</time>
      </trkpt>
      <trkpt lat="49.85532" lon="2.06618">
        <ele>72.7</ele>
        <time>2023-01-11T14:07:26Z</time>
      </trkpt>
      <trkpt lat="49.85533" lon="2.06618">
        <ele>72.7</ele>
        <time>2023-01-11T14:07:28Z</time>
      </trkpt>
      <trkpt lat="49.85533" lon="2.0662">
        <ele>72.7</ele>
        <time>2023-01-11T14:07:29Z</time>
      </trkpt>
      <trkpt lat="49.85532" lon="2.0662">
        <ele>72.7</ele>
        <time>2023-01-11T14:07:31Z</time>
      </trkpt>
      <trkpt lat="49.85532" lon="2.06619">
        <ele>72.7</ele>
        <time>2023-01-11T14:07:32Z</time>
      </trkpt>
      <trkpt lat="49.85534" lon="2.0662">
        <ele>72.7</ele>
        <time>2023-01-11T14:07:34Z</time>
      </trkpt>
      <trkpt lat="49.85535" lon="2.0662">
        <ele>72.7</ele>
        <time>2023-01-11T14:07:36Z</time>
      </trkpt>
      <trkpt lat="49.85536" lon="2.06621">
        <ele>72.7</ele>
        <time>2023-01-11T14:07:37Z</time>
      </trkpt>
      <trkpt lat="49.85537" lon="2.06621">
        <ele>72.7</ele>
        <time>2023-01-11T14:07:38Z</time>
      </trkpt>
      <trkpt lat="49.85538" lon="2.06621">
        <ele>72.7</ele>
        <time>2023-01-11T14:07:39Z</time>
      </trkpt>
      <trkpt lat="49.85539" lon="2.06622">
        <ele>72.7</ele>
        <time>2023-01-11T14:07:40Z</time>
      </trkpt>
      <trkpt lat="49.85539" lon="2.06621">
        <ele>72.7</ele>
        <time>2023-01-11T14:07:42Z</time>
      </trkpt>
      <trkpt lat="49.8554" lon="2.06621">
        <ele>72.7</ele>
        <time>2023-01-11T14:07:43Z</time>
      </trkpt>
      <trkpt lat="49.85539" lon="2.06621">
        <ele>72.7</ele>
        <time>2023-01-11T14:07:44Z</time>
      </trkpt>
      <trkpt lat="49.85539" lon="2.06622">
        <ele>72.7</ele>
        <time>2023-01-11T14:07:46Z</time>
      </trkpt>
      <trkpt lat="49.85539" lon="2.06623">
        <ele>72.7</ele>
        <time>2023-01-11T14:07:47Z</time>
      </trkpt>
      <trkpt lat="49.8554" lon="2.06623">
        <ele>72.7</ele>
        <time>2023-01-11T14:07:48Z</time>
      </trkpt>
      <trkpt lat="49.8554" lon="2.06623">
        <ele>72.7</ele>
        <time>2023-01-11T14:07:50Z</time>
      </trkpt>
      <trkpt lat="49.8554" lon="2.06623">
        <ele>72.7</ele>
        <time>2023-01-11T14:07:51Z</time>
      </trkpt>
      <trkpt lat="49.85539" lon="2.06621">
        <ele>72.7</ele>
        <time>2023-01-11T14:07:52Z</time>
      </trkpt>
      <trkpt lat="49.85539" lon="2.0662">
        <ele>72.7</ele>
        <time>2023-01-11T14:07:54Z</time>
      </trkpt>
      <trkpt lat="49.85539" lon="2.06619">
        <ele>72.7</ele>
        <time>2023-01-11T14:07:56Z</time>
      </trkpt>
      <trkpt lat="49.85539" lon="2.06618">
        <ele>72.7</ele>
        <time>2023-01-11T14:07:57Z</time>
      </trkpt>
      <trkpt lat="49.85539" lon="2.06618">
        <ele>72.7</ele>
        <time>2023-01-11T14:07:58Z</time>
      </trkpt>
      <trkpt lat="49.85539" lon="2.06618">
        <ele>72.7</ele>
        <time>2023-01-11T14:07:59Z</time>
      </trkpt>
      <trkpt lat="49.85539" lon="2.06618">
        <ele>72.7</ele>
        <time>2023-01-11T14:08:00Z</time>
      </trkpt>
      <trkpt lat="49.85538" lon="2.06619">
        <ele>72.7</ele>
        <time>2023-01-11T14:08:02Z</time>
      </trkpt>
      <trkpt lat="49.85538" lon="2.0662">
        <ele>72.8</ele>
        <time>2023-01-11T14:08:03Z</time>
      </trkpt>
      <trkpt lat="49.85537" lon="2.0662">
        <ele>72.8</ele>
        <time>2023-01-11T14:08:05Z</time>
      </trkpt>
      <trkpt lat="49.85537" lon="2.0662">
        <ele>72.8</ele>
        <time>2023-01-11T14:08:06Z</time>
      </trkpt>
      <trkpt lat="49.85537" lon="2.0662">
        <ele>72.8</ele>
        <time>2023-01-11T14:08:07Z</time>
      </trkpt>
      <trkpt lat="49.85537" lon="2.0662">
        <ele>72.8</ele>
        <time>2023-01-11T14:08:09Z</time>
      </trkpt>
      <trkpt lat="49.85537" lon="2.0662">
        <ele>72.8</ele>
        <time>2023-01-11T14:08:10Z</time>
      </trkpt>
      <trkpt lat="49.85537" lon="2.06621">
        <ele>72.8</ele>
        <time>2023-01-11T14:08:12Z</time>
      </trkpt>
      <trkpt lat="49.85537" lon="2.06621">
        <ele>72.8</ele>
        <time>2023-01-11T14:08:13Z</time>
      </trkpt>
      <trkpt lat="49.85536" lon="2.06621">
        <ele>72.8</ele>
        <time>2023-01-11T14:08:15Z</time>
      </trkpt>
      <trkpt lat="49.85536" lon="2.06621">
        <ele>72.8</ele>
        <time>2023-01-11T14:08:16Z</time>
      </trkpt>
      <trkpt lat="49.85536" lon="2.0662">
        <ele>72.8</ele>
        <time>2023-01-11T14:08:17Z</time>
      </trkpt>
      <trkpt lat="49.85536" lon="2.0662">
        <ele>72.8</ele>
        <time>2023-01-11T14:08:18Z</time>
      </trkpt>
      <trkpt lat="49.85536" lon="2.0662">
        <ele>72.8</ele>
        <time>2023-01-11T14:08:19Z</time>
      </trkpt>
      <trkpt lat="49.85536" lon="2.0662">
        <ele>72.8</ele>
        <time>2023-01-11T14:08:20Z</time>
      </trkpt>
      <trkpt lat="49.85536" lon="2.0662">
        <ele>72.8</ele>
        <time>2023-01-11T14:08:21Z</time>
      </trkpt>
      <trkpt lat="49.85536" lon="2.0662">
        <ele>72.8</ele>
        <time>2023-01-11T14:08:22Z</time>
      </trkpt>
      <trkpt lat="49.85536" lon="2.0662">
        <ele>72.8</ele>
        <time>2023-01-11T14:08:23Z</time>
      </trkpt>
      <trkpt lat="49.85536" lon="2.0662">
        <ele>72.8</ele>
        <time>2023-01-11T14:08:24Z</time>
      </trkpt>
      <trkpt lat="49.85536" lon="2.0662">
        <ele>72.8</ele>
        <time>2023-01-11T14:08:25Z</time>
      </trkpt>
      <trkpt lat="49.85536" lon="2.0662">
        <ele>72.8</ele>
        <time>2023-01-11T14:08:26Z</time>
      </trkpt>
      <trkpt lat="49.85536" lon="2.0662">
        <ele>72.8</ele>
        <time>2023-01-11T14:08:27Z</time>
      </trkpt>
      <trkpt lat="49.85536" lon="2.0662">
        <ele>72.8</ele>
        <time>2023-01-11T14:08:28Z</time>
      </trkpt>
      <trkpt lat="49.85536" lon="2.0662">
        <ele>72.8</ele>
        <time>2023-01-11T14:08:29Z</time>
      </trkpt>
      <trkpt lat="49.85536" lon="2.0662">
        <ele>72.8</ele>
        <time>2023-01-11T14:08:30Z</time>
      </trkpt>
      <trkpt lat="49.85536" lon="2.0662">
        <ele>72.8</ele>
        <time>2023-01-11T14:08:31Z</time>
      </trkpt>
      <trkpt lat="49.85536" lon="2.0662">
        <ele>72.8</ele>
        <time>2023-01-11T14:08:32Z</time>
      </trkpt>
      <trkpt lat="49.85536" lon="2.0662">
        <ele>72.8</ele>
        <time>2023-01-11T14:08:33Z</time>
      </trkpt>
      <trkpt lat="49.85536" lon="2.0662">
        <ele>72.8</ele>
        <time>2023-01-11T14:08:34Z</time>
      </trkpt>
      <trkpt lat="49.85536" lon="2.0662">
        <ele>72.8</ele>
        <time>2023-01-11T14:08:35Z</time>
      </trkpt>
      <trkpt lat="49.85536" lon="2.0662">
        <ele>72.8</ele>
        <time>2023-01-11T14:08:36Z</time>
      </trkpt>
      <trkpt lat="49.85536" lon="2.0662">
        <ele>72.8</ele>
        <time>2023-01-11T14:08:37Z</time>
      </trkpt>
      <trkpt lat="49.85536" lon="2.0662">
        <ele>72.8</ele>
        <time>2023-01-11T14:08:38Z</time>
      </trkpt>
      <trkpt lat="49.85536" lon="2.0662">
        <ele>72.8</ele>
        <time>2023-01-11T14:08:39Z</time>
      </trkpt>
      <trkpt lat="49.85536" lon="2.0662">
        <ele>72.8</ele>
        <time>2023-01-11T14:08:40Z</time>
      </trkpt>
      <trkpt lat="49.85536" lon="2.0662">
        <ele>72.8</ele>
        <time>2023-01-11T14:08:41Z</time>
      </trkpt>
      <trkpt lat="49.85536" lon="2.0662">
        <ele>72.8</ele>
        <time>2023-01-11T14:08:42Z</time>
      </trkpt>
      <trkpt lat="49.85536" lon="2.0662">
        <ele>72.8</ele>
        <time>2023-01-11T14:08:43Z</time>
      </trkpt>
      <trkpt lat="49.85536" lon="2.0662">
        <ele>72.8</ele>
        <time>2023-01-11T14:08:44Z</time>
      </trkpt>
      <trkpt lat="49.85536" lon="2.0662">
        <ele>72.8</ele>
        <time>2023-01-11T14:08:45Z</time>
      </trkpt>
      <trkpt lat="49.85536" lon="2.0662">
        <ele>72.8</ele>
        <time>2023-01-11T14:08:46Z</time>
      </trkpt>
      <trkpt lat="49.85536" lon="2.0662">
        <ele>72.8</ele>
        <time>2023-01-11T14:08:47Z</time>
      </trkpt>
      <trkpt lat="49.85536" lon="2.0662">
        <ele>72.8</ele>
        <time>2023-01-11T14:08:48Z</time>
      </trkpt>
      <trkpt lat="49.85536" lon="2.0662">
        <ele>72.8</ele>
        <time>2023-01-11T14:08:49Z</time>
      </trkpt>
      <trkpt lat="49.85536" lon="2.0662">
        <ele>72.8</ele>
        <time>2023-01-11T14:08:50Z</time>
      </trkpt>
      <trkpt lat="49.85536" lon="2.0662">
        <ele>72.8</ele>
        <time>2023-01-11T14:08:51Z</time>
      </trkpt>
      <trkpt lat="49.85536" lon="2.0662">
        <ele>72.8</ele>
        <time>2023-01-11T14:08:52Z</time>
      </trkpt>
      <trkpt lat="49.85536" lon="2.0662">
        <ele>72.8</ele>
        <time>2023-01-11T14:08:53Z</time>
      </trkpt>
      <trkpt lat="49.85536" lon="2.0662">
        <ele>72.8</ele>
        <time>2023-01-11T14:08:54Z</time>
      </trkpt>
      <trkpt lat="49.85536" lon="2.0662">
        <ele>72.8</ele>
        <time>2023-01-11T14:08:55Z</time>
      </trkpt>
      <trkpt lat="49.85536" lon="2.0662">
        <ele>72.8</ele>
        <time>2023-01-11T14:08:56Z</time>
      </trkpt>
      <trkpt lat="49.85536" lon="2.0662">
        <ele>72.8</ele>
        <time>2023-01-11T14:08:57Z</time>
      </trkpt>
      <trkpt lat="49.85536" lon="2.0662">
        <ele>72.8</ele>
        <time>2023-01-11T14:08:58Z</time>
      </trkpt>
      <trkpt lat="49.85536" lon="2.0662">
        <ele>72.8</ele>
        <time>2023-01-11T14:08:59Z</time>
      </trkpt>
      <trkpt lat="49.85536" lon="2.0662">
        <ele>72.8</ele>
        <time>2023-01-11T14:09:00Z</time>
      </trkpt>
      <trkpt lat="49.85536" lon="2.0662">
        <ele>72.8</ele>
        <time>2023-01-11T14:09:01Z</time>
      </trkpt>
      <trkpt lat="49.85536" lon="2.0662">
        <ele>72.8</ele>
        <time>2023-01-11T14:09:02Z</time>
      </trkpt>
      <trkpt lat="49.85536" lon="2.0662">
        <ele>72.8</ele>
        <time>2023-01-11T14:09:03Z</time>
      </trkpt>
      <trkpt lat="49.85536" lon="2.0662">
        <ele>72.8</ele>
        <time>2023-01-11T14:09:04Z</time>
      </trkpt>
      <trkpt lat="49.85536" lon="2.0662">
        <ele>72.8</ele>
        <time>2023-01-11T14:09:05Z</time>
      </trkpt>
      <trkpt lat="49.85536" lon="2.0662">
        <ele>72.8</ele>
        <time>2023-01-11T14:09:06Z</time>
      </trkpt>
      <trkpt lat="49.85536" lon="2.0662">
        <ele>72.8</ele>
        <time>2023-01-11T14:09:07Z</time>
      </trkpt>
      <trkpt lat="49.85536" lon="2.0662">
        <ele>72.8</ele>
        <time>2023-01-11T14:09:08Z</time>
      </trkpt>
      <trkpt lat="49.85536" lon="2.0662">
        <ele>72.8</ele>
        <time>2023-01-11T14:09:09Z</time>
      </trkpt>
      <trkpt lat="49.85536" lon="2.0662">
        <ele>72.8</ele>
        <time>2023-01-11T14:09:10Z</time>
      </trkpt>
      <trkpt lat="49.85536" lon="2.0662">
        <ele>72.8</ele>
        <time>2023-01-11T14:09:11Z</time>
      </trkpt>
      <trkpt lat="49.85536" lon="2.0662">
        <ele>72.8</ele>
        <time>2023-01-11T14:09:12Z</time>
      </trkpt>
      <trkpt lat="49.85536" lon="2.0662">
        <ele>72.8</ele>
        <time>2023-01-11T14:09:13Z</time>
      </trkpt>
      <trkpt lat="49.85536" lon="2.0662">
        <ele>72.8</ele>
        <time>2023-01-11T14:09:14Z</time>
      </trkpt>
      <trkpt lat="49.85536" lon="2.0662">
        <ele>72.8</ele>
        <time>2023-01-11T14:09:15Z</time>
      </trkpt>
      <trkpt lat="49.85536" lon="2.0662">
        <ele>72.8</ele>
        <time>2023-01-11T14:09:16Z</time>
      </trkpt>
      <trkpt lat="49.85536" lon="2.0662">
        <ele>72.8</ele>
        <time>2023-01-11T14:09:17Z</time>
      </trkpt>
      <trkpt lat="49.85536" lon="2.0662">
        <ele>72.8</ele>
        <time>2023-01-11T14:09:18Z</time>
      </trkpt>
      <trkpt lat="49.85536" lon="2.0662">
        <ele>72.8</ele>
        <time>2023-01-11T14:09:19Z</time>
      </trkpt>
      <trkpt lat="49.85536" lon="2.0662">
        <ele>72.8</ele>
        <time>2023-01-11T14:09:20Z</time>
      </trkpt>
      <trkpt lat="49.85536" lon="2.0662">
        <ele>72.8</ele>
        <time>2023-01-11T14:09:21Z</time>
      </trkpt>
      <trkpt lat="49.85536" lon="2.0662">
        <ele>72.8</ele>
        <time>2023-01-11T14:09:22Z</time>
      </trkpt>
      <trkpt lat="49.85536" lon="2.0662">
        <ele>72.8</ele>
        <time>2023-01-11T14:09:23Z</time>
      </trkpt>
      <trkpt lat="49.85536" lon="2.0662">
        <ele>72.8</ele>
        <time>2023-01-11T14:09:24Z</time>
      </trkpt>
      <trkpt lat="49.85536" lon="2.0662">
        <ele>72.8</ele>
        <time>2023-01-11T14:09:25Z</time>
      </trkpt>
      <trkpt lat="49.85536" lon="2.0662">
        <ele>72.8</ele>
        <time>2023-01-11T14:09:26Z</time>
      </trkpt>
      <trkpt lat="49.85536" lon="2.06621">
        <ele>72.8</ele>
        <time>2023-01-11T14:09:27Z</time>
      </trkpt>
      <trkpt lat="49.85536" lon="2.06622">
        <ele>72.8</ele>
        <time>2023-01-11T14:09:28Z</time>
      </trkpt>
      <trkpt lat="49.85536" lon="2.06622">
        <ele>72.8</ele>
        <time>2023-01-11T14:09:29Z</time>
      </trkpt>
      <trkpt lat="49.85536" lon="2.06622">
        <ele>72.8</ele>
        <time>2023-01-11T14:09:30Z</time>
      </trkpt>
      <trkpt lat="49.85537" lon="2.06622">
        <ele>72.8</ele>
        <time>2023-01-11T14:09:31Z</time>
      </trkpt>
      <trkpt lat="49.85538" lon="2.06622">
        <ele>72.8</ele>
        <time>2023-01-11T14:09:32Z</time>
      </trkpt>
      <trkpt lat="49.85538" lon="2.06621">
        <ele>72.8</ele>
        <time>2023-01-11T14:09:33Z</time>
      </trkpt>
      <trkpt lat="49.85538" lon="2.06621">
        <ele>72.8</ele>
        <time>2023-01-11T14:09:34Z</time>
      </trkpt>
      <trkpt lat="49.85538" lon="2.06621">
        <ele>72.8</ele>
        <time>2023-01-11T14:09:35Z</time>
      </trkpt>
      <trkpt lat="49.85538" lon="2.0662">
        <ele>72.8</ele>
        <time>2023-01-11T14:09:36Z</time>
      </trkpt>
      <trkpt lat="49.85538" lon="2.0662">
        <ele>72.8</ele>
        <time>2023-01-11T14:09:37Z</time>
      </trkpt>
      <trkpt lat="49.85538" lon="2.06621">
        <ele>72.8</ele>
        <time>2023-01-11T14:09:38Z</time>
      </trkpt>
      <trkpt lat="49.85538" lon="2.06621">
        <ele>72.8</ele>
        <time>2023-01-11T14:09:39Z</time>
      </trkpt>
      <trkpt lat="49.85538" lon="2.06621">
        <ele>72.8</ele>
        <time>2023-01-11T14:09:40Z</time>
      </trkpt>
      <trkpt lat="49.85538" lon="2.06621">
        <ele>72.8</ele>
        <time>2023-01-11T14:09:41Z</time>
      </trkpt>
      <trkpt lat="49.85538" lon="2.06621">
        <ele>72.8</ele>
        <time>2023-01-11T14:09:42Z</time>
      </trkpt>
      <trkpt lat="49.85538" lon="2.06621">
        <ele>72.8</ele>
        <time>2023-01-11T14:09:43Z</time>
      </trkpt>
      <trkpt lat="49.85538" lon="2.06621">
        <ele>72.8</ele>
        <time>2023-01-11T14:09:44Z</time>
      </trkpt>
      <trkpt lat="49.85538" lon="2.06621">
        <ele>72.8</ele>
        <time>2023-01-11T14:09:45Z</time>
      </trkpt>
      <trkpt lat="49.85538" lon="2.06621">
        <ele>72.8</ele>
        <time>2023-01-11T14:09:46Z</time>
      </trkpt>
      <trkpt lat="49.85538" lon="2.06621">
        <ele>72.8</ele>
        <time>2023-01-11T14:09:47Z</time>
      </trkpt>
      <trkpt lat="49.85538" lon="2.06621">
        <ele>72.8</ele>
        <time>2023-01-11T14:09:48Z</time>
      </trkpt>
      <trkpt lat="49.85538" lon="2.06621">
        <ele>72.8</ele>
        <time>2023-01-11T14:09:49Z</time>
      </trkpt>
      <trkpt lat="49.85538" lon="2.06621">
        <ele>72.8</ele>
        <time>2023-01-11T14:09:50Z</time>
      </trkpt>
      <trkpt lat="49.85538" lon="2.06621">
        <ele>72.8</ele>
        <time>2023-01-11T14:09:51Z</time>
      </trkpt>
      <trkpt lat="49.85538" lon="2.06621">
        <ele>72.8</ele>
        <time>2023-01-11T14:09:52Z</time>
      </trkpt>
      <trkpt lat="49.85538" lon="2.06621">
        <ele>72.8</ele>
        <time>2023-01-11T14:09:53Z</time>
      </trkpt>
      <trkpt lat="49.85538" lon="2.06621">
        <ele>72.8</ele>
        <time>2023-01-11T14:09:54Z</time>
      </trkpt>
      <trkpt lat="49.85538" lon="2.06621">
        <ele>72.8</ele>
        <time>2023-01-11T14:09:55Z</time>
      </trkpt>
      <trkpt lat="49.85538" lon="2.06621">
        <ele>72.8</ele>
        <time>2023-01-11T14:09:56Z</time>
      </trkpt>
      <trkpt lat="49.85538" lon="2.06621">
        <ele>72.8</ele>
        <time>2023-01-11T14:09:57Z</time>
      </trkpt>
      <trkpt lat="49.85538" lon="2.06621">
        <ele>72.8</ele>
        <time>2023-01-11T14:09:58Z</time>
      </trkpt>
      <trkpt lat="49.85538" lon="2.06621">
        <ele>72.8</ele>
        <time>2023-01-11T14:09:59Z</time>
      </trkpt>
      <trkpt lat="49.85538" lon="2.06621">
        <ele>72.8</ele>
        <time>2023-01-11T14:10:00Z</time>
      </trkpt>
      <trkpt lat="49.85538" lon="2.06621">
        <ele>72.8</ele>
        <time>2023-01-11T14:10:01Z</time>
      </trkpt>
      <trkpt lat="49.85538" lon="2.06621">
        <ele>72.8</ele>
        <time>2023-01-11T14:10:02Z</time>
      </trkpt>
      <trkpt lat="49.85538" lon="2.06621">
        <ele>72.8</ele>
        <time>2023-01-11T14:10:03Z</time>
      </trkpt>
      <trkpt lat="49.85538" lon="2.06621">
        <ele>72.8</ele>
        <time>2023-01-11T14:10:04Z</time>
      </trkpt>
      <trkpt lat="49.85538" lon="2.06621">
        <ele>72.8</ele>
        <time>2023-01-11T14:10:05Z</time>
      </trkpt>
      <trkpt lat="49.85538" lon="2.06621">
        <ele>72.8</ele>
        <time>2023-01-11T14:10:06Z</time>
      </trkpt>
      <trkpt lat="49.85538" lon="2.06621">
        <ele>72.8</ele>
        <time>2023-01-11T14:10:07Z</time>
      </trkpt>
      <trkpt lat="49.85538" lon="2.06621">
        <ele>72.8</ele>
        <time>2023-01-11T14:10:08Z</time>
      </trkpt>
      <trkpt lat="49.85538" lon="2.06621">
        <ele>72.8</ele>
        <time>2023-01-11T14:10:09Z</time>
      </trkpt>
      <trkpt lat="49.85538" lon="2.06621">
        <ele>72.8</ele>
        <time>2023-01-11T14:10:10Z</time>
      </trkpt>
      <trkpt lat="49.85538" lon="2.06621">
        <ele>72.8</ele>
        <time>2023-01-11T14:10:11Z</time>
      </trkpt>
      <trkpt lat="49.85538" lon="2.06621">
        <ele>72.8</ele>
        <time>2023-01-11T14:10:12Z</time>
      </trkpt>
      <trkpt lat="49.85538" lon="2.06621">
        <ele>72.8</ele>
        <time>2023-01-11T14:10:13Z</time>
      </trkpt>
      <trkpt lat="49.85538" lon="2.06621">
        <ele>72.8</ele>
        <time>2023-01-11T14:10:14Z</time>
      </trkpt>
      <trkpt lat="49.85538" lon="2.06621">
        <ele>72.8</ele>
        <time>2023-01-11T14:10:15Z</time>
      </trkpt>
      <trkpt lat="49.85538" lon="2.06621">
        <ele>72.8</ele>
        <time>2023-01-11T14:10:16Z</time>
      </trkpt>
      <trkpt lat="49.85538" lon="2.06621">
        <ele>72.8</ele>
        <time>2023-01-11T14:10:17Z</time>
      </trkpt>
      <trkpt lat="49.85538" lon="2.06621">
        <ele>72.8</ele>
        <time>2023-01-11T14:10:18Z</time>
      </trkpt>
      <trkpt lat="49.85538" lon="2.06621">
        <ele>72.8</ele>
        <time>2023-01-11T14:10:19Z</time>
      </trkpt>
      <trkpt lat="49.85538" lon="2.06621">
        <ele>72.8</ele>
        <time>2023-01-11T14:10:20Z</time>
      </trkpt>
      <trkpt lat="49.85538" lon="2.06621">
        <ele>72.8</ele>
        <time>2023-01-11T14:10:21Z</time>
      </trkpt>
      <trkpt lat="49.85538" lon="2.06621">
        <ele>72.8</ele>
        <time>2023-01-11T14:10:22Z</time>
      </trkpt>
      <trkpt lat="49.85538" lon="2.06621">
        <ele>72.8</ele>
        <time>2023-01-11T14:10:23Z</time>
      </trkpt>
      <trkpt lat="49.85538" lon="2.06621">
        <ele>72.8</ele>
        <time>2023-01-11T14:10:24Z</time>
      </trkpt>
      <trkpt lat="49.85538" lon="2.06621">
        <ele>72.8</ele>
        <time>2023-01-11T14:10:25Z</time>
      </trkpt>
      <trkpt lat="49.85538" lon="2.06621">
        <ele>72.8</ele>
        <time>2023-01-11T14:10:26Z</time>
      </trkpt>
      <trkpt lat="49.85538" lon="2.06621">
        <ele>72.8</ele>
        <time>2023-01-11T14:10:27Z</time>
      </trkpt>
      <trkpt lat="49.85538" lon="2.06621">
        <ele>72.8</ele>
        <time>2023-01-11T14:10:28Z</time>
      </trkpt>
      <trkpt lat="49.85538" lon="2.06621">
        <ele>72.8</ele>
        <time>2023-01-11T14:10:29Z</time>
      </trkpt>
      <trkpt lat="49.85538" lon="2.06621">
        <ele>72.8</ele>
        <time>2023-01-11T14:10:30Z</time>
      </trkpt>
      <trkpt lat="49.85538" lon="2.06621">
        <ele>72.8</ele>
        <time>2023-01-11T14:10:31Z</time>
      </trkpt>
      <trkpt lat="49.85538" lon="2.06621">
        <ele>72.8</ele>
        <time>2023-01-11T14:10:32Z</time>
      </trkpt>
      <trkpt lat="49.85538" lon="2.06621">
        <ele>72.8</ele>
        <time>2023-01-11T14:10:33Z</time>
      </trkpt>
      <trkpt lat="49.85538" lon="2.06621">
        <ele>72.8</ele>
        <time>2023-01-11T14:10:34Z</time>
      </trkpt>
      <trkpt lat="49.85538" lon="2.06621">
        <ele>72.8</ele>
        <time>2023-01-11T14:10:35Z</time>
      </trkpt>
      <trkpt lat="49.85538" lon="2.06621">
        <ele>72.8</ele>
        <time>2023-01-11T14:10:36Z</time>
      </trkpt>
      <trkpt lat="49.85538" lon="2.06621">
        <ele>72.8</ele>
        <time>2023-01-11T14:10:37Z</time>
      </trkpt>
      <trkpt lat="49.85538" lon="2.06621">
        <ele>72.8</ele>
        <time>2023-01-11T14:10:38Z</time>
      </trkpt>
      <trkpt lat="49.85538" lon="2.06621">
        <ele>72.8</ele>
        <time>2023-01-11T14:10:39Z</time>
      </trkpt>
      <trkpt lat="49.85538" lon="2.06621">
        <ele>72.8</ele>
        <time>2023-01-11T14:10:40Z</time>
      </trkpt>
      <trkpt lat="49.85538" lon="2.06621">
        <ele>72.8</ele>
        <time>2023-01-11T14:10:41Z</time>
      </trkpt>
      <trkpt lat="49.85539" lon="2.06621">
        <ele>72.8</ele>
        <time>2023-01-11T14:10:42Z</time>
      </trkpt>
      <trkpt lat="49.8554" lon="2.06621">
        <ele>72.8</ele>
        <time>2023-01-11T14:10:43Z</time>
      </trkpt>
      <trkpt lat="49.8554" lon="2.06621">
        <ele>72.8</ele>
        <time>2023-01-11T14:10:44Z</time>
      </trkpt>
      <trkpt lat="49.85541" lon="2.06621">
        <ele>72.8</ele>
        <time>2023-01-11T14:10:45Z</time>
      </trkpt>
      <trkpt lat="49.85542" lon="2.0662">
        <ele>72.8</ele>
        <time>2023-01-11T14:10:46Z</time>
      </trkpt>
      <trkpt lat="49.85543" lon="2.0662">
        <ele>72.8</ele>
        <time>2023-01-11T14:10:47Z</time>
      </trkpt>
      <trkpt lat="49.85544" lon="2.0662">
        <ele>72.8</ele>
        <time>2023-01-11T14:10:48Z</time>
      </trkpt>
      <trkpt lat="49.85545" lon="2.0662">
        <ele>72.8</ele>
        <time>2023-01-11T14:10:49Z</time>
      </trkpt>
      <trkpt lat="49.85546" lon="2.0662">
        <ele>72.8</ele>
        <time>2023-01-11T14:10:51Z</time>
      </trkpt>
      <trkpt lat="49.85547" lon="2.0662">
        <ele>72.9</ele>
        <time>2023-01-11T14:10:52Z</time>
      </trkpt>
      <trkpt lat="49.85549" lon="2.06621">
        <ele>72.9</ele>
        <time>2023-01-11T14:10:53Z</time>
      </trkpt>
      <trkpt lat="49.8555" lon="2.06621">
        <ele>72.9</ele>
        <time>2023-01-11T14:10:54Z</time>
      </trkpt>
      <trkpt lat="49.85551" lon="2.06621">
        <ele>72.9</ele>
        <time>2023-01-11T14:10:55Z</time>
      </trkpt>
      <trkpt lat="49.85553" lon="2.06621">
        <ele>72.9</ele>
        <time>2023-01-11T14:10:56Z</time>
      </trkpt>
      <trkpt lat="49.85555" lon="2.06621">
        <ele>73</ele>
        <time>2023-01-11T14:10:58Z</time>
      </trkpt>
      <trkpt lat="49.85556" lon="2.06621">
        <ele>73</ele>
        <time>2023-01-11T14:10:59Z</time>
      </trkpt>
      <trkpt lat="49.85557" lon="2.06621">
        <ele>73</ele>
        <time>2023-01-11T14:11:00Z</time>
      </trkpt>
      <trkpt lat="49.85558" lon="2.06621">
        <ele>73.1</ele>
        <time>2023-01-11T14:11:01Z</time>
      </trkpt>
      <trkpt lat="49.85559" lon="2.06622">
        <ele>73.1</ele>
        <time>2023-01-11T14:11:02Z</time>
      </trkpt>
      <trkpt lat="49.8556" lon="2.06624">
        <ele>73.1</ele>
        <time>2023-01-11T14:11:03Z</time>
      </trkpt>
      <trkpt lat="49.85561" lon="2.06624">
        <ele>73.2</ele>
        <time>2023-01-11T14:11:04Z</time>
      </trkpt>
      <trkpt lat="49.85564" lon="2.06626">
        <ele>73.2</ele>
        <time>2023-01-11T14:11:05Z</time>
      </trkpt>
      <trkpt lat="49.85565" lon="2.06627">
        <ele>73.2</ele>
        <time>2023-01-11T14:11:07Z</time>
      </trkpt>
      <trkpt lat="49.85566" lon="2.06627">
        <ele>73.3</ele>
        <time>2023-01-11T14:11:08Z</time>
      </trkpt>
      <trkpt lat="49.85567" lon="2.06629">
        <ele>73.3</ele>
        <time>2023-01-11T14:11:09Z</time>
      </trkpt>
      <trkpt lat="49.85568" lon="2.06629">
        <ele>73.3</ele>
        <time>2023-01-11T14:11:10Z</time>
      </trkpt>
      <trkpt lat="49.85569" lon="2.0663">
        <ele>73.4</ele>
        <time>2023-01-11T14:11:11Z</time>
      </trkpt>
      <trkpt lat="49.85571" lon="2.06632">
        <ele>73.4</ele>
        <time>2023-01-11T14:11:12Z</time>
      </trkpt>
      <trkpt lat="49.85571" lon="2.06633">
        <ele>73.4</ele>
        <time>2023-01-11T14:11:13Z</time>
      </trkpt>
      <trkpt lat="49.85573" lon="2.06635">
        <ele>73.5</ele>
        <time>2023-01-11T14:11:14Z</time>
      </trkpt>
      <trkpt lat="49.85574" lon="2.06636">
        <ele>73.5</ele>
        <time>2023-01-11T14:11:16Z</time>
      </trkpt>
      <trkpt lat="49.85574" lon="2.06637">
        <ele>73.5</ele>
        <time>2023-01-11T14:11:17Z</time>
      </trkpt>
      <trkpt lat="49.85576" lon="2.06639">
        <ele>73.6</ele>
        <time>2023-01-11T14:11:18Z</time>
      </trkpt>
      <trkpt lat="49.85577" lon="2.0664">
        <ele>73.6</ele>
        <time>2023-01-11T14:11:19Z</time>
      </trkpt>
      <trkpt lat="49.85579" lon="2.06641">
        <ele>73.6</ele>
        <time>2023-01-11T14:11:20Z</time>
      </trkpt>
      <trkpt lat="49.85579" lon="2.06642">
        <ele>73.7</ele>
        <time>2023-01-11T14:11:21Z</time>
      </trkpt>
      <trkpt lat="49.8558" lon="2.06643">
        <ele>73.7</ele>
        <time>2023-01-11T14:11:22Z</time>
      </trkpt>
      <trkpt lat="49.85581" lon="2.06645">
        <ele>73.7</ele>
        <time>2023-01-11T14:11:23Z</time>
      </trkpt>
      <trkpt lat="49.85582" lon="2.06646">
        <ele>73.7</ele>
        <time>2023-01-11T14:11:24Z</time>
      </trkpt>
      <trkpt lat="49.85584" lon="2.06649">
        <ele>73.8</ele>
        <time>2023-01-11T14:11:25Z</time>
      </trkpt>
      <trkpt lat="49.85585" lon="2.0665">
        <ele>73.8</ele>
        <time>2023-01-11T14:11:27Z</time>
      </trkpt>
      <trkpt lat="49.85586" lon="2.06651">
        <ele>73.8</ele>
        <time>2023-01-11T14:11:28Z</time>
      </trkpt>
      <trkpt lat="49.85586" lon="2.06652">
        <ele>73.8</ele>
        <time>2023-01-11T14:11:29Z</time>
      </trkpt>
      <trkpt lat="49.85587" lon="2.06653">
        <ele>73.9</ele>
        <time>2023-01-11T14:11:30Z</time>
      </trkpt>
      <trkpt lat="49.85588" lon="2.06654">
        <ele>73.9</ele>
        <time>2023-01-11T14:11:31Z</time>
      </trkpt>
      <trkpt lat="49.85589" lon="2.06654">
        <ele>73.9</ele>
        <time>2023-01-11T14:11:32Z</time>
      </trkpt>
      <trkpt lat="49.8559" lon="2.06656">
        <ele>73.9</ele>
        <time>2023-01-11T14:11:33Z</time>
      </trkpt>
      <trkpt lat="49.85591" lon="2.06656">
        <ele>73.9</ele>
        <time>2023-01-11T14:11:34Z</time>
      </trkpt>
      <trkpt lat="49.85592" lon="2.06657">
        <ele>74</ele>
        <time>2023-01-11T14:11:35Z</time>
      </trkpt>
      <trkpt lat="49.85593" lon="2.06658">
        <ele>74</ele>
        <time>2023-01-11T14:11:36Z</time>
      </trkpt>
      <trkpt lat="49.85594" lon="2.06659">
        <ele>74</ele>
        <time>2023-01-11T14:11:38Z</time>
      </trkpt>
      <trkpt lat="49.85595" lon="2.0666">
        <ele>74</ele>
        <time>2023-01-11T14:11:39Z</time>
      </trkpt>
      <trkpt lat="49.85596" lon="2.0666">
        <ele>74</ele>
        <time>2023-01-11T14:11:40Z</time>
      </trkpt>
      <trkpt lat="49.85597" lon="2.06661">
        <ele>74.1</ele>
        <time>2023-01-11T14:11:41Z</time>
      </trkpt>
      <trkpt lat="49.85598" lon="2.06662">
        <ele>74.1</ele>
        <time>2023-01-11T14:11:42Z</time>
      </trkpt>
      <trkpt lat="49.856" lon="2.06663">
        <ele>74.1</ele>
        <time>2023-01-11T14:11:43Z</time>
      </trkpt>
      <trkpt lat="49.85601" lon="2.06663">
        <ele>74.1</ele>
        <time>2023-01-11T14:11:44Z</time>
      </trkpt>
      <trkpt lat="49.85603" lon="2.06664">
        <ele>74.1</ele>
        <time>2023-01-11T14:11:46Z</time>
      </trkpt>
      <trkpt lat="49.85604" lon="2.06664">
        <ele>74.1</ele>
        <time>2023-01-11T14:11:47Z</time>
      </trkpt>
      <trkpt lat="49.85606" lon="2.06665">
        <ele>74.1</ele>
        <time>2023-01-11T14:11:48Z</time>
      </trkpt>
      <trkpt lat="49.85607" lon="2.06665">
        <ele>74.1</ele>
        <time>2023-01-11T14:11:49Z</time>
      </trkpt>
      <trkpt lat="49.85608" lon="2.06666">
        <ele>74.1</ele>
        <time>2023-01-11T14:11:51Z</time>
      </trkpt>
      <trkpt lat="49.85609" lon="2.06666">
        <ele>74.1</ele>
        <time>2023-01-11T14:11:52Z</time>
      </trkpt>
      <trkpt lat="49.85611" lon="2.06667">
        <ele>74.1</ele>
        <time>2023-01-11T14:11:53Z</time>
      </trkpt>
      <trkpt lat="49.85612" lon="2.06668">
        <ele>74.1</ele>
        <time>2023-01-11T14:11:54Z</time>
      </trkpt>
      <trkpt lat="49.85612" lon="2.06668">
        <ele>74.1</ele>
        <time>2023-01-11T14:11:55Z</time>
      </trkpt>
      <trkpt lat="49.85614" lon="2.06669">
        <ele>74.1</ele>
        <time>2023-01-11T14:11:56Z</time>
      </trkpt>
      <trkpt lat="49.85615" lon="2.0667">
        <ele>74.1</ele>
        <time>2023-01-11T14:11:57Z</time>
      </trkpt>
      <trkpt lat="49.85616" lon="2.0667">
        <ele>74.1</ele>
        <time>2023-01-11T14:11:58Z</time>
      </trkpt>
      <trkpt lat="49.85617" lon="2.0667">
        <ele>74.1</ele>
        <time>2023-01-11T14:11:59Z</time>
      </trkpt>
      <trkpt lat="49.85618" lon="2.06671">
        <ele>74.1</ele>
        <time>2023-01-11T14:12:00Z</time>
      </trkpt>
      <trkpt lat="49.85619" lon="2.06671">
        <ele>74.2</ele>
        <time>2023-01-11T14:12:02Z</time>
      </trkpt>
      <trkpt lat="49.85621" lon="2.06672">
        <ele>74.2</ele>
        <time>2023-01-11T14:12:03Z</time>
      </trkpt>
      <trkpt lat="49.85622" lon="2.06672">
        <ele>74.2</ele>
        <time>2023-01-11T14:12:04Z</time>
      </trkpt>
      <trkpt lat="49.85623" lon="2.06672">
        <ele>74.2</ele>
        <time>2023-01-11T14:12:05Z</time>
      </trkpt>
      <trkpt lat="49.85625" lon="2.06674">
        <ele>74.2</ele>
        <time>2023-01-11T14:12:06Z</time>
      </trkpt>
      <trkpt lat="49.85626" lon="2.06674">
        <ele>74.2</ele>
        <time>2023-01-11T14:12:07Z</time>
      </trkpt>
      <trkpt lat="49.85626" lon="2.06675">
        <ele>74.2</ele>
        <time>2023-01-11T14:12:08Z</time>
      </trkpt>
      <trkpt lat="49.85628" lon="2.06675">
        <ele>74.3</ele>
        <time>2023-01-11T14:12:10Z</time>
      </trkpt>
      <trkpt lat="49.85629" lon="2.06676">
        <ele>74.3</ele>
        <time>2023-01-11T14:12:11Z</time>
      </trkpt>
      <trkpt lat="49.8563" lon="2.06676">
        <ele>74.3</ele>
        <time>2023-01-11T14:12:12Z</time>
      </trkpt>
      <trkpt lat="49.85632" lon="2.06677">
        <ele>74.3</ele>
        <time>2023-01-11T14:12:13Z</time>
      </trkpt>
      <trkpt lat="49.85633" lon="2.06677">
        <ele>74.3</ele>
        <time>2023-01-11T14:12:14Z</time>
      </trkpt>
      <trkpt lat="49.85634" lon="2.06678">
        <ele>74.3</ele>
        <time>2023-01-11T14:12:15Z</time>
      </trkpt>
      <trkpt lat="49.85635" lon="2.06679">
        <ele>74.3</ele>
        <time>2023-01-11T14:12:16Z</time>
      </trkpt>
      <trkpt lat="49.85636" lon="2.06679">
        <ele>74.3</ele>
        <time>2023-01-11T14:12:17Z</time>
      </trkpt>
      <trkpt lat="49.85638" lon="2.0668">
        <ele>74.3</ele>
        <time>2023-01-11T14:12:18Z</time>
      </trkpt>
      <trkpt lat="49.85639" lon="2.06681">
        <ele>74.3</ele>
        <time>2023-01-11T14:12:19Z</time>
      </trkpt>
      <trkpt lat="49.85639" lon="2.06681">
        <ele>74.3</ele>
        <time>2023-01-11T14:12:20Z</time>
      </trkpt>
      <trkpt lat="49.85641" lon="2.06682">
        <ele>74.3</ele>
        <time>2023-01-11T14:12:22Z</time>
      </trkpt>
      <trkpt lat="49.85642" lon="2.06683">
        <ele>74.3</ele>
        <time>2023-01-11T14:12:23Z</time>
      </trkpt>
      <trkpt lat="49.85643" lon="2.06684">
        <ele>74.3</ele>
        <time>2023-01-11T14:12:24Z</time>
      </trkpt>
      <trkpt lat="49.85644" lon="2.06685">
        <ele>74.3</ele>
        <time>2023-01-11T14:12:25Z</time>
      </trkpt>
      <trkpt lat="49.85645" lon="2.06685">
        <ele>74.3</ele>
        <time>2023-01-11T14:12:26Z</time>
      </trkpt>
      <trkpt lat="49.85646" lon="2.06687">
        <ele>74.2</ele>
        <time>2023-01-11T14:12:27Z</time>
      </trkpt>
      <trkpt lat="49.85648" lon="2.06688">
        <ele>74.2</ele>
        <time>2023-01-11T14:12:29Z</time>
      </trkpt>
      <trkpt lat="49.85649" lon="2.06689">
        <ele>74.2</ele>
        <time>2023-01-11T14:12:30Z</time>
      </trkpt>
      <trkpt lat="49.85649" lon="2.0669">
        <ele>74.2</ele>
        <time>2023-01-11T14:12:31Z</time>
      </trkpt>
      <trkpt lat="49.8565" lon="2.0669">
        <ele>74.2</ele>
        <time>2023-01-11T14:12:32Z</time>
      </trkpt>
      <trkpt lat="49.85652" lon="2.06692">
        <ele>74.2</ele>
        <time>2023-01-11T14:12:33Z</time>
      </trkpt>
      <trkpt lat="49.85653" lon="2.06692">
        <ele>74.2</ele>
        <time>2023-01-11T14:12:34Z</time>
      </trkpt>
      <trkpt lat="49.85654" lon="2.06693">
        <ele>74.2</ele>
        <time>2023-01-11T14:12:35Z</time>
      </trkpt>
      <trkpt lat="49.85655" lon="2.06694">
        <ele>74.2</ele>
        <time>2023-01-11T14:12:36Z</time>
      </trkpt>
      <trkpt lat="49.85656" lon="2.06694">
        <ele>74.2</ele>
        <time>2023-01-11T14:12:37Z</time>
      </trkpt>
      <trkpt lat="49.85658" lon="2.06696">
        <ele>74.2</ele>
        <time>2023-01-11T14:12:38Z</time>
      </trkpt>
      <trkpt lat="49.85659" lon="2.06696">
        <ele>74.2</ele>
        <time>2023-01-11T14:12:39Z</time>
      </trkpt>
      <trkpt lat="49.8566" lon="2.06696">
        <ele>74.2</ele>
        <time>2023-01-11T14:12:40Z</time>
      </trkpt>
      <trkpt lat="49.85661" lon="2.06697">
        <ele>74.2</ele>
        <time>2023-01-11T14:12:42Z</time>
      </trkpt>
      <trkpt lat="49.85663" lon="2.06698">
        <ele>74.2</ele>
        <time>2023-01-11T14:12:43Z</time>
      </trkpt>
      <trkpt lat="49.85664" lon="2.06698">
        <ele>74.2</ele>
        <time>2023-01-11T14:12:44Z</time>
      </trkpt>
      <trkpt lat="49.85665" lon="2.06699">
        <ele>74.2</ele>
        <time>2023-01-11T14:12:45Z</time>
      </trkpt>
      <trkpt lat="49.85666" lon="2.06699">
        <ele>74.1</ele>
        <time>2023-01-11T14:12:46Z</time>
      </trkpt>
      <trkpt lat="49.85668" lon="2.06701">
        <ele>74.1</ele>
        <time>2023-01-11T14:12:47Z</time>
      </trkpt>
      <trkpt lat="49.85669" lon="2.06701">
        <ele>74.1</ele>
        <time>2023-01-11T14:12:48Z</time>
      </trkpt>
      <trkpt lat="49.8567" lon="2.06702">
        <ele>74.1</ele>
        <time>2023-01-11T14:12:50Z</time>
      </trkpt>
      <trkpt lat="49.85671" lon="2.06702">
        <ele>74.1</ele>
        <time>2023-01-11T14:12:51Z</time>
      </trkpt>
      <trkpt lat="49.85671" lon="2.06703">
        <ele>74.1</ele>
        <time>2023-01-11T14:12:52Z</time>
      </trkpt>
      <trkpt lat="49.85672" lon="2.06704">
        <ele>74.1</ele>
        <time>2023-01-11T14:12:53Z</time>
      </trkpt>
      <trkpt lat="49.85673" lon="2.06704">
        <ele>74.1</ele>
        <time>2023-01-11T14:12:54Z</time>
      </trkpt>
      <trkpt lat="49.85674" lon="2.06705">
        <ele>74.1</ele>
        <time>2023-01-11T14:12:55Z</time>
      </trkpt>
      <trkpt lat="49.85675" lon="2.06706">
        <ele>74.1</ele>
        <time>2023-01-11T14:12:57Z</time>
      </trkpt>
      <trkpt lat="49.85676" lon="2.06707">
        <ele>74.1</ele>
        <time>2023-01-11T14:12:58Z</time>
      </trkpt>
      <trkpt lat="49.85677" lon="2.06708">
        <ele>74.1</ele>
        <time>2023-01-11T14:12:59Z</time>
      </trkpt>
      <trkpt lat="49.85678" lon="2.06709">
        <ele>74.1</ele>
        <time>2023-01-11T14:13:00Z</time>
      </trkpt>
      <trkpt lat="49.85679" lon="2.0671">
        <ele>74.1</ele>
        <time>2023-01-11T14:13:01Z</time>
      </trkpt>
      <trkpt lat="49.8568" lon="2.06711">
        <ele>74.1</ele>
        <time>2023-01-11T14:13:02Z</time>
      </trkpt>
      <trkpt lat="49.85682" lon="2.06712">
        <ele>74.1</ele>
        <time>2023-01-11T14:13:04Z</time>
      </trkpt>
      <trkpt lat="49.85683" lon="2.06713">
        <ele>74.1</ele>
        <time>2023-01-11T14:13:05Z</time>
      </trkpt>
      <trkpt lat="49.85684" lon="2.06714">
        <ele>74.1</ele>
        <time>2023-01-11T14:13:06Z</time>
      </trkpt>
      <trkpt lat="49.85684" lon="2.06715">
        <ele>74.1</ele>
        <time>2023-01-11T14:13:07Z</time>
      </trkpt>
      <trkpt lat="49.85686" lon="2.06716">
        <ele>74.1</ele>
        <time>2023-01-11T14:13:08Z</time>
      </trkpt>
      <trkpt lat="49.85687" lon="2.06717">
        <ele>74.1</ele>
        <time>2023-01-11T14:13:09Z</time>
      </trkpt>
      <trkpt lat="49.85689" lon="2.06718">
        <ele>74.1</ele>
        <time>2023-01-11T14:13:11Z</time>
      </trkpt>
      <trkpt lat="49.8569" lon="2.06718">
        <ele>74.1</ele>
        <time>2023-01-11T14:13:12Z</time>
      </trkpt>
      <trkpt lat="49.8569" lon="2.06719">
        <ele>74.1</ele>
        <time>2023-01-11T14:13:13Z</time>
      </trkpt>
      <trkpt lat="49.85693" lon="2.0672">
        <ele>74.1</ele>
        <time>2023-01-11T14:13:14Z</time>
      </trkpt>
      <trkpt lat="49.85693" lon="2.0672">
        <ele>74.1</ele>
        <time>2023-01-11T14:13:15Z</time>
      </trkpt>
      <trkpt lat="49.85694" lon="2.0672">
        <ele>74.1</ele>
        <time>2023-01-11T14:13:16Z</time>
      </trkpt>
      <trkpt lat="49.85695" lon="2.06721">
        <ele>74.1</ele>
        <time>2023-01-11T14:13:17Z</time>
      </trkpt>
      <trkpt lat="49.85697" lon="2.06721">
        <ele>74.1</ele>
        <time>2023-01-11T14:13:18Z</time>
      </trkpt>
      <trkpt lat="49.85698" lon="2.06722">
        <ele>74.2</ele>
        <time>2023-01-11T14:13:20Z</time>
      </trkpt>
      <trkpt lat="49.85699" lon="2.06722">
        <ele>74.2</ele>
        <time>2023-01-11T14:13:21Z</time>
      </trkpt>
      <trkpt lat="49.857" lon="2.06723">
        <ele>74.2</ele>
        <time>2023-01-11T14:13:22Z</time>
      </trkpt>
      <trkpt lat="49.85701" lon="2.06725">
        <ele>74.2</ele>
        <time>2023-01-11T14:13:23Z</time>
      </trkpt>
      <trkpt lat="49.85702" lon="2.06725">
        <ele>74.2</ele>
        <time>2023-01-11T14:13:24Z</time>
      </trkpt>
      <trkpt lat="49.85703" lon="2.06725">
        <ele>74.2</ele>
        <time>2023-01-11T14:13:25Z</time>
      </trkpt>
      <trkpt lat="49.85703" lon="2.06726">
        <ele>74.2</ele>
        <time>2023-01-11T14:13:26Z</time>
      </trkpt>
      <trkpt lat="49.85704" lon="2.06726">
        <ele>74.3</ele>
        <time>2023-01-11T14:13:27Z</time>
      </trkpt>
      <trkpt lat="49.85706" lon="2.06727">
        <ele>74.3</ele>
        <time>2023-01-11T14:13:29Z</time>
      </trkpt>
      <trkpt lat="49.85707" lon="2.06728">
        <ele>74.3</ele>
        <time>2023-01-11T14:13:30Z</time>
      </trkpt>
      <trkpt lat="49.85708" lon="2.06728">
        <ele>74.3</ele>
        <time>2023-01-11T14:13:31Z</time>
      </trkpt>
      <trkpt lat="49.85709" lon="2.06729">
        <ele>74.3</ele>
        <time>2023-01-11T14:13:32Z</time>
      </trkpt>
      <trkpt lat="49.85711" lon="2.0673">
        <ele>74.4</ele>
        <time>2023-01-11T14:13:33Z</time>
      </trkpt>
      <trkpt lat="49.85712" lon="2.06731">
        <ele>74.4</ele>
        <time>2023-01-11T14:13:34Z</time>
      </trkpt>
      <trkpt lat="49.85713" lon="2.06731">
        <ele>74.4</ele>
        <time>2023-01-11T14:13:36Z</time>
      </trkpt>
      <trkpt lat="49.85714" lon="2.06732">
        <ele>74.4</ele>
        <time>2023-01-11T14:13:37Z</time>
      </trkpt>
      <trkpt lat="49.85715" lon="2.06732">
        <ele>74.4</ele>
        <time>2023-01-11T14:13:38Z</time>
      </trkpt>
      <trkpt lat="49.85716" lon="2.06732">
        <ele>74.4</ele>
        <time>2023-01-11T14:13:39Z</time>
      </trkpt>
      <trkpt lat="49.85716" lon="2.06733">
        <ele>74.4</ele>
        <time>2023-01-11T14:13:40Z</time>
      </trkpt>
      <trkpt lat="49.85718" lon="2.06733">
        <ele>74.5</ele>
        <time>2023-01-11T14:13:41Z</time>
      </trkpt>
      <trkpt lat="49.85719" lon="2.06734">
        <ele>74.5</ele>
        <time>2023-01-11T14:13:43Z</time>
      </trkpt>
      <trkpt lat="49.85721" lon="2.06735">
        <ele>74.5</ele>
        <time>2023-01-11T14:13:44Z</time>
      </trkpt>
      <trkpt lat="49.85722" lon="2.06735">
        <ele>74.5</ele>
        <time>2023-01-11T14:13:45Z</time>
      </trkpt>
      <trkpt lat="49.85724" lon="2.06736">
        <ele>74.5</ele>
        <time>2023-01-11T14:13:46Z</time>
      </trkpt>
      <trkpt lat="49.85725" lon="2.06736">
        <ele>74.6</ele>
        <time>2023-01-11T14:13:47Z</time>
      </trkpt>
      <trkpt lat="49.85726" lon="2.06737">
        <ele>74.6</ele>
        <time>2023-01-11T14:13:48Z</time>
      </trkpt>
      <trkpt lat="49.85727" lon="2.06737">
        <ele>74.6</ele>
        <time>2023-01-11T14:13:49Z</time>
      </trkpt>
      <trkpt lat="49.85728" lon="2.06737">
        <ele>74.6</ele>
        <time>2023-01-11T14:13:50Z</time>
      </trkpt>
      <trkpt lat="49.8573" lon="2.06738">
        <ele>74.6</ele>
        <time>2023-01-11T14:13:52Z</time>
      </trkpt>
      <trkpt lat="49.85731" lon="2.06738">
        <ele>74.6</ele>
        <time>2023-01-11T14:13:53Z</time>
      </trkpt>
      <trkpt lat="49.85733" lon="2.06739">
        <ele>74.7</ele>
        <time>2023-01-11T14:13:54Z</time>
      </trkpt>
      <trkpt lat="49.85734" lon="2.06739">
        <ele>74.7</ele>
        <time>2023-01-11T14:13:55Z</time>
      </trkpt>
      <trkpt lat="49.85735" lon="2.0674">
        <ele>74.7</ele>
        <time>2023-01-11T14:13:56Z</time>
      </trkpt>
      <trkpt lat="49.85736" lon="2.0674">
        <ele>74.7</ele>
        <time>2023-01-11T14:13:58Z</time>
      </trkpt>
      <trkpt lat="49.85739" lon="2.06742">
        <ele>74.8</ele>
        <time>2023-01-11T14:13:59Z</time>
      </trkpt>
      <trkpt lat="49.85739" lon="2.06742">
        <ele>74.8</ele>
        <time>2023-01-11T14:14:00Z</time>
      </trkpt>
      <trkpt lat="49.8574" lon="2.06742">
        <ele>74.8</ele>
        <time>2023-01-11T14:14:01Z</time>
      </trkpt>
      <trkpt lat="49.85742" lon="2.06744">
        <ele>74.8</ele>
        <time>2023-01-11T14:14:02Z</time>
      </trkpt>
      <trkpt lat="49.85743" lon="2.06744">
        <ele>74.8</ele>
        <time>2023-01-11T14:14:03Z</time>
      </trkpt>
      <trkpt lat="49.85744" lon="2.06745">
        <ele>74.8</ele>
        <time>2023-01-11T14:14:04Z</time>
      </trkpt>
      <trkpt lat="49.85746" lon="2.06746">
        <ele>74.8</ele>
        <time>2023-01-11T14:14:05Z</time>
      </trkpt>
      <trkpt lat="49.85747" lon="2.06746">
        <ele>74.8</ele>
        <time>2023-01-11T14:14:07Z</time>
      </trkpt>
      <trkpt lat="49.85748" lon="2.06747">
        <ele>74.8</ele>
        <time>2023-01-11T14:14:08Z</time>
      </trkpt>
      <trkpt lat="49.8575" lon="2.06748">
        <ele>74.8</ele>
        <time>2023-01-11T14:14:09Z</time>
      </trkpt>
      <trkpt lat="49.8575" lon="2.06749">
        <ele>74.8</ele>
        <time>2023-01-11T14:14:10Z</time>
      </trkpt>
      <trkpt lat="49.85752" lon="2.06751">
        <ele>74.8</ele>
        <time>2023-01-11T14:14:11Z</time>
      </trkpt>
      <trkpt lat="49.85753" lon="2.06751">
        <ele>74.8</ele>
        <time>2023-01-11T14:14:12Z</time>
      </trkpt>
      <trkpt lat="49.85754" lon="2.06752">
        <ele>74.8</ele>
        <time>2023-01-11T14:14:13Z</time>
      </trkpt>
      <trkpt lat="49.85755" lon="2.06753">
        <ele>74.8</ele>
        <time>2023-01-11T14:14:14Z</time>
      </trkpt>
      <trkpt lat="49.85756" lon="2.06754">
        <ele>74.9</ele>
        <time>2023-01-11T14:14:16Z</time>
      </trkpt>
      <trkpt lat="49.85757" lon="2.06754">
        <ele>74.9</ele>
        <time>2023-01-11T14:14:17Z</time>
      </trkpt>
      <trkpt lat="49.85758" lon="2.06755">
        <ele>74.9</ele>
        <time>2023-01-11T14:14:18Z</time>
      </trkpt>
      <trkpt lat="49.8576" lon="2.06756">
        <ele>74.9</ele>
        <time>2023-01-11T14:14:19Z</time>
      </trkpt>
      <trkpt lat="49.8576" lon="2.06756">
        <ele>74.9</ele>
        <time>2023-01-11T14:14:20Z</time>
      </trkpt>
      <trkpt lat="49.85762" lon="2.06757">
        <ele>74.9</ele>
        <time>2023-01-11T14:14:21Z</time>
      </trkpt>
      <trkpt lat="49.85763" lon="2.06758">
        <ele>74.9</ele>
        <time>2023-01-11T14:14:23Z</time>
      </trkpt>
      <trkpt lat="49.85764" lon="2.0676">
        <ele>74.9</ele>
        <time>2023-01-11T14:14:24Z</time>
      </trkpt>
      <trkpt lat="49.85765" lon="2.0676">
        <ele>74.9</ele>
        <time>2023-01-11T14:14:25Z</time>
      </trkpt>
      <trkpt lat="49.85766" lon="2.06761">
        <ele>74.9</ele>
        <time>2023-01-11T14:14:26Z</time>
      </trkpt>
      <trkpt lat="49.85766" lon="2.06762">
        <ele>74.9</ele>
        <time>2023-01-11T14:14:27Z</time>
      </trkpt>
      <trkpt lat="49.85767" lon="2.06763">
        <ele>74.9</ele>
        <time>2023-01-11T14:14:28Z</time>
      </trkpt>
      <trkpt lat="49.85768" lon="2.06764">
        <ele>74.9</ele>
        <time>2023-01-11T14:14:29Z</time>
      </trkpt>
      <trkpt lat="49.85769" lon="2.06765">
        <ele>74.9</ele>
        <time>2023-01-11T14:14:30Z</time>
      </trkpt>
      <trkpt lat="49.8577" lon="2.06766">
        <ele>74.9</ele>
        <time>2023-01-11T14:14:31Z</time>
      </trkpt>
      <trkpt lat="49.85771" lon="2.06767">
        <ele>74.9</ele>
        <time>2023-01-11T14:14:32Z</time>
      </trkpt>
      <trkpt lat="49.85772" lon="2.06769">
        <ele>75</ele>
        <time>2023-01-11T14:14:34Z</time>
      </trkpt>
      <trkpt lat="49.85773" lon="2.0677">
        <ele>75</ele>
        <time>2023-01-11T14:14:35Z</time>
      </trkpt>
      <trkpt lat="49.85774" lon="2.06771">
        <ele>75</ele>
        <time>2023-01-11T14:14:36Z</time>
      </trkpt>
      <trkpt lat="49.85775" lon="2.06773">
        <ele>75</ele>
        <time>2023-01-11T14:14:37Z</time>
      </trkpt>
      <trkpt lat="49.85776" lon="2.06775">
        <ele>75</ele>
        <time>2023-01-11T14:14:38Z</time>
      </trkpt>
      <trkpt lat="49.85777" lon="2.06776">
        <ele>75</ele>
        <time>2023-01-11T14:14:40Z</time>
      </trkpt>
      <trkpt lat="49.85778" lon="2.06777">
        <ele>75</ele>
        <time>2023-01-11T14:14:41Z</time>
      </trkpt>
      <trkpt lat="49.85779" lon="2.06778">
        <ele>75</ele>
        <time>2023-01-11T14:14:42Z</time>
      </trkpt>
      <trkpt lat="49.8578" lon="2.06779">
        <ele>75.1</ele>
        <time>2023-01-11T14:14:43Z</time>
      </trkpt>
      <trkpt lat="49.85781" lon="2.06782">
        <ele>75.1</ele>
        <time>2023-01-11T14:14:44Z</time>
      </trkpt>
      <trkpt lat="49.85782" lon="2.06782">
        <ele>75.1</ele>
        <time>2023-01-11T14:14:45Z</time>
      </trkpt>
      <trkpt lat="49.85782" lon="2.06783">
        <ele>75.1</ele>
        <time>2023-01-11T14:14:46Z</time>
      </trkpt>
      <trkpt lat="49.85783" lon="2.06785">
        <ele>75.1</ele>
        <time>2023-01-11T14:14:47Z</time>
      </trkpt>
      <trkpt lat="49.85784" lon="2.06787">
        <ele>75.1</ele>
        <time>2023-01-11T14:14:49Z</time>
      </trkpt>
      <trkpt lat="49.85785" lon="2.06788">
        <ele>75.2</ele>
        <time>2023-01-11T14:14:50Z</time>
      </trkpt>
      <trkpt lat="49.85785" lon="2.06789">
        <ele>75.2</ele>
        <time>2023-01-11T14:14:51Z</time>
      </trkpt>
      <trkpt lat="49.85786" lon="2.0679">
        <ele>75.2</ele>
        <time>2023-01-11T14:14:52Z</time>
      </trkpt>
      <trkpt lat="49.85787" lon="2.06792">
        <ele>75.2</ele>
        <time>2023-01-11T14:14:53Z</time>
      </trkpt>
      <trkpt lat="49.85788" lon="2.06794">
        <ele>75.2</ele>
        <time>2023-01-11T14:14:54Z</time>
      </trkpt>
      <trkpt lat="49.85789" lon="2.06797">
        <ele>75.2</ele>
        <time>2023-01-11T14:14:55Z</time>
      </trkpt>
      <trkpt lat="49.85789" lon="2.06798">
        <ele>75.2</ele>
        <time>2023-01-11T14:14:57Z</time>
      </trkpt>
      <trkpt lat="49.8579" lon="2.06799">
        <ele>75.2</ele>
        <time>2023-01-11T14:14:58Z</time>
      </trkpt>
      <trkpt lat="49.85791" lon="2.06801">
        <ele>75.3</ele>
        <time>2023-01-11T14:14:59Z</time>
      </trkpt>
      <trkpt lat="49.85792" lon="2.06802">
        <ele>75.3</ele>
        <time>2023-01-11T14:15:00Z</time>
      </trkpt>
      <trkpt lat="49.85793" lon="2.06805">
        <ele>75.3</ele>
        <time>2023-01-11T14:15:01Z</time>
      </trkpt>
      <trkpt lat="49.85793" lon="2.06806">
        <ele>75.3</ele>
        <time>2023-01-11T14:15:02Z</time>
      </trkpt>
      <trkpt lat="49.85794" lon="2.06807">
        <ele>75.3</ele>
        <time>2023-01-11T14:15:03Z</time>
      </trkpt>
      <trkpt lat="49.85795" lon="2.06809">
        <ele>75.3</ele>
        <time>2023-01-11T14:15:04Z</time>
      </trkpt>
      <trkpt lat="49.85795" lon="2.06811">
        <ele>75.3</ele>
        <time>2023-01-11T14:15:05Z</time>
      </trkpt>
      <trkpt lat="49.85797" lon="2.06814">
        <ele>75.3</ele>
        <time>2023-01-11T14:15:06Z</time>
      </trkpt>
      <trkpt lat="49.85797" lon="2.06815">
        <ele>75.3</ele>
        <time>2023-01-11T14:15:08Z</time>
      </trkpt>
      <trkpt lat="49.85798" lon="2.06816">
        <ele>75.3</ele>
        <time>2023-01-11T14:15:09Z</time>
      </trkpt>
      <trkpt lat="49.85798" lon="2.06817">
        <ele>75.3</ele>
        <time>2023-01-11T14:15:10Z</time>
      </trkpt>
      <trkpt lat="49.85799" lon="2.06819">
        <ele>75.3</ele>
        <time>2023-01-11T14:15:11Z</time>
      </trkpt>
      <trkpt lat="49.858" lon="2.0682">
        <ele>75.3</ele>
        <time>2023-01-11T14:15:12Z</time>
      </trkpt>
      <trkpt lat="49.858" lon="2.06822">
        <ele>75.4</ele>
        <time>2023-01-11T14:15:14Z</time>
      </trkpt>
      <trkpt lat="49.85801" lon="2.06823">
        <ele>75.4</ele>
        <time>2023-01-11T14:15:15Z</time>
      </trkpt>
      <trkpt lat="49.85802" lon="2.06825">
        <ele>75.4</ele>
        <time>2023-01-11T14:15:16Z</time>
      </trkpt>
      <trkpt lat="49.85803" lon="2.06827">
        <ele>75.4</ele>
        <time>2023-01-11T14:15:17Z</time>
      </trkpt>
      <trkpt lat="49.85804" lon="2.06829">
        <ele>75.4</ele>
        <time>2023-01-11T14:15:18Z</time>
      </trkpt>
      <trkpt lat="49.85804" lon="2.0683">
        <ele>75.4</ele>
        <time>2023-01-11T14:15:19Z</time>
      </trkpt>
      <trkpt lat="49.85805" lon="2.06831">
        <ele>75.4</ele>
        <time>2023-01-11T14:15:20Z</time>
      </trkpt>
      <trkpt lat="49.85805" lon="2.06833">
        <ele>75.4</ele>
        <time>2023-01-11T14:15:22Z</time>
      </trkpt>
      <trkpt lat="49.85806" lon="2.06834">
        <ele>75.4</ele>
        <time>2023-01-11T14:15:23Z</time>
      </trkpt>
      <trkpt lat="49.85807" lon="2.06836">
        <ele>75.4</ele>
        <time>2023-01-11T14:15:24Z</time>
      </trkpt>
      <trkpt lat="49.85807" lon="2.06837">
        <ele>75.4</ele>
        <time>2023-01-11T14:15:25Z</time>
      </trkpt>
      <trkpt lat="49.85808" lon="2.06838">
        <ele>75.4</ele>
        <time>2023-01-11T14:15:26Z</time>
      </trkpt>
      <trkpt lat="49.85808" lon="2.0684">
        <ele>75.3</ele>
        <time>2023-01-11T14:15:27Z</time>
      </trkpt>
      <trkpt lat="49.85809" lon="2.06842">
        <ele>75.3</ele>
        <time>2023-01-11T14:15:28Z</time>
      </trkpt>
      <trkpt lat="49.8581" lon="2.06843">
        <ele>75.3</ele>
        <time>2023-01-11T14:15:30Z</time>
      </trkpt>
      <trkpt lat="49.8581" lon="2.06844">
        <ele>75.3</ele>
        <time>2023-01-11T14:15:31Z</time>
      </trkpt>
      <trkpt lat="49.85811" lon="2.06846">
        <ele>75.3</ele>
        <time>2023-01-11T14:15:32Z</time>
      </trkpt>
      <trkpt lat="49.85812" lon="2.06847">
        <ele>75.3</ele>
        <time>2023-01-11T14:15:33Z</time>
      </trkpt>
      <trkpt lat="49.85813" lon="2.0685">
        <ele>75.3</ele>
        <time>2023-01-11T14:15:34Z</time>
      </trkpt>
      <trkpt lat="49.85813" lon="2.06851">
        <ele>75.2</ele>
        <time>2023-01-11T14:15:35Z</time>
      </trkpt>
      <trkpt lat="49.85814" lon="2.06854">
        <ele>75.2</ele>
        <time>2023-01-11T14:15:36Z</time>
      </trkpt>
      <trkpt lat="49.85815" lon="2.06855">
        <ele>75.2</ele>
        <time>2023-01-11T14:15:38Z</time>
      </trkpt>
      <trkpt lat="49.85815" lon="2.06856">
        <ele>75.2</ele>
        <time>2023-01-11T14:15:39Z</time>
      </trkpt>
      <trkpt lat="49.85816" lon="2.06858">
        <ele>75.2</ele>
        <time>2023-01-11T14:15:40Z</time>
      </trkpt>
      <trkpt lat="49.85817" lon="2.06859">
        <ele>75.2</ele>
        <time>2023-01-11T14:15:41Z</time>
      </trkpt>
      <trkpt lat="49.85817" lon="2.0686">
        <ele>75.1</ele>
        <time>2023-01-11T14:15:42Z</time>
      </trkpt>
      <trkpt lat="49.85819" lon="2.06862">
        <ele>75.1</ele>
        <time>2023-01-11T14:15:43Z</time>
      </trkpt>
      <trkpt lat="49.8582" lon="2.06863">
        <ele>75.1</ele>
        <time>2023-01-11T14:15:44Z</time>
      </trkpt>
      <trkpt lat="49.8582" lon="2.06864">
        <ele>75.1</ele>
        <time>2023-01-11T14:15:45Z</time>
      </trkpt>
      <trkpt lat="49.85822" lon="2.06866">
        <ele>75.1</ele>
        <time>2023-01-11T14:15:46Z</time>
      </trkpt>
      <trkpt lat="49.85823" lon="2.06866">
        <ele>75.1</ele>
        <time>2023-01-11T14:15:48Z</time>
      </trkpt>
      <trkpt lat="49.85823" lon="2.06867">
        <ele>75.1</ele>
        <time>2023-01-11T14:15:49Z</time>
      </trkpt>
      <trkpt lat="49.85824" lon="2.06867">
        <ele>75.1</ele>
        <time>2023-01-11T14:15:50Z</time>
      </trkpt>
      <trkpt lat="49.85825" lon="2.06868">
        <ele>75.1</ele>
        <time>2023-01-11T14:15:51Z</time>
      </trkpt>
      <trkpt lat="49.85826" lon="2.06869">
        <ele>75.1</ele>
        <time>2023-01-11T14:15:52Z</time>
      </trkpt>
      <trkpt lat="49.85827" lon="2.0687">
        <ele>75.1</ele>
        <time>2023-01-11T14:15:53Z</time>
      </trkpt>
      <trkpt lat="49.85829" lon="2.06871">
        <ele>75.1</ele>
        <time>2023-01-11T14:15:54Z</time>
      </trkpt>
      <trkpt lat="49.8583" lon="2.06871">
        <ele>75.1</ele>
        <time>2023-01-11T14:15:55Z</time>
      </trkpt>
      <trkpt lat="49.85831" lon="2.06871">
        <ele>75.1</ele>
        <time>2023-01-11T14:15:57Z</time>
      </trkpt>
      <trkpt lat="49.85832" lon="2.06872">
        <ele>75.1</ele>
        <time>2023-01-11T14:15:58Z</time>
      </trkpt>
      <trkpt lat="49.85832" lon="2.06872">
        <ele>75.1</ele>
        <time>2023-01-11T14:15:59Z</time>
      </trkpt>
      <trkpt lat="49.85834" lon="2.06873">
        <ele>75.1</ele>
        <time>2023-01-11T14:16:00Z</time>
      </trkpt>
      <trkpt lat="49.85835" lon="2.06873">
        <ele>75.2</ele>
        <time>2023-01-11T14:16:01Z</time>
      </trkpt>
      <trkpt lat="49.85836" lon="2.06874">
        <ele>75.2</ele>
        <time>2023-01-11T14:16:02Z</time>
      </trkpt>
      <trkpt lat="49.85837" lon="2.06874">
        <ele>75.2</ele>
        <time>2023-01-11T14:16:03Z</time>
      </trkpt>
      <trkpt lat="49.85839" lon="2.06874">
        <ele>75.2</ele>
        <time>2023-01-11T14:16:05Z</time>
      </trkpt>
      <trkpt lat="49.8584" lon="2.06875">
        <ele>75.2</ele>
        <time>2023-01-11T14:16:06Z</time>
      </trkpt>
      <trkpt lat="49.85841" lon="2.06875">
        <ele>75.2</ele>
        <time>2023-01-11T14:16:07Z</time>
      </trkpt>
      <trkpt lat="49.85842" lon="2.06875">
        <ele>75.2</ele>
        <time>2023-01-11T14:16:08Z</time>
      </trkpt>
      <trkpt lat="49.85843" lon="2.06876">
        <ele>75.2</ele>
        <time>2023-01-11T14:16:09Z</time>
      </trkpt>
      <trkpt lat="49.85844" lon="2.06876">
        <ele>75.2</ele>
        <time>2023-01-11T14:16:10Z</time>
      </trkpt>
      <trkpt lat="49.85845" lon="2.06877">
        <ele>75.2</ele>
        <time>2023-01-11T14:16:12Z</time>
      </trkpt>
      <trkpt lat="49.85846" lon="2.06877">
        <ele>75.2</ele>
        <time>2023-01-11T14:16:13Z</time>
      </trkpt>
      <trkpt lat="49.85847" lon="2.06878">
        <ele>75.2</ele>
        <time>2023-01-11T14:16:14Z</time>
      </trkpt>
      <trkpt lat="49.85848" lon="2.06879">
        <ele>75.2</ele>
        <time>2023-01-11T14:16:15Z</time>
      </trkpt>
      <trkpt lat="49.85849" lon="2.06879">
        <ele>75.2</ele>
        <time>2023-01-11T14:16:16Z</time>
      </trkpt>
      <trkpt lat="49.85851" lon="2.0688">
        <ele>75.2</ele>
        <time>2023-01-11T14:16:17Z</time>
      </trkpt>
      <trkpt lat="49.85852" lon="2.0688">
        <ele>75.2</ele>
        <time>2023-01-11T14:16:19Z</time>
      </trkpt>
      <trkpt lat="49.85853" lon="2.06881">
        <ele>75.2</ele>
        <time>2023-01-11T14:16:20Z</time>
      </trkpt>
      <trkpt lat="49.85854" lon="2.06881">
        <ele>75.2</ele>
        <time>2023-01-11T14:16:21Z</time>
      </trkpt>
      <trkpt lat="49.85855" lon="2.06882">
        <ele>75.2</ele>
        <time>2023-01-11T14:16:22Z</time>
      </trkpt>
      <trkpt lat="49.85856" lon="2.06883">
        <ele>75.2</ele>
        <time>2023-01-11T14:16:23Z</time>
      </trkpt>
      <trkpt lat="49.85858" lon="2.06884">
        <ele>75.1</ele>
        <time>2023-01-11T14:16:24Z</time>
      </trkpt>
      <trkpt lat="49.85859" lon="2.06884">
        <ele>75.1</ele>
        <time>2023-01-11T14:16:25Z</time>
      </trkpt>
      <trkpt lat="49.8586" lon="2.06884">
        <ele>75.1</ele>
        <time>2023-01-11T14:16:26Z</time>
      </trkpt>
      <trkpt lat="49.85861" lon="2.06885">
        <ele>75.1</ele>
        <time>2023-01-11T14:16:27Z</time>
      </trkpt>
      <trkpt lat="49.85862" lon="2.06885">
        <ele>75.1</ele>
        <time>2023-01-11T14:16:29Z</time>
      </trkpt>
      <trkpt lat="49.85863" lon="2.06886">
        <ele>75.1</ele>
        <time>2023-01-11T14:16:30Z</time>
      </trkpt>
      <trkpt lat="49.85864" lon="2.06886">
        <ele>75.1</ele>
        <time>2023-01-11T14:16:31Z</time>
      </trkpt>
      <trkpt lat="49.85865" lon="2.06887">
        <ele>75.1</ele>
        <time>2023-01-11T14:16:32Z</time>
      </trkpt>
      <trkpt lat="49.85866" lon="2.06887">
        <ele>75.1</ele>
        <time>2023-01-11T14:16:33Z</time>
      </trkpt>
      <trkpt lat="49.85868" lon="2.06888">
        <ele>75.1</ele>
        <time>2023-01-11T14:16:34Z</time>
      </trkpt>
      <trkpt lat="49.85868" lon="2.06888">
        <ele>75.1</ele>
        <time>2023-01-11T14:16:35Z</time>
      </trkpt>
      <trkpt lat="49.85869" lon="2.06889">
        <ele>75.1</ele>
        <time>2023-01-11T14:16:36Z</time>
      </trkpt>
      <trkpt lat="49.8587" lon="2.06889">
        <ele>75.1</ele>
        <time>2023-01-11T14:16:37Z</time>
      </trkpt>
      <trkpt lat="49.85871" lon="2.0689">
        <ele>75.1</ele>
        <time>2023-01-11T14:16:39Z</time>
      </trkpt>
      <trkpt lat="49.85873" lon="2.0689">
        <ele>75</ele>
        <time>2023-01-11T14:16:40Z</time>
      </trkpt>
      <trkpt lat="49.85874" lon="2.0689">
        <ele>75</ele>
        <time>2023-01-11T14:16:41Z</time>
      </trkpt>
      <trkpt lat="49.85875" lon="2.06891">
        <ele>75</ele>
        <time>2023-01-11T14:16:42Z</time>
      </trkpt>
      <trkpt lat="49.85876" lon="2.06891">
        <ele>75</ele>
        <time>2023-01-11T14:16:43Z</time>
      </trkpt>
      <trkpt lat="49.85877" lon="2.06892">
        <ele>75</ele>
        <time>2023-01-11T14:16:44Z</time>
      </trkpt>
      <trkpt lat="49.85878" lon="2.06892">
        <ele>75</ele>
        <time>2023-01-11T14:16:46Z</time>
      </trkpt>
      <trkpt lat="49.85879" lon="2.06893">
        <ele>75</ele>
        <time>2023-01-11T14:16:47Z</time>
      </trkpt>
      <trkpt lat="49.8588" lon="2.06893">
        <ele>75</ele>
        <time>2023-01-11T14:16:48Z</time>
      </trkpt>
      <trkpt lat="49.85881" lon="2.06894">
        <ele>75</ele>
        <time>2023-01-11T14:16:49Z</time>
      </trkpt>
      <trkpt lat="49.85882" lon="2.06894">
        <ele>75</ele>
        <time>2023-01-11T14:16:50Z</time>
      </trkpt>
      <trkpt lat="49.85883" lon="2.06895">
        <ele>75</ele>
        <time>2023-01-11T14:16:52Z</time>
      </trkpt>
      <trkpt lat="49.85884" lon="2.06895">
        <ele>75</ele>
        <time>2023-01-11T14:16:53Z</time>
      </trkpt>
      <trkpt lat="49.85885" lon="2.06895">
        <ele>75</ele>
        <time>2023-01-11T14:16:54Z</time>
      </trkpt>
      <trkpt lat="49.85885" lon="2.06895">
        <ele>75</ele>
        <time>2023-01-11T14:16:55Z</time>
      </trkpt>
      <trkpt lat="49.85886" lon="2.06895">
        <ele>75</ele>
        <time>2023-01-11T14:16:56Z</time>
      </trkpt>
      <trkpt lat="49.85888" lon="2.06895">
        <ele>75.1</ele>
        <time>2023-01-11T14:16:58Z</time>
      </trkpt>
      <trkpt lat="49.85889" lon="2.06895">
        <ele>75.1</ele>
        <time>2023-01-11T14:17:00Z</time>
      </trkpt>
      <trkpt lat="49.8589" lon="2.06895">
        <ele>75.1</ele>
        <time>2023-01-11T14:17:01Z</time>
      </trkpt>
      <trkpt lat="49.85891" lon="2.06895">
        <ele>75.1</ele>
        <time>2023-01-11T14:17:02Z</time>
      </trkpt>
      <trkpt lat="49.85892" lon="2.06895">
        <ele>75.1</ele>
        <time>2023-01-11T14:17:04Z</time>
      </trkpt>
      <trkpt lat="49.85894" lon="2.06895">
        <ele>75.1</ele>
        <time>2023-01-11T14:17:05Z</time>
      </trkpt>
      <trkpt lat="49.85894" lon="2.06896">
        <ele>75.2</ele>
        <time>2023-01-11T14:17:06Z</time>
      </trkpt>
      <trkpt lat="49.85895" lon="2.06896">
        <ele>75.2</ele>
        <time>2023-01-11T14:17:07Z</time>
      </trkpt>
      <trkpt lat="49.85896" lon="2.06896">
        <ele>75.2</ele>
        <time>2023-01-11T14:17:08Z</time>
      </trkpt>
      <trkpt lat="49.85896" lon="2.06896">
        <ele>75.2</ele>
        <time>2023-01-11T14:17:09Z</time>
      </trkpt>
      <trkpt lat="49.85896" lon="2.06896">
        <ele>75.2</ele>
        <time>2023-01-11T14:17:11Z</time>
      </trkpt>
      <trkpt lat="49.85896" lon="2.06896">
        <ele>75.2</ele>
        <time>2023-01-11T14:17:12Z</time>
      </trkpt>
      <trkpt lat="49.85896" lon="2.06897">
        <ele>75.2</ele>
        <time>2023-01-11T14:17:13Z</time>
      </trkpt>
      <trkpt lat="49.85896" lon="2.06897">
        <ele>75.2</ele>
        <time>2023-01-11T14:17:14Z</time>
      </trkpt>
      <trkpt lat="49.85896" lon="2.06897">
        <ele>75.2</ele>
        <time>2023-01-11T14:17:16Z</time>
      </trkpt>
      <trkpt lat="49.85896" lon="2.06897">
        <ele>75.2</ele>
        <time>2023-01-11T14:17:18Z</time>
      </trkpt>
      <trkpt lat="49.85896" lon="2.06897">
        <ele>75.2</ele>
        <time>2023-01-11T14:17:19Z</time>
      </trkpt>
      <trkpt lat="49.85896" lon="2.06897">
        <ele>75.2</ele>
        <time>2023-01-11T14:17:20Z</time>
      </trkpt>
      <trkpt lat="49.85896" lon="2.06897">
        <ele>75.2</ele>
        <time>2023-01-11T14:17:22Z</time>
      </trkpt>
      <trkpt lat="49.85896" lon="2.06897">
        <ele>75.2</ele>
        <time>2023-01-11T14:17:23Z</time>
      </trkpt>
      <trkpt lat="49.85896" lon="2.06897">
        <ele>75.2</ele>
        <time>2023-01-11T14:17:24Z</time>
      </trkpt>
      <trkpt lat="49.85896" lon="2.06897">
        <ele>75.2</ele>
        <time>2023-01-11T14:17:26Z</time>
      </trkpt>
      <trkpt lat="49.85896" lon="2.06897">
        <ele>75.2</ele>
        <time>2023-01-11T14:17:28Z</time>
      </trkpt>
      <trkpt lat="49.85896" lon="2.06897">
        <ele>75.2</ele>
        <time>2023-01-11T14:17:29Z</time>
      </trkpt>
      <trkpt lat="49.85896" lon="2.06897">
        <ele>75.2</ele>
        <time>2023-01-11T14:17:30Z</time>
      </trkpt>
      <trkpt lat="49.85897" lon="2.06897">
        <ele>75.2</ele>
        <time>2023-01-11T14:17:31Z</time>
      </trkpt>
      <trkpt lat="49.85897" lon="2.06897">
        <ele>75.2</ele>
        <time>2023-01-11T14:17:32Z</time>
      </trkpt>
      <trkpt lat="49.85897" lon="2.06897">
        <ele>75.2</ele>
        <time>2023-01-11T14:17:33Z</time>
      </trkpt>
      <trkpt lat="49.85897" lon="2.06897">
        <ele>75.2</ele>
        <time>2023-01-11T14:17:34Z</time>
      </trkpt>
      <trkpt lat="49.85897" lon="2.06897">
        <ele>75.2</ele>
        <time>2023-01-11T14:17:35Z</time>
      </trkpt>
      <trkpt lat="49.85897" lon="2.06897">
        <ele>75.2</ele>
        <time>2023-01-11T14:17:36Z</time>
      </trkpt>
      <trkpt lat="49.85897" lon="2.06897">
        <ele>75.2</ele>
        <time>2023-01-11T14:17:37Z</time>
      </trkpt>
      <trkpt lat="49.85897" lon="2.06897">
        <ele>75.2</ele>
        <time>2023-01-11T14:17:38Z</time>
      </trkpt>
      <trkpt lat="49.85897" lon="2.06897">
        <ele>75.2</ele>
        <time>2023-01-11T14:17:39Z</time>
      </trkpt>
      <trkpt lat="49.85897" lon="2.06897">
        <ele>75.2</ele>
        <time>2023-01-11T14:17:40Z</time>
      </trkpt>
      <trkpt lat="49.85897" lon="2.06897">
        <ele>75.2</ele>
        <time>2023-01-11T14:17:41Z</time>
      </trkpt>
      <trkpt lat="49.85897" lon="2.06897">
        <ele>75.2</ele>
        <time>2023-01-11T14:17:42Z</time>
      </trkpt>
      <trkpt lat="49.85897" lon="2.06897">
        <ele>75.2</ele>
        <time>2023-01-11T14:17:43Z</time>
      </trkpt>
      <trkpt lat="49.85897" lon="2.06897">
        <ele>75.2</ele>
        <time>2023-01-11T14:17:44Z</time>
      </trkpt>
      <trkpt lat="49.85897" lon="2.06897">
        <ele>75.2</ele>
        <time>2023-01-11T14:17:45Z</time>
      </trkpt>
      <trkpt lat="49.85897" lon="2.06897">
        <ele>75.2</ele>
        <time>2023-01-11T14:17:46Z</time>
      </trkpt>
      <trkpt lat="49.85897" lon="2.06897">
        <ele>75.2</ele>
        <time>2023-01-11T14:17:47Z</time>
      </trkpt>
      <trkpt lat="49.85897" lon="2.06898">
        <ele>75.2</ele>
        <time>2023-01-11T14:17:48Z</time>
      </trkpt>
      <trkpt lat="49.85897" lon="2.06898">
        <ele>75.2</ele>
        <time>2023-01-11T14:17:49Z</time>
      </trkpt>
      <trkpt lat="49.85897" lon="2.06898">
        <ele>75.2</ele>
        <time>2023-01-11T14:17:50Z</time>
      </trkpt>
      <trkpt lat="49.85897" lon="2.06898">
        <ele>75.2</ele>
        <time>2023-01-11T14:17:51Z</time>
      </trkpt>
      <trkpt lat="49.85897" lon="2.06898">
        <ele>75.2</ele>
        <time>2023-01-11T14:17:52Z</time>
      </trkpt>
      <trkpt lat="49.85897" lon="2.06898">
        <ele>75.2</ele>
        <time>2023-01-11T14:17:53Z</time>
      </trkpt>
      <trkpt lat="49.85897" lon="2.06898">
        <ele>75.2</ele>
        <time>2023-01-11T14:17:54Z</time>
      </trkpt>
      <trkpt lat="49.85897" lon="2.06898">
        <ele>75.2</ele>
        <time>2023-01-11T14:17:55Z</time>
      </trkpt>
      <trkpt lat="49.85897" lon="2.06897">
        <ele>75.2</ele>
        <time>2023-01-11T14:17:56Z</time>
      </trkpt>
      <trkpt lat="49.85898" lon="2.06898">
        <ele>75.2</ele>
        <time>2023-01-11T14:17:57Z</time>
      </trkpt>
      <trkpt lat="49.85899" lon="2.06898">
        <ele>75.3</ele>
        <time>2023-01-11T14:17:58Z</time>
      </trkpt>
      <trkpt lat="49.859" lon="2.06898">
        <ele>75.3</ele>
        <time>2023-01-11T14:17:59Z</time>
      </trkpt>
      <trkpt lat="49.85901" lon="2.06898">
        <ele>75.3</ele>
        <time>2023-01-11T14:18:01Z</time>
      </trkpt>
      <trkpt lat="49.85902" lon="2.06898">
        <ele>75.3</ele>
        <time>2023-01-11T14:18:02Z</time>
      </trkpt>
      <trkpt lat="49.85903" lon="2.06898">
        <ele>75.3</ele>
        <time>2023-01-11T14:18:03Z</time>
      </trkpt>
      <trkpt lat="49.85904" lon="2.06898">
        <ele>75.3</ele>
        <time>2023-01-11T14:18:04Z</time>
      </trkpt>
      <trkpt lat="49.85906" lon="2.06898">
        <ele>75.3</ele>
        <time>2023-01-11T14:18:06Z</time>
      </trkpt>
      <trkpt lat="49.85907" lon="2.06898">
        <ele>75.4</ele>
        <time>2023-01-11T14:18:07Z</time>
      </trkpt>
      <trkpt lat="49.85909" lon="2.06899">
        <ele>75.4</ele>
        <time>2023-01-11T14:18:08Z</time>
      </trkpt>
      <trkpt lat="49.8591" lon="2.06899">
        <ele>75.4</ele>
        <time>2023-01-11T14:18:09Z</time>
      </trkpt>
      <trkpt lat="49.85911" lon="2.06899">
        <ele>75.4</ele>
        <time>2023-01-11T14:18:10Z</time>
      </trkpt>
      <trkpt lat="49.85912" lon="2.06899">
        <ele>75.4</ele>
        <time>2023-01-11T14:18:11Z</time>
      </trkpt>
      <trkpt lat="49.85913" lon="2.06899">
        <ele>75.4</ele>
        <time>2023-01-11T14:18:13Z</time>
      </trkpt>
      <trkpt lat="49.85914" lon="2.069">
        <ele>75.4</ele>
        <time>2023-01-11T14:18:14Z</time>
      </trkpt>
      <trkpt lat="49.85917" lon="2.069">
        <ele>75.5</ele>
        <time>2023-01-11T14:18:15Z</time>
      </trkpt>
      <trkpt lat="49.85917" lon="2.069">
        <ele>75.5</ele>
        <time>2023-01-11T14:18:16Z</time>
      </trkpt>
      <trkpt lat="49.85918" lon="2.069">
        <ele>75.5</ele>
        <time>2023-01-11T14:18:17Z</time>
      </trkpt>
      <trkpt lat="49.8592" lon="2.069">
        <ele>75.5</ele>
        <time>2023-01-11T14:18:18Z</time>
      </trkpt>
      <trkpt lat="49.85921" lon="2.069">
        <ele>75.5</ele>
        <time>2023-01-11T14:18:20Z</time>
      </trkpt>
      <trkpt lat="49.85922" lon="2.069">
        <ele>75.6</ele>
        <time>2023-01-11T14:18:21Z</time>
      </trkpt>
      <trkpt lat="49.85923" lon="2.069">
        <ele>75.6</ele>
        <time>2023-01-11T14:18:22Z</time>
      </trkpt>
      <trkpt lat="49.85924" lon="2.069">
        <ele>75.6</ele>
        <time>2023-01-11T14:18:23Z</time>
      </trkpt>
      <trkpt lat="49.85925" lon="2.069">
        <ele>75.6</ele>
        <time>2023-01-11T14:18:24Z</time>
      </trkpt>
      <trkpt lat="49.85927" lon="2.06899">
        <ele>75.6</ele>
        <time>2023-01-11T14:18:25Z</time>
      </trkpt>
      <trkpt lat="49.85928" lon="2.06899">
        <ele>75.7</ele>
        <time>2023-01-11T14:18:27Z</time>
      </trkpt>
      <trkpt lat="49.85929" lon="2.06899">
        <ele>75.7</ele>
        <time>2023-01-11T14:18:28Z</time>
      </trkpt>
      <trkpt lat="49.8593" lon="2.06899">
        <ele>75.7</ele>
        <time>2023-01-11T14:18:29Z</time>
      </trkpt>
      <trkpt lat="49.85932" lon="2.06899">
        <ele>75.7</ele>
        <time>2023-01-11T14:18:30Z</time>
      </trkpt>
      <trkpt lat="49.85933" lon="2.06899">
        <ele>75.7</ele>
        <time>2023-01-11T14:18:31Z</time>
      </trkpt>
      <trkpt lat="49.85934" lon="2.06899">
        <ele>75.8</ele>
        <time>2023-01-11T14:18:32Z</time>
      </trkpt>
      <trkpt lat="49.85935" lon="2.06899">
        <ele>75.8</ele>
        <time>2023-01-11T14:18:34Z</time>
      </trkpt>
      <trkpt lat="49.85936" lon="2.069">
        <ele>75.8</ele>
        <time>2023-01-11T14:18:35Z</time>
      </trkpt>
      <trkpt lat="49.85937" lon="2.069">
        <ele>75.8</ele>
        <time>2023-01-11T14:18:36Z</time>
      </trkpt>
      <trkpt lat="49.85938" lon="2.069">
        <ele>75.8</ele>
        <time>2023-01-11T14:18:37Z</time>
      </trkpt>
      <trkpt lat="49.85941" lon="2.069">
        <ele>75.9</ele>
        <time>2023-01-11T14:18:38Z</time>
      </trkpt>
      <trkpt lat="49.85941" lon="2.069">
        <ele>75.9</ele>
        <time>2023-01-11T14:18:39Z</time>
      </trkpt>
      <trkpt lat="49.85942" lon="2.069">
        <ele>75.9</ele>
        <time>2023-01-11T14:18:40Z</time>
      </trkpt>
      <trkpt lat="49.85945" lon="2.06901">
        <ele>76</ele>
        <time>2023-01-11T14:18:42Z</time>
      </trkpt>
      <trkpt lat="49.85945" lon="2.06901">
        <ele>76</ele>
        <time>2023-01-11T14:18:43Z</time>
      </trkpt>
      <trkpt lat="49.85946" lon="2.06901">
        <ele>76</ele>
        <time>2023-01-11T14:18:44Z</time>
      </trkpt>
      <trkpt lat="49.85948" lon="2.06901">
        <ele>76.1</ele>
        <time>2023-01-11T14:18:45Z</time>
      </trkpt>
      <trkpt lat="49.85949" lon="2.06901">
        <ele>76.1</ele>
        <time>2023-01-11T14:18:46Z</time>
      </trkpt>
      <trkpt lat="49.8595" lon="2.06901">
        <ele>76.1</ele>
        <time>2023-01-11T14:18:48Z</time>
      </trkpt>
      <trkpt lat="49.85952" lon="2.06901">
        <ele>76.2</ele>
        <time>2023-01-11T14:18:49Z</time>
      </trkpt>
      <trkpt lat="49.85953" lon="2.06901">
        <ele>76.2</ele>
        <time>2023-01-11T14:18:50Z</time>
      </trkpt>
      <trkpt lat="49.85954" lon="2.06901">
        <ele>76.2</ele>
        <time>2023-01-11T14:18:51Z</time>
      </trkpt>
      <trkpt lat="49.85956" lon="2.06901">
        <ele>76.3</ele>
        <time>2023-01-11T14:18:52Z</time>
      </trkpt>
      <trkpt lat="49.85957" lon="2.06901">
        <ele>76.4</ele>
        <time>2023-01-11T14:18:54Z</time>
      </trkpt>
      <trkpt lat="49.85957" lon="2.06901">
        <ele>76.4</ele>
        <time>2023-01-11T14:18:55Z</time>
      </trkpt>
      <trkpt lat="49.8596" lon="2.069">
        <ele>76.5</ele>
        <time>2023-01-11T14:18:56Z</time>
      </trkpt>
      <trkpt lat="49.8596" lon="2.069">
        <ele>76.5</ele>
        <time>2023-01-11T14:18:57Z</time>
      </trkpt>
      <trkpt lat="49.85961" lon="2.069">
        <ele>76.6</ele>
        <time>2023-01-11T14:18:58Z</time>
      </trkpt>
      <trkpt lat="49.85962" lon="2.069">
        <ele>76.6</ele>
        <time>2023-01-11T14:18:59Z</time>
      </trkpt>
      <trkpt lat="49.85964" lon="2.069">
        <ele>76.7</ele>
        <time>2023-01-11T14:19:01Z</time>
      </trkpt>
      <trkpt lat="49.85965" lon="2.069">
        <ele>76.8</ele>
        <time>2023-01-11T14:19:02Z</time>
      </trkpt>
      <trkpt lat="49.85966" lon="2.069">
        <ele>76.8</ele>
        <time>2023-01-11T14:19:03Z</time>
      </trkpt>
      <trkpt lat="49.85967" lon="2.069">
        <ele>76.9</ele>
        <time>2023-01-11T14:19:04Z</time>
      </trkpt>
      <trkpt lat="49.8597" lon="2.06901">
        <ele>77</ele>
        <time>2023-01-11T14:19:05Z</time>
      </trkpt>
      <trkpt lat="49.8597" lon="2.06901">
        <ele>77.1</ele>
        <time>2023-01-11T14:19:07Z</time>
      </trkpt>
      <trkpt lat="49.85971" lon="2.06901">
        <ele>77.1</ele>
        <time>2023-01-11T14:19:08Z</time>
      </trkpt>
      <trkpt lat="49.85972" lon="2.06902">
        <ele>77.2</ele>
        <time>2023-01-11T14:19:09Z</time>
      </trkpt>
      <trkpt lat="49.85973" lon="2.06902">
        <ele>77.3</ele>
        <time>2023-01-11T14:19:10Z</time>
      </trkpt>
      <trkpt lat="49.85973" lon="2.06902">
        <ele>77.3</ele>
        <time>2023-01-11T14:19:11Z</time>
      </trkpt>
      <trkpt lat="49.85974" lon="2.06902">
        <ele>77.3</ele>
        <time>2023-01-11T14:19:12Z</time>
      </trkpt>
      <trkpt lat="49.85975" lon="2.06903">
        <ele>77.4</ele>
        <time>2023-01-11T14:19:14Z</time>
      </trkpt>
      <trkpt lat="49.85976" lon="2.06903">
        <ele>77.5</ele>
        <time>2023-01-11T14:19:15Z</time>
      </trkpt>
      <trkpt lat="49.85978" lon="2.06904">
        <ele>77.6</ele>
        <time>2023-01-11T14:19:16Z</time>
      </trkpt>
      <trkpt lat="49.85978" lon="2.06904">
        <ele>77.7</ele>
        <time>2023-01-11T14:19:17Z</time>
      </trkpt>
      <trkpt lat="49.85979" lon="2.06905">
        <ele>77.7</ele>
        <time>2023-01-11T14:19:18Z</time>
      </trkpt>
      <trkpt lat="49.8598" lon="2.06905">
        <ele>77.8</ele>
        <time>2023-01-11T14:19:20Z</time>
      </trkpt>
      <trkpt lat="49.85981" lon="2.06906">
        <ele>78</ele>
        <time>2023-01-11T14:19:21Z</time>
      </trkpt>
      <trkpt lat="49.85982" lon="2.06906">
        <ele>78</ele>
        <time>2023-01-11T14:19:22Z</time>
      </trkpt>
      <trkpt lat="49.85984" lon="2.06907">
        <ele>78.3</ele>
        <time>2023-01-11T14:19:24Z</time>
      </trkpt>
      <trkpt lat="49.85985" lon="2.06907">
        <ele>78.3</ele>
        <time>2023-01-11T14:19:25Z</time>
      </trkpt>
      <trkpt lat="49.85986" lon="2.06907">
        <ele>78.4</ele>
        <time>2023-01-11T14:19:26Z</time>
      </trkpt>
      <trkpt lat="49.85987" lon="2.06908">
        <ele>78.6</ele>
        <time>2023-01-11T14:19:27Z</time>
      </trkpt>
      <trkpt lat="49.85988" lon="2.06908">
        <ele>78.7</ele>
        <time>2023-01-11T14:19:29Z</time>
      </trkpt>
      <trkpt lat="49.85989" lon="2.06909">
        <ele>78.7</ele>
        <time>2023-01-11T14:19:30Z</time>
      </trkpt>
      <trkpt lat="49.8599" lon="2.06909">
        <ele>78.8</ele>
        <time>2023-01-11T14:19:31Z</time>
      </trkpt>
      <trkpt lat="49.85991" lon="2.06911">
        <ele>79</ele>
        <time>2023-01-11T14:19:33Z</time>
      </trkpt>
      <trkpt lat="49.85992" lon="2.06911">
        <ele>79.1</ele>
        <time>2023-01-11T14:19:35Z</time>
      </trkpt>
      <trkpt lat="49.85993" lon="2.06912">
        <ele>79.2</ele>
        <time>2023-01-11T14:19:36Z</time>
      </trkpt>
      <trkpt lat="49.85994" lon="2.06913">
        <ele>79.3</ele>
        <time>2023-01-11T14:19:37Z</time>
      </trkpt>
      <trkpt lat="49.85994" lon="2.06914">
        <ele>79.4</ele>
        <time>2023-01-11T14:19:39Z</time>
      </trkpt>
      <trkpt lat="49.85996" lon="2.06916">
        <ele>79.6</ele>
        <time>2023-01-11T14:19:40Z</time>
      </trkpt>
      <trkpt lat="49.85996" lon="2.06917">
        <ele>79.7</ele>
        <time>2023-01-11T14:19:42Z</time>
      </trkpt>
      <trkpt lat="49.85997" lon="2.06918">
        <ele>79.7</ele>
        <time>2023-01-11T14:19:43Z</time>
      </trkpt>
      <trkpt lat="49.85998" lon="2.06919">
        <ele>79.9</ele>
        <time>2023-01-11T14:19:44Z</time>
      </trkpt>
      <trkpt lat="49.85998" lon="2.0692">
        <ele>80</ele>
        <time>2023-01-11T14:19:46Z</time>
      </trkpt>
      <trkpt lat="49.85999" lon="2.06921">
        <ele>80.1</ele>
        <time>2023-01-11T14:19:47Z</time>
      </trkpt>
      <trkpt lat="49.85999" lon="2.06922">
        <ele>80.1</ele>
        <time>2023-01-11T14:19:48Z</time>
      </trkpt>
      <trkpt lat="49.86" lon="2.06922">
        <ele>80.2</ele>
        <time>2023-01-11T14:19:49Z</time>
      </trkpt>
      <trkpt lat="49.86" lon="2.06923">
        <ele>80.3</ele>
        <time>2023-01-11T14:19:50Z</time>
      </trkpt>
      <trkpt lat="49.86001" lon="2.06924">
        <ele>80.4</ele>
        <time>2023-01-11T14:19:51Z</time>
      </trkpt>
      <trkpt lat="49.86002" lon="2.06925">
        <ele>80.5</ele>
        <time>2023-01-11T14:19:53Z</time>
      </trkpt>
      <trkpt lat="49.86003" lon="2.06926">
        <ele>80.6</ele>
        <time>2023-01-11T14:19:54Z</time>
      </trkpt>
      <trkpt lat="49.86004" lon="2.06927">
        <ele>80.7</ele>
        <time>2023-01-11T14:19:56Z</time>
      </trkpt>
      <trkpt lat="49.86005" lon="2.06927">
        <ele>80.8</ele>
        <time>2023-01-11T14:19:57Z</time>
      </trkpt>
      <trkpt lat="49.86005" lon="2.06927">
        <ele>80.9</ele>
        <time>2023-01-11T14:19:58Z</time>
      </trkpt>
      <trkpt lat="49.86006" lon="2.06928">
        <ele>80.9</ele>
        <time>2023-01-11T14:19:59Z</time>
      </trkpt>
      <trkpt lat="49.86006" lon="2.06928">
        <ele>81</ele>
        <time>2023-01-11T14:20:00Z</time>
      </trkpt>
      <trkpt lat="49.86007" lon="2.06929">
        <ele>81.1</ele>
        <time>2023-01-11T14:20:02Z</time>
      </trkpt>
      <trkpt lat="49.86008" lon="2.0693">
        <ele>81.2</ele>
        <time>2023-01-11T14:20:03Z</time>
      </trkpt>
      <trkpt lat="49.86008" lon="2.0693">
        <ele>81.3</ele>
        <time>2023-01-11T14:20:04Z</time>
      </trkpt>
      <trkpt lat="49.86009" lon="2.06931">
        <ele>81.4</ele>
        <time>2023-01-11T14:20:05Z</time>
      </trkpt>
      <trkpt lat="49.8601" lon="2.06932">
        <ele>81.5</ele>
        <time>2023-01-11T14:20:06Z</time>
      </trkpt>
      <trkpt lat="49.86011" lon="2.06933">
        <ele>81.5</ele>
        <time>2023-01-11T14:20:08Z</time>
      </trkpt>
      <trkpt lat="49.86011" lon="2.06933">
        <ele>81.6</ele>
        <time>2023-01-11T14:20:09Z</time>
      </trkpt>
      <trkpt lat="49.86012" lon="2.06934">
        <ele>81.7</ele>
        <time>2023-01-11T14:20:10Z</time>
      </trkpt>
      <trkpt lat="49.86012" lon="2.06934">
        <ele>81.7</ele>
        <time>2023-01-11T14:20:11Z</time>
      </trkpt>
      <trkpt lat="49.86013" lon="2.06934">
        <ele>81.8</ele>
        <time>2023-01-11T14:20:12Z</time>
      </trkpt>
      <trkpt lat="49.86013" lon="2.06934">
        <ele>81.8</ele>
        <time>2023-01-11T14:20:14Z</time>
      </trkpt>
      <trkpt lat="49.86013" lon="2.06934">
        <ele>81.9</ele>
        <time>2023-01-11T14:20:15Z</time>
      </trkpt>
      <trkpt lat="49.86015" lon="2.06934">
        <ele>82</ele>
        <time>2023-01-11T14:20:16Z</time>
      </trkpt>
      <trkpt lat="49.86015" lon="2.06934">
        <ele>82.1</ele>
        <time>2023-01-11T14:20:17Z</time>
      </trkpt>
      <trkpt lat="49.86016" lon="2.06934">
        <ele>82.1</ele>
        <time>2023-01-11T14:20:19Z</time>
      </trkpt>
      <trkpt lat="49.86017" lon="2.06935">
        <ele>82.2</ele>
        <time>2023-01-11T14:20:21Z</time>
      </trkpt>
      <trkpt lat="49.86017" lon="2.06935">
        <ele>82.3</ele>
        <time>2023-01-11T14:20:22Z</time>
      </trkpt>
      <trkpt lat="49.86018" lon="2.06935">
        <ele>82.3</ele>
        <time>2023-01-11T14:20:23Z</time>
      </trkpt>
      <trkpt lat="49.86018" lon="2.06936">
        <ele>82.5</ele>
        <time>2023-01-11T14:20:24Z</time>
      </trkpt>
      <trkpt lat="49.86019" lon="2.06936">
        <ele>82.5</ele>
        <time>2023-01-11T14:20:25Z</time>
      </trkpt>
      <trkpt lat="49.86021" lon="2.06937">
        <ele>82.7</ele>
        <time>2023-01-11T14:20:27Z</time>
      </trkpt>
      <trkpt lat="49.86022" lon="2.06938">
        <ele>82.8</ele>
        <time>2023-01-11T14:20:28Z</time>
      </trkpt>
      <trkpt lat="49.86022" lon="2.06938">
        <ele>82.9</ele>
        <time>2023-01-11T14:20:29Z</time>
      </trkpt>
      <trkpt lat="49.86023" lon="2.06939">
        <ele>83</ele>
        <time>2023-01-11T14:20:30Z</time>
      </trkpt>
      <trkpt lat="49.86024" lon="2.0694">
        <ele>83.1</ele>
        <time>2023-01-11T14:20:31Z</time>
      </trkpt>
      <trkpt lat="49.86024" lon="2.0694">
        <ele>83.2</ele>
        <time>2023-01-11T14:20:33Z</time>
      </trkpt>
      <trkpt lat="49.86025" lon="2.06941">
        <ele>83.3</ele>
        <time>2023-01-11T14:20:34Z</time>
      </trkpt>
      <trkpt lat="49.86026" lon="2.06942">
        <ele>83.4</ele>
        <time>2023-01-11T14:20:35Z</time>
      </trkpt>
      <trkpt lat="49.86026" lon="2.06943">
        <ele>83.5</ele>
        <time>2023-01-11T14:20:36Z</time>
      </trkpt>
      <trkpt lat="49.86027" lon="2.06944">
        <ele>83.6</ele>
        <time>2023-01-11T14:20:37Z</time>
      </trkpt>
      <trkpt lat="49.86027" lon="2.06945">
        <ele>83.7</ele>
        <time>2023-01-11T14:20:39Z</time>
      </trkpt>
      <trkpt lat="49.86028" lon="2.06946">
        <ele>83.8</ele>
        <time>2023-01-11T14:20:40Z</time>
      </trkpt>
      <trkpt lat="49.86028" lon="2.06946">
        <ele>83.9</ele>
        <time>2023-01-11T14:20:41Z</time>
      </trkpt>
      <trkpt lat="49.86029" lon="2.06946">
        <ele>83.9</ele>
        <time>2023-01-11T14:20:42Z</time>
      </trkpt>
      <trkpt lat="49.86029" lon="2.06947">
        <ele>84</ele>
        <time>2023-01-11T14:20:43Z</time>
      </trkpt>
      <trkpt lat="49.86029" lon="2.06947">
        <ele>84</ele>
        <time>2023-01-11T14:20:44Z</time>
      </trkpt>
      <trkpt lat="49.86029" lon="2.06948">
        <ele>84</ele>
        <time>2023-01-11T14:20:45Z</time>
      </trkpt>
      <trkpt lat="49.8603" lon="2.06948">
        <ele>84.1</ele>
        <time>2023-01-11T14:20:46Z</time>
      </trkpt>
      <trkpt lat="49.8603" lon="2.06948">
        <ele>84.2</ele>
        <time>2023-01-11T14:20:48Z</time>
      </trkpt>
      <trkpt lat="49.86031" lon="2.06948">
        <ele>84.2</ele>
        <time>2023-01-11T14:20:49Z</time>
      </trkpt>
      <trkpt lat="49.86031" lon="2.06948">
        <ele>84.2</ele>
        <time>2023-01-11T14:20:50Z</time>
      </trkpt>
      <trkpt lat="49.86031" lon="2.06948">
        <ele>84.2</ele>
        <time>2023-01-11T14:20:51Z</time>
      </trkpt>
      <trkpt lat="49.86031" lon="2.06948">
        <ele>84.3</ele>
        <time>2023-01-11T14:20:52Z</time>
      </trkpt>
      <trkpt lat="49.86032" lon="2.06949">
        <ele>84.4</ele>
        <time>2023-01-11T14:20:54Z</time>
      </trkpt>
      <trkpt lat="49.86033" lon="2.06949">
        <ele>84.5</ele>
        <time>2023-01-11T14:20:55Z</time>
      </trkpt>
      <trkpt lat="49.86034" lon="2.0695">
        <ele>84.6</ele>
        <time>2023-01-11T14:20:56Z</time>
      </trkpt>
      <trkpt lat="49.86035" lon="2.0695">
        <ele>84.7</ele>
        <time>2023-01-11T14:20:57Z</time>
      </trkpt>
      <trkpt lat="49.86036" lon="2.06951">
        <ele>84.9</ele>
        <time>2023-01-11T14:20:58Z</time>
      </trkpt>
      <trkpt lat="49.86037" lon="2.06952">
        <ele>85</ele>
        <time>2023-01-11T14:21:00Z</time>
      </trkpt>
      <trkpt lat="49.86038" lon="2.06953">
        <ele>85.1</ele>
        <time>2023-01-11T14:21:01Z</time>
      </trkpt>
      <trkpt lat="49.86038" lon="2.06953">
        <ele>85.2</ele>
        <time>2023-01-11T14:21:02Z</time>
      </trkpt>
      <trkpt lat="49.8604" lon="2.06955">
        <ele>85.4</ele>
        <time>2023-01-11T14:21:03Z</time>
      </trkpt>
      <trkpt lat="49.86041" lon="2.06956">
        <ele>85.5</ele>
        <time>2023-01-11T14:21:04Z</time>
      </trkpt>
      <trkpt lat="49.86042" lon="2.06957">
        <ele>85.6</ele>
        <time>2023-01-11T14:21:05Z</time>
      </trkpt>
      <trkpt lat="49.86043" lon="2.06958">
        <ele>85.8</ele>
        <time>2023-01-11T14:21:07Z</time>
      </trkpt>
      <trkpt lat="49.86045" lon="2.06959">
        <ele>86</ele>
        <time>2023-01-11T14:21:08Z</time>
      </trkpt>
      <trkpt lat="49.86046" lon="2.06961">
        <ele>86.1</ele>
        <time>2023-01-11T14:21:09Z</time>
      </trkpt>
      <trkpt lat="49.86047" lon="2.06962">
        <ele>86.3</ele>
        <time>2023-01-11T14:21:10Z</time>
      </trkpt>
      <trkpt lat="49.86049" lon="2.06963">
        <ele>86.5</ele>
        <time>2023-01-11T14:21:11Z</time>
      </trkpt>
      <trkpt lat="49.8605" lon="2.06964">
        <ele>86.6</ele>
        <time>2023-01-11T14:21:12Z</time>
      </trkpt>
      <trkpt lat="49.86051" lon="2.06965">
        <ele>86.7</ele>
        <time>2023-01-11T14:21:14Z</time>
      </trkpt>
      <trkpt lat="49.86053" lon="2.06966">
        <ele>86.9</ele>
        <time>2023-01-11T14:21:15Z</time>
      </trkpt>
      <trkpt lat="49.86054" lon="2.06967">
        <ele>86.9</ele>
        <time>2023-01-11T14:21:16Z</time>
      </trkpt>
      <trkpt lat="49.86055" lon="2.06967">
        <ele>87.1</ele>
        <time>2023-01-11T14:21:17Z</time>
      </trkpt>
      <trkpt lat="49.86056" lon="2.06968">
        <ele>87.1</ele>
        <time>2023-01-11T14:21:18Z</time>
      </trkpt>
      <trkpt lat="49.86057" lon="2.06969">
        <ele>87.2</ele>
        <time>2023-01-11T14:21:19Z</time>
      </trkpt>
      <trkpt lat="49.86058" lon="2.0697">
        <ele>87.3</ele>
        <time>2023-01-11T14:21:20Z</time>
      </trkpt>
      <trkpt lat="49.86059" lon="2.0697">
        <ele>87.4</ele>
        <time>2023-01-11T14:21:22Z</time>
      </trkpt>
      <trkpt lat="49.86059" lon="2.06971">
        <ele>87.5</ele>
        <time>2023-01-11T14:21:23Z</time>
      </trkpt>
      <trkpt lat="49.8606" lon="2.06972">
        <ele>87.5</ele>
        <time>2023-01-11T14:21:24Z</time>
      </trkpt>
      <trkpt lat="49.86061" lon="2.06972">
        <ele>87.6</ele>
        <time>2023-01-11T14:21:25Z</time>
      </trkpt>
      <trkpt lat="49.86062" lon="2.06973">
        <ele>87.7</ele>
        <time>2023-01-11T14:21:26Z</time>
      </trkpt>
      <trkpt lat="49.86063" lon="2.06974">
        <ele>87.7</ele>
        <time>2023-01-11T14:21:28Z</time>
      </trkpt>
      <trkpt lat="49.86064" lon="2.06975">
        <ele>87.8</ele>
        <time>2023-01-11T14:21:29Z</time>
      </trkpt>
      <trkpt lat="49.86065" lon="2.06976">
        <ele>87.9</ele>
        <time>2023-01-11T14:21:30Z</time>
      </trkpt>
      <trkpt lat="49.86066" lon="2.06977">
        <ele>88</ele>
        <time>2023-01-11T14:21:31Z</time>
      </trkpt>
      <trkpt lat="49.86066" lon="2.06977">
        <ele>88</ele>
        <time>2023-01-11T14:21:32Z</time>
      </trkpt>
      <trkpt lat="49.86067" lon="2.06978">
        <ele>88.1</ele>
        <time>2023-01-11T14:21:33Z</time>
      </trkpt>
      <trkpt lat="49.86068" lon="2.06978">
        <ele>88.1</ele>
        <time>2023-01-11T14:21:34Z</time>
      </trkpt>
      <trkpt lat="49.86069" lon="2.06979">
        <ele>88.2</ele>
        <time>2023-01-11T14:21:35Z</time>
      </trkpt>
      <trkpt lat="49.8607" lon="2.0698">
        <ele>88.3</ele>
        <time>2023-01-11T14:21:37Z</time>
      </trkpt>
      <trkpt lat="49.8607" lon="2.06981">
        <ele>88.3</ele>
        <time>2023-01-11T14:21:38Z</time>
      </trkpt>
      <trkpt lat="49.86071" lon="2.06981">
        <ele>88.4</ele>
        <time>2023-01-11T14:21:39Z</time>
      </trkpt>
      <trkpt lat="49.86073" lon="2.06982">
        <ele>88.5</ele>
        <time>2023-01-11T14:21:40Z</time>
      </trkpt>
      <trkpt lat="49.86074" lon="2.06982">
        <ele>88.6</ele>
        <time>2023-01-11T14:21:42Z</time>
      </trkpt>
      <trkpt lat="49.86075" lon="2.06983">
        <ele>88.6</ele>
        <time>2023-01-11T14:21:43Z</time>
      </trkpt>
      <trkpt lat="49.86076" lon="2.06983">
        <ele>88.7</ele>
        <time>2023-01-11T14:21:44Z</time>
      </trkpt>
      <trkpt lat="49.86077" lon="2.06984">
        <ele>88.8</ele>
        <time>2023-01-11T14:21:45Z</time>
      </trkpt>
      <trkpt lat="49.86078" lon="2.06985">
        <ele>88.8</ele>
        <time>2023-01-11T14:21:46Z</time>
      </trkpt>
      <trkpt lat="49.86079" lon="2.06985">
        <ele>88.9</ele>
        <time>2023-01-11T14:21:48Z</time>
      </trkpt>
      <trkpt lat="49.8608" lon="2.06986">
        <ele>88.9</ele>
        <time>2023-01-11T14:21:49Z</time>
      </trkpt>
      <trkpt lat="49.8608" lon="2.06986">
        <ele>89</ele>
        <time>2023-01-11T14:21:50Z</time>
      </trkpt>
      <trkpt lat="49.86081" lon="2.06987">
        <ele>89</ele>
        <time>2023-01-11T14:21:51Z</time>
      </trkpt>
      <trkpt lat="49.86082" lon="2.06987">
        <ele>89.1</ele>
        <time>2023-01-11T14:21:53Z</time>
      </trkpt>
      <trkpt lat="49.86082" lon="2.06987">
        <ele>89.1</ele>
        <time>2023-01-11T14:21:54Z</time>
      </trkpt>
      <trkpt lat="49.86082" lon="2.06987">
        <ele>89.1</ele>
        <time>2023-01-11T14:21:55Z</time>
      </trkpt>
      <trkpt lat="49.86083" lon="2.06988">
        <ele>89.2</ele>
        <time>2023-01-11T14:21:56Z</time>
      </trkpt>
      <trkpt lat="49.86084" lon="2.06988">
        <ele>89.2</ele>
        <time>2023-01-11T14:21:58Z</time>
      </trkpt>
      <trkpt lat="49.86085" lon="2.06989">
        <ele>89.3</ele>
        <time>2023-01-11T14:21:59Z</time>
      </trkpt>
      <trkpt lat="49.86086" lon="2.06989">
        <ele>89.4</ele>
        <time>2023-01-11T14:22:00Z</time>
      </trkpt>
      <trkpt lat="49.86086" lon="2.06989">
        <ele>89.4</ele>
        <time>2023-01-11T14:22:01Z</time>
      </trkpt>
      <trkpt lat="49.86087" lon="2.0699">
        <ele>89.5</ele>
        <time>2023-01-11T14:22:02Z</time>
      </trkpt>
      <trkpt lat="49.86088" lon="2.0699">
        <ele>89.5</ele>
        <time>2023-01-11T14:22:03Z</time>
      </trkpt>
      <trkpt lat="49.8609" lon="2.06991">
        <ele>89.6</ele>
        <time>2023-01-11T14:22:04Z</time>
      </trkpt>
      <trkpt lat="49.86091" lon="2.06991">
        <ele>89.7</ele>
        <time>2023-01-11T14:22:05Z</time>
      </trkpt>
      <trkpt lat="49.86092" lon="2.06993">
        <ele>89.8</ele>
        <time>2023-01-11T14:22:07Z</time>
      </trkpt>
      <trkpt lat="49.86094" lon="2.06994">
        <ele>89.9</ele>
        <time>2023-01-11T14:22:08Z</time>
      </trkpt>
      <trkpt lat="49.86095" lon="2.06995">
        <ele>90</ele>
        <time>2023-01-11T14:22:09Z</time>
      </trkpt>
      <trkpt lat="49.86096" lon="2.06996">
        <ele>90.1</ele>
        <time>2023-01-11T14:22:10Z</time>
      </trkpt>
      <trkpt lat="49.86098" lon="2.06998">
        <ele>90.3</ele>
        <time>2023-01-11T14:22:11Z</time>
      </trkpt>
      <trkpt lat="49.86099" lon="2.06999">
        <ele>90.4</ele>
        <time>2023-01-11T14:22:12Z</time>
      </trkpt>
      <trkpt lat="49.86101" lon="2.07">
        <ele>90.4</ele>
        <time>2023-01-11T14:22:14Z</time>
      </trkpt>
      <trkpt lat="49.86102" lon="2.07001">
        <ele>90.5</ele>
        <time>2023-01-11T14:22:15Z</time>
      </trkpt>
      <trkpt lat="49.86103" lon="2.07002">
        <ele>90.6</ele>
        <time>2023-01-11T14:22:16Z</time>
      </trkpt>
      <trkpt lat="49.86105" lon="2.07004">
        <ele>90.7</ele>
        <time>2023-01-11T14:22:17Z</time>
      </trkpt>
      <trkpt lat="49.86106" lon="2.07005">
        <ele>90.8</ele>
        <time>2023-01-11T14:22:18Z</time>
      </trkpt>
      <trkpt lat="49.86107" lon="2.07006">
        <ele>90.9</ele>
        <time>2023-01-11T14:22:20Z</time>
      </trkpt>
      <trkpt lat="49.86108" lon="2.07008">
        <ele>91</ele>
        <time>2023-01-11T14:22:21Z</time>
      </trkpt>
      <trkpt lat="49.8611" lon="2.0701">
        <ele>91.1</ele>
        <time>2023-01-11T14:22:22Z</time>
      </trkpt>
      <trkpt lat="49.8611" lon="2.07012">
        <ele>91.1</ele>
        <time>2023-01-11T14:22:23Z</time>
      </trkpt>
      <trkpt lat="49.86111" lon="2.07015">
        <ele>91.2</ele>
        <time>2023-01-11T14:22:24Z</time>
      </trkpt>
      <trkpt lat="49.86112" lon="2.07017">
        <ele>91.3</ele>
        <time>2023-01-11T14:22:25Z</time>
      </trkpt>
      <trkpt lat="49.86114" lon="2.07019">
        <ele>91.4</ele>
        <time>2023-01-11T14:22:27Z</time>
      </trkpt>
      <trkpt lat="49.86115" lon="2.07021">
        <ele>91.5</ele>
        <time>2023-01-11T14:22:28Z</time>
      </trkpt>
      <trkpt lat="49.86115" lon="2.07022">
        <ele>91.5</ele>
        <time>2023-01-11T14:22:29Z</time>
      </trkpt>
      <trkpt lat="49.86116" lon="2.07023">
        <ele>91.6</ele>
        <time>2023-01-11T14:22:30Z</time>
      </trkpt>
      <trkpt lat="49.86117" lon="2.07026">
        <ele>91.7</ele>
        <time>2023-01-11T14:22:31Z</time>
      </trkpt>
      <trkpt lat="49.86118" lon="2.07027">
        <ele>91.7</ele>
        <time>2023-01-11T14:22:32Z</time>
      </trkpt>
      <trkpt lat="49.8612" lon="2.07029">
        <ele>91.8</ele>
        <time>2023-01-11T14:22:34Z</time>
      </trkpt>
      <trkpt lat="49.8612" lon="2.0703">
        <ele>91.9</ele>
        <time>2023-01-11T14:22:35Z</time>
      </trkpt>
      <trkpt lat="49.86121" lon="2.07031">
        <ele>91.9</ele>
        <time>2023-01-11T14:22:36Z</time>
      </trkpt>
      <trkpt lat="49.86122" lon="2.07032">
        <ele>92</ele>
        <time>2023-01-11T14:22:37Z</time>
      </trkpt>
      <trkpt lat="49.86123" lon="2.07034">
        <ele>92</ele>
        <time>2023-01-11T14:22:38Z</time>
      </trkpt>
      <trkpt lat="49.86125" lon="2.07035">
        <ele>92.1</ele>
        <time>2023-01-11T14:22:40Z</time>
      </trkpt>
      <trkpt lat="49.86126" lon="2.07036">
        <ele>92.2</ele>
        <time>2023-01-11T14:22:41Z</time>
      </trkpt>
      <trkpt lat="49.86127" lon="2.07038">
        <ele>92.2</ele>
        <time>2023-01-11T14:22:42Z</time>
      </trkpt>
      <trkpt lat="49.86127" lon="2.07039">
        <ele>92.3</ele>
        <time>2023-01-11T14:22:43Z</time>
      </trkpt>
      <trkpt lat="49.86129" lon="2.07041">
        <ele>92.4</ele>
        <time>2023-01-11T14:22:44Z</time>
      </trkpt>
      <trkpt lat="49.8613" lon="2.07042">
        <ele>92.5</ele>
        <time>2023-01-11T14:22:46Z</time>
      </trkpt>
      <trkpt lat="49.86131" lon="2.07043">
        <ele>92.5</ele>
        <time>2023-01-11T14:22:47Z</time>
      </trkpt>
      <trkpt lat="49.86132" lon="2.07043">
        <ele>92.6</ele>
        <time>2023-01-11T14:22:48Z</time>
      </trkpt>
      <trkpt lat="49.86133" lon="2.07044">
        <ele>92.6</ele>
        <time>2023-01-11T14:22:49Z</time>
      </trkpt>
      <trkpt lat="49.86134" lon="2.07045">
        <ele>92.7</ele>
        <time>2023-01-11T14:22:50Z</time>
      </trkpt>
      <trkpt lat="49.86135" lon="2.07045">
        <ele>92.7</ele>
        <time>2023-01-11T14:22:51Z</time>
      </trkpt>
      <trkpt lat="49.86137" lon="2.07047">
        <ele>92.8</ele>
        <time>2023-01-11T14:22:52Z</time>
      </trkpt>
      <trkpt lat="49.86139" lon="2.07048">
        <ele>92.9</ele>
        <time>2023-01-11T14:22:54Z</time>
      </trkpt>
      <trkpt lat="49.86139" lon="2.07049">
        <ele>93</ele>
        <time>2023-01-11T14:22:55Z</time>
      </trkpt>
      <trkpt lat="49.8614" lon="2.07049">
        <ele>93</ele>
        <time>2023-01-11T14:22:56Z</time>
      </trkpt>
      <trkpt lat="49.86142" lon="2.07051">
        <ele>93.1</ele>
        <time>2023-01-11T14:22:57Z</time>
      </trkpt>
      <trkpt lat="49.86143" lon="2.07052">
        <ele>93.1</ele>
        <time>2023-01-11T14:22:58Z</time>
      </trkpt>
      <trkpt lat="49.86143" lon="2.07053">
        <ele>93.2</ele>
        <time>2023-01-11T14:22:59Z</time>
      </trkpt>
      <trkpt lat="49.86145" lon="2.07054">
        <ele>93.2</ele>
        <time>2023-01-11T14:23:01Z</time>
      </trkpt>
      <trkpt lat="49.86146" lon="2.07055">
        <ele>93.3</ele>
        <time>2023-01-11T14:23:02Z</time>
      </trkpt>
      <trkpt lat="49.86147" lon="2.07056">
        <ele>93.4</ele>
        <time>2023-01-11T14:23:03Z</time>
      </trkpt>
      <trkpt lat="49.86148" lon="2.07057">
        <ele>93.4</ele>
        <time>2023-01-11T14:23:04Z</time>
      </trkpt>
      <trkpt lat="49.86149" lon="2.07059">
        <ele>93.5</ele>
        <time>2023-01-11T14:23:05Z</time>
      </trkpt>
      <trkpt lat="49.8615" lon="2.0706">
        <ele>93.6</ele>
        <time>2023-01-11T14:23:06Z</time>
      </trkpt>
      <trkpt lat="49.86151" lon="2.07061">
        <ele>93.6</ele>
        <time>2023-01-11T14:23:08Z</time>
      </trkpt>
      <trkpt lat="49.86152" lon="2.07062">
        <ele>93.7</ele>
        <time>2023-01-11T14:23:09Z</time>
      </trkpt>
      <trkpt lat="49.86153" lon="2.07063">
        <ele>93.7</ele>
        <time>2023-01-11T14:23:10Z</time>
      </trkpt>
      <trkpt lat="49.86154" lon="2.07063">
        <ele>93.8</ele>
        <time>2023-01-11T14:23:11Z</time>
      </trkpt>
      <trkpt lat="49.86156" lon="2.07065">
        <ele>93.9</ele>
        <time>2023-01-11T14:23:12Z</time>
      </trkpt>
      <trkpt lat="49.86157" lon="2.07066">
        <ele>93.9</ele>
        <time>2023-01-11T14:23:14Z</time>
      </trkpt>
      <trkpt lat="49.86158" lon="2.07066">
        <ele>93.9</ele>
        <time>2023-01-11T14:23:15Z</time>
      </trkpt>
      <trkpt lat="49.86159" lon="2.07067">
        <ele>94</ele>
        <time>2023-01-11T14:23:16Z</time>
      </trkpt>
      <trkpt lat="49.8616" lon="2.07068">
        <ele>94</ele>
        <time>2023-01-11T14:23:17Z</time>
      </trkpt>
      <trkpt lat="49.86161" lon="2.07069">
        <ele>94.1</ele>
        <time>2023-01-11T14:23:18Z</time>
      </trkpt>
      <trkpt lat="49.86162" lon="2.0707">
        <ele>94.1</ele>
        <time>2023-01-11T14:23:19Z</time>
      </trkpt>
      <trkpt lat="49.86163" lon="2.07071">
        <ele>94.2</ele>
        <time>2023-01-11T14:23:21Z</time>
      </trkpt>
      <trkpt lat="49.86165" lon="2.07072">
        <ele>94.2</ele>
        <time>2023-01-11T14:23:22Z</time>
      </trkpt>
      <trkpt lat="49.86165" lon="2.07073">
        <ele>94.3</ele>
        <time>2023-01-11T14:23:23Z</time>
      </trkpt>
      <trkpt lat="49.86166" lon="2.07074">
        <ele>94.3</ele>
        <time>2023-01-11T14:23:24Z</time>
      </trkpt>
      <trkpt lat="49.86167" lon="2.07075">
        <ele>94.4</ele>
        <time>2023-01-11T14:23:25Z</time>
      </trkpt>
      <trkpt lat="49.86167" lon="2.07076">
        <ele>94.4</ele>
        <time>2023-01-11T14:23:26Z</time>
      </trkpt>
      <trkpt lat="49.86169" lon="2.07078">
        <ele>94.5</ele>
        <time>2023-01-11T14:23:28Z</time>
      </trkpt>
      <trkpt lat="49.86169" lon="2.07079">
        <ele>94.5</ele>
        <time>2023-01-11T14:23:29Z</time>
      </trkpt>
      <trkpt lat="49.8617" lon="2.07081">
        <ele>94.6</ele>
        <time>2023-01-11T14:23:30Z</time>
      </trkpt>
      <trkpt lat="49.86171" lon="2.07082">
        <ele>94.6</ele>
        <time>2023-01-11T14:23:31Z</time>
      </trkpt>
      <trkpt lat="49.86172" lon="2.07083">
        <ele>94.6</ele>
        <time>2023-01-11T14:23:32Z</time>
      </trkpt>
      <trkpt lat="49.86172" lon="2.07084">
        <ele>94.7</ele>
        <time>2023-01-11T14:23:33Z</time>
      </trkpt>
      <trkpt lat="49.86173" lon="2.07086">
        <ele>94.7</ele>
        <time>2023-01-11T14:23:35Z</time>
      </trkpt>
      <trkpt lat="49.86174" lon="2.07087">
        <ele>94.8</ele>
        <time>2023-01-11T14:23:36Z</time>
      </trkpt>
      <trkpt lat="49.86175" lon="2.07089">
        <ele>94.9</ele>
        <time>2023-01-11T14:23:37Z</time>
      </trkpt>
      <trkpt lat="49.86175" lon="2.07089">
        <ele>94.9</ele>
        <time>2023-01-11T14:23:38Z</time>
      </trkpt>
      <trkpt lat="49.86176" lon="2.0709">
        <ele>94.9</ele>
        <time>2023-01-11T14:23:39Z</time>
      </trkpt>
      <trkpt lat="49.86176" lon="2.07091">
        <ele>95</ele>
        <time>2023-01-11T14:23:41Z</time>
      </trkpt>
      <trkpt lat="49.86177" lon="2.07092">
        <ele>95.1</ele>
        <time>2023-01-11T14:23:42Z</time>
      </trkpt>
      <trkpt lat="49.86178" lon="2.07094">
        <ele>95.1</ele>
        <time>2023-01-11T14:23:43Z</time>
      </trkpt>
      <trkpt lat="49.86179" lon="2.07095">
        <ele>95.2</ele>
        <time>2023-01-11T14:23:44Z</time>
      </trkpt>
      <trkpt lat="49.86179" lon="2.07096">
        <ele>95.2</ele>
        <time>2023-01-11T14:23:45Z</time>
      </trkpt>
      <trkpt lat="49.8618" lon="2.07097">
        <ele>95.2</ele>
        <time>2023-01-11T14:23:46Z</time>
      </trkpt>
      <trkpt lat="49.86181" lon="2.07098">
        <ele>95.3</ele>
        <time>2023-01-11T14:23:48Z</time>
      </trkpt>
      <trkpt lat="49.86182" lon="2.07098">
        <ele>95.4</ele>
        <time>2023-01-11T14:23:49Z</time>
      </trkpt>
      <trkpt lat="49.86182" lon="2.07099">
        <ele>95.4</ele>
        <time>2023-01-11T14:23:50Z</time>
      </trkpt>
      <trkpt lat="49.86183" lon="2.071">
        <ele>95.4</ele>
        <time>2023-01-11T14:23:51Z</time>
      </trkpt>
      <trkpt lat="49.86184" lon="2.07101">
        <ele>95.5</ele>
        <time>2023-01-11T14:23:53Z</time>
      </trkpt>
      <trkpt lat="49.86185" lon="2.07102">
        <ele>95.6</ele>
        <time>2023-01-11T14:23:54Z</time>
      </trkpt>
      <trkpt lat="49.86186" lon="2.07102">
        <ele>95.6</ele>
        <time>2023-01-11T14:23:55Z</time>
      </trkpt>
      <trkpt lat="49.86186" lon="2.07103">
        <ele>95.6</ele>
        <time>2023-01-11T14:23:56Z</time>
      </trkpt>
      <trkpt lat="49.86187" lon="2.07104">
        <ele>95.7</ele>
        <time>2023-01-11T14:23:57Z</time>
      </trkpt>
      <trkpt lat="49.86188" lon="2.07105">
        <ele>95.8</ele>
        <time>2023-01-11T14:23:58Z</time>
      </trkpt>
      <trkpt lat="49.86189" lon="2.07105">
        <ele>95.8</ele>
        <time>2023-01-11T14:23:59Z</time>
      </trkpt>
      <trkpt lat="49.8619" lon="2.07106">
        <ele>95.8</ele>
        <time>2023-01-11T14:24:00Z</time>
      </trkpt>
      <trkpt lat="49.8619" lon="2.07106">
        <ele>95.9</ele>
        <time>2023-01-11T14:24:02Z</time>
      </trkpt>
      <trkpt lat="49.86191" lon="2.07106">
        <ele>95.9</ele>
        <time>2023-01-11T14:24:03Z</time>
      </trkpt>
      <trkpt lat="49.86192" lon="2.07108">
        <ele>96</ele>
        <time>2023-01-11T14:24:04Z</time>
      </trkpt>
      <trkpt lat="49.86193" lon="2.07108">
        <ele>96</ele>
        <time>2023-01-11T14:24:05Z</time>
      </trkpt>
      <trkpt lat="49.86193" lon="2.07109">
        <ele>96.1</ele>
        <time>2023-01-11T14:24:06Z</time>
      </trkpt>
      <trkpt lat="49.86194" lon="2.0711">
        <ele>96.1</ele>
        <time>2023-01-11T14:24:07Z</time>
      </trkpt>
      <trkpt lat="49.86194" lon="2.07111">
        <ele>96.2</ele>
        <time>2023-01-11T14:24:09Z</time>
      </trkpt>
      <trkpt lat="49.86195" lon="2.07111">
        <ele>96.2</ele>
        <time>2023-01-11T14:24:10Z</time>
      </trkpt>
      <trkpt lat="49.86196" lon="2.07112">
        <ele>96.2</ele>
        <time>2023-01-11T14:24:11Z</time>
      </trkpt>
      <trkpt lat="49.86196" lon="2.07113">
        <ele>96.3</ele>
        <time>2023-01-11T14:24:12Z</time>
      </trkpt>
      <trkpt lat="49.86197" lon="2.07114">
        <ele>96.4</ele>
        <time>2023-01-11T14:24:14Z</time>
      </trkpt>
      <trkpt lat="49.86198" lon="2.07114">
        <ele>96.4</ele>
        <time>2023-01-11T14:24:15Z</time>
      </trkpt>
      <trkpt lat="49.86199" lon="2.07115">
        <ele>96.5</ele>
        <time>2023-01-11T14:24:16Z</time>
      </trkpt>
      <trkpt lat="49.862" lon="2.07116">
        <ele>96.5</ele>
        <time>2023-01-11T14:24:17Z</time>
      </trkpt>
      <trkpt lat="49.86201" lon="2.07117">
        <ele>96.6</ele>
        <time>2023-01-11T14:24:18Z</time>
      </trkpt>
      <trkpt lat="49.86202" lon="2.07118">
        <ele>96.7</ele>
        <time>2023-01-11T14:24:20Z</time>
      </trkpt>
      <trkpt lat="49.86203" lon="2.07119">
        <ele>96.7</ele>
        <time>2023-01-11T14:24:21Z</time>
      </trkpt>
      <trkpt lat="49.86204" lon="2.07119">
        <ele>96.8</ele>
        <time>2023-01-11T14:24:22Z</time>
      </trkpt>
      <trkpt lat="49.86205" lon="2.07121">
        <ele>96.9</ele>
        <time>2023-01-11T14:24:23Z</time>
      </trkpt>
      <trkpt lat="49.86205" lon="2.07121">
        <ele>96.9</ele>
        <time>2023-01-11T14:24:24Z</time>
      </trkpt>
      <trkpt lat="49.86206" lon="2.07122">
        <ele>97</ele>
        <time>2023-01-11T14:24:25Z</time>
      </trkpt>
      <trkpt lat="49.86207" lon="2.07123">
        <ele>97</ele>
        <time>2023-01-11T14:24:26Z</time>
      </trkpt>
      <trkpt lat="49.86208" lon="2.07124">
        <ele>97.1</ele>
        <time>2023-01-11T14:24:27Z</time>
      </trkpt>
      <trkpt lat="49.86209" lon="2.07125">
        <ele>97.1</ele>
        <time>2023-01-11T14:24:29Z</time>
      </trkpt>
      <trkpt lat="49.86209" lon="2.07126">
        <ele>97.2</ele>
        <time>2023-01-11T14:24:30Z</time>
      </trkpt>
      <trkpt lat="49.8621" lon="2.07127">
        <ele>97.2</ele>
        <time>2023-01-11T14:24:31Z</time>
      </trkpt>
      <trkpt lat="49.86211" lon="2.07128">
        <ele>97.3</ele>
        <time>2023-01-11T14:24:32Z</time>
      </trkpt>
      <trkpt lat="49.86211" lon="2.07129">
        <ele>97.3</ele>
        <time>2023-01-11T14:24:33Z</time>
      </trkpt>
      <trkpt lat="49.86212" lon="2.0713">
        <ele>97.3</ele>
        <time>2023-01-11T14:24:35Z</time>
      </trkpt>
      <trkpt lat="49.86212" lon="2.0713">
        <ele>97.4</ele>
        <time>2023-01-11T14:24:36Z</time>
      </trkpt>
      <trkpt lat="49.86213" lon="2.0713">
        <ele>97.4</ele>
        <time>2023-01-11T14:24:37Z</time>
      </trkpt>
      <trkpt lat="49.86214" lon="2.07131">
        <ele>97.5</ele>
        <time>2023-01-11T14:24:38Z</time>
      </trkpt>
      <trkpt lat="49.86214" lon="2.07132">
        <ele>97.5</ele>
        <time>2023-01-11T14:24:39Z</time>
      </trkpt>
      <trkpt lat="49.86215" lon="2.07132">
        <ele>97.6</ele>
        <time>2023-01-11T14:24:41Z</time>
      </trkpt>
      <trkpt lat="49.86216" lon="2.07133">
        <ele>97.6</ele>
        <time>2023-01-11T14:24:42Z</time>
      </trkpt>
      <trkpt lat="49.86217" lon="2.07135">
        <ele>97.7</ele>
        <time>2023-01-11T14:24:43Z</time>
      </trkpt>
      <trkpt lat="49.86217" lon="2.07136">
        <ele>97.8</ele>
        <time>2023-01-11T14:24:44Z</time>
      </trkpt>
      <trkpt lat="49.86218" lon="2.07137">
        <ele>97.8</ele>
        <time>2023-01-11T14:24:45Z</time>
      </trkpt>
      <trkpt lat="49.86218" lon="2.07139">
        <ele>97.9</ele>
        <time>2023-01-11T14:24:46Z</time>
      </trkpt>
      <trkpt lat="49.86219" lon="2.07141">
        <ele>98</ele>
        <time>2023-01-11T14:24:47Z</time>
      </trkpt>
      <trkpt lat="49.8622" lon="2.07142">
        <ele>98.1</ele>
        <time>2023-01-11T14:24:48Z</time>
      </trkpt>
      <trkpt lat="49.86221" lon="2.07145">
        <ele>98.2</ele>
        <time>2023-01-11T14:24:50Z</time>
      </trkpt>
      <trkpt lat="49.86222" lon="2.07146">
        <ele>98.3</ele>
        <time>2023-01-11T14:24:51Z</time>
      </trkpt>
      <trkpt lat="49.86222" lon="2.07147">
        <ele>98.3</ele>
        <time>2023-01-11T14:24:52Z</time>
      </trkpt>
      <trkpt lat="49.86224" lon="2.0715">
        <ele>98.5</ele>
        <time>2023-01-11T14:24:53Z</time>
      </trkpt>
      <trkpt lat="49.86224" lon="2.07151">
        <ele>98.5</ele>
        <time>2023-01-11T14:24:55Z</time>
      </trkpt>
      <trkpt lat="49.86225" lon="2.07152">
        <ele>98.6</ele>
        <time>2023-01-11T14:24:56Z</time>
      </trkpt>
      <trkpt lat="49.86226" lon="2.07154">
        <ele>98.7</ele>
        <time>2023-01-11T14:24:57Z</time>
      </trkpt>
      <trkpt lat="49.86227" lon="2.07156">
        <ele>98.8</ele>
        <time>2023-01-11T14:24:58Z</time>
      </trkpt>
      <trkpt lat="49.86227" lon="2.07157">
        <ele>98.8</ele>
        <time>2023-01-11T14:24:59Z</time>
      </trkpt>
      <trkpt lat="49.86228" lon="2.07158">
        <ele>98.9</ele>
        <time>2023-01-11T14:25:00Z</time>
      </trkpt>
      <trkpt lat="49.86229" lon="2.07159">
        <ele>99</ele>
        <time>2023-01-11T14:25:02Z</time>
      </trkpt>
      <trkpt lat="49.8623" lon="2.07161">
        <ele>99</ele>
        <time>2023-01-11T14:25:03Z</time>
      </trkpt>
      <trkpt lat="49.86231" lon="2.07162">
        <ele>99.1</ele>
        <time>2023-01-11T14:25:04Z</time>
      </trkpt>
      <trkpt lat="49.86232" lon="2.07163">
        <ele>99.1</ele>
        <time>2023-01-11T14:25:05Z</time>
      </trkpt>
      <trkpt lat="49.86232" lon="2.07164">
        <ele>99.2</ele>
        <time>2023-01-11T14:25:07Z</time>
      </trkpt>
      <trkpt lat="49.86233" lon="2.07165">
        <ele>99.3</ele>
        <time>2023-01-11T14:25:08Z</time>
      </trkpt>
      <trkpt lat="49.86234" lon="2.07166">
        <ele>99.3</ele>
        <time>2023-01-11T14:25:09Z</time>
      </trkpt>
      <trkpt lat="49.86234" lon="2.07167">
        <ele>99.3</ele>
        <time>2023-01-11T14:25:10Z</time>
      </trkpt>
      <trkpt lat="49.86235" lon="2.07168">
        <ele>99.4</ele>
        <time>2023-01-11T14:25:11Z</time>
      </trkpt>
      <trkpt lat="49.86236" lon="2.0717">
        <ele>99.5</ele>
        <time>2023-01-11T14:25:13Z</time>
      </trkpt>
      <trkpt lat="49.86237" lon="2.07171">
        <ele>99.5</ele>
        <time>2023-01-11T14:25:14Z</time>
      </trkpt>
      <trkpt lat="49.86238" lon="2.07172">
        <ele>99.6</ele>
        <time>2023-01-11T14:25:15Z</time>
      </trkpt>
      <trkpt lat="49.86238" lon="2.07173">
        <ele>99.6</ele>
        <time>2023-01-11T14:25:16Z</time>
      </trkpt>
      <trkpt lat="49.86239" lon="2.07174">
        <ele>99.7</ele>
        <time>2023-01-11T14:25:17Z</time>
      </trkpt>
      <trkpt lat="49.8624" lon="2.07176">
        <ele>99.7</ele>
        <time>2023-01-11T14:25:18Z</time>
      </trkpt>
      <trkpt lat="49.86241" lon="2.07177">
        <ele>99.8</ele>
        <time>2023-01-11T14:25:19Z</time>
      </trkpt>
      <trkpt lat="49.86241" lon="2.07178">
        <ele>99.8</ele>
        <time>2023-01-11T14:25:20Z</time>
      </trkpt>
      <trkpt lat="49.86243" lon="2.0718">
        <ele>100</ele>
        <time>2023-01-11T14:25:22Z</time>
      </trkpt>
      <trkpt lat="49.86243" lon="2.07181">
        <ele>100</ele>
        <time>2023-01-11T14:25:24Z</time>
      </trkpt>
      <trkpt lat="49.86244" lon="2.07182">
        <ele>100</ele>
        <time>2023-01-11T14:25:25Z</time>
      </trkpt>
      <trkpt lat="49.86244" lon="2.07183">
        <ele>100.1</ele>
        <time>2023-01-11T14:25:26Z</time>
      </trkpt>
      <trkpt lat="49.86245" lon="2.07184">
        <ele>100.1</ele>
        <time>2023-01-11T14:25:27Z</time>
      </trkpt>
      <trkpt lat="49.86245" lon="2.07186">
        <ele>100.2</ele>
        <time>2023-01-11T14:25:28Z</time>
      </trkpt>
      <trkpt lat="49.86245" lon="2.07187">
        <ele>100.2</ele>
        <time>2023-01-11T14:25:29Z</time>
      </trkpt>
      <trkpt lat="49.86246" lon="2.07188">
        <ele>100.3</ele>
        <time>2023-01-11T14:25:30Z</time>
      </trkpt>
      <trkpt lat="49.86247" lon="2.07191">
        <ele>100.4</ele>
        <time>2023-01-11T14:25:32Z</time>
      </trkpt>
      <trkpt lat="49.86247" lon="2.07192">
        <ele>100.5</ele>
        <time>2023-01-11T14:25:34Z</time>
      </trkpt>
      <trkpt lat="49.86247" lon="2.07194">
        <ele>100.5</ele>
        <time>2023-01-11T14:25:35Z</time>
      </trkpt>
      <trkpt lat="49.86247" lon="2.07195">
        <ele>100.6</ele>
        <time>2023-01-11T14:25:36Z</time>
      </trkpt>
      <trkpt lat="49.86247" lon="2.07196">
        <ele>100.6</ele>
        <time>2023-01-11T14:25:37Z</time>
      </trkpt>
      <trkpt lat="49.86248" lon="2.07197">
        <ele>100.7</ele>
        <time>2023-01-11T14:25:38Z</time>
      </trkpt>
      <trkpt lat="49.86249" lon="2.07198">
        <ele>100.7</ele>
        <time>2023-01-11T14:25:39Z</time>
      </trkpt>
      <trkpt lat="49.86249" lon="2.072">
        <ele>100.8</ele>
        <time>2023-01-11T14:25:40Z</time>
      </trkpt>
      <trkpt lat="49.8625" lon="2.07201">
        <ele>100.9</ele>
        <time>2023-01-11T14:25:42Z</time>
      </trkpt>
      <trkpt lat="49.86251" lon="2.07202">
        <ele>101</ele>
        <time>2023-01-11T14:25:43Z</time>
      </trkpt>
      <trkpt lat="49.86252" lon="2.07202">
        <ele>101</ele>
        <time>2023-01-11T14:25:44Z</time>
      </trkpt>
      <trkpt lat="49.86252" lon="2.07203">
        <ele>101.1</ele>
        <time>2023-01-11T14:25:45Z</time>
      </trkpt>
      <trkpt lat="49.86253" lon="2.07205">
        <ele>101.2</ele>
        <time>2023-01-11T14:25:46Z</time>
      </trkpt>
      <trkpt lat="49.86254" lon="2.07205">
        <ele>101.2</ele>
        <time>2023-01-11T14:25:47Z</time>
      </trkpt>
      <trkpt lat="49.86255" lon="2.07206">
        <ele>101.3</ele>
        <time>2023-01-11T14:25:49Z</time>
      </trkpt>
      <trkpt lat="49.86256" lon="2.07208">
        <ele>101.4</ele>
        <time>2023-01-11T14:25:50Z</time>
      </trkpt>
      <trkpt lat="49.86256" lon="2.07208">
        <ele>101.4</ele>
        <time>2023-01-11T14:25:51Z</time>
      </trkpt>
      <trkpt lat="49.86257" lon="2.07209">
        <ele>101.5</ele>
        <time>2023-01-11T14:25:52Z</time>
      </trkpt>
      <trkpt lat="49.86258" lon="2.0721">
        <ele>101.6</ele>
        <time>2023-01-11T14:25:53Z</time>
      </trkpt>
      <trkpt lat="49.86259" lon="2.07211">
        <ele>101.7</ele>
        <time>2023-01-11T14:25:54Z</time>
      </trkpt>
      <trkpt lat="49.8626" lon="2.07212">
        <ele>101.7</ele>
        <time>2023-01-11T14:25:56Z</time>
      </trkpt>
      <trkpt lat="49.86261" lon="2.07213">
        <ele>101.8</ele>
        <time>2023-01-11T14:25:57Z</time>
      </trkpt>
      <trkpt lat="49.86261" lon="2.07214">
        <ele>101.9</ele>
        <time>2023-01-11T14:25:58Z</time>
      </trkpt>
      <trkpt lat="49.86262" lon="2.07216">
        <ele>102</ele>
        <time>2023-01-11T14:25:59Z</time>
      </trkpt>
      <trkpt lat="49.86263" lon="2.07219">
        <ele>102.1</ele>
        <time>2023-01-11T14:26:01Z</time>
      </trkpt>
      <trkpt lat="49.86264" lon="2.0722">
        <ele>102.2</ele>
        <time>2023-01-11T14:26:02Z</time>
      </trkpt>
      <trkpt lat="49.86264" lon="2.07222">
        <ele>102.3</ele>
        <time>2023-01-11T14:26:04Z</time>
      </trkpt>
      <trkpt lat="49.86265" lon="2.07223">
        <ele>102.3</ele>
        <time>2023-01-11T14:26:05Z</time>
      </trkpt>
      <trkpt lat="49.86265" lon="2.07224">
        <ele>102.4</ele>
        <time>2023-01-11T14:26:06Z</time>
      </trkpt>
      <trkpt lat="49.86266" lon="2.07226">
        <ele>102.5</ele>
        <time>2023-01-11T14:26:08Z</time>
      </trkpt>
      <trkpt lat="49.86267" lon="2.07227">
        <ele>102.6</ele>
        <time>2023-01-11T14:26:09Z</time>
      </trkpt>
      <trkpt lat="49.86267" lon="2.07228">
        <ele>102.6</ele>
        <time>2023-01-11T14:26:10Z</time>
      </trkpt>
      <trkpt lat="49.86268" lon="2.07229">
        <ele>102.7</ele>
        <time>2023-01-11T14:26:11Z</time>
      </trkpt>
      <trkpt lat="49.86269" lon="2.07231">
        <ele>102.8</ele>
        <time>2023-01-11T14:26:13Z</time>
      </trkpt>
      <trkpt lat="49.8627" lon="2.07232">
        <ele>102.9</ele>
        <time>2023-01-11T14:26:14Z</time>
      </trkpt>
      <trkpt lat="49.8627" lon="2.07232">
        <ele>102.9</ele>
        <time>2023-01-11T14:26:15Z</time>
      </trkpt>
      <trkpt lat="49.86271" lon="2.07233">
        <ele>103</ele>
        <time>2023-01-11T14:26:16Z</time>
      </trkpt>
      <trkpt lat="49.86272" lon="2.07234">
        <ele>103</ele>
        <time>2023-01-11T14:26:17Z</time>
      </trkpt>
      <trkpt lat="49.86272" lon="2.07235">
        <ele>103.1</ele>
        <time>2023-01-11T14:26:19Z</time>
      </trkpt>
      <trkpt lat="49.86272" lon="2.07236">
        <ele>103.1</ele>
        <time>2023-01-11T14:26:20Z</time>
      </trkpt>
      <trkpt lat="49.86273" lon="2.07237">
        <ele>103.2</ele>
        <time>2023-01-11T14:26:21Z</time>
      </trkpt>
      <trkpt lat="49.86273" lon="2.07238">
        <ele>103.3</ele>
        <time>2023-01-11T14:26:22Z</time>
      </trkpt>
      <trkpt lat="49.86274" lon="2.07239">
        <ele>103.3</ele>
        <time>2023-01-11T14:26:23Z</time>
      </trkpt>
      <trkpt lat="49.86274" lon="2.0724">
        <ele>103.3</ele>
        <time>2023-01-11T14:26:24Z</time>
      </trkpt>
      <trkpt lat="49.86275" lon="2.0724">
        <ele>103.4</ele>
        <time>2023-01-11T14:26:25Z</time>
      </trkpt>
      <trkpt lat="49.86276" lon="2.07242">
        <ele>103.5</ele>
        <time>2023-01-11T14:26:27Z</time>
      </trkpt>
      <trkpt lat="49.86276" lon="2.07243">
        <ele>103.5</ele>
        <time>2023-01-11T14:26:28Z</time>
      </trkpt>
      <trkpt lat="49.86276" lon="2.07244">
        <ele>103.6</ele>
        <time>2023-01-11T14:26:29Z</time>
      </trkpt>
      <trkpt lat="49.86277" lon="2.07246">
        <ele>103.7</ele>
        <time>2023-01-11T14:26:31Z</time>
      </trkpt>
      <trkpt lat="49.86277" lon="2.07247">
        <ele>103.8</ele>
        <time>2023-01-11T14:26:32Z</time>
      </trkpt>
      <trkpt lat="49.86277" lon="2.07248">
        <ele>103.8</ele>
        <time>2023-01-11T14:26:33Z</time>
      </trkpt>
      <trkpt lat="49.86278" lon="2.07249">
        <ele>103.8</ele>
        <time>2023-01-11T14:26:34Z</time>
      </trkpt>
      <trkpt lat="49.86278" lon="2.0725">
        <ele>103.9</ele>
        <time>2023-01-11T14:26:35Z</time>
      </trkpt>
      <trkpt lat="49.86279" lon="2.07252">
        <ele>104</ele>
        <time>2023-01-11T14:26:36Z</time>
      </trkpt>
      <trkpt lat="49.8628" lon="2.07253">
        <ele>104.1</ele>
        <time>2023-01-11T14:26:38Z</time>
      </trkpt>
      <trkpt lat="49.8628" lon="2.07255">
        <ele>104.2</ele>
        <time>2023-01-11T14:26:39Z</time>
      </trkpt>
      <trkpt lat="49.86281" lon="2.07256">
        <ele>104.2</ele>
        <time>2023-01-11T14:26:40Z</time>
      </trkpt>
      <trkpt lat="49.86281" lon="2.07257">
        <ele>104.3</ele>
        <time>2023-01-11T14:26:41Z</time>
      </trkpt>
      <trkpt lat="49.86282" lon="2.07258">
        <ele>104.4</ele>
        <time>2023-01-11T14:26:43Z</time>
      </trkpt>
      <trkpt lat="49.86283" lon="2.0726">
        <ele>104.5</ele>
        <time>2023-01-11T14:26:44Z</time>
      </trkpt>
      <trkpt lat="49.86283" lon="2.07261">
        <ele>104.5</ele>
        <time>2023-01-11T14:26:45Z</time>
      </trkpt>
      <trkpt lat="49.86284" lon="2.07262">
        <ele>104.6</ele>
        <time>2023-01-11T14:26:46Z</time>
      </trkpt>
      <trkpt lat="49.86285" lon="2.07264">
        <ele>104.7</ele>
        <time>2023-01-11T14:26:48Z</time>
      </trkpt>
      <trkpt lat="49.86285" lon="2.07264">
        <ele>104.8</ele>
        <time>2023-01-11T14:26:49Z</time>
      </trkpt>
      <trkpt lat="49.86286" lon="2.07265">
        <ele>104.9</ele>
        <time>2023-01-11T14:26:50Z</time>
      </trkpt>
      <trkpt lat="49.86287" lon="2.07266">
        <ele>105</ele>
        <time>2023-01-11T14:26:51Z</time>
      </trkpt>
      <trkpt lat="49.86288" lon="2.07268">
        <ele>105.1</ele>
        <time>2023-01-11T14:26:52Z</time>
      </trkpt>
      <trkpt lat="49.86288" lon="2.07269">
        <ele>105.1</ele>
        <time>2023-01-11T14:26:53Z</time>
      </trkpt>
      <trkpt lat="49.86289" lon="2.0727">
        <ele>105.2</ele>
        <time>2023-01-11T14:26:55Z</time>
      </trkpt>
      <trkpt lat="49.8629" lon="2.07271">
        <ele>105.3</ele>
        <time>2023-01-11T14:26:56Z</time>
      </trkpt>
      <trkpt lat="49.86291" lon="2.07273">
        <ele>105.4</ele>
        <time>2023-01-11T14:26:57Z</time>
      </trkpt>
      <trkpt lat="49.86291" lon="2.07274">
        <ele>105.5</ele>
        <time>2023-01-11T14:26:58Z</time>
      </trkpt>
      <trkpt lat="49.86292" lon="2.07275">
        <ele>105.6</ele>
        <time>2023-01-11T14:26:59Z</time>
      </trkpt>
      <trkpt lat="49.86293" lon="2.07276">
        <ele>105.7</ele>
        <time>2023-01-11T14:27:00Z</time>
      </trkpt>
      <trkpt lat="49.86293" lon="2.07277">
        <ele>105.7</ele>
        <time>2023-01-11T14:27:01Z</time>
      </trkpt>
      <trkpt lat="49.86294" lon="2.07279">
        <ele>105.8</ele>
        <time>2023-01-11T14:27:03Z</time>
      </trkpt>
      <trkpt lat="49.86294" lon="2.0728">
        <ele>105.9</ele>
        <time>2023-01-11T14:27:04Z</time>
      </trkpt>
      <trkpt lat="49.86294" lon="2.07281">
        <ele>106</ele>
        <time>2023-01-11T14:27:05Z</time>
      </trkpt>
      <trkpt lat="49.86295" lon="2.07283">
        <ele>106.1</ele>
        <time>2023-01-11T14:27:06Z</time>
      </trkpt>
      <trkpt lat="49.86296" lon="2.07286">
        <ele>106.3</ele>
        <time>2023-01-11T14:27:07Z</time>
      </trkpt>
      <trkpt lat="49.86296" lon="2.07287">
        <ele>106.3</ele>
        <time>2023-01-11T14:27:09Z</time>
      </trkpt>
      <trkpt lat="49.86296" lon="2.07288">
        <ele>106.4</ele>
        <time>2023-01-11T14:27:10Z</time>
      </trkpt>
      <trkpt lat="49.86296" lon="2.0729">
        <ele>106.5</ele>
        <time>2023-01-11T14:27:11Z</time>
      </trkpt>
      <trkpt lat="49.86297" lon="2.07291">
        <ele>106.6</ele>
        <time>2023-01-11T14:27:12Z</time>
      </trkpt>
      <trkpt lat="49.86298" lon="2.07293">
        <ele>106.7</ele>
        <time>2023-01-11T14:27:14Z</time>
      </trkpt>
      <trkpt lat="49.86298" lon="2.07294">
        <ele>106.8</ele>
        <time>2023-01-11T14:27:15Z</time>
      </trkpt>
      <trkpt lat="49.86299" lon="2.07296">
        <ele>106.9</ele>
        <time>2023-01-11T14:27:16Z</time>
      </trkpt>
      <trkpt lat="49.863" lon="2.07297">
        <ele>107</ele>
        <time>2023-01-11T14:27:17Z</time>
      </trkpt>
      <trkpt lat="49.863" lon="2.07298">
        <ele>107</ele>
        <time>2023-01-11T14:27:19Z</time>
      </trkpt>
      <trkpt lat="49.86301" lon="2.07299">
        <ele>107.1</ele>
        <time>2023-01-11T14:27:20Z</time>
      </trkpt>
      <trkpt lat="49.86301" lon="2.073">
        <ele>107.2</ele>
        <time>2023-01-11T14:27:21Z</time>
      </trkpt>
      <trkpt lat="49.86302" lon="2.07301">
        <ele>107.2</ele>
        <time>2023-01-11T14:27:22Z</time>
      </trkpt>
      <trkpt lat="49.86302" lon="2.07302">
        <ele>107.3</ele>
        <time>2023-01-11T14:27:23Z</time>
      </trkpt>
      <trkpt lat="49.86303" lon="2.07303">
        <ele>107.4</ele>
        <time>2023-01-11T14:27:24Z</time>
      </trkpt>
      <trkpt lat="49.86303" lon="2.07304">
        <ele>107.5</ele>
        <time>2023-01-11T14:27:25Z</time>
      </trkpt>
      <trkpt lat="49.86304" lon="2.07305">
        <ele>107.5</ele>
        <time>2023-01-11T14:27:27Z</time>
      </trkpt>
      <trkpt lat="49.86304" lon="2.07307">
        <ele>107.6</ele>
        <time>2023-01-11T14:27:28Z</time>
      </trkpt>
      <trkpt lat="49.86304" lon="2.07308">
        <ele>107.7</ele>
        <time>2023-01-11T14:27:29Z</time>
      </trkpt>
      <trkpt lat="49.86305" lon="2.07309">
        <ele>107.7</ele>
        <time>2023-01-11T14:27:30Z</time>
      </trkpt>
      <trkpt lat="49.86305" lon="2.0731">
        <ele>107.8</ele>
        <time>2023-01-11T14:27:31Z</time>
      </trkpt>
      <trkpt lat="49.86306" lon="2.07312">
        <ele>107.9</ele>
        <time>2023-01-11T14:27:32Z</time>
      </trkpt>
      <trkpt lat="49.86307" lon="2.07313">
        <ele>107.9</ele>
        <time>2023-01-11T14:27:34Z</time>
      </trkpt>
      <trkpt lat="49.86307" lon="2.07314">
        <ele>108</ele>
        <time>2023-01-11T14:27:35Z</time>
      </trkpt>
      <trkpt lat="49.86308" lon="2.07315">
        <ele>108.1</ele>
        <time>2023-01-11T14:27:36Z</time>
      </trkpt>
      <trkpt lat="49.86308" lon="2.07316">
        <ele>108.2</ele>
        <time>2023-01-11T14:27:37Z</time>
      </trkpt>
      <trkpt lat="49.86309" lon="2.07317">
        <ele>108.3</ele>
        <time>2023-01-11T14:27:39Z</time>
      </trkpt>
      <trkpt lat="49.8631" lon="2.07319">
        <ele>108.3</ele>
        <time>2023-01-11T14:27:40Z</time>
      </trkpt>
      <trkpt lat="49.8631" lon="2.0732">
        <ele>108.4</ele>
        <time>2023-01-11T14:27:41Z</time>
      </trkpt>
      <trkpt lat="49.86311" lon="2.07322">
        <ele>108.5</ele>
        <time>2023-01-11T14:27:42Z</time>
      </trkpt>
      <trkpt lat="49.86311" lon="2.07323">
        <ele>108.6</ele>
        <time>2023-01-11T14:27:44Z</time>
      </trkpt>
      <trkpt lat="49.86312" lon="2.07325">
        <ele>108.7</ele>
        <time>2023-01-11T14:27:45Z</time>
      </trkpt>
      <trkpt lat="49.86312" lon="2.07326">
        <ele>108.8</ele>
        <time>2023-01-11T14:27:46Z</time>
      </trkpt>
      <trkpt lat="49.86313" lon="2.07328">
        <ele>108.9</ele>
        <time>2023-01-11T14:27:47Z</time>
      </trkpt>
      <trkpt lat="49.86313" lon="2.07329">
        <ele>108.9</ele>
        <time>2023-01-11T14:27:48Z</time>
      </trkpt>
      <trkpt lat="49.86313" lon="2.0733">
        <ele>109</ele>
        <time>2023-01-11T14:27:49Z</time>
      </trkpt>
      <trkpt lat="49.86314" lon="2.07331">
        <ele>109</ele>
        <time>2023-01-11T14:27:50Z</time>
      </trkpt>
      <trkpt lat="49.86314" lon="2.07333">
        <ele>109.1</ele>
        <time>2023-01-11T14:27:51Z</time>
      </trkpt>
      <trkpt lat="49.86315" lon="2.07334">
        <ele>109.2</ele>
        <time>2023-01-11T14:27:53Z</time>
      </trkpt>
      <trkpt lat="49.86316" lon="2.07336">
        <ele>109.3</ele>
        <time>2023-01-11T14:27:54Z</time>
      </trkpt>
      <trkpt lat="49.86316" lon="2.07337">
        <ele>109.4</ele>
        <time>2023-01-11T14:27:55Z</time>
      </trkpt>
      <trkpt lat="49.86317" lon="2.07338">
        <ele>109.4</ele>
        <time>2023-01-11T14:27:56Z</time>
      </trkpt>
      <trkpt lat="49.86317" lon="2.07339">
        <ele>109.5</ele>
        <time>2023-01-11T14:27:57Z</time>
      </trkpt>
      <trkpt lat="49.86317" lon="2.0734">
        <ele>109.5</ele>
        <time>2023-01-11T14:27:58Z</time>
      </trkpt>
      <trkpt lat="49.86319" lon="2.07341">
        <ele>109.7</ele>
        <time>2023-01-11T14:28:00Z</time>
      </trkpt>
      <trkpt lat="49.86319" lon="2.07342">
        <ele>109.7</ele>
        <time>2023-01-11T14:28:02Z</time>
      </trkpt>
      <trkpt lat="49.8632" lon="2.07344">
        <ele>109.8</ele>
        <time>2023-01-11T14:28:03Z</time>
      </trkpt>
      <trkpt lat="49.8632" lon="2.07345">
        <ele>109.9</ele>
        <time>2023-01-11T14:28:04Z</time>
      </trkpt>
      <trkpt lat="49.8632" lon="2.07346">
        <ele>109.9</ele>
        <time>2023-01-11T14:28:06Z</time>
      </trkpt>
      <trkpt lat="49.86321" lon="2.07347">
        <ele>110</ele>
        <time>2023-01-11T14:28:07Z</time>
      </trkpt>
      <trkpt lat="49.86321" lon="2.07349">
        <ele>110.1</ele>
        <time>2023-01-11T14:28:08Z</time>
      </trkpt>
      <trkpt lat="49.86321" lon="2.07349">
        <ele>110.1</ele>
        <time>2023-01-11T14:28:09Z</time>
      </trkpt>
      <trkpt lat="49.86322" lon="2.07351">
        <ele>110.2</ele>
        <time>2023-01-11T14:28:10Z</time>
      </trkpt>
      <trkpt lat="49.86322" lon="2.07352">
        <ele>110.3</ele>
        <time>2023-01-11T14:28:11Z</time>
      </trkpt>
      <trkpt lat="49.86323" lon="2.07353">
        <ele>110.4</ele>
        <time>2023-01-11T14:28:12Z</time>
      </trkpt>
      <trkpt lat="49.86323" lon="2.07354">
        <ele>110.4</ele>
        <time>2023-01-11T14:28:13Z</time>
      </trkpt>
      <trkpt lat="49.86324" lon="2.07355">
        <ele>110.5</ele>
        <time>2023-01-11T14:28:15Z</time>
      </trkpt>
      <trkpt lat="49.86324" lon="2.07357">
        <ele>110.6</ele>
        <time>2023-01-11T14:28:16Z</time>
      </trkpt>
      <trkpt lat="49.86324" lon="2.07357">
        <ele>110.6</ele>
        <time>2023-01-11T14:28:17Z</time>
      </trkpt>
      <trkpt lat="49.86325" lon="2.07359">
        <ele>110.7</ele>
        <time>2023-01-11T14:28:18Z</time>
      </trkpt>
      <trkpt lat="49.86325" lon="2.0736">
        <ele>110.8</ele>
        <time>2023-01-11T14:28:19Z</time>
      </trkpt>
      <trkpt lat="49.86326" lon="2.07362">
        <ele>110.9</ele>
        <time>2023-01-11T14:28:21Z</time>
      </trkpt>
      <trkpt lat="49.86326" lon="2.07364">
        <ele>111</ele>
        <time>2023-01-11T14:28:22Z</time>
      </trkpt>
      <trkpt lat="49.86327" lon="2.07365">
        <ele>111.1</ele>
        <time>2023-01-11T14:28:23Z</time>
      </trkpt>
      <trkpt lat="49.86327" lon="2.07366">
        <ele>111.1</ele>
        <time>2023-01-11T14:28:24Z</time>
      </trkpt>
      <trkpt lat="49.86328" lon="2.07367">
        <ele>111.2</ele>
        <time>2023-01-11T14:28:25Z</time>
      </trkpt>
      <trkpt lat="49.86328" lon="2.07369">
        <ele>111.3</ele>
        <time>2023-01-11T14:28:26Z</time>
      </trkpt>
      <trkpt lat="49.86328" lon="2.0737">
        <ele>111.3</ele>
        <time>2023-01-11T14:28:27Z</time>
      </trkpt>
      <trkpt lat="49.86329" lon="2.07372">
        <ele>111.5</ele>
        <time>2023-01-11T14:28:29Z</time>
      </trkpt>
      <trkpt lat="49.86329" lon="2.07374">
        <ele>111.6</ele>
        <time>2023-01-11T14:28:30Z</time>
      </trkpt>
      <trkpt lat="49.86329" lon="2.07375">
        <ele>111.6</ele>
        <time>2023-01-11T14:28:31Z</time>
      </trkpt>
      <trkpt lat="49.8633" lon="2.07377">
        <ele>111.8</ele>
        <time>2023-01-11T14:28:33Z</time>
      </trkpt>
      <trkpt lat="49.8633" lon="2.07378">
        <ele>111.8</ele>
        <time>2023-01-11T14:28:34Z</time>
      </trkpt>
      <trkpt lat="49.86331" lon="2.07379">
        <ele>111.9</ele>
        <time>2023-01-11T14:28:35Z</time>
      </trkpt>
      <trkpt lat="49.86331" lon="2.0738">
        <ele>112</ele>
        <time>2023-01-11T14:28:36Z</time>
      </trkpt>
      <trkpt lat="49.86331" lon="2.07381">
        <ele>112</ele>
        <time>2023-01-11T14:28:37Z</time>
      </trkpt>
      <trkpt lat="49.86332" lon="2.07383">
        <ele>112.1</ele>
        <time>2023-01-11T14:28:39Z</time>
      </trkpt>
      <trkpt lat="49.86333" lon="2.07384">
        <ele>112.2</ele>
        <time>2023-01-11T14:28:41Z</time>
      </trkpt>
      <trkpt lat="49.86333" lon="2.07385">
        <ele>112.3</ele>
        <time>2023-01-11T14:28:42Z</time>
      </trkpt>
      <trkpt lat="49.86333" lon="2.07386">
        <ele>112.3</ele>
        <time>2023-01-11T14:28:43Z</time>
      </trkpt>
      <trkpt lat="49.86334" lon="2.07386">
        <ele>112.4</ele>
        <time>2023-01-11T14:28:44Z</time>
      </trkpt>
      <trkpt lat="49.86334" lon="2.07387">
        <ele>112.4</ele>
        <time>2023-01-11T14:28:45Z</time>
      </trkpt>
      <trkpt lat="49.86335" lon="2.07388">
        <ele>112.5</ele>
        <time>2023-01-11T14:28:47Z</time>
      </trkpt>
      <trkpt lat="49.86336" lon="2.0739">
        <ele>112.6</ele>
        <time>2023-01-11T14:28:48Z</time>
      </trkpt>
      <trkpt lat="49.86336" lon="2.07391">
        <ele>112.7</ele>
        <time>2023-01-11T14:28:49Z</time>
      </trkpt>
      <trkpt lat="49.86336" lon="2.07392">
        <ele>112.8</ele>
        <time>2023-01-11T14:28:50Z</time>
      </trkpt>
      <trkpt lat="49.86337" lon="2.07393">
        <ele>112.8</ele>
        <time>2023-01-11T14:28:51Z</time>
      </trkpt>
      <trkpt lat="49.86337" lon="2.07395">
        <ele>112.9</ele>
        <time>2023-01-11T14:28:52Z</time>
      </trkpt>
      <trkpt lat="49.86338" lon="2.07396">
        <ele>113</ele>
        <time>2023-01-11T14:28:54Z</time>
      </trkpt>
      <trkpt lat="49.86338" lon="2.07397">
        <ele>113.1</ele>
        <time>2023-01-11T14:28:55Z</time>
      </trkpt>
      <trkpt lat="49.86339" lon="2.07398">
        <ele>113.1</ele>
        <time>2023-01-11T14:28:56Z</time>
      </trkpt>
      <trkpt lat="49.86339" lon="2.07399">
        <ele>113.2</ele>
        <time>2023-01-11T14:28:57Z</time>
      </trkpt>
      <trkpt lat="49.8634" lon="2.07401">
        <ele>113.3</ele>
        <time>2023-01-11T14:28:59Z</time>
      </trkpt>
      <trkpt lat="49.86341" lon="2.07402">
        <ele>113.4</ele>
        <time>2023-01-11T14:29:00Z</time>
      </trkpt>
      <trkpt lat="49.86341" lon="2.07403">
        <ele>113.5</ele>
        <time>2023-01-11T14:29:01Z</time>
      </trkpt>
      <trkpt lat="49.86342" lon="2.07404">
        <ele>113.6</ele>
        <time>2023-01-11T14:29:02Z</time>
      </trkpt>
      <trkpt lat="49.86343" lon="2.07405">
        <ele>113.7</ele>
        <time>2023-01-11T14:29:03Z</time>
      </trkpt>
      <trkpt lat="49.86343" lon="2.07406">
        <ele>113.7</ele>
        <time>2023-01-11T14:29:04Z</time>
      </trkpt>
      <trkpt lat="49.86344" lon="2.07409">
        <ele>113.9</ele>
        <time>2023-01-11T14:29:05Z</time>
      </trkpt>
      <trkpt lat="49.86345" lon="2.0741">
        <ele>114</ele>
        <time>2023-01-11T14:29:07Z</time>
      </trkpt>
      <trkpt lat="49.86345" lon="2.07411">
        <ele>114.1</ele>
        <time>2023-01-11T14:29:08Z</time>
      </trkpt>
      <trkpt lat="49.86346" lon="2.07412">
        <ele>114.1</ele>
        <time>2023-01-11T14:29:09Z</time>
      </trkpt>
      <trkpt lat="49.86346" lon="2.07413">
        <ele>114.2</ele>
        <time>2023-01-11T14:29:10Z</time>
      </trkpt>
      <trkpt lat="49.86346" lon="2.07415">
        <ele>114.3</ele>
        <time>2023-01-11T14:29:11Z</time>
      </trkpt>
      <trkpt lat="49.86347" lon="2.07416">
        <ele>114.4</ele>
        <time>2023-01-11T14:29:12Z</time>
      </trkpt>
      <trkpt lat="49.86347" lon="2.07418">
        <ele>114.5</ele>
        <time>2023-01-11T14:29:14Z</time>
      </trkpt>
      <trkpt lat="49.86348" lon="2.07419">
        <ele>114.6</ele>
        <time>2023-01-11T14:29:15Z</time>
      </trkpt>
      <trkpt lat="49.86348" lon="2.0742">
        <ele>114.6</ele>
        <time>2023-01-11T14:29:16Z</time>
      </trkpt>
      <trkpt lat="49.86348" lon="2.07421">
        <ele>114.7</ele>
        <time>2023-01-11T14:29:17Z</time>
      </trkpt>
      <trkpt lat="49.86349" lon="2.07423">
        <ele>114.8</ele>
        <time>2023-01-11T14:29:18Z</time>
      </trkpt>
      <trkpt lat="49.86349" lon="2.07425">
        <ele>114.9</ele>
        <time>2023-01-11T14:29:20Z</time>
      </trkpt>
      <trkpt lat="49.8635" lon="2.07426">
        <ele>114.9</ele>
        <time>2023-01-11T14:29:21Z</time>
      </trkpt>
      <trkpt lat="49.8635" lon="2.07427">
        <ele>115</ele>
        <time>2023-01-11T14:29:22Z</time>
      </trkpt>
      <trkpt lat="49.86351" lon="2.07428">
        <ele>115</ele>
        <time>2023-01-11T14:29:23Z</time>
      </trkpt>
      <trkpt lat="49.86351" lon="2.07429">
        <ele>115.1</ele>
        <time>2023-01-11T14:29:24Z</time>
      </trkpt>
      <trkpt lat="49.86352" lon="2.0743">
        <ele>115.2</ele>
        <time>2023-01-11T14:29:26Z</time>
      </trkpt>
      <trkpt lat="49.86353" lon="2.07432">
        <ele>115.3</ele>
        <time>2023-01-11T14:29:27Z</time>
      </trkpt>
      <trkpt lat="49.86353" lon="2.07434">
        <ele>115.4</ele>
        <time>2023-01-11T14:29:28Z</time>
      </trkpt>
      <trkpt lat="49.86354" lon="2.07435">
        <ele>115.4</ele>
        <time>2023-01-11T14:29:29Z</time>
      </trkpt>
      <trkpt lat="49.86354" lon="2.07436">
        <ele>115.5</ele>
        <time>2023-01-11T14:29:31Z</time>
      </trkpt>
      <trkpt lat="49.86355" lon="2.07437">
        <ele>115.6</ele>
        <time>2023-01-11T14:29:32Z</time>
      </trkpt>
      <trkpt lat="49.86356" lon="2.07441">
        <ele>115.7</ele>
        <time>2023-01-11T14:29:33Z</time>
      </trkpt>
      <trkpt lat="49.86356" lon="2.07442">
        <ele>115.8</ele>
        <time>2023-01-11T14:29:34Z</time>
      </trkpt>
      <trkpt lat="49.86356" lon="2.07443">
        <ele>115.8</ele>
        <time>2023-01-11T14:29:35Z</time>
      </trkpt>
      <trkpt lat="49.86357" lon="2.07444">
        <ele>115.9</ele>
        <time>2023-01-11T14:29:37Z</time>
      </trkpt>
      <trkpt lat="49.86357" lon="2.07446">
        <ele>116</ele>
        <time>2023-01-11T14:29:38Z</time>
      </trkpt>
      <trkpt lat="49.86357" lon="2.07447">
        <ele>116</ele>
        <time>2023-01-11T14:29:39Z</time>
      </trkpt>
      <trkpt lat="49.86358" lon="2.07449">
        <ele>116.1</ele>
        <time>2023-01-11T14:29:40Z</time>
      </trkpt>
      <trkpt lat="49.86359" lon="2.0745">
        <ele>116.2</ele>
        <time>2023-01-11T14:29:41Z</time>
      </trkpt>
      <trkpt lat="49.86359" lon="2.07451">
        <ele>116.2</ele>
        <time>2023-01-11T14:29:43Z</time>
      </trkpt>
      <trkpt lat="49.8636" lon="2.07452">
        <ele>116.3</ele>
        <time>2023-01-11T14:29:44Z</time>
      </trkpt>
      <trkpt lat="49.8636" lon="2.07453">
        <ele>116.3</ele>
        <time>2023-01-11T14:29:45Z</time>
      </trkpt>
      <trkpt lat="49.86361" lon="2.07454">
        <ele>116.4</ele>
        <time>2023-01-11T14:29:46Z</time>
      </trkpt>
      <trkpt lat="49.86361" lon="2.07456">
        <ele>116.4</ele>
        <time>2023-01-11T14:29:47Z</time>
      </trkpt>
      <trkpt lat="49.86362" lon="2.07457">
        <ele>116.5</ele>
        <time>2023-01-11T14:29:49Z</time>
      </trkpt>
      <trkpt lat="49.86363" lon="2.07459">
        <ele>116.6</ele>
        <time>2023-01-11T14:29:50Z</time>
      </trkpt>
      <trkpt lat="49.86363" lon="2.0746">
        <ele>116.6</ele>
        <time>2023-01-11T14:29:51Z</time>
      </trkpt>
      <trkpt lat="49.86363" lon="2.07462">
        <ele>116.7</ele>
        <time>2023-01-11T14:29:52Z</time>
      </trkpt>
      <trkpt lat="49.86364" lon="2.07464">
        <ele>116.8</ele>
        <time>2023-01-11T14:29:53Z</time>
      </trkpt>
      <trkpt lat="49.86364" lon="2.07465">
        <ele>116.8</ele>
        <time>2023-01-11T14:29:54Z</time>
      </trkpt>
      <trkpt lat="49.86364" lon="2.07466">
        <ele>116.9</ele>
        <time>2023-01-11T14:29:56Z</time>
      </trkpt>
      <trkpt lat="49.86365" lon="2.07468">
        <ele>116.9</ele>
        <time>2023-01-11T14:29:57Z</time>
      </trkpt>
      <trkpt lat="49.86365" lon="2.0747">
        <ele>117</ele>
        <time>2023-01-11T14:29:58Z</time>
      </trkpt>
      <trkpt lat="49.86365" lon="2.07471">
        <ele>117</ele>
        <time>2023-01-11T14:29:59Z</time>
      </trkpt>
      <trkpt lat="49.86365" lon="2.07472">
        <ele>117.1</ele>
        <time>2023-01-11T14:30:00Z</time>
      </trkpt>
      <trkpt lat="49.86366" lon="2.07474">
        <ele>117.1</ele>
        <time>2023-01-11T14:30:01Z</time>
      </trkpt>
      <trkpt lat="49.86366" lon="2.07475">
        <ele>117.2</ele>
        <time>2023-01-11T14:30:02Z</time>
      </trkpt>
      <trkpt lat="49.86367" lon="2.07477">
        <ele>117.3</ele>
        <time>2023-01-11T14:30:04Z</time>
      </trkpt>
      <trkpt lat="49.86367" lon="2.07479">
        <ele>117.3</ele>
        <time>2023-01-11T14:30:05Z</time>
      </trkpt>
      <trkpt lat="49.86367" lon="2.0748">
        <ele>117.4</ele>
        <time>2023-01-11T14:30:06Z</time>
      </trkpt>
      <trkpt lat="49.86368" lon="2.07483">
        <ele>117.5</ele>
        <time>2023-01-11T14:30:07Z</time>
      </trkpt>
      <trkpt lat="49.86369" lon="2.07484">
        <ele>117.5</ele>
        <time>2023-01-11T14:30:09Z</time>
      </trkpt>
      <trkpt lat="49.86369" lon="2.07485">
        <ele>117.6</ele>
        <time>2023-01-11T14:30:10Z</time>
      </trkpt>
      <trkpt lat="49.86369" lon="2.07487">
        <ele>117.6</ele>
        <time>2023-01-11T14:30:11Z</time>
      </trkpt>
      <trkpt lat="49.8637" lon="2.07488">
        <ele>117.7</ele>
        <time>2023-01-11T14:30:12Z</time>
      </trkpt>
      <trkpt lat="49.8637" lon="2.0749">
        <ele>117.8</ele>
        <time>2023-01-11T14:30:13Z</time>
      </trkpt>
      <trkpt lat="49.86371" lon="2.07491">
        <ele>117.8</ele>
        <time>2023-01-11T14:30:14Z</time>
      </trkpt>
      <trkpt lat="49.86372" lon="2.07492">
        <ele>117.9</ele>
        <time>2023-01-11T14:30:16Z</time>
      </trkpt>
      <trkpt lat="49.86373" lon="2.07494">
        <ele>117.9</ele>
        <time>2023-01-11T14:30:17Z</time>
      </trkpt>
      <trkpt lat="49.86373" lon="2.07495">
        <ele>118</ele>
        <time>2023-01-11T14:30:18Z</time>
      </trkpt>
      <trkpt lat="49.86374" lon="2.07497">
        <ele>118.1</ele>
        <time>2023-01-11T14:30:19Z</time>
      </trkpt>
      <trkpt lat="49.86374" lon="2.07498">
        <ele>118.1</ele>
        <time>2023-01-11T14:30:20Z</time>
      </trkpt>
      <trkpt lat="49.86375" lon="2.075">
        <ele>118.2</ele>
        <time>2023-01-11T14:30:22Z</time>
      </trkpt>
      <trkpt lat="49.86375" lon="2.07502">
        <ele>118.2</ele>
        <time>2023-01-11T14:30:23Z</time>
      </trkpt>
      <trkpt lat="49.86376" lon="2.07502">
        <ele>118.3</ele>
        <time>2023-01-11T14:30:24Z</time>
      </trkpt>
      <trkpt lat="49.86376" lon="2.07505">
        <ele>118.3</ele>
        <time>2023-01-11T14:30:25Z</time>
      </trkpt>
      <trkpt lat="49.86377" lon="2.07506">
        <ele>118.4</ele>
        <time>2023-01-11T14:30:26Z</time>
      </trkpt>
      <trkpt lat="49.86377" lon="2.07507">
        <ele>118.4</ele>
        <time>2023-01-11T14:30:27Z</time>
      </trkpt>
      <trkpt lat="49.86378" lon="2.07509">
        <ele>118.5</ele>
        <time>2023-01-11T14:30:29Z</time>
      </trkpt>
      <trkpt lat="49.86379" lon="2.07511">
        <ele>118.5</ele>
        <time>2023-01-11T14:30:30Z</time>
      </trkpt>
      <trkpt lat="49.8638" lon="2.07511">
        <ele>118.6</ele>
        <time>2023-01-11T14:30:31Z</time>
      </trkpt>
      <trkpt lat="49.8638" lon="2.07512">
        <ele>118.6</ele>
        <time>2023-01-11T14:30:32Z</time>
      </trkpt>
      <trkpt lat="49.86381" lon="2.07514">
        <ele>118.7</ele>
        <time>2023-01-11T14:30:33Z</time>
      </trkpt>
      <trkpt lat="49.86382" lon="2.07517">
        <ele>118.7</ele>
        <time>2023-01-11T14:30:35Z</time>
      </trkpt>
      <trkpt lat="49.86382" lon="2.07518">
        <ele>118.8</ele>
        <time>2023-01-11T14:30:36Z</time>
      </trkpt>
      <trkpt lat="49.86382" lon="2.07519">
        <ele>118.8</ele>
        <time>2023-01-11T14:30:37Z</time>
      </trkpt>
      <trkpt lat="49.86382" lon="2.07521">
        <ele>118.8</ele>
        <time>2023-01-11T14:30:38Z</time>
      </trkpt>
      <trkpt lat="49.86383" lon="2.07523">
        <ele>118.9</ele>
        <time>2023-01-11T14:30:39Z</time>
      </trkpt>
      <trkpt lat="49.86383" lon="2.07524">
        <ele>118.9</ele>
        <time>2023-01-11T14:30:40Z</time>
      </trkpt>
      <trkpt lat="49.86384" lon="2.07527">
        <ele>119</ele>
        <time>2023-01-11T14:30:42Z</time>
      </trkpt>
      <trkpt lat="49.86384" lon="2.07529">
        <ele>119</ele>
        <time>2023-01-11T14:30:43Z</time>
      </trkpt>
      <trkpt lat="49.86384" lon="2.0753">
        <ele>119.1</ele>
        <time>2023-01-11T14:30:44Z</time>
      </trkpt>
      <trkpt lat="49.86385" lon="2.07532">
        <ele>119.1</ele>
        <time>2023-01-11T14:30:45Z</time>
      </trkpt>
      <trkpt lat="49.86385" lon="2.07533">
        <ele>119.1</ele>
        <time>2023-01-11T14:30:46Z</time>
      </trkpt>
      <trkpt lat="49.86385" lon="2.07534">
        <ele>119.1</ele>
        <time>2023-01-11T14:30:48Z</time>
      </trkpt>
      <trkpt lat="49.86386" lon="2.07536">
        <ele>119.2</ele>
        <time>2023-01-11T14:30:49Z</time>
      </trkpt>
      <trkpt lat="49.86386" lon="2.07538">
        <ele>119.2</ele>
        <time>2023-01-11T14:30:50Z</time>
      </trkpt>
      <trkpt lat="49.86386" lon="2.07539">
        <ele>119.2</ele>
        <time>2023-01-11T14:30:51Z</time>
      </trkpt>
      <trkpt lat="49.86386" lon="2.07541">
        <ele>119.2</ele>
        <time>2023-01-11T14:30:52Z</time>
      </trkpt>
      <trkpt lat="49.86387" lon="2.07543">
        <ele>119.2</ele>
        <time>2023-01-11T14:30:53Z</time>
      </trkpt>
      <trkpt lat="49.86388" lon="2.07545">
        <ele>119.3</ele>
        <time>2023-01-11T14:30:55Z</time>
      </trkpt>
      <trkpt lat="49.86388" lon="2.07547">
        <ele>119.3</ele>
        <time>2023-01-11T14:30:56Z</time>
      </trkpt>
      <trkpt lat="49.86389" lon="2.07548">
        <ele>119.3</ele>
        <time>2023-01-11T14:30:57Z</time>
      </trkpt>
      <trkpt lat="49.86389" lon="2.0755">
        <ele>119.3</ele>
        <time>2023-01-11T14:30:58Z</time>
      </trkpt>
      <trkpt lat="49.86389" lon="2.07551">
        <ele>119.4</ele>
        <time>2023-01-11T14:30:59Z</time>
      </trkpt>
      <trkpt lat="49.8639" lon="2.07553">
        <ele>119.4</ele>
        <time>2023-01-11T14:31:00Z</time>
      </trkpt>
      <trkpt lat="49.8639" lon="2.07554">
        <ele>119.4</ele>
        <time>2023-01-11T14:31:01Z</time>
      </trkpt>
      <trkpt lat="49.86391" lon="2.07556">
        <ele>119.4</ele>
        <time>2023-01-11T14:31:03Z</time>
      </trkpt>
      <trkpt lat="49.86391" lon="2.07558">
        <ele>119.5</ele>
        <time>2023-01-11T14:31:04Z</time>
      </trkpt>
      <trkpt lat="49.86392" lon="2.0756">
        <ele>119.5</ele>
        <time>2023-01-11T14:31:05Z</time>
      </trkpt>
      <trkpt lat="49.86392" lon="2.07561">
        <ele>119.5</ele>
        <time>2023-01-11T14:31:06Z</time>
      </trkpt>
      <trkpt lat="49.86392" lon="2.07563">
        <ele>119.5</ele>
        <time>2023-01-11T14:31:07Z</time>
      </trkpt>
      <trkpt lat="49.86392" lon="2.07565">
        <ele>119.6</ele>
        <time>2023-01-11T14:31:08Z</time>
      </trkpt>
      <trkpt lat="49.86392" lon="2.07568">
        <ele>119.6</ele>
        <time>2023-01-11T14:31:10Z</time>
      </trkpt>
      <trkpt lat="49.86393" lon="2.07569">
        <ele>119.6</ele>
        <time>2023-01-11T14:31:11Z</time>
      </trkpt>
      <trkpt lat="49.86393" lon="2.0757">
        <ele>119.6</ele>
        <time>2023-01-11T14:31:12Z</time>
      </trkpt>
      <trkpt lat="49.86394" lon="2.07572">
        <ele>119.6</ele>
        <time>2023-01-11T14:31:13Z</time>
      </trkpt>
      <trkpt lat="49.86394" lon="2.07573">
        <ele>119.7</ele>
        <time>2023-01-11T14:31:14Z</time>
      </trkpt>
      <trkpt lat="49.86395" lon="2.07574">
        <ele>119.7</ele>
        <time>2023-01-11T14:31:15Z</time>
      </trkpt>
      <trkpt lat="49.86395" lon="2.07576">
        <ele>119.7</ele>
        <time>2023-01-11T14:31:17Z</time>
      </trkpt>
      <trkpt lat="49.86396" lon="2.07577">
        <ele>119.7</ele>
        <time>2023-01-11T14:31:18Z</time>
      </trkpt>
      <trkpt lat="49.86396" lon="2.07579">
        <ele>119.7</ele>
        <time>2023-01-11T14:31:19Z</time>
      </trkpt>
      <trkpt lat="49.86396" lon="2.0758">
        <ele>119.8</ele>
        <time>2023-01-11T14:31:20Z</time>
      </trkpt>
      <trkpt lat="49.86397" lon="2.07581">
        <ele>119.8</ele>
        <time>2023-01-11T14:31:21Z</time>
      </trkpt>
      <trkpt lat="49.86397" lon="2.07583">
        <ele>119.8</ele>
        <time>2023-01-11T14:31:23Z</time>
      </trkpt>
      <trkpt lat="49.86398" lon="2.07585">
        <ele>119.8</ele>
        <time>2023-01-11T14:31:24Z</time>
      </trkpt>
      <trkpt lat="49.86398" lon="2.07586">
        <ele>119.9</ele>
        <time>2023-01-11T14:31:25Z</time>
      </trkpt>
      <trkpt lat="49.86398" lon="2.07588">
        <ele>119.9</ele>
        <time>2023-01-11T14:31:26Z</time>
      </trkpt>
      <trkpt lat="49.86398" lon="2.07589">
        <ele>119.9</ele>
        <time>2023-01-11T14:31:27Z</time>
      </trkpt>
      <trkpt lat="49.86399" lon="2.0759">
        <ele>119.9</ele>
        <time>2023-01-11T14:31:28Z</time>
      </trkpt>
      <trkpt lat="49.86399" lon="2.07591">
        <ele>119.9</ele>
        <time>2023-01-11T14:31:29Z</time>
      </trkpt>
      <trkpt lat="49.86397" lon="2.07591">
        <ele>119.9</ele>
        <time>2023-01-11T14:31:31Z</time>
      </trkpt>
      <trkpt lat="49.86397" lon="2.07591">
        <ele>119.9</ele>
        <time>2023-01-11T14:31:32Z</time>
      </trkpt>
      <trkpt lat="49.86397" lon="2.07591">
        <ele>119.9</ele>
        <time>2023-01-11T14:31:33Z</time>
      </trkpt>
      <trkpt lat="49.86397" lon="2.07592">
        <ele>120</ele>
        <time>2023-01-11T14:31:34Z</time>
      </trkpt>
      <trkpt lat="49.86398" lon="2.07593">
        <ele>120</ele>
        <time>2023-01-11T14:31:36Z</time>
      </trkpt>
      <trkpt lat="49.86398" lon="2.07594">
        <ele>120</ele>
        <time>2023-01-11T14:31:37Z</time>
      </trkpt>
      <trkpt lat="49.86399" lon="2.07595">
        <ele>120</ele>
        <time>2023-01-11T14:31:38Z</time>
      </trkpt>
      <trkpt lat="49.864" lon="2.07596">
        <ele>120</ele>
        <time>2023-01-11T14:31:39Z</time>
      </trkpt>
      <trkpt lat="49.86401" lon="2.07597">
        <ele>120</ele>
        <time>2023-01-11T14:31:40Z</time>
      </trkpt>
      <trkpt lat="49.86402" lon="2.07597">
        <ele>120.1</ele>
        <time>2023-01-11T14:31:41Z</time>
      </trkpt>
      <trkpt lat="49.86403" lon="2.07598">
        <ele>120.2</ele>
        <time>2023-01-11T14:31:43Z</time>
      </trkpt>
      <trkpt lat="49.86403" lon="2.07599">
        <ele>120.2</ele>
        <time>2023-01-11T14:31:44Z</time>
      </trkpt>
      <trkpt lat="49.86403" lon="2.076">
        <ele>120.2</ele>
        <time>2023-01-11T14:31:46Z</time>
      </trkpt>
      <trkpt lat="49.86404" lon="2.07602">
        <ele>120.3</ele>
        <time>2023-01-11T14:31:47Z</time>
      </trkpt>
      <trkpt lat="49.86403" lon="2.07603">
        <ele>120.3</ele>
        <time>2023-01-11T14:31:49Z</time>
      </trkpt>
      <trkpt lat="49.86403" lon="2.07603">
        <ele>120.3</ele>
        <time>2023-01-11T14:31:50Z</time>
      </trkpt>
      <trkpt lat="49.86403" lon="2.07603">
        <ele>120.3</ele>
        <time>2023-01-11T14:31:52Z</time>
      </trkpt>
      <trkpt lat="49.86403" lon="2.07603">
        <ele>120.3</ele>
        <time>2023-01-11T14:31:53Z</time>
      </trkpt>
      <trkpt lat="49.86403" lon="2.07602">
        <ele>120.3</ele>
        <time>2023-01-11T14:31:54Z</time>
      </trkpt>
      <trkpt lat="49.86403" lon="2.07603">
        <ele>120.3</ele>
        <time>2023-01-11T14:31:56Z</time>
      </trkpt>
      <trkpt lat="49.86403" lon="2.07602">
        <ele>120.3</ele>
        <time>2023-01-11T14:31:57Z</time>
      </trkpt>
      <trkpt lat="49.86403" lon="2.07602">
        <ele>120.3</ele>
        <time>2023-01-11T14:31:59Z</time>
      </trkpt>
      <trkpt lat="49.86403" lon="2.07601">
        <ele>120.3</ele>
        <time>2023-01-11T14:32:00Z</time>
      </trkpt>
      <trkpt lat="49.86403" lon="2.07601">
        <ele>120.3</ele>
        <time>2023-01-11T14:32:02Z</time>
      </trkpt>
      <trkpt lat="49.86403" lon="2.076">
        <ele>120.4</ele>
        <time>2023-01-11T14:32:03Z</time>
      </trkpt>
      <trkpt lat="49.86403" lon="2.076">
        <ele>120.4</ele>
        <time>2023-01-11T14:32:05Z</time>
      </trkpt>
      <trkpt lat="49.86403" lon="2.076">
        <ele>120.4</ele>
        <time>2023-01-11T14:32:06Z</time>
      </trkpt>
      <trkpt lat="49.86402" lon="2.07599">
        <ele>120.4</ele>
        <time>2023-01-11T14:32:07Z</time>
      </trkpt>
      <trkpt lat="49.86402" lon="2.07598">
        <ele>120.4</ele>
        <time>2023-01-11T14:32:08Z</time>
      </trkpt>
      <trkpt lat="49.86402" lon="2.07598">
        <ele>120.5</ele>
        <time>2023-01-11T14:32:09Z</time>
      </trkpt>
      <trkpt lat="49.86402" lon="2.07598">
        <ele>120.5</ele>
        <time>2023-01-11T14:32:10Z</time>
      </trkpt>
      <trkpt lat="49.86402" lon="2.07598">
        <ele>120.5</ele>
        <time>2023-01-11T14:32:11Z</time>
      </trkpt>
      <trkpt lat="49.86402" lon="2.07598">
        <ele>120.5</ele>
        <time>2023-01-11T14:32:12Z</time>
      </trkpt>
      <trkpt lat="49.86402" lon="2.07598">
        <ele>120.5</ele>
        <time>2023-01-11T14:32:13Z</time>
      </trkpt>
      <trkpt lat="49.86402" lon="2.07598">
        <ele>120.5</ele>
        <time>2023-01-11T14:32:14Z</time>
      </trkpt>
      <trkpt lat="49.86402" lon="2.07598">
        <ele>120.5</ele>
        <time>2023-01-11T14:32:15Z</time>
      </trkpt>
      <trkpt lat="49.86402" lon="2.07598">
        <ele>120.5</ele>
        <time>2023-01-11T14:32:16Z</time>
      </trkpt>
      <trkpt lat="49.86402" lon="2.07598">
        <ele>120.5</ele>
        <time>2023-01-11T14:32:17Z</time>
      </trkpt>
      <trkpt lat="49.86402" lon="2.07598">
        <ele>120.5</ele>
        <time>2023-01-11T14:32:18Z</time>
      </trkpt>
      <trkpt lat="49.86402" lon="2.07598">
        <ele>120.5</ele>
        <time>2023-01-11T14:32:19Z</time>
      </trkpt>
      <trkpt lat="49.86402" lon="2.07598">
        <ele>120.5</ele>
        <time>2023-01-11T14:32:20Z</time>
      </trkpt>
      <trkpt lat="49.86402" lon="2.07598">
        <ele>120.5</ele>
        <time>2023-01-11T14:32:21Z</time>
      </trkpt>
      <trkpt lat="49.86402" lon="2.07598">
        <ele>120.5</ele>
        <time>2023-01-11T14:32:22Z</time>
      </trkpt>
      <trkpt lat="49.86402" lon="2.07598">
        <ele>120.5</ele>
        <time>2023-01-11T14:32:23Z</time>
      </trkpt>
      <trkpt lat="49.86402" lon="2.07598">
        <ele>120.5</ele>
        <time>2023-01-11T14:32:24Z</time>
      </trkpt>
      <trkpt lat="49.86402" lon="2.07598">
        <ele>120.5</ele>
        <time>2023-01-11T14:32:25Z</time>
      </trkpt>
      <trkpt lat="49.86402" lon="2.07598">
        <ele>120.5</ele>
        <time>2023-01-11T14:32:26Z</time>
      </trkpt>
      <trkpt lat="49.86402" lon="2.07598">
        <ele>120.5</ele>
        <time>2023-01-11T14:32:27Z</time>
      </trkpt>
      <trkpt lat="49.86402" lon="2.07598">
        <ele>120.5</ele>
        <time>2023-01-11T14:32:28Z</time>
      </trkpt>
      <trkpt lat="49.86402" lon="2.07598">
        <ele>120.6</ele>
        <time>2023-01-11T14:32:29Z</time>
      </trkpt>
      <trkpt lat="49.86402" lon="2.07598">
        <ele>120.6</ele>
        <time>2023-01-11T14:32:30Z</time>
      </trkpt>
      <trkpt lat="49.86402" lon="2.07598">
        <ele>120.6</ele>
        <time>2023-01-11T14:32:31Z</time>
      </trkpt>
      <trkpt lat="49.86402" lon="2.07598">
        <ele>120.6</ele>
        <time>2023-01-11T14:32:32Z</time>
      </trkpt>
      <trkpt lat="49.86402" lon="2.07598">
        <ele>120.6</ele>
        <time>2023-01-11T14:32:33Z</time>
      </trkpt>
      <trkpt lat="49.86402" lon="2.07598">
        <ele>120.6</ele>
        <time>2023-01-11T14:32:34Z</time>
      </trkpt>
      <trkpt lat="49.86402" lon="2.07598">
        <ele>120.6</ele>
        <time>2023-01-11T14:32:35Z</time>
      </trkpt>
      <trkpt lat="49.86402" lon="2.07598">
        <ele>120.6</ele>
        <time>2023-01-11T14:32:36Z</time>
      </trkpt>
      <trkpt lat="49.86402" lon="2.07598">
        <ele>120.6</ele>
        <time>2023-01-11T14:32:37Z</time>
      </trkpt>
      <trkpt lat="49.86402" lon="2.07598">
        <ele>120.6</ele>
        <time>2023-01-11T14:32:38Z</time>
      </trkpt>
      <trkpt lat="49.86402" lon="2.07598">
        <ele>120.6</ele>
        <time>2023-01-11T14:32:39Z</time>
      </trkpt>
      <trkpt lat="49.86402" lon="2.07598">
        <ele>120.6</ele>
        <time>2023-01-11T14:32:40Z</time>
      </trkpt>
      <trkpt lat="49.86402" lon="2.07598">
        <ele>120.6</ele>
        <time>2023-01-11T14:32:41Z</time>
      </trkpt>
      <trkpt lat="49.86402" lon="2.07598">
        <ele>120.6</ele>
        <time>2023-01-11T14:32:42Z</time>
      </trkpt>
      <trkpt lat="49.86402" lon="2.07598">
        <ele>120.6</ele>
        <time>2023-01-11T14:32:43Z</time>
      </trkpt>
      <trkpt lat="49.86402" lon="2.07598">
        <ele>120.6</ele>
        <time>2023-01-11T14:32:44Z</time>
      </trkpt>
      <trkpt lat="49.86402" lon="2.07598">
        <ele>120.6</ele>
        <time>2023-01-11T14:32:45Z</time>
      </trkpt>
      <trkpt lat="49.86402" lon="2.07598">
        <ele>120.6</ele>
        <time>2023-01-11T14:32:46Z</time>
      </trkpt>
      <trkpt lat="49.86402" lon="2.07598">
        <ele>120.6</ele>
        <time>2023-01-11T14:32:47Z</time>
      </trkpt>
      <trkpt lat="49.86402" lon="2.07598">
        <ele>120.6</ele>
        <time>2023-01-11T14:32:48Z</time>
      </trkpt>
      <trkpt lat="49.86402" lon="2.07598">
        <ele>120.7</ele>
        <time>2023-01-11T14:32:49Z</time>
      </trkpt>
      <trkpt lat="49.86402" lon="2.07598">
        <ele>120.7</ele>
        <time>2023-01-11T14:32:50Z</time>
      </trkpt>
      <trkpt lat="49.86402" lon="2.07598">
        <ele>120.7</ele>
        <time>2023-01-11T14:32:51Z</time>
      </trkpt>
      <trkpt lat="49.86402" lon="2.07598">
        <ele>120.7</ele>
        <time>2023-01-11T14:32:52Z</time>
      </trkpt>
      <trkpt lat="49.86402" lon="2.07598">
        <ele>120.7</ele>
        <time>2023-01-11T14:32:53Z</time>
      </trkpt>
      <trkpt lat="49.86402" lon="2.07598">
        <ele>120.7</ele>
        <time>2023-01-11T14:32:54Z</time>
      </trkpt>
      <trkpt lat="49.86402" lon="2.07598">
        <ele>120.7</ele>
        <time>2023-01-11T14:32:55Z</time>
      </trkpt>
      <trkpt lat="49.86402" lon="2.07598">
        <ele>120.7</ele>
        <time>2023-01-11T14:32:56Z</time>
      </trkpt>
      <trkpt lat="49.86402" lon="2.07598">
        <ele>120.7</ele>
        <time>2023-01-11T14:32:57Z</time>
      </trkpt>
      <trkpt lat="49.86402" lon="2.07598">
        <ele>120.7</ele>
        <time>2023-01-11T14:32:58Z</time>
      </trkpt>
      <trkpt lat="49.86402" lon="2.07598">
        <ele>120.7</ele>
        <time>2023-01-11T14:32:59Z</time>
      </trkpt>
      <trkpt lat="49.86402" lon="2.07598">
        <ele>120.7</ele>
        <time>2023-01-11T14:33:00Z</time>
      </trkpt>
      <trkpt lat="49.86402" lon="2.07598">
        <ele>120.7</ele>
        <time>2023-01-11T14:33:01Z</time>
      </trkpt>
      <trkpt lat="49.86402" lon="2.07598">
        <ele>120.7</ele>
        <time>2023-01-11T14:33:02Z</time>
      </trkpt>
      <trkpt lat="49.86402" lon="2.07598">
        <ele>120.7</ele>
        <time>2023-01-11T14:33:03Z</time>
      </trkpt>
      <trkpt lat="49.86402" lon="2.07598">
        <ele>120.7</ele>
        <time>2023-01-11T14:33:04Z</time>
      </trkpt>
      <trkpt lat="49.86402" lon="2.07598">
        <ele>120.7</ele>
        <time>2023-01-11T14:33:05Z</time>
      </trkpt>
      <trkpt lat="49.86402" lon="2.07598">
        <ele>120.7</ele>
        <time>2023-01-11T14:33:06Z</time>
      </trkpt>
      <trkpt lat="49.86402" lon="2.07598">
        <ele>120.7</ele>
        <time>2023-01-11T14:33:07Z</time>
      </trkpt>
      <trkpt lat="49.86402" lon="2.07598">
        <ele>120.7</ele>
        <time>2023-01-11T14:33:08Z</time>
      </trkpt>
      <trkpt lat="49.86402" lon="2.07598">
        <ele>120.8</ele>
        <time>2023-01-11T14:33:09Z</time>
      </trkpt>
      <trkpt lat="49.86402" lon="2.07598">
        <ele>120.8</ele>
        <time>2023-01-11T14:33:10Z</time>
      </trkpt>
      <trkpt lat="49.86402" lon="2.07598">
        <ele>120.8</ele>
        <time>2023-01-11T14:33:11Z</time>
      </trkpt>
      <trkpt lat="49.86402" lon="2.07598">
        <ele>120.8</ele>
        <time>2023-01-11T14:33:12Z</time>
      </trkpt>
      <trkpt lat="49.86402" lon="2.07598">
        <ele>120.8</ele>
        <time>2023-01-11T14:33:13Z</time>
      </trkpt>
      <trkpt lat="49.86402" lon="2.07598">
        <ele>120.8</ele>
        <time>2023-01-11T14:33:14Z</time>
      </trkpt>
      <trkpt lat="49.86402" lon="2.07598">
        <ele>120.8</ele>
        <time>2023-01-11T14:33:15Z</time>
      </trkpt>
      <trkpt lat="49.86402" lon="2.07598">
        <ele>120.8</ele>
        <time>2023-01-11T14:33:16Z</time>
      </trkpt>
      <trkpt lat="49.86402" lon="2.07598">
        <ele>120.8</ele>
        <time>2023-01-11T14:33:17Z</time>
      </trkpt>
      <trkpt lat="49.86402" lon="2.07598">
        <ele>120.8</ele>
        <time>2023-01-11T14:33:18Z</time>
      </trkpt>
      <trkpt lat="49.86402" lon="2.07598">
        <ele>120.8</ele>
        <time>2023-01-11T14:33:19Z</time>
      </trkpt>
      <trkpt lat="49.86402" lon="2.07598">
        <ele>120.8</ele>
        <time>2023-01-11T14:33:20Z</time>
      </trkpt>
      <trkpt lat="49.86402" lon="2.07598">
        <ele>120.8</ele>
        <time>2023-01-11T14:33:21Z</time>
      </trkpt>
      <trkpt lat="49.86402" lon="2.07598">
        <ele>120.8</ele>
        <time>2023-01-11T14:33:22Z</time>
      </trkpt>
      <trkpt lat="49.86402" lon="2.07598">
        <ele>120.8</ele>
        <time>2023-01-11T14:33:23Z</time>
      </trkpt>
      <trkpt lat="49.86402" lon="2.07598">
        <ele>120.8</ele>
        <time>2023-01-11T14:33:24Z</time>
      </trkpt>
      <trkpt lat="49.86402" lon="2.07598">
        <ele>120.8</ele>
        <time>2023-01-11T14:33:25Z</time>
      </trkpt>
      <trkpt lat="49.86402" lon="2.07598">
        <ele>120.8</ele>
        <time>2023-01-11T14:33:26Z</time>
      </trkpt>
      <trkpt lat="49.86402" lon="2.07598">
        <ele>120.8</ele>
        <time>2023-01-11T14:33:27Z</time>
      </trkpt>
      <trkpt lat="49.86402" lon="2.07598">
        <ele>120.8</ele>
        <time>2023-01-11T14:33:28Z</time>
      </trkpt>
      <trkpt lat="49.86402" lon="2.07598">
        <ele>120.8</ele>
        <time>2023-01-11T14:33:29Z</time>
      </trkpt>
      <trkpt lat="49.86402" lon="2.07598">
        <ele>120.8</ele>
        <time>2023-01-11T14:33:30Z</time>
      </trkpt>
      <trkpt lat="49.86402" lon="2.07598">
        <ele>120.8</ele>
        <time>2023-01-11T14:33:31Z</time>
      </trkpt>
      <trkpt lat="49.86402" lon="2.07598">
        <ele>120.8</ele>
        <time>2023-01-11T14:33:32Z</time>
      </trkpt>
      <trkpt lat="49.86402" lon="2.07598">
        <ele>120.8</ele>
        <time>2023-01-11T14:33:33Z</time>
      </trkpt>
      <trkpt lat="49.86402" lon="2.07598">
        <ele>120.8</ele>
        <time>2023-01-11T14:33:34Z</time>
      </trkpt>
      <trkpt lat="49.86402" lon="2.07595">
        <ele>120.9</ele>
        <time>2023-01-11T14:33:35Z</time>
      </trkpt>
      <trkpt lat="49.86402" lon="2.07593">
        <ele>120.9</ele>
        <time>2023-01-11T14:33:36Z</time>
      </trkpt>
      <trkpt lat="49.86402" lon="2.07593">
        <ele>120.9</ele>
        <time>2023-01-11T14:33:37Z</time>
      </trkpt>
      <trkpt lat="49.86402" lon="2.07593">
        <ele>120.9</ele>
        <time>2023-01-11T14:33:38Z</time>
      </trkpt>
      <trkpt lat="49.86402" lon="2.07593">
        <ele>120.9</ele>
        <time>2023-01-11T14:33:39Z</time>
      </trkpt>
      <trkpt lat="49.86402" lon="2.07593">
        <ele>120.9</ele>
        <time>2023-01-11T14:33:40Z</time>
      </trkpt>
      <trkpt lat="49.86402" lon="2.07593">
        <ele>120.9</ele>
        <time>2023-01-11T14:33:41Z</time>
      </trkpt>
      <trkpt lat="49.86402" lon="2.07593">
        <ele>120.9</ele>
        <time>2023-01-11T14:33:42Z</time>
      </trkpt>
      <trkpt lat="49.86402" lon="2.07593">
        <ele>120.9</ele>
        <time>2023-01-11T14:33:43Z</time>
      </trkpt>
      <trkpt lat="49.86402" lon="2.07593">
        <ele>120.9</ele>
        <time>2023-01-11T14:33:44Z</time>
      </trkpt>
      <trkpt lat="49.86402" lon="2.07593">
        <ele>120.9</ele>
        <time>2023-01-11T14:33:45Z</time>
      </trkpt>
      <trkpt lat="49.86402" lon="2.07593">
        <ele>120.9</ele>
        <time>2023-01-11T14:33:46Z</time>
      </trkpt>
      <trkpt lat="49.86402" lon="2.07593">
        <ele>120.9</ele>
        <time>2023-01-11T14:33:47Z</time>
      </trkpt>
      <trkpt lat="49.86402" lon="2.07593">
        <ele>120.9</ele>
        <time>2023-01-11T14:33:48Z</time>
      </trkpt>
      <trkpt lat="49.86402" lon="2.07593">
        <ele>120.9</ele>
        <time>2023-01-11T14:33:49Z</time>
      </trkpt>
      <trkpt lat="49.86402" lon="2.07593">
        <ele>120.9</ele>
        <time>2023-01-11T14:33:50Z</time>
      </trkpt>
      <trkpt lat="49.86402" lon="2.07593">
        <ele>120.9</ele>
        <time>2023-01-11T14:33:51Z</time>
      </trkpt>
      <trkpt lat="49.86402" lon="2.07593">
        <ele>120.9</ele>
        <time>2023-01-11T14:33:52Z</time>
      </trkpt>
      <trkpt lat="49.86402" lon="2.07593">
        <ele>120.9</ele>
        <time>2023-01-11T14:33:53Z</time>
      </trkpt>
      <trkpt lat="49.86402" lon="2.07593">
        <ele>120.9</ele>
        <time>2023-01-11T14:33:54Z</time>
      </trkpt>
      <trkpt lat="49.86402" lon="2.07593">
        <ele>120.9</ele>
        <time>2023-01-11T14:33:55Z</time>
      </trkpt>
      <trkpt lat="49.86402" lon="2.07593">
        <ele>120.9</ele>
        <time>2023-01-11T14:33:56Z</time>
      </trkpt>
      <trkpt lat="49.86402" lon="2.07593">
        <ele>120.9</ele>
        <time>2023-01-11T14:33:57Z</time>
      </trkpt>
      <trkpt lat="49.86402" lon="2.07593">
        <ele>120.9</ele>
        <time>2023-01-11T14:33:58Z</time>
      </trkpt>
      <trkpt lat="49.86402" lon="2.07594">
        <ele>121</ele>
        <time>2023-01-11T14:33:59Z</time>
      </trkpt>
      <trkpt lat="49.86402" lon="2.07594">
        <ele>121</ele>
        <time>2023-01-11T14:34:00Z</time>
      </trkpt>
      <trkpt lat="49.86402" lon="2.07595">
        <ele>121</ele>
        <time>2023-01-11T14:34:01Z</time>
      </trkpt>
      <trkpt lat="49.86402" lon="2.07595">
        <ele>121</ele>
        <time>2023-01-11T14:34:02Z</time>
      </trkpt>
      <trkpt lat="49.86402" lon="2.07595">
        <ele>121</ele>
        <time>2023-01-11T14:34:03Z</time>
      </trkpt>
      <trkpt lat="49.86402" lon="2.07594">
        <ele>121</ele>
        <time>2023-01-11T14:34:04Z</time>
      </trkpt>
      <trkpt lat="49.86402" lon="2.07594">
        <ele>121</ele>
        <time>2023-01-11T14:34:05Z</time>
      </trkpt>
      <trkpt lat="49.86402" lon="2.07594">
        <ele>121</ele>
        <time>2023-01-11T14:34:06Z</time>
      </trkpt>
      <trkpt lat="49.86402" lon="2.07594">
        <ele>121</ele>
        <time>2023-01-11T14:34:07Z</time>
      </trkpt>
      <trkpt lat="49.86402" lon="2.07594">
        <ele>121</ele>
        <time>2023-01-11T14:34:08Z</time>
      </trkpt>
      <trkpt lat="49.86402" lon="2.07594">
        <ele>121</ele>
        <time>2023-01-11T14:34:09Z</time>
      </trkpt>
      <trkpt lat="49.86402" lon="2.07594">
        <ele>121</ele>
        <time>2023-01-11T14:34:10Z</time>
      </trkpt>
      <trkpt lat="49.86402" lon="2.07594">
        <ele>121</ele>
        <time>2023-01-11T14:34:11Z</time>
      </trkpt>
      <trkpt lat="49.86402" lon="2.07594">
        <ele>121</ele>
        <time>2023-01-11T14:34:12Z</time>
      </trkpt>
      <trkpt lat="49.86402" lon="2.07594">
        <ele>121</ele>
        <time>2023-01-11T14:34:13Z</time>
      </trkpt>
      <trkpt lat="49.86402" lon="2.07594">
        <ele>121</ele>
        <time>2023-01-11T14:34:14Z</time>
      </trkpt>
      <trkpt lat="49.86402" lon="2.07594">
        <ele>121</ele>
        <time>2023-01-11T14:34:15Z</time>
      </trkpt>
      <trkpt lat="49.86402" lon="2.07594">
        <ele>121</ele>
        <time>2023-01-11T14:34:16Z</time>
      </trkpt>
      <trkpt lat="49.86402" lon="2.07594">
        <ele>121</ele>
        <time>2023-01-11T14:34:17Z</time>
      </trkpt>
      <trkpt lat="49.86402" lon="2.07594">
        <ele>121</ele>
        <time>2023-01-11T14:34:18Z</time>
      </trkpt>
      <trkpt lat="49.86402" lon="2.07594">
        <ele>121</ele>
        <time>2023-01-11T14:34:19Z</time>
      </trkpt>
      <trkpt lat="49.86402" lon="2.07594">
        <ele>121</ele>
        <time>2023-01-11T14:34:20Z</time>
      </trkpt>
      <trkpt lat="49.86402" lon="2.07594">
        <ele>121</ele>
        <time>2023-01-11T14:34:21Z</time>
      </trkpt>
      <trkpt lat="49.86402" lon="2.07594">
        <ele>121</ele>
        <time>2023-01-11T14:34:22Z</time>
      </trkpt>
      <trkpt lat="49.86402" lon="2.07594">
        <ele>121</ele>
        <time>2023-01-11T14:34:23Z</time>
      </trkpt>
      <trkpt lat="49.86402" lon="2.07594">
        <ele>121</ele>
        <time>2023-01-11T14:34:24Z</time>
      </trkpt>
      <trkpt lat="49.86402" lon="2.07594">
        <ele>121</ele>
        <time>2023-01-11T14:34:25Z</time>
      </trkpt>
      <trkpt lat="49.86402" lon="2.07594">
        <ele>121</ele>
        <time>2023-01-11T14:34:26Z</time>
      </trkpt>
      <trkpt lat="49.86402" lon="2.07594">
        <ele>121</ele>
        <time>2023-01-11T14:34:27Z</time>
      </trkpt>
      <trkpt lat="49.86402" lon="2.07594">
        <ele>121</ele>
        <time>2023-01-11T14:34:28Z</time>
      </trkpt>
      <trkpt lat="49.86402" lon="2.07594">
        <ele>121</ele>
        <time>2023-01-11T14:34:29Z</time>
      </trkpt>
      <trkpt lat="49.86402" lon="2.07594">
        <ele>121</ele>
        <time>2023-01-11T14:34:30Z</time>
      </trkpt>
      <trkpt lat="49.86402" lon="2.07594">
        <ele>121</ele>
        <time>2023-01-11T14:34:31Z</time>
      </trkpt>
      <trkpt lat="49.86402" lon="2.07594">
        <ele>121</ele>
        <time>2023-01-11T14:34:32Z</time>
      </trkpt>
      <trkpt lat="49.86402" lon="2.07594">
        <ele>121</ele>
        <time>2023-01-11T14:34:33Z</time>
      </trkpt>
      <trkpt lat="49.86402" lon="2.07594">
        <ele>121</ele>
        <time>2023-01-11T14:34:34Z</time>
      </trkpt>
      <trkpt lat="49.86402" lon="2.07594">
        <ele>121</ele>
        <time>2023-01-11T14:34:35Z</time>
      </trkpt>
      <trkpt lat="49.86402" lon="2.07595">
        <ele>121</ele>
        <time>2023-01-11T14:34:37Z</time>
      </trkpt>
      <trkpt lat="49.86402" lon="2.07595">
        <ele>121</ele>
        <time>2023-01-11T14:34:39Z</time>
      </trkpt>
      <trkpt lat="49.86402" lon="2.07595">
        <ele>121</ele>
        <time>2023-01-11T14:34:40Z</time>
      </trkpt>
      <trkpt lat="49.86402" lon="2.07595">
        <ele>121</ele>
        <time>2023-01-11T14:34:41Z</time>
      </trkpt>
      <trkpt lat="49.86402" lon="2.07595">
        <ele>121</ele>
        <time>2023-01-11T14:34:43Z</time>
      </trkpt>
      <trkpt lat="49.86402" lon="2.07595">
        <ele>121</ele>
        <time>2023-01-11T14:34:44Z</time>
      </trkpt>
      <trkpt lat="49.86402" lon="2.07595">
        <ele>121</ele>
        <time>2023-01-11T14:34:46Z</time>
      </trkpt>
      <trkpt lat="49.86402" lon="2.07595">
        <ele>121</ele>
        <time>2023-01-11T14:34:47Z</time>
      </trkpt>
      <trkpt lat="49.86402" lon="2.07595">
        <ele>121</ele>
        <time>2023-01-11T14:34:49Z</time>
      </trkpt>
      <trkpt lat="49.86402" lon="2.07595">
        <ele>121</ele>
        <time>2023-01-11T14:34:50Z</time>
      </trkpt>
      <trkpt lat="49.86402" lon="2.07594">
        <ele>121</ele>
        <time>2023-01-11T14:34:51Z</time>
      </trkpt>
      <trkpt lat="49.86402" lon="2.07594">
        <ele>121</ele>
        <time>2023-01-11T14:34:52Z</time>
      </trkpt>
      <trkpt lat="49.86402" lon="2.07594">
        <ele>121</ele>
        <time>2023-01-11T14:34:54Z</time>
      </trkpt>
      <trkpt lat="49.86402" lon="2.07594">
        <ele>121</ele>
        <time>2023-01-11T14:34:56Z</time>
      </trkpt>
      <trkpt lat="49.86402" lon="2.07593">
        <ele>121</ele>
        <time>2023-01-11T14:34:57Z</time>
      </trkpt>
      <trkpt lat="49.86402" lon="2.07594">
        <ele>121.1</ele>
        <time>2023-01-11T14:34:58Z</time>
      </trkpt>
      <trkpt lat="49.86402" lon="2.07594">
        <ele>121.1</ele>
        <time>2023-01-11T14:34:59Z</time>
      </trkpt>
      <trkpt lat="49.86402" lon="2.07594">
        <ele>121.1</ele>
        <time>2023-01-11T14:35:00Z</time>
      </trkpt>
      <trkpt lat="49.86402" lon="2.07594">
        <ele>121.1</ele>
        <time>2023-01-11T14:35:01Z</time>
      </trkpt>
      <trkpt lat="49.86402" lon="2.07594">
        <ele>121.1</ele>
        <time>2023-01-11T14:35:02Z</time>
      </trkpt>
      <trkpt lat="49.86402" lon="2.07594">
        <ele>121.1</ele>
        <time>2023-01-11T14:35:03Z</time>
      </trkpt>
      <trkpt lat="49.86402" lon="2.07594">
        <ele>121.1</ele>
        <time>2023-01-11T14:35:04Z</time>
      </trkpt>
      <trkpt lat="49.86402" lon="2.07594">
        <ele>121.1</ele>
        <time>2023-01-11T14:35:05Z</time>
      </trkpt>
      <trkpt lat="49.86402" lon="2.07594">
        <ele>121.1</ele>
        <time>2023-01-11T14:35:06Z</time>
      </trkpt>
      <trkpt lat="49.86402" lon="2.07594">
        <ele>121.1</ele>
        <time>2023-01-11T14:35:07Z</time>
      </trkpt>
      <trkpt lat="49.86402" lon="2.07594">
        <ele>121.1</ele>
        <time>2023-01-11T14:35:08Z</time>
      </trkpt>
      <trkpt lat="49.86402" lon="2.07594">
        <ele>121.1</ele>
        <time>2023-01-11T14:35:09Z</time>
      </trkpt>
      <trkpt lat="49.86402" lon="2.07594">
        <ele>121.1</ele>
        <time>2023-01-11T14:35:10Z</time>
      </trkpt>
      <trkpt lat="49.86402" lon="2.07594">
        <ele>121.1</ele>
        <time>2023-01-11T14:35:11Z</time>
      </trkpt>
      <trkpt lat="49.86402" lon="2.07594">
        <ele>121.1</ele>
        <time>2023-01-11T14:35:12Z</time>
      </trkpt>
      <trkpt lat="49.86402" lon="2.07594">
        <ele>121.1</ele>
        <time>2023-01-11T14:35:13Z</time>
      </trkpt>
      <trkpt lat="49.86402" lon="2.07594">
        <ele>121.1</ele>
        <time>2023-01-11T14:35:14Z</time>
      </trkpt>
      <trkpt lat="49.86402" lon="2.07594">
        <ele>121.1</ele>
        <time>2023-01-11T14:35:15Z</time>
      </trkpt>
      <trkpt lat="49.86402" lon="2.07594">
        <ele>121.1</ele>
        <time>2023-01-11T14:35:16Z</time>
      </trkpt>
      <trkpt lat="49.86402" lon="2.07594">
        <ele>121.1</ele>
        <time>2023-01-11T14:35:17Z</time>
      </trkpt>
      <trkpt lat="49.86402" lon="2.07594">
        <ele>121.1</ele>
        <time>2023-01-11T14:35:18Z</time>
      </trkpt>
      <trkpt lat="49.86402" lon="2.07594">
        <ele>121.1</ele>
        <time>2023-01-11T14:35:19Z</time>
      </trkpt>
      <trkpt lat="49.86402" lon="2.07594">
        <ele>121.1</ele>
        <time>2023-01-11T14:35:20Z</time>
      </trkpt>
      <trkpt lat="49.86402" lon="2.07594">
        <ele>121.1</ele>
        <time>2023-01-11T14:35:21Z</time>
      </trkpt>
      <trkpt lat="49.86402" lon="2.07594">
        <ele>121.1</ele>
        <time>2023-01-11T14:35:22Z</time>
      </trkpt>
      <trkpt lat="49.86402" lon="2.07594">
        <ele>121.1</ele>
        <time>2023-01-11T14:35:23Z</time>
      </trkpt>
      <trkpt lat="49.86402" lon="2.07594">
        <ele>121.1</ele>
        <time>2023-01-11T14:35:24Z</time>
      </trkpt>
      <trkpt lat="49.86402" lon="2.07594">
        <ele>121.1</ele>
        <time>2023-01-11T14:35:25Z</time>
      </trkpt>
      <trkpt lat="49.86402" lon="2.07595">
        <ele>121.1</ele>
        <time>2023-01-11T14:35:26Z</time>
      </trkpt>
      <trkpt lat="49.86401" lon="2.07596">
        <ele>121.1</ele>
        <time>2023-01-11T14:35:27Z</time>
      </trkpt>
      <trkpt lat="49.86401" lon="2.07596">
        <ele>121.1</ele>
        <time>2023-01-11T14:35:28Z</time>
      </trkpt>
      <trkpt lat="49.86401" lon="2.07596">
        <ele>121.1</ele>
        <time>2023-01-11T14:35:29Z</time>
      </trkpt>
      <trkpt lat="49.86401" lon="2.07596">
        <ele>121.1</ele>
        <time>2023-01-11T14:35:30Z</time>
      </trkpt>
      <trkpt lat="49.86401" lon="2.07596">
        <ele>121.1</ele>
        <time>2023-01-11T14:35:31Z</time>
      </trkpt>
      <trkpt lat="49.86401" lon="2.07597">
        <ele>121.1</ele>
        <time>2023-01-11T14:35:32Z</time>
      </trkpt>
      <trkpt lat="49.86401" lon="2.07597">
        <ele>121.1</ele>
        <time>2023-01-11T14:35:33Z</time>
      </trkpt>
      <trkpt lat="49.86401" lon="2.07597">
        <ele>121.1</ele>
        <time>2023-01-11T14:35:34Z</time>
      </trkpt>
      <trkpt lat="49.864" lon="2.07599">
        <ele>121.2</ele>
        <time>2023-01-11T14:35:36Z</time>
      </trkpt>
      <trkpt lat="49.86401" lon="2.07601">
        <ele>121.2</ele>
        <time>2023-01-11T14:35:37Z</time>
      </trkpt>
      <trkpt lat="49.86401" lon="2.07602">
        <ele>121.2</ele>
        <time>2023-01-11T14:35:39Z</time>
      </trkpt>
      <trkpt lat="49.86402" lon="2.07603">
        <ele>121.2</ele>
        <time>2023-01-11T14:35:40Z</time>
      </trkpt>
      <trkpt lat="49.86402" lon="2.07603">
        <ele>121.2</ele>
        <time>2023-01-11T14:35:41Z</time>
      </trkpt>
      <trkpt lat="49.86402" lon="2.07605">
        <ele>121.2</ele>
        <time>2023-01-11T14:35:43Z</time>
      </trkpt>
      <trkpt lat="49.86401" lon="2.07605">
        <ele>121.3</ele>
        <time>2023-01-11T14:35:44Z</time>
      </trkpt>
      <trkpt lat="49.86401" lon="2.07606">
        <ele>121.3</ele>
        <time>2023-01-11T14:35:45Z</time>
      </trkpt>
      <trkpt lat="49.864" lon="2.07607">
        <ele>121.3</ele>
        <time>2023-01-11T14:35:46Z</time>
      </trkpt>
      <trkpt lat="49.86399" lon="2.07609">
        <ele>121.3</ele>
        <time>2023-01-11T14:35:48Z</time>
      </trkpt>
      <trkpt lat="49.86399" lon="2.07609">
        <ele>121.3</ele>
        <time>2023-01-11T14:35:49Z</time>
      </trkpt>
      <trkpt lat="49.86398" lon="2.07611">
        <ele>121.4</ele>
        <time>2023-01-11T14:35:50Z</time>
      </trkpt>
      <trkpt lat="49.86398" lon="2.07611">
        <ele>121.4</ele>
        <time>2023-01-11T14:35:51Z</time>
      </trkpt>
      <trkpt lat="49.86397" lon="2.07612">
        <ele>121.4</ele>
        <time>2023-01-11T14:35:52Z</time>
      </trkpt>
      <trkpt lat="49.86396" lon="2.07612">
        <ele>121.4</ele>
        <time>2023-01-11T14:35:54Z</time>
      </trkpt>
      <trkpt lat="49.86396" lon="2.07613">
        <ele>121.4</ele>
        <time>2023-01-11T14:35:55Z</time>
      </trkpt>
      <trkpt lat="49.86396" lon="2.07614">
        <ele>121.4</ele>
        <time>2023-01-11T14:35:56Z</time>
      </trkpt>
      <trkpt lat="49.86395" lon="2.07615">
        <ele>121.5</ele>
        <time>2023-01-11T14:35:57Z</time>
      </trkpt>
      <trkpt lat="49.86395" lon="2.07615">
        <ele>121.5</ele>
        <time>2023-01-11T14:35:58Z</time>
      </trkpt>
      <trkpt lat="49.86395" lon="2.07616">
        <ele>121.5</ele>
        <time>2023-01-11T14:35:59Z</time>
      </trkpt>
      <trkpt lat="49.86394" lon="2.07618">
        <ele>121.5</ele>
        <time>2023-01-11T14:36:01Z</time>
      </trkpt>
      <trkpt lat="49.86393" lon="2.0762">
        <ele>121.5</ele>
        <time>2023-01-11T14:36:02Z</time>
      </trkpt>
      <trkpt lat="49.86393" lon="2.07621">
        <ele>121.6</ele>
        <time>2023-01-11T14:36:03Z</time>
      </trkpt>
      <trkpt lat="49.86392" lon="2.07622">
        <ele>121.6</ele>
        <time>2023-01-11T14:36:04Z</time>
      </trkpt>
      <trkpt lat="49.86391" lon="2.07623">
        <ele>121.6</ele>
        <time>2023-01-11T14:36:05Z</time>
      </trkpt>
      <trkpt lat="49.8639" lon="2.07626">
        <ele>121.7</ele>
        <time>2023-01-11T14:36:07Z</time>
      </trkpt>
      <trkpt lat="49.86389" lon="2.07628">
        <ele>121.7</ele>
        <time>2023-01-11T14:36:08Z</time>
      </trkpt>
      <trkpt lat="49.86389" lon="2.07629">
        <ele>121.7</ele>
        <time>2023-01-11T14:36:09Z</time>
      </trkpt>
      <trkpt lat="49.86388" lon="2.0763">
        <ele>121.7</ele>
        <time>2023-01-11T14:36:10Z</time>
      </trkpt>
      <trkpt lat="49.86388" lon="2.07632">
        <ele>121.8</ele>
        <time>2023-01-11T14:36:11Z</time>
      </trkpt>
      <trkpt lat="49.86387" lon="2.07633">
        <ele>121.8</ele>
        <time>2023-01-11T14:36:13Z</time>
      </trkpt>
      <trkpt lat="49.86387" lon="2.07635">
        <ele>121.8</ele>
        <time>2023-01-11T14:36:14Z</time>
      </trkpt>
      <trkpt lat="49.86386" lon="2.07637">
        <ele>121.8</ele>
        <time>2023-01-11T14:36:15Z</time>
      </trkpt>
      <trkpt lat="49.86386" lon="2.07639">
        <ele>121.9</ele>
        <time>2023-01-11T14:36:16Z</time>
      </trkpt>
      <trkpt lat="49.86386" lon="2.07642">
        <ele>121.9</ele>
        <time>2023-01-11T14:36:17Z</time>
      </trkpt>
      <trkpt lat="49.86385" lon="2.07646">
        <ele>122</ele>
        <time>2023-01-11T14:36:19Z</time>
      </trkpt>
      <trkpt lat="49.86384" lon="2.07647">
        <ele>122</ele>
        <time>2023-01-11T14:36:20Z</time>
      </trkpt>
      <trkpt lat="49.86384" lon="2.07649">
        <ele>122</ele>
        <time>2023-01-11T14:36:22Z</time>
      </trkpt>
      <trkpt lat="49.86383" lon="2.07651">
        <ele>122</ele>
        <time>2023-01-11T14:36:23Z</time>
      </trkpt>
      <trkpt lat="49.86382" lon="2.07652">
        <ele>122</ele>
        <time>2023-01-11T14:36:24Z</time>
      </trkpt>
      <trkpt lat="49.86381" lon="2.07654">
        <ele>122.1</ele>
        <time>2023-01-11T14:36:25Z</time>
      </trkpt>
      <trkpt lat="49.86381" lon="2.07656">
        <ele>122.1</ele>
        <time>2023-01-11T14:36:26Z</time>
      </trkpt>
      <trkpt lat="49.8638" lon="2.07658">
        <ele>122.1</ele>
        <time>2023-01-11T14:36:28Z</time>
      </trkpt>
      <trkpt lat="49.8638" lon="2.0766">
        <ele>122.1</ele>
        <time>2023-01-11T14:36:29Z</time>
      </trkpt>
      <trkpt lat="49.86379" lon="2.07662">
        <ele>122.2</ele>
        <time>2023-01-11T14:36:30Z</time>
      </trkpt>
      <trkpt lat="49.86378" lon="2.07664">
        <ele>122.2</ele>
        <time>2023-01-11T14:36:31Z</time>
      </trkpt>
      <trkpt lat="49.86377" lon="2.07665">
        <ele>122.2</ele>
        <time>2023-01-11T14:36:32Z</time>
      </trkpt>
      <trkpt lat="49.86377" lon="2.07666">
        <ele>122.2</ele>
        <time>2023-01-11T14:36:33Z</time>
      </trkpt>
      <trkpt lat="49.86376" lon="2.07669">
        <ele>122.3</ele>
        <time>2023-01-11T14:36:35Z</time>
      </trkpt>
      <trkpt lat="49.86375" lon="2.0767">
        <ele>122.3</ele>
        <time>2023-01-11T14:36:36Z</time>
      </trkpt>
      <trkpt lat="49.86375" lon="2.07671">
        <ele>122.3</ele>
        <time>2023-01-11T14:36:37Z</time>
      </trkpt>
      <trkpt lat="49.86374" lon="2.07672">
        <ele>122.3</ele>
        <time>2023-01-11T14:36:38Z</time>
      </trkpt>
      <trkpt lat="49.86374" lon="2.07673">
        <ele>122.3</ele>
        <time>2023-01-11T14:36:39Z</time>
      </trkpt>
      <trkpt lat="49.86373" lon="2.07675">
        <ele>122.3</ele>
        <time>2023-01-11T14:36:41Z</time>
      </trkpt>
      <trkpt lat="49.86373" lon="2.07677">
        <ele>122.4</ele>
        <time>2023-01-11T14:36:42Z</time>
      </trkpt>
      <trkpt lat="49.86372" lon="2.07678">
        <ele>122.4</ele>
        <time>2023-01-11T14:36:43Z</time>
      </trkpt>
      <trkpt lat="49.86372" lon="2.0768">
        <ele>122.4</ele>
        <time>2023-01-11T14:36:44Z</time>
      </trkpt>
      <trkpt lat="49.86371" lon="2.07681">
        <ele>122.4</ele>
        <time>2023-01-11T14:36:45Z</time>
      </trkpt>
      <trkpt lat="49.86371" lon="2.07682">
        <ele>122.4</ele>
        <time>2023-01-11T14:36:46Z</time>
      </trkpt>
      <trkpt lat="49.8637" lon="2.07684">
        <ele>122.4</ele>
        <time>2023-01-11T14:36:47Z</time>
      </trkpt>
      <trkpt lat="49.8637" lon="2.07686">
        <ele>122.5</ele>
        <time>2023-01-11T14:36:49Z</time>
      </trkpt>
      <trkpt lat="49.86369" lon="2.07687">
        <ele>122.5</ele>
        <time>2023-01-11T14:36:50Z</time>
      </trkpt>
      <trkpt lat="49.86369" lon="2.07689">
        <ele>122.5</ele>
        <time>2023-01-11T14:36:51Z</time>
      </trkpt>
      <trkpt lat="49.86369" lon="2.07691">
        <ele>122.5</ele>
        <time>2023-01-11T14:36:52Z</time>
      </trkpt>
      <trkpt lat="49.86368" lon="2.07692">
        <ele>122.5</ele>
        <time>2023-01-11T14:36:53Z</time>
      </trkpt>
      <trkpt lat="49.86368" lon="2.07693">
        <ele>122.6</ele>
        <time>2023-01-11T14:36:54Z</time>
      </trkpt>
      <trkpt lat="49.86367" lon="2.07696">
        <ele>122.6</ele>
        <time>2023-01-11T14:36:56Z</time>
      </trkpt>
      <trkpt lat="49.86366" lon="2.07697">
        <ele>122.6</ele>
        <time>2023-01-11T14:36:57Z</time>
      </trkpt>
      <trkpt lat="49.86365" lon="2.07698">
        <ele>122.6</ele>
        <time>2023-01-11T14:36:58Z</time>
      </trkpt>
      <trkpt lat="49.86365" lon="2.07699">
        <ele>122.6</ele>
        <time>2023-01-11T14:36:59Z</time>
      </trkpt>
      <trkpt lat="49.86365" lon="2.07701">
        <ele>122.6</ele>
        <time>2023-01-11T14:37:00Z</time>
      </trkpt>
      <trkpt lat="49.86364" lon="2.07703">
        <ele>122.6</ele>
        <time>2023-01-11T14:37:01Z</time>
      </trkpt>
      <trkpt lat="49.86363" lon="2.07705">
        <ele>122.7</ele>
        <time>2023-01-11T14:37:03Z</time>
      </trkpt>
      <trkpt lat="49.86362" lon="2.07706">
        <ele>122.7</ele>
        <time>2023-01-11T14:37:04Z</time>
      </trkpt>
      <trkpt lat="49.86361" lon="2.07709">
        <ele>122.7</ele>
        <time>2023-01-11T14:37:05Z</time>
      </trkpt>
      <trkpt lat="49.86361" lon="2.07711">
        <ele>122.7</ele>
        <time>2023-01-11T14:37:06Z</time>
      </trkpt>
      <trkpt lat="49.8636" lon="2.07712">
        <ele>122.7</ele>
        <time>2023-01-11T14:37:07Z</time>
      </trkpt>
      <trkpt lat="49.8636" lon="2.07713">
        <ele>122.7</ele>
        <time>2023-01-11T14:37:09Z</time>
      </trkpt>
      <trkpt lat="49.86359" lon="2.07715">
        <ele>122.7</ele>
        <time>2023-01-11T14:37:10Z</time>
      </trkpt>
      <trkpt lat="49.86359" lon="2.07717">
        <ele>122.7</ele>
        <time>2023-01-11T14:37:11Z</time>
      </trkpt>
      <trkpt lat="49.86358" lon="2.07718">
        <ele>122.7</ele>
        <time>2023-01-11T14:37:12Z</time>
      </trkpt>
      <trkpt lat="49.86357" lon="2.0772">
        <ele>122.7</ele>
        <time>2023-01-11T14:37:13Z</time>
      </trkpt>
      <trkpt lat="49.86356" lon="2.07721">
        <ele>122.7</ele>
        <time>2023-01-11T14:37:14Z</time>
      </trkpt>
      <trkpt lat="49.86355" lon="2.07723">
        <ele>122.8</ele>
        <time>2023-01-11T14:37:16Z</time>
      </trkpt>
      <trkpt lat="49.86354" lon="2.07724">
        <ele>122.8</ele>
        <time>2023-01-11T14:37:17Z</time>
      </trkpt>
      <trkpt lat="49.86353" lon="2.07725">
        <ele>122.8</ele>
        <time>2023-01-11T14:37:18Z</time>
      </trkpt>
      <trkpt lat="49.86353" lon="2.07726">
        <ele>122.8</ele>
        <time>2023-01-11T14:37:19Z</time>
      </trkpt>
      <trkpt lat="49.86352" lon="2.07727">
        <ele>122.8</ele>
        <time>2023-01-11T14:37:20Z</time>
      </trkpt>
      <trkpt lat="49.86351" lon="2.07728">
        <ele>122.8</ele>
        <time>2023-01-11T14:37:21Z</time>
      </trkpt>
      <trkpt lat="49.8635" lon="2.07731">
        <ele>122.8</ele>
        <time>2023-01-11T14:37:22Z</time>
      </trkpt>
      <trkpt lat="49.86349" lon="2.07732">
        <ele>122.8</ele>
        <time>2023-01-11T14:37:24Z</time>
      </trkpt>
      <trkpt lat="49.86349" lon="2.07733">
        <ele>122.8</ele>
        <time>2023-01-11T14:37:25Z</time>
      </trkpt>
      <trkpt lat="49.86348" lon="2.07736">
        <ele>122.8</ele>
        <time>2023-01-11T14:37:26Z</time>
      </trkpt>
      <trkpt lat="49.86348" lon="2.07737">
        <ele>122.8</ele>
        <time>2023-01-11T14:37:27Z</time>
      </trkpt>
      <trkpt lat="49.86347" lon="2.07739">
        <ele>122.8</ele>
        <time>2023-01-11T14:37:28Z</time>
      </trkpt>
      <trkpt lat="49.86347" lon="2.0774">
        <ele>122.8</ele>
        <time>2023-01-11T14:37:29Z</time>
      </trkpt>
      <trkpt lat="49.86347" lon="2.07742">
        <ele>122.8</ele>
        <time>2023-01-11T14:37:30Z</time>
      </trkpt>
      <trkpt lat="49.86346" lon="2.07743">
        <ele>122.9</ele>
        <time>2023-01-11T14:37:31Z</time>
      </trkpt>
      <trkpt lat="49.86345" lon="2.07747">
        <ele>122.9</ele>
        <time>2023-01-11T14:37:33Z</time>
      </trkpt>
      <trkpt lat="49.86345" lon="2.07748">
        <ele>122.9</ele>
        <time>2023-01-11T14:37:34Z</time>
      </trkpt>
      <trkpt lat="49.86345" lon="2.07748">
        <ele>122.9</ele>
        <time>2023-01-11T14:37:35Z</time>
      </trkpt>
      <trkpt lat="49.86344" lon="2.0775">
        <ele>122.9</ele>
        <time>2023-01-11T14:37:36Z</time>
      </trkpt>
      <trkpt lat="49.86344" lon="2.07751">
        <ele>122.9</ele>
        <time>2023-01-11T14:37:37Z</time>
      </trkpt>
      <trkpt lat="49.86343" lon="2.07752">
        <ele>122.9</ele>
        <time>2023-01-11T14:37:38Z</time>
      </trkpt>
      <trkpt lat="49.86342" lon="2.07755">
        <ele>122.9</ele>
        <time>2023-01-11T14:37:40Z</time>
      </trkpt>
      <trkpt lat="49.86342" lon="2.07756">
        <ele>122.9</ele>
        <time>2023-01-11T14:37:41Z</time>
      </trkpt>
      <trkpt lat="49.86341" lon="2.07757">
        <ele>122.9</ele>
        <time>2023-01-11T14:37:42Z</time>
      </trkpt>
      <trkpt lat="49.86341" lon="2.07758">
        <ele>122.9</ele>
        <time>2023-01-11T14:37:43Z</time>
      </trkpt>
      <trkpt lat="49.86341" lon="2.07759">
        <ele>122.9</ele>
        <time>2023-01-11T14:37:44Z</time>
      </trkpt>
      <trkpt lat="49.86341" lon="2.0776">
        <ele>122.9</ele>
        <time>2023-01-11T14:37:45Z</time>
      </trkpt>
      <trkpt lat="49.86341" lon="2.07762">
        <ele>122.9</ele>
        <time>2023-01-11T14:37:46Z</time>
      </trkpt>
      <trkpt lat="49.8634" lon="2.07764">
        <ele>123</ele>
        <time>2023-01-11T14:37:48Z</time>
      </trkpt>
      <trkpt lat="49.8634" lon="2.07765">
        <ele>123</ele>
        <time>2023-01-11T14:37:49Z</time>
      </trkpt>
      <trkpt lat="49.86339" lon="2.07767">
        <ele>123</ele>
        <time>2023-01-11T14:37:50Z</time>
      </trkpt>
      <trkpt lat="49.86337" lon="2.07769">
        <ele>123</ele>
        <time>2023-01-11T14:37:51Z</time>
      </trkpt>
      <trkpt lat="49.86337" lon="2.0777">
        <ele>123</ele>
        <time>2023-01-11T14:37:52Z</time>
      </trkpt>
      <trkpt lat="49.86336" lon="2.07771">
        <ele>123</ele>
        <time>2023-01-11T14:37:53Z</time>
      </trkpt>
      <trkpt lat="49.86335" lon="2.07774">
        <ele>123</ele>
        <time>2023-01-11T14:37:55Z</time>
      </trkpt>
      <trkpt lat="49.86335" lon="2.07775">
        <ele>123</ele>
        <time>2023-01-11T14:37:56Z</time>
      </trkpt>
      <trkpt lat="49.86334" lon="2.07776">
        <ele>123</ele>
        <time>2023-01-11T14:37:57Z</time>
      </trkpt>
      <trkpt lat="49.86333" lon="2.07779">
        <ele>123</ele>
        <time>2023-01-11T14:37:58Z</time>
      </trkpt>
      <trkpt lat="49.86333" lon="2.0778">
        <ele>123</ele>
        <time>2023-01-11T14:37:59Z</time>
      </trkpt>
      <trkpt lat="49.86333" lon="2.07782">
        <ele>123</ele>
        <time>2023-01-11T14:38:01Z</time>
      </trkpt>
      <trkpt lat="49.86332" lon="2.07783">
        <ele>123</ele>
        <time>2023-01-11T14:38:02Z</time>
      </trkpt>
      <trkpt lat="49.86332" lon="2.07785">
        <ele>123</ele>
        <time>2023-01-11T14:38:03Z</time>
      </trkpt>
      <trkpt lat="49.86331" lon="2.07786">
        <ele>123</ele>
        <time>2023-01-11T14:38:04Z</time>
      </trkpt>
      <trkpt lat="49.86331" lon="2.07788">
        <ele>123</ele>
        <time>2023-01-11T14:38:05Z</time>
      </trkpt>
      <trkpt lat="49.8633" lon="2.0779">
        <ele>123</ele>
        <time>2023-01-11T14:38:06Z</time>
      </trkpt>
      <trkpt lat="49.8633" lon="2.07791">
        <ele>123</ele>
        <time>2023-01-11T14:38:07Z</time>
      </trkpt>
      <trkpt lat="49.86329" lon="2.07793">
        <ele>123</ele>
        <time>2023-01-11T14:38:09Z</time>
      </trkpt>
      <trkpt lat="49.86329" lon="2.07795">
        <ele>123</ele>
        <time>2023-01-11T14:38:10Z</time>
      </trkpt>
      <trkpt lat="49.86328" lon="2.07796">
        <ele>123</ele>
        <time>2023-01-11T14:38:11Z</time>
      </trkpt>
      <trkpt lat="49.86328" lon="2.07798">
        <ele>123</ele>
        <time>2023-01-11T14:38:12Z</time>
      </trkpt>
      <trkpt lat="49.86328" lon="2.07799">
        <ele>123</ele>
        <time>2023-01-11T14:38:13Z</time>
      </trkpt>
      <trkpt lat="49.86328" lon="2.07802">
        <ele>123</ele>
        <time>2023-01-11T14:38:14Z</time>
      </trkpt>
      <trkpt lat="49.86328" lon="2.07804">
        <ele>123</ele>
        <time>2023-01-11T14:38:15Z</time>
      </trkpt>
      <trkpt lat="49.86327" lon="2.07805">
        <ele>123</ele>
        <time>2023-01-11T14:38:16Z</time>
      </trkpt>
      <trkpt lat="49.86327" lon="2.07806">
        <ele>123</ele>
        <time>2023-01-11T14:38:18Z</time>
      </trkpt>
      <trkpt lat="49.86326" lon="2.07808">
        <ele>123</ele>
        <time>2023-01-11T14:38:19Z</time>
      </trkpt>
      <trkpt lat="49.86326" lon="2.0781">
        <ele>123</ele>
        <time>2023-01-11T14:38:20Z</time>
      </trkpt>
      <trkpt lat="49.86325" lon="2.07812">
        <ele>123</ele>
        <time>2023-01-11T14:38:21Z</time>
      </trkpt>
      <trkpt lat="49.86325" lon="2.07813">
        <ele>123</ele>
        <time>2023-01-11T14:38:22Z</time>
      </trkpt>
      <trkpt lat="49.86324" lon="2.07815">
        <ele>123</ele>
        <time>2023-01-11T14:38:23Z</time>
      </trkpt>
      <trkpt lat="49.86323" lon="2.07817">
        <ele>123</ele>
        <time>2023-01-11T14:38:25Z</time>
      </trkpt>
      <trkpt lat="49.86322" lon="2.07818">
        <ele>123</ele>
        <time>2023-01-11T14:38:26Z</time>
      </trkpt>
      <trkpt lat="49.86322" lon="2.07819">
        <ele>123</ele>
        <time>2023-01-11T14:38:27Z</time>
      </trkpt>
      <trkpt lat="49.86321" lon="2.0782">
        <ele>123</ele>
        <time>2023-01-11T14:38:28Z</time>
      </trkpt>
      <trkpt lat="49.86321" lon="2.07821">
        <ele>123</ele>
        <time>2023-01-11T14:38:29Z</time>
      </trkpt>
      <trkpt lat="49.8632" lon="2.07822">
        <ele>123</ele>
        <time>2023-01-11T14:38:30Z</time>
      </trkpt>
      <trkpt lat="49.86319" lon="2.07824">
        <ele>123</ele>
        <time>2023-01-11T14:38:32Z</time>
      </trkpt>
      <trkpt lat="49.86318" lon="2.07826">
        <ele>123</ele>
        <time>2023-01-11T14:38:33Z</time>
      </trkpt>
      <trkpt lat="49.86318" lon="2.07827">
        <ele>123</ele>
        <time>2023-01-11T14:38:34Z</time>
      </trkpt>
      <trkpt lat="49.86316" lon="2.0783">
        <ele>123</ele>
        <time>2023-01-11T14:38:35Z</time>
      </trkpt>
      <trkpt lat="49.86316" lon="2.07831">
        <ele>123</ele>
        <time>2023-01-11T14:38:36Z</time>
      </trkpt>
      <trkpt lat="49.86315" lon="2.07832">
        <ele>123</ele>
        <time>2023-01-11T14:38:37Z</time>
      </trkpt>
      <trkpt lat="49.86315" lon="2.07833">
        <ele>123</ele>
        <time>2023-01-11T14:38:38Z</time>
      </trkpt>
      <trkpt lat="49.86314" lon="2.07834">
        <ele>123</ele>
        <time>2023-01-11T14:38:39Z</time>
      </trkpt>
      <trkpt lat="49.86313" lon="2.07836">
        <ele>123</ele>
        <time>2023-01-11T14:38:41Z</time>
      </trkpt>
      <trkpt lat="49.86312" lon="2.07839">
        <ele>123</ele>
        <time>2023-01-11T14:38:42Z</time>
      </trkpt>
      <trkpt lat="49.86312" lon="2.0784">
        <ele>123</ele>
        <time>2023-01-11T14:38:43Z</time>
      </trkpt>
      <trkpt lat="49.86311" lon="2.07843">
        <ele>123</ele>
        <time>2023-01-11T14:38:44Z</time>
      </trkpt>
      <trkpt lat="49.86311" lon="2.07844">
        <ele>123.1</ele>
        <time>2023-01-11T14:38:45Z</time>
      </trkpt>
      <trkpt lat="49.8631" lon="2.07846">
        <ele>123.1</ele>
        <time>2023-01-11T14:38:46Z</time>
      </trkpt>
      <trkpt lat="49.8631" lon="2.07847">
        <ele>123.1</ele>
        <time>2023-01-11T14:38:48Z</time>
      </trkpt>
      <trkpt lat="49.86309" lon="2.07848">
        <ele>123.1</ele>
        <time>2023-01-11T14:38:49Z</time>
      </trkpt>
      <trkpt lat="49.86309" lon="2.0785">
        <ele>123.1</ele>
        <time>2023-01-11T14:38:50Z</time>
      </trkpt>
      <trkpt lat="49.86308" lon="2.07851">
        <ele>123.1</ele>
        <time>2023-01-11T14:38:51Z</time>
      </trkpt>
      <trkpt lat="49.86307" lon="2.07853">
        <ele>123.1</ele>
        <time>2023-01-11T14:38:52Z</time>
      </trkpt>
      <trkpt lat="49.86307" lon="2.07854">
        <ele>123.1</ele>
        <time>2023-01-11T14:38:53Z</time>
      </trkpt>
      <trkpt lat="49.86306" lon="2.07857">
        <ele>123.1</ele>
        <time>2023-01-11T14:38:55Z</time>
      </trkpt>
      <trkpt lat="49.86306" lon="2.07858">
        <ele>123.1</ele>
        <time>2023-01-11T14:38:56Z</time>
      </trkpt>
      <trkpt lat="49.86305" lon="2.07859">
        <ele>123.1</ele>
        <time>2023-01-11T14:38:57Z</time>
      </trkpt>
      <trkpt lat="49.86305" lon="2.07861">
        <ele>123.1</ele>
        <time>2023-01-11T14:38:58Z</time>
      </trkpt>
      <trkpt lat="49.86304" lon="2.07862">
        <ele>123.1</ele>
        <time>2023-01-11T14:38:59Z</time>
      </trkpt>
      <trkpt lat="49.86304" lon="2.07864">
        <ele>123.1</ele>
        <time>2023-01-11T14:39:00Z</time>
      </trkpt>
      <trkpt lat="49.86303" lon="2.07866">
        <ele>123.1</ele>
        <time>2023-01-11T14:39:02Z</time>
      </trkpt>
      <trkpt lat="49.86303" lon="2.07867">
        <ele>123.1</ele>
        <time>2023-01-11T14:39:03Z</time>
      </trkpt>
      <trkpt lat="49.86302" lon="2.07869">
        <ele>123.1</ele>
        <time>2023-01-11T14:39:04Z</time>
      </trkpt>
      <trkpt lat="49.86302" lon="2.0787">
        <ele>123.1</ele>
        <time>2023-01-11T14:39:05Z</time>
      </trkpt>
      <trkpt lat="49.86301" lon="2.07872">
        <ele>123.1</ele>
        <time>2023-01-11T14:39:06Z</time>
      </trkpt>
      <trkpt lat="49.863" lon="2.07873">
        <ele>123.1</ele>
        <time>2023-01-11T14:39:07Z</time>
      </trkpt>
      <trkpt lat="49.863" lon="2.07874">
        <ele>123.1</ele>
        <time>2023-01-11T14:39:08Z</time>
      </trkpt>
      <trkpt lat="49.86299" lon="2.07876">
        <ele>123.1</ele>
        <time>2023-01-11T14:39:10Z</time>
      </trkpt>
      <trkpt lat="49.86298" lon="2.07877">
        <ele>123.1</ele>
        <time>2023-01-11T14:39:11Z</time>
      </trkpt>
      <trkpt lat="49.86297" lon="2.07879">
        <ele>123.1</ele>
        <time>2023-01-11T14:39:12Z</time>
      </trkpt>
      <trkpt lat="49.86297" lon="2.07881">
        <ele>123.1</ele>
        <time>2023-01-11T14:39:13Z</time>
      </trkpt>
      <trkpt lat="49.86297" lon="2.07882">
        <ele>123.1</ele>
        <time>2023-01-11T14:39:14Z</time>
      </trkpt>
      <trkpt lat="49.86296" lon="2.07883">
        <ele>123.1</ele>
        <time>2023-01-11T14:39:15Z</time>
      </trkpt>
      <trkpt lat="49.86296" lon="2.07885">
        <ele>123.1</ele>
        <time>2023-01-11T14:39:16Z</time>
      </trkpt>
      <trkpt lat="49.86295" lon="2.07886">
        <ele>123.1</ele>
        <time>2023-01-11T14:39:18Z</time>
      </trkpt>
      <trkpt lat="49.86294" lon="2.07887">
        <ele>123.1</ele>
        <time>2023-01-11T14:39:19Z</time>
      </trkpt>
      <trkpt lat="49.86293" lon="2.07888">
        <ele>123.1</ele>
        <time>2023-01-11T14:39:20Z</time>
      </trkpt>
      <trkpt lat="49.86293" lon="2.07889">
        <ele>123.1</ele>
        <time>2023-01-11T14:39:21Z</time>
      </trkpt>
      <trkpt lat="49.86292" lon="2.07891">
        <ele>123.2</ele>
        <time>2023-01-11T14:39:22Z</time>
      </trkpt>
      <trkpt lat="49.86291" lon="2.07892">
        <ele>123.2</ele>
        <time>2023-01-11T14:39:23Z</time>
      </trkpt>
      <trkpt lat="49.8629" lon="2.07893">
        <ele>123.2</ele>
        <time>2023-01-11T14:39:25Z</time>
      </trkpt>
      <trkpt lat="49.86289" lon="2.07894">
        <ele>123.2</ele>
        <time>2023-01-11T14:39:26Z</time>
      </trkpt>
      <trkpt lat="49.86288" lon="2.07896">
        <ele>123.2</ele>
        <time>2023-01-11T14:39:27Z</time>
      </trkpt>
      <trkpt lat="49.86287" lon="2.07897">
        <ele>123.2</ele>
        <time>2023-01-11T14:39:28Z</time>
      </trkpt>
      <trkpt lat="49.86287" lon="2.07898">
        <ele>123.2</ele>
        <time>2023-01-11T14:39:29Z</time>
      </trkpt>
      <trkpt lat="49.86286" lon="2.07899">
        <ele>123.2</ele>
        <time>2023-01-11T14:39:30Z</time>
      </trkpt>
      <trkpt lat="49.86285" lon="2.07901">
        <ele>123.2</ele>
        <time>2023-01-11T14:39:31Z</time>
      </trkpt>
      <trkpt lat="49.86285" lon="2.07903">
        <ele>123.2</ele>
        <time>2023-01-11T14:39:33Z</time>
      </trkpt>
      <trkpt lat="49.86284" lon="2.07904">
        <ele>123.2</ele>
        <time>2023-01-11T14:39:34Z</time>
      </trkpt>
      <trkpt lat="49.86284" lon="2.07906">
        <ele>123.2</ele>
        <time>2023-01-11T14:39:35Z</time>
      </trkpt>
      <trkpt lat="49.86284" lon="2.07907">
        <ele>123.2</ele>
        <time>2023-01-11T14:39:36Z</time>
      </trkpt>
      <trkpt lat="49.86283" lon="2.07909">
        <ele>123.2</ele>
        <time>2023-01-11T14:39:37Z</time>
      </trkpt>
      <trkpt lat="49.86283" lon="2.0791">
        <ele>123.2</ele>
        <time>2023-01-11T14:39:38Z</time>
      </trkpt>
      <trkpt lat="49.86282" lon="2.07913">
        <ele>123.2</ele>
        <time>2023-01-11T14:39:39Z</time>
      </trkpt>
      <trkpt lat="49.86282" lon="2.07914">
        <ele>123.2</ele>
        <time>2023-01-11T14:39:41Z</time>
      </trkpt>
      <trkpt lat="49.86281" lon="2.07916">
        <ele>123.2</ele>
        <time>2023-01-11T14:39:42Z</time>
      </trkpt>
      <trkpt lat="49.86281" lon="2.07917">
        <ele>123.2</ele>
        <time>2023-01-11T14:39:43Z</time>
      </trkpt>
      <trkpt lat="49.8628" lon="2.07918">
        <ele>123.2</ele>
        <time>2023-01-11T14:39:44Z</time>
      </trkpt>
      <trkpt lat="49.8628" lon="2.0792">
        <ele>123.2</ele>
        <time>2023-01-11T14:39:45Z</time>
      </trkpt>
      <trkpt lat="49.86279" lon="2.07921">
        <ele>123.2</ele>
        <time>2023-01-11T14:39:46Z</time>
      </trkpt>
      <trkpt lat="49.86279" lon="2.07923">
        <ele>123.2</ele>
        <time>2023-01-11T14:39:47Z</time>
      </trkpt>
      <trkpt lat="49.86278" lon="2.07925">
        <ele>123.2</ele>
        <time>2023-01-11T14:39:48Z</time>
      </trkpt>
      <trkpt lat="49.86278" lon="2.07926">
        <ele>123.2</ele>
        <time>2023-01-11T14:39:49Z</time>
      </trkpt>
      <trkpt lat="49.86277" lon="2.07928">
        <ele>123.2</ele>
        <time>2023-01-11T14:39:51Z</time>
      </trkpt>
      <trkpt lat="49.86277" lon="2.07929">
        <ele>123.2</ele>
        <time>2023-01-11T14:39:52Z</time>
      </trkpt>
      <trkpt lat="49.86276" lon="2.07932">
        <ele>123.2</ele>
        <time>2023-01-11T14:39:53Z</time>
      </trkpt>
      <trkpt lat="49.86275" lon="2.07933">
        <ele>123.2</ele>
        <time>2023-01-11T14:39:54Z</time>
      </trkpt>
      <trkpt lat="49.86275" lon="2.07936">
        <ele>123.2</ele>
        <time>2023-01-11T14:39:55Z</time>
      </trkpt>
      <trkpt lat="49.86274" lon="2.07937">
        <ele>123.2</ele>
        <time>2023-01-11T14:39:56Z</time>
      </trkpt>
      <trkpt lat="49.86274" lon="2.07938">
        <ele>123.2</ele>
        <time>2023-01-11T14:39:57Z</time>
      </trkpt>
      <trkpt lat="49.86274" lon="2.0794">
        <ele>123.2</ele>
        <time>2023-01-11T14:39:58Z</time>
      </trkpt>
      <trkpt lat="49.86273" lon="2.07942">
        <ele>123.2</ele>
        <time>2023-01-11T14:40:00Z</time>
      </trkpt>
      <trkpt lat="49.86274" lon="2.07943">
        <ele>123.2</ele>
        <time>2023-01-11T14:40:01Z</time>
      </trkpt>
      <trkpt lat="49.86275" lon="2.07943">
        <ele>123.2</ele>
        <time>2023-01-11T14:40:02Z</time>
      </trkpt>
      <trkpt lat="49.86275" lon="2.07946">
        <ele>123.2</ele>
        <time>2023-01-11T14:40:03Z</time>
      </trkpt>
      <trkpt lat="49.86275" lon="2.07948">
        <ele>123.2</ele>
        <time>2023-01-11T14:40:04Z</time>
      </trkpt>
      <trkpt lat="49.86273" lon="2.0795">
        <ele>123.2</ele>
        <time>2023-01-11T14:40:05Z</time>
      </trkpt>
      <trkpt lat="49.86272" lon="2.07951">
        <ele>123.2</ele>
        <time>2023-01-11T14:40:06Z</time>
      </trkpt>
      <trkpt lat="49.86272" lon="2.07952">
        <ele>123.2</ele>
        <time>2023-01-11T14:40:07Z</time>
      </trkpt>
      <trkpt lat="49.86271" lon="2.07953">
        <ele>123.1</ele>
        <time>2023-01-11T14:40:08Z</time>
      </trkpt>
      <trkpt lat="49.8627" lon="2.07954">
        <ele>123.1</ele>
        <time>2023-01-11T14:40:10Z</time>
      </trkpt>
      <trkpt lat="49.86269" lon="2.07955">
        <ele>123.1</ele>
        <time>2023-01-11T14:40:11Z</time>
      </trkpt>
      <trkpt lat="49.86268" lon="2.07957">
        <ele>123.1</ele>
        <time>2023-01-11T14:40:12Z</time>
      </trkpt>
      <trkpt lat="49.86267" lon="2.07958">
        <ele>123.1</ele>
        <time>2023-01-11T14:40:13Z</time>
      </trkpt>
      <trkpt lat="49.86267" lon="2.07959">
        <ele>123.1</ele>
        <time>2023-01-11T14:40:14Z</time>
      </trkpt>
      <trkpt lat="49.86266" lon="2.07962">
        <ele>123.1</ele>
        <time>2023-01-11T14:40:15Z</time>
      </trkpt>
      <trkpt lat="49.86265" lon="2.07963">
        <ele>123.1</ele>
        <time>2023-01-11T14:40:16Z</time>
      </trkpt>
      <trkpt lat="49.86265" lon="2.07965">
        <ele>123.1</ele>
        <time>2023-01-11T14:40:17Z</time>
      </trkpt>
      <trkpt lat="49.86264" lon="2.07966">
        <ele>123.1</ele>
        <time>2023-01-11T14:40:18Z</time>
      </trkpt>
      <trkpt lat="49.86264" lon="2.07968">
        <ele>123.1</ele>
        <time>2023-01-11T14:40:20Z</time>
      </trkpt>
      <trkpt lat="49.86264" lon="2.07969">
        <ele>123.1</ele>
        <time>2023-01-11T14:40:21Z</time>
      </trkpt>
      <trkpt lat="49.86263" lon="2.0797">
        <ele>123.1</ele>
        <time>2023-01-11T14:40:22Z</time>
      </trkpt>
      <trkpt lat="49.86263" lon="2.07972">
        <ele>123.1</ele>
        <time>2023-01-11T14:40:23Z</time>
      </trkpt>
      <trkpt lat="49.86262" lon="2.07973">
        <ele>123.1</ele>
        <time>2023-01-11T14:40:24Z</time>
      </trkpt>
      <trkpt lat="49.86262" lon="2.07975">
        <ele>123.1</ele>
        <time>2023-01-11T14:40:25Z</time>
      </trkpt>
      <trkpt lat="49.86262" lon="2.07976">
        <ele>123.1</ele>
        <time>2023-01-11T14:40:26Z</time>
      </trkpt>
      <trkpt lat="49.86261" lon="2.07979">
        <ele>123.1</ele>
        <time>2023-01-11T14:40:27Z</time>
      </trkpt>
      <trkpt lat="49.86261" lon="2.0798">
        <ele>123.1</ele>
        <time>2023-01-11T14:40:28Z</time>
      </trkpt>
      <trkpt lat="49.8626" lon="2.07981">
        <ele>123.1</ele>
        <time>2023-01-11T14:40:29Z</time>
      </trkpt>
      <trkpt lat="49.8626" lon="2.07982">
        <ele>123.1</ele>
        <time>2023-01-11T14:40:31Z</time>
      </trkpt>
      <trkpt lat="49.86259" lon="2.07983">
        <ele>123.1</ele>
        <time>2023-01-11T14:40:32Z</time>
      </trkpt>
      <trkpt lat="49.86258" lon="2.07985">
        <ele>123.1</ele>
        <time>2023-01-11T14:40:33Z</time>
      </trkpt>
      <trkpt lat="49.86258" lon="2.07987">
        <ele>123.1</ele>
        <time>2023-01-11T14:40:34Z</time>
      </trkpt>
      <trkpt lat="49.86257" lon="2.07988">
        <ele>123.1</ele>
        <time>2023-01-11T14:40:35Z</time>
      </trkpt>
      <trkpt lat="49.86256" lon="2.0799">
        <ele>123.1</ele>
        <time>2023-01-11T14:40:36Z</time>
      </trkpt>
      <trkpt lat="49.86256" lon="2.07992">
        <ele>123.1</ele>
        <time>2023-01-11T14:40:38Z</time>
      </trkpt>
      <trkpt lat="49.86255" lon="2.07995">
        <ele>123.1</ele>
        <time>2023-01-11T14:40:39Z</time>
      </trkpt>
      <trkpt lat="49.86254" lon="2.07996">
        <ele>123.1</ele>
        <time>2023-01-11T14:40:40Z</time>
      </trkpt>
      <trkpt lat="49.86254" lon="2.07997">
        <ele>123.1</ele>
        <time>2023-01-11T14:40:41Z</time>
      </trkpt>
      <trkpt lat="49.86253" lon="2.07999">
        <ele>123.1</ele>
        <time>2023-01-11T14:40:42Z</time>
      </trkpt>
      <trkpt lat="49.86252" lon="2.08001">
        <ele>123.1</ele>
        <time>2023-01-11T14:40:43Z</time>
      </trkpt>
      <trkpt lat="49.86252" lon="2.08002">
        <ele>123.1</ele>
        <time>2023-01-11T14:40:44Z</time>
      </trkpt>
      <trkpt lat="49.86251" lon="2.08004">
        <ele>123.1</ele>
        <time>2023-01-11T14:40:45Z</time>
      </trkpt>
      <trkpt lat="49.86251" lon="2.08005">
        <ele>123.1</ele>
        <time>2023-01-11T14:40:46Z</time>
      </trkpt>
      <trkpt lat="49.8625" lon="2.08007">
        <ele>123.1</ele>
        <time>2023-01-11T14:40:47Z</time>
      </trkpt>
      <trkpt lat="49.86249" lon="2.08009">
        <ele>123.1</ele>
        <time>2023-01-11T14:40:48Z</time>
      </trkpt>
      <trkpt lat="49.86248" lon="2.08011">
        <ele>123.1</ele>
        <time>2023-01-11T14:40:50Z</time>
      </trkpt>
      <trkpt lat="49.86248" lon="2.08012">
        <ele>123.1</ele>
        <time>2023-01-11T14:40:51Z</time>
      </trkpt>
      <trkpt lat="49.86247" lon="2.08014">
        <ele>123.1</ele>
        <time>2023-01-11T14:40:52Z</time>
      </trkpt>
      <trkpt lat="49.86246" lon="2.08016">
        <ele>123.1</ele>
        <time>2023-01-11T14:40:53Z</time>
      </trkpt>
      <trkpt lat="49.86246" lon="2.08017">
        <ele>123.1</ele>
        <time>2023-01-11T14:40:54Z</time>
      </trkpt>
      <trkpt lat="49.86246" lon="2.08018">
        <ele>123.1</ele>
        <time>2023-01-11T14:40:55Z</time>
      </trkpt>
      <trkpt lat="49.86245" lon="2.0802">
        <ele>123.1</ele>
        <time>2023-01-11T14:40:56Z</time>
      </trkpt>
      <trkpt lat="49.86244" lon="2.08022">
        <ele>123</ele>
        <time>2023-01-11T14:40:58Z</time>
      </trkpt>
      <trkpt lat="49.86243" lon="2.08024">
        <ele>123</ele>
        <time>2023-01-11T14:40:59Z</time>
      </trkpt>
      <trkpt lat="49.86243" lon="2.08025">
        <ele>123</ele>
        <time>2023-01-11T14:41:00Z</time>
      </trkpt>
      <trkpt lat="49.86242" lon="2.08027">
        <ele>123</ele>
        <time>2023-01-11T14:41:01Z</time>
      </trkpt>
      <trkpt lat="49.86241" lon="2.08029">
        <ele>123</ele>
        <time>2023-01-11T14:41:02Z</time>
      </trkpt>
      <trkpt lat="49.8624" lon="2.0803">
        <ele>123</ele>
        <time>2023-01-11T14:41:04Z</time>
      </trkpt>
      <trkpt lat="49.8624" lon="2.08031">
        <ele>123</ele>
        <time>2023-01-11T14:41:05Z</time>
      </trkpt>
      <trkpt lat="49.86239" lon="2.08033">
        <ele>123</ele>
        <time>2023-01-11T14:41:06Z</time>
      </trkpt>
      <trkpt lat="49.86239" lon="2.08034">
        <ele>123</ele>
        <time>2023-01-11T14:41:07Z</time>
      </trkpt>
      <trkpt lat="49.86238" lon="2.08036">
        <ele>123</ele>
        <time>2023-01-11T14:41:08Z</time>
      </trkpt>
      <trkpt lat="49.86237" lon="2.08038">
        <ele>123</ele>
        <time>2023-01-11T14:41:09Z</time>
      </trkpt>
      <trkpt lat="49.86237" lon="2.08039">
        <ele>123</ele>
        <time>2023-01-11T14:41:10Z</time>
      </trkpt>
      <trkpt lat="49.86237" lon="2.08041">
        <ele>123</ele>
        <time>2023-01-11T14:41:11Z</time>
      </trkpt>
      <trkpt lat="49.86236" lon="2.08043">
        <ele>123</ele>
        <time>2023-01-11T14:41:12Z</time>
      </trkpt>
      <trkpt lat="49.86235" lon="2.08045">
        <ele>123</ele>
        <time>2023-01-11T14:41:13Z</time>
      </trkpt>
      <trkpt lat="49.86235" lon="2.08046">
        <ele>123</ele>
        <time>2023-01-11T14:41:14Z</time>
      </trkpt>
      <trkpt lat="49.86235" lon="2.08047">
        <ele>123</ele>
        <time>2023-01-11T14:41:16Z</time>
      </trkpt>
      <trkpt lat="49.86235" lon="2.08048">
        <ele>123</ele>
        <time>2023-01-11T14:41:17Z</time>
      </trkpt>
      <trkpt lat="49.86234" lon="2.08052">
        <ele>123</ele>
        <time>2023-01-11T14:41:18Z</time>
      </trkpt>
      <trkpt lat="49.86234" lon="2.08053">
        <ele>123</ele>
        <time>2023-01-11T14:41:19Z</time>
      </trkpt>
      <trkpt lat="49.86234" lon="2.08054">
        <ele>123</ele>
        <time>2023-01-11T14:41:20Z</time>
      </trkpt>
      <trkpt lat="49.86233" lon="2.08057">
        <ele>122.9</ele>
        <time>2023-01-11T14:41:21Z</time>
      </trkpt>
      <trkpt lat="49.86233" lon="2.08058">
        <ele>122.9</ele>
        <time>2023-01-11T14:41:22Z</time>
      </trkpt>
      <trkpt lat="49.86233" lon="2.0806">
        <ele>122.9</ele>
        <time>2023-01-11T14:41:23Z</time>
      </trkpt>
      <trkpt lat="49.86232" lon="2.08061">
        <ele>122.9</ele>
        <time>2023-01-11T14:41:24Z</time>
      </trkpt>
      <trkpt lat="49.86232" lon="2.08063">
        <ele>122.9</ele>
        <time>2023-01-11T14:41:26Z</time>
      </trkpt>
      <trkpt lat="49.86232" lon="2.08064">
        <ele>122.9</ele>
        <time>2023-01-11T14:41:27Z</time>
      </trkpt>
      <trkpt lat="49.86231" lon="2.08067">
        <ele>122.9</ele>
        <time>2023-01-11T14:41:28Z</time>
      </trkpt>
      <trkpt lat="49.86231" lon="2.08068">
        <ele>122.9</ele>
        <time>2023-01-11T14:41:29Z</time>
      </trkpt>
      <trkpt lat="49.8623" lon="2.08069">
        <ele>122.9</ele>
        <time>2023-01-11T14:41:30Z</time>
      </trkpt>
      <trkpt lat="49.86229" lon="2.08072">
        <ele>122.9</ele>
        <time>2023-01-11T14:41:31Z</time>
      </trkpt>
      <trkpt lat="49.86229" lon="2.08073">
        <ele>122.9</ele>
        <time>2023-01-11T14:41:32Z</time>
      </trkpt>
      <trkpt lat="49.86229" lon="2.08074">
        <ele>122.9</ele>
        <time>2023-01-11T14:41:33Z</time>
      </trkpt>
      <trkpt lat="49.86228" lon="2.08077">
        <ele>122.9</ele>
        <time>2023-01-11T14:41:34Z</time>
      </trkpt>
      <trkpt lat="49.86227" lon="2.08078">
        <ele>122.9</ele>
        <time>2023-01-11T14:41:35Z</time>
      </trkpt>
      <trkpt lat="49.86227" lon="2.08079">
        <ele>122.9</ele>
        <time>2023-01-11T14:41:36Z</time>
      </trkpt>
      <trkpt lat="49.86226" lon="2.08081">
        <ele>122.9</ele>
        <time>2023-01-11T14:41:38Z</time>
      </trkpt>
      <trkpt lat="49.86226" lon="2.08082">
        <ele>122.9</ele>
        <time>2023-01-11T14:41:39Z</time>
      </trkpt>
      <trkpt lat="49.86226" lon="2.08084">
        <ele>122.9</ele>
        <time>2023-01-11T14:41:40Z</time>
      </trkpt>
      <trkpt lat="49.86225" lon="2.08087">
        <ele>122.9</ele>
        <time>2023-01-11T14:41:41Z</time>
      </trkpt>
      <trkpt lat="49.86224" lon="2.08088">
        <ele>122.9</ele>
        <time>2023-01-11T14:41:42Z</time>
      </trkpt>
      <trkpt lat="49.86224" lon="2.08089">
        <ele>122.9</ele>
        <time>2023-01-11T14:41:43Z</time>
      </trkpt>
      <trkpt lat="49.86223" lon="2.08091">
        <ele>122.9</ele>
        <time>2023-01-11T14:41:45Z</time>
      </trkpt>
      <trkpt lat="49.86222" lon="2.08093">
        <ele>122.9</ele>
        <time>2023-01-11T14:41:46Z</time>
      </trkpt>
      <trkpt lat="49.86222" lon="2.08095">
        <ele>122.9</ele>
        <time>2023-01-11T14:41:47Z</time>
      </trkpt>
      <trkpt lat="49.86221" lon="2.08098">
        <ele>122.9</ele>
        <time>2023-01-11T14:41:48Z</time>
      </trkpt>
      <trkpt lat="49.8622" lon="2.081">
        <ele>122.9</ele>
        <time>2023-01-11T14:41:49Z</time>
      </trkpt>
      <trkpt lat="49.8622" lon="2.08101">
        <ele>122.9</ele>
        <time>2023-01-11T14:41:50Z</time>
      </trkpt>
      <trkpt lat="49.86219" lon="2.08102">
        <ele>122.9</ele>
        <time>2023-01-11T14:41:51Z</time>
      </trkpt>
      <trkpt lat="49.86219" lon="2.08103">
        <ele>122.9</ele>
        <time>2023-01-11T14:41:52Z</time>
      </trkpt>
      <trkpt lat="49.86218" lon="2.08106">
        <ele>122.9</ele>
        <time>2023-01-11T14:41:53Z</time>
      </trkpt>
      <trkpt lat="49.86217" lon="2.08107">
        <ele>122.9</ele>
        <time>2023-01-11T14:41:55Z</time>
      </trkpt>
      <trkpt lat="49.86217" lon="2.08107">
        <ele>122.9</ele>
        <time>2023-01-11T14:41:56Z</time>
      </trkpt>
      <trkpt lat="49.86216" lon="2.08109">
        <ele>122.9</ele>
        <time>2023-01-11T14:41:57Z</time>
      </trkpt>
      <trkpt lat="49.86215" lon="2.08111">
        <ele>123</ele>
        <time>2023-01-11T14:41:58Z</time>
      </trkpt>
      <trkpt lat="49.86215" lon="2.08112">
        <ele>123</ele>
        <time>2023-01-11T14:41:59Z</time>
      </trkpt>
      <trkpt lat="49.86214" lon="2.08113">
        <ele>123</ele>
        <time>2023-01-11T14:42:00Z</time>
      </trkpt>
      <trkpt lat="49.86213" lon="2.08115">
        <ele>123</ele>
        <time>2023-01-11T14:42:02Z</time>
      </trkpt>
      <trkpt lat="49.86212" lon="2.08117">
        <ele>123</ele>
        <time>2023-01-11T14:42:03Z</time>
      </trkpt>
      <trkpt lat="49.86212" lon="2.08118">
        <ele>123</ele>
        <time>2023-01-11T14:42:04Z</time>
      </trkpt>
      <trkpt lat="49.86211" lon="2.08119">
        <ele>123</ele>
        <time>2023-01-11T14:42:05Z</time>
      </trkpt>
      <trkpt lat="49.8621" lon="2.08122">
        <ele>123</ele>
        <time>2023-01-11T14:42:06Z</time>
      </trkpt>
      <trkpt lat="49.8621" lon="2.08123">
        <ele>123</ele>
        <time>2023-01-11T14:42:07Z</time>
      </trkpt>
      <trkpt lat="49.86209" lon="2.08124">
        <ele>123</ele>
        <time>2023-01-11T14:42:08Z</time>
      </trkpt>
      <trkpt lat="49.86209" lon="2.08126">
        <ele>123</ele>
        <time>2023-01-11T14:42:09Z</time>
      </trkpt>
      <trkpt lat="49.86208" lon="2.08128">
        <ele>123</ele>
        <time>2023-01-11T14:42:10Z</time>
      </trkpt>
      <trkpt lat="49.86208" lon="2.0813">
        <ele>123</ele>
        <time>2023-01-11T14:42:12Z</time>
      </trkpt>
      <trkpt lat="49.86207" lon="2.08132">
        <ele>123</ele>
        <time>2023-01-11T14:42:13Z</time>
      </trkpt>
      <trkpt lat="49.86207" lon="2.08133">
        <ele>123</ele>
        <time>2023-01-11T14:42:14Z</time>
      </trkpt>
      <trkpt lat="49.86206" lon="2.08135">
        <ele>123</ele>
        <time>2023-01-11T14:42:15Z</time>
      </trkpt>
      <trkpt lat="49.86206" lon="2.08137">
        <ele>123</ele>
        <time>2023-01-11T14:42:16Z</time>
      </trkpt>
      <trkpt lat="49.86205" lon="2.08139">
        <ele>123</ele>
        <time>2023-01-11T14:42:17Z</time>
      </trkpt>
      <trkpt lat="49.86205" lon="2.0814">
        <ele>123</ele>
        <time>2023-01-11T14:42:18Z</time>
      </trkpt>
      <trkpt lat="49.86204" lon="2.08141">
        <ele>123</ele>
        <time>2023-01-11T14:42:19Z</time>
      </trkpt>
      <trkpt lat="49.86204" lon="2.08143">
        <ele>123</ele>
        <time>2023-01-11T14:42:20Z</time>
      </trkpt>
      <trkpt lat="49.86203" lon="2.08144">
        <ele>123</ele>
        <time>2023-01-11T14:42:21Z</time>
      </trkpt>
      <trkpt lat="49.86203" lon="2.08146">
        <ele>123</ele>
        <time>2023-01-11T14:42:23Z</time>
      </trkpt>
      <trkpt lat="49.86202" lon="2.08148">
        <ele>123</ele>
        <time>2023-01-11T14:42:24Z</time>
      </trkpt>
      <trkpt lat="49.86202" lon="2.08149">
        <ele>123</ele>
        <time>2023-01-11T14:42:25Z</time>
      </trkpt>
      <trkpt lat="49.86201" lon="2.0815">
        <ele>123</ele>
        <time>2023-01-11T14:42:26Z</time>
      </trkpt>
      <trkpt lat="49.86201" lon="2.08152">
        <ele>123</ele>
        <time>2023-01-11T14:42:27Z</time>
      </trkpt>
      <trkpt lat="49.862" lon="2.08154">
        <ele>123</ele>
        <time>2023-01-11T14:42:28Z</time>
      </trkpt>
      <trkpt lat="49.86199" lon="2.08157">
        <ele>123</ele>
        <time>2023-01-11T14:42:29Z</time>
      </trkpt>
      <trkpt lat="49.86199" lon="2.08158">
        <ele>123</ele>
        <time>2023-01-11T14:42:30Z</time>
      </trkpt>
      <trkpt lat="49.86199" lon="2.08159">
        <ele>123</ele>
        <time>2023-01-11T14:42:31Z</time>
      </trkpt>
      <trkpt lat="49.86198" lon="2.08161">
        <ele>123</ele>
        <time>2023-01-11T14:42:32Z</time>
      </trkpt>
      <trkpt lat="49.86197" lon="2.08163">
        <ele>123</ele>
        <time>2023-01-11T14:42:34Z</time>
      </trkpt>
      <trkpt lat="49.86196" lon="2.08163">
        <ele>123</ele>
        <time>2023-01-11T14:42:35Z</time>
      </trkpt>
      <trkpt lat="49.86196" lon="2.08164">
        <ele>123</ele>
        <time>2023-01-11T14:42:36Z</time>
      </trkpt>
      <trkpt lat="49.86195" lon="2.08165">
        <ele>123</ele>
        <time>2023-01-11T14:42:37Z</time>
      </trkpt>
      <trkpt lat="49.86195" lon="2.08167">
        <ele>123</ele>
        <time>2023-01-11T14:42:38Z</time>
      </trkpt>
      <trkpt lat="49.86194" lon="2.08169">
        <ele>123</ele>
        <time>2023-01-11T14:42:39Z</time>
      </trkpt>
      <trkpt lat="49.86193" lon="2.08171">
        <ele>123</ele>
        <time>2023-01-11T14:42:40Z</time>
      </trkpt>
      <trkpt lat="49.86193" lon="2.08174">
        <ele>123</ele>
        <time>2023-01-11T14:42:41Z</time>
      </trkpt>
      <trkpt lat="49.86193" lon="2.08176">
        <ele>123</ele>
        <time>2023-01-11T14:42:42Z</time>
      </trkpt>
      <trkpt lat="49.86193" lon="2.08177">
        <ele>123</ele>
        <time>2023-01-11T14:42:43Z</time>
      </trkpt>
      <trkpt lat="49.86193" lon="2.0818">
        <ele>123</ele>
        <time>2023-01-11T14:42:45Z</time>
      </trkpt>
      <trkpt lat="49.86192" lon="2.08181">
        <ele>123</ele>
        <time>2023-01-11T14:42:46Z</time>
      </trkpt>
      <trkpt lat="49.86192" lon="2.08182">
        <ele>123</ele>
        <time>2023-01-11T14:42:47Z</time>
      </trkpt>
      <trkpt lat="49.86192" lon="2.08183">
        <ele>123</ele>
        <time>2023-01-11T14:42:48Z</time>
      </trkpt>
      <trkpt lat="49.86191" lon="2.08185">
        <ele>123</ele>
        <time>2023-01-11T14:42:49Z</time>
      </trkpt>
      <trkpt lat="49.8619" lon="2.08186">
        <ele>123</ele>
        <time>2023-01-11T14:42:50Z</time>
      </trkpt>
      <trkpt lat="49.8619" lon="2.08187">
        <ele>123</ele>
        <time>2023-01-11T14:42:51Z</time>
      </trkpt>
      <trkpt lat="49.86189" lon="2.08189">
        <ele>123</ele>
        <time>2023-01-11T14:42:52Z</time>
      </trkpt>
      <trkpt lat="49.86188" lon="2.08191">
        <ele>123</ele>
        <time>2023-01-11T14:42:53Z</time>
      </trkpt>
      <trkpt lat="49.86187" lon="2.08192">
        <ele>123</ele>
        <time>2023-01-11T14:42:54Z</time>
      </trkpt>
      <trkpt lat="49.86186" lon="2.08193">
        <ele>123</ele>
        <time>2023-01-11T14:42:56Z</time>
      </trkpt>
      <trkpt lat="49.86186" lon="2.08194">
        <ele>123</ele>
        <time>2023-01-11T14:42:57Z</time>
      </trkpt>
      <trkpt lat="49.86185" lon="2.08197">
        <ele>123</ele>
        <time>2023-01-11T14:42:58Z</time>
      </trkpt>
      <trkpt lat="49.86184" lon="2.08198">
        <ele>123</ele>
        <time>2023-01-11T14:42:59Z</time>
      </trkpt>
      <trkpt lat="49.86184" lon="2.08199">
        <ele>123</ele>
        <time>2023-01-11T14:43:00Z</time>
      </trkpt>
      <trkpt lat="49.86183" lon="2.08201">
        <ele>123</ele>
        <time>2023-01-11T14:43:01Z</time>
      </trkpt>
      <trkpt lat="49.86183" lon="2.08203">
        <ele>123</ele>
        <time>2023-01-11T14:43:02Z</time>
      </trkpt>
      <trkpt lat="49.86182" lon="2.08204">
        <ele>123</ele>
        <time>2023-01-11T14:43:04Z</time>
      </trkpt>
      <trkpt lat="49.86182" lon="2.08205">
        <ele>123</ele>
        <time>2023-01-11T14:43:05Z</time>
      </trkpt>
      <trkpt lat="49.86182" lon="2.08206">
        <ele>123</ele>
        <time>2023-01-11T14:43:06Z</time>
      </trkpt>
      <trkpt lat="49.86181" lon="2.08208">
        <ele>123</ele>
        <time>2023-01-11T14:43:07Z</time>
      </trkpt>
      <trkpt lat="49.86181" lon="2.08209">
        <ele>123</ele>
        <time>2023-01-11T14:43:08Z</time>
      </trkpt>
      <trkpt lat="49.8618" lon="2.08212">
        <ele>123</ele>
        <time>2023-01-11T14:43:09Z</time>
      </trkpt>
      <trkpt lat="49.86179" lon="2.08213">
        <ele>123</ele>
        <time>2023-01-11T14:43:10Z</time>
      </trkpt>
      <trkpt lat="49.86179" lon="2.08214">
        <ele>123</ele>
        <time>2023-01-11T14:43:11Z</time>
      </trkpt>
      <trkpt lat="49.86178" lon="2.08216">
        <ele>123</ele>
        <time>2023-01-11T14:43:13Z</time>
      </trkpt>
      <trkpt lat="49.86177" lon="2.08217">
        <ele>123</ele>
        <time>2023-01-11T14:43:14Z</time>
      </trkpt>
      <trkpt lat="49.86176" lon="2.08218">
        <ele>123</ele>
        <time>2023-01-11T14:43:15Z</time>
      </trkpt>
      <trkpt lat="49.86176" lon="2.08219">
        <ele>123</ele>
        <time>2023-01-11T14:43:16Z</time>
      </trkpt>
      <trkpt lat="49.86175" lon="2.0822">
        <ele>123</ele>
        <time>2023-01-11T14:43:17Z</time>
      </trkpt>
      <trkpt lat="49.86174" lon="2.08223">
        <ele>123</ele>
        <time>2023-01-11T14:43:19Z</time>
      </trkpt>
      <trkpt lat="49.86174" lon="2.08224">
        <ele>123</ele>
        <time>2023-01-11T14:43:20Z</time>
      </trkpt>
      <trkpt lat="49.86173" lon="2.08225">
        <ele>123</ele>
        <time>2023-01-11T14:43:21Z</time>
      </trkpt>
      <trkpt lat="49.86173" lon="2.08227">
        <ele>123</ele>
        <time>2023-01-11T14:43:22Z</time>
      </trkpt>
      <trkpt lat="49.86172" lon="2.08228">
        <ele>123</ele>
        <time>2023-01-11T14:43:23Z</time>
      </trkpt>
      <trkpt lat="49.86172" lon="2.08228">
        <ele>123</ele>
        <time>2023-01-11T14:43:25Z</time>
      </trkpt>
      <trkpt lat="49.86172" lon="2.08229">
        <ele>123</ele>
        <time>2023-01-11T14:43:27Z</time>
      </trkpt>
      <trkpt lat="49.86171" lon="2.0823">
        <ele>123</ele>
        <time>2023-01-11T14:43:28Z</time>
      </trkpt>
      <trkpt lat="49.86171" lon="2.0823">
        <ele>123</ele>
        <time>2023-01-11T14:43:30Z</time>
      </trkpt>
      <trkpt lat="49.86171" lon="2.08231">
        <ele>123</ele>
        <time>2023-01-11T14:43:31Z</time>
      </trkpt>
      <trkpt lat="49.86171" lon="2.08232">
        <ele>123</ele>
        <time>2023-01-11T14:43:32Z</time>
      </trkpt>
      <trkpt lat="49.8617" lon="2.08232">
        <ele>123</ele>
        <time>2023-01-11T14:43:33Z</time>
      </trkpt>
      <trkpt lat="49.8617" lon="2.08233">
        <ele>123</ele>
        <time>2023-01-11T14:43:34Z</time>
      </trkpt>
      <trkpt lat="49.8617" lon="2.08234">
        <ele>123</ele>
        <time>2023-01-11T14:43:35Z</time>
      </trkpt>
      <trkpt lat="49.86169" lon="2.08234">
        <ele>123</ele>
        <time>2023-01-11T14:43:36Z</time>
      </trkpt>
      <trkpt lat="49.86169" lon="2.08237">
        <ele>123</ele>
        <time>2023-01-11T14:43:38Z</time>
      </trkpt>
      <trkpt lat="49.86169" lon="2.08239">
        <ele>123</ele>
        <time>2023-01-11T14:43:39Z</time>
      </trkpt>
      <trkpt lat="49.86169" lon="2.0824">
        <ele>123</ele>
        <time>2023-01-11T14:43:40Z</time>
      </trkpt>
      <trkpt lat="49.86169" lon="2.08241">
        <ele>123</ele>
        <time>2023-01-11T14:43:41Z</time>
      </trkpt>
      <trkpt lat="49.86168" lon="2.08243">
        <ele>123</ele>
        <time>2023-01-11T14:43:42Z</time>
      </trkpt>
      <trkpt lat="49.86168" lon="2.08245">
        <ele>123</ele>
        <time>2023-01-11T14:43:43Z</time>
      </trkpt>
      <trkpt lat="49.86167" lon="2.08248">
        <ele>123</ele>
        <time>2023-01-11T14:43:44Z</time>
      </trkpt>
      <trkpt lat="49.86167" lon="2.08249">
        <ele>123</ele>
        <time>2023-01-11T14:43:45Z</time>
      </trkpt>
      <trkpt lat="49.86167" lon="2.0825">
        <ele>123</ele>
        <time>2023-01-11T14:43:47Z</time>
      </trkpt>
      <trkpt lat="49.86167" lon="2.08252">
        <ele>123</ele>
        <time>2023-01-11T14:43:48Z</time>
      </trkpt>
      <trkpt lat="49.86166" lon="2.08253">
        <ele>123</ele>
        <time>2023-01-11T14:43:49Z</time>
      </trkpt>
      <trkpt lat="49.86166" lon="2.08256">
        <ele>123</ele>
        <time>2023-01-11T14:43:50Z</time>
      </trkpt>
      <trkpt lat="49.86165" lon="2.08257">
        <ele>123</ele>
        <time>2023-01-11T14:43:51Z</time>
      </trkpt>
      <trkpt lat="49.86165" lon="2.08258">
        <ele>123</ele>
        <time>2023-01-11T14:43:52Z</time>
      </trkpt>
      <trkpt lat="49.86165" lon="2.0826">
        <ele>123</ele>
        <time>2023-01-11T14:43:53Z</time>
      </trkpt>
      <trkpt lat="49.86164" lon="2.08263">
        <ele>122.9</ele>
        <time>2023-01-11T14:43:55Z</time>
      </trkpt>
      <trkpt lat="49.86163" lon="2.08264">
        <ele>122.9</ele>
        <time>2023-01-11T14:43:56Z</time>
      </trkpt>
      <trkpt lat="49.86163" lon="2.08265">
        <ele>122.9</ele>
        <time>2023-01-11T14:43:57Z</time>
      </trkpt>
      <trkpt lat="49.86163" lon="2.08267">
        <ele>122.9</ele>
        <time>2023-01-11T14:43:58Z</time>
      </trkpt>
      <trkpt lat="49.86162" lon="2.08269">
        <ele>122.9</ele>
        <time>2023-01-11T14:43:59Z</time>
      </trkpt>
      <trkpt lat="49.86162" lon="2.08271">
        <ele>122.9</ele>
        <time>2023-01-11T14:44:00Z</time>
      </trkpt>
      <trkpt lat="49.86162" lon="2.08273">
        <ele>122.9</ele>
        <time>2023-01-11T14:44:02Z</time>
      </trkpt>
      <trkpt lat="49.86161" lon="2.08274">
        <ele>122.9</ele>
        <time>2023-01-11T14:44:03Z</time>
      </trkpt>
      <trkpt lat="49.86161" lon="2.08275">
        <ele>122.9</ele>
        <time>2023-01-11T14:44:04Z</time>
      </trkpt>
      <trkpt lat="49.8616" lon="2.08278">
        <ele>122.9</ele>
        <time>2023-01-11T14:44:05Z</time>
      </trkpt>
      <trkpt lat="49.86159" lon="2.08279">
        <ele>122.9</ele>
        <time>2023-01-11T14:44:06Z</time>
      </trkpt>
      <trkpt lat="49.86159" lon="2.0828">
        <ele>122.9</ele>
        <time>2023-01-11T14:44:07Z</time>
      </trkpt>
      <trkpt lat="49.86158" lon="2.08281">
        <ele>122.9</ele>
        <time>2023-01-11T14:44:08Z</time>
      </trkpt>
      <trkpt lat="49.86157" lon="2.08282">
        <ele>122.9</ele>
        <time>2023-01-11T14:44:09Z</time>
      </trkpt>
      <trkpt lat="49.86156" lon="2.08284">
        <ele>122.9</ele>
        <time>2023-01-11T14:44:11Z</time>
      </trkpt>
      <trkpt lat="49.86156" lon="2.08286">
        <ele>122.9</ele>
        <time>2023-01-11T14:44:12Z</time>
      </trkpt>
      <trkpt lat="49.86155" lon="2.08287">
        <ele>122.9</ele>
        <time>2023-01-11T14:44:13Z</time>
      </trkpt>
      <trkpt lat="49.86155" lon="2.08289">
        <ele>122.9</ele>
        <time>2023-01-11T14:44:14Z</time>
      </trkpt>
      <trkpt lat="49.86154" lon="2.08292">
        <ele>122.9</ele>
        <time>2023-01-11T14:44:16Z</time>
      </trkpt>
      <trkpt lat="49.86153" lon="2.08293">
        <ele>122.9</ele>
        <time>2023-01-11T14:44:17Z</time>
      </trkpt>
      <trkpt lat="49.86152" lon="2.08295">
        <ele>122.8</ele>
        <time>2023-01-11T14:44:18Z</time>
      </trkpt>
      <trkpt lat="49.86152" lon="2.08297">
        <ele>122.8</ele>
        <time>2023-01-11T14:44:19Z</time>
      </trkpt>
      <trkpt lat="49.86151" lon="2.083">
        <ele>122.8</ele>
        <time>2023-01-11T14:44:21Z</time>
      </trkpt>
      <trkpt lat="49.86151" lon="2.08301">
        <ele>122.8</ele>
        <time>2023-01-11T14:44:22Z</time>
      </trkpt>
      <trkpt lat="49.86149" lon="2.08304">
        <ele>122.8</ele>
        <time>2023-01-11T14:44:23Z</time>
      </trkpt>
      <trkpt lat="49.86149" lon="2.08306">
        <ele>122.8</ele>
        <time>2023-01-11T14:44:24Z</time>
      </trkpt>
      <trkpt lat="49.86149" lon="2.08308">
        <ele>122.8</ele>
        <time>2023-01-11T14:44:25Z</time>
      </trkpt>
      <trkpt lat="49.86148" lon="2.08309">
        <ele>122.8</ele>
        <time>2023-01-11T14:44:26Z</time>
      </trkpt>
      <trkpt lat="49.86148" lon="2.08311">
        <ele>122.8</ele>
        <time>2023-01-11T14:44:27Z</time>
      </trkpt>
      <trkpt lat="49.86147" lon="2.08312">
        <ele>122.8</ele>
        <time>2023-01-11T14:44:28Z</time>
      </trkpt>
      <trkpt lat="49.86147" lon="2.08314">
        <ele>122.8</ele>
        <time>2023-01-11T14:44:29Z</time>
      </trkpt>
      <trkpt lat="49.86146" lon="2.08316">
        <ele>122.8</ele>
        <time>2023-01-11T14:44:30Z</time>
      </trkpt>
      <trkpt lat="49.86145" lon="2.08317">
        <ele>122.8</ele>
        <time>2023-01-11T14:44:32Z</time>
      </trkpt>
      <trkpt lat="49.86144" lon="2.08318">
        <ele>122.8</ele>
        <time>2023-01-11T14:44:33Z</time>
      </trkpt>
      <trkpt lat="49.86144" lon="2.08319">
        <ele>122.8</ele>
        <time>2023-01-11T14:44:34Z</time>
      </trkpt>
      <trkpt lat="49.86143" lon="2.08322">
        <ele>122.8</ele>
        <time>2023-01-11T14:44:35Z</time>
      </trkpt>
      <trkpt lat="49.86143" lon="2.08323">
        <ele>122.8</ele>
        <time>2023-01-11T14:44:36Z</time>
      </trkpt>
      <trkpt lat="49.86142" lon="2.08324">
        <ele>122.8</ele>
        <time>2023-01-11T14:44:37Z</time>
      </trkpt>
      <trkpt lat="49.86142" lon="2.08326">
        <ele>122.8</ele>
        <time>2023-01-11T14:44:38Z</time>
      </trkpt>
      <trkpt lat="49.86141" lon="2.08328">
        <ele>122.8</ele>
        <time>2023-01-11T14:44:39Z</time>
      </trkpt>
      <trkpt lat="49.86141" lon="2.08329">
        <ele>122.8</ele>
        <time>2023-01-11T14:44:41Z</time>
      </trkpt>
      <trkpt lat="49.8614" lon="2.08331">
        <ele>122.8</ele>
        <time>2023-01-11T14:44:42Z</time>
      </trkpt>
      <trkpt lat="49.8614" lon="2.08332">
        <ele>122.8</ele>
        <time>2023-01-11T14:44:43Z</time>
      </trkpt>
      <trkpt lat="49.86139" lon="2.08333">
        <ele>122.8</ele>
        <time>2023-01-11T14:44:44Z</time>
      </trkpt>
      <trkpt lat="49.86138" lon="2.08336">
        <ele>122.7</ele>
        <time>2023-01-11T14:44:45Z</time>
      </trkpt>
      <trkpt lat="49.86138" lon="2.08337">
        <ele>122.7</ele>
        <time>2023-01-11T14:44:46Z</time>
      </trkpt>
      <trkpt lat="49.86138" lon="2.08338">
        <ele>122.7</ele>
        <time>2023-01-11T14:44:47Z</time>
      </trkpt>
      <trkpt lat="49.86137" lon="2.0834">
        <ele>122.7</ele>
        <time>2023-01-11T14:44:48Z</time>
      </trkpt>
      <trkpt lat="49.86137" lon="2.08342">
        <ele>122.7</ele>
        <time>2023-01-11T14:44:49Z</time>
      </trkpt>
      <trkpt lat="49.86136" lon="2.08344">
        <ele>122.7</ele>
        <time>2023-01-11T14:44:51Z</time>
      </trkpt>
      <trkpt lat="49.86137" lon="2.08346">
        <ele>122.7</ele>
        <time>2023-01-11T14:44:52Z</time>
      </trkpt>
      <trkpt lat="49.86138" lon="2.08347">
        <ele>122.7</ele>
        <time>2023-01-11T14:44:53Z</time>
      </trkpt>
      <trkpt lat="49.86138" lon="2.08348">
        <ele>122.7</ele>
        <time>2023-01-11T14:44:54Z</time>
      </trkpt>
      <trkpt lat="49.86138" lon="2.0835">
        <ele>122.7</ele>
        <time>2023-01-11T14:44:55Z</time>
      </trkpt>
      <trkpt lat="49.86137" lon="2.08351">
        <ele>122.7</ele>
        <time>2023-01-11T14:44:56Z</time>
      </trkpt>
      <trkpt lat="49.86137" lon="2.08352">
        <ele>122.7</ele>
        <time>2023-01-11T14:44:58Z</time>
      </trkpt>
      <trkpt lat="49.86136" lon="2.08353">
        <ele>122.7</ele>
        <time>2023-01-11T14:44:59Z</time>
      </trkpt>
      <trkpt lat="49.86135" lon="2.08355">
        <ele>122.7</ele>
        <time>2023-01-11T14:45:00Z</time>
      </trkpt>
      <trkpt lat="49.86134" lon="2.08356">
        <ele>122.6</ele>
        <time>2023-01-11T14:45:01Z</time>
      </trkpt>
      <trkpt lat="49.86133" lon="2.08357">
        <ele>122.6</ele>
        <time>2023-01-11T14:45:02Z</time>
      </trkpt>
      <trkpt lat="49.86133" lon="2.08358">
        <ele>122.6</ele>
        <time>2023-01-11T14:45:03Z</time>
      </trkpt>
      <trkpt lat="49.86132" lon="2.08358">
        <ele>122.6</ele>
        <time>2023-01-11T14:45:04Z</time>
      </trkpt>
      <trkpt lat="49.86132" lon="2.0836">
        <ele>122.6</ele>
        <time>2023-01-11T14:45:05Z</time>
      </trkpt>
      <trkpt lat="49.86131" lon="2.08361">
        <ele>122.6</ele>
        <time>2023-01-11T14:45:06Z</time>
      </trkpt>
      <trkpt lat="49.86131" lon="2.08362">
        <ele>122.6</ele>
        <time>2023-01-11T14:45:07Z</time>
      </trkpt>
      <trkpt lat="49.8613" lon="2.08363">
        <ele>122.6</ele>
        <time>2023-01-11T14:45:09Z</time>
      </trkpt>
      <trkpt lat="49.8613" lon="2.08364">
        <ele>122.6</ele>
        <time>2023-01-11T14:45:10Z</time>
      </trkpt>
      <trkpt lat="49.8613" lon="2.08367">
        <ele>122.6</ele>
        <time>2023-01-11T14:45:11Z</time>
      </trkpt>
      <trkpt lat="49.86129" lon="2.08368">
        <ele>122.6</ele>
        <time>2023-01-11T14:45:12Z</time>
      </trkpt>
      <trkpt lat="49.86128" lon="2.08371">
        <ele>122.5</ele>
        <time>2023-01-11T14:45:13Z</time>
      </trkpt>
      <trkpt lat="49.86128" lon="2.08372">
        <ele>122.5</ele>
        <time>2023-01-11T14:45:15Z</time>
      </trkpt>
      <trkpt lat="49.86127" lon="2.08373">
        <ele>122.5</ele>
        <time>2023-01-11T14:45:16Z</time>
      </trkpt>
      <trkpt lat="49.86127" lon="2.08375">
        <ele>122.5</ele>
        <time>2023-01-11T14:45:17Z</time>
      </trkpt>
      <trkpt lat="49.86126" lon="2.08376">
        <ele>122.5</ele>
        <time>2023-01-11T14:45:18Z</time>
      </trkpt>
      <trkpt lat="49.86126" lon="2.08378">
        <ele>122.5</ele>
        <time>2023-01-11T14:45:19Z</time>
      </trkpt>
      <trkpt lat="49.86125" lon="2.08381">
        <ele>122.4</ele>
        <time>2023-01-11T14:45:20Z</time>
      </trkpt>
      <trkpt lat="49.86125" lon="2.08382">
        <ele>122.4</ele>
        <time>2023-01-11T14:45:21Z</time>
      </trkpt>
      <trkpt lat="49.86125" lon="2.08383">
        <ele>122.4</ele>
        <time>2023-01-11T14:45:22Z</time>
      </trkpt>
      <trkpt lat="49.86124" lon="2.08385">
        <ele>122.4</ele>
        <time>2023-01-11T14:45:23Z</time>
      </trkpt>
      <trkpt lat="49.86124" lon="2.08387">
        <ele>122.4</ele>
        <time>2023-01-11T14:45:24Z</time>
      </trkpt>
      <trkpt lat="49.86123" lon="2.08389">
        <ele>122.4</ele>
        <time>2023-01-11T14:45:26Z</time>
      </trkpt>
      <trkpt lat="49.86123" lon="2.08391">
        <ele>122.4</ele>
        <time>2023-01-11T14:45:27Z</time>
      </trkpt>
      <trkpt lat="49.86122" lon="2.08393">
        <ele>122.3</ele>
        <time>2023-01-11T14:45:28Z</time>
      </trkpt>
      <trkpt lat="49.86122" lon="2.08394">
        <ele>122.3</ele>
        <time>2023-01-11T14:45:29Z</time>
      </trkpt>
      <trkpt lat="49.86121" lon="2.08395">
        <ele>122.3</ele>
        <time>2023-01-11T14:45:30Z</time>
      </trkpt>
      <trkpt lat="49.86121" lon="2.08396">
        <ele>122.3</ele>
        <time>2023-01-11T14:45:31Z</time>
      </trkpt>
      <trkpt lat="49.86121" lon="2.08398">
        <ele>122.3</ele>
        <time>2023-01-11T14:45:33Z</time>
      </trkpt>
      <trkpt lat="49.8612" lon="2.08399">
        <ele>122.3</ele>
        <time>2023-01-11T14:45:34Z</time>
      </trkpt>
      <trkpt lat="49.86119" lon="2.08401">
        <ele>122.3</ele>
        <time>2023-01-11T14:45:35Z</time>
      </trkpt>
      <trkpt lat="49.86119" lon="2.08403">
        <ele>122.3</ele>
        <time>2023-01-11T14:45:36Z</time>
      </trkpt>
      <trkpt lat="49.86118" lon="2.08405">
        <ele>122.3</ele>
        <time>2023-01-11T14:45:37Z</time>
      </trkpt>
      <trkpt lat="49.86117" lon="2.08406">
        <ele>122.3</ele>
        <time>2023-01-11T14:45:38Z</time>
      </trkpt>
      <trkpt lat="49.86117" lon="2.08407">
        <ele>122.3</ele>
        <time>2023-01-11T14:45:39Z</time>
      </trkpt>
      <trkpt lat="49.86115" lon="2.08411">
        <ele>122.3</ele>
        <time>2023-01-11T14:45:40Z</time>
      </trkpt>
      <trkpt lat="49.86115" lon="2.08412">
        <ele>122.3</ele>
        <time>2023-01-11T14:45:42Z</time>
      </trkpt>
      <trkpt lat="49.86114" lon="2.08414">
        <ele>122.3</ele>
        <time>2023-01-11T14:45:43Z</time>
      </trkpt>
      <trkpt lat="49.86114" lon="2.08415">
        <ele>122.3</ele>
        <time>2023-01-11T14:45:44Z</time>
      </trkpt>
      <trkpt lat="49.86113" lon="2.08417">
        <ele>122.3</ele>
        <time>2023-01-11T14:45:45Z</time>
      </trkpt>
      <trkpt lat="49.86112" lon="2.0842">
        <ele>122.2</ele>
        <time>2023-01-11T14:45:47Z</time>
      </trkpt>
      <trkpt lat="49.86112" lon="2.08421">
        <ele>122.2</ele>
        <time>2023-01-11T14:45:48Z</time>
      </trkpt>
      <trkpt lat="49.86111" lon="2.08422">
        <ele>122.2</ele>
        <time>2023-01-11T14:45:49Z</time>
      </trkpt>
      <trkpt lat="49.86111" lon="2.08424">
        <ele>122.2</ele>
        <time>2023-01-11T14:45:50Z</time>
      </trkpt>
      <trkpt lat="49.8611" lon="2.08426">
        <ele>122.2</ele>
        <time>2023-01-11T14:45:51Z</time>
      </trkpt>
      <trkpt lat="49.8611" lon="2.08427">
        <ele>122.2</ele>
        <time>2023-01-11T14:45:52Z</time>
      </trkpt>
      <trkpt lat="49.86109" lon="2.08428">
        <ele>122.2</ele>
        <time>2023-01-11T14:45:53Z</time>
      </trkpt>
      <trkpt lat="49.86109" lon="2.0843">
        <ele>122.1</ele>
        <time>2023-01-11T14:45:54Z</time>
      </trkpt>
      <trkpt lat="49.86108" lon="2.08432">
        <ele>122.1</ele>
        <time>2023-01-11T14:45:56Z</time>
      </trkpt>
      <trkpt lat="49.86107" lon="2.08434">
        <ele>122.1</ele>
        <time>2023-01-11T14:45:57Z</time>
      </trkpt>
      <trkpt lat="49.86107" lon="2.08435">
        <ele>122.1</ele>
        <time>2023-01-11T14:45:58Z</time>
      </trkpt>
      <trkpt lat="49.86106" lon="2.08436">
        <ele>122.1</ele>
        <time>2023-01-11T14:45:59Z</time>
      </trkpt>
      <trkpt lat="49.86106" lon="2.08438">
        <ele>122.1</ele>
        <time>2023-01-11T14:46:00Z</time>
      </trkpt>
      <trkpt lat="49.86105" lon="2.08439">
        <ele>122</ele>
        <time>2023-01-11T14:46:01Z</time>
      </trkpt>
      <trkpt lat="49.86105" lon="2.0844">
        <ele>122</ele>
        <time>2023-01-11T14:46:02Z</time>
      </trkpt>
      <trkpt lat="49.86104" lon="2.08443">
        <ele>122</ele>
        <time>2023-01-11T14:46:03Z</time>
      </trkpt>
      <trkpt lat="49.86104" lon="2.08445">
        <ele>122</ele>
        <time>2023-01-11T14:46:05Z</time>
      </trkpt>
      <trkpt lat="49.86104" lon="2.08446">
        <ele>122</ele>
        <time>2023-01-11T14:46:06Z</time>
      </trkpt>
      <trkpt lat="49.86103" lon="2.08447">
        <ele>122</ele>
        <time>2023-01-11T14:46:07Z</time>
      </trkpt>
      <trkpt lat="49.86102" lon="2.08448">
        <ele>122</ele>
        <time>2023-01-11T14:46:08Z</time>
      </trkpt>
      <trkpt lat="49.86101" lon="2.08448">
        <ele>121.9</ele>
        <time>2023-01-11T14:46:09Z</time>
      </trkpt>
      <trkpt lat="49.861" lon="2.08449">
        <ele>121.9</ele>
        <time>2023-01-11T14:46:11Z</time>
      </trkpt>
      <trkpt lat="49.861" lon="2.0845">
        <ele>121.9</ele>
        <time>2023-01-11T14:46:12Z</time>
      </trkpt>
      <trkpt lat="49.86099" lon="2.08452">
        <ele>121.9</ele>
        <time>2023-01-11T14:46:13Z</time>
      </trkpt>
      <trkpt lat="49.86099" lon="2.08454">
        <ele>121.9</ele>
        <time>2023-01-11T14:46:14Z</time>
      </trkpt>
      <trkpt lat="49.86099" lon="2.08456">
        <ele>121.9</ele>
        <time>2023-01-11T14:46:15Z</time>
      </trkpt>
      <trkpt lat="49.86098" lon="2.08457">
        <ele>121.8</ele>
        <time>2023-01-11T14:46:17Z</time>
      </trkpt>
      <trkpt lat="49.86098" lon="2.08459">
        <ele>121.8</ele>
        <time>2023-01-11T14:46:18Z</time>
      </trkpt>
      <trkpt lat="49.86098" lon="2.08461">
        <ele>121.8</ele>
        <time>2023-01-11T14:46:20Z</time>
      </trkpt>
      <trkpt lat="49.86098" lon="2.08462">
        <ele>121.8</ele>
        <time>2023-01-11T14:46:21Z</time>
      </trkpt>
      <trkpt lat="49.86098" lon="2.08464">
        <ele>121.8</ele>
        <time>2023-01-11T14:46:22Z</time>
      </trkpt>
      <trkpt lat="49.86098" lon="2.08465">
        <ele>121.8</ele>
        <time>2023-01-11T14:46:23Z</time>
      </trkpt>
      <trkpt lat="49.86098" lon="2.08467">
        <ele>121.8</ele>
        <time>2023-01-11T14:46:24Z</time>
      </trkpt>
      <trkpt lat="49.86098" lon="2.0847">
        <ele>121.7</ele>
        <time>2023-01-11T14:46:25Z</time>
      </trkpt>
      <trkpt lat="49.86097" lon="2.08471">
        <ele>121.7</ele>
        <time>2023-01-11T14:46:26Z</time>
      </trkpt>
      <trkpt lat="49.86097" lon="2.08472">
        <ele>121.7</ele>
        <time>2023-01-11T14:46:27Z</time>
      </trkpt>
      <trkpt lat="49.86096" lon="2.08474">
        <ele>121.7</ele>
        <time>2023-01-11T14:46:29Z</time>
      </trkpt>
      <trkpt lat="49.86096" lon="2.08475">
        <ele>121.7</ele>
        <time>2023-01-11T14:46:30Z</time>
      </trkpt>
      <trkpt lat="49.86095" lon="2.08476">
        <ele>121.8</ele>
        <time>2023-01-11T14:46:31Z</time>
      </trkpt>
      <trkpt lat="49.86094" lon="2.08477">
        <ele>121.8</ele>
        <time>2023-01-11T14:46:32Z</time>
      </trkpt>
      <trkpt lat="49.86093" lon="2.08478">
        <ele>121.8</ele>
        <time>2023-01-11T14:46:33Z</time>
      </trkpt>
      <trkpt lat="49.86092" lon="2.08479">
        <ele>121.8</ele>
        <time>2023-01-11T14:46:35Z</time>
      </trkpt>
      <trkpt lat="49.86091" lon="2.0848">
        <ele>121.8</ele>
        <time>2023-01-11T14:46:36Z</time>
      </trkpt>
      <trkpt lat="49.86091" lon="2.0848">
        <ele>121.8</ele>
        <time>2023-01-11T14:46:37Z</time>
      </trkpt>
      <trkpt lat="49.8609" lon="2.0848">
        <ele>121.8</ele>
        <time>2023-01-11T14:46:38Z</time>
      </trkpt>
      <trkpt lat="49.86089" lon="2.08481">
        <ele>121.8</ele>
        <time>2023-01-11T14:46:39Z</time>
      </trkpt>
      <trkpt lat="49.86088" lon="2.08482">
        <ele>121.8</ele>
        <time>2023-01-11T14:46:40Z</time>
      </trkpt>
      <trkpt lat="49.86087" lon="2.08483">
        <ele>121.8</ele>
        <time>2023-01-11T14:46:41Z</time>
      </trkpt>
      <trkpt lat="49.86087" lon="2.08484">
        <ele>121.8</ele>
        <time>2023-01-11T14:46:43Z</time>
      </trkpt>
      <trkpt lat="49.86086" lon="2.08485">
        <ele>121.8</ele>
        <time>2023-01-11T14:46:44Z</time>
      </trkpt>
      <trkpt lat="49.86086" lon="2.08486">
        <ele>121.8</ele>
        <time>2023-01-11T14:46:45Z</time>
      </trkpt>
      <trkpt lat="49.86085" lon="2.08487">
        <ele>121.7</ele>
        <time>2023-01-11T14:46:46Z</time>
      </trkpt>
      <trkpt lat="49.86085" lon="2.08489">
        <ele>121.7</ele>
        <time>2023-01-11T14:46:47Z</time>
      </trkpt>
      <trkpt lat="49.86084" lon="2.08491">
        <ele>121.7</ele>
        <time>2023-01-11T14:46:48Z</time>
      </trkpt>
      <trkpt lat="49.86083" lon="2.08492">
        <ele>121.7</ele>
        <time>2023-01-11T14:46:50Z</time>
      </trkpt>
      <trkpt lat="49.86083" lon="2.08494">
        <ele>121.7</ele>
        <time>2023-01-11T14:46:51Z</time>
      </trkpt>
      <trkpt lat="49.86082" lon="2.08495">
        <ele>121.7</ele>
        <time>2023-01-11T14:46:52Z</time>
      </trkpt>
      <trkpt lat="49.86082" lon="2.08496">
        <ele>121.7</ele>
        <time>2023-01-11T14:46:53Z</time>
      </trkpt>
      <trkpt lat="49.86081" lon="2.08499">
        <ele>121.7</ele>
        <time>2023-01-11T14:46:54Z</time>
      </trkpt>
      <trkpt lat="49.86081" lon="2.08501">
        <ele>121.7</ele>
        <time>2023-01-11T14:46:55Z</time>
      </trkpt>
      <trkpt lat="49.8608" lon="2.08502">
        <ele>121.7</ele>
        <time>2023-01-11T14:46:56Z</time>
      </trkpt>
      <trkpt lat="49.8608" lon="2.08503">
        <ele>121.7</ele>
        <time>2023-01-11T14:46:58Z</time>
      </trkpt>
      <trkpt lat="49.8608" lon="2.08505">
        <ele>121.6</ele>
        <time>2023-01-11T14:46:59Z</time>
      </trkpt>
      <trkpt lat="49.86079" lon="2.08506">
        <ele>121.6</ele>
        <time>2023-01-11T14:47:00Z</time>
      </trkpt>
      <trkpt lat="49.86078" lon="2.08508">
        <ele>121.6</ele>
        <time>2023-01-11T14:47:01Z</time>
      </trkpt>
      <trkpt lat="49.86078" lon="2.08509">
        <ele>121.6</ele>
        <time>2023-01-11T14:47:02Z</time>
      </trkpt>
      <trkpt lat="49.86077" lon="2.08511">
        <ele>121.6</ele>
        <time>2023-01-11T14:47:04Z</time>
      </trkpt>
      <trkpt lat="49.86077" lon="2.08513">
        <ele>121.6</ele>
        <time>2023-01-11T14:47:05Z</time>
      </trkpt>
      <trkpt lat="49.86076" lon="2.08515">
        <ele>121.5</ele>
        <time>2023-01-11T14:47:07Z</time>
      </trkpt>
      <trkpt lat="49.86076" lon="2.08516">
        <ele>121.5</ele>
        <time>2023-01-11T14:47:08Z</time>
      </trkpt>
      <trkpt lat="49.86076" lon="2.08518">
        <ele>121.5</ele>
        <time>2023-01-11T14:47:09Z</time>
      </trkpt>
      <trkpt lat="49.86075" lon="2.08519">
        <ele>121.5</ele>
        <time>2023-01-11T14:47:10Z</time>
      </trkpt>
      <trkpt lat="49.86075" lon="2.08521">
        <ele>121.4</ele>
        <time>2023-01-11T14:47:12Z</time>
      </trkpt>
      <trkpt lat="49.86075" lon="2.08522">
        <ele>121.4</ele>
        <time>2023-01-11T14:47:13Z</time>
      </trkpt>
      <trkpt lat="49.86074" lon="2.08523">
        <ele>121.4</ele>
        <time>2023-01-11T14:47:14Z</time>
      </trkpt>
      <trkpt lat="49.86074" lon="2.08524">
        <ele>121.4</ele>
        <time>2023-01-11T14:47:15Z</time>
      </trkpt>
      <trkpt lat="49.86074" lon="2.08526">
        <ele>121.4</ele>
        <time>2023-01-11T14:47:16Z</time>
      </trkpt>
      <trkpt lat="49.86074" lon="2.08527">
        <ele>121.4</ele>
        <time>2023-01-11T14:47:18Z</time>
      </trkpt>
      <trkpt lat="49.86074" lon="2.08528">
        <ele>121.4</ele>
        <time>2023-01-11T14:47:19Z</time>
      </trkpt>
      <trkpt lat="49.86074" lon="2.08529">
        <ele>121.4</ele>
        <time>2023-01-11T14:47:20Z</time>
      </trkpt>
      <trkpt lat="49.86073" lon="2.08531">
        <ele>121.3</ele>
        <time>2023-01-11T14:47:21Z</time>
      </trkpt>
      <trkpt lat="49.86073" lon="2.08532">
        <ele>121.3</ele>
        <time>2023-01-11T14:47:22Z</time>
      </trkpt>
      <trkpt lat="49.86074" lon="2.08533">
        <ele>121.3</ele>
        <time>2023-01-11T14:47:24Z</time>
      </trkpt>
      <trkpt lat="49.86074" lon="2.08535">
        <ele>121.3</ele>
        <time>2023-01-11T14:47:25Z</time>
      </trkpt>
      <trkpt lat="49.86074" lon="2.08537">
        <ele>121.3</ele>
        <time>2023-01-11T14:47:26Z</time>
      </trkpt>
      <trkpt lat="49.86074" lon="2.08538">
        <ele>121.3</ele>
        <time>2023-01-11T14:47:27Z</time>
      </trkpt>
      <trkpt lat="49.86073" lon="2.08541">
        <ele>121.3</ele>
        <time>2023-01-11T14:47:28Z</time>
      </trkpt>
      <trkpt lat="49.86073" lon="2.08542">
        <ele>121.3</ele>
        <time>2023-01-11T14:47:29Z</time>
      </trkpt>
      <trkpt lat="49.86074" lon="2.08543">
        <ele>121.3</ele>
        <time>2023-01-11T14:47:30Z</time>
      </trkpt>
      <trkpt lat="49.86074" lon="2.08544">
        <ele>121.3</ele>
        <time>2023-01-11T14:47:32Z</time>
      </trkpt>
      <trkpt lat="49.86074" lon="2.08546">
        <ele>121.3</ele>
        <time>2023-01-11T14:47:33Z</time>
      </trkpt>
      <trkpt lat="49.86074" lon="2.08547">
        <ele>121.3</ele>
        <time>2023-01-11T14:47:34Z</time>
      </trkpt>
      <trkpt lat="49.86074" lon="2.08548">
        <ele>121.3</ele>
        <time>2023-01-11T14:47:35Z</time>
      </trkpt>
      <trkpt lat="49.86074" lon="2.0855">
        <ele>121.3</ele>
        <time>2023-01-11T14:47:36Z</time>
      </trkpt>
      <trkpt lat="49.86074" lon="2.0855">
        <ele>121.3</ele>
        <time>2023-01-11T14:47:37Z</time>
      </trkpt>
      <trkpt lat="49.86074" lon="2.08551">
        <ele>121.3</ele>
        <time>2023-01-11T14:47:38Z</time>
      </trkpt>
      <trkpt lat="49.86074" lon="2.08553">
        <ele>121.3</ele>
        <time>2023-01-11T14:47:39Z</time>
      </trkpt>
      <trkpt lat="49.86074" lon="2.08555">
        <ele>121.3</ele>
        <time>2023-01-11T14:47:41Z</time>
      </trkpt>
      <trkpt lat="49.86074" lon="2.08556">
        <ele>121.3</ele>
        <time>2023-01-11T14:47:42Z</time>
      </trkpt>
      <trkpt lat="49.86074" lon="2.08558">
        <ele>121.3</ele>
        <time>2023-01-11T14:47:43Z</time>
      </trkpt>
      <trkpt lat="49.86074" lon="2.08559">
        <ele>121.3</ele>
        <time>2023-01-11T14:47:44Z</time>
      </trkpt>
      <trkpt lat="49.86074" lon="2.0856">
        <ele>121.3</ele>
        <time>2023-01-11T14:47:45Z</time>
      </trkpt>
      <trkpt lat="49.86074" lon="2.08562">
        <ele>121.3</ele>
        <time>2023-01-11T14:47:46Z</time>
      </trkpt>
      <trkpt lat="49.86074" lon="2.08563">
        <ele>121.3</ele>
        <time>2023-01-11T14:47:48Z</time>
      </trkpt>
      <trkpt lat="49.86075" lon="2.08565">
        <ele>121.3</ele>
        <time>2023-01-11T14:47:49Z</time>
      </trkpt>
      <trkpt lat="49.86075" lon="2.08567">
        <ele>121.3</ele>
        <time>2023-01-11T14:47:50Z</time>
      </trkpt>
      <trkpt lat="49.86075" lon="2.08569">
        <ele>121.3</ele>
        <time>2023-01-11T14:47:51Z</time>
      </trkpt>
      <trkpt lat="49.86075" lon="2.0857">
        <ele>121.3</ele>
        <time>2023-01-11T14:47:52Z</time>
      </trkpt>
      <trkpt lat="49.86075" lon="2.08572">
        <ele>121.3</ele>
        <time>2023-01-11T14:47:53Z</time>
      </trkpt>
      <trkpt lat="49.86076" lon="2.08573">
        <ele>121.3</ele>
        <time>2023-01-11T14:47:54Z</time>
      </trkpt>
      <trkpt lat="49.86076" lon="2.08575">
        <ele>121.3</ele>
        <time>2023-01-11T14:47:56Z</time>
      </trkpt>
      <trkpt lat="49.86076" lon="2.08577">
        <ele>121.3</ele>
        <time>2023-01-11T14:47:57Z</time>
      </trkpt>
      <trkpt lat="49.86076" lon="2.08579">
        <ele>121.3</ele>
        <time>2023-01-11T14:47:58Z</time>
      </trkpt>
      <trkpt lat="49.86076" lon="2.08581">
        <ele>121.3</ele>
        <time>2023-01-11T14:47:59Z</time>
      </trkpt>
      <trkpt lat="49.86076" lon="2.08582">
        <ele>121.3</ele>
        <time>2023-01-11T14:48:00Z</time>
      </trkpt>
      <trkpt lat="49.86076" lon="2.08584">
        <ele>121.3</ele>
        <time>2023-01-11T14:48:01Z</time>
      </trkpt>
      <trkpt lat="49.86076" lon="2.08586">
        <ele>121.4</ele>
        <time>2023-01-11T14:48:02Z</time>
      </trkpt>
      <trkpt lat="49.86077" lon="2.08587">
        <ele>121.4</ele>
        <time>2023-01-11T14:48:04Z</time>
      </trkpt>
      <trkpt lat="49.86077" lon="2.08589">
        <ele>121.4</ele>
        <time>2023-01-11T14:48:05Z</time>
      </trkpt>
      <trkpt lat="49.86077" lon="2.08592">
        <ele>121.4</ele>
        <time>2023-01-11T14:48:06Z</time>
      </trkpt>
      <trkpt lat="49.86077" lon="2.08593">
        <ele>121.4</ele>
        <time>2023-01-11T14:48:07Z</time>
      </trkpt>
      <trkpt lat="49.86077" lon="2.08594">
        <ele>121.4</ele>
        <time>2023-01-11T14:48:08Z</time>
      </trkpt>
      <trkpt lat="49.86077" lon="2.08596">
        <ele>121.4</ele>
        <time>2023-01-11T14:48:09Z</time>
      </trkpt>
      <trkpt lat="49.86077" lon="2.08598">
        <ele>121.5</ele>
        <time>2023-01-11T14:48:11Z</time>
      </trkpt>
      <trkpt lat="49.86077" lon="2.086">
        <ele>121.5</ele>
        <time>2023-01-11T14:48:12Z</time>
      </trkpt>
      <trkpt lat="49.86077" lon="2.08601">
        <ele>121.5</ele>
        <time>2023-01-11T14:48:13Z</time>
      </trkpt>
      <trkpt lat="49.86077" lon="2.08603">
        <ele>121.5</ele>
        <time>2023-01-11T14:48:14Z</time>
      </trkpt>
      <trkpt lat="49.86078" lon="2.08605">
        <ele>121.5</ele>
        <time>2023-01-11T14:48:15Z</time>
      </trkpt>
      <trkpt lat="49.86078" lon="2.08608">
        <ele>121.5</ele>
        <time>2023-01-11T14:48:16Z</time>
      </trkpt>
      <trkpt lat="49.86078" lon="2.08609">
        <ele>121.5</ele>
        <time>2023-01-11T14:48:18Z</time>
      </trkpt>
      <trkpt lat="49.86078" lon="2.0861">
        <ele>121.6</ele>
        <time>2023-01-11T14:48:19Z</time>
      </trkpt>
      <trkpt lat="49.86078" lon="2.08612">
        <ele>121.6</ele>
        <time>2023-01-11T14:48:20Z</time>
      </trkpt>
      <trkpt lat="49.86078" lon="2.08614">
        <ele>121.6</ele>
        <time>2023-01-11T14:48:21Z</time>
      </trkpt>
      <trkpt lat="49.86078" lon="2.08615">
        <ele>121.6</ele>
        <time>2023-01-11T14:48:22Z</time>
      </trkpt>
      <trkpt lat="49.86079" lon="2.08617">
        <ele>121.6</ele>
        <time>2023-01-11T14:48:23Z</time>
      </trkpt>
      <trkpt lat="49.86079" lon="2.08618">
        <ele>121.6</ele>
        <time>2023-01-11T14:48:24Z</time>
      </trkpt>
      <trkpt lat="49.86079" lon="2.0862">
        <ele>121.6</ele>
        <time>2023-01-11T14:48:25Z</time>
      </trkpt>
      <trkpt lat="49.8608" lon="2.08623">
        <ele>121.6</ele>
        <time>2023-01-11T14:48:27Z</time>
      </trkpt>
      <trkpt lat="49.8608" lon="2.08625">
        <ele>121.6</ele>
        <time>2023-01-11T14:48:28Z</time>
      </trkpt>
      <trkpt lat="49.8608" lon="2.08626">
        <ele>121.6</ele>
        <time>2023-01-11T14:48:29Z</time>
      </trkpt>
      <trkpt lat="49.8608" lon="2.08628">
        <ele>121.7</ele>
        <time>2023-01-11T14:48:30Z</time>
      </trkpt>
      <trkpt lat="49.86081" lon="2.0863">
        <ele>121.7</ele>
        <time>2023-01-11T14:48:31Z</time>
      </trkpt>
      <trkpt lat="49.86081" lon="2.08631">
        <ele>121.7</ele>
        <time>2023-01-11T14:48:32Z</time>
      </trkpt>
      <trkpt lat="49.86081" lon="2.08632">
        <ele>121.7</ele>
        <time>2023-01-11T14:48:33Z</time>
      </trkpt>
      <trkpt lat="49.86081" lon="2.08634">
        <ele>121.7</ele>
        <time>2023-01-11T14:48:34Z</time>
      </trkpt>
      <trkpt lat="49.86082" lon="2.08636">
        <ele>121.7</ele>
        <time>2023-01-11T14:48:36Z</time>
      </trkpt>
      <trkpt lat="49.86082" lon="2.08638">
        <ele>121.7</ele>
        <time>2023-01-11T14:48:37Z</time>
      </trkpt>
      <trkpt lat="49.86082" lon="2.08639">
        <ele>121.7</ele>
        <time>2023-01-11T14:48:38Z</time>
      </trkpt>
      <trkpt lat="49.86082" lon="2.08641">
        <ele>121.7</ele>
        <time>2023-01-11T14:48:39Z</time>
      </trkpt>
      <trkpt lat="49.86082" lon="2.08643">
        <ele>121.7</ele>
        <time>2023-01-11T14:48:40Z</time>
      </trkpt>
      <trkpt lat="49.86082" lon="2.08645">
        <ele>121.7</ele>
        <time>2023-01-11T14:48:41Z</time>
      </trkpt>
      <trkpt lat="49.86083" lon="2.08646">
        <ele>121.8</ele>
        <time>2023-01-11T14:48:42Z</time>
      </trkpt>
      <trkpt lat="49.86083" lon="2.08648">
        <ele>121.8</ele>
        <time>2023-01-11T14:48:43Z</time>
      </trkpt>
      <trkpt lat="49.86083" lon="2.0865">
        <ele>121.8</ele>
        <time>2023-01-11T14:48:45Z</time>
      </trkpt>
      <trkpt lat="49.86083" lon="2.08651">
        <ele>121.8</ele>
        <time>2023-01-11T14:48:46Z</time>
      </trkpt>
      <trkpt lat="49.86083" lon="2.08654">
        <ele>121.8</ele>
        <time>2023-01-11T14:48:47Z</time>
      </trkpt>
      <trkpt lat="49.86083" lon="2.08655">
        <ele>121.8</ele>
        <time>2023-01-11T14:48:48Z</time>
      </trkpt>
      <trkpt lat="49.86084" lon="2.08656">
        <ele>121.9</ele>
        <time>2023-01-11T14:48:49Z</time>
      </trkpt>
      <trkpt lat="49.86084" lon="2.08658">
        <ele>121.9</ele>
        <time>2023-01-11T14:48:50Z</time>
      </trkpt>
      <trkpt lat="49.86084" lon="2.08661">
        <ele>121.9</ele>
        <time>2023-01-11T14:48:52Z</time>
      </trkpt>
      <trkpt lat="49.86084" lon="2.08662">
        <ele>121.9</ele>
        <time>2023-01-11T14:48:53Z</time>
      </trkpt>
      <trkpt lat="49.86085" lon="2.08664">
        <ele>121.9</ele>
        <time>2023-01-11T14:48:54Z</time>
      </trkpt>
      <trkpt lat="49.86085" lon="2.08666">
        <ele>122</ele>
        <time>2023-01-11T14:48:55Z</time>
      </trkpt>
      <trkpt lat="49.86085" lon="2.08667">
        <ele>122</ele>
        <time>2023-01-11T14:48:56Z</time>
      </trkpt>
      <trkpt lat="49.86085" lon="2.08669">
        <ele>122</ele>
        <time>2023-01-11T14:48:57Z</time>
      </trkpt>
      <trkpt lat="49.86086" lon="2.08671">
        <ele>122</ele>
        <time>2023-01-11T14:48:58Z</time>
      </trkpt>
      <trkpt lat="49.86086" lon="2.08674">
        <ele>122.1</ele>
        <time>2023-01-11T14:48:59Z</time>
      </trkpt>
      <trkpt lat="49.86086" lon="2.08675">
        <ele>122.1</ele>
        <time>2023-01-11T14:49:01Z</time>
      </trkpt>
      <trkpt lat="49.86087" lon="2.08677">
        <ele>122.1</ele>
        <time>2023-01-11T14:49:02Z</time>
      </trkpt>
      <trkpt lat="49.86087" lon="2.08678">
        <ele>122.1</ele>
        <time>2023-01-11T14:49:03Z</time>
      </trkpt>
      <trkpt lat="49.86087" lon="2.0868">
        <ele>122.2</ele>
        <time>2023-01-11T14:49:04Z</time>
      </trkpt>
      <trkpt lat="49.86087" lon="2.08682">
        <ele>122.2</ele>
        <time>2023-01-11T14:49:05Z</time>
      </trkpt>
      <trkpt lat="49.86088" lon="2.08683">
        <ele>122.2</ele>
        <time>2023-01-11T14:49:06Z</time>
      </trkpt>
      <trkpt lat="49.86088" lon="2.08685">
        <ele>122.2</ele>
        <time>2023-01-11T14:49:07Z</time>
      </trkpt>
      <trkpt lat="49.86088" lon="2.08687">
        <ele>122.3</ele>
        <time>2023-01-11T14:49:09Z</time>
      </trkpt>
      <trkpt lat="49.86089" lon="2.0869">
        <ele>122.3</ele>
        <time>2023-01-11T14:49:10Z</time>
      </trkpt>
      <trkpt lat="49.86089" lon="2.08692">
        <ele>122.3</ele>
        <time>2023-01-11T14:49:11Z</time>
      </trkpt>
      <trkpt lat="49.86089" lon="2.08693">
        <ele>122.4</ele>
        <time>2023-01-11T14:49:12Z</time>
      </trkpt>
      <trkpt lat="49.86089" lon="2.08695">
        <ele>122.4</ele>
        <time>2023-01-11T14:49:13Z</time>
      </trkpt>
      <trkpt lat="49.8609" lon="2.08696">
        <ele>122.4</ele>
        <time>2023-01-11T14:49:14Z</time>
      </trkpt>
      <trkpt lat="49.8609" lon="2.08698">
        <ele>122.4</ele>
        <time>2023-01-11T14:49:16Z</time>
      </trkpt>
      <trkpt lat="49.8609" lon="2.087">
        <ele>122.4</ele>
        <time>2023-01-11T14:49:17Z</time>
      </trkpt>
      <trkpt lat="49.86091" lon="2.08701">
        <ele>122.4</ele>
        <time>2023-01-11T14:49:18Z</time>
      </trkpt>
      <trkpt lat="49.86091" lon="2.08703">
        <ele>122.5</ele>
        <time>2023-01-11T14:49:19Z</time>
      </trkpt>
      <trkpt lat="49.86091" lon="2.08705">
        <ele>122.5</ele>
        <time>2023-01-11T14:49:20Z</time>
      </trkpt>
      <trkpt lat="49.86091" lon="2.08706">
        <ele>122.5</ele>
        <time>2023-01-11T14:49:21Z</time>
      </trkpt>
      <trkpt lat="49.8609" lon="2.08708">
        <ele>122.5</ele>
        <time>2023-01-11T14:49:22Z</time>
      </trkpt>
      <trkpt lat="49.86091" lon="2.0871">
        <ele>122.5</ele>
        <time>2023-01-11T14:49:24Z</time>
      </trkpt>
      <trkpt lat="49.86091" lon="2.08712">
        <ele>122.5</ele>
        <time>2023-01-11T14:49:25Z</time>
      </trkpt>
      <trkpt lat="49.86091" lon="2.08713">
        <ele>122.6</ele>
        <time>2023-01-11T14:49:26Z</time>
      </trkpt>
      <trkpt lat="49.86091" lon="2.08715">
        <ele>122.6</ele>
        <time>2023-01-11T14:49:27Z</time>
      </trkpt>
      <trkpt lat="49.86091" lon="2.08716">
        <ele>122.6</ele>
        <time>2023-01-11T14:49:28Z</time>
      </trkpt>
      <trkpt lat="49.86091" lon="2.08718">
        <ele>122.6</ele>
        <time>2023-01-11T14:49:29Z</time>
      </trkpt>
      <trkpt lat="49.86091" lon="2.08721">
        <ele>122.6</ele>
        <time>2023-01-11T14:49:30Z</time>
      </trkpt>
      <trkpt lat="49.86091" lon="2.08722">
        <ele>122.6</ele>
        <time>2023-01-11T14:49:32Z</time>
      </trkpt>
      <trkpt lat="49.86091" lon="2.08724">
        <ele>122.6</ele>
        <time>2023-01-11T14:49:33Z</time>
      </trkpt>
      <trkpt lat="49.8609" lon="2.08725">
        <ele>122.6</ele>
        <time>2023-01-11T14:49:34Z</time>
      </trkpt>
      <trkpt lat="49.8609" lon="2.08727">
        <ele>122.7</ele>
        <time>2023-01-11T14:49:35Z</time>
      </trkpt>
      <trkpt lat="49.86091" lon="2.08728">
        <ele>122.7</ele>
        <time>2023-01-11T14:49:36Z</time>
      </trkpt>
      <trkpt lat="49.86091" lon="2.0873">
        <ele>122.7</ele>
        <time>2023-01-11T14:49:37Z</time>
      </trkpt>
      <trkpt lat="49.86091" lon="2.08732">
        <ele>122.7</ele>
        <time>2023-01-11T14:49:38Z</time>
      </trkpt>
      <trkpt lat="49.86091" lon="2.08734">
        <ele>122.7</ele>
        <time>2023-01-11T14:49:40Z</time>
      </trkpt>
      <trkpt lat="49.86091" lon="2.08735">
        <ele>122.7</ele>
        <time>2023-01-11T14:49:41Z</time>
      </trkpt>
      <trkpt lat="49.86091" lon="2.08737">
        <ele>122.7</ele>
        <time>2023-01-11T14:49:42Z</time>
      </trkpt>
      <trkpt lat="49.86091" lon="2.08738">
        <ele>122.7</ele>
        <time>2023-01-11T14:49:43Z</time>
      </trkpt>
      <trkpt lat="49.86091" lon="2.0874">
        <ele>122.8</ele>
        <time>2023-01-11T14:49:44Z</time>
      </trkpt>
      <trkpt lat="49.86091" lon="2.08741">
        <ele>122.8</ele>
        <time>2023-01-11T14:49:45Z</time>
      </trkpt>
      <trkpt lat="49.86091" lon="2.08743">
        <ele>122.8</ele>
        <time>2023-01-11T14:49:46Z</time>
      </trkpt>
      <trkpt lat="49.86091" lon="2.08745">
        <ele>122.8</ele>
        <time>2023-01-11T14:49:47Z</time>
      </trkpt>
      <trkpt lat="49.86092" lon="2.08747">
        <ele>122.8</ele>
        <time>2023-01-11T14:49:49Z</time>
      </trkpt>
      <trkpt lat="49.86092" lon="2.08748">
        <ele>122.8</ele>
        <time>2023-01-11T14:49:50Z</time>
      </trkpt>
      <trkpt lat="49.86092" lon="2.0875">
        <ele>122.8</ele>
        <time>2023-01-11T14:49:51Z</time>
      </trkpt>
      <trkpt lat="49.86092" lon="2.08752">
        <ele>122.8</ele>
        <time>2023-01-11T14:49:52Z</time>
      </trkpt>
      <trkpt lat="49.86092" lon="2.08753">
        <ele>122.8</ele>
        <time>2023-01-11T14:49:53Z</time>
      </trkpt>
      <trkpt lat="49.86092" lon="2.08755">
        <ele>122.8</ele>
        <time>2023-01-11T14:49:54Z</time>
      </trkpt>
      <trkpt lat="49.86092" lon="2.08757">
        <ele>122.8</ele>
        <time>2023-01-11T14:49:56Z</time>
      </trkpt>
      <trkpt lat="49.86092" lon="2.08759">
        <ele>122.9</ele>
        <time>2023-01-11T14:49:57Z</time>
      </trkpt>
      <trkpt lat="49.86092" lon="2.0876">
        <ele>122.9</ele>
        <time>2023-01-11T14:49:58Z</time>
      </trkpt>
      <trkpt lat="49.86093" lon="2.08762">
        <ele>122.9</ele>
        <time>2023-01-11T14:49:59Z</time>
      </trkpt>
      <trkpt lat="49.86093" lon="2.08763">
        <ele>122.9</ele>
        <time>2023-01-11T14:50:00Z</time>
      </trkpt>
      <trkpt lat="49.86093" lon="2.08765">
        <ele>122.9</ele>
        <time>2023-01-11T14:50:01Z</time>
      </trkpt>
      <trkpt lat="49.86093" lon="2.08767">
        <ele>122.9</ele>
        <time>2023-01-11T14:50:02Z</time>
      </trkpt>
      <trkpt lat="49.86093" lon="2.08769">
        <ele>122.9</ele>
        <time>2023-01-11T14:50:04Z</time>
      </trkpt>
      <trkpt lat="49.86093" lon="2.08771">
        <ele>122.9</ele>
        <time>2023-01-11T14:50:05Z</time>
      </trkpt>
      <trkpt lat="49.86093" lon="2.08772">
        <ele>122.9</ele>
        <time>2023-01-11T14:50:06Z</time>
      </trkpt>
      <trkpt lat="49.86093" lon="2.08774">
        <ele>122.9</ele>
        <time>2023-01-11T14:50:07Z</time>
      </trkpt>
      <trkpt lat="49.86093" lon="2.08777">
        <ele>123</ele>
        <time>2023-01-11T14:50:08Z</time>
      </trkpt>
      <trkpt lat="49.86093" lon="2.08779">
        <ele>123</ele>
        <time>2023-01-11T14:50:09Z</time>
      </trkpt>
      <trkpt lat="49.86093" lon="2.0878">
        <ele>123</ele>
        <time>2023-01-11T14:50:10Z</time>
      </trkpt>
      <trkpt lat="49.86093" lon="2.08783">
        <ele>123</ele>
        <time>2023-01-11T14:50:11Z</time>
      </trkpt>
      <trkpt lat="49.86093" lon="2.08784">
        <ele>123</ele>
        <time>2023-01-11T14:50:13Z</time>
      </trkpt>
      <trkpt lat="49.86093" lon="2.08786">
        <ele>123</ele>
        <time>2023-01-11T14:50:14Z</time>
      </trkpt>
      <trkpt lat="49.86094" lon="2.08789">
        <ele>123.1</ele>
        <time>2023-01-11T14:50:15Z</time>
      </trkpt>
      <trkpt lat="49.86094" lon="2.0879">
        <ele>123.1</ele>
        <time>2023-01-11T14:50:16Z</time>
      </trkpt>
      <trkpt lat="49.86094" lon="2.08791">
        <ele>123.1</ele>
        <time>2023-01-11T14:50:17Z</time>
      </trkpt>
      <trkpt lat="49.86095" lon="2.08794">
        <ele>123.1</ele>
        <time>2023-01-11T14:50:18Z</time>
      </trkpt>
      <trkpt lat="49.86095" lon="2.08796">
        <ele>123.1</ele>
        <time>2023-01-11T14:50:19Z</time>
      </trkpt>
      <trkpt lat="49.86095" lon="2.08797">
        <ele>123.1</ele>
        <time>2023-01-11T14:50:20Z</time>
      </trkpt>
      <trkpt lat="49.86095" lon="2.08799">
        <ele>123.2</ele>
        <time>2023-01-11T14:50:21Z</time>
      </trkpt>
      <trkpt lat="49.86095" lon="2.08801">
        <ele>123.2</ele>
        <time>2023-01-11T14:50:23Z</time>
      </trkpt>
      <trkpt lat="49.86096" lon="2.08802">
        <ele>123.2</ele>
        <time>2023-01-11T14:50:24Z</time>
      </trkpt>
      <trkpt lat="49.86096" lon="2.08803">
        <ele>123.2</ele>
        <time>2023-01-11T14:50:25Z</time>
      </trkpt>
      <trkpt lat="49.86095" lon="2.08805">
        <ele>123.2</ele>
        <time>2023-01-11T14:50:26Z</time>
      </trkpt>
      <trkpt lat="49.86095" lon="2.08807">
        <ele>123.2</ele>
        <time>2023-01-11T14:50:27Z</time>
      </trkpt>
      <trkpt lat="49.86095" lon="2.08808">
        <ele>123.2</ele>
        <time>2023-01-11T14:50:28Z</time>
      </trkpt>
      <trkpt lat="49.86094" lon="2.0881">
        <ele>123.3</ele>
        <time>2023-01-11T14:50:29Z</time>
      </trkpt>
      <trkpt lat="49.86093" lon="2.08812">
        <ele>123.3</ele>
        <time>2023-01-11T14:50:31Z</time>
      </trkpt>
      <trkpt lat="49.86093" lon="2.08813">
        <ele>123.3</ele>
        <time>2023-01-11T14:50:32Z</time>
      </trkpt>
      <trkpt lat="49.86092" lon="2.08814">
        <ele>123.3</ele>
        <time>2023-01-11T14:50:33Z</time>
      </trkpt>
      <trkpt lat="49.86091" lon="2.08815">
        <ele>123.3</ele>
        <time>2023-01-11T14:50:34Z</time>
      </trkpt>
      <trkpt lat="49.8609" lon="2.08816">
        <ele>123.3</ele>
        <time>2023-01-11T14:50:36Z</time>
      </trkpt>
      <trkpt lat="49.8609" lon="2.08817">
        <ele>123.3</ele>
        <time>2023-01-11T14:50:37Z</time>
      </trkpt>
      <trkpt lat="49.8609" lon="2.08819">
        <ele>123.4</ele>
        <time>2023-01-11T14:50:38Z</time>
      </trkpt>
      <trkpt lat="49.8609" lon="2.0882">
        <ele>123.4</ele>
        <time>2023-01-11T14:50:39Z</time>
      </trkpt>
      <trkpt lat="49.8609" lon="2.08821">
        <ele>123.4</ele>
        <time>2023-01-11T14:50:40Z</time>
      </trkpt>
      <trkpt lat="49.8609" lon="2.08821">
        <ele>123.4</ele>
        <time>2023-01-11T14:50:41Z</time>
      </trkpt>
      <trkpt lat="49.86089" lon="2.08821">
        <ele>123.4</ele>
        <time>2023-01-11T14:50:43Z</time>
      </trkpt>
      <trkpt lat="49.86088" lon="2.08821">
        <ele>123.4</ele>
        <time>2023-01-11T14:50:44Z</time>
      </trkpt>
      <trkpt lat="49.86087" lon="2.0882">
        <ele>123.4</ele>
        <time>2023-01-11T14:50:45Z</time>
      </trkpt>
      <trkpt lat="49.86086" lon="2.08819">
        <ele>123.4</ele>
        <time>2023-01-11T14:50:46Z</time>
      </trkpt>
      <trkpt lat="49.86084" lon="2.08817">
        <ele>123.3</ele>
        <time>2023-01-11T14:50:48Z</time>
      </trkpt>
      <trkpt lat="49.86084" lon="2.08817">
        <ele>123.3</ele>
        <time>2023-01-11T14:50:49Z</time>
      </trkpt>
      <trkpt lat="49.86083" lon="2.08816">
        <ele>123.3</ele>
        <time>2023-01-11T14:50:50Z</time>
      </trkpt>
      <trkpt lat="49.86081" lon="2.08814">
        <ele>123.3</ele>
        <time>2023-01-11T14:50:51Z</time>
      </trkpt>
      <trkpt lat="49.8608" lon="2.08813">
        <ele>123.3</ele>
        <time>2023-01-11T14:50:52Z</time>
      </trkpt>
      <trkpt lat="49.8608" lon="2.08813">
        <ele>123.2</ele>
        <time>2023-01-11T14:50:53Z</time>
      </trkpt>
      <trkpt lat="49.86079" lon="2.08812">
        <ele>123.2</ele>
        <time>2023-01-11T14:50:54Z</time>
      </trkpt>
      <trkpt lat="49.86078" lon="2.08811">
        <ele>123.2</ele>
        <time>2023-01-11T14:50:56Z</time>
      </trkpt>
      <trkpt lat="49.86076" lon="2.08811">
        <ele>123.2</ele>
        <time>2023-01-11T14:50:57Z</time>
      </trkpt>
      <trkpt lat="49.86074" lon="2.08811">
        <ele>123.2</ele>
        <time>2023-01-11T14:50:58Z</time>
      </trkpt>
      <trkpt lat="49.86074" lon="2.08811">
        <ele>123.2</ele>
        <time>2023-01-11T14:50:59Z</time>
      </trkpt>
      <trkpt lat="49.86073" lon="2.08811">
        <ele>123.2</ele>
        <time>2023-01-11T14:51:00Z</time>
      </trkpt>
      <trkpt lat="49.86071" lon="2.08811">
        <ele>123.2</ele>
        <time>2023-01-11T14:51:01Z</time>
      </trkpt>
      <trkpt lat="49.8607" lon="2.08811">
        <ele>123.2</ele>
        <time>2023-01-11T14:51:03Z</time>
      </trkpt>
      <trkpt lat="49.86069" lon="2.0881">
        <ele>123.2</ele>
        <time>2023-01-11T14:51:04Z</time>
      </trkpt>
      <trkpt lat="49.86067" lon="2.0881">
        <ele>123.1</ele>
        <time>2023-01-11T14:51:05Z</time>
      </trkpt>
      <trkpt lat="49.86066" lon="2.08809">
        <ele>123.1</ele>
        <time>2023-01-11T14:51:06Z</time>
      </trkpt>
      <trkpt lat="49.86065" lon="2.08809">
        <ele>123.1</ele>
        <time>2023-01-11T14:51:07Z</time>
      </trkpt>
      <trkpt lat="49.86063" lon="2.08809">
        <ele>123.1</ele>
        <time>2023-01-11T14:51:08Z</time>
      </trkpt>
      <trkpt lat="49.86062" lon="2.08808">
        <ele>123.1</ele>
        <time>2023-01-11T14:51:10Z</time>
      </trkpt>
      <trkpt lat="49.86061" lon="2.08808">
        <ele>123</ele>
        <time>2023-01-11T14:51:11Z</time>
      </trkpt>
      <trkpt lat="49.8606" lon="2.08808">
        <ele>123</ele>
        <time>2023-01-11T14:51:12Z</time>
      </trkpt>
      <trkpt lat="49.86058" lon="2.08808">
        <ele>123</ele>
        <time>2023-01-11T14:51:13Z</time>
      </trkpt>
      <trkpt lat="49.86057" lon="2.08807">
        <ele>123</ele>
        <time>2023-01-11T14:51:14Z</time>
      </trkpt>
      <trkpt lat="49.86056" lon="2.08807">
        <ele>123</ele>
        <time>2023-01-11T14:51:15Z</time>
      </trkpt>
      <trkpt lat="49.86055" lon="2.08807">
        <ele>123</ele>
        <time>2023-01-11T14:51:16Z</time>
      </trkpt>
      <trkpt lat="49.86054" lon="2.08806">
        <ele>123</ele>
        <time>2023-01-11T14:51:18Z</time>
      </trkpt>
      <trkpt lat="49.86053" lon="2.08806">
        <ele>122.9</ele>
        <time>2023-01-11T14:51:19Z</time>
      </trkpt>
      <trkpt lat="49.86052" lon="2.08805">
        <ele>122.9</ele>
        <time>2023-01-11T14:51:20Z</time>
      </trkpt>
      <trkpt lat="49.86051" lon="2.08805">
        <ele>122.9</ele>
        <time>2023-01-11T14:51:21Z</time>
      </trkpt>
      <trkpt lat="49.8605" lon="2.08805">
        <ele>122.9</ele>
        <time>2023-01-11T14:51:22Z</time>
      </trkpt>
      <trkpt lat="49.86049" lon="2.08805">
        <ele>122.8</ele>
        <time>2023-01-11T14:51:23Z</time>
      </trkpt>
      <trkpt lat="49.86047" lon="2.08803">
        <ele>122.8</ele>
        <time>2023-01-11T14:51:25Z</time>
      </trkpt>
      <trkpt lat="49.86046" lon="2.08803">
        <ele>122.8</ele>
        <time>2023-01-11T14:51:26Z</time>
      </trkpt>
      <trkpt lat="49.86045" lon="2.08802">
        <ele>122.8</ele>
        <time>2023-01-11T14:51:27Z</time>
      </trkpt>
      <trkpt lat="49.86044" lon="2.08802">
        <ele>122.8</ele>
        <time>2023-01-11T14:51:28Z</time>
      </trkpt>
      <trkpt lat="49.86043" lon="2.08801">
        <ele>122.8</ele>
        <time>2023-01-11T14:51:29Z</time>
      </trkpt>
      <trkpt lat="49.86042" lon="2.08801">
        <ele>122.7</ele>
        <time>2023-01-11T14:51:30Z</time>
      </trkpt>
      <trkpt lat="49.8604" lon="2.088">
        <ele>122.7</ele>
        <time>2023-01-11T14:51:31Z</time>
      </trkpt>
      <trkpt lat="49.86039" lon="2.088">
        <ele>122.7</ele>
        <time>2023-01-11T14:51:33Z</time>
      </trkpt>
      <trkpt lat="49.86038" lon="2.08799">
        <ele>122.7</ele>
        <time>2023-01-11T14:51:34Z</time>
      </trkpt>
      <trkpt lat="49.86037" lon="2.08798">
        <ele>122.7</ele>
        <time>2023-01-11T14:51:35Z</time>
      </trkpt>
      <trkpt lat="49.86036" lon="2.08798">
        <ele>122.6</ele>
        <time>2023-01-11T14:51:36Z</time>
      </trkpt>
      <trkpt lat="49.86035" lon="2.08797">
        <ele>122.6</ele>
        <time>2023-01-11T14:51:37Z</time>
      </trkpt>
      <trkpt lat="49.86034" lon="2.08796">
        <ele>122.6</ele>
        <time>2023-01-11T14:51:38Z</time>
      </trkpt>
      <trkpt lat="49.86033" lon="2.08795">
        <ele>122.5</ele>
        <time>2023-01-11T14:51:40Z</time>
      </trkpt>
      <trkpt lat="49.86032" lon="2.08795">
        <ele>122.5</ele>
        <time>2023-01-11T14:51:41Z</time>
      </trkpt>
      <trkpt lat="49.86031" lon="2.08794">
        <ele>122.5</ele>
        <time>2023-01-11T14:51:42Z</time>
      </trkpt>
      <trkpt lat="49.8603" lon="2.08794">
        <ele>122.5</ele>
        <time>2023-01-11T14:51:43Z</time>
      </trkpt>
      <trkpt lat="49.86029" lon="2.08794">
        <ele>122.5</ele>
        <time>2023-01-11T14:51:44Z</time>
      </trkpt>
      <trkpt lat="49.86028" lon="2.08795">
        <ele>122.5</ele>
        <time>2023-01-11T14:51:45Z</time>
      </trkpt>
      <trkpt lat="49.86027" lon="2.08795">
        <ele>122.5</ele>
        <time>2023-01-11T14:51:46Z</time>
      </trkpt>
      <trkpt lat="49.86026" lon="2.08795">
        <ele>122.5</ele>
        <time>2023-01-11T14:51:47Z</time>
      </trkpt>
      <trkpt lat="49.86024" lon="2.08795">
        <ele>122.4</ele>
        <time>2023-01-11T14:51:49Z</time>
      </trkpt>
      <trkpt lat="49.86023" lon="2.08795">
        <ele>122.4</ele>
        <time>2023-01-11T14:51:50Z</time>
      </trkpt>
      <trkpt lat="49.86022" lon="2.08795">
        <ele>122.4</ele>
        <time>2023-01-11T14:51:51Z</time>
      </trkpt>
      <trkpt lat="49.86021" lon="2.08795">
        <ele>122.4</ele>
        <time>2023-01-11T14:51:52Z</time>
      </trkpt>
      <trkpt lat="49.8602" lon="2.08795">
        <ele>122.3</ele>
        <time>2023-01-11T14:51:53Z</time>
      </trkpt>
      <trkpt lat="49.86019" lon="2.08795">
        <ele>122.3</ele>
        <time>2023-01-11T14:51:54Z</time>
      </trkpt>
      <trkpt lat="49.86018" lon="2.08796">
        <ele>122.3</ele>
        <time>2023-01-11T14:51:56Z</time>
      </trkpt>
      <trkpt lat="49.86016" lon="2.08796">
        <ele>122.3</ele>
        <time>2023-01-11T14:51:57Z</time>
      </trkpt>
      <trkpt lat="49.86015" lon="2.08796">
        <ele>122.3</ele>
        <time>2023-01-11T14:51:58Z</time>
      </trkpt>
      <trkpt lat="49.86014" lon="2.08796">
        <ele>122.3</ele>
        <time>2023-01-11T14:51:59Z</time>
      </trkpt>
      <trkpt lat="49.86013" lon="2.08796">
        <ele>122.3</ele>
        <time>2023-01-11T14:52:00Z</time>
      </trkpt>
      <trkpt lat="49.86012" lon="2.08797">
        <ele>122.3</ele>
        <time>2023-01-11T14:52:01Z</time>
      </trkpt>
      <trkpt lat="49.8601" lon="2.08798">
        <ele>122.3</ele>
        <time>2023-01-11T14:52:02Z</time>
      </trkpt>
      <trkpt lat="49.86009" lon="2.08798">
        <ele>122.3</ele>
        <time>2023-01-11T14:52:04Z</time>
      </trkpt>
      <trkpt lat="49.86009" lon="2.08798">
        <ele>122.2</ele>
        <time>2023-01-11T14:52:05Z</time>
      </trkpt>
      <trkpt lat="49.86007" lon="2.08798">
        <ele>122.2</ele>
        <time>2023-01-11T14:52:06Z</time>
      </trkpt>
      <trkpt lat="49.86006" lon="2.08799">
        <ele>122.2</ele>
        <time>2023-01-11T14:52:07Z</time>
      </trkpt>
      <trkpt lat="49.86005" lon="2.08799">
        <ele>122.2</ele>
        <time>2023-01-11T14:52:08Z</time>
      </trkpt>
      <trkpt lat="49.86004" lon="2.088">
        <ele>122.2</ele>
        <time>2023-01-11T14:52:09Z</time>
      </trkpt>
      <trkpt lat="49.86003" lon="2.088">
        <ele>122.2</ele>
        <time>2023-01-11T14:52:10Z</time>
      </trkpt>
      <trkpt lat="49.86002" lon="2.08801">
        <ele>122.2</ele>
        <time>2023-01-11T14:52:12Z</time>
      </trkpt>
      <trkpt lat="49.86001" lon="2.08801">
        <ele>122.2</ele>
        <time>2023-01-11T14:52:13Z</time>
      </trkpt>
      <trkpt lat="49.86" lon="2.08801">
        <ele>122.2</ele>
        <time>2023-01-11T14:52:14Z</time>
      </trkpt>
      <trkpt lat="49.85999" lon="2.08801">
        <ele>122.2</ele>
        <time>2023-01-11T14:52:15Z</time>
      </trkpt>
      <trkpt lat="49.85998" lon="2.08801">
        <ele>122.1</ele>
        <time>2023-01-11T14:52:16Z</time>
      </trkpt>
      <trkpt lat="49.85997" lon="2.08801">
        <ele>122.1</ele>
        <time>2023-01-11T14:52:17Z</time>
      </trkpt>
      <trkpt lat="49.85996" lon="2.08801">
        <ele>122.1</ele>
        <time>2023-01-11T14:52:18Z</time>
      </trkpt>
      <trkpt lat="49.85995" lon="2.08801">
        <ele>122.1</ele>
        <time>2023-01-11T14:52:20Z</time>
      </trkpt>
      <trkpt lat="49.85994" lon="2.08801">
        <ele>122.1</ele>
        <time>2023-01-11T14:52:21Z</time>
      </trkpt>
      <trkpt lat="49.85993" lon="2.088">
        <ele>122.1</ele>
        <time>2023-01-11T14:52:22Z</time>
      </trkpt>
      <trkpt lat="49.85992" lon="2.088">
        <ele>122.1</ele>
        <time>2023-01-11T14:52:23Z</time>
      </trkpt>
      <trkpt lat="49.85991" lon="2.088">
        <ele>122.1</ele>
        <time>2023-01-11T14:52:24Z</time>
      </trkpt>
      <trkpt lat="49.8599" lon="2.08799">
        <ele>122.1</ele>
        <time>2023-01-11T14:52:25Z</time>
      </trkpt>
      <trkpt lat="49.85988" lon="2.088">
        <ele>122.1</ele>
        <time>2023-01-11T14:52:27Z</time>
      </trkpt>
      <trkpt lat="49.85987" lon="2.088">
        <ele>122.1</ele>
        <time>2023-01-11T14:52:28Z</time>
      </trkpt>
      <trkpt lat="49.85986" lon="2.088">
        <ele>122.1</ele>
        <time>2023-01-11T14:52:29Z</time>
      </trkpt>
      <trkpt lat="49.85985" lon="2.088">
        <ele>122.1</ele>
        <time>2023-01-11T14:52:30Z</time>
      </trkpt>
      <trkpt lat="49.85984" lon="2.088">
        <ele>122.1</ele>
        <time>2023-01-11T14:52:31Z</time>
      </trkpt>
      <trkpt lat="49.85983" lon="2.088">
        <ele>122.1</ele>
        <time>2023-01-11T14:52:32Z</time>
      </trkpt>
      <trkpt lat="49.8598" lon="2.08801">
        <ele>122.1</ele>
        <time>2023-01-11T14:52:34Z</time>
      </trkpt>
      <trkpt lat="49.8598" lon="2.08801">
        <ele>122.1</ele>
        <time>2023-01-11T14:52:35Z</time>
      </trkpt>
      <trkpt lat="49.85979" lon="2.08802">
        <ele>122.1</ele>
        <time>2023-01-11T14:52:36Z</time>
      </trkpt>
      <trkpt lat="49.85978" lon="2.08802">
        <ele>122.1</ele>
        <time>2023-01-11T14:52:37Z</time>
      </trkpt>
      <trkpt lat="49.85977" lon="2.08803">
        <ele>122.1</ele>
        <time>2023-01-11T14:52:38Z</time>
      </trkpt>
      <trkpt lat="49.85976" lon="2.08803">
        <ele>122.1</ele>
        <time>2023-01-11T14:52:39Z</time>
      </trkpt>
      <trkpt lat="49.85975" lon="2.08804">
        <ele>122.1</ele>
        <time>2023-01-11T14:52:40Z</time>
      </trkpt>
      <trkpt lat="49.85974" lon="2.08804">
        <ele>122.1</ele>
        <time>2023-01-11T14:52:42Z</time>
      </trkpt>
      <trkpt lat="49.85973" lon="2.08805">
        <ele>122.2</ele>
        <time>2023-01-11T14:52:43Z</time>
      </trkpt>
      <trkpt lat="49.85972" lon="2.08805">
        <ele>122.2</ele>
        <time>2023-01-11T14:52:44Z</time>
      </trkpt>
      <trkpt lat="49.8597" lon="2.08805">
        <ele>122.2</ele>
        <time>2023-01-11T14:52:45Z</time>
      </trkpt>
      <trkpt lat="49.85969" lon="2.08805">
        <ele>122.2</ele>
        <time>2023-01-11T14:52:46Z</time>
      </trkpt>
      <trkpt lat="49.85969" lon="2.08805">
        <ele>122.2</ele>
        <time>2023-01-11T14:52:47Z</time>
      </trkpt>
      <trkpt lat="49.85968" lon="2.08806">
        <ele>122.2</ele>
        <time>2023-01-11T14:52:48Z</time>
      </trkpt>
      <trkpt lat="49.85966" lon="2.08806">
        <ele>122.2</ele>
        <time>2023-01-11T14:52:49Z</time>
      </trkpt>
      <trkpt lat="49.85964" lon="2.08806">
        <ele>122.2</ele>
        <time>2023-01-11T14:52:50Z</time>
      </trkpt>
      <trkpt lat="49.85963" lon="2.08806">
        <ele>122.2</ele>
        <time>2023-01-11T14:52:52Z</time>
      </trkpt>
      <trkpt lat="49.85963" lon="2.08806">
        <ele>122.2</ele>
        <time>2023-01-11T14:52:53Z</time>
      </trkpt>
      <trkpt lat="49.85961" lon="2.08807">
        <ele>122.3</ele>
        <time>2023-01-11T14:52:54Z</time>
      </trkpt>
      <trkpt lat="49.8596" lon="2.08807">
        <ele>122.3</ele>
        <time>2023-01-11T14:52:55Z</time>
      </trkpt>
      <trkpt lat="49.85959" lon="2.08807">
        <ele>122.3</ele>
        <time>2023-01-11T14:52:56Z</time>
      </trkpt>
      <trkpt lat="49.85958" lon="2.08807">
        <ele>122.3</ele>
        <time>2023-01-11T14:52:57Z</time>
      </trkpt>
      <trkpt lat="49.85957" lon="2.08807">
        <ele>122.3</ele>
        <time>2023-01-11T14:52:58Z</time>
      </trkpt>
      <trkpt lat="49.85956" lon="2.08808">
        <ele>122.3</ele>
        <time>2023-01-11T14:52:59Z</time>
      </trkpt>
      <trkpt lat="49.85954" lon="2.08808">
        <ele>122.4</ele>
        <time>2023-01-11T14:53:01Z</time>
      </trkpt>
      <trkpt lat="49.85953" lon="2.08808">
        <ele>122.4</ele>
        <time>2023-01-11T14:53:02Z</time>
      </trkpt>
      <trkpt lat="49.85952" lon="2.08808">
        <ele>122.4</ele>
        <time>2023-01-11T14:53:03Z</time>
      </trkpt>
      <trkpt lat="49.85951" lon="2.08808">
        <ele>122.4</ele>
        <time>2023-01-11T14:53:04Z</time>
      </trkpt>
      <trkpt lat="49.8595" lon="2.08807">
        <ele>122.4</ele>
        <time>2023-01-11T14:53:05Z</time>
      </trkpt>
      <trkpt lat="49.85949" lon="2.08807">
        <ele>122.4</ele>
        <time>2023-01-11T14:53:06Z</time>
      </trkpt>
      <trkpt lat="49.85948" lon="2.08807">
        <ele>122.4</ele>
        <time>2023-01-11T14:53:07Z</time>
      </trkpt>
      <trkpt lat="49.85946" lon="2.08807">
        <ele>122.4</ele>
        <time>2023-01-11T14:53:08Z</time>
      </trkpt>
      <trkpt lat="49.85945" lon="2.08807">
        <ele>122.5</ele>
        <time>2023-01-11T14:53:10Z</time>
      </trkpt>
      <trkpt lat="49.85944" lon="2.08807">
        <ele>122.5</ele>
        <time>2023-01-11T14:53:11Z</time>
      </trkpt>
      <trkpt lat="49.85943" lon="2.08807">
        <ele>122.5</ele>
        <time>2023-01-11T14:53:12Z</time>
      </trkpt>
      <trkpt lat="49.85942" lon="2.08807">
        <ele>122.5</ele>
        <time>2023-01-11T14:53:13Z</time>
      </trkpt>
      <trkpt lat="49.8594" lon="2.08808">
        <ele>122.5</ele>
        <time>2023-01-11T14:53:14Z</time>
      </trkpt>
      <trkpt lat="49.85939" lon="2.08808">
        <ele>122.6</ele>
        <time>2023-01-11T14:53:15Z</time>
      </trkpt>
      <trkpt lat="49.85938" lon="2.08808">
        <ele>122.6</ele>
        <time>2023-01-11T14:53:16Z</time>
      </trkpt>
      <trkpt lat="49.85937" lon="2.08808">
        <ele>122.6</ele>
        <time>2023-01-11T14:53:18Z</time>
      </trkpt>
      <trkpt lat="49.85935" lon="2.08809">
        <ele>122.6</ele>
        <time>2023-01-11T14:53:19Z</time>
      </trkpt>
      <trkpt lat="49.85933" lon="2.08809">
        <ele>122.6</ele>
        <time>2023-01-11T14:53:20Z</time>
      </trkpt>
      <trkpt lat="49.85932" lon="2.0881">
        <ele>122.6</ele>
        <time>2023-01-11T14:53:21Z</time>
      </trkpt>
      <trkpt lat="49.85932" lon="2.0881">
        <ele>122.7</ele>
        <time>2023-01-11T14:53:22Z</time>
      </trkpt>
      <trkpt lat="49.8593" lon="2.08811">
        <ele>122.7</ele>
        <time>2023-01-11T14:53:23Z</time>
      </trkpt>
      <trkpt lat="49.85929" lon="2.08811">
        <ele>122.7</ele>
        <time>2023-01-11T14:53:24Z</time>
      </trkpt>
      <trkpt lat="49.85928" lon="2.08811">
        <ele>122.7</ele>
        <time>2023-01-11T14:53:26Z</time>
      </trkpt>
      <trkpt lat="49.85926" lon="2.08811">
        <ele>122.8</ele>
        <time>2023-01-11T14:53:27Z</time>
      </trkpt>
      <trkpt lat="49.85925" lon="2.08811">
        <ele>122.8</ele>
        <time>2023-01-11T14:53:28Z</time>
      </trkpt>
      <trkpt lat="49.85924" lon="2.08812">
        <ele>122.8</ele>
        <time>2023-01-11T14:53:29Z</time>
      </trkpt>
      <trkpt lat="49.85923" lon="2.08812">
        <ele>122.8</ele>
        <time>2023-01-11T14:53:30Z</time>
      </trkpt>
      <trkpt lat="49.85922" lon="2.08812">
        <ele>122.8</ele>
        <time>2023-01-11T14:53:31Z</time>
      </trkpt>
      <trkpt lat="49.85921" lon="2.08813">
        <ele>122.8</ele>
        <time>2023-01-11T14:53:32Z</time>
      </trkpt>
      <trkpt lat="49.85919" lon="2.08813">
        <ele>122.8</ele>
        <time>2023-01-11T14:53:34Z</time>
      </trkpt>
      <trkpt lat="49.85919" lon="2.08813">
        <ele>122.8</ele>
        <time>2023-01-11T14:53:35Z</time>
      </trkpt>
      <trkpt lat="49.85918" lon="2.08814">
        <ele>122.8</ele>
        <time>2023-01-11T14:53:36Z</time>
      </trkpt>
      <trkpt lat="49.85916" lon="2.08814">
        <ele>122.8</ele>
        <time>2023-01-11T14:53:37Z</time>
      </trkpt>
      <trkpt lat="49.85915" lon="2.08814">
        <ele>122.8</ele>
        <time>2023-01-11T14:53:38Z</time>
      </trkpt>
      <trkpt lat="49.85915" lon="2.08814">
        <ele>122.9</ele>
        <time>2023-01-11T14:53:39Z</time>
      </trkpt>
      <trkpt lat="49.85914" lon="2.08814">
        <ele>122.9</ele>
        <time>2023-01-11T14:53:40Z</time>
      </trkpt>
      <trkpt lat="49.85913" lon="2.08814">
        <ele>122.9</ele>
        <time>2023-01-11T14:53:41Z</time>
      </trkpt>
      <trkpt lat="49.85912" lon="2.08814">
        <ele>122.9</ele>
        <time>2023-01-11T14:53:43Z</time>
      </trkpt>
      <trkpt lat="49.8591" lon="2.08814">
        <ele>122.9</ele>
        <time>2023-01-11T14:53:44Z</time>
      </trkpt>
      <trkpt lat="49.85909" lon="2.08815">
        <ele>122.9</ele>
        <time>2023-01-11T14:53:45Z</time>
      </trkpt>
      <trkpt lat="49.85908" lon="2.08815">
        <ele>122.9</ele>
        <time>2023-01-11T14:53:46Z</time>
      </trkpt>
      <trkpt lat="49.85907" lon="2.08815">
        <ele>122.9</ele>
        <time>2023-01-11T14:53:47Z</time>
      </trkpt>
      <trkpt lat="49.85906" lon="2.08815">
        <ele>122.9</ele>
        <time>2023-01-11T14:53:48Z</time>
      </trkpt>
      <trkpt lat="49.85905" lon="2.08815">
        <ele>122.9</ele>
        <time>2023-01-11T14:53:49Z</time>
      </trkpt>
      <trkpt lat="49.85903" lon="2.08815">
        <ele>123</ele>
        <time>2023-01-11T14:53:51Z</time>
      </trkpt>
      <trkpt lat="49.85902" lon="2.08816">
        <ele>123</ele>
        <time>2023-01-11T14:53:52Z</time>
      </trkpt>
      <trkpt lat="49.859" lon="2.08816">
        <ele>123</ele>
        <time>2023-01-11T14:53:53Z</time>
      </trkpt>
      <trkpt lat="49.859" lon="2.08816">
        <ele>123</ele>
        <time>2023-01-11T14:53:54Z</time>
      </trkpt>
      <trkpt lat="49.85899" lon="2.08816">
        <ele>123</ele>
        <time>2023-01-11T14:53:55Z</time>
      </trkpt>
      <trkpt lat="49.85897" lon="2.08816">
        <ele>123</ele>
        <time>2023-01-11T14:53:56Z</time>
      </trkpt>
      <trkpt lat="49.85895" lon="2.08817">
        <ele>123</ele>
        <time>2023-01-11T14:53:57Z</time>
      </trkpt>
      <trkpt lat="49.85895" lon="2.08817">
        <ele>123</ele>
        <time>2023-01-11T14:53:59Z</time>
      </trkpt>
      <trkpt lat="49.85894" lon="2.08817">
        <ele>123</ele>
        <time>2023-01-11T14:54:00Z</time>
      </trkpt>
      <trkpt lat="49.85893" lon="2.08818">
        <ele>123</ele>
        <time>2023-01-11T14:54:01Z</time>
      </trkpt>
      <trkpt lat="49.85891" lon="2.08818">
        <ele>123</ele>
        <time>2023-01-11T14:54:02Z</time>
      </trkpt>
      <trkpt lat="49.8589" lon="2.08818">
        <ele>123</ele>
        <time>2023-01-11T14:54:03Z</time>
      </trkpt>
      <trkpt lat="49.85889" lon="2.08818">
        <ele>123</ele>
        <time>2023-01-11T14:54:04Z</time>
      </trkpt>
      <trkpt lat="49.85888" lon="2.08819">
        <ele>122.9</ele>
        <time>2023-01-11T14:54:06Z</time>
      </trkpt>
      <trkpt lat="49.85887" lon="2.08819">
        <ele>122.9</ele>
        <time>2023-01-11T14:54:07Z</time>
      </trkpt>
      <trkpt lat="49.85886" lon="2.08819">
        <ele>122.9</ele>
        <time>2023-01-11T14:54:08Z</time>
      </trkpt>
      <trkpt lat="49.85885" lon="2.08819">
        <ele>122.9</ele>
        <time>2023-01-11T14:54:09Z</time>
      </trkpt>
      <trkpt lat="49.85884" lon="2.08818">
        <ele>122.9</ele>
        <time>2023-01-11T14:54:10Z</time>
      </trkpt>
      <trkpt lat="49.85883" lon="2.08818">
        <ele>122.9</ele>
        <time>2023-01-11T14:54:11Z</time>
      </trkpt>
      <trkpt lat="49.85882" lon="2.08818">
        <ele>122.9</ele>
        <time>2023-01-11T14:54:13Z</time>
      </trkpt>
      <trkpt lat="49.85881" lon="2.08818">
        <ele>122.9</ele>
        <time>2023-01-11T14:54:14Z</time>
      </trkpt>
      <trkpt lat="49.8588" lon="2.08818">
        <ele>122.9</ele>
        <time>2023-01-11T14:54:15Z</time>
      </trkpt>
      <trkpt lat="49.85879" lon="2.08818">
        <ele>122.9</ele>
        <time>2023-01-11T14:54:16Z</time>
      </trkpt>
      <trkpt lat="49.85878" lon="2.08818">
        <ele>122.9</ele>
        <time>2023-01-11T14:54:17Z</time>
      </trkpt>
      <trkpt lat="49.85877" lon="2.08818">
        <ele>122.9</ele>
        <time>2023-01-11T14:54:18Z</time>
      </trkpt>
      <trkpt lat="49.85876" lon="2.08818">
        <ele>122.9</ele>
        <time>2023-01-11T14:54:19Z</time>
      </trkpt>
      <trkpt lat="49.85875" lon="2.08818">
        <ele>122.9</ele>
        <time>2023-01-11T14:54:20Z</time>
      </trkpt>
      <trkpt lat="49.85873" lon="2.08818">
        <ele>122.9</ele>
        <time>2023-01-11T14:54:22Z</time>
      </trkpt>
      <trkpt lat="49.85872" lon="2.08818">
        <ele>122.9</ele>
        <time>2023-01-11T14:54:23Z</time>
      </trkpt>
      <trkpt lat="49.85871" lon="2.08818">
        <ele>122.9</ele>
        <time>2023-01-11T14:54:24Z</time>
      </trkpt>
      <trkpt lat="49.8587" lon="2.08819">
        <ele>122.9</ele>
        <time>2023-01-11T14:54:25Z</time>
      </trkpt>
      <trkpt lat="49.85869" lon="2.08819">
        <ele>122.9</ele>
        <time>2023-01-11T14:54:26Z</time>
      </trkpt>
      <trkpt lat="49.85868" lon="2.08819">
        <ele>122.9</ele>
        <time>2023-01-11T14:54:27Z</time>
      </trkpt>
      <trkpt lat="49.85867" lon="2.0882">
        <ele>122.9</ele>
        <time>2023-01-11T14:54:29Z</time>
      </trkpt>
      <trkpt lat="49.85866" lon="2.0882">
        <ele>122.9</ele>
        <time>2023-01-11T14:54:30Z</time>
      </trkpt>
      <trkpt lat="49.85864" lon="2.0882">
        <ele>122.9</ele>
        <time>2023-01-11T14:54:31Z</time>
      </trkpt>
      <trkpt lat="49.85863" lon="2.0882">
        <ele>122.9</ele>
        <time>2023-01-11T14:54:32Z</time>
      </trkpt>
      <trkpt lat="49.85862" lon="2.08821">
        <ele>122.9</ele>
        <time>2023-01-11T14:54:33Z</time>
      </trkpt>
      <trkpt lat="49.85861" lon="2.08821">
        <ele>122.8</ele>
        <time>2023-01-11T14:54:34Z</time>
      </trkpt>
      <trkpt lat="49.8586" lon="2.08821">
        <ele>122.8</ele>
        <time>2023-01-11T14:54:35Z</time>
      </trkpt>
      <trkpt lat="49.85859" lon="2.08821">
        <ele>122.7</ele>
        <time>2023-01-11T14:54:37Z</time>
      </trkpt>
      <trkpt lat="49.85857" lon="2.08822">
        <ele>122.7</ele>
        <time>2023-01-11T14:54:38Z</time>
      </trkpt>
      <trkpt lat="49.85856" lon="2.08822">
        <ele>122.7</ele>
        <time>2023-01-11T14:54:39Z</time>
      </trkpt>
      <trkpt lat="49.85855" lon="2.08822">
        <ele>122.7</ele>
        <time>2023-01-11T14:54:40Z</time>
      </trkpt>
      <trkpt lat="49.85854" lon="2.08823">
        <ele>122.7</ele>
        <time>2023-01-11T14:54:41Z</time>
      </trkpt>
      <trkpt lat="49.85853" lon="2.08823">
        <ele>122.7</ele>
        <time>2023-01-11T14:54:42Z</time>
      </trkpt>
      <trkpt lat="49.85852" lon="2.08823">
        <ele>122.7</ele>
        <time>2023-01-11T14:54:43Z</time>
      </trkpt>
      <trkpt lat="49.85851" lon="2.08823">
        <ele>122.7</ele>
        <time>2023-01-11T14:54:44Z</time>
      </trkpt>
      <trkpt lat="49.8585" lon="2.08824">
        <ele>122.7</ele>
        <time>2023-01-11T14:54:46Z</time>
      </trkpt>
      <trkpt lat="49.85849" lon="2.08824">
        <ele>122.7</ele>
        <time>2023-01-11T14:54:47Z</time>
      </trkpt>
      <trkpt lat="49.85847" lon="2.08824">
        <ele>122.7</ele>
        <time>2023-01-11T14:54:48Z</time>
      </trkpt>
      <trkpt lat="49.85846" lon="2.08824">
        <ele>122.7</ele>
        <time>2023-01-11T14:54:49Z</time>
      </trkpt>
      <trkpt lat="49.85845" lon="2.08824">
        <ele>122.7</ele>
        <time>2023-01-11T14:54:50Z</time>
      </trkpt>
      <trkpt lat="49.85844" lon="2.08824">
        <ele>122.7</ele>
        <time>2023-01-11T14:54:51Z</time>
      </trkpt>
      <trkpt lat="49.85843" lon="2.08824">
        <ele>122.7</ele>
        <time>2023-01-11T14:54:52Z</time>
      </trkpt>
      <trkpt lat="49.85842" lon="2.08824">
        <ele>122.7</ele>
        <time>2023-01-11T14:54:53Z</time>
      </trkpt>
      <trkpt lat="49.85839" lon="2.08824">
        <ele>122.7</ele>
        <time>2023-01-11T14:54:55Z</time>
      </trkpt>
      <trkpt lat="49.85839" lon="2.08824">
        <ele>122.7</ele>
        <time>2023-01-11T14:54:56Z</time>
      </trkpt>
      <trkpt lat="49.85838" lon="2.08824">
        <ele>122.7</ele>
        <time>2023-01-11T14:54:57Z</time>
      </trkpt>
      <trkpt lat="49.85836" lon="2.08824">
        <ele>122.7</ele>
        <time>2023-01-11T14:54:58Z</time>
      </trkpt>
      <trkpt lat="49.85835" lon="2.08824">
        <ele>122.7</ele>
        <time>2023-01-11T14:54:59Z</time>
      </trkpt>
      <trkpt lat="49.85834" lon="2.08825">
        <ele>122.7</ele>
        <time>2023-01-11T14:55:00Z</time>
      </trkpt>
      <trkpt lat="49.85832" lon="2.08825">
        <ele>122.7</ele>
        <time>2023-01-11T14:55:01Z</time>
      </trkpt>
      <trkpt lat="49.85831" lon="2.08825">
        <ele>122.6</ele>
        <time>2023-01-11T14:55:03Z</time>
      </trkpt>
      <trkpt lat="49.8583" lon="2.08826">
        <ele>122.6</ele>
        <time>2023-01-11T14:55:04Z</time>
      </trkpt>
      <trkpt lat="49.85828" lon="2.08826">
        <ele>122.6</ele>
        <time>2023-01-11T14:55:05Z</time>
      </trkpt>
      <trkpt lat="49.85828" lon="2.08826">
        <ele>122.6</ele>
        <time>2023-01-11T14:55:06Z</time>
      </trkpt>
      <trkpt lat="49.85827" lon="2.08826">
        <ele>122.6</ele>
        <time>2023-01-11T14:55:07Z</time>
      </trkpt>
      <trkpt lat="49.85825" lon="2.08826">
        <ele>122.6</ele>
        <time>2023-01-11T14:55:08Z</time>
      </trkpt>
      <trkpt lat="49.85824" lon="2.08826">
        <ele>122.7</ele>
        <time>2023-01-11T14:55:10Z</time>
      </trkpt>
      <trkpt lat="49.85823" lon="2.08826">
        <ele>122.7</ele>
        <time>2023-01-11T14:55:11Z</time>
      </trkpt>
      <trkpt lat="49.85822" lon="2.08827">
        <ele>122.7</ele>
        <time>2023-01-11T14:55:12Z</time>
      </trkpt>
      <trkpt lat="49.85821" lon="2.08827">
        <ele>122.7</ele>
        <time>2023-01-11T14:55:13Z</time>
      </trkpt>
      <trkpt lat="49.8582" lon="2.08827">
        <ele>122.7</ele>
        <time>2023-01-11T14:55:14Z</time>
      </trkpt>
      <trkpt lat="49.85819" lon="2.08828">
        <ele>122.7</ele>
        <time>2023-01-11T14:55:15Z</time>
      </trkpt>
      <trkpt lat="49.85818" lon="2.08828">
        <ele>122.7</ele>
        <time>2023-01-11T14:55:16Z</time>
      </trkpt>
      <trkpt lat="49.85816" lon="2.08829">
        <ele>122.7</ele>
        <time>2023-01-11T14:55:17Z</time>
      </trkpt>
      <trkpt lat="49.85814" lon="2.08829">
        <ele>122.7</ele>
        <time>2023-01-11T14:55:18Z</time>
      </trkpt>
      <trkpt lat="49.85813" lon="2.0883">
        <ele>122.7</ele>
        <time>2023-01-11T14:55:20Z</time>
      </trkpt>
      <trkpt lat="49.85813" lon="2.0883">
        <ele>122.7</ele>
        <time>2023-01-11T14:55:21Z</time>
      </trkpt>
      <trkpt lat="49.8581" lon="2.0883">
        <ele>122.7</ele>
        <time>2023-01-11T14:55:22Z</time>
      </trkpt>
      <trkpt lat="49.8581" lon="2.08831">
        <ele>122.8</ele>
        <time>2023-01-11T14:55:23Z</time>
      </trkpt>
      <trkpt lat="49.85809" lon="2.08831">
        <ele>122.8</ele>
        <time>2023-01-11T14:55:24Z</time>
      </trkpt>
      <trkpt lat="49.85808" lon="2.08831">
        <ele>122.8</ele>
        <time>2023-01-11T14:55:25Z</time>
      </trkpt>
      <trkpt lat="49.85806" lon="2.08831">
        <ele>122.8</ele>
        <time>2023-01-11T14:55:26Z</time>
      </trkpt>
      <trkpt lat="49.85805" lon="2.08831">
        <ele>122.8</ele>
        <time>2023-01-11T14:55:28Z</time>
      </trkpt>
      <trkpt lat="49.85804" lon="2.08832">
        <ele>122.8</ele>
        <time>2023-01-11T14:55:29Z</time>
      </trkpt>
      <trkpt lat="49.85802" lon="2.08832">
        <ele>122.8</ele>
        <time>2023-01-11T14:55:30Z</time>
      </trkpt>
      <trkpt lat="49.85801" lon="2.08832">
        <ele>122.7</ele>
        <time>2023-01-11T14:55:31Z</time>
      </trkpt>
      <trkpt lat="49.858" lon="2.08832">
        <ele>122.7</ele>
        <time>2023-01-11T14:55:32Z</time>
      </trkpt>
      <trkpt lat="49.85799" lon="2.08832">
        <ele>122.7</ele>
        <time>2023-01-11T14:55:33Z</time>
      </trkpt>
      <trkpt lat="49.85798" lon="2.08832">
        <ele>122.7</ele>
        <time>2023-01-11T14:55:34Z</time>
      </trkpt>
      <trkpt lat="49.85797" lon="2.08833">
        <ele>122.7</ele>
        <time>2023-01-11T14:55:36Z</time>
      </trkpt>
      <trkpt lat="49.85795" lon="2.08833">
        <ele>122.8</ele>
        <time>2023-01-11T14:55:37Z</time>
      </trkpt>
      <trkpt lat="49.85794" lon="2.08833">
        <ele>122.8</ele>
        <time>2023-01-11T14:55:38Z</time>
      </trkpt>
      <trkpt lat="49.85793" lon="2.08833">
        <ele>122.8</ele>
        <time>2023-01-11T14:55:39Z</time>
      </trkpt>
      <trkpt lat="49.85792" lon="2.08833">
        <ele>122.8</ele>
        <time>2023-01-11T14:55:40Z</time>
      </trkpt>
      <trkpt lat="49.85791" lon="2.08833">
        <ele>122.8</ele>
        <time>2023-01-11T14:55:41Z</time>
      </trkpt>
      <trkpt lat="49.8579" lon="2.08834">
        <ele>122.8</ele>
        <time>2023-01-11T14:55:43Z</time>
      </trkpt>
      <trkpt lat="49.85789" lon="2.08834">
        <ele>122.8</ele>
        <time>2023-01-11T14:55:44Z</time>
      </trkpt>
      <trkpt lat="49.85788" lon="2.08834">
        <ele>122.9</ele>
        <time>2023-01-11T14:55:45Z</time>
      </trkpt>
      <trkpt lat="49.85786" lon="2.08834">
        <ele>122.9</ele>
        <time>2023-01-11T14:55:46Z</time>
      </trkpt>
      <trkpt lat="49.85785" lon="2.08835">
        <ele>122.9</ele>
        <time>2023-01-11T14:55:47Z</time>
      </trkpt>
      <trkpt lat="49.85784" lon="2.08835">
        <ele>122.9</ele>
        <time>2023-01-11T14:55:48Z</time>
      </trkpt>
      <trkpt lat="49.85783" lon="2.08835">
        <ele>122.9</ele>
        <time>2023-01-11T14:55:49Z</time>
      </trkpt>
      <trkpt lat="49.85782" lon="2.08836">
        <ele>122.9</ele>
        <time>2023-01-11T14:55:50Z</time>
      </trkpt>
      <trkpt lat="49.85781" lon="2.08836">
        <ele>122.9</ele>
        <time>2023-01-11T14:55:52Z</time>
      </trkpt>
      <trkpt lat="49.8578" lon="2.08836">
        <ele>122.9</ele>
        <time>2023-01-11T14:55:53Z</time>
      </trkpt>
      <trkpt lat="49.85779" lon="2.08836">
        <ele>123</ele>
        <time>2023-01-11T14:55:54Z</time>
      </trkpt>
      <trkpt lat="49.85778" lon="2.08836">
        <ele>123</ele>
        <time>2023-01-11T14:55:55Z</time>
      </trkpt>
      <trkpt lat="49.85777" lon="2.08836">
        <ele>123</ele>
        <time>2023-01-11T14:55:56Z</time>
      </trkpt>
      <trkpt lat="49.85776" lon="2.08836">
        <ele>123</ele>
        <time>2023-01-11T14:55:57Z</time>
      </trkpt>
      <trkpt lat="49.85775" lon="2.08836">
        <ele>123</ele>
        <time>2023-01-11T14:55:58Z</time>
      </trkpt>
      <trkpt lat="49.85773" lon="2.08836">
        <ele>123</ele>
        <time>2023-01-11T14:56:00Z</time>
      </trkpt>
      <trkpt lat="49.85772" lon="2.08836">
        <ele>123</ele>
        <time>2023-01-11T14:56:01Z</time>
      </trkpt>
      <trkpt lat="49.85771" lon="2.08836">
        <ele>123.1</ele>
        <time>2023-01-11T14:56:02Z</time>
      </trkpt>
      <trkpt lat="49.8577" lon="2.08836">
        <ele>123.1</ele>
        <time>2023-01-11T14:56:03Z</time>
      </trkpt>
      <trkpt lat="49.85769" lon="2.08836">
        <ele>123.1</ele>
        <time>2023-01-11T14:56:04Z</time>
      </trkpt>
      <trkpt lat="49.85768" lon="2.08836">
        <ele>123.1</ele>
        <time>2023-01-11T14:56:05Z</time>
      </trkpt>
      <trkpt lat="49.85767" lon="2.08836">
        <ele>123.1</ele>
        <time>2023-01-11T14:56:06Z</time>
      </trkpt>
      <trkpt lat="49.85765" lon="2.08836">
        <ele>123.1</ele>
        <time>2023-01-11T14:56:08Z</time>
      </trkpt>
      <trkpt lat="49.85764" lon="2.08836">
        <ele>123.1</ele>
        <time>2023-01-11T14:56:09Z</time>
      </trkpt>
      <trkpt lat="49.85763" lon="2.08835">
        <ele>123.1</ele>
        <time>2023-01-11T14:56:10Z</time>
      </trkpt>
      <trkpt lat="49.85763" lon="2.08836">
        <ele>123.2</ele>
        <time>2023-01-11T14:56:11Z</time>
      </trkpt>
      <trkpt lat="49.85761" lon="2.08836">
        <ele>123.2</ele>
        <time>2023-01-11T14:56:12Z</time>
      </trkpt>
      <trkpt lat="49.8576" lon="2.08836">
        <ele>123.2</ele>
        <time>2023-01-11T14:56:13Z</time>
      </trkpt>
      <trkpt lat="49.85759" lon="2.08837">
        <ele>123.2</ele>
        <time>2023-01-11T14:56:14Z</time>
      </trkpt>
      <trkpt lat="49.85758" lon="2.08837">
        <ele>123.2</ele>
        <time>2023-01-11T14:56:16Z</time>
      </trkpt>
      <trkpt lat="49.85757" lon="2.08837">
        <ele>123.2</ele>
        <time>2023-01-11T14:56:17Z</time>
      </trkpt>
      <trkpt lat="49.85756" lon="2.08837">
        <ele>123.2</ele>
        <time>2023-01-11T14:56:18Z</time>
      </trkpt>
      <trkpt lat="49.85755" lon="2.08838">
        <ele>123.3</ele>
        <time>2023-01-11T14:56:19Z</time>
      </trkpt>
      <trkpt lat="49.85754" lon="2.08839">
        <ele>123.3</ele>
        <time>2023-01-11T14:56:20Z</time>
      </trkpt>
      <trkpt lat="49.85753" lon="2.08839">
        <ele>123.3</ele>
        <time>2023-01-11T14:56:21Z</time>
      </trkpt>
      <trkpt lat="49.85751" lon="2.08839">
        <ele>123.3</ele>
        <time>2023-01-11T14:56:22Z</time>
      </trkpt>
      <trkpt lat="49.85749" lon="2.08839">
        <ele>123.3</ele>
        <time>2023-01-11T14:56:23Z</time>
      </trkpt>
      <trkpt lat="49.85749" lon="2.08838">
        <ele>123.4</ele>
        <time>2023-01-11T14:56:25Z</time>
      </trkpt>
      <trkpt lat="49.85748" lon="2.08838">
        <ele>123.4</ele>
        <time>2023-01-11T14:56:26Z</time>
      </trkpt>
      <trkpt lat="49.85747" lon="2.08838">
        <ele>123.4</ele>
        <time>2023-01-11T14:56:27Z</time>
      </trkpt>
      <trkpt lat="49.85746" lon="2.08837">
        <ele>123.4</ele>
        <time>2023-01-11T14:56:28Z</time>
      </trkpt>
      <trkpt lat="49.85745" lon="2.08837">
        <ele>123.4</ele>
        <time>2023-01-11T14:56:29Z</time>
      </trkpt>
      <trkpt lat="49.85744" lon="2.08837">
        <ele>123.4</ele>
        <time>2023-01-11T14:56:30Z</time>
      </trkpt>
      <trkpt lat="49.85742" lon="2.08837">
        <ele>123.4</ele>
        <time>2023-01-11T14:56:31Z</time>
      </trkpt>
      <trkpt lat="49.85741" lon="2.08838">
        <ele>123.4</ele>
        <time>2023-01-11T14:56:32Z</time>
      </trkpt>
      <trkpt lat="49.85739" lon="2.08837">
        <ele>123.5</ele>
        <time>2023-01-11T14:56:34Z</time>
      </trkpt>
      <trkpt lat="49.85738" lon="2.08837">
        <ele>123.5</ele>
        <time>2023-01-11T14:56:35Z</time>
      </trkpt>
      <trkpt lat="49.85737" lon="2.08837">
        <ele>123.5</ele>
        <time>2023-01-11T14:56:36Z</time>
      </trkpt>
      <trkpt lat="49.85736" lon="2.08837">
        <ele>123.5</ele>
        <time>2023-01-11T14:56:37Z</time>
      </trkpt>
      <trkpt lat="49.85735" lon="2.08837">
        <ele>123.6</ele>
        <time>2023-01-11T14:56:38Z</time>
      </trkpt>
      <trkpt lat="49.85734" lon="2.08836">
        <ele>123.6</ele>
        <time>2023-01-11T14:56:39Z</time>
      </trkpt>
      <trkpt lat="49.85732" lon="2.08834">
        <ele>123.6</ele>
        <time>2023-01-11T14:56:40Z</time>
      </trkpt>
      <trkpt lat="49.85731" lon="2.08834">
        <ele>123.6</ele>
        <time>2023-01-11T14:56:41Z</time>
      </trkpt>
      <trkpt lat="49.85731" lon="2.08833">
        <ele>123.6</ele>
        <time>2023-01-11T14:56:42Z</time>
      </trkpt>
      <trkpt lat="49.85728" lon="2.08833">
        <ele>123.6</ele>
        <time>2023-01-11T14:56:44Z</time>
      </trkpt>
      <trkpt lat="49.85728" lon="2.08833">
        <ele>123.6</ele>
        <time>2023-01-11T14:56:45Z</time>
      </trkpt>
      <trkpt lat="49.85727" lon="2.08832">
        <ele>123.7</ele>
        <time>2023-01-11T14:56:46Z</time>
      </trkpt>
      <trkpt lat="49.85726" lon="2.08832">
        <ele>123.7</ele>
        <time>2023-01-11T14:56:47Z</time>
      </trkpt>
      <trkpt lat="49.85725" lon="2.08832">
        <ele>123.7</ele>
        <time>2023-01-11T14:56:48Z</time>
      </trkpt>
      <trkpt lat="49.85724" lon="2.08831">
        <ele>123.7</ele>
        <time>2023-01-11T14:56:49Z</time>
      </trkpt>
      <trkpt lat="49.85723" lon="2.08831">
        <ele>123.7</ele>
        <time>2023-01-11T14:56:50Z</time>
      </trkpt>
      <trkpt lat="49.85721" lon="2.08831">
        <ele>123.8</ele>
        <time>2023-01-11T14:56:51Z</time>
      </trkpt>
      <trkpt lat="49.8572" lon="2.0883">
        <ele>123.8</ele>
        <time>2023-01-11T14:56:53Z</time>
      </trkpt>
      <trkpt lat="49.85719" lon="2.0883">
        <ele>123.8</ele>
        <time>2023-01-11T14:56:54Z</time>
      </trkpt>
      <trkpt lat="49.85718" lon="2.0883">
        <ele>123.8</ele>
        <time>2023-01-11T14:56:55Z</time>
      </trkpt>
      <trkpt lat="49.85717" lon="2.0883">
        <ele>123.8</ele>
        <time>2023-01-11T14:56:56Z</time>
      </trkpt>
      <trkpt lat="49.85716" lon="2.0883">
        <ele>123.8</ele>
        <time>2023-01-11T14:56:57Z</time>
      </trkpt>
      <trkpt lat="49.85715" lon="2.08831">
        <ele>123.9</ele>
        <time>2023-01-11T14:56:58Z</time>
      </trkpt>
      <trkpt lat="49.85714" lon="2.08831">
        <ele>123.9</ele>
        <time>2023-01-11T14:56:59Z</time>
      </trkpt>
      <trkpt lat="49.85713" lon="2.08831">
        <ele>123.9</ele>
        <time>2023-01-11T14:57:01Z</time>
      </trkpt>
      <trkpt lat="49.85712" lon="2.08831">
        <ele>123.9</ele>
        <time>2023-01-11T14:57:02Z</time>
      </trkpt>
      <trkpt lat="49.85711" lon="2.08832">
        <ele>123.9</ele>
        <time>2023-01-11T14:57:03Z</time>
      </trkpt>
      <trkpt lat="49.8571" lon="2.08832">
        <ele>124</ele>
        <time>2023-01-11T14:57:04Z</time>
      </trkpt>
      <trkpt lat="49.8571" lon="2.08834">
        <ele>124</ele>
        <time>2023-01-11T14:57:06Z</time>
      </trkpt>
      <trkpt lat="49.85709" lon="2.08835">
        <ele>124</ele>
        <time>2023-01-11T14:57:07Z</time>
      </trkpt>
      <trkpt lat="49.85709" lon="2.08837">
        <ele>124</ele>
        <time>2023-01-11T14:57:09Z</time>
      </trkpt>
      <trkpt lat="49.85709" lon="2.08839">
        <ele>124</ele>
        <time>2023-01-11T14:57:10Z</time>
      </trkpt>
      <trkpt lat="49.8571" lon="2.08842">
        <ele>124</ele>
        <time>2023-01-11T14:57:12Z</time>
      </trkpt>
      <trkpt lat="49.85711" lon="2.08842">
        <ele>124</ele>
        <time>2023-01-11T14:57:13Z</time>
      </trkpt>
      <trkpt lat="49.85712" lon="2.08842">
        <ele>124</ele>
        <time>2023-01-11T14:57:15Z</time>
      </trkpt>
      <trkpt lat="49.85712" lon="2.08842">
        <ele>124</ele>
        <time>2023-01-11T14:57:16Z</time>
      </trkpt>
      <trkpt lat="49.85712" lon="2.08842">
        <ele>124</ele>
        <time>2023-01-11T14:57:18Z</time>
      </trkpt>
      <trkpt lat="49.85713" lon="2.08842">
        <ele>124</ele>
        <time>2023-01-11T14:57:19Z</time>
      </trkpt>
      <trkpt lat="49.85713" lon="2.08842">
        <ele>124</ele>
        <time>2023-01-11T14:57:20Z</time>
      </trkpt>
      <trkpt lat="49.85713" lon="2.08842">
        <ele>124</ele>
        <time>2023-01-11T14:57:22Z</time>
      </trkpt>
      <trkpt lat="49.85713" lon="2.08842">
        <ele>124</ele>
        <time>2023-01-11T14:57:23Z</time>
      </trkpt>
      <trkpt lat="49.85713" lon="2.08842">
        <ele>124</ele>
        <time>2023-01-11T14:57:25Z</time>
      </trkpt>
      <trkpt lat="49.85713" lon="2.08842">
        <ele>124</ele>
        <time>2023-01-11T14:57:26Z</time>
      </trkpt>
      <trkpt lat="49.85713" lon="2.08842">
        <ele>124</ele>
        <time>2023-01-11T14:57:27Z</time>
      </trkpt>
      <trkpt lat="49.85713" lon="2.08841">
        <ele>124</ele>
        <time>2023-01-11T14:57:28Z</time>
      </trkpt>
      <trkpt lat="49.85713" lon="2.08841">
        <ele>124</ele>
        <time>2023-01-11T14:57:29Z</time>
      </trkpt>
      <trkpt lat="49.85713" lon="2.08841">
        <ele>124</ele>
        <time>2023-01-11T14:57:30Z</time>
      </trkpt>
      <trkpt lat="49.85713" lon="2.08841">
        <ele>124</ele>
        <time>2023-01-11T14:57:31Z</time>
      </trkpt>
      <trkpt lat="49.85713" lon="2.08841">
        <ele>123.9</ele>
        <time>2023-01-11T14:57:32Z</time>
      </trkpt>
      <trkpt lat="49.85713" lon="2.08841">
        <ele>123.9</ele>
        <time>2023-01-11T14:57:33Z</time>
      </trkpt>
      <trkpt lat="49.85713" lon="2.08841">
        <ele>123.9</ele>
        <time>2023-01-11T14:57:34Z</time>
      </trkpt>
      <trkpt lat="49.85713" lon="2.08841">
        <ele>123.9</ele>
        <time>2023-01-11T14:57:35Z</time>
      </trkpt>
      <trkpt lat="49.85713" lon="2.08841">
        <ele>123.9</ele>
        <time>2023-01-11T14:57:36Z</time>
      </trkpt>
      <trkpt lat="49.85713" lon="2.08841">
        <ele>123.9</ele>
        <time>2023-01-11T14:57:37Z</time>
      </trkpt>
      <trkpt lat="49.85713" lon="2.08841">
        <ele>123.9</ele>
        <time>2023-01-11T14:57:38Z</time>
      </trkpt>
      <trkpt lat="49.85713" lon="2.08841">
        <ele>123.9</ele>
        <time>2023-01-11T14:57:39Z</time>
      </trkpt>
      <trkpt lat="49.85714" lon="2.08841">
        <ele>123.9</ele>
        <time>2023-01-11T14:57:40Z</time>
      </trkpt>
      <trkpt lat="49.85714" lon="2.08841">
        <ele>123.9</ele>
        <time>2023-01-11T14:57:41Z</time>
      </trkpt>
      <trkpt lat="49.85714" lon="2.08841">
        <ele>123.9</ele>
        <time>2023-01-11T14:57:42Z</time>
      </trkpt>
      <trkpt lat="49.85714" lon="2.08841">
        <ele>123.9</ele>
        <time>2023-01-11T14:57:43Z</time>
      </trkpt>
      <trkpt lat="49.85714" lon="2.08841">
        <ele>123.9</ele>
        <time>2023-01-11T14:57:44Z</time>
      </trkpt>
      <trkpt lat="49.85714" lon="2.08841">
        <ele>123.9</ele>
        <time>2023-01-11T14:57:45Z</time>
      </trkpt>
      <trkpt lat="49.85714" lon="2.08841">
        <ele>123.9</ele>
        <time>2023-01-11T14:57:46Z</time>
      </trkpt>
      <trkpt lat="49.85714" lon="2.08841">
        <ele>123.9</ele>
        <time>2023-01-11T14:57:47Z</time>
      </trkpt>
      <trkpt lat="49.85714" lon="2.0884">
        <ele>123.9</ele>
        <time>2023-01-11T14:57:48Z</time>
      </trkpt>
      <trkpt lat="49.85714" lon="2.0884">
        <ele>123.9</ele>
        <time>2023-01-11T14:57:49Z</time>
      </trkpt>
      <trkpt lat="49.85714" lon="2.0884">
        <ele>123.9</ele>
        <time>2023-01-11T14:57:50Z</time>
      </trkpt>
      <trkpt lat="49.85714" lon="2.0884">
        <ele>123.9</ele>
        <time>2023-01-11T14:57:51Z</time>
      </trkpt>
      <trkpt lat="49.85714" lon="2.0884">
        <ele>123.9</ele>
        <time>2023-01-11T14:57:52Z</time>
      </trkpt>
      <trkpt lat="49.85714" lon="2.0884">
        <ele>123.9</ele>
        <time>2023-01-11T14:57:53Z</time>
      </trkpt>
      <trkpt lat="49.85714" lon="2.0884">
        <ele>123.9</ele>
        <time>2023-01-11T14:57:54Z</time>
      </trkpt>
      <trkpt lat="49.85714" lon="2.0884">
        <ele>123.9</ele>
        <time>2023-01-11T14:57:55Z</time>
      </trkpt>
      <trkpt lat="49.85714" lon="2.0884">
        <ele>123.9</ele>
        <time>2023-01-11T14:57:56Z</time>
      </trkpt>
      <trkpt lat="49.85714" lon="2.0884">
        <ele>123.9</ele>
        <time>2023-01-11T14:57:57Z</time>
      </trkpt>
      <trkpt lat="49.85714" lon="2.0884">
        <ele>123.9</ele>
        <time>2023-01-11T14:57:58Z</time>
      </trkpt>
      <trkpt lat="49.85714" lon="2.0884">
        <ele>123.9</ele>
        <time>2023-01-11T14:57:59Z</time>
      </trkpt>
      <trkpt lat="49.85714" lon="2.0884">
        <ele>123.9</ele>
        <time>2023-01-11T14:58:00Z</time>
      </trkpt>
      <trkpt lat="49.85714" lon="2.0884">
        <ele>123.9</ele>
        <time>2023-01-11T14:58:01Z</time>
      </trkpt>
      <trkpt lat="49.85714" lon="2.0884">
        <ele>123.9</ele>
        <time>2023-01-11T14:58:02Z</time>
      </trkpt>
      <trkpt lat="49.85714" lon="2.0884">
        <ele>123.9</ele>
        <time>2023-01-11T14:58:03Z</time>
      </trkpt>
      <trkpt lat="49.85714" lon="2.0884">
        <ele>123.9</ele>
        <time>2023-01-11T14:58:04Z</time>
      </trkpt>
      <trkpt lat="49.85714" lon="2.0884">
        <ele>123.9</ele>
        <time>2023-01-11T14:58:05Z</time>
      </trkpt>
      <trkpt lat="49.85714" lon="2.0884">
        <ele>123.9</ele>
        <time>2023-01-11T14:58:06Z</time>
      </trkpt>
      <trkpt lat="49.85714" lon="2.0884">
        <ele>123.9</ele>
        <time>2023-01-11T14:58:07Z</time>
      </trkpt>
      <trkpt lat="49.85714" lon="2.0884">
        <ele>123.9</ele>
        <time>2023-01-11T14:58:08Z</time>
      </trkpt>
      <trkpt lat="49.85714" lon="2.08839">
        <ele>123.9</ele>
        <time>2023-01-11T14:58:09Z</time>
      </trkpt>
      <trkpt lat="49.85714" lon="2.08839">
        <ele>123.9</ele>
        <time>2023-01-11T14:58:10Z</time>
      </trkpt>
      <trkpt lat="49.85714" lon="2.08839">
        <ele>123.9</ele>
        <time>2023-01-11T14:58:11Z</time>
      </trkpt>
      <trkpt lat="49.85714" lon="2.08839">
        <ele>123.9</ele>
        <time>2023-01-11T14:58:12Z</time>
      </trkpt>
      <trkpt lat="49.85714" lon="2.08839">
        <ele>123.9</ele>
        <time>2023-01-11T14:58:13Z</time>
      </trkpt>
      <trkpt lat="49.85714" lon="2.08839">
        <ele>123.9</ele>
        <time>2023-01-11T14:58:14Z</time>
      </trkpt>
      <trkpt lat="49.85714" lon="2.08839">
        <ele>123.9</ele>
        <time>2023-01-11T14:58:15Z</time>
      </trkpt>
      <trkpt lat="49.85714" lon="2.08839">
        <ele>123.9</ele>
        <time>2023-01-11T14:58:16Z</time>
      </trkpt>
      <trkpt lat="49.85714" lon="2.08839">
        <ele>123.9</ele>
        <time>2023-01-11T14:58:17Z</time>
      </trkpt>
      <trkpt lat="49.85714" lon="2.08839">
        <ele>123.9</ele>
        <time>2023-01-11T14:58:18Z</time>
      </trkpt>
      <trkpt lat="49.85714" lon="2.08839">
        <ele>123.9</ele>
        <time>2023-01-11T14:58:19Z</time>
      </trkpt>
      <trkpt lat="49.85715" lon="2.08839">
        <ele>123.9</ele>
        <time>2023-01-11T14:58:20Z</time>
      </trkpt>
      <trkpt lat="49.85715" lon="2.08839">
        <ele>123.9</ele>
        <time>2023-01-11T14:58:21Z</time>
      </trkpt>
      <trkpt lat="49.85715" lon="2.08839">
        <ele>123.9</ele>
        <time>2023-01-11T14:58:22Z</time>
      </trkpt>
      <trkpt lat="49.85715" lon="2.08839">
        <ele>123.9</ele>
        <time>2023-01-11T14:58:23Z</time>
      </trkpt>
      <trkpt lat="49.85715" lon="2.08839">
        <ele>123.9</ele>
        <time>2023-01-11T14:58:24Z</time>
      </trkpt>
      <trkpt lat="49.85715" lon="2.08839">
        <ele>123.9</ele>
        <time>2023-01-11T14:58:25Z</time>
      </trkpt>
      <trkpt lat="49.85715" lon="2.08839">
        <ele>123.9</ele>
        <time>2023-01-11T14:58:26Z</time>
      </trkpt>
      <trkpt lat="49.85715" lon="2.08839">
        <ele>123.9</ele>
        <time>2023-01-11T14:58:27Z</time>
      </trkpt>
      <trkpt lat="49.85715" lon="2.08839">
        <ele>123.9</ele>
        <time>2023-01-11T14:58:28Z</time>
      </trkpt>
      <trkpt lat="49.85715" lon="2.08839">
        <ele>123.9</ele>
        <time>2023-01-11T14:58:29Z</time>
      </trkpt>
      <trkpt lat="49.85715" lon="2.08838">
        <ele>123.9</ele>
        <time>2023-01-11T14:58:30Z</time>
      </trkpt>
      <trkpt lat="49.85715" lon="2.08838">
        <ele>123.9</ele>
        <time>2023-01-11T14:58:31Z</time>
      </trkpt>
      <trkpt lat="49.85715" lon="2.08838">
        <ele>123.9</ele>
        <time>2023-01-11T14:58:32Z</time>
      </trkpt>
      <trkpt lat="49.85715" lon="2.08838">
        <ele>123.9</ele>
        <time>2023-01-11T14:58:33Z</time>
      </trkpt>
      <trkpt lat="49.85715" lon="2.08838">
        <ele>123.9</ele>
        <time>2023-01-11T14:58:34Z</time>
      </trkpt>
      <trkpt lat="49.85715" lon="2.08838">
        <ele>123.9</ele>
        <time>2023-01-11T14:58:35Z</time>
      </trkpt>
      <trkpt lat="49.85715" lon="2.08838">
        <ele>123.9</ele>
        <time>2023-01-11T14:58:36Z</time>
      </trkpt>
      <trkpt lat="49.85715" lon="2.08838">
        <ele>123.9</ele>
        <time>2023-01-11T14:58:37Z</time>
      </trkpt>
      <trkpt lat="49.85715" lon="2.08838">
        <ele>123.9</ele>
        <time>2023-01-11T14:58:38Z</time>
      </trkpt>
      <trkpt lat="49.85715" lon="2.08838">
        <ele>123.9</ele>
        <time>2023-01-11T14:58:39Z</time>
      </trkpt>
      <trkpt lat="49.85715" lon="2.08838">
        <ele>123.9</ele>
        <time>2023-01-11T14:58:40Z</time>
      </trkpt>
      <trkpt lat="49.85715" lon="2.08838">
        <ele>123.9</ele>
        <time>2023-01-11T14:58:41Z</time>
      </trkpt>
      <trkpt lat="49.85715" lon="2.08838">
        <ele>123.9</ele>
        <time>2023-01-11T14:58:42Z</time>
      </trkpt>
      <trkpt lat="49.85715" lon="2.08838">
        <ele>123.9</ele>
        <time>2023-01-11T14:58:43Z</time>
      </trkpt>
      <trkpt lat="49.85715" lon="2.08838">
        <ele>123.9</ele>
        <time>2023-01-11T14:58:44Z</time>
      </trkpt>
      <trkpt lat="49.85715" lon="2.08838">
        <ele>123.9</ele>
        <time>2023-01-11T14:58:45Z</time>
      </trkpt>
      <trkpt lat="49.85715" lon="2.08838">
        <ele>123.9</ele>
        <time>2023-01-11T14:58:46Z</time>
      </trkpt>
      <trkpt lat="49.85715" lon="2.08838">
        <ele>123.9</ele>
        <time>2023-01-11T14:58:47Z</time>
      </trkpt>
      <trkpt lat="49.85718" lon="2.08834">
        <ele>123.8</ele>
        <time>2023-01-11T14:58:48Z</time>
      </trkpt>
      <trkpt lat="49.85719" lon="2.08832">
        <ele>123.8</ele>
        <time>2023-01-11T14:58:49Z</time>
      </trkpt>
      <trkpt lat="49.8572" lon="2.08831">
        <ele>123.8</ele>
        <time>2023-01-11T14:58:50Z</time>
      </trkpt>
      <trkpt lat="49.8572" lon="2.08831">
        <ele>123.8</ele>
        <time>2023-01-11T14:58:51Z</time>
      </trkpt>
      <trkpt lat="49.8572" lon="2.08831">
        <ele>123.8</ele>
        <time>2023-01-11T14:58:52Z</time>
      </trkpt>
      <trkpt lat="49.85721" lon="2.08831">
        <ele>123.8</ele>
        <time>2023-01-11T14:58:53Z</time>
      </trkpt>
      <trkpt lat="49.85721" lon="2.08831">
        <ele>123.8</ele>
        <time>2023-01-11T14:58:54Z</time>
      </trkpt>
      <trkpt lat="49.85721" lon="2.08831">
        <ele>123.8</ele>
        <time>2023-01-11T14:58:55Z</time>
      </trkpt>
      <trkpt lat="49.85721" lon="2.08831">
        <ele>123.8</ele>
        <time>2023-01-11T14:58:56Z</time>
      </trkpt>
      <trkpt lat="49.85721" lon="2.08831">
        <ele>123.8</ele>
        <time>2023-01-11T14:58:57Z</time>
      </trkpt>
      <trkpt lat="49.85721" lon="2.08831">
        <ele>123.8</ele>
        <time>2023-01-11T14:58:58Z</time>
      </trkpt>
      <trkpt lat="49.85721" lon="2.08831">
        <ele>123.8</ele>
        <time>2023-01-11T14:58:59Z</time>
      </trkpt>
      <trkpt lat="49.85721" lon="2.08831">
        <ele>123.8</ele>
        <time>2023-01-11T14:59:00Z</time>
      </trkpt>
      <trkpt lat="49.85721" lon="2.08831">
        <ele>123.8</ele>
        <time>2023-01-11T14:59:01Z</time>
      </trkpt>
      <trkpt lat="49.85721" lon="2.08831">
        <ele>123.8</ele>
        <time>2023-01-11T14:59:02Z</time>
      </trkpt>
      <trkpt lat="49.85721" lon="2.08831">
        <ele>123.8</ele>
        <time>2023-01-11T14:59:03Z</time>
      </trkpt>
      <trkpt lat="49.85721" lon="2.08831">
        <ele>123.8</ele>
        <time>2023-01-11T14:59:04Z</time>
      </trkpt>
      <trkpt lat="49.85721" lon="2.08831">
        <ele>123.8</ele>
        <time>2023-01-11T14:59:05Z</time>
      </trkpt>
      <trkpt lat="49.85721" lon="2.08831">
        <ele>123.8</ele>
        <time>2023-01-11T14:59:06Z</time>
      </trkpt>
      <trkpt lat="49.85721" lon="2.08831">
        <ele>123.8</ele>
        <time>2023-01-11T14:59:07Z</time>
      </trkpt>
      <trkpt lat="49.85721" lon="2.08831">
        <ele>123.8</ele>
        <time>2023-01-11T14:59:08Z</time>
      </trkpt>
      <trkpt lat="49.85721" lon="2.08831">
        <ele>123.8</ele>
        <time>2023-01-11T14:59:09Z</time>
      </trkpt>
      <trkpt lat="49.85721" lon="2.08831">
        <ele>123.8</ele>
        <time>2023-01-11T14:59:10Z</time>
      </trkpt>
      <trkpt lat="49.85721" lon="2.08831">
        <ele>123.8</ele>
        <time>2023-01-11T14:59:11Z</time>
      </trkpt>
      <trkpt lat="49.85721" lon="2.08831">
        <ele>123.8</ele>
        <time>2023-01-11T14:59:12Z</time>
      </trkpt>
      <trkpt lat="49.85721" lon="2.08831">
        <ele>123.8</ele>
        <time>2023-01-11T14:59:13Z</time>
      </trkpt>
      <trkpt lat="49.85721" lon="2.08831">
        <ele>123.8</ele>
        <time>2023-01-11T14:59:14Z</time>
      </trkpt>
      <trkpt lat="49.85721" lon="2.08831">
        <ele>123.8</ele>
        <time>2023-01-11T14:59:15Z</time>
      </trkpt>
      <trkpt lat="49.85721" lon="2.08831">
        <ele>123.8</ele>
        <time>2023-01-11T14:59:16Z</time>
      </trkpt>
      <trkpt lat="49.85721" lon="2.08831">
        <ele>123.8</ele>
        <time>2023-01-11T14:59:17Z</time>
      </trkpt>
      <trkpt lat="49.85721" lon="2.08831">
        <ele>123.8</ele>
        <time>2023-01-11T14:59:18Z</time>
      </trkpt>
      <trkpt lat="49.85721" lon="2.08831">
        <ele>123.8</ele>
        <time>2023-01-11T14:59:19Z</time>
      </trkpt>
      <trkpt lat="49.85721" lon="2.08831">
        <ele>123.8</ele>
        <time>2023-01-11T14:59:20Z</time>
      </trkpt>
      <trkpt lat="49.85721" lon="2.08831">
        <ele>123.8</ele>
        <time>2023-01-11T14:59:21Z</time>
      </trkpt>
      <trkpt lat="49.85721" lon="2.08831">
        <ele>123.8</ele>
        <time>2023-01-11T14:59:22Z</time>
      </trkpt>
      <trkpt lat="49.85721" lon="2.08831">
        <ele>123.8</ele>
        <time>2023-01-11T14:59:23Z</time>
      </trkpt>
      <trkpt lat="49.85721" lon="2.08831">
        <ele>123.8</ele>
        <time>2023-01-11T14:59:24Z</time>
      </trkpt>
      <trkpt lat="49.85721" lon="2.08831">
        <ele>123.8</ele>
        <time>2023-01-11T14:59:25Z</time>
      </trkpt>
      <trkpt lat="49.8572" lon="2.0883">
        <ele>123.8</ele>
        <time>2023-01-11T14:59:26Z</time>
      </trkpt>
      <trkpt lat="49.85719" lon="2.0883">
        <ele>123.8</ele>
        <time>2023-01-11T14:59:27Z</time>
      </trkpt>
      <trkpt lat="49.85719" lon="2.0883">
        <ele>123.8</ele>
        <time>2023-01-11T14:59:28Z</time>
      </trkpt>
      <trkpt lat="49.85719" lon="2.0883">
        <ele>123.8</ele>
        <time>2023-01-11T14:59:29Z</time>
      </trkpt>
      <trkpt lat="49.85719" lon="2.0883">
        <ele>123.8</ele>
        <time>2023-01-11T14:59:30Z</time>
      </trkpt>
      <trkpt lat="49.85719" lon="2.0883">
        <ele>123.8</ele>
        <time>2023-01-11T14:59:31Z</time>
      </trkpt>
      <trkpt lat="49.85719" lon="2.0883">
        <ele>123.8</ele>
        <time>2023-01-11T14:59:32Z</time>
      </trkpt>
      <trkpt lat="49.85719" lon="2.08829">
        <ele>123.8</ele>
        <time>2023-01-11T14:59:33Z</time>
      </trkpt>
      <trkpt lat="49.85719" lon="2.08829">
        <ele>123.8</ele>
        <time>2023-01-11T14:59:34Z</time>
      </trkpt>
      <trkpt lat="49.85718" lon="2.08829">
        <ele>123.8</ele>
        <time>2023-01-11T14:59:35Z</time>
      </trkpt>
      <trkpt lat="49.85718" lon="2.0883">
        <ele>123.8</ele>
        <time>2023-01-11T14:59:37Z</time>
      </trkpt>
      <trkpt lat="49.85718" lon="2.0883">
        <ele>123.8</ele>
        <time>2023-01-11T14:59:38Z</time>
      </trkpt>
      <trkpt lat="49.85717" lon="2.0883">
        <ele>123.8</ele>
        <time>2023-01-11T14:59:39Z</time>
      </trkpt>
      <trkpt lat="49.85716" lon="2.08831">
        <ele>123.8</ele>
        <time>2023-01-11T14:59:40Z</time>
      </trkpt>
      <trkpt lat="49.85716" lon="2.08831">
        <ele>123.8</ele>
        <time>2023-01-11T14:59:41Z</time>
      </trkpt>
      <trkpt lat="49.85715" lon="2.08833">
        <ele>123.8</ele>
        <time>2023-01-11T14:59:43Z</time>
      </trkpt>
      <trkpt lat="49.85715" lon="2.08834">
        <ele>123.8</ele>
        <time>2023-01-11T14:59:44Z</time>
      </trkpt>
      <trkpt lat="49.85714" lon="2.08834">
        <ele>123.8</ele>
        <time>2023-01-11T14:59:45Z</time>
      </trkpt>
      <trkpt lat="49.85713" lon="2.08835">
        <ele>123.8</ele>
        <time>2023-01-11T14:59:46Z</time>
      </trkpt>
      <trkpt lat="49.85712" lon="2.08836">
        <ele>123.8</ele>
        <time>2023-01-11T14:59:48Z</time>
      </trkpt>
      <trkpt lat="49.85711" lon="2.08837">
        <ele>123.8</ele>
        <time>2023-01-11T14:59:49Z</time>
      </trkpt>
      <trkpt lat="49.8571" lon="2.08838">
        <ele>123.8</ele>
        <time>2023-01-11T14:59:50Z</time>
      </trkpt>
      <trkpt lat="49.85709" lon="2.08839">
        <ele>123.8</ele>
        <time>2023-01-11T14:59:51Z</time>
      </trkpt>
      <trkpt lat="49.85709" lon="2.08842">
        <ele>123.8</ele>
        <time>2023-01-11T14:59:52Z</time>
      </trkpt>
      <trkpt lat="49.85709" lon="2.08844">
        <ele>123.8</ele>
        <time>2023-01-11T14:59:53Z</time>
      </trkpt>
      <trkpt lat="49.85708" lon="2.08845">
        <ele>123.8</ele>
        <time>2023-01-11T14:59:54Z</time>
      </trkpt>
      <trkpt lat="49.85708" lon="2.08848">
        <ele>123.8</ele>
        <time>2023-01-11T14:59:56Z</time>
      </trkpt>
      <trkpt lat="49.85708" lon="2.0885">
        <ele>123.9</ele>
        <time>2023-01-11T14:59:57Z</time>
      </trkpt>
      <trkpt lat="49.85709" lon="2.08854">
        <ele>123.9</ele>
        <time>2023-01-11T14:59:58Z</time>
      </trkpt>
      <trkpt lat="49.85709" lon="2.08855">
        <ele>123.9</ele>
        <time>2023-01-11T14:59:59Z</time>
      </trkpt>
      <trkpt lat="49.85709" lon="2.08857">
        <ele>123.9</ele>
        <time>2023-01-11T15:00:00Z</time>
      </trkpt>
      <trkpt lat="49.85709" lon="2.08859">
        <ele>123.9</ele>
        <time>2023-01-11T15:00:02Z</time>
      </trkpt>
      <trkpt lat="49.85709" lon="2.08861">
        <ele>123.9</ele>
        <time>2023-01-11T15:00:03Z</time>
      </trkpt>
      <trkpt lat="49.85709" lon="2.08865">
        <ele>123.9</ele>
        <time>2023-01-11T15:00:04Z</time>
      </trkpt>
      <trkpt lat="49.85709" lon="2.08866">
        <ele>124</ele>
        <time>2023-01-11T15:00:05Z</time>
      </trkpt>
      <trkpt lat="49.8571" lon="2.08867">
        <ele>124</ele>
        <time>2023-01-11T15:00:06Z</time>
      </trkpt>
      <trkpt lat="49.8571" lon="2.0887">
        <ele>124</ele>
        <time>2023-01-11T15:00:08Z</time>
      </trkpt>
      <trkpt lat="49.85711" lon="2.08872">
        <ele>124</ele>
        <time>2023-01-11T15:00:09Z</time>
      </trkpt>
      <trkpt lat="49.85712" lon="2.08875">
        <ele>124</ele>
        <time>2023-01-11T15:00:10Z</time>
      </trkpt>
      <trkpt lat="49.85712" lon="2.08876">
        <ele>124</ele>
        <time>2023-01-11T15:00:11Z</time>
      </trkpt>
      <trkpt lat="49.85712" lon="2.08877">
        <ele>124</ele>
        <time>2023-01-11T15:00:12Z</time>
      </trkpt>
      <trkpt lat="49.85713" lon="2.08879">
        <ele>124</ele>
        <time>2023-01-11T15:00:14Z</time>
      </trkpt>
      <trkpt lat="49.85714" lon="2.0888">
        <ele>124</ele>
        <time>2023-01-11T15:00:15Z</time>
      </trkpt>
      <trkpt lat="49.85714" lon="2.08881">
        <ele>124.1</ele>
        <time>2023-01-11T15:00:16Z</time>
      </trkpt>
      <trkpt lat="49.85715" lon="2.08884">
        <ele>124.1</ele>
        <time>2023-01-11T15:00:17Z</time>
      </trkpt>
      <trkpt lat="49.85715" lon="2.08885">
        <ele>124.1</ele>
        <time>2023-01-11T15:00:18Z</time>
      </trkpt>
      <trkpt lat="49.85716" lon="2.08886">
        <ele>124.1</ele>
        <time>2023-01-11T15:00:20Z</time>
      </trkpt>
      <trkpt lat="49.85716" lon="2.08888">
        <ele>124.1</ele>
        <time>2023-01-11T15:00:21Z</time>
      </trkpt>
      <trkpt lat="49.85717" lon="2.08889">
        <ele>124.1</ele>
        <time>2023-01-11T15:00:22Z</time>
      </trkpt>
      <trkpt lat="49.85717" lon="2.0889">
        <ele>124.1</ele>
        <time>2023-01-11T15:00:23Z</time>
      </trkpt>
      <trkpt lat="49.85718" lon="2.08892">
        <ele>124.2</ele>
        <time>2023-01-11T15:00:24Z</time>
      </trkpt>
      <trkpt lat="49.85719" lon="2.08895">
        <ele>124.2</ele>
        <time>2023-01-11T15:00:26Z</time>
      </trkpt>
      <trkpt lat="49.8572" lon="2.08897">
        <ele>124.2</ele>
        <time>2023-01-11T15:00:28Z</time>
      </trkpt>
      <trkpt lat="49.8572" lon="2.08899">
        <ele>124.2</ele>
        <time>2023-01-11T15:00:29Z</time>
      </trkpt>
      <trkpt lat="49.85721" lon="2.089">
        <ele>124.2</ele>
        <time>2023-01-11T15:00:30Z</time>
      </trkpt>
      <trkpt lat="49.85722" lon="2.08902">
        <ele>124.3</ele>
        <time>2023-01-11T15:00:31Z</time>
      </trkpt>
      <trkpt lat="49.85722" lon="2.08904">
        <ele>124.3</ele>
        <time>2023-01-11T15:00:33Z</time>
      </trkpt>
      <trkpt lat="49.85723" lon="2.08907">
        <ele>124.3</ele>
        <time>2023-01-11T15:00:34Z</time>
      </trkpt>
      <trkpt lat="49.85723" lon="2.08908">
        <ele>124.3</ele>
        <time>2023-01-11T15:00:35Z</time>
      </trkpt>
      <trkpt lat="49.85723" lon="2.08909">
        <ele>124.3</ele>
        <time>2023-01-11T15:00:36Z</time>
      </trkpt>
      <trkpt lat="49.85724" lon="2.08911">
        <ele>124.3</ele>
        <time>2023-01-11T15:00:37Z</time>
      </trkpt>
      <trkpt lat="49.85724" lon="2.08913">
        <ele>124.4</ele>
        <time>2023-01-11T15:00:38Z</time>
      </trkpt>
      <trkpt lat="49.85725" lon="2.08915">
        <ele>124.4</ele>
        <time>2023-01-11T15:00:40Z</time>
      </trkpt>
      <trkpt lat="49.85726" lon="2.08917">
        <ele>124.4</ele>
        <time>2023-01-11T15:00:41Z</time>
      </trkpt>
      <trkpt lat="49.85726" lon="2.08918">
        <ele>124.4</ele>
        <time>2023-01-11T15:00:42Z</time>
      </trkpt>
      <trkpt lat="49.85727" lon="2.0892">
        <ele>124.4</ele>
        <time>2023-01-11T15:00:43Z</time>
      </trkpt>
      <trkpt lat="49.85728" lon="2.08922">
        <ele>124.4</ele>
        <time>2023-01-11T15:00:44Z</time>
      </trkpt>
      <trkpt lat="49.85729" lon="2.08923">
        <ele>124.4</ele>
        <time>2023-01-11T15:00:45Z</time>
      </trkpt>
      <trkpt lat="49.85729" lon="2.08925">
        <ele>124.4</ele>
        <time>2023-01-11T15:00:47Z</time>
      </trkpt>
      <trkpt lat="49.8573" lon="2.08926">
        <ele>124.4</ele>
        <time>2023-01-11T15:00:48Z</time>
      </trkpt>
      <trkpt lat="49.85731" lon="2.08927">
        <ele>124.5</ele>
        <time>2023-01-11T15:00:49Z</time>
      </trkpt>
      <trkpt lat="49.85731" lon="2.08928">
        <ele>124.5</ele>
        <time>2023-01-11T15:00:50Z</time>
      </trkpt>
      <trkpt lat="49.85732" lon="2.08929">
        <ele>124.5</ele>
        <time>2023-01-11T15:00:51Z</time>
      </trkpt>
      <trkpt lat="49.85733" lon="2.0893">
        <ele>124.5</ele>
        <time>2023-01-11T15:00:52Z</time>
      </trkpt>
      <trkpt lat="49.85734" lon="2.08931">
        <ele>124.5</ele>
        <time>2023-01-11T15:00:53Z</time>
      </trkpt>
      <trkpt lat="49.85735" lon="2.08934">
        <ele>124.5</ele>
        <time>2023-01-11T15:00:55Z</time>
      </trkpt>
      <trkpt lat="49.85736" lon="2.08935">
        <ele>124.5</ele>
        <time>2023-01-11T15:00:56Z</time>
      </trkpt>
      <trkpt lat="49.85736" lon="2.08936">
        <ele>124.5</ele>
        <time>2023-01-11T15:00:57Z</time>
      </trkpt>
      <trkpt lat="49.85737" lon="2.08937">
        <ele>124.5</ele>
        <time>2023-01-11T15:00:58Z</time>
      </trkpt>
      <trkpt lat="49.85738" lon="2.08938">
        <ele>124.5</ele>
        <time>2023-01-11T15:00:59Z</time>
      </trkpt>
      <trkpt lat="49.85738" lon="2.0894">
        <ele>124.5</ele>
        <time>2023-01-11T15:01:00Z</time>
      </trkpt>
      <trkpt lat="49.85739" lon="2.08941">
        <ele>124.5</ele>
        <time>2023-01-11T15:01:01Z</time>
      </trkpt>
      <trkpt lat="49.8574" lon="2.08942">
        <ele>124.5</ele>
        <time>2023-01-11T15:01:03Z</time>
      </trkpt>
      <trkpt lat="49.85741" lon="2.08944">
        <ele>124.5</ele>
        <time>2023-01-11T15:01:04Z</time>
      </trkpt>
      <trkpt lat="49.85741" lon="2.08945">
        <ele>124.6</ele>
        <time>2023-01-11T15:01:05Z</time>
      </trkpt>
      <trkpt lat="49.85742" lon="2.08947">
        <ele>124.6</ele>
        <time>2023-01-11T15:01:06Z</time>
      </trkpt>
      <trkpt lat="49.85742" lon="2.08948">
        <ele>124.6</ele>
        <time>2023-01-11T15:01:07Z</time>
      </trkpt>
      <trkpt lat="49.85743" lon="2.08949">
        <ele>124.6</ele>
        <time>2023-01-11T15:01:08Z</time>
      </trkpt>
      <trkpt lat="49.85743" lon="2.08951">
        <ele>124.6</ele>
        <time>2023-01-11T15:01:09Z</time>
      </trkpt>
      <trkpt lat="49.85744" lon="2.08953">
        <ele>124.6</ele>
        <time>2023-01-11T15:01:10Z</time>
      </trkpt>
      <trkpt lat="49.85745" lon="2.08956">
        <ele>124.6</ele>
        <time>2023-01-11T15:01:12Z</time>
      </trkpt>
      <trkpt lat="49.85745" lon="2.08957">
        <ele>124.6</ele>
        <time>2023-01-11T15:01:13Z</time>
      </trkpt>
      <trkpt lat="49.85745" lon="2.08958">
        <ele>124.6</ele>
        <time>2023-01-11T15:01:14Z</time>
      </trkpt>
      <trkpt lat="49.85745" lon="2.08959">
        <ele>124.6</ele>
        <time>2023-01-11T15:01:15Z</time>
      </trkpt>
      <trkpt lat="49.85746" lon="2.08961">
        <ele>124.6</ele>
        <time>2023-01-11T15:01:16Z</time>
      </trkpt>
      <trkpt lat="49.85746" lon="2.08962">
        <ele>124.6</ele>
        <time>2023-01-11T15:01:17Z</time>
      </trkpt>
      <trkpt lat="49.85747" lon="2.08964">
        <ele>124.6</ele>
        <time>2023-01-11T15:01:19Z</time>
      </trkpt>
      <trkpt lat="49.85747" lon="2.08966">
        <ele>124.6</ele>
        <time>2023-01-11T15:01:20Z</time>
      </trkpt>
      <trkpt lat="49.85747" lon="2.08968">
        <ele>124.6</ele>
        <time>2023-01-11T15:01:21Z</time>
      </trkpt>
      <trkpt lat="49.85748" lon="2.08969">
        <ele>124.6</ele>
        <time>2023-01-11T15:01:22Z</time>
      </trkpt>
      <trkpt lat="49.85748" lon="2.0897">
        <ele>124.6</ele>
        <time>2023-01-11T15:01:23Z</time>
      </trkpt>
      <trkpt lat="49.85749" lon="2.08972">
        <ele>124.6</ele>
        <time>2023-01-11T15:01:24Z</time>
      </trkpt>
      <trkpt lat="49.8575" lon="2.08973">
        <ele>124.6</ele>
        <time>2023-01-11T15:01:25Z</time>
      </trkpt>
      <trkpt lat="49.8575" lon="2.08975">
        <ele>124.6</ele>
        <time>2023-01-11T15:01:27Z</time>
      </trkpt>
      <trkpt lat="49.85751" lon="2.08976">
        <ele>124.6</ele>
        <time>2023-01-11T15:01:28Z</time>
      </trkpt>
      <trkpt lat="49.85752" lon="2.08978">
        <ele>124.6</ele>
        <time>2023-01-11T15:01:29Z</time>
      </trkpt>
      <trkpt lat="49.85753" lon="2.08978">
        <ele>124.6</ele>
        <time>2023-01-11T15:01:30Z</time>
      </trkpt>
      <trkpt lat="49.85754" lon="2.08979">
        <ele>124.6</ele>
        <time>2023-01-11T15:01:31Z</time>
      </trkpt>
      <trkpt lat="49.85754" lon="2.0898">
        <ele>124.6</ele>
        <time>2023-01-11T15:01:32Z</time>
      </trkpt>
      <trkpt lat="49.85754" lon="2.08982">
        <ele>124.7</ele>
        <time>2023-01-11T15:01:33Z</time>
      </trkpt>
      <trkpt lat="49.85755" lon="2.08983">
        <ele>124.7</ele>
        <time>2023-01-11T15:01:34Z</time>
      </trkpt>
      <trkpt lat="49.85755" lon="2.08985">
        <ele>124.7</ele>
        <time>2023-01-11T15:01:36Z</time>
      </trkpt>
      <trkpt lat="49.85756" lon="2.08986">
        <ele>124.7</ele>
        <time>2023-01-11T15:01:37Z</time>
      </trkpt>
      <trkpt lat="49.85756" lon="2.08988">
        <ele>124.7</ele>
        <time>2023-01-11T15:01:38Z</time>
      </trkpt>
      <trkpt lat="49.85757" lon="2.0899">
        <ele>124.7</ele>
        <time>2023-01-11T15:01:39Z</time>
      </trkpt>
      <trkpt lat="49.85757" lon="2.08991">
        <ele>124.7</ele>
        <time>2023-01-11T15:01:40Z</time>
      </trkpt>
      <trkpt lat="49.85758" lon="2.08992">
        <ele>124.7</ele>
        <time>2023-01-11T15:01:41Z</time>
      </trkpt>
      <trkpt lat="49.85758" lon="2.08994">
        <ele>124.7</ele>
        <time>2023-01-11T15:01:42Z</time>
      </trkpt>
      <trkpt lat="49.85759" lon="2.08996">
        <ele>124.7</ele>
        <time>2023-01-11T15:01:43Z</time>
      </trkpt>
      <trkpt lat="49.85759" lon="2.08998">
        <ele>124.7</ele>
        <time>2023-01-11T15:01:45Z</time>
      </trkpt>
      <trkpt lat="49.8576" lon="2.08999">
        <ele>124.7</ele>
        <time>2023-01-11T15:01:46Z</time>
      </trkpt>
      <trkpt lat="49.8576" lon="2.09001">
        <ele>124.7</ele>
        <time>2023-01-11T15:01:47Z</time>
      </trkpt>
      <trkpt lat="49.85761" lon="2.09002">
        <ele>124.7</ele>
        <time>2023-01-11T15:01:48Z</time>
      </trkpt>
      <trkpt lat="49.85761" lon="2.09005">
        <ele>124.7</ele>
        <time>2023-01-11T15:01:49Z</time>
      </trkpt>
      <trkpt lat="49.85762" lon="2.09006">
        <ele>124.7</ele>
        <time>2023-01-11T15:01:50Z</time>
      </trkpt>
      <trkpt lat="49.85762" lon="2.09008">
        <ele>124.7</ele>
        <time>2023-01-11T15:01:52Z</time>
      </trkpt>
      <trkpt lat="49.85763" lon="2.09009">
        <ele>124.7</ele>
        <time>2023-01-11T15:01:53Z</time>
      </trkpt>
      <trkpt lat="49.85763" lon="2.09011">
        <ele>124.7</ele>
        <time>2023-01-11T15:01:54Z</time>
      </trkpt>
      <trkpt lat="49.85764" lon="2.09012">
        <ele>124.7</ele>
        <time>2023-01-11T15:01:55Z</time>
      </trkpt>
      <trkpt lat="49.85764" lon="2.09013">
        <ele>124.7</ele>
        <time>2023-01-11T15:01:56Z</time>
      </trkpt>
      <trkpt lat="49.85765" lon="2.09015">
        <ele>124.7</ele>
        <time>2023-01-11T15:01:57Z</time>
      </trkpt>
      <trkpt lat="49.85765" lon="2.09016">
        <ele>124.7</ele>
        <time>2023-01-11T15:01:58Z</time>
      </trkpt>
      <trkpt lat="49.85766" lon="2.09018">
        <ele>124.7</ele>
        <time>2023-01-11T15:02:00Z</time>
      </trkpt>
      <trkpt lat="49.85766" lon="2.09019">
        <ele>124.7</ele>
        <time>2023-01-11T15:02:01Z</time>
      </trkpt>
      <trkpt lat="49.85767" lon="2.0902">
        <ele>124.7</ele>
        <time>2023-01-11T15:02:02Z</time>
      </trkpt>
      <trkpt lat="49.85768" lon="2.09022">
        <ele>124.7</ele>
        <time>2023-01-11T15:02:03Z</time>
      </trkpt>
      <trkpt lat="49.85768" lon="2.09023">
        <ele>124.7</ele>
        <time>2023-01-11T15:02:04Z</time>
      </trkpt>
      <trkpt lat="49.85769" lon="2.09024">
        <ele>124.7</ele>
        <time>2023-01-11T15:02:05Z</time>
      </trkpt>
      <trkpt lat="49.85769" lon="2.09027">
        <ele>124.7</ele>
        <time>2023-01-11T15:02:06Z</time>
      </trkpt>
      <trkpt lat="49.8577" lon="2.09028">
        <ele>124.7</ele>
        <time>2023-01-11T15:02:07Z</time>
      </trkpt>
      <trkpt lat="49.8577" lon="2.0903">
        <ele>124.7</ele>
        <time>2023-01-11T15:02:09Z</time>
      </trkpt>
      <trkpt lat="49.85771" lon="2.09031">
        <ele>124.7</ele>
        <time>2023-01-11T15:02:10Z</time>
      </trkpt>
      <trkpt lat="49.85771" lon="2.09032">
        <ele>124.7</ele>
        <time>2023-01-11T15:02:11Z</time>
      </trkpt>
      <trkpt lat="49.85772" lon="2.09034">
        <ele>124.7</ele>
        <time>2023-01-11T15:02:12Z</time>
      </trkpt>
      <trkpt lat="49.85772" lon="2.09035">
        <ele>124.7</ele>
        <time>2023-01-11T15:02:13Z</time>
      </trkpt>
      <trkpt lat="49.85773" lon="2.09037">
        <ele>124.7</ele>
        <time>2023-01-11T15:02:14Z</time>
      </trkpt>
      <trkpt lat="49.85773" lon="2.09039">
        <ele>124.7</ele>
        <time>2023-01-11T15:02:15Z</time>
      </trkpt>
      <trkpt lat="49.85774" lon="2.0904">
        <ele>124.7</ele>
        <time>2023-01-11T15:02:16Z</time>
      </trkpt>
      <trkpt lat="49.85774" lon="2.09042">
        <ele>124.7</ele>
        <time>2023-01-11T15:02:18Z</time>
      </trkpt>
      <trkpt lat="49.85775" lon="2.09043">
        <ele>124.8</ele>
        <time>2023-01-11T15:02:19Z</time>
      </trkpt>
      <trkpt lat="49.85776" lon="2.09046">
        <ele>124.8</ele>
        <time>2023-01-11T15:02:20Z</time>
      </trkpt>
      <trkpt lat="49.85776" lon="2.09047">
        <ele>124.8</ele>
        <time>2023-01-11T15:02:21Z</time>
      </trkpt>
      <trkpt lat="49.85777" lon="2.09048">
        <ele>124.8</ele>
        <time>2023-01-11T15:02:22Z</time>
      </trkpt>
      <trkpt lat="49.85778" lon="2.09051">
        <ele>124.8</ele>
        <time>2023-01-11T15:02:23Z</time>
      </trkpt>
      <trkpt lat="49.85778" lon="2.09052">
        <ele>124.8</ele>
        <time>2023-01-11T15:02:24Z</time>
      </trkpt>
      <trkpt lat="49.85778" lon="2.09053">
        <ele>124.8</ele>
        <time>2023-01-11T15:02:25Z</time>
      </trkpt>
      <trkpt lat="49.85779" lon="2.09056">
        <ele>124.8</ele>
        <time>2023-01-11T15:02:26Z</time>
      </trkpt>
      <trkpt lat="49.8578" lon="2.09057">
        <ele>124.8</ele>
        <time>2023-01-11T15:02:28Z</time>
      </trkpt>
      <trkpt lat="49.8578" lon="2.09058">
        <ele>124.8</ele>
        <time>2023-01-11T15:02:29Z</time>
      </trkpt>
      <trkpt lat="49.85781" lon="2.0906">
        <ele>124.8</ele>
        <time>2023-01-11T15:02:30Z</time>
      </trkpt>
      <trkpt lat="49.85782" lon="2.09061">
        <ele>124.8</ele>
        <time>2023-01-11T15:02:31Z</time>
      </trkpt>
      <trkpt lat="49.85782" lon="2.09063">
        <ele>124.9</ele>
        <time>2023-01-11T15:02:32Z</time>
      </trkpt>
      <trkpt lat="49.85783" lon="2.09064">
        <ele>124.9</ele>
        <time>2023-01-11T15:02:33Z</time>
      </trkpt>
      <trkpt lat="49.85784" lon="2.09065">
        <ele>124.9</ele>
        <time>2023-01-11T15:02:34Z</time>
      </trkpt>
      <trkpt lat="49.85785" lon="2.09066">
        <ele>124.9</ele>
        <time>2023-01-11T15:02:35Z</time>
      </trkpt>
      <trkpt lat="49.85786" lon="2.09067">
        <ele>124.9</ele>
        <time>2023-01-11T15:02:37Z</time>
      </trkpt>
      <trkpt lat="49.85786" lon="2.09069">
        <ele>124.9</ele>
        <time>2023-01-11T15:02:38Z</time>
      </trkpt>
      <trkpt lat="49.85787" lon="2.0907">
        <ele>124.9</ele>
        <time>2023-01-11T15:02:39Z</time>
      </trkpt>
      <trkpt lat="49.85787" lon="2.09073">
        <ele>124.9</ele>
        <time>2023-01-11T15:02:40Z</time>
      </trkpt>
      <trkpt lat="49.85788" lon="2.09074">
        <ele>124.9</ele>
        <time>2023-01-11T15:02:41Z</time>
      </trkpt>
      <trkpt lat="49.85789" lon="2.09076">
        <ele>124.9</ele>
        <time>2023-01-11T15:02:42Z</time>
      </trkpt>
      <trkpt lat="49.85789" lon="2.09078">
        <ele>124.9</ele>
        <time>2023-01-11T15:02:44Z</time>
      </trkpt>
      <trkpt lat="49.85789" lon="2.09079">
        <ele>124.9</ele>
        <time>2023-01-11T15:02:45Z</time>
      </trkpt>
      <trkpt lat="49.8579" lon="2.09081">
        <ele>125</ele>
        <time>2023-01-11T15:02:46Z</time>
      </trkpt>
      <trkpt lat="49.8579" lon="2.09082">
        <ele>125</ele>
        <time>2023-01-11T15:02:47Z</time>
      </trkpt>
      <trkpt lat="49.85791" lon="2.09084">
        <ele>125</ele>
        <time>2023-01-11T15:02:48Z</time>
      </trkpt>
      <trkpt lat="49.85791" lon="2.09085">
        <ele>125</ele>
        <time>2023-01-11T15:02:49Z</time>
      </trkpt>
      <trkpt lat="49.85791" lon="2.09088">
        <ele>125</ele>
        <time>2023-01-11T15:02:50Z</time>
      </trkpt>
      <trkpt lat="49.85792" lon="2.09091">
        <ele>125</ele>
        <time>2023-01-11T15:02:52Z</time>
      </trkpt>
      <trkpt lat="49.85793" lon="2.09092">
        <ele>125</ele>
        <time>2023-01-11T15:02:53Z</time>
      </trkpt>
      <trkpt lat="49.85793" lon="2.09093">
        <ele>125</ele>
        <time>2023-01-11T15:02:54Z</time>
      </trkpt>
      <trkpt lat="49.85794" lon="2.09094">
        <ele>125</ele>
        <time>2023-01-11T15:02:55Z</time>
      </trkpt>
      <trkpt lat="49.85795" lon="2.09095">
        <ele>125</ele>
        <time>2023-01-11T15:02:56Z</time>
      </trkpt>
      <trkpt lat="49.85796" lon="2.09096">
        <ele>125</ele>
        <time>2023-01-11T15:02:57Z</time>
      </trkpt>
      <trkpt lat="49.85797" lon="2.09098">
        <ele>125</ele>
        <time>2023-01-11T15:02:58Z</time>
      </trkpt>
      <trkpt lat="49.85797" lon="2.091">
        <ele>125.1</ele>
        <time>2023-01-11T15:03:00Z</time>
      </trkpt>
      <trkpt lat="49.85798" lon="2.09101">
        <ele>125.1</ele>
        <time>2023-01-11T15:03:01Z</time>
      </trkpt>
      <trkpt lat="49.85798" lon="2.09102">
        <ele>125.1</ele>
        <time>2023-01-11T15:03:02Z</time>
      </trkpt>
      <trkpt lat="49.85799" lon="2.09104">
        <ele>125.1</ele>
        <time>2023-01-11T15:03:03Z</time>
      </trkpt>
      <trkpt lat="49.85799" lon="2.09106">
        <ele>125.1</ele>
        <time>2023-01-11T15:03:04Z</time>
      </trkpt>
      <trkpt lat="49.858" lon="2.09107">
        <ele>125.1</ele>
        <time>2023-01-11T15:03:05Z</time>
      </trkpt>
      <trkpt lat="49.858" lon="2.09109">
        <ele>125.1</ele>
        <time>2023-01-11T15:03:06Z</time>
      </trkpt>
      <trkpt lat="49.858" lon="2.0911">
        <ele>125.1</ele>
        <time>2023-01-11T15:03:08Z</time>
      </trkpt>
      <trkpt lat="49.85801" lon="2.09112">
        <ele>125.1</ele>
        <time>2023-01-11T15:03:09Z</time>
      </trkpt>
      <trkpt lat="49.85802" lon="2.09113">
        <ele>125.1</ele>
        <time>2023-01-11T15:03:10Z</time>
      </trkpt>
      <trkpt lat="49.85802" lon="2.09114">
        <ele>125.1</ele>
        <time>2023-01-11T15:03:11Z</time>
      </trkpt>
      <trkpt lat="49.85803" lon="2.09117">
        <ele>125.1</ele>
        <time>2023-01-11T15:03:12Z</time>
      </trkpt>
      <trkpt lat="49.85803" lon="2.09118">
        <ele>125.1</ele>
        <time>2023-01-11T15:03:13Z</time>
      </trkpt>
      <trkpt lat="49.85803" lon="2.0912">
        <ele>125.2</ele>
        <time>2023-01-11T15:03:14Z</time>
      </trkpt>
      <trkpt lat="49.85804" lon="2.09121">
        <ele>125.2</ele>
        <time>2023-01-11T15:03:15Z</time>
      </trkpt>
      <trkpt lat="49.85804" lon="2.09123">
        <ele>125.2</ele>
        <time>2023-01-11T15:03:17Z</time>
      </trkpt>
      <trkpt lat="49.85805" lon="2.09125">
        <ele>125.2</ele>
        <time>2023-01-11T15:03:18Z</time>
      </trkpt>
      <trkpt lat="49.85805" lon="2.09127">
        <ele>125.2</ele>
        <time>2023-01-11T15:03:19Z</time>
      </trkpt>
      <trkpt lat="49.85806" lon="2.09129">
        <ele>125.2</ele>
        <time>2023-01-11T15:03:20Z</time>
      </trkpt>
      <trkpt lat="49.85806" lon="2.0913">
        <ele>125.2</ele>
        <time>2023-01-11T15:03:21Z</time>
      </trkpt>
      <trkpt lat="49.85807" lon="2.09133">
        <ele>125.2</ele>
        <time>2023-01-11T15:03:22Z</time>
      </trkpt>
      <trkpt lat="49.85808" lon="2.09134">
        <ele>125.2</ele>
        <time>2023-01-11T15:03:24Z</time>
      </trkpt>
      <trkpt lat="49.85808" lon="2.09135">
        <ele>125.2</ele>
        <time>2023-01-11T15:03:25Z</time>
      </trkpt>
      <trkpt lat="49.85809" lon="2.09136">
        <ele>125.2</ele>
        <time>2023-01-11T15:03:26Z</time>
      </trkpt>
      <trkpt lat="49.85809" lon="2.09138">
        <ele>125.2</ele>
        <time>2023-01-11T15:03:27Z</time>
      </trkpt>
      <trkpt lat="49.8581" lon="2.09139">
        <ele>125.2</ele>
        <time>2023-01-11T15:03:28Z</time>
      </trkpt>
      <trkpt lat="49.85811" lon="2.0914">
        <ele>125.2</ele>
        <time>2023-01-11T15:03:29Z</time>
      </trkpt>
      <trkpt lat="49.85811" lon="2.09141">
        <ele>125.2</ele>
        <time>2023-01-11T15:03:30Z</time>
      </trkpt>
      <trkpt lat="49.85812" lon="2.09142">
        <ele>125.2</ele>
        <time>2023-01-11T15:03:31Z</time>
      </trkpt>
      <trkpt lat="49.85813" lon="2.09144">
        <ele>125.2</ele>
        <time>2023-01-11T15:03:32Z</time>
      </trkpt>
      <trkpt lat="49.85814" lon="2.09145">
        <ele>125.2</ele>
        <time>2023-01-11T15:03:33Z</time>
      </trkpt>
      <trkpt lat="49.85815" lon="2.09146">
        <ele>125.2</ele>
        <time>2023-01-11T15:03:35Z</time>
      </trkpt>
      <trkpt lat="49.85816" lon="2.09147">
        <ele>125.2</ele>
        <time>2023-01-11T15:03:36Z</time>
      </trkpt>
      <trkpt lat="49.85816" lon="2.09149">
        <ele>125.2</ele>
        <time>2023-01-11T15:03:37Z</time>
      </trkpt>
      <trkpt lat="49.85817" lon="2.0915">
        <ele>125.2</ele>
        <time>2023-01-11T15:03:38Z</time>
      </trkpt>
      <trkpt lat="49.85818" lon="2.09152">
        <ele>125.2</ele>
        <time>2023-01-11T15:03:39Z</time>
      </trkpt>
      <trkpt lat="49.85818" lon="2.09154">
        <ele>125.2</ele>
        <time>2023-01-11T15:03:40Z</time>
      </trkpt>
      <trkpt lat="49.85818" lon="2.09155">
        <ele>125.2</ele>
        <time>2023-01-11T15:03:41Z</time>
      </trkpt>
      <trkpt lat="49.85819" lon="2.09157">
        <ele>125.2</ele>
        <time>2023-01-11T15:03:42Z</time>
      </trkpt>
      <trkpt lat="49.8582" lon="2.09158">
        <ele>125.2</ele>
        <time>2023-01-11T15:03:43Z</time>
      </trkpt>
      <trkpt lat="49.85821" lon="2.09161">
        <ele>125.2</ele>
        <time>2023-01-11T15:03:44Z</time>
      </trkpt>
      <trkpt lat="49.85821" lon="2.09162">
        <ele>125.2</ele>
        <time>2023-01-11T15:03:45Z</time>
      </trkpt>
      <trkpt lat="49.85822" lon="2.09164">
        <ele>125.2</ele>
        <time>2023-01-11T15:03:47Z</time>
      </trkpt>
      <trkpt lat="49.85822" lon="2.09165">
        <ele>125.2</ele>
        <time>2023-01-11T15:03:48Z</time>
      </trkpt>
      <trkpt lat="49.85823" lon="2.09166">
        <ele>125.2</ele>
        <time>2023-01-11T15:03:49Z</time>
      </trkpt>
      <trkpt lat="49.85823" lon="2.09168">
        <ele>125.2</ele>
        <time>2023-01-11T15:03:50Z</time>
      </trkpt>
      <trkpt lat="49.85823" lon="2.09169">
        <ele>125.2</ele>
        <time>2023-01-11T15:03:51Z</time>
      </trkpt>
      <trkpt lat="49.85824" lon="2.0917">
        <ele>125.2</ele>
        <time>2023-01-11T15:03:52Z</time>
      </trkpt>
      <trkpt lat="49.85824" lon="2.09171">
        <ele>125.2</ele>
        <time>2023-01-11T15:03:53Z</time>
      </trkpt>
      <trkpt lat="49.85825" lon="2.09171">
        <ele>125.2</ele>
        <time>2023-01-11T15:03:54Z</time>
      </trkpt>
      <trkpt lat="49.85827" lon="2.09172">
        <ele>125.2</ele>
        <time>2023-01-11T15:03:56Z</time>
      </trkpt>
      <trkpt lat="49.85828" lon="2.09172">
        <ele>125.2</ele>
        <time>2023-01-11T15:03:57Z</time>
      </trkpt>
      <trkpt lat="49.85829" lon="2.09173">
        <ele>125.2</ele>
        <time>2023-01-11T15:03:58Z</time>
      </trkpt>
      <trkpt lat="49.8583" lon="2.09173">
        <ele>125.2</ele>
        <time>2023-01-11T15:03:59Z</time>
      </trkpt>
      <trkpt lat="49.8583" lon="2.09174">
        <ele>125.3</ele>
        <time>2023-01-11T15:04:00Z</time>
      </trkpt>
      <trkpt lat="49.85831" lon="2.09176">
        <ele>125.3</ele>
        <time>2023-01-11T15:04:01Z</time>
      </trkpt>
      <trkpt lat="49.85831" lon="2.09177">
        <ele>125.3</ele>
        <time>2023-01-11T15:04:02Z</time>
      </trkpt>
      <trkpt lat="49.85832" lon="2.09179">
        <ele>125.3</ele>
        <time>2023-01-11T15:04:03Z</time>
      </trkpt>
      <trkpt lat="49.85833" lon="2.09181">
        <ele>125.3</ele>
        <time>2023-01-11T15:04:05Z</time>
      </trkpt>
      <trkpt lat="49.85833" lon="2.09183">
        <ele>125.3</ele>
        <time>2023-01-11T15:04:06Z</time>
      </trkpt>
      <trkpt lat="49.85834" lon="2.09184">
        <ele>125.3</ele>
        <time>2023-01-11T15:04:07Z</time>
      </trkpt>
      <trkpt lat="49.85834" lon="2.09186">
        <ele>125.4</ele>
        <time>2023-01-11T15:04:08Z</time>
      </trkpt>
      <trkpt lat="49.85835" lon="2.09188">
        <ele>125.4</ele>
        <time>2023-01-11T15:04:09Z</time>
      </trkpt>
      <trkpt lat="49.85835" lon="2.0919">
        <ele>125.4</ele>
        <time>2023-01-11T15:04:10Z</time>
      </trkpt>
      <trkpt lat="49.85835" lon="2.09191">
        <ele>125.4</ele>
        <time>2023-01-11T15:04:11Z</time>
      </trkpt>
      <trkpt lat="49.85836" lon="2.09194">
        <ele>125.4</ele>
        <time>2023-01-11T15:04:13Z</time>
      </trkpt>
      <trkpt lat="49.85836" lon="2.09196">
        <ele>125.4</ele>
        <time>2023-01-11T15:04:14Z</time>
      </trkpt>
      <trkpt lat="49.85837" lon="2.09197">
        <ele>125.4</ele>
        <time>2023-01-11T15:04:15Z</time>
      </trkpt>
      <trkpt lat="49.85837" lon="2.09199">
        <ele>125.5</ele>
        <time>2023-01-11T15:04:16Z</time>
      </trkpt>
      <trkpt lat="49.85837" lon="2.092">
        <ele>125.5</ele>
        <time>2023-01-11T15:04:17Z</time>
      </trkpt>
      <trkpt lat="49.85838" lon="2.09202">
        <ele>125.5</ele>
        <time>2023-01-11T15:04:18Z</time>
      </trkpt>
      <trkpt lat="49.85838" lon="2.09203">
        <ele>125.5</ele>
        <time>2023-01-11T15:04:19Z</time>
      </trkpt>
      <trkpt lat="49.85839" lon="2.09205">
        <ele>125.5</ele>
        <time>2023-01-11T15:04:21Z</time>
      </trkpt>
      <trkpt lat="49.8584" lon="2.09207">
        <ele>125.5</ele>
        <time>2023-01-11T15:04:22Z</time>
      </trkpt>
      <trkpt lat="49.8584" lon="2.09208">
        <ele>125.5</ele>
        <time>2023-01-11T15:04:23Z</time>
      </trkpt>
      <trkpt lat="49.85841" lon="2.09209">
        <ele>125.5</ele>
        <time>2023-01-11T15:04:24Z</time>
      </trkpt>
      <trkpt lat="49.85842" lon="2.09212">
        <ele>125.6</ele>
        <time>2023-01-11T15:04:25Z</time>
      </trkpt>
      <trkpt lat="49.85842" lon="2.09212">
        <ele>125.6</ele>
        <time>2023-01-11T15:04:26Z</time>
      </trkpt>
      <trkpt lat="49.85842" lon="2.09214">
        <ele>125.6</ele>
        <time>2023-01-11T15:04:27Z</time>
      </trkpt>
      <trkpt lat="49.85843" lon="2.09215">
        <ele>125.6</ele>
        <time>2023-01-11T15:04:28Z</time>
      </trkpt>
      <trkpt lat="49.85844" lon="2.09216">
        <ele>125.6</ele>
        <time>2023-01-11T15:04:30Z</time>
      </trkpt>
      <trkpt lat="49.85844" lon="2.09218">
        <ele>125.6</ele>
        <time>2023-01-11T15:04:31Z</time>
      </trkpt>
      <trkpt lat="49.85845" lon="2.09219">
        <ele>125.6</ele>
        <time>2023-01-11T15:04:32Z</time>
      </trkpt>
      <trkpt lat="49.85845" lon="2.09221">
        <ele>125.7</ele>
        <time>2023-01-11T15:04:33Z</time>
      </trkpt>
      <trkpt lat="49.85846" lon="2.09222">
        <ele>125.7</ele>
        <time>2023-01-11T15:04:34Z</time>
      </trkpt>
      <trkpt lat="49.85846" lon="2.09224">
        <ele>125.7</ele>
        <time>2023-01-11T15:04:35Z</time>
      </trkpt>
      <trkpt lat="49.85846" lon="2.09225">
        <ele>125.7</ele>
        <time>2023-01-11T15:04:36Z</time>
      </trkpt>
      <trkpt lat="49.85847" lon="2.09226">
        <ele>125.7</ele>
        <time>2023-01-11T15:04:37Z</time>
      </trkpt>
      <trkpt lat="49.85848" lon="2.09228">
        <ele>125.7</ele>
        <time>2023-01-11T15:04:39Z</time>
      </trkpt>
      <trkpt lat="49.85848" lon="2.09229">
        <ele>125.7</ele>
        <time>2023-01-11T15:04:40Z</time>
      </trkpt>
      <trkpt lat="49.85848" lon="2.09231">
        <ele>125.8</ele>
        <time>2023-01-11T15:04:41Z</time>
      </trkpt>
      <trkpt lat="49.85849" lon="2.09232">
        <ele>125.8</ele>
        <time>2023-01-11T15:04:42Z</time>
      </trkpt>
      <trkpt lat="49.8585" lon="2.09233">
        <ele>125.8</ele>
        <time>2023-01-11T15:04:43Z</time>
      </trkpt>
      <trkpt lat="49.8585" lon="2.09235">
        <ele>125.8</ele>
        <time>2023-01-11T15:04:44Z</time>
      </trkpt>
      <trkpt lat="49.85851" lon="2.09236">
        <ele>125.8</ele>
        <time>2023-01-11T15:04:45Z</time>
      </trkpt>
      <trkpt lat="49.85852" lon="2.09237">
        <ele>125.8</ele>
        <time>2023-01-11T15:04:46Z</time>
      </trkpt>
      <trkpt lat="49.85852" lon="2.09239">
        <ele>125.9</ele>
        <time>2023-01-11T15:04:47Z</time>
      </trkpt>
      <trkpt lat="49.85853" lon="2.0924">
        <ele>125.9</ele>
        <time>2023-01-11T15:04:49Z</time>
      </trkpt>
      <trkpt lat="49.85854" lon="2.09241">
        <ele>125.9</ele>
        <time>2023-01-11T15:04:50Z</time>
      </trkpt>
      <trkpt lat="49.85854" lon="2.09243">
        <ele>125.9</ele>
        <time>2023-01-11T15:04:51Z</time>
      </trkpt>
      <trkpt lat="49.85855" lon="2.09244">
        <ele>125.9</ele>
        <time>2023-01-11T15:04:52Z</time>
      </trkpt>
      <trkpt lat="49.85855" lon="2.09244">
        <ele>125.9</ele>
        <time>2023-01-11T15:04:53Z</time>
      </trkpt>
      <trkpt lat="49.85856" lon="2.09245">
        <ele>125.9</ele>
        <time>2023-01-11T15:04:54Z</time>
      </trkpt>
      <trkpt lat="49.85856" lon="2.09247">
        <ele>125.9</ele>
        <time>2023-01-11T15:04:55Z</time>
      </trkpt>
      <trkpt lat="49.85857" lon="2.09248">
        <ele>125.9</ele>
        <time>2023-01-11T15:04:56Z</time>
      </trkpt>
      <trkpt lat="49.85858" lon="2.0925">
        <ele>126</ele>
        <time>2023-01-11T15:04:58Z</time>
      </trkpt>
      <trkpt lat="49.85858" lon="2.09251">
        <ele>126</ele>
        <time>2023-01-11T15:04:59Z</time>
      </trkpt>
      <trkpt lat="49.85859" lon="2.09252">
        <ele>126</ele>
        <time>2023-01-11T15:05:00Z</time>
      </trkpt>
      <trkpt lat="49.8586" lon="2.09254">
        <ele>126</ele>
        <time>2023-01-11T15:05:01Z</time>
      </trkpt>
      <trkpt lat="49.8586" lon="2.09255">
        <ele>126</ele>
        <time>2023-01-11T15:05:02Z</time>
      </trkpt>
      <trkpt lat="49.85861" lon="2.09256">
        <ele>126</ele>
        <time>2023-01-11T15:05:03Z</time>
      </trkpt>
      <trkpt lat="49.85861" lon="2.09257">
        <ele>126</ele>
        <time>2023-01-11T15:05:04Z</time>
      </trkpt>
      <trkpt lat="49.85862" lon="2.09259">
        <ele>126</ele>
        <time>2023-01-11T15:05:05Z</time>
      </trkpt>
      <trkpt lat="49.85863" lon="2.09262">
        <ele>126</ele>
        <time>2023-01-11T15:05:06Z</time>
      </trkpt>
      <trkpt lat="49.85863" lon="2.09263">
        <ele>126.1</ele>
        <time>2023-01-11T15:05:08Z</time>
      </trkpt>
      <trkpt lat="49.85864" lon="2.09264">
        <ele>126.1</ele>
        <time>2023-01-11T15:05:09Z</time>
      </trkpt>
      <trkpt lat="49.85865" lon="2.09267">
        <ele>126.1</ele>
        <time>2023-01-11T15:05:10Z</time>
      </trkpt>
      <trkpt lat="49.85865" lon="2.09268">
        <ele>126.1</ele>
        <time>2023-01-11T15:05:11Z</time>
      </trkpt>
      <trkpt lat="49.85865" lon="2.09269">
        <ele>126.1</ele>
        <time>2023-01-11T15:05:12Z</time>
      </trkpt>
      <trkpt lat="49.85866" lon="2.0927">
        <ele>126.1</ele>
        <time>2023-01-11T15:05:13Z</time>
      </trkpt>
      <trkpt lat="49.85866" lon="2.09272">
        <ele>126.1</ele>
        <time>2023-01-11T15:05:14Z</time>
      </trkpt>
      <trkpt lat="49.85867" lon="2.09273">
        <ele>126.1</ele>
        <time>2023-01-11T15:05:15Z</time>
      </trkpt>
      <trkpt lat="49.85868" lon="2.09275">
        <ele>126.2</ele>
        <time>2023-01-11T15:05:16Z</time>
      </trkpt>
      <trkpt lat="49.85868" lon="2.09277">
        <ele>126.2</ele>
        <time>2023-01-11T15:05:17Z</time>
      </trkpt>
      <trkpt lat="49.85869" lon="2.09279">
        <ele>126.2</ele>
        <time>2023-01-11T15:05:19Z</time>
      </trkpt>
      <trkpt lat="49.85869" lon="2.0928">
        <ele>126.2</ele>
        <time>2023-01-11T15:05:20Z</time>
      </trkpt>
      <trkpt lat="49.8587" lon="2.09284">
        <ele>126.2</ele>
        <time>2023-01-11T15:05:21Z</time>
      </trkpt>
      <trkpt lat="49.8587" lon="2.09284">
        <ele>126.2</ele>
        <time>2023-01-11T15:05:22Z</time>
      </trkpt>
      <trkpt lat="49.8587" lon="2.09286">
        <ele>126.2</ele>
        <time>2023-01-11T15:05:23Z</time>
      </trkpt>
      <trkpt lat="49.85871" lon="2.09287">
        <ele>126.2</ele>
        <time>2023-01-11T15:05:24Z</time>
      </trkpt>
      <trkpt lat="49.85871" lon="2.09288">
        <ele>126.3</ele>
        <time>2023-01-11T15:05:25Z</time>
      </trkpt>
      <trkpt lat="49.85872" lon="2.09291">
        <ele>126.3</ele>
        <time>2023-01-11T15:05:27Z</time>
      </trkpt>
      <trkpt lat="49.85873" lon="2.09292">
        <ele>126.3</ele>
        <time>2023-01-11T15:05:28Z</time>
      </trkpt>
      <trkpt lat="49.85873" lon="2.09293">
        <ele>126.3</ele>
        <time>2023-01-11T15:05:29Z</time>
      </trkpt>
      <trkpt lat="49.85874" lon="2.09294">
        <ele>126.3</ele>
        <time>2023-01-11T15:05:30Z</time>
      </trkpt>
      <trkpt lat="49.85875" lon="2.09296">
        <ele>126.3</ele>
        <time>2023-01-11T15:05:31Z</time>
      </trkpt>
      <trkpt lat="49.85876" lon="2.09297">
        <ele>126.3</ele>
        <time>2023-01-11T15:05:32Z</time>
      </trkpt>
      <trkpt lat="49.85876" lon="2.09299">
        <ele>126.4</ele>
        <time>2023-01-11T15:05:33Z</time>
      </trkpt>
      <trkpt lat="49.85877" lon="2.093">
        <ele>126.4</ele>
        <time>2023-01-11T15:05:35Z</time>
      </trkpt>
      <trkpt lat="49.85878" lon="2.09302">
        <ele>126.4</ele>
        <time>2023-01-11T15:05:36Z</time>
      </trkpt>
      <trkpt lat="49.85878" lon="2.09303">
        <ele>126.4</ele>
        <time>2023-01-11T15:05:37Z</time>
      </trkpt>
      <trkpt lat="49.85879" lon="2.09304">
        <ele>126.5</ele>
        <time>2023-01-11T15:05:38Z</time>
      </trkpt>
      <trkpt lat="49.85881" lon="2.09307">
        <ele>126.5</ele>
        <time>2023-01-11T15:05:39Z</time>
      </trkpt>
      <trkpt lat="49.85881" lon="2.09308">
        <ele>126.5</ele>
        <time>2023-01-11T15:05:40Z</time>
      </trkpt>
      <trkpt lat="49.85882" lon="2.09309">
        <ele>126.5</ele>
        <time>2023-01-11T15:05:41Z</time>
      </trkpt>
      <trkpt lat="49.85883" lon="2.09311">
        <ele>126.6</ele>
        <time>2023-01-11T15:05:42Z</time>
      </trkpt>
      <trkpt lat="49.85884" lon="2.09313">
        <ele>126.6</ele>
        <time>2023-01-11T15:05:43Z</time>
      </trkpt>
      <trkpt lat="49.85884" lon="2.09314">
        <ele>126.6</ele>
        <time>2023-01-11T15:05:44Z</time>
      </trkpt>
      <trkpt lat="49.85885" lon="2.09316">
        <ele>126.6</ele>
        <time>2023-01-11T15:05:46Z</time>
      </trkpt>
      <trkpt lat="49.85885" lon="2.09317">
        <ele>126.6</ele>
        <time>2023-01-11T15:05:47Z</time>
      </trkpt>
      <trkpt lat="49.85885" lon="2.09318">
        <ele>126.7</ele>
        <time>2023-01-11T15:05:48Z</time>
      </trkpt>
      <trkpt lat="49.85886" lon="2.0932">
        <ele>126.7</ele>
        <time>2023-01-11T15:05:49Z</time>
      </trkpt>
      <trkpt lat="49.85887" lon="2.09321">
        <ele>126.7</ele>
        <time>2023-01-11T15:05:50Z</time>
      </trkpt>
      <trkpt lat="49.85888" lon="2.09323">
        <ele>126.7</ele>
        <time>2023-01-11T15:05:52Z</time>
      </trkpt>
      <trkpt lat="49.85889" lon="2.09326">
        <ele>126.7</ele>
        <time>2023-01-11T15:05:53Z</time>
      </trkpt>
      <trkpt lat="49.8589" lon="2.09327">
        <ele>126.8</ele>
        <time>2023-01-11T15:05:54Z</time>
      </trkpt>
      <trkpt lat="49.8589" lon="2.09328">
        <ele>126.8</ele>
        <time>2023-01-11T15:05:55Z</time>
      </trkpt>
      <trkpt lat="49.85891" lon="2.0933">
        <ele>126.8</ele>
        <time>2023-01-11T15:05:56Z</time>
      </trkpt>
      <trkpt lat="49.85891" lon="2.09331">
        <ele>126.8</ele>
        <time>2023-01-11T15:05:57Z</time>
      </trkpt>
      <trkpt lat="49.85892" lon="2.09333">
        <ele>126.8</ele>
        <time>2023-01-11T15:05:58Z</time>
      </trkpt>
      <trkpt lat="49.85893" lon="2.09336">
        <ele>126.8</ele>
        <time>2023-01-11T15:05:59Z</time>
      </trkpt>
      <trkpt lat="49.85893" lon="2.09337">
        <ele>126.8</ele>
        <time>2023-01-11T15:06:00Z</time>
      </trkpt>
      <trkpt lat="49.85894" lon="2.09338">
        <ele>126.9</ele>
        <time>2023-01-11T15:06:01Z</time>
      </trkpt>
      <trkpt lat="49.85895" lon="2.09341">
        <ele>126.9</ele>
        <time>2023-01-11T15:06:03Z</time>
      </trkpt>
      <trkpt lat="49.85895" lon="2.09342">
        <ele>126.9</ele>
        <time>2023-01-11T15:06:04Z</time>
      </trkpt>
      <trkpt lat="49.85896" lon="2.09343">
        <ele>126.9</ele>
        <time>2023-01-11T15:06:05Z</time>
      </trkpt>
      <trkpt lat="49.85897" lon="2.09345">
        <ele>126.9</ele>
        <time>2023-01-11T15:06:06Z</time>
      </trkpt>
      <trkpt lat="49.85897" lon="2.09347">
        <ele>126.9</ele>
        <time>2023-01-11T15:06:07Z</time>
      </trkpt>
      <trkpt lat="49.85899" lon="2.0935">
        <ele>126.9</ele>
        <time>2023-01-11T15:06:09Z</time>
      </trkpt>
      <trkpt lat="49.85899" lon="2.09351">
        <ele>127</ele>
        <time>2023-01-11T15:06:10Z</time>
      </trkpt>
      <trkpt lat="49.859" lon="2.09352">
        <ele>127</ele>
        <time>2023-01-11T15:06:11Z</time>
      </trkpt>
      <trkpt lat="49.85901" lon="2.09354">
        <ele>127</ele>
        <time>2023-01-11T15:06:12Z</time>
      </trkpt>
      <trkpt lat="49.85902" lon="2.09355">
        <ele>127</ele>
        <time>2023-01-11T15:06:13Z</time>
      </trkpt>
      <trkpt lat="49.85902" lon="2.09356">
        <ele>127</ele>
        <time>2023-01-11T15:06:14Z</time>
      </trkpt>
      <trkpt lat="49.85904" lon="2.09359">
        <ele>127</ele>
        <time>2023-01-11T15:06:16Z</time>
      </trkpt>
      <trkpt lat="49.85905" lon="2.09359">
        <ele>127</ele>
        <time>2023-01-11T15:06:17Z</time>
      </trkpt>
      <trkpt lat="49.85905" lon="2.0936">
        <ele>127</ele>
        <time>2023-01-11T15:06:18Z</time>
      </trkpt>
      <trkpt lat="49.85906" lon="2.09361">
        <ele>127</ele>
        <time>2023-01-11T15:06:19Z</time>
      </trkpt>
      <trkpt lat="49.85907" lon="2.09362">
        <ele>127</ele>
        <time>2023-01-11T15:06:20Z</time>
      </trkpt>
      <trkpt lat="49.85907" lon="2.09364">
        <ele>127</ele>
        <time>2023-01-11T15:06:21Z</time>
      </trkpt>
      <trkpt lat="49.85908" lon="2.09365">
        <ele>127</ele>
        <time>2023-01-11T15:06:22Z</time>
      </trkpt>
      <trkpt lat="49.85908" lon="2.09367">
        <ele>127.1</ele>
        <time>2023-01-11T15:06:23Z</time>
      </trkpt>
      <trkpt lat="49.85909" lon="2.09368">
        <ele>127.1</ele>
        <time>2023-01-11T15:06:24Z</time>
      </trkpt>
      <trkpt lat="49.8591" lon="2.0937">
        <ele>127.1</ele>
        <time>2023-01-11T15:06:25Z</time>
      </trkpt>
      <trkpt lat="49.85911" lon="2.09372">
        <ele>127.1</ele>
        <time>2023-01-11T15:06:26Z</time>
      </trkpt>
      <trkpt lat="49.85912" lon="2.09375">
        <ele>127.1</ele>
        <time>2023-01-11T15:06:28Z</time>
      </trkpt>
      <trkpt lat="49.85912" lon="2.09376">
        <ele>127.1</ele>
        <time>2023-01-11T15:06:29Z</time>
      </trkpt>
      <trkpt lat="49.85913" lon="2.09377">
        <ele>127.1</ele>
        <time>2023-01-11T15:06:30Z</time>
      </trkpt>
      <trkpt lat="49.85915" lon="2.0938">
        <ele>127.1</ele>
        <time>2023-01-11T15:06:31Z</time>
      </trkpt>
      <trkpt lat="49.85916" lon="2.09381">
        <ele>127.1</ele>
        <time>2023-01-11T15:06:32Z</time>
      </trkpt>
      <trkpt lat="49.85916" lon="2.09382">
        <ele>127.1</ele>
        <time>2023-01-11T15:06:33Z</time>
      </trkpt>
      <trkpt lat="49.85917" lon="2.09383">
        <ele>127.1</ele>
        <time>2023-01-11T15:06:34Z</time>
      </trkpt>
      <trkpt lat="49.85917" lon="2.09384">
        <ele>127.1</ele>
        <time>2023-01-11T15:06:35Z</time>
      </trkpt>
      <trkpt lat="49.85918" lon="2.09386">
        <ele>127.1</ele>
        <time>2023-01-11T15:06:36Z</time>
      </trkpt>
      <trkpt lat="49.85919" lon="2.09387">
        <ele>127.1</ele>
        <time>2023-01-11T15:06:38Z</time>
      </trkpt>
      <trkpt lat="49.85919" lon="2.09389">
        <ele>127.1</ele>
        <time>2023-01-11T15:06:39Z</time>
      </trkpt>
      <trkpt lat="49.8592" lon="2.0939">
        <ele>127.1</ele>
        <time>2023-01-11T15:06:40Z</time>
      </trkpt>
      <trkpt lat="49.8592" lon="2.09391">
        <ele>127.1</ele>
        <time>2023-01-11T15:06:41Z</time>
      </trkpt>
      <trkpt lat="49.85921" lon="2.09392">
        <ele>127.1</ele>
        <time>2023-01-11T15:06:42Z</time>
      </trkpt>
      <trkpt lat="49.85922" lon="2.09392">
        <ele>127.1</ele>
        <time>2023-01-11T15:06:43Z</time>
      </trkpt>
      <trkpt lat="49.85923" lon="2.09393">
        <ele>127.1</ele>
        <time>2023-01-11T15:06:44Z</time>
      </trkpt>
      <trkpt lat="49.85923" lon="2.09394">
        <ele>127.1</ele>
        <time>2023-01-11T15:06:45Z</time>
      </trkpt>
      <trkpt lat="49.85924" lon="2.09394">
        <ele>127.1</ele>
        <time>2023-01-11T15:06:47Z</time>
      </trkpt>
      <trkpt lat="49.85925" lon="2.09395">
        <ele>127.2</ele>
        <time>2023-01-11T15:06:48Z</time>
      </trkpt>
      <trkpt lat="49.85926" lon="2.09396">
        <ele>127.2</ele>
        <time>2023-01-11T15:06:49Z</time>
      </trkpt>
      <trkpt lat="49.85927" lon="2.09397">
        <ele>127.2</ele>
        <time>2023-01-11T15:06:50Z</time>
      </trkpt>
      <trkpt lat="49.85929" lon="2.09399">
        <ele>127.3</ele>
        <time>2023-01-11T15:06:51Z</time>
      </trkpt>
      <trkpt lat="49.8593" lon="2.094">
        <ele>127.3</ele>
        <time>2023-01-11T15:06:53Z</time>
      </trkpt>
      <trkpt lat="49.85931" lon="2.09401">
        <ele>127.3</ele>
        <time>2023-01-11T15:06:54Z</time>
      </trkpt>
      <trkpt lat="49.85932" lon="2.09402">
        <ele>127.4</ele>
        <time>2023-01-11T15:06:55Z</time>
      </trkpt>
      <trkpt lat="49.85933" lon="2.09404">
        <ele>127.4</ele>
        <time>2023-01-11T15:06:56Z</time>
      </trkpt>
      <trkpt lat="49.85934" lon="2.09405">
        <ele>127.4</ele>
        <time>2023-01-11T15:06:57Z</time>
      </trkpt>
      <trkpt lat="49.85936" lon="2.09407">
        <ele>127.5</ele>
        <time>2023-01-11T15:06:59Z</time>
      </trkpt>
      <trkpt lat="49.85937" lon="2.09408">
        <ele>127.5</ele>
        <time>2023-01-11T15:07:00Z</time>
      </trkpt>
      <trkpt lat="49.85937" lon="2.09409">
        <ele>127.5</ele>
        <time>2023-01-11T15:07:01Z</time>
      </trkpt>
      <trkpt lat="49.85938" lon="2.09413">
        <ele>127.5</ele>
        <time>2023-01-11T15:07:02Z</time>
      </trkpt>
      <trkpt lat="49.85938" lon="2.09414">
        <ele>127.5</ele>
        <time>2023-01-11T15:07:03Z</time>
      </trkpt>
      <trkpt lat="49.85938" lon="2.09415">
        <ele>127.5</ele>
        <time>2023-01-11T15:07:04Z</time>
      </trkpt>
      <trkpt lat="49.85938" lon="2.09417">
        <ele>127.5</ele>
        <time>2023-01-11T15:07:05Z</time>
      </trkpt>
      <trkpt lat="49.85937" lon="2.0942">
        <ele>127.5</ele>
        <time>2023-01-11T15:07:06Z</time>
      </trkpt>
      <trkpt lat="49.85936" lon="2.09421">
        <ele>127.5</ele>
        <time>2023-01-11T15:07:07Z</time>
      </trkpt>
      <trkpt lat="49.85936" lon="2.09423">
        <ele>127.5</ele>
        <time>2023-01-11T15:07:09Z</time>
      </trkpt>
      <trkpt lat="49.85935" lon="2.09425">
        <ele>127.5</ele>
        <time>2023-01-11T15:07:10Z</time>
      </trkpt>
      <trkpt lat="49.85935" lon="2.09427">
        <ele>127.5</ele>
        <time>2023-01-11T15:07:11Z</time>
      </trkpt>
      <trkpt lat="49.85934" lon="2.09429">
        <ele>127.5</ele>
        <time>2023-01-11T15:07:12Z</time>
      </trkpt>
      <trkpt lat="49.85933" lon="2.09431">
        <ele>127.5</ele>
        <time>2023-01-11T15:07:13Z</time>
      </trkpt>
      <trkpt lat="49.85933" lon="2.09433">
        <ele>127.4</ele>
        <time>2023-01-11T15:07:14Z</time>
      </trkpt>
      <trkpt lat="49.85932" lon="2.09435">
        <ele>127.4</ele>
        <time>2023-01-11T15:07:15Z</time>
      </trkpt>
      <trkpt lat="49.85931" lon="2.09438">
        <ele>127.4</ele>
        <time>2023-01-11T15:07:17Z</time>
      </trkpt>
      <trkpt lat="49.85931" lon="2.09439">
        <ele>127.4</ele>
        <time>2023-01-11T15:07:18Z</time>
      </trkpt>
      <trkpt lat="49.85931" lon="2.09441">
        <ele>127.4</ele>
        <time>2023-01-11T15:07:19Z</time>
      </trkpt>
      <trkpt lat="49.8593" lon="2.09443">
        <ele>127.4</ele>
        <time>2023-01-11T15:07:20Z</time>
      </trkpt>
      <trkpt lat="49.8593" lon="2.09444">
        <ele>127.4</ele>
        <time>2023-01-11T15:07:21Z</time>
      </trkpt>
      <trkpt lat="49.85929" lon="2.09446">
        <ele>127.5</ele>
        <time>2023-01-11T15:07:22Z</time>
      </trkpt>
      <trkpt lat="49.85929" lon="2.09447">
        <ele>127.5</ele>
        <time>2023-01-11T15:07:23Z</time>
      </trkpt>
      <trkpt lat="49.85929" lon="2.09448">
        <ele>127.5</ele>
        <time>2023-01-11T15:07:24Z</time>
      </trkpt>
      <trkpt lat="49.85929" lon="2.09449">
        <ele>127.5</ele>
        <time>2023-01-11T15:07:25Z</time>
      </trkpt>
      <trkpt lat="49.85928" lon="2.09451">
        <ele>127.5</ele>
        <time>2023-01-11T15:07:26Z</time>
      </trkpt>
      <trkpt lat="49.85928" lon="2.09454">
        <ele>127.5</ele>
        <time>2023-01-11T15:07:27Z</time>
      </trkpt>
      <trkpt lat="49.85928" lon="2.09456">
        <ele>127.5</ele>
        <time>2023-01-11T15:07:28Z</time>
      </trkpt>
      <trkpt lat="49.85928" lon="2.09457">
        <ele>127.5</ele>
        <time>2023-01-11T15:07:30Z</time>
      </trkpt>
      <trkpt lat="49.85928" lon="2.09459">
        <ele>127.5</ele>
        <time>2023-01-11T15:07:31Z</time>
      </trkpt>
      <trkpt lat="49.85928" lon="2.0946">
        <ele>127.5</ele>
        <time>2023-01-11T15:07:32Z</time>
      </trkpt>
      <trkpt lat="49.85927" lon="2.09462">
        <ele>127.5</ele>
        <time>2023-01-11T15:07:33Z</time>
      </trkpt>
      <trkpt lat="49.85927" lon="2.09465">
        <ele>127.5</ele>
        <time>2023-01-11T15:07:34Z</time>
      </trkpt>
      <trkpt lat="49.85927" lon="2.09467">
        <ele>127.5</ele>
        <time>2023-01-11T15:07:35Z</time>
      </trkpt>
      <trkpt lat="49.85927" lon="2.09468">
        <ele>127.5</ele>
        <time>2023-01-11T15:07:36Z</time>
      </trkpt>
      <trkpt lat="49.85927" lon="2.09471">
        <ele>127.5</ele>
        <time>2023-01-11T15:07:37Z</time>
      </trkpt>
      <trkpt lat="49.85927" lon="2.09473">
        <ele>127.5</ele>
        <time>2023-01-11T15:07:39Z</time>
      </trkpt>
      <trkpt lat="49.85926" lon="2.09474">
        <ele>127.5</ele>
        <time>2023-01-11T15:07:40Z</time>
      </trkpt>
      <trkpt lat="49.85926" lon="2.09476">
        <ele>127.5</ele>
        <time>2023-01-11T15:07:41Z</time>
      </trkpt>
      <trkpt lat="49.85926" lon="2.09478">
        <ele>127.5</ele>
        <time>2023-01-11T15:07:42Z</time>
      </trkpt>
      <trkpt lat="49.85925" lon="2.09481">
        <ele>127.5</ele>
        <time>2023-01-11T15:07:43Z</time>
      </trkpt>
      <trkpt lat="49.85925" lon="2.09482">
        <ele>127.5</ele>
        <time>2023-01-11T15:07:44Z</time>
      </trkpt>
      <trkpt lat="49.85924" lon="2.09484">
        <ele>127.5</ele>
        <time>2023-01-11T15:07:45Z</time>
      </trkpt>
      <trkpt lat="49.85924" lon="2.09487">
        <ele>127.5</ele>
        <time>2023-01-11T15:07:46Z</time>
      </trkpt>
      <trkpt lat="49.85924" lon="2.09489">
        <ele>127.5</ele>
        <time>2023-01-11T15:07:48Z</time>
      </trkpt>
      <trkpt lat="49.85924" lon="2.0949">
        <ele>127.5</ele>
        <time>2023-01-11T15:07:49Z</time>
      </trkpt>
      <trkpt lat="49.85923" lon="2.09494">
        <ele>127.5</ele>
        <time>2023-01-11T15:07:50Z</time>
      </trkpt>
      <trkpt lat="49.85923" lon="2.09496">
        <ele>127.5</ele>
        <time>2023-01-11T15:07:51Z</time>
      </trkpt>
      <trkpt lat="49.85922" lon="2.09497">
        <ele>127.5</ele>
        <time>2023-01-11T15:07:52Z</time>
      </trkpt>
      <trkpt lat="49.85922" lon="2.09499">
        <ele>127.5</ele>
        <time>2023-01-11T15:07:53Z</time>
      </trkpt>
      <trkpt lat="49.85921" lon="2.09501">
        <ele>127.5</ele>
        <time>2023-01-11T15:07:55Z</time>
      </trkpt>
      <trkpt lat="49.85921" lon="2.09503">
        <ele>127.5</ele>
        <time>2023-01-11T15:07:56Z</time>
      </trkpt>
      <trkpt lat="49.8592" lon="2.09505">
        <ele>127.5</ele>
        <time>2023-01-11T15:07:57Z</time>
      </trkpt>
      <trkpt lat="49.8592" lon="2.09506">
        <ele>127.5</ele>
        <time>2023-01-11T15:07:58Z</time>
      </trkpt>
      <trkpt lat="49.8592" lon="2.09507">
        <ele>127.5</ele>
        <time>2023-01-11T15:07:59Z</time>
      </trkpt>
      <trkpt lat="49.8592" lon="2.09509">
        <ele>127.5</ele>
        <time>2023-01-11T15:08:00Z</time>
      </trkpt>
      <trkpt lat="49.8592" lon="2.09511">
        <ele>127.5</ele>
        <time>2023-01-11T15:08:01Z</time>
      </trkpt>
      <trkpt lat="49.8592" lon="2.09512">
        <ele>127.5</ele>
        <time>2023-01-11T15:08:02Z</time>
      </trkpt>
      <trkpt lat="49.8592" lon="2.09513">
        <ele>127.4</ele>
        <time>2023-01-11T15:08:03Z</time>
      </trkpt>
      <trkpt lat="49.85919" lon="2.09515">
        <ele>127.4</ele>
        <time>2023-01-11T15:08:05Z</time>
      </trkpt>
      <trkpt lat="49.85919" lon="2.09517">
        <ele>127.4</ele>
        <time>2023-01-11T15:08:06Z</time>
      </trkpt>
      <trkpt lat="49.85919" lon="2.09519">
        <ele>127.4</ele>
        <time>2023-01-11T15:08:07Z</time>
      </trkpt>
      <trkpt lat="49.85919" lon="2.09521">
        <ele>127.4</ele>
        <time>2023-01-11T15:08:08Z</time>
      </trkpt>
      <trkpt lat="49.85919" lon="2.09524">
        <ele>127.4</ele>
        <time>2023-01-11T15:08:09Z</time>
      </trkpt>
      <trkpt lat="49.85918" lon="2.09525">
        <ele>127.4</ele>
        <time>2023-01-11T15:08:10Z</time>
      </trkpt>
      <trkpt lat="49.85918" lon="2.09526">
        <ele>127.4</ele>
        <time>2023-01-11T15:08:11Z</time>
      </trkpt>
      <trkpt lat="49.85918" lon="2.09528">
        <ele>127.4</ele>
        <time>2023-01-11T15:08:13Z</time>
      </trkpt>
      <trkpt lat="49.85917" lon="2.0953">
        <ele>127.4</ele>
        <time>2023-01-11T15:08:14Z</time>
      </trkpt>
      <trkpt lat="49.85917" lon="2.09532">
        <ele>127.4</ele>
        <time>2023-01-11T15:08:15Z</time>
      </trkpt>
      <trkpt lat="49.85916" lon="2.09534">
        <ele>127.4</ele>
        <time>2023-01-11T15:08:16Z</time>
      </trkpt>
      <trkpt lat="49.85915" lon="2.09537">
        <ele>127.4</ele>
        <time>2023-01-11T15:08:17Z</time>
      </trkpt>
      <trkpt lat="49.85915" lon="2.09538">
        <ele>127.4</ele>
        <time>2023-01-11T15:08:18Z</time>
      </trkpt>
      <trkpt lat="49.85914" lon="2.09542">
        <ele>127.3</ele>
        <time>2023-01-11T15:08:20Z</time>
      </trkpt>
      <trkpt lat="49.85913" lon="2.09543">
        <ele>127.3</ele>
        <time>2023-01-11T15:08:21Z</time>
      </trkpt>
      <trkpt lat="49.85913" lon="2.09544">
        <ele>127.3</ele>
        <time>2023-01-11T15:08:22Z</time>
      </trkpt>
      <trkpt lat="49.85913" lon="2.09545">
        <ele>127.3</ele>
        <time>2023-01-11T15:08:23Z</time>
      </trkpt>
      <trkpt lat="49.85912" lon="2.09547">
        <ele>127.3</ele>
        <time>2023-01-11T15:08:24Z</time>
      </trkpt>
      <trkpt lat="49.85912" lon="2.09549">
        <ele>127.3</ele>
        <time>2023-01-11T15:08:25Z</time>
      </trkpt>
      <trkpt lat="49.85911" lon="2.09552">
        <ele>127.3</ele>
        <time>2023-01-11T15:08:27Z</time>
      </trkpt>
      <trkpt lat="49.85911" lon="2.09552">
        <ele>127.3</ele>
        <time>2023-01-11T15:08:28Z</time>
      </trkpt>
      <trkpt lat="49.8591" lon="2.09554">
        <ele>127.3</ele>
        <time>2023-01-11T15:08:29Z</time>
      </trkpt>
      <trkpt lat="49.85909" lon="2.09557">
        <ele>127.3</ele>
        <time>2023-01-11T15:08:30Z</time>
      </trkpt>
      <trkpt lat="49.85908" lon="2.09558">
        <ele>127.3</ele>
        <time>2023-01-11T15:08:31Z</time>
      </trkpt>
      <trkpt lat="49.85907" lon="2.09559">
        <ele>127.3</ele>
        <time>2023-01-11T15:08:32Z</time>
      </trkpt>
      <trkpt lat="49.85906" lon="2.0956">
        <ele>127.3</ele>
        <time>2023-01-11T15:08:34Z</time>
      </trkpt>
      <trkpt lat="49.85905" lon="2.09561">
        <ele>127.3</ele>
        <time>2023-01-11T15:08:35Z</time>
      </trkpt>
      <trkpt lat="49.85904" lon="2.09562">
        <ele>127.3</ele>
        <time>2023-01-11T15:08:36Z</time>
      </trkpt>
      <trkpt lat="49.85905" lon="2.09565">
        <ele>127.3</ele>
        <time>2023-01-11T15:08:37Z</time>
      </trkpt>
      <trkpt lat="49.85906" lon="2.09563">
        <ele>127.3</ele>
        <time>2023-01-11T15:08:38Z</time>
      </trkpt>
      <trkpt lat="49.85907" lon="2.09563">
        <ele>127.3</ele>
        <time>2023-01-11T15:08:40Z</time>
      </trkpt>
      <trkpt lat="49.85908" lon="2.09563">
        <ele>127.3</ele>
        <time>2023-01-11T15:08:41Z</time>
      </trkpt>
      <trkpt lat="49.85908" lon="2.09562">
        <ele>127.3</ele>
        <time>2023-01-11T15:08:43Z</time>
      </trkpt>
      <trkpt lat="49.85908" lon="2.09562">
        <ele>127.3</ele>
        <time>2023-01-11T15:08:44Z</time>
      </trkpt>
      <trkpt lat="49.85908" lon="2.09561">
        <ele>127.3</ele>
        <time>2023-01-11T15:08:45Z</time>
      </trkpt>
      <trkpt lat="49.85909" lon="2.09561">
        <ele>127.3</ele>
        <time>2023-01-11T15:08:46Z</time>
      </trkpt>
      <trkpt lat="49.85909" lon="2.09561">
        <ele>127.3</ele>
        <time>2023-01-11T15:08:48Z</time>
      </trkpt>
      <trkpt lat="49.85909" lon="2.09561">
        <ele>127.3</ele>
        <time>2023-01-11T15:08:50Z</time>
      </trkpt>
      <trkpt lat="49.85909" lon="2.0956">
        <ele>127.3</ele>
        <time>2023-01-11T15:08:51Z</time>
      </trkpt>
      <trkpt lat="49.8591" lon="2.0956">
        <ele>127.3</ele>
        <time>2023-01-11T15:08:52Z</time>
      </trkpt>
      <trkpt lat="49.8591" lon="2.09561">
        <ele>127.3</ele>
        <time>2023-01-11T15:08:54Z</time>
      </trkpt>
      <trkpt lat="49.8591" lon="2.09561">
        <ele>127.3</ele>
        <time>2023-01-11T15:08:55Z</time>
      </trkpt>
      <trkpt lat="49.85909" lon="2.09562">
        <ele>127.3</ele>
        <time>2023-01-11T15:08:56Z</time>
      </trkpt>
      <trkpt lat="49.85908" lon="2.09563">
        <ele>127.3</ele>
        <time>2023-01-11T15:08:57Z</time>
      </trkpt>
      <trkpt lat="49.85908" lon="2.09565">
        <ele>127.3</ele>
        <time>2023-01-11T15:08:58Z</time>
      </trkpt>
      <trkpt lat="49.85907" lon="2.09566">
        <ele>127.3</ele>
        <time>2023-01-11T15:08:59Z</time>
      </trkpt>
      <trkpt lat="49.85907" lon="2.09568">
        <ele>127.3</ele>
        <time>2023-01-11T15:09:00Z</time>
      </trkpt>
      <trkpt lat="49.85906" lon="2.09569">
        <ele>127.3</ele>
        <time>2023-01-11T15:09:01Z</time>
      </trkpt>
      <trkpt lat="49.85904" lon="2.09571">
        <ele>127.3</ele>
        <time>2023-01-11T15:09:03Z</time>
      </trkpt>
      <trkpt lat="49.85904" lon="2.09572">
        <ele>127.3</ele>
        <time>2023-01-11T15:09:04Z</time>
      </trkpt>
      <trkpt lat="49.85903" lon="2.09574">
        <ele>127.3</ele>
        <time>2023-01-11T15:09:05Z</time>
      </trkpt>
      <trkpt lat="49.85903" lon="2.09576">
        <ele>127.3</ele>
        <time>2023-01-11T15:09:06Z</time>
      </trkpt>
      <trkpt lat="49.85901" lon="2.09579">
        <ele>127.3</ele>
        <time>2023-01-11T15:09:07Z</time>
      </trkpt>
      <trkpt lat="49.85901" lon="2.0958">
        <ele>127.3</ele>
        <time>2023-01-11T15:09:08Z</time>
      </trkpt>
      <trkpt lat="49.85901" lon="2.09581">
        <ele>127.4</ele>
        <time>2023-01-11T15:09:09Z</time>
      </trkpt>
      <trkpt lat="49.85901" lon="2.09583">
        <ele>127.4</ele>
        <time>2023-01-11T15:09:10Z</time>
      </trkpt>
      <trkpt lat="49.85897" lon="2.09585">
        <ele>127.4</ele>
        <time>2023-01-11T15:09:12Z</time>
      </trkpt>
      <trkpt lat="49.85896" lon="2.09586">
        <ele>127.4</ele>
        <time>2023-01-11T15:09:13Z</time>
      </trkpt>
      <trkpt lat="49.85895" lon="2.09588">
        <ele>127.4</ele>
        <time>2023-01-11T15:09:14Z</time>
      </trkpt>
      <trkpt lat="49.85895" lon="2.0959">
        <ele>127.4</ele>
        <time>2023-01-11T15:09:15Z</time>
      </trkpt>
      <trkpt lat="49.85895" lon="2.09592">
        <ele>127.4</ele>
        <time>2023-01-11T15:09:16Z</time>
      </trkpt>
      <trkpt lat="49.85893" lon="2.09593">
        <ele>127.4</ele>
        <time>2023-01-11T15:09:17Z</time>
      </trkpt>
      <trkpt lat="49.85893" lon="2.09597">
        <ele>127.4</ele>
        <time>2023-01-11T15:09:19Z</time>
      </trkpt>
      <trkpt lat="49.85893" lon="2.09598">
        <ele>127.4</ele>
        <time>2023-01-11T15:09:20Z</time>
      </trkpt>
      <trkpt lat="49.85893" lon="2.09599">
        <ele>127.4</ele>
        <time>2023-01-11T15:09:21Z</time>
      </trkpt>
      <trkpt lat="49.85895" lon="2.09603">
        <ele>127.4</ele>
        <time>2023-01-11T15:09:22Z</time>
      </trkpt>
      <trkpt lat="49.85896" lon="2.09605">
        <ele>127.5</ele>
        <time>2023-01-11T15:09:23Z</time>
      </trkpt>
      <trkpt lat="49.85896" lon="2.09607">
        <ele>127.5</ele>
        <time>2023-01-11T15:09:24Z</time>
      </trkpt>
      <trkpt lat="49.85896" lon="2.09609">
        <ele>127.5</ele>
        <time>2023-01-11T15:09:25Z</time>
      </trkpt>
      <trkpt lat="49.85896" lon="2.09612">
        <ele>127.5</ele>
        <time>2023-01-11T15:09:26Z</time>
      </trkpt>
      <trkpt lat="49.85896" lon="2.09614">
        <ele>127.5</ele>
        <time>2023-01-11T15:09:28Z</time>
      </trkpt>
      <trkpt lat="49.85896" lon="2.09616">
        <ele>127.5</ele>
        <time>2023-01-11T15:09:29Z</time>
      </trkpt>
      <trkpt lat="49.85896" lon="2.09619">
        <ele>127.5</ele>
        <time>2023-01-11T15:09:30Z</time>
      </trkpt>
      <trkpt lat="49.85895" lon="2.09623">
        <ele>127.5</ele>
        <time>2023-01-11T15:09:31Z</time>
      </trkpt>
      <trkpt lat="49.85895" lon="2.09625">
        <ele>127.5</ele>
        <time>2023-01-11T15:09:32Z</time>
      </trkpt>
      <trkpt lat="49.85895" lon="2.09626">
        <ele>127.5</ele>
        <time>2023-01-11T15:09:33Z</time>
      </trkpt>
      <trkpt lat="49.85895" lon="2.09627">
        <ele>127.5</ele>
        <time>2023-01-11T15:09:34Z</time>
      </trkpt>
      <trkpt lat="49.85895" lon="2.09629">
        <ele>127.5</ele>
        <time>2023-01-11T15:09:35Z</time>
      </trkpt>
      <trkpt lat="49.85895" lon="2.09633">
        <ele>127.5</ele>
        <time>2023-01-11T15:09:36Z</time>
      </trkpt>
      <trkpt lat="49.85895" lon="2.09634">
        <ele>127.6</ele>
        <time>2023-01-11T15:09:38Z</time>
      </trkpt>
      <trkpt lat="49.85896" lon="2.09636">
        <ele>127.6</ele>
        <time>2023-01-11T15:09:39Z</time>
      </trkpt>
      <trkpt lat="49.85896" lon="2.09638">
        <ele>127.6</ele>
        <time>2023-01-11T15:09:40Z</time>
      </trkpt>
      <trkpt lat="49.85896" lon="2.09639">
        <ele>127.6</ele>
        <time>2023-01-11T15:09:41Z</time>
      </trkpt>
      <trkpt lat="49.85896" lon="2.09641">
        <ele>127.6</ele>
        <time>2023-01-11T15:09:42Z</time>
      </trkpt>
      <trkpt lat="49.85896" lon="2.09642">
        <ele>127.6</ele>
        <time>2023-01-11T15:09:43Z</time>
      </trkpt>
      <trkpt lat="49.85896" lon="2.09643">
        <ele>127.6</ele>
        <time>2023-01-11T15:09:44Z</time>
      </trkpt>
      <trkpt lat="49.85896" lon="2.09644">
        <ele>127.6</ele>
        <time>2023-01-11T15:09:45Z</time>
      </trkpt>
      <trkpt lat="49.85896" lon="2.09645">
        <ele>127.6</ele>
        <time>2023-01-11T15:09:46Z</time>
      </trkpt>
      <trkpt lat="49.85896" lon="2.09646">
        <ele>127.6</ele>
        <time>2023-01-11T15:09:47Z</time>
      </trkpt>
      <trkpt lat="49.85896" lon="2.09648">
        <ele>127.6</ele>
        <time>2023-01-11T15:09:48Z</time>
      </trkpt>
      <trkpt lat="49.85896" lon="2.09649">
        <ele>127.6</ele>
        <time>2023-01-11T15:09:50Z</time>
      </trkpt>
      <trkpt lat="49.85896" lon="2.09651">
        <ele>127.6</ele>
        <time>2023-01-11T15:09:51Z</time>
      </trkpt>
      <trkpt lat="49.85897" lon="2.09654">
        <ele>127.6</ele>
        <time>2023-01-11T15:09:52Z</time>
      </trkpt>
      <trkpt lat="49.85897" lon="2.09655">
        <ele>127.6</ele>
        <time>2023-01-11T15:09:53Z</time>
      </trkpt>
      <trkpt lat="49.85897" lon="2.09656">
        <ele>127.6</ele>
        <time>2023-01-11T15:09:54Z</time>
      </trkpt>
      <trkpt lat="49.85897" lon="2.0966">
        <ele>127.6</ele>
        <time>2023-01-11T15:09:55Z</time>
      </trkpt>
      <trkpt lat="49.85897" lon="2.09661">
        <ele>127.6</ele>
        <time>2023-01-11T15:09:56Z</time>
      </trkpt>
      <trkpt lat="49.85897" lon="2.09662">
        <ele>127.6</ele>
        <time>2023-01-11T15:09:57Z</time>
      </trkpt>
      <trkpt lat="49.85898" lon="2.09664">
        <ele>127.6</ele>
        <time>2023-01-11T15:09:59Z</time>
      </trkpt>
      <trkpt lat="49.85898" lon="2.09665">
        <ele>127.6</ele>
        <time>2023-01-11T15:10:00Z</time>
      </trkpt>
      <trkpt lat="49.85899" lon="2.09667">
        <ele>127.6</ele>
        <time>2023-01-11T15:10:01Z</time>
      </trkpt>
      <trkpt lat="49.85899" lon="2.09668">
        <ele>127.6</ele>
        <time>2023-01-11T15:10:02Z</time>
      </trkpt>
      <trkpt lat="49.859" lon="2.0967">
        <ele>127.6</ele>
        <time>2023-01-11T15:10:03Z</time>
      </trkpt>
      <trkpt lat="49.859" lon="2.09672">
        <ele>127.6</ele>
        <time>2023-01-11T15:10:04Z</time>
      </trkpt>
      <trkpt lat="49.859" lon="2.09673">
        <ele>127.6</ele>
        <time>2023-01-11T15:10:06Z</time>
      </trkpt>
      <trkpt lat="49.859" lon="2.09675">
        <ele>127.6</ele>
        <time>2023-01-11T15:10:07Z</time>
      </trkpt>
      <trkpt lat="49.859" lon="2.09676">
        <ele>127.6</ele>
        <time>2023-01-11T15:10:08Z</time>
      </trkpt>
      <trkpt lat="49.85901" lon="2.09678">
        <ele>127.6</ele>
        <time>2023-01-11T15:10:09Z</time>
      </trkpt>
      <trkpt lat="49.85901" lon="2.0968">
        <ele>127.6</ele>
        <time>2023-01-11T15:10:10Z</time>
      </trkpt>
      <trkpt lat="49.85901" lon="2.09681">
        <ele>127.6</ele>
        <time>2023-01-11T15:10:12Z</time>
      </trkpt>
      <trkpt lat="49.85901" lon="2.09685">
        <ele>127.6</ele>
        <time>2023-01-11T15:10:13Z</time>
      </trkpt>
      <trkpt lat="49.85901" lon="2.09686">
        <ele>127.6</ele>
        <time>2023-01-11T15:10:14Z</time>
      </trkpt>
      <trkpt lat="49.85901" lon="2.09688">
        <ele>127.6</ele>
        <time>2023-01-11T15:10:15Z</time>
      </trkpt>
      <trkpt lat="49.85901" lon="2.0969">
        <ele>127.6</ele>
        <time>2023-01-11T15:10:16Z</time>
      </trkpt>
      <trkpt lat="49.85901" lon="2.09692">
        <ele>127.6</ele>
        <time>2023-01-11T15:10:17Z</time>
      </trkpt>
      <trkpt lat="49.85901" lon="2.09693">
        <ele>127.6</ele>
        <time>2023-01-11T15:10:18Z</time>
      </trkpt>
      <trkpt lat="49.85901" lon="2.09694">
        <ele>127.6</ele>
        <time>2023-01-11T15:10:20Z</time>
      </trkpt>
      <trkpt lat="49.85901" lon="2.09695">
        <ele>127.6</ele>
        <time>2023-01-11T15:10:21Z</time>
      </trkpt>
      <trkpt lat="49.85901" lon="2.09696">
        <ele>127.6</ele>
        <time>2023-01-11T15:10:22Z</time>
      </trkpt>
      <trkpt lat="49.85901" lon="2.09698">
        <ele>127.6</ele>
        <time>2023-01-11T15:10:23Z</time>
      </trkpt>
      <trkpt lat="49.85901" lon="2.09699">
        <ele>127.6</ele>
        <time>2023-01-11T15:10:24Z</time>
      </trkpt>
      <trkpt lat="49.85902" lon="2.097">
        <ele>127.6</ele>
        <time>2023-01-11T15:10:25Z</time>
      </trkpt>
      <trkpt lat="49.85902" lon="2.09703">
        <ele>127.6</ele>
        <time>2023-01-11T15:10:26Z</time>
      </trkpt>
      <trkpt lat="49.85902" lon="2.09705">
        <ele>127.6</ele>
        <time>2023-01-11T15:10:28Z</time>
      </trkpt>
      <trkpt lat="49.85903" lon="2.09706">
        <ele>127.6</ele>
        <time>2023-01-11T15:10:29Z</time>
      </trkpt>
      <trkpt lat="49.85903" lon="2.09708">
        <ele>127.6</ele>
        <time>2023-01-11T15:10:30Z</time>
      </trkpt>
      <trkpt lat="49.85903" lon="2.09709">
        <ele>127.6</ele>
        <time>2023-01-11T15:10:31Z</time>
      </trkpt>
      <trkpt lat="49.85903" lon="2.0971">
        <ele>127.6</ele>
        <time>2023-01-11T15:10:32Z</time>
      </trkpt>
      <trkpt lat="49.85904" lon="2.09712">
        <ele>127.6</ele>
        <time>2023-01-11T15:10:33Z</time>
      </trkpt>
      <trkpt lat="49.85904" lon="2.09714">
        <ele>127.6</ele>
        <time>2023-01-11T15:10:34Z</time>
      </trkpt>
      <trkpt lat="49.85904" lon="2.09717">
        <ele>127.6</ele>
        <time>2023-01-11T15:10:35Z</time>
      </trkpt>
      <trkpt lat="49.85904" lon="2.09719">
        <ele>127.6</ele>
        <time>2023-01-11T15:10:36Z</time>
      </trkpt>
      <trkpt lat="49.85905" lon="2.09722">
        <ele>127.6</ele>
        <time>2023-01-11T15:10:38Z</time>
      </trkpt>
      <trkpt lat="49.85905" lon="2.09723">
        <ele>127.6</ele>
        <time>2023-01-11T15:10:39Z</time>
      </trkpt>
      <trkpt lat="49.85905" lon="2.09726">
        <ele>127.6</ele>
        <time>2023-01-11T15:10:40Z</time>
      </trkpt>
      <trkpt lat="49.85905" lon="2.09727">
        <ele>127.6</ele>
        <time>2023-01-11T15:10:41Z</time>
      </trkpt>
      <trkpt lat="49.85905" lon="2.09728">
        <ele>127.6</ele>
        <time>2023-01-11T15:10:42Z</time>
      </trkpt>
      <trkpt lat="49.85904" lon="2.0973">
        <ele>127.6</ele>
        <time>2023-01-11T15:10:43Z</time>
      </trkpt>
      <trkpt lat="49.85904" lon="2.09732">
        <ele>127.6</ele>
        <time>2023-01-11T15:10:45Z</time>
      </trkpt>
      <trkpt lat="49.85904" lon="2.09733">
        <ele>127.6</ele>
        <time>2023-01-11T15:10:46Z</time>
      </trkpt>
      <trkpt lat="49.85903" lon="2.09735">
        <ele>127.6</ele>
        <time>2023-01-11T15:10:47Z</time>
      </trkpt>
      <trkpt lat="49.85903" lon="2.09737">
        <ele>127.6</ele>
        <time>2023-01-11T15:10:48Z</time>
      </trkpt>
      <trkpt lat="49.85903" lon="2.09739">
        <ele>127.6</ele>
        <time>2023-01-11T15:10:49Z</time>
      </trkpt>
      <trkpt lat="49.85903" lon="2.09741">
        <ele>127.6</ele>
        <time>2023-01-11T15:10:50Z</time>
      </trkpt>
      <trkpt lat="49.85903" lon="2.09743">
        <ele>127.6</ele>
        <time>2023-01-11T15:10:51Z</time>
      </trkpt>
      <trkpt lat="49.85903" lon="2.09747">
        <ele>127.6</ele>
        <time>2023-01-11T15:10:52Z</time>
      </trkpt>
      <trkpt lat="49.85903" lon="2.09749">
        <ele>127.6</ele>
        <time>2023-01-11T15:10:54Z</time>
      </trkpt>
      <trkpt lat="49.85903" lon="2.09751">
        <ele>127.6</ele>
        <time>2023-01-11T15:10:55Z</time>
      </trkpt>
      <trkpt lat="49.85903" lon="2.09752">
        <ele>127.6</ele>
        <time>2023-01-11T15:10:56Z</time>
      </trkpt>
      <trkpt lat="49.85903" lon="2.09754">
        <ele>127.6</ele>
        <time>2023-01-11T15:10:57Z</time>
      </trkpt>
      <trkpt lat="49.85903" lon="2.09757">
        <ele>127.6</ele>
        <time>2023-01-11T15:10:58Z</time>
      </trkpt>
      <trkpt lat="49.85904" lon="2.09758">
        <ele>127.6</ele>
        <time>2023-01-11T15:10:59Z</time>
      </trkpt>
      <trkpt lat="49.85904" lon="2.0976">
        <ele>127.6</ele>
        <time>2023-01-11T15:11:00Z</time>
      </trkpt>
      <trkpt lat="49.85904" lon="2.09761">
        <ele>127.6</ele>
        <time>2023-01-11T15:11:01Z</time>
      </trkpt>
      <trkpt lat="49.85905" lon="2.09764">
        <ele>127.6</ele>
        <time>2023-01-11T15:11:02Z</time>
      </trkpt>
      <trkpt lat="49.85905" lon="2.09764">
        <ele>127.6</ele>
        <time>2023-01-11T15:11:04Z</time>
      </trkpt>
      <trkpt lat="49.85905" lon="2.09766">
        <ele>127.6</ele>
        <time>2023-01-11T15:11:05Z</time>
      </trkpt>
      <trkpt lat="49.85906" lon="2.09768">
        <ele>127.6</ele>
        <time>2023-01-11T15:11:06Z</time>
      </trkpt>
      <trkpt lat="49.85906" lon="2.09769">
        <ele>127.6</ele>
        <time>2023-01-11T15:11:07Z</time>
      </trkpt>
      <trkpt lat="49.85907" lon="2.09771">
        <ele>127.6</ele>
        <time>2023-01-11T15:11:08Z</time>
      </trkpt>
      <trkpt lat="49.85907" lon="2.0977">
        <ele>127.6</ele>
        <time>2023-01-11T15:11:09Z</time>
      </trkpt>
      <trkpt lat="49.85907" lon="2.0977">
        <ele>127.6</ele>
        <time>2023-01-11T15:11:10Z</time>
      </trkpt>
      <trkpt lat="49.85907" lon="2.09772">
        <ele>127.6</ele>
        <time>2023-01-11T15:11:11Z</time>
      </trkpt>
      <trkpt lat="49.85907" lon="2.09773">
        <ele>127.6</ele>
        <time>2023-01-11T15:11:12Z</time>
      </trkpt>
      <trkpt lat="49.85908" lon="2.09774">
        <ele>127.6</ele>
        <time>2023-01-11T15:11:13Z</time>
      </trkpt>
      <trkpt lat="49.85908" lon="2.09776">
        <ele>127.6</ele>
        <time>2023-01-11T15:11:15Z</time>
      </trkpt>
      <trkpt lat="49.85908" lon="2.09778">
        <ele>127.6</ele>
        <time>2023-01-11T15:11:16Z</time>
      </trkpt>
      <trkpt lat="49.85909" lon="2.0978">
        <ele>127.6</ele>
        <time>2023-01-11T15:11:17Z</time>
      </trkpt>
      <trkpt lat="49.8591" lon="2.09784">
        <ele>127.6</ele>
        <time>2023-01-11T15:11:18Z</time>
      </trkpt>
      <trkpt lat="49.8591" lon="2.09785">
        <ele>127.6</ele>
        <time>2023-01-11T15:11:19Z</time>
      </trkpt>
      <trkpt lat="49.8591" lon="2.09786">
        <ele>127.6</ele>
        <time>2023-01-11T15:11:20Z</time>
      </trkpt>
      <trkpt lat="49.8591" lon="2.09788">
        <ele>127.6</ele>
        <time>2023-01-11T15:11:21Z</time>
      </trkpt>
      <trkpt lat="49.85911" lon="2.09789">
        <ele>127.6</ele>
        <time>2023-01-11T15:11:22Z</time>
      </trkpt>
      <trkpt lat="49.85911" lon="2.0979">
        <ele>127.6</ele>
        <time>2023-01-11T15:11:23Z</time>
      </trkpt>
      <trkpt lat="49.85911" lon="2.09791">
        <ele>127.6</ele>
        <time>2023-01-11T15:11:24Z</time>
      </trkpt>
      <trkpt lat="49.85911" lon="2.09793">
        <ele>127.6</ele>
        <time>2023-01-11T15:11:25Z</time>
      </trkpt>
      <trkpt lat="49.85911" lon="2.09795">
        <ele>127.6</ele>
        <time>2023-01-11T15:11:27Z</time>
      </trkpt>
      <trkpt lat="49.85912" lon="2.09799">
        <ele>127.6</ele>
        <time>2023-01-11T15:11:28Z</time>
      </trkpt>
      <trkpt lat="49.85912" lon="2.098">
        <ele>127.6</ele>
        <time>2023-01-11T15:11:29Z</time>
      </trkpt>
      <trkpt lat="49.85912" lon="2.09803">
        <ele>127.6</ele>
        <time>2023-01-11T15:11:30Z</time>
      </trkpt>
      <trkpt lat="49.85913" lon="2.09804">
        <ele>127.6</ele>
        <time>2023-01-11T15:11:31Z</time>
      </trkpt>
      <trkpt lat="49.85913" lon="2.09805">
        <ele>127.7</ele>
        <time>2023-01-11T15:11:32Z</time>
      </trkpt>
      <trkpt lat="49.85914" lon="2.09808">
        <ele>127.7</ele>
        <time>2023-01-11T15:11:33Z</time>
      </trkpt>
      <trkpt lat="49.85915" lon="2.09809">
        <ele>127.7</ele>
        <time>2023-01-11T15:11:34Z</time>
      </trkpt>
      <trkpt lat="49.85915" lon="2.0981">
        <ele>127.7</ele>
        <time>2023-01-11T15:11:35Z</time>
      </trkpt>
      <trkpt lat="49.85916" lon="2.09813">
        <ele>127.7</ele>
        <time>2023-01-11T15:11:36Z</time>
      </trkpt>
      <trkpt lat="49.85917" lon="2.09815">
        <ele>127.7</ele>
        <time>2023-01-11T15:11:37Z</time>
      </trkpt>
      <trkpt lat="49.85917" lon="2.09816">
        <ele>127.7</ele>
        <time>2023-01-11T15:11:39Z</time>
      </trkpt>
      <trkpt lat="49.85917" lon="2.09818">
        <ele>127.7</ele>
        <time>2023-01-11T15:11:40Z</time>
      </trkpt>
      <trkpt lat="49.85918" lon="2.09819">
        <ele>127.7</ele>
        <time>2023-01-11T15:11:41Z</time>
      </trkpt>
      <trkpt lat="49.85918" lon="2.09821">
        <ele>127.7</ele>
        <time>2023-01-11T15:11:42Z</time>
      </trkpt>
      <trkpt lat="49.85919" lon="2.09823">
        <ele>127.7</ele>
        <time>2023-01-11T15:11:43Z</time>
      </trkpt>
      <trkpt lat="49.8592" lon="2.09825">
        <ele>127.7</ele>
        <time>2023-01-11T15:11:44Z</time>
      </trkpt>
      <trkpt lat="49.8592" lon="2.09827">
        <ele>127.7</ele>
        <time>2023-01-11T15:11:45Z</time>
      </trkpt>
      <trkpt lat="49.85921" lon="2.09829">
        <ele>127.7</ele>
        <time>2023-01-11T15:11:46Z</time>
      </trkpt>
      <trkpt lat="49.85922" lon="2.0983">
        <ele>127.7</ele>
        <time>2023-01-11T15:11:47Z</time>
      </trkpt>
      <trkpt lat="49.85923" lon="2.09832">
        <ele>127.7</ele>
        <time>2023-01-11T15:11:49Z</time>
      </trkpt>
      <trkpt lat="49.85924" lon="2.09834">
        <ele>127.7</ele>
        <time>2023-01-11T15:11:50Z</time>
      </trkpt>
      <trkpt lat="49.85924" lon="2.09835">
        <ele>127.7</ele>
        <time>2023-01-11T15:11:51Z</time>
      </trkpt>
      <trkpt lat="49.85925" lon="2.09837">
        <ele>127.7</ele>
        <time>2023-01-11T15:11:52Z</time>
      </trkpt>
      <trkpt lat="49.85926" lon="2.0984">
        <ele>127.7</ele>
        <time>2023-01-11T15:11:53Z</time>
      </trkpt>
      <trkpt lat="49.85926" lon="2.09841">
        <ele>127.7</ele>
        <time>2023-01-11T15:11:55Z</time>
      </trkpt>
      <trkpt lat="49.85926" lon="2.09843">
        <ele>127.7</ele>
        <time>2023-01-11T15:11:56Z</time>
      </trkpt>
      <trkpt lat="49.85927" lon="2.09846">
        <ele>127.7</ele>
        <time>2023-01-11T15:11:57Z</time>
      </trkpt>
      <trkpt lat="49.85927" lon="2.09848">
        <ele>127.7</ele>
        <time>2023-01-11T15:11:58Z</time>
      </trkpt>
      <trkpt lat="49.85928" lon="2.09848">
        <ele>127.7</ele>
        <time>2023-01-11T15:11:59Z</time>
      </trkpt>
      <trkpt lat="49.85928" lon="2.09849">
        <ele>127.6</ele>
        <time>2023-01-11T15:12:00Z</time>
      </trkpt>
      <trkpt lat="49.85929" lon="2.09849">
        <ele>127.6</ele>
        <time>2023-01-11T15:12:01Z</time>
      </trkpt>
      <trkpt lat="49.85929" lon="2.0985">
        <ele>127.6</ele>
        <time>2023-01-11T15:12:02Z</time>
      </trkpt>
      <trkpt lat="49.8593" lon="2.09852">
        <ele>127.6</ele>
        <time>2023-01-11T15:12:03Z</time>
      </trkpt>
      <trkpt lat="49.85929" lon="2.09853">
        <ele>127.6</ele>
        <time>2023-01-11T15:12:04Z</time>
      </trkpt>
      <trkpt lat="49.85928" lon="2.09854">
        <ele>127.6</ele>
        <time>2023-01-11T15:12:06Z</time>
      </trkpt>
      <trkpt lat="49.85927" lon="2.09855">
        <ele>127.6</ele>
        <time>2023-01-11T15:12:07Z</time>
      </trkpt>
      <trkpt lat="49.85926" lon="2.09856">
        <ele>127.6</ele>
        <time>2023-01-11T15:12:08Z</time>
      </trkpt>
      <trkpt lat="49.85927" lon="2.09857">
        <ele>127.6</ele>
        <time>2023-01-11T15:12:09Z</time>
      </trkpt>
      <trkpt lat="49.85927" lon="2.0986">
        <ele>127.6</ele>
        <time>2023-01-11T15:12:10Z</time>
      </trkpt>
      <trkpt lat="49.85927" lon="2.09862">
        <ele>127.6</ele>
        <time>2023-01-11T15:12:11Z</time>
      </trkpt>
      <trkpt lat="49.85927" lon="2.09864">
        <ele>127.6</ele>
        <time>2023-01-11T15:12:13Z</time>
      </trkpt>
      <trkpt lat="49.85928" lon="2.09866">
        <ele>127.6</ele>
        <time>2023-01-11T15:12:14Z</time>
      </trkpt>
      <trkpt lat="49.85928" lon="2.09867">
        <ele>127.6</ele>
        <time>2023-01-11T15:12:15Z</time>
      </trkpt>
      <trkpt lat="49.85928" lon="2.09869">
        <ele>127.6</ele>
        <time>2023-01-11T15:12:16Z</time>
      </trkpt>
      <trkpt lat="49.85928" lon="2.09871">
        <ele>127.6</ele>
        <time>2023-01-11T15:12:17Z</time>
      </trkpt>
      <trkpt lat="49.85929" lon="2.09872">
        <ele>127.6</ele>
        <time>2023-01-11T15:12:18Z</time>
      </trkpt>
      <trkpt lat="49.8593" lon="2.09874">
        <ele>127.6</ele>
        <time>2023-01-11T15:12:19Z</time>
      </trkpt>
      <trkpt lat="49.85931" lon="2.09877">
        <ele>127.6</ele>
        <time>2023-01-11T15:12:21Z</time>
      </trkpt>
      <trkpt lat="49.85932" lon="2.09878">
        <ele>127.6</ele>
        <time>2023-01-11T15:12:22Z</time>
      </trkpt>
      <trkpt lat="49.85933" lon="2.09879">
        <ele>127.6</ele>
        <time>2023-01-11T15:12:23Z</time>
      </trkpt>
      <trkpt lat="49.85933" lon="2.0988">
        <ele>127.6</ele>
        <time>2023-01-11T15:12:24Z</time>
      </trkpt>
      <trkpt lat="49.85934" lon="2.09881">
        <ele>127.6</ele>
        <time>2023-01-11T15:12:25Z</time>
      </trkpt>
      <trkpt lat="49.85935" lon="2.09881">
        <ele>127.6</ele>
        <time>2023-01-11T15:12:27Z</time>
      </trkpt>
      <trkpt lat="49.85936" lon="2.09882">
        <ele>127.6</ele>
        <time>2023-01-11T15:12:28Z</time>
      </trkpt>
      <trkpt lat="49.85939" lon="2.0988">
        <ele>127.5</ele>
        <time>2023-01-11T15:12:29Z</time>
      </trkpt>
      <trkpt lat="49.8594" lon="2.09879">
        <ele>127.5</ele>
        <time>2023-01-11T15:12:30Z</time>
      </trkpt>
      <trkpt lat="49.85941" lon="2.09878">
        <ele>127.5</ele>
        <time>2023-01-11T15:12:31Z</time>
      </trkpt>
      <trkpt lat="49.85942" lon="2.09878">
        <ele>127.5</ele>
        <time>2023-01-11T15:12:32Z</time>
      </trkpt>
      <trkpt lat="49.85943" lon="2.09876">
        <ele>127.5</ele>
        <time>2023-01-11T15:12:33Z</time>
      </trkpt>
      <trkpt lat="49.85944" lon="2.09875">
        <ele>127.5</ele>
        <time>2023-01-11T15:12:35Z</time>
      </trkpt>
      <trkpt lat="49.85945" lon="2.09875">
        <ele>127.5</ele>
        <time>2023-01-11T15:12:36Z</time>
      </trkpt>
      <trkpt lat="49.85946" lon="2.09875">
        <ele>127.5</ele>
        <time>2023-01-11T15:12:37Z</time>
      </trkpt>
      <trkpt lat="49.85948" lon="2.09875">
        <ele>127.5</ele>
        <time>2023-01-11T15:12:38Z</time>
      </trkpt>
      <trkpt lat="49.85948" lon="2.09875">
        <ele>127.5</ele>
        <time>2023-01-11T15:12:39Z</time>
      </trkpt>
      <trkpt lat="49.85949" lon="2.09876">
        <ele>127.5</ele>
        <time>2023-01-11T15:12:40Z</time>
      </trkpt>
      <trkpt lat="49.8595" lon="2.09877">
        <ele>127.5</ele>
        <time>2023-01-11T15:12:41Z</time>
      </trkpt>
      <trkpt lat="49.85952" lon="2.09878">
        <ele>127.5</ele>
        <time>2023-01-11T15:12:43Z</time>
      </trkpt>
      <trkpt lat="49.85953" lon="2.0988">
        <ele>127.5</ele>
        <time>2023-01-11T15:12:44Z</time>
      </trkpt>
      <trkpt lat="49.85953" lon="2.09881">
        <ele>127.5</ele>
        <time>2023-01-11T15:12:45Z</time>
      </trkpt>
      <trkpt lat="49.85954" lon="2.09881">
        <ele>127.4</ele>
        <time>2023-01-11T15:12:46Z</time>
      </trkpt>
      <trkpt lat="49.85956" lon="2.09882">
        <ele>127.4</ele>
        <time>2023-01-11T15:12:47Z</time>
      </trkpt>
      <trkpt lat="49.85957" lon="2.09882">
        <ele>127.4</ele>
        <time>2023-01-11T15:12:48Z</time>
      </trkpt>
      <trkpt lat="49.85958" lon="2.09883">
        <ele>127.4</ele>
        <time>2023-01-11T15:12:50Z</time>
      </trkpt>
      <trkpt lat="49.85958" lon="2.09884">
        <ele>127.4</ele>
        <time>2023-01-11T15:12:51Z</time>
      </trkpt>
      <trkpt lat="49.85959" lon="2.09884">
        <ele>127.4</ele>
        <time>2023-01-11T15:12:52Z</time>
      </trkpt>
      <trkpt lat="49.8596" lon="2.09886">
        <ele>127.4</ele>
        <time>2023-01-11T15:12:53Z</time>
      </trkpt>
      <trkpt lat="49.8596" lon="2.09888">
        <ele>127.4</ele>
        <time>2023-01-11T15:12:54Z</time>
      </trkpt>
      <trkpt lat="49.85961" lon="2.0989">
        <ele>127.4</ele>
        <time>2023-01-11T15:12:55Z</time>
      </trkpt>
      <trkpt lat="49.85961" lon="2.09892">
        <ele>127.4</ele>
        <time>2023-01-11T15:12:56Z</time>
      </trkpt>
      <trkpt lat="49.85962" lon="2.09892">
        <ele>127.4</ele>
        <time>2023-01-11T15:12:57Z</time>
      </trkpt>
      <trkpt lat="49.85964" lon="2.09895">
        <ele>127.4</ele>
        <time>2023-01-11T15:12:58Z</time>
      </trkpt>
      <trkpt lat="49.85964" lon="2.09896">
        <ele>127.4</ele>
        <time>2023-01-11T15:13:00Z</time>
      </trkpt>
      <trkpt lat="49.85965" lon="2.09898">
        <ele>127.4</ele>
        <time>2023-01-11T15:13:01Z</time>
      </trkpt>
      <trkpt lat="49.85966" lon="2.09899">
        <ele>127.4</ele>
        <time>2023-01-11T15:13:02Z</time>
      </trkpt>
      <trkpt lat="49.85967" lon="2.099">
        <ele>127.4</ele>
        <time>2023-01-11T15:13:03Z</time>
      </trkpt>
      <trkpt lat="49.85968" lon="2.09901">
        <ele>127.3</ele>
        <time>2023-01-11T15:13:04Z</time>
      </trkpt>
      <trkpt lat="49.85969" lon="2.09902">
        <ele>127.3</ele>
        <time>2023-01-11T15:13:05Z</time>
      </trkpt>
      <trkpt lat="49.8597" lon="2.09903">
        <ele>127.3</ele>
        <time>2023-01-11T15:13:06Z</time>
      </trkpt>
      <trkpt lat="49.85971" lon="2.09904">
        <ele>127.3</ele>
        <time>2023-01-11T15:13:07Z</time>
      </trkpt>
      <trkpt lat="49.85969" lon="2.09909">
        <ele>127.3</ele>
        <time>2023-01-11T15:13:09Z</time>
      </trkpt>
      <trkpt lat="49.8597" lon="2.09909">
        <ele>127.3</ele>
        <time>2023-01-11T15:13:10Z</time>
      </trkpt>
      <trkpt lat="49.85971" lon="2.0991">
        <ele>127.3</ele>
        <time>2023-01-11T15:13:11Z</time>
      </trkpt>
      <trkpt lat="49.85972" lon="2.09911">
        <ele>127.3</ele>
        <time>2023-01-11T15:13:12Z</time>
      </trkpt>
      <trkpt lat="49.85974" lon="2.09912">
        <ele>127.3</ele>
        <time>2023-01-11T15:13:13Z</time>
      </trkpt>
      <trkpt lat="49.85974" lon="2.0991">
        <ele>127.3</ele>
        <time>2023-01-11T15:13:14Z</time>
      </trkpt>
      <trkpt lat="49.85975" lon="2.0991">
        <ele>127.3</ele>
        <time>2023-01-11T15:13:15Z</time>
      </trkpt>
      <trkpt lat="49.85976" lon="2.0991">
        <ele>127.3</ele>
        <time>2023-01-11T15:13:17Z</time>
      </trkpt>
      <trkpt lat="49.85975" lon="2.09907">
        <ele>127.3</ele>
        <time>2023-01-11T15:13:18Z</time>
      </trkpt>
      <trkpt lat="49.85977" lon="2.09908">
        <ele>127.3</ele>
        <time>2023-01-11T15:13:19Z</time>
      </trkpt>
      <trkpt lat="49.85977" lon="2.09908">
        <ele>127.3</ele>
        <time>2023-01-11T15:13:20Z</time>
      </trkpt>
      <trkpt lat="49.85976" lon="2.09907">
        <ele>127.3</ele>
        <time>2023-01-11T15:13:22Z</time>
      </trkpt>
      <trkpt lat="49.85975" lon="2.09907">
        <ele>127.3</ele>
        <time>2023-01-11T15:13:23Z</time>
      </trkpt>
      <trkpt lat="49.85975" lon="2.09906">
        <ele>127.3</ele>
        <time>2023-01-11T15:13:25Z</time>
      </trkpt>
      <trkpt lat="49.85975" lon="2.09906">
        <ele>127.3</ele>
        <time>2023-01-11T15:13:26Z</time>
      </trkpt>
      <trkpt lat="49.85975" lon="2.09906">
        <ele>127.3</ele>
        <time>2023-01-11T15:13:28Z</time>
      </trkpt>
      <trkpt lat="49.85975" lon="2.09906">
        <ele>127.3</ele>
        <time>2023-01-11T15:13:29Z</time>
      </trkpt>
      <trkpt lat="49.85975" lon="2.09905">
        <ele>127.3</ele>
        <time>2023-01-11T15:13:30Z</time>
      </trkpt>
      <trkpt lat="49.85975" lon="2.09905">
        <ele>127.3</ele>
        <time>2023-01-11T15:13:32Z</time>
      </trkpt>
      <trkpt lat="49.85975" lon="2.09905">
        <ele>127.3</ele>
        <time>2023-01-11T15:13:33Z</time>
      </trkpt>
      <trkpt lat="49.85975" lon="2.09906">
        <ele>127.3</ele>
        <time>2023-01-11T15:13:35Z</time>
      </trkpt>
      <trkpt lat="49.85975" lon="2.09906">
        <ele>127.3</ele>
        <time>2023-01-11T15:13:36Z</time>
      </trkpt>
      <trkpt lat="49.85974" lon="2.09906">
        <ele>127.3</ele>
        <time>2023-01-11T15:13:37Z</time>
      </trkpt>
      <trkpt lat="49.85974" lon="2.09906">
        <ele>127.3</ele>
        <time>2023-01-11T15:13:38Z</time>
      </trkpt>
      <trkpt lat="49.85974" lon="2.09906">
        <ele>127.3</ele>
        <time>2023-01-11T15:13:39Z</time>
      </trkpt>
      <trkpt lat="49.85974" lon="2.09906">
        <ele>127.3</ele>
        <time>2023-01-11T15:13:40Z</time>
      </trkpt>
      <trkpt lat="49.85974" lon="2.09906">
        <ele>127.3</ele>
        <time>2023-01-11T15:13:41Z</time>
      </trkpt>
      <trkpt lat="49.85972" lon="2.09906">
        <ele>127.2</ele>
        <time>2023-01-11T15:13:42Z</time>
      </trkpt>
      <trkpt lat="49.85972" lon="2.09906">
        <ele>127.2</ele>
        <time>2023-01-11T15:13:43Z</time>
      </trkpt>
      <trkpt lat="49.85971" lon="2.09906">
        <ele>127.2</ele>
        <time>2023-01-11T15:13:44Z</time>
      </trkpt>
      <trkpt lat="49.85971" lon="2.09907">
        <ele>127.2</ele>
        <time>2023-01-11T15:13:45Z</time>
      </trkpt>
      <trkpt lat="49.85971" lon="2.09907">
        <ele>127.2</ele>
        <time>2023-01-11T15:13:46Z</time>
      </trkpt>
      <trkpt lat="49.85971" lon="2.09906">
        <ele>127.2</ele>
        <time>2023-01-11T15:13:47Z</time>
      </trkpt>
      <trkpt lat="49.85971" lon="2.09906">
        <ele>127.2</ele>
        <time>2023-01-11T15:13:48Z</time>
      </trkpt>
      <trkpt lat="49.85971" lon="2.09906">
        <ele>127.2</ele>
        <time>2023-01-11T15:13:49Z</time>
      </trkpt>
      <trkpt lat="49.85971" lon="2.09906">
        <ele>127.2</ele>
        <time>2023-01-11T15:13:50Z</time>
      </trkpt>
      <trkpt lat="49.85971" lon="2.09906">
        <ele>127.2</ele>
        <time>2023-01-11T15:13:51Z</time>
      </trkpt>
      <trkpt lat="49.85971" lon="2.09906">
        <ele>127.2</ele>
        <time>2023-01-11T15:13:52Z</time>
      </trkpt>
      <trkpt lat="49.85971" lon="2.09906">
        <ele>127.2</ele>
        <time>2023-01-11T15:13:53Z</time>
      </trkpt>
      <trkpt lat="49.85971" lon="2.09906">
        <ele>127.2</ele>
        <time>2023-01-11T15:13:54Z</time>
      </trkpt>
      <trkpt lat="49.85971" lon="2.09906">
        <ele>127.2</ele>
        <time>2023-01-11T15:13:55Z</time>
      </trkpt>
      <trkpt lat="49.85971" lon="2.09906">
        <ele>127.2</ele>
        <time>2023-01-11T15:13:56Z</time>
      </trkpt>
      <trkpt lat="49.8597" lon="2.09906">
        <ele>127.2</ele>
        <time>2023-01-11T15:13:57Z</time>
      </trkpt>
      <trkpt lat="49.8597" lon="2.09906">
        <ele>127.2</ele>
        <time>2023-01-11T15:13:58Z</time>
      </trkpt>
      <trkpt lat="49.8597" lon="2.09906">
        <ele>127.2</ele>
        <time>2023-01-11T15:13:59Z</time>
      </trkpt>
      <trkpt lat="49.8597" lon="2.09906">
        <ele>127.2</ele>
        <time>2023-01-11T15:14:00Z</time>
      </trkpt>
      <trkpt lat="49.8597" lon="2.09906">
        <ele>127.2</ele>
        <time>2023-01-11T15:14:01Z</time>
      </trkpt>
      <trkpt lat="49.85969" lon="2.09906">
        <ele>127.2</ele>
        <time>2023-01-11T15:14:02Z</time>
      </trkpt>
      <trkpt lat="49.85969" lon="2.09906">
        <ele>127.2</ele>
        <time>2023-01-11T15:14:03Z</time>
      </trkpt>
      <trkpt lat="49.85969" lon="2.09906">
        <ele>127.2</ele>
        <time>2023-01-11T15:14:04Z</time>
      </trkpt>
      <trkpt lat="49.85969" lon="2.09906">
        <ele>127.2</ele>
        <time>2023-01-11T15:14:05Z</time>
      </trkpt>
      <trkpt lat="49.85969" lon="2.09905">
        <ele>127.2</ele>
        <time>2023-01-11T15:14:06Z</time>
      </trkpt>
      <trkpt lat="49.85969" lon="2.09905">
        <ele>127.2</ele>
        <time>2023-01-11T15:14:07Z</time>
      </trkpt>
      <trkpt lat="49.85969" lon="2.09905">
        <ele>127.2</ele>
        <time>2023-01-11T15:14:08Z</time>
      </trkpt>
      <trkpt lat="49.85969" lon="2.09905">
        <ele>127.2</ele>
        <time>2023-01-11T15:14:09Z</time>
      </trkpt>
      <trkpt lat="49.85969" lon="2.09905">
        <ele>127.2</ele>
        <time>2023-01-11T15:14:10Z</time>
      </trkpt>
      <trkpt lat="49.85969" lon="2.09905">
        <ele>127.2</ele>
        <time>2023-01-11T15:14:11Z</time>
      </trkpt>
      <trkpt lat="49.85969" lon="2.09905">
        <ele>127.2</ele>
        <time>2023-01-11T15:14:12Z</time>
      </trkpt>
      <trkpt lat="49.85969" lon="2.09905">
        <ele>127.2</ele>
        <time>2023-01-11T15:14:13Z</time>
      </trkpt>
      <trkpt lat="49.85969" lon="2.09905">
        <ele>127.2</ele>
        <time>2023-01-11T15:14:14Z</time>
      </trkpt>
      <trkpt lat="49.85969" lon="2.09905">
        <ele>127.2</ele>
        <time>2023-01-11T15:14:15Z</time>
      </trkpt>
      <trkpt lat="49.85969" lon="2.09905">
        <ele>127.2</ele>
        <time>2023-01-11T15:14:16Z</time>
      </trkpt>
      <trkpt lat="49.85969" lon="2.09905">
        <ele>127.2</ele>
        <time>2023-01-11T15:14:17Z</time>
      </trkpt>
      <trkpt lat="49.85969" lon="2.09905">
        <ele>127.2</ele>
        <time>2023-01-11T15:14:18Z</time>
      </trkpt>
      <trkpt lat="49.85969" lon="2.09905">
        <ele>127.2</ele>
        <time>2023-01-11T15:14:19Z</time>
      </trkpt>
      <trkpt lat="49.85969" lon="2.09905">
        <ele>127.2</ele>
        <time>2023-01-11T15:14:20Z</time>
      </trkpt>
      <trkpt lat="49.85969" lon="2.09905">
        <ele>127.2</ele>
        <time>2023-01-11T15:14:21Z</time>
      </trkpt>
      <trkpt lat="49.85969" lon="2.09905">
        <ele>127.2</ele>
        <time>2023-01-11T15:14:22Z</time>
      </trkpt>
      <trkpt lat="49.85969" lon="2.09905">
        <ele>127.2</ele>
        <time>2023-01-11T15:14:23Z</time>
      </trkpt>
      <trkpt lat="49.85969" lon="2.09905">
        <ele>127.2</ele>
        <time>2023-01-11T15:14:24Z</time>
      </trkpt>
      <trkpt lat="49.85969" lon="2.09905">
        <ele>127.2</ele>
        <time>2023-01-11T15:14:25Z</time>
      </trkpt>
      <trkpt lat="49.85969" lon="2.09905">
        <ele>127.2</ele>
        <time>2023-01-11T15:14:26Z</time>
      </trkpt>
      <trkpt lat="49.85969" lon="2.09905">
        <ele>127.2</ele>
        <time>2023-01-11T15:14:27Z</time>
      </trkpt>
      <trkpt lat="49.85969" lon="2.09905">
        <ele>127.2</ele>
        <time>2023-01-11T15:14:28Z</time>
      </trkpt>
      <trkpt lat="49.85969" lon="2.09905">
        <ele>127.2</ele>
        <time>2023-01-11T15:14:29Z</time>
      </trkpt>
      <trkpt lat="49.85969" lon="2.09905">
        <ele>127.2</ele>
        <time>2023-01-11T15:14:30Z</time>
      </trkpt>
      <trkpt lat="49.85969" lon="2.09905">
        <ele>127.2</ele>
        <time>2023-01-11T15:14:31Z</time>
      </trkpt>
      <trkpt lat="49.85969" lon="2.09905">
        <ele>127.2</ele>
        <time>2023-01-11T15:14:32Z</time>
      </trkpt>
      <trkpt lat="49.85969" lon="2.09905">
        <ele>127.2</ele>
        <time>2023-01-11T15:14:33Z</time>
      </trkpt>
      <trkpt lat="49.85969" lon="2.09905">
        <ele>127.2</ele>
        <time>2023-01-11T15:14:34Z</time>
      </trkpt>
      <trkpt lat="49.85969" lon="2.09905">
        <ele>127.2</ele>
        <time>2023-01-11T15:14:35Z</time>
      </trkpt>
      <trkpt lat="49.85969" lon="2.09905">
        <ele>127.2</ele>
        <time>2023-01-11T15:14:36Z</time>
      </trkpt>
      <trkpt lat="49.85969" lon="2.09905">
        <ele>127.2</ele>
        <time>2023-01-11T15:14:37Z</time>
      </trkpt>
      <trkpt lat="49.85968" lon="2.09905">
        <ele>127.2</ele>
        <time>2023-01-11T15:14:38Z</time>
      </trkpt>
      <trkpt lat="49.85967" lon="2.09903">
        <ele>127.2</ele>
        <time>2023-01-11T15:14:39Z</time>
      </trkpt>
      <trkpt lat="49.85967" lon="2.09903">
        <ele>127.2</ele>
        <time>2023-01-11T15:14:40Z</time>
      </trkpt>
      <trkpt lat="49.85967" lon="2.09903">
        <ele>127.2</ele>
        <time>2023-01-11T15:14:41Z</time>
      </trkpt>
      <trkpt lat="49.85967" lon="2.09903">
        <ele>127.2</ele>
        <time>2023-01-11T15:14:42Z</time>
      </trkpt>
      <trkpt lat="49.85967" lon="2.09903">
        <ele>127.2</ele>
        <time>2023-01-11T15:14:43Z</time>
      </trkpt>
      <trkpt lat="49.85967" lon="2.09903">
        <ele>127.2</ele>
        <time>2023-01-11T15:14:44Z</time>
      </trkpt>
      <trkpt lat="49.85967" lon="2.09903">
        <ele>127.2</ele>
        <time>2023-01-11T15:14:45Z</time>
      </trkpt>
      <trkpt lat="49.85967" lon="2.09903">
        <ele>127.2</ele>
        <time>2023-01-11T15:14:46Z</time>
      </trkpt>
      <trkpt lat="49.85967" lon="2.09903">
        <ele>127.2</ele>
        <time>2023-01-11T15:14:47Z</time>
      </trkpt>
      <trkpt lat="49.85967" lon="2.09903">
        <ele>127.2</ele>
        <time>2023-01-11T15:14:48Z</time>
      </trkpt>
      <trkpt lat="49.85967" lon="2.09903">
        <ele>127.2</ele>
        <time>2023-01-11T15:14:49Z</time>
      </trkpt>
      <trkpt lat="49.85967" lon="2.09903">
        <ele>127.2</ele>
        <time>2023-01-11T15:14:50Z</time>
      </trkpt>
      <trkpt lat="49.85967" lon="2.09903">
        <ele>127.2</ele>
        <time>2023-01-11T15:14:51Z</time>
      </trkpt>
      <trkpt lat="49.85967" lon="2.09903">
        <ele>127.2</ele>
        <time>2023-01-11T15:14:52Z</time>
      </trkpt>
      <trkpt lat="49.85967" lon="2.09903">
        <ele>127.2</ele>
        <time>2023-01-11T15:14:53Z</time>
      </trkpt>
      <trkpt lat="49.85967" lon="2.09903">
        <ele>127.2</ele>
        <time>2023-01-11T15:14:54Z</time>
      </trkpt>
      <trkpt lat="49.85967" lon="2.09903">
        <ele>127.2</ele>
        <time>2023-01-11T15:14:55Z</time>
      </trkpt>
      <trkpt lat="49.85967" lon="2.09903">
        <ele>127.2</ele>
        <time>2023-01-11T15:14:56Z</time>
      </trkpt>
      <trkpt lat="49.85967" lon="2.09903">
        <ele>127.2</ele>
        <time>2023-01-11T15:14:57Z</time>
      </trkpt>
      <trkpt lat="49.85967" lon="2.09903">
        <ele>127.2</ele>
        <time>2023-01-11T15:14:58Z</time>
      </trkpt>
      <trkpt lat="49.85967" lon="2.09903">
        <ele>127.2</ele>
        <time>2023-01-11T15:14:59Z</time>
      </trkpt>
      <trkpt lat="49.85967" lon="2.09903">
        <ele>127.2</ele>
        <time>2023-01-11T15:15:00Z</time>
      </trkpt>
      <trkpt lat="49.85967" lon="2.09903">
        <ele>127.2</ele>
        <time>2023-01-11T15:15:01Z</time>
      </trkpt>
      <trkpt lat="49.85967" lon="2.09903">
        <ele>127.2</ele>
        <time>2023-01-11T15:15:02Z</time>
      </trkpt>
      <trkpt lat="49.85967" lon="2.09903">
        <ele>127.2</ele>
        <time>2023-01-11T15:15:03Z</time>
      </trkpt>
      <trkpt lat="49.85967" lon="2.09903">
        <ele>127.2</ele>
        <time>2023-01-11T15:15:04Z</time>
      </trkpt>
      <trkpt lat="49.85967" lon="2.09903">
        <ele>127.2</ele>
        <time>2023-01-11T15:15:05Z</time>
      </trkpt>
      <trkpt lat="49.85967" lon="2.09903">
        <ele>127.2</ele>
        <time>2023-01-11T15:15:06Z</time>
      </trkpt>
      <trkpt lat="49.85967" lon="2.09903">
        <ele>127.2</ele>
        <time>2023-01-11T15:15:07Z</time>
      </trkpt>
      <trkpt lat="49.85967" lon="2.09903">
        <ele>127.2</ele>
        <time>2023-01-11T15:15:08Z</time>
      </trkpt>
      <trkpt lat="49.85967" lon="2.09903">
        <ele>127.2</ele>
        <time>2023-01-11T15:15:09Z</time>
      </trkpt>
      <trkpt lat="49.85967" lon="2.09903">
        <ele>127.2</ele>
        <time>2023-01-11T15:15:10Z</time>
      </trkpt>
      <trkpt lat="49.85967" lon="2.09903">
        <ele>127.2</ele>
        <time>2023-01-11T15:15:11Z</time>
      </trkpt>
      <trkpt lat="49.85967" lon="2.09903">
        <ele>127.2</ele>
        <time>2023-01-11T15:15:12Z</time>
      </trkpt>
      <trkpt lat="49.85967" lon="2.09903">
        <ele>127.2</ele>
        <time>2023-01-11T15:15:13Z</time>
      </trkpt>
      <trkpt lat="49.85967" lon="2.09903">
        <ele>127.2</ele>
        <time>2023-01-11T15:15:14Z</time>
      </trkpt>
      <trkpt lat="49.85967" lon="2.09903">
        <ele>127.2</ele>
        <time>2023-01-11T15:15:15Z</time>
      </trkpt>
      <trkpt lat="49.85967" lon="2.09903">
        <ele>127.2</ele>
        <time>2023-01-11T15:15:16Z</time>
      </trkpt>
      <trkpt lat="49.85967" lon="2.09903">
        <ele>127.2</ele>
        <time>2023-01-11T15:15:17Z</time>
      </trkpt>
      <trkpt lat="49.85967" lon="2.09903">
        <ele>127.2</ele>
        <time>2023-01-11T15:15:18Z</time>
      </trkpt>
      <trkpt lat="49.85967" lon="2.09903">
        <ele>127.2</ele>
        <time>2023-01-11T15:15:19Z</time>
      </trkpt>
      <trkpt lat="49.85967" lon="2.09903">
        <ele>127.2</ele>
        <time>2023-01-11T15:15:20Z</time>
      </trkpt>
      <trkpt lat="49.85967" lon="2.09903">
        <ele>127.2</ele>
        <time>2023-01-11T15:15:21Z</time>
      </trkpt>
      <trkpt lat="49.85968" lon="2.09903">
        <ele>127.2</ele>
        <time>2023-01-11T15:15:22Z</time>
      </trkpt>
      <trkpt lat="49.85968" lon="2.09903">
        <ele>127.2</ele>
        <time>2023-01-11T15:15:23Z</time>
      </trkpt>
      <trkpt lat="49.85968" lon="2.09903">
        <ele>127.2</ele>
        <time>2023-01-11T15:15:24Z</time>
      </trkpt>
      <trkpt lat="49.85968" lon="2.09903">
        <ele>127.2</ele>
        <time>2023-01-11T15:15:25Z</time>
      </trkpt>
      <trkpt lat="49.85968" lon="2.09903">
        <ele>127.2</ele>
        <time>2023-01-11T15:15:26Z</time>
      </trkpt>
      <trkpt lat="49.85968" lon="2.09903">
        <ele>127.2</ele>
        <time>2023-01-11T15:15:27Z</time>
      </trkpt>
      <trkpt lat="49.85968" lon="2.09903">
        <ele>127.2</ele>
        <time>2023-01-11T15:15:28Z</time>
      </trkpt>
      <trkpt lat="49.85968" lon="2.09903">
        <ele>127.2</ele>
        <time>2023-01-11T15:15:29Z</time>
      </trkpt>
      <trkpt lat="49.85968" lon="2.09903">
        <ele>127.2</ele>
        <time>2023-01-11T15:15:30Z</time>
      </trkpt>
      <trkpt lat="49.85968" lon="2.09903">
        <ele>127.2</ele>
        <time>2023-01-11T15:15:31Z</time>
      </trkpt>
      <trkpt lat="49.85968" lon="2.09903">
        <ele>127.2</ele>
        <time>2023-01-11T15:15:32Z</time>
      </trkpt>
      <trkpt lat="49.85968" lon="2.09903">
        <ele>127.2</ele>
        <time>2023-01-11T15:15:33Z</time>
      </trkpt>
      <trkpt lat="49.85968" lon="2.09903">
        <ele>127.2</ele>
        <time>2023-01-11T15:15:34Z</time>
      </trkpt>
      <trkpt lat="49.85968" lon="2.09903">
        <ele>127.2</ele>
        <time>2023-01-11T15:15:35Z</time>
      </trkpt>
      <trkpt lat="49.85968" lon="2.09903">
        <ele>127.2</ele>
        <time>2023-01-11T15:15:36Z</time>
      </trkpt>
      <trkpt lat="49.85968" lon="2.09903">
        <ele>127.2</ele>
        <time>2023-01-11T15:15:37Z</time>
      </trkpt>
      <trkpt lat="49.85968" lon="2.09903">
        <ele>127.2</ele>
        <time>2023-01-11T15:15:38Z</time>
      </trkpt>
      <trkpt lat="49.85968" lon="2.09903">
        <ele>127.2</ele>
        <time>2023-01-11T15:15:39Z</time>
      </trkpt>
      <trkpt lat="49.85968" lon="2.09903">
        <ele>127.2</ele>
        <time>2023-01-11T15:15:40Z</time>
      </trkpt>
      <trkpt lat="49.85968" lon="2.09903">
        <ele>127.2</ele>
        <time>2023-01-11T15:15:41Z</time>
      </trkpt>
      <trkpt lat="49.85968" lon="2.09903">
        <ele>127.2</ele>
        <time>2023-01-11T15:15:42Z</time>
      </trkpt>
      <trkpt lat="49.85968" lon="2.09903">
        <ele>127.2</ele>
        <time>2023-01-11T15:15:43Z</time>
      </trkpt>
      <trkpt lat="49.85968" lon="2.09903">
        <ele>127.2</ele>
        <time>2023-01-11T15:15:44Z</time>
      </trkpt>
      <trkpt lat="49.85968" lon="2.09903">
        <ele>127.2</ele>
        <time>2023-01-11T15:15:45Z</time>
      </trkpt>
      <trkpt lat="49.85968" lon="2.09903">
        <ele>127.2</ele>
        <time>2023-01-11T15:15:46Z</time>
      </trkpt>
      <trkpt lat="49.85968" lon="2.09903">
        <ele>127.2</ele>
        <time>2023-01-11T15:15:47Z</time>
      </trkpt>
      <trkpt lat="49.85968" lon="2.09903">
        <ele>127.2</ele>
        <time>2023-01-11T15:15:48Z</time>
      </trkpt>
      <trkpt lat="49.85968" lon="2.09903">
        <ele>127.2</ele>
        <time>2023-01-11T15:15:49Z</time>
      </trkpt>
    </trkseg>
  </trk>
</gpx>